<?xml version='1.0' encoding='UTF-8'?><gpx version="1.1" creator="JPX - https://github.com/jenetics/jpx" xmlns="http://www.topografix.com/GPX/1/1"><trk><trkseg><trkpt lat="36.94003890178677" lon="14.979090266304047"><ele>557.8000000000001</ele><time>2026-04-18T13:18:32.67Z</time></trkpt><trkpt lat="36.94014730549001" lon="14.97908391123996"><ele>558.6</ele><time>2026-04-18T13:18:34Z</time></trkpt><trkpt lat="36.94022887188539" lon="14.979079129487687"><ele>559.4000000000001</ele><time>2026-04-18T13:18:35Z</time></trkpt><trkpt lat="36.940316259341955" lon="14.979074006475726"><ele>560.2</ele><time>2026-04-18T13:18:36Z</time></trkpt><trkpt lat="36.94041830848899" lon="14.97906732338871"><ele>561.0</ele><time>2026-04-18T13:18:37Z</time></trkpt><trkpt lat="36.940538614898536" lon="14.97905956634463"><ele>561.0</ele><time>2026-04-18T13:18:38Z</time></trkpt><trkpt lat="36.940653620611265" lon="14.979049461889167"><ele>561.0</ele><time>2026-04-18T13:18:39Z</time></trkpt><trkpt lat="36.94077412104681" lon="14.979038608766992"><ele>561.0</ele><time>2026-04-18T13:18:40Z</time></trkpt><trkpt lat="36.9409033486217" lon="14.979024958182936"><ele>561.0</ele><time>2026-04-18T13:18:41Z</time></trkpt><trkpt lat="36.94102196710956" lon="14.979005830027772"><ele>561.0</ele><time>2026-04-18T13:18:42Z</time></trkpt><trkpt lat="36.94113842802034" lon="14.978983652510431"><ele>561.0</ele><time>2026-04-18T13:18:43Z</time></trkpt><trkpt lat="36.9412573028332" lon="14.978957557701278"><ele>561.0</ele><time>2026-04-18T13:18:44Z</time></trkpt><trkpt lat="36.94136925818437" lon="14.978932981818776"><ele>561.0</ele><time>2026-04-18T13:18:45Z</time></trkpt><trkpt lat="36.94146781941375" lon="14.978911346147104"><ele>561.0</ele><time>2026-04-18T13:18:46Z</time></trkpt><trkpt lat="36.94155692496407" lon="14.978891786139112"><ele>561.0</ele><time>2026-04-18T13:18:47Z</time></trkpt><trkpt lat="36.94162638647891" lon="14.978876538292392"><ele>561.0</ele><time>2026-04-18T13:18:48Z</time></trkpt><trkpt lat="36.9416984244293" lon="14.978860724879851"><ele>561.0</ele><time>2026-04-18T13:18:49Z</time></trkpt><trkpt lat="36.941806562300044" lon="14.978836986991622"><ele>561.0</ele><time>2026-04-18T13:18:51Z</time></trkpt><trkpt lat="36.94187371518742" lon="14.978801351612299"><ele>561.0</ele><time>2026-04-18T13:18:53Z</time></trkpt><trkpt lat="36.941940588762044" lon="14.978807566168115"><ele>561.1666666666666</ele><time>2026-04-18T13:18:55Z</time></trkpt><trkpt lat="36.94193629660977" lon="14.978627983186001"><ele>561.3333333333334</ele><time>2026-04-18T13:18:59Z</time></trkpt><trkpt lat="36.941909650220694" lon="14.978555009570211"><ele>561.5</ele><time>2026-04-18T13:19:00Z</time></trkpt><trkpt lat="36.94187496431704" lon="14.978466661751474"><ele>561.6666666666667</ele><time>2026-04-18T13:19:01Z</time></trkpt><trkpt lat="36.94184725266351" lon="14.978361151938328"><ele>561.8333333333334</ele><time>2026-04-18T13:19:02Z</time></trkpt><trkpt lat="36.941818076891124" lon="14.978286510695684"><ele>562.0</ele><time>2026-04-18T13:19:03Z</time></trkpt><trkpt lat="36.94178274222833" lon="14.978203379047299"><ele>562.2</ele><time>2026-04-18T13:19:04Z</time></trkpt><trkpt lat="36.94172120531029" lon="14.978086376389324"><ele>562.4000000000001</ele><time>2026-04-18T13:19:06Z</time></trkpt><trkpt lat="36.941670152140716" lon="14.977991032451484"><ele>562.5999999999999</ele><time>2026-04-18T13:19:08Z</time></trkpt><trkpt lat="36.941630160321765" lon="14.977925551056016"><ele>562.8</ele><time>2026-04-18T13:19:09Z</time></trkpt><trkpt lat="36.941594346737126" lon="14.977817517805414"><ele>563.0</ele><time>2026-04-18T13:19:10Z</time></trkpt><trkpt lat="36.94153249626243" lon="14.977697839401879"><ele>563.0</ele><time>2026-04-18T13:19:11Z</time></trkpt><trkpt lat="36.94147166316467" lon="14.977583696734682"><ele>563.0</ele><time>2026-04-18T13:19:12Z</time></trkpt><trkpt lat="36.94141599848016" lon="14.977479251690301"><ele>563.0</ele><time>2026-04-18T13:19:13Z</time></trkpt><trkpt lat="36.94135991075059" lon="14.977378672386422"><ele>563.0</ele><time>2026-04-18T13:19:14Z</time></trkpt><trkpt lat="36.941311380296426" lon="14.977291826446502"><ele>563.0</ele><time>2026-04-18T13:19:15Z</time></trkpt><trkpt lat="36.941264001653" lon="14.97722382034641"><ele>563.4</ele><time>2026-04-18T13:19:16Z</time></trkpt><trkpt lat="36.94119142780826" lon="14.977083700320028"><ele>563.8</ele><time>2026-04-18T13:19:18Z</time></trkpt><trkpt lat="36.9411581798258" lon="14.976998680467375"><ele>564.2</ele><time>2026-04-18T13:19:19Z</time></trkpt><trkpt lat="36.94111840685243" lon="14.97690366578365"><ele>564.6</ele><time>2026-04-18T13:19:20Z</time></trkpt><trkpt lat="36.941097218392535" lon="14.976804823897464"><ele>565.0</ele><time>2026-04-18T13:19:21Z</time></trkpt><trkpt lat="36.94105130221874" lon="14.976724432245547"><ele>564.8333333333334</ele><time>2026-04-18T13:19:22Z</time></trkpt><trkpt lat="36.94102187122476" lon="14.97663804174213"><ele>564.6666666666667</ele><time>2026-04-18T13:19:23Z</time></trkpt><trkpt lat="36.94098399053684" lon="14.976550825251147"><ele>564.5</ele><time>2026-04-18T13:19:24Z</time></trkpt><trkpt lat="36.94094588704182" lon="14.97646664757799"><ele>564.3333333333334</ele><time>2026-04-18T13:19:25Z</time></trkpt><trkpt lat="36.94090844049237" lon="14.97637244355297"><ele>564.1666666666666</ele><time>2026-04-18T13:19:26Z</time></trkpt><trkpt lat="36.94086903445405" lon="14.976275293181756"><ele>564.0</ele><time>2026-04-18T13:19:27Z</time></trkpt><trkpt lat="36.940833207726165" lon="14.97618707981711"><ele>562.6</ele><time>2026-04-18T13:19:28Z</time></trkpt><trkpt lat="36.940775673659054" lon="14.97604028173585"><ele>561.2</ele><time>2026-04-18T13:19:30Z</time></trkpt><trkpt lat="36.940739513485696" lon="14.975942879606452"><ele>559.8000000000001</ele><time>2026-04-18T13:19:31Z</time></trkpt><trkpt lat="36.94070575300764" lon="14.975845722908806"><ele>558.4</ele><time>2026-04-18T13:19:32Z</time></trkpt><trkpt lat="36.94068946329315" lon="14.975730280414624"><ele>557.0</ele><time>2026-04-18T13:19:33Z</time></trkpt><trkpt lat="36.940649272568464" lon="14.975629327710159"><ele>555.2</ele><time>2026-04-18T13:19:34Z</time></trkpt><trkpt lat="36.940611675564014" lon="14.975527835950665"><ele>553.4000000000001</ele><time>2026-04-18T13:19:35Z</time></trkpt><trkpt lat="36.940577321112755" lon="14.975423648355095"><ele>551.5999999999999</ele><time>2026-04-18T13:19:36Z</time></trkpt><trkpt lat="36.940550203426874" lon="14.975327150076303"><ele>549.8</ele><time>2026-04-18T13:19:37Z</time></trkpt><trkpt lat="36.94052679013605" lon="14.975230822865846"><ele>548.0</ele><time>2026-04-18T13:19:38Z</time></trkpt><trkpt lat="36.940509757924644" lon="14.975080810800467"><ele>546.3333333333333</ele><time>2026-04-18T13:19:40Z</time></trkpt><trkpt lat="36.9405125456181" lon="14.975001911106501"><ele>544.6666666666666</ele><time>2026-04-18T13:19:41Z</time></trkpt><trkpt lat="36.940523088446625" lon="14.974903187699747"><ele>543.0</ele><time>2026-04-18T13:19:42Z</time></trkpt><trkpt lat="36.94054706880027" lon="14.974804124782137"><ele>541.3333333333334</ele><time>2026-04-18T13:19:43Z</time></trkpt><trkpt lat="36.940542649332905" lon="14.974696594872306"><ele>539.6666666666667</ele><time>2026-04-18T13:19:44Z</time></trkpt><trkpt lat="36.94051088958324" lon="14.974587863630484"><ele>538.0</ele><time>2026-04-18T13:19:45Z</time></trkpt><trkpt lat="36.940488685042844" lon="14.974445260369803"><ele>538.0</ele><time>2026-04-18T13:19:46Z</time></trkpt><trkpt lat="36.94045883501255" lon="14.974290720186575"><ele>538.0</ele><time>2026-04-18T13:19:47Z</time></trkpt><trkpt lat="36.94042082351384" lon="14.974120752793466"><ele>538.0</ele><time>2026-04-18T13:19:48Z</time></trkpt><trkpt lat="36.94038100049852" lon="14.973928298937"><ele>538.0</ele><time>2026-04-18T13:19:49Z</time></trkpt><trkpt lat="36.94034748447169" lon="14.973750025271848"><ele>535.6</ele><time>2026-04-18T13:19:50Z</time></trkpt><trkpt lat="36.94032273184128" lon="14.973599433695725"><ele>533.1999999999999</ele><time>2026-04-18T13:19:51Z</time></trkpt><trkpt lat="36.94029870784903" lon="14.973460153572535"><ele>530.8</ele><time>2026-04-18T13:19:52Z</time></trkpt><trkpt lat="36.94028717049502" lon="14.973345676345057"><ele>528.4</ele><time>2026-04-18T13:19:53Z</time></trkpt><trkpt lat="36.940282822881194" lon="14.973237293381791"><ele>526.0</ele><time>2026-04-18T13:19:54Z</time></trkpt><trkpt lat="36.94028592270133" lon="14.973112003704733"><ele>524.25</ele><time>2026-04-18T13:19:55Z</time></trkpt><trkpt lat="36.94030048787715" lon="14.972971984531487"><ele>522.5</ele><time>2026-04-18T13:19:56Z</time></trkpt><trkpt lat="36.940340039887815" lon="14.97283528954413"><ele>520.75</ele><time>2026-04-18T13:19:57Z</time></trkpt><trkpt lat="36.94035843688738" lon="14.972684376125892"><ele>519.0</ele><time>2026-04-18T13:19:58Z</time></trkpt><trkpt lat="36.94038159031776" lon="14.97254332379948"><ele>517.25</ele><time>2026-04-18T13:19:59Z</time></trkpt><trkpt lat="36.940393500529225" lon="14.972409856383152"><ele>515.5</ele><time>2026-04-18T13:20:00Z</time></trkpt><trkpt lat="36.94039409903731" lon="14.97227454817555"><ele>513.75</ele><time>2026-04-18T13:20:01Z</time></trkpt><trkpt lat="36.94039143305953" lon="14.972117848682199"><ele>512.0</ele><time>2026-04-18T13:20:02Z</time></trkpt><trkpt lat="36.940380617369534" lon="14.971938994605534"><ele>512.0</ele><time>2026-04-18T13:20:03Z</time></trkpt><trkpt lat="36.94037713812552" lon="14.971719096313036"><ele>512.0</ele><time>2026-04-18T13:20:04Z</time></trkpt><trkpt lat="36.940387894881226" lon="14.9714976169185"><ele>512.0</ele><time>2026-04-18T13:20:05Z</time></trkpt><trkpt lat="36.94039940033043" lon="14.971302856799564"><ele>511.0</ele><time>2026-04-18T13:20:06Z</time></trkpt><trkpt lat="36.940414921420306" lon="14.971120552937338"><ele>510.0</ele><time>2026-04-18T13:20:07Z</time></trkpt><trkpt lat="36.94043789737815" lon="14.9709404058168"><ele>509.0</ele><time>2026-04-18T13:20:08Z</time></trkpt><trkpt lat="36.94047525248553" lon="14.970751272118395"><ele>508.0</ele><time>2026-04-18T13:20:09Z</time></trkpt><trkpt lat="36.94052824843205" lon="14.970557949700975"><ele>507.33333333333337</ele><time>2026-04-18T13:20:10Z</time></trkpt><trkpt lat="36.940543931294876" lon="14.97034827765503"><ele>506.66666666666663</ele><time>2026-04-18T13:20:11Z</time></trkpt><trkpt lat="36.94057326217954" lon="14.970134861166674"><ele>506.0</ele><time>2026-04-18T13:20:12Z</time></trkpt><trkpt lat="36.94060115669667" lon="14.969916041679603"><ele>506.0</ele><time>2026-04-18T13:20:13Z</time></trkpt><trkpt lat="36.940631017314175" lon="14.969702673378398"><ele>506.0</ele><time>2026-04-18T13:20:14Z</time></trkpt><trkpt lat="36.9406613194461" lon="14.96950202403307"><ele>506.0</ele><time>2026-04-18T13:20:15Z</time></trkpt><trkpt lat="36.94069103547086" lon="14.969323493195487"><ele>506.4</ele><time>2026-04-18T13:20:16Z</time></trkpt><trkpt lat="36.94071681980093" lon="14.969163620611969"><ele>506.8</ele><time>2026-04-18T13:20:17Z</time></trkpt><trkpt lat="36.94073883298192" lon="14.969029517149801"><ele>507.19999999999993</ele><time>2026-04-18T13:20:18Z</time></trkpt><trkpt lat="36.94076520237122" lon="14.96891952704565"><ele>507.59999999999997</ele><time>2026-04-18T13:20:19Z</time></trkpt><trkpt lat="36.940797685226244" lon="14.968832619915295"><ele>508.0</ele><time>2026-04-18T13:20:20Z</time></trkpt><trkpt lat="36.94085938495525" lon="14.968796045026677"><ele>508.5</ele><time>2026-04-18T13:20:21Z</time></trkpt><trkpt lat="36.94094240281644" lon="14.968682906667214"><ele>509.0</ele><time>2026-04-18T13:20:23Z</time></trkpt><trkpt lat="36.94099809099443" lon="14.968594400200233"><ele>509.5</ele><time>2026-04-18T13:20:24Z</time></trkpt><trkpt lat="36.9410454312834" lon="14.968464712940815"><ele>510.0</ele><time>2026-04-18T13:20:25Z</time></trkpt><trkpt lat="36.941099810604385" lon="14.968320813903805"><ele>510.0</ele><time>2026-04-18T13:20:26Z</time></trkpt><trkpt lat="36.94115116495081" lon="14.968154103367182"><ele>510.0</ele><time>2026-04-18T13:20:27Z</time></trkpt><trkpt lat="36.941202678363574" lon="14.967961092305423"><ele>510.0</ele><time>2026-04-18T13:20:28Z</time></trkpt><trkpt lat="36.94125924516965" lon="14.967742747106138"><ele>510.0</ele><time>2026-04-18T13:20:29Z</time></trkpt><trkpt lat="36.9413063185007" lon="14.967528587407697"><ele>510.0</ele><time>2026-04-18T13:20:30Z</time></trkpt><trkpt lat="36.94135498761262" lon="14.96734743053968"><ele>510.0</ele><time>2026-04-18T13:20:31Z</time></trkpt><trkpt lat="36.9414079905621" lon="14.967173574004082"><ele>509.5</ele><time>2026-04-18T13:20:32Z</time></trkpt><trkpt lat="36.94146221453775" lon="14.967012419164673"><ele>509.0</ele><time>2026-04-18T13:20:33Z</time></trkpt><trkpt lat="36.94151479520969" lon="14.966872110698867"><ele>508.5</ele><time>2026-04-18T13:20:34Z</time></trkpt><trkpt lat="36.94154829830482" lon="14.966743939475643"><ele>508.0</ele><time>2026-04-18T13:20:35Z</time></trkpt><trkpt lat="36.94158323518611" lon="14.966623130906813"><ele>508.0</ele><time>2026-04-18T13:20:36Z</time></trkpt><trkpt lat="36.94160395477178" lon="14.966510672048992"><ele>507.99999999999994</ele><time>2026-04-18T13:20:37Z</time></trkpt><trkpt lat="36.94161602977743" lon="14.966400424523746"><ele>507.99999999999994</ele><time>2026-04-18T13:20:38Z</time></trkpt><trkpt lat="36.94160823309404" lon="14.966295423752321"><ele>508.0</ele><time>2026-04-18T13:20:39Z</time></trkpt><trkpt lat="36.94160215645874" lon="14.96618441280342"><ele>508.0</ele><time>2026-04-18T13:20:40Z</time></trkpt><trkpt lat="36.941603370546005" lon="14.96604814022831"><ele>508.0</ele><time>2026-04-18T13:20:41Z</time></trkpt><trkpt lat="36.941605794967735" lon="14.96590693559189"><ele>507.99999999999994</ele><time>2026-04-18T13:20:42Z</time></trkpt><trkpt lat="36.94160090682487" lon="14.965760472059955"><ele>507.99999999999994</ele><time>2026-04-18T13:20:43Z</time></trkpt><trkpt lat="36.941581171797175" lon="14.965620366328931"><ele>508.0</ele><time>2026-04-18T13:20:44Z</time></trkpt><trkpt lat="36.941556830677236" lon="14.965495340623134"><ele>508.0</ele><time>2026-04-18T13:20:45Z</time></trkpt><trkpt lat="36.94152396680336" lon="14.965385715321592"><ele>507.59999999999997</ele><time>2026-04-18T13:20:46Z</time></trkpt><trkpt lat="36.94146605840653" lon="14.965283785093103"><ele>507.19999999999993</ele><time>2026-04-18T13:20:47Z</time></trkpt><trkpt lat="36.94139220716479" lon="14.965139906042223"><ele>506.8</ele><time>2026-04-18T13:20:48Z</time></trkpt><trkpt lat="36.941351045295946" lon="14.96500001468176"><ele>506.4</ele><time>2026-04-18T13:20:49Z</time></trkpt><trkpt lat="36.941349393577184" lon="14.964895238718592"><ele>506.0</ele><time>2026-04-18T13:20:50Z</time></trkpt><trkpt lat="36.94133931935227" lon="14.964762178283953"><ele>504.0</ele><time>2026-04-18T13:20:51Z</time></trkpt><trkpt lat="36.94133677546016" lon="14.964605273970015"><ele>502.0</ele><time>2026-04-18T13:20:52Z</time></trkpt><trkpt lat="36.94131889069625" lon="14.964427116972278"><ele>500.0</ele><time>2026-04-18T13:20:53Z</time></trkpt><trkpt lat="36.941305191961916" lon="14.96428626630308"><ele>498.0</ele><time>2026-04-18T13:20:54Z</time></trkpt><trkpt lat="36.94127401369002" lon="14.964162100977257"><ele>495.8333333333333</ele><time>2026-04-18T13:20:55Z</time></trkpt><trkpt lat="36.94123122662082" lon="14.964044763407951"><ele>493.66666666666663</ele><time>2026-04-18T13:20:56Z</time></trkpt><trkpt lat="36.941184203532934" lon="14.963944234337637"><ele>491.5</ele><time>2026-04-18T13:20:57Z</time></trkpt><trkpt lat="36.941134666273335" lon="14.963842394082151"><ele>489.3333333333333</ele><time>2026-04-18T13:20:58Z</time></trkpt><trkpt lat="36.94109232147306" lon="14.963774276368085"><ele>487.16666666666663</ele><time>2026-04-18T13:20:59Z</time></trkpt><trkpt lat="36.94103217723478" lon="14.963695583191074"><ele>485.0</ele><time>2026-04-18T13:21:01Z</time></trkpt><trkpt lat="36.940954812126655" lon="14.963679070177538"><ele>487.7142857142858</ele><time>2026-04-18T13:21:02Z</time></trkpt><trkpt lat="36.94087261073931" lon="14.963643280083785"><ele>490.42857142857144</ele><time>2026-04-18T13:21:03Z</time></trkpt><trkpt lat="36.94080518905162" lon="14.963609187053335"><ele>493.14285714285717</ele><time>2026-04-18T13:21:04Z</time></trkpt><trkpt lat="36.94075179662913" lon="14.963552113015833"><ele>495.8571428571429</ele><time>2026-04-18T13:21:05Z</time></trkpt><trkpt lat="36.94069343462727" lon="14.963488237711132"><ele>498.57142857142856</ele><time>2026-04-18T13:21:06Z</time></trkpt><trkpt lat="36.94063430412009" lon="14.963429222083313"><ele>501.2857142857143</ele><time>2026-04-18T13:21:07Z</time></trkpt><trkpt lat="36.940584768198" lon="14.963375389436365"><ele>504.0</ele><time>2026-04-18T13:21:08Z</time></trkpt><trkpt lat="36.940556432094304" lon="14.96330201241543"><ele>504.0</ele><time>2026-04-18T13:21:09Z</time></trkpt><trkpt lat="36.940496044004405" lon="14.963208826968037"><ele>504.0</ele><time>2026-04-18T13:21:10Z</time></trkpt><trkpt lat="36.94043611451115" lon="14.963115830588027"><ele>504.0</ele><time>2026-04-18T13:21:11Z</time></trkpt><trkpt lat="36.94038092283342" lon="14.963031129345632"><ele>504.0</ele><time>2026-04-18T13:21:12Z</time></trkpt><trkpt lat="36.94031686756638" lon="14.962964564924036"><ele>504.0</ele><time>2026-04-18T13:21:13Z</time></trkpt><trkpt lat="36.94026601846385" lon="14.962870275503741"><ele>504.0</ele><time>2026-04-18T13:21:14Z</time></trkpt><trkpt lat="36.94020040356242" lon="14.962770993008197"><ele>504.0</ele><time>2026-04-18T13:21:15Z</time></trkpt><trkpt lat="36.94012616974656" lon="14.962666769198577"><ele>504.0</ele><time>2026-04-18T13:21:16Z</time></trkpt><trkpt lat="36.94005073613252" lon="14.962563358754394"><ele>504.0</ele><time>2026-04-18T13:21:17Z</time></trkpt><trkpt lat="36.93998797947685" lon="14.962464811671573"><ele>504.0</ele><time>2026-04-18T13:21:18Z</time></trkpt><trkpt lat="36.93994903203564" lon="14.962351880089372"><ele>503.0</ele><time>2026-04-18T13:21:19Z</time></trkpt><trkpt lat="36.93992846519544" lon="14.962237143059307"><ele>502.0</ele><time>2026-04-18T13:21:20Z</time></trkpt><trkpt lat="36.939913279684234" lon="14.962123143449281"><ele>501.0</ele><time>2026-04-18T13:21:21Z</time></trkpt><trkpt lat="36.93989622604835" lon="14.961996275920528"><ele>500.0</ele><time>2026-04-18T13:21:22Z</time></trkpt><trkpt lat="36.93987407483084" lon="14.961872957658867"><ele>499.0</ele><time>2026-04-18T13:21:23Z</time></trkpt><trkpt lat="36.93984094133492" lon="14.961797477136994"><ele>495.4</ele><time>2026-04-18T13:21:24Z</time></trkpt><trkpt lat="36.93977781905661" lon="14.961653317879483"><ele>491.79999999999995</ele><time>2026-04-18T13:21:26Z</time></trkpt><trkpt lat="36.93973363764183" lon="14.961573315706971"><ele>488.20000000000005</ele><time>2026-04-18T13:21:27Z</time></trkpt><trkpt lat="36.93968365990779" lon="14.961508496190586"><ele>484.6</ele><time>2026-04-18T13:21:28Z</time></trkpt><trkpt lat="36.9396317363051" lon="14.961445536701968"><ele>481.0</ele><time>2026-04-18T13:21:29Z</time></trkpt><trkpt lat="36.93956353634993" lon="14.96130983253807"><ele>481.00000000000006</ele><time>2026-04-18T13:21:31Z</time></trkpt><trkpt lat="36.93950228667924" lon="14.961197132586806"><ele>481.0</ele><time>2026-04-18T13:21:33Z</time></trkpt><trkpt lat="36.93946528887153" lon="14.961125699423329"><ele>481.0</ele><time>2026-04-18T13:21:34Z</time></trkpt><trkpt lat="36.939421817891194" lon="14.961033959702315"><ele>481.0</ele><time>2026-04-18T13:21:36Z</time></trkpt><trkpt lat="36.93934365984808" lon="14.96092234643741"><ele>481.00000000000006</ele><time>2026-04-18T13:21:38Z</time></trkpt><trkpt lat="36.93929700182836" lon="14.960865705906029"><ele>481.0</ele><time>2026-04-18T13:21:39Z</time></trkpt><trkpt lat="36.939239828512584" lon="14.960797342511409"><ele>480.6</ele><time>2026-04-18T13:21:40Z</time></trkpt><trkpt lat="36.93915173533373" lon="14.960686169348607"><ele>480.20000000000005</ele><time>2026-04-18T13:21:42Z</time></trkpt><trkpt lat="36.93910363776199" lon="14.960563100086"><ele>479.79999999999995</ele><time>2026-04-18T13:21:44Z</time></trkpt><trkpt lat="36.9390464918264" lon="14.960478651781107"><ele>479.4</ele><time>2026-04-18T13:21:46Z</time></trkpt><trkpt lat="36.93902886099303" lon="14.960396244956232"><ele>479.0</ele><time>2026-04-18T13:21:48Z</time></trkpt><trkpt lat="36.93898995362998" lon="14.960300026120853"><ele>478.99999999999994</ele><time>2026-04-18T13:21:58Z</time></trkpt><trkpt lat="36.93894719669613" lon="14.960216512339871"><ele>479.0</ele><time>2026-04-18T13:21:59Z</time></trkpt><trkpt lat="36.93889953647764" lon="14.96011745598756"><ele>479.0</ele><time>2026-04-18T13:22:00Z</time></trkpt><trkpt lat="36.93884945845314" lon="14.960016803046857"><ele>479.0</ele><time>2026-04-18T13:22:01Z</time></trkpt><trkpt lat="36.93880670646625" lon="14.959930530429487"><ele>478.99999999999994</ele><time>2026-04-18T13:22:02Z</time></trkpt><trkpt lat="36.93877183363887" lon="14.959859076255688"><ele>479.0</ele><time>2026-04-18T13:22:03Z</time></trkpt><trkpt lat="36.9387282905748" lon="14.959764351225068"><ele>476.2</ele><time>2026-04-18T13:22:04Z</time></trkpt><trkpt lat="36.93867922901" lon="14.959654307102564"><ele>473.4</ele><time>2026-04-18T13:22:05Z</time></trkpt><trkpt lat="36.93863141840788" lon="14.959543494760672"><ele>470.6</ele><time>2026-04-18T13:22:06Z</time></trkpt><trkpt lat="36.93858862731553" lon="14.959438591910217"><ele>467.8</ele><time>2026-04-18T13:22:07Z</time></trkpt><trkpt lat="36.93855282106855" lon="14.959345098771758"><ele>465.0</ele><time>2026-04-18T13:22:08Z</time></trkpt><trkpt lat="36.938536711307584" lon="14.959250776081081"><ele>461.1428571428571</ele><time>2026-04-18T13:22:09Z</time></trkpt><trkpt lat="36.93851660091724" lon="14.959166064030358"><ele>457.28571428571433</ele><time>2026-04-18T13:22:10Z</time></trkpt><trkpt lat="36.93850239158922" lon="14.959079206470182"><ele>453.42857142857144</ele><time>2026-04-18T13:22:11Z</time></trkpt><trkpt lat="36.93849397681753" lon="14.958991335041599"><ele>449.57142857142856</ele><time>2026-04-18T13:22:12Z</time></trkpt><trkpt lat="36.938487744713264" lon="14.9589056171744"><ele>445.71428571428567</ele><time>2026-04-18T13:22:13Z</time></trkpt><trkpt lat="36.93848283079722" lon="14.958801073257321"><ele>441.8571428571429</ele><time>2026-04-18T13:22:14Z</time></trkpt><trkpt lat="36.93847995698227" lon="14.958695684944619"><ele>438.0</ele><time>2026-04-18T13:22:15Z</time></trkpt><trkpt lat="36.938475467373884" lon="14.958589690493064"><ele>438.0</ele><time>2026-04-18T13:22:16Z</time></trkpt><trkpt lat="36.93845519648854" lon="14.958495920208698"><ele>438.0</ele><time>2026-04-18T13:22:17Z</time></trkpt><trkpt lat="36.93844708862588" lon="14.958360544688247"><ele>438.0</ele><time>2026-04-18T13:22:19Z</time></trkpt><trkpt lat="36.93843399054746" lon="14.958242169725246"><ele>438.0</ele><time>2026-04-18T13:22:21Z</time></trkpt><trkpt lat="36.93837430256001" lon="14.958173334712402"><ele>438.0</ele><time>2026-04-18T13:22:23Z</time></trkpt><trkpt lat="36.938309955201404" lon="14.958184967474097"><ele>438.0</ele><time>2026-04-18T13:22:25Z</time></trkpt><trkpt lat="36.938243726374246" lon="14.958215146189817"><ele>443.0</ele><time>2026-04-18T13:22:28Z</time></trkpt><trkpt lat="36.93824040877066" lon="14.95834853859071"><ele>447.99999999999994</ele><time>2026-04-18T13:22:29Z</time></trkpt><trkpt lat="36.9382257693534" lon="14.958441485155229"><ele>452.99999999999994</ele><time>2026-04-18T13:22:31Z</time></trkpt><trkpt lat="36.93819594632823" lon="14.95856138572365"><ele>458.0</ele><time>2026-04-18T13:22:33Z</time></trkpt><trkpt lat="36.93817241140249" lon="14.958638599452538"><ele>463.0</ele><time>2026-04-18T13:22:34Z</time></trkpt><trkpt lat="36.93812692502033" lon="14.95878767174529"><ele>463.79999999999995</ele><time>2026-04-18T13:22:36Z</time></trkpt><trkpt lat="36.93812179460601" lon="14.958895595185622"><ele>464.59999999999997</ele><time>2026-04-18T13:22:37Z</time></trkpt><trkpt lat="36.9381251198963" lon="14.959021469184036"><ele>465.40000000000003</ele><time>2026-04-18T13:22:38Z</time></trkpt><trkpt lat="36.93813431428647" lon="14.959154307966392"><ele>466.20000000000005</ele><time>2026-04-18T13:22:39Z</time></trkpt><trkpt lat="36.93813860287103" lon="14.95927004043403"><ele>467.0</ele><time>2026-04-18T13:22:40Z</time></trkpt><trkpt lat="36.9381336826184" lon="14.959379161034178"><ele>465.16666666666663</ele><time>2026-04-18T13:22:41Z</time></trkpt><trkpt lat="36.938142632392214" lon="14.959490677115193"><ele>463.3333333333333</ele><time>2026-04-18T13:22:42Z</time></trkpt><trkpt lat="36.938155629949605" lon="14.959597034647627"><ele>461.5</ele><time>2026-04-18T13:22:43Z</time></trkpt><trkpt lat="36.93816808688883" lon="14.959700305103258"><ele>459.66666666666663</ele><time>2026-04-18T13:22:44Z</time></trkpt><trkpt lat="36.9381807831451" lon="14.959784892559384"><ele>457.8333333333333</ele><time>2026-04-18T13:22:45Z</time></trkpt><trkpt lat="36.93820142462173" lon="14.959867550192778"><ele>456.0</ele><time>2026-04-18T13:22:46Z</time></trkpt><trkpt lat="36.93821804768247" lon="14.959994606708745"><ele>456.0</ele><time>2026-04-18T13:22:48Z</time></trkpt><trkpt lat="36.93823872968625" lon="14.960086967544477"><ele>456.0</ele><time>2026-04-18T13:22:50Z</time></trkpt><trkpt lat="36.938220246104635" lon="14.96017990097644"><ele>456.0</ele><time>2026-04-18T13:22:52Z</time></trkpt><trkpt lat="36.93820681417157" lon="14.960269177836258"><ele>456.0</ele><time>2026-04-18T13:22:54Z</time></trkpt><trkpt lat="36.93813989513508" lon="14.960222264876142"><ele>456.0</ele><time>2026-04-18T13:22:56Z</time></trkpt><trkpt lat="36.93811699445925" lon="14.960078045965114"><ele>456.0</ele><time>2026-04-18T13:22:59Z</time></trkpt><trkpt lat="36.9381016463236" lon="14.95997954633571"><ele>456.0</ele><time>2026-04-18T13:23:00Z</time></trkpt><trkpt lat="36.93808356739051" lon="14.959894750299657"><ele>455.99999999999994</ele><time>2026-04-18T13:23:01Z</time></trkpt><trkpt lat="36.93805265356981" lon="14.959805319466371"><ele>456.0</ele><time>2026-04-18T13:23:02Z</time></trkpt><trkpt lat="36.93801833342979" lon="14.959728695981607"><ele>456.0</ele><time>2026-04-18T13:23:03Z</time></trkpt><trkpt lat="36.937977654600076" lon="14.95964068298552"><ele>455.99999999999994</ele><time>2026-04-18T13:23:04Z</time></trkpt><trkpt lat="36.93794467979909" lon="14.959552763324181"><ele>456.0</ele><time>2026-04-18T13:23:05Z</time></trkpt><trkpt lat="36.93791524984079" lon="14.95947559849573"><ele>456.0</ele><time>2026-04-18T13:23:06Z</time></trkpt><trkpt lat="36.93788696721598" lon="14.959360939036772"><ele>456.0</ele><time>2026-04-18T13:23:08Z</time></trkpt><trkpt lat="36.93783530334399" lon="14.959221865460371"><ele>456.0</ele><time>2026-04-18T13:23:10Z</time></trkpt><trkpt lat="36.937790321393784" lon="14.959100778893688"><ele>456.0</ele><time>2026-04-18T13:23:12Z</time></trkpt><trkpt lat="36.937739936516024" lon="14.958990580505256"><ele>456.0</ele><time>2026-04-18T13:23:14Z</time></trkpt><trkpt lat="36.93770557340907" lon="14.958869302761006"><ele>456.0</ele><time>2026-04-18T13:23:16Z</time></trkpt><trkpt lat="36.93767208717685" lon="14.958799959890746"><ele>457.8333333333333</ele><time>2026-04-18T13:23:17Z</time></trkpt><trkpt lat="36.937622458980115" lon="14.958679675716546"><ele>459.66666666666663</ele><time>2026-04-18T13:23:19Z</time></trkpt><trkpt lat="36.93758162209012" lon="14.958614321091414"><ele>461.5</ele><time>2026-04-18T13:23:21Z</time></trkpt><trkpt lat="36.93753803084085" lon="14.958505400059089"><ele>463.3333333333333</ele><time>2026-04-18T13:23:23Z</time></trkpt><trkpt lat="36.937466316673486" lon="14.958413224358953"><ele>465.16666666666663</ele><time>2026-04-18T13:23:25Z</time></trkpt><trkpt lat="36.93742066683936" lon="14.958357528577766"><ele>467.0</ele><time>2026-04-18T13:23:26Z</time></trkpt><trkpt lat="36.93732405963099" lon="14.958271134090182"><ele>460.49999999999994</ele><time>2026-04-18T13:23:28Z</time></trkpt><trkpt lat="36.93727631551987" lon="14.958219547896388"><ele>454.0</ele><time>2026-04-18T13:23:29Z</time></trkpt><trkpt lat="36.937197210606165" lon="14.958163601424516"><ele>447.5</ele><time>2026-04-18T13:23:31Z</time></trkpt><trkpt lat="36.93711971541693" lon="14.958110890013605"><ele>441.0</ele><time>2026-04-18T13:23:33Z</time></trkpt><trkpt lat="36.93703048485872" lon="14.958046948488212"><ele>434.49999999999994</ele><time>2026-04-18T13:23:35Z</time></trkpt><trkpt lat="36.9369490394959" lon="14.957982606643867"><ele>428.0</ele><time>2026-04-18T13:23:37Z</time></trkpt><trkpt lat="36.93686250708796" lon="14.957901571801719"><ele>428.0</ele><time>2026-04-18T13:23:39Z</time></trkpt><trkpt lat="36.93678505406943" lon="14.957811860122884"><ele>428.0</ele><time>2026-04-18T13:23:41Z</time></trkpt><trkpt lat="36.93670528967182" lon="14.9577066252715"><ele>428.0</ele><time>2026-04-18T13:23:43Z</time></trkpt><trkpt lat="36.936619546974356" lon="14.957603723170884"><ele>428.0</ele><time>2026-04-18T13:23:45Z</time></trkpt><trkpt lat="36.93654970267506" lon="14.957483250895589"><ele>423.3333333333333</ele><time>2026-04-18T13:23:47Z</time></trkpt><trkpt lat="36.93647740561423" lon="14.957388853148528"><ele>418.66666666666663</ele><time>2026-04-18T13:23:49Z</time></trkpt><trkpt lat="36.93643089205163" lon="14.957286744064692"><ele>414.0</ele><time>2026-04-18T13:23:51Z</time></trkpt><trkpt lat="36.93640115906976" lon="14.957196871868764"><ele>409.33333333333337</ele><time>2026-04-18T13:23:53Z</time></trkpt><trkpt lat="36.93633916974904" lon="14.957145234279931"><ele>404.6666666666667</ele><time>2026-04-18T13:23:56Z</time></trkpt><trkpt lat="36.93629281896021" lon="14.957084736441706"><ele>400.0</ele><time>2026-04-18T13:24:10Z</time></trkpt><trkpt lat="36.93625610535874" lon="14.956987005207754"><ele>400.00000000000006</ele><time>2026-04-18T13:24:13Z</time></trkpt><trkpt lat="36.93623185020207" lon="14.956907402609525"><ele>400.0</ele><time>2026-04-18T13:24:15Z</time></trkpt><trkpt lat="36.93621441500006" lon="14.9568135483294"><ele>400.0</ele><time>2026-04-18T13:24:17Z</time></trkpt><trkpt lat="36.93618737191693" lon="14.956731966196541"><ele>400.0</ele><time>2026-04-18T13:24:19Z</time></trkpt><trkpt lat="36.93616140801966" lon="14.95665315808743"><ele>400.00000000000006</ele><time>2026-04-18T13:24:21Z</time></trkpt><trkpt lat="36.936134290495964" lon="14.956530833854313"><ele>400.0</ele><time>2026-04-18T13:24:23Z</time></trkpt><trkpt lat="36.93611143487019" lon="14.956406804292232"><ele>399.83333333333337</ele><time>2026-04-18T13:24:25Z</time></trkpt><trkpt lat="36.93607940429033" lon="14.95625760376634"><ele>399.6666666666667</ele><time>2026-04-18T13:24:27Z</time></trkpt><trkpt lat="36.93606342335815" lon="14.95617481947082"><ele>399.5</ele><time>2026-04-18T13:24:28Z</time></trkpt><trkpt lat="36.936041024790775" lon="14.956084657344539"><ele>399.33333333333337</ele><time>2026-04-18T13:24:29Z</time></trkpt><trkpt lat="36.936011538631405" lon="14.955991502990393"><ele>399.1666666666667</ele><time>2026-04-18T13:24:30Z</time></trkpt><trkpt lat="36.935989391258964" lon="14.955911537653167"><ele>399.0</ele><time>2026-04-18T13:24:31Z</time></trkpt><trkpt lat="36.93594754589885" lon="14.955761974803403"><ele>399.0</ele><time>2026-04-18T13:24:33Z</time></trkpt><trkpt lat="36.935922155552525" lon="14.955668793279505"><ele>399.0</ele><time>2026-04-18T13:24:34Z</time></trkpt><trkpt lat="36.93589910555822" lon="14.955575119248131"><ele>399.0</ele><time>2026-04-18T13:24:35Z</time></trkpt><trkpt lat="36.93585023894787" lon="14.955456037993871"><ele>399.0</ele><time>2026-04-18T13:24:37Z</time></trkpt><trkpt lat="36.93581639478" lon="14.95533802065994"><ele>399.0</ele><time>2026-04-18T13:24:39Z</time></trkpt><trkpt lat="36.93577845940089" lon="14.955206678675125"><ele>394.2</ele><time>2026-04-18T13:24:41Z</time></trkpt><trkpt lat="36.93575126591769" lon="14.955068896199014"><ele>389.4</ele><time>2026-04-18T13:24:43Z</time></trkpt><trkpt lat="36.93572553008855" lon="14.954996346557158"><ele>384.6</ele><time>2026-04-18T13:24:44Z</time></trkpt><trkpt lat="36.93566827481788" lon="14.954861139142018"><ele>379.8</ele><time>2026-04-18T13:24:46Z</time></trkpt><trkpt lat="36.93564814068107" lon="14.954782410960084"><ele>375.0</ele><time>2026-04-18T13:24:47Z</time></trkpt><trkpt lat="36.93560779075236" lon="14.954618440428797"><ele>373.8333333333333</ele><time>2026-04-18T13:24:49Z</time></trkpt><trkpt lat="36.935587696287016" lon="14.954528209400324"><ele>372.6666666666667</ele><time>2026-04-18T13:24:50Z</time></trkpt><trkpt lat="36.9355606001453" lon="14.954422981777793"><ele>371.5</ele><time>2026-04-18T13:24:51Z</time></trkpt><trkpt lat="36.935529189523876" lon="14.954325386307858"><ele>370.33333333333337</ele><time>2026-04-18T13:24:52Z</time></trkpt><trkpt lat="36.93548540815537" lon="14.95424185147748"><ele>369.1666666666667</ele><time>2026-04-18T13:24:53Z</time></trkpt><trkpt lat="36.935446958755236" lon="14.954173316773664"><ele>368.0</ele><time>2026-04-18T13:24:54Z</time></trkpt><trkpt lat="36.935409582691825" lon="14.954102422091482"><ele>365.6666666666667</ele><time>2026-04-18T13:24:55Z</time></trkpt><trkpt lat="36.93537212574638" lon="14.954032247950884"><ele>363.33333333333337</ele><time>2026-04-18T13:24:56Z</time></trkpt><trkpt lat="36.93533706827705" lon="14.953962626198669"><ele>361.0</ele><time>2026-04-18T13:24:57Z</time></trkpt><trkpt lat="36.9352842070173" lon="14.953823414584184"><ele>358.6666666666667</ele><time>2026-04-18T13:24:59Z</time></trkpt><trkpt lat="36.93525643209116" lon="14.953735379276283"><ele>356.3333333333333</ele><time>2026-04-18T13:25:00Z</time></trkpt><trkpt lat="36.93525344247478" lon="14.953635014440065"><ele>354.0</ele><time>2026-04-18T13:25:01Z</time></trkpt><trkpt lat="36.935241615264026" lon="14.953533263301393"><ele>354.0</ele><time>2026-04-18T13:25:02Z</time></trkpt><trkpt lat="36.935234038665826" lon="14.953401821823848"><ele>354.0</ele><time>2026-04-18T13:25:03Z</time></trkpt><trkpt lat="36.935225231584546" lon="14.953262393419193"><ele>354.0</ele><time>2026-04-18T13:25:04Z</time></trkpt><trkpt lat="36.935203111893564" lon="14.953120569361912"><ele>354.0</ele><time>2026-04-18T13:25:04.999Z</time></trkpt><trkpt lat="36.93518772197751" lon="14.952981534459106"><ele>354.0</ele><time>2026-04-18T13:25:05.999Z</time></trkpt><trkpt lat="36.93517535975625" lon="14.952843236766894"><ele>350.4</ele><time>2026-04-18T13:25:06.999Z</time></trkpt><trkpt lat="36.935175766105615" lon="14.952700905242674"><ele>346.79999999999995</ele><time>2026-04-18T13:25:07.999Z</time></trkpt><trkpt lat="36.935163211500566" lon="14.952560932657784"><ele>343.20000000000005</ele><time>2026-04-18T13:25:08.999Z</time></trkpt><trkpt lat="36.93515800898736" lon="14.952440319668248"><ele>339.6</ele><time>2026-04-18T13:25:09.999Z</time></trkpt><trkpt lat="36.93514619110659" lon="14.952334397568897"><ele>336.0</ele><time>2026-04-18T13:25:10.999Z</time></trkpt><trkpt lat="36.93520594221067" lon="14.952277842247733"><ele>333.20000000000005</ele><time>2026-04-18T13:25:11.999Z</time></trkpt><trkpt lat="36.93532861579087" lon="14.952170009921469"><ele>330.40000000000003</ele><time>2026-04-18T13:25:13.999Z</time></trkpt><trkpt lat="36.93540855765097" lon="14.952102497641883"><ele>327.6</ele><time>2026-04-18T13:25:14.999Z</time></trkpt><trkpt lat="36.93548862077271" lon="14.952018896531017"><ele>324.8</ele><time>2026-04-18T13:25:15.999Z</time></trkpt><trkpt lat="36.93555388630823" lon="14.95195624369194"><ele>322.0</ele><time>2026-04-18T13:25:16.999Z</time></trkpt><trkpt lat="36.93563263865478" lon="14.951875989408078"><ele>322.0</ele><time>2026-04-18T13:25:17.999Z</time></trkpt><trkpt lat="36.935694781747905" lon="14.951799178281222"><ele>322.0</ele><time>2026-04-18T13:25:18.999Z</time></trkpt><trkpt lat="36.935748186795735" lon="14.951718509384825"><ele>322.0</ele><time>2026-04-18T13:25:19.998Z</time></trkpt><trkpt lat="36.93578542018108" lon="14.951626388900596"><ele>322.0</ele><time>2026-04-18T13:25:20.998Z</time></trkpt><trkpt lat="36.93580867288499" lon="14.951541837500002"><ele>322.0</ele><time>2026-04-18T13:25:21.998Z</time></trkpt><trkpt lat="36.93580849111839" lon="14.951453084601521"><ele>322.0</ele><time>2026-04-18T13:25:22.998Z</time></trkpt><trkpt lat="36.93579433911061" lon="14.951354617131974"><ele>323.66666666666663</ele><time>2026-04-18T13:25:23.998Z</time></trkpt><trkpt lat="36.935771118698774" lon="14.95125777373167"><ele>325.3333333333333</ele><time>2026-04-18T13:25:24.998Z</time></trkpt><trkpt lat="36.93574094776271" lon="14.951153971014843"><ele>327.0</ele><time>2026-04-18T13:25:25.998Z</time></trkpt><trkpt lat="36.935727603793275" lon="14.951062875243393"><ele>328.6666666666667</ele><time>2026-04-18T13:25:26.998Z</time></trkpt><trkpt lat="36.93574658290428" lon="14.950975680765898"><ele>330.33333333333337</ele><time>2026-04-18T13:25:27.998Z</time></trkpt><trkpt lat="36.93574435302079" lon="14.950895796429814"><ele>332.0</ele><time>2026-04-18T13:25:28.998Z</time></trkpt><trkpt lat="36.93574445243843" lon="14.950754837757072"><ele>332.20000000000005</ele><time>2026-04-18T13:25:30.998Z</time></trkpt><trkpt lat="36.935699737806054" lon="14.950642311859658"><ele>332.4</ele><time>2026-04-18T13:25:32.998Z</time></trkpt><trkpt lat="36.93565734788185" lon="14.950557265381864"><ele>332.6</ele><time>2026-04-18T13:25:33.998Z</time></trkpt><trkpt lat="36.93561494336237" lon="14.950472825837494"><ele>332.79999999999995</ele><time>2026-04-18T13:25:34.998Z</time></trkpt><trkpt lat="36.935587384118605" lon="14.950329187020762"><ele>333.0</ele><time>2026-04-18T13:25:36.998Z</time></trkpt><trkpt lat="36.93558952738728" lon="14.95021718436702"><ele>333.0</ele><time>2026-04-18T13:25:37.998Z</time></trkpt><trkpt lat="36.935604827800766" lon="14.950102110834225"><ele>333.0</ele><time>2026-04-18T13:25:38.998Z</time></trkpt><trkpt lat="36.935604804141434" lon="14.950011783156139"><ele>333.0</ele><time>2026-04-18T13:25:39.998Z</time></trkpt><trkpt lat="36.9355841417606" lon="14.949922970286384"><ele>333.0</ele><time>2026-04-18T13:25:40.998Z</time></trkpt><trkpt lat="36.9355542058887" lon="14.949845555531487"><ele>333.0</ele><time>2026-04-18T13:25:41.998Z</time></trkpt><trkpt lat="36.935525369431986" lon="14.949755502794565"><ele>333.0</ele><time>2026-04-18T13:25:42.998Z</time></trkpt><trkpt lat="36.935533217407055" lon="14.949636245653497"><ele>331.0</ele><time>2026-04-18T13:25:43.998Z</time></trkpt><trkpt lat="36.9354862487254" lon="14.949524043872094"><ele>329.0</ele><time>2026-04-18T13:25:44.998Z</time></trkpt><trkpt lat="36.935459356484046" lon="14.949427428923576"><ele>327.0</ele><time>2026-04-18T13:25:45.998Z</time></trkpt><trkpt lat="36.935416675039825" lon="14.949319021100939"><ele>325.0</ele><time>2026-04-18T13:25:46.998Z</time></trkpt><trkpt lat="36.9353770064995" lon="14.949193817900007"><ele>323.0</ele><time>2026-04-18T13:25:47.998Z</time></trkpt><trkpt lat="36.935359191375134" lon="14.949079470871771"><ele>321.0</ele><time>2026-04-18T13:25:48.998Z</time></trkpt><trkpt lat="36.93534241221921" lon="14.94896664061251"><ele>319.0</ele><time>2026-04-18T13:25:49.998Z</time></trkpt><trkpt lat="36.935317505247966" lon="14.948837707755612"><ele>317.0</ele><time>2026-04-18T13:25:50.998Z</time></trkpt><trkpt lat="36.93530074633049" lon="14.948674919997538"><ele>315.0</ele><time>2026-04-18T13:25:51.998Z</time></trkpt><trkpt lat="36.9352686380401" lon="14.948510219008963"><ele>312.5</ele><time>2026-04-18T13:25:52.998Z</time></trkpt><trkpt lat="36.93522995199299" lon="14.948341487828353"><ele>310.0</ele><time>2026-04-18T13:25:53.998Z</time></trkpt><trkpt lat="36.93522645649723" lon="14.948196554843673"><ele>307.5</ele><time>2026-04-18T13:25:54.998Z</time></trkpt><trkpt lat="36.93521922388515" lon="14.948065374341724"><ele>305.0</ele><time>2026-04-18T13:25:55.998Z</time></trkpt><trkpt lat="36.935194292011985" lon="14.947951537450757"><ele>305.0</ele><time>2026-04-18T13:25:56.998Z</time></trkpt><trkpt lat="36.93518066978037" lon="14.947857738019701"><ele>305.0</ele><time>2026-04-18T13:25:57.998Z</time></trkpt><trkpt lat="36.93516637268919" lon="14.947772671911752"><ele>305.0</ele><time>2026-04-18T13:25:58.998Z</time></trkpt><trkpt lat="36.93517343361054" lon="14.947689621372126"><ele>305.0</ele><time>2026-04-18T13:25:59.998Z</time></trkpt><trkpt lat="36.93517710405355" lon="14.947536910085589"><ele>305.0</ele><time>2026-04-18T13:26:01.998Z</time></trkpt><trkpt lat="36.93517515982788" lon="14.94744784002243"><ele>305.0</ele><time>2026-04-18T13:26:02.998Z</time></trkpt><trkpt lat="36.93519699081794" lon="14.947299000488412"><ele>304.0</ele><time>2026-04-18T13:26:04.998Z</time></trkpt><trkpt lat="36.93518129819298" lon="14.947154187858068"><ele>303.0</ele><time>2026-04-18T13:26:06.998Z</time></trkpt><trkpt lat="36.93514937933121" lon="14.947015459674038"><ele>302.0</ele><time>2026-04-18T13:26:08.998Z</time></trkpt><trkpt lat="36.93512128345287" lon="14.946892715580093"><ele>301.0</ele><time>2026-04-18T13:26:10.998Z</time></trkpt><trkpt lat="36.93502359000841" lon="14.946829290740105"><ele>300.0</ele><time>2026-04-18T13:26:12.998Z</time></trkpt><trkpt lat="36.93494485575917" lon="14.946856478942838"><ele>302.0</ele><time>2026-04-18T13:26:13.998Z</time></trkpt><trkpt lat="36.93485950206496" lon="14.946846054923194"><ele>304.0</ele><time>2026-04-18T13:26:14.998Z</time></trkpt><trkpt lat="36.934793315703615" lon="14.946816530771732"><ele>306.0</ele><time>2026-04-18T13:26:15.998Z</time></trkpt><trkpt lat="36.934730592144824" lon="14.946788520898684"><ele>308.0</ele><time>2026-04-18T13:26:16.998Z</time></trkpt><trkpt lat="36.93467203146003" lon="14.946755404889737"><ele>310.0</ele><time>2026-04-18T13:26:17.998Z</time></trkpt><trkpt lat="36.93456569466388" lon="14.946691031091229"><ele>312.0</ele><time>2026-04-18T13:26:19.998Z</time></trkpt><trkpt lat="36.93453016222672" lon="14.946625134444245"><ele>312.0</ele><time>2026-04-18T13:26:21.998Z</time></trkpt><trkpt lat="36.934486119033544" lon="14.946530965236198"><ele>312.0</ele><time>2026-04-18T13:30:02Z</time></trkpt><trkpt lat="36.934463157349924" lon="14.946408427590006"><ele>312.0</ele><time>2026-04-18T13:30:04Z</time></trkpt><trkpt lat="36.93446404271039" lon="14.946262320833744"><ele>312.0</ele><time>2026-04-18T13:30:06Z</time></trkpt><trkpt lat="36.934464564264104" lon="14.946158129501125"><ele>312.0</ele><time>2026-04-18T13:30:07Z</time></trkpt><trkpt lat="36.934462282142775" lon="14.946026332750668"><ele>312.0</ele><time>2026-04-18T13:30:08Z</time></trkpt><trkpt lat="36.93446664890468" lon="14.94588988064676"><ele>312.0</ele><time>2026-04-18T13:30:09Z</time></trkpt><trkpt lat="36.93447806045468" lon="14.945757822474386"><ele>312.0</ele><time>2026-04-18T13:30:10Z</time></trkpt><trkpt lat="36.93448403802393" lon="14.945642822886844"><ele>312.0</ele><time>2026-04-18T13:30:11Z</time></trkpt><trkpt lat="36.93449081258909" lon="14.945543605054104"><ele>312.0</ele><time>2026-04-18T13:30:12Z</time></trkpt><trkpt lat="36.93450264070563" lon="14.945429886102948"><ele>311.6</ele><time>2026-04-18T13:30:13Z</time></trkpt><trkpt lat="36.934517944685865" lon="14.945294919321265"><ele>311.2</ele><time>2026-04-18T13:30:14Z</time></trkpt><trkpt lat="36.93453319736849" lon="14.945177495678276"><ele>310.8</ele><time>2026-04-18T13:30:15Z</time></trkpt><trkpt lat="36.934542045053604" lon="14.945050382430082"><ele>310.4</ele><time>2026-04-18T13:30:16Z</time></trkpt><trkpt lat="36.93454066633474" lon="14.944940949480964"><ele>310.0</ele><time>2026-04-18T13:30:17Z</time></trkpt><trkpt lat="36.934546978357616" lon="14.94482892458263"><ele>308.8</ele><time>2026-04-18T13:30:18Z</time></trkpt><trkpt lat="36.934559925986875" lon="14.944703435327874"><ele>307.6</ele><time>2026-04-18T13:30:19Z</time></trkpt><trkpt lat="36.93458879214695" lon="14.94455903041556"><ele>306.4</ele><time>2026-04-18T13:30:20Z</time></trkpt><trkpt lat="36.93460830099726" lon="14.944419045972563"><ele>305.2</ele><time>2026-04-18T13:30:21Z</time></trkpt><trkpt lat="36.934627511686024" lon="14.944307846366963"><ele>304.0</ele><time>2026-04-18T13:30:22Z</time></trkpt><trkpt lat="36.93466433529759" lon="14.944213644387109"><ele>302.8</ele><time>2026-04-18T13:30:23Z</time></trkpt><trkpt lat="36.934697890399676" lon="14.944109890678565"><ele>301.59999999999997</ele><time>2026-04-18T13:30:24Z</time></trkpt><trkpt lat="36.93474093032083" lon="14.943993059322047"><ele>300.4</ele><time>2026-04-18T13:30:25Z</time></trkpt><trkpt lat="36.93478253907324" lon="14.943863451506767"><ele>299.2</ele><time>2026-04-18T13:30:26Z</time></trkpt><trkpt lat="36.93486423352323" lon="14.94376013881602"><ele>298.0</ele><time>2026-04-18T13:30:27Z</time></trkpt><trkpt lat="36.93493817174648" lon="14.943657915373475"><ele>298.0</ele><time>2026-04-18T13:30:28Z</time></trkpt><trkpt lat="36.93502711496131" lon="14.943542045160067"><ele>298.0</ele><time>2026-04-18T13:30:29Z</time></trkpt><trkpt lat="36.93511871893292" lon="14.943400137494827"><ele>298.0</ele><time>2026-04-18T13:30:30Z</time></trkpt><trkpt lat="36.935212897784815" lon="14.94326608415326"><ele>298.0</ele><time>2026-04-18T13:30:31Z</time></trkpt><trkpt lat="36.93532647114022" lon="14.943102859243464"><ele>296.75</ele><time>2026-04-18T13:30:32Z</time></trkpt><trkpt lat="36.935437341844676" lon="14.94294802545127"><ele>295.5</ele><time>2026-04-18T13:30:33Z</time></trkpt><trkpt lat="36.93549945486999" lon="14.942809711774684"><ele>294.25</ele><time>2026-04-18T13:30:34Z</time></trkpt><trkpt lat="36.93555998905804" lon="14.942678390694745"><ele>293.0</ele><time>2026-04-18T13:30:35Z</time></trkpt><trkpt lat="36.93560132439773" lon="14.942547753441875"><ele>292.25</ele><time>2026-04-18T13:30:36Z</time></trkpt><trkpt lat="36.93564306027071" lon="14.942401288001607"><ele>291.5</ele><time>2026-04-18T13:30:37Z</time></trkpt><trkpt lat="36.93568040689233" lon="14.94225680913871"><ele>290.75</ele><time>2026-04-18T13:30:38Z</time></trkpt><trkpt lat="36.9357183719925" lon="14.9421017256089"><ele>290.0</ele><time>2026-04-18T13:30:39Z</time></trkpt><trkpt lat="36.93574692147736" lon="14.941990634248905"><ele>290.0</ele><time>2026-04-18T13:30:40Z</time></trkpt><trkpt lat="36.935782765523385" lon="14.94187177232032"><ele>290.0</ele><time>2026-04-18T13:30:41Z</time></trkpt><trkpt lat="36.935802193732826" lon="14.941756017520333"><ele>290.0</ele><time>2026-04-18T13:30:42Z</time></trkpt><trkpt lat="36.93582872817003" lon="14.94164336855557"><ele>290.0</ele><time>2026-04-18T13:30:43Z</time></trkpt><trkpt lat="36.93585597143029" lon="14.94151448422771"><ele>290.0</ele><time>2026-04-18T13:30:44Z</time></trkpt><trkpt lat="36.93588015498787" lon="14.94139458958313"><ele>288.6</ele><time>2026-04-18T13:30:45Z</time></trkpt><trkpt lat="36.93591009877802" lon="14.941285799992322"><ele>287.2</ele><time>2026-04-18T13:30:46Z</time></trkpt><trkpt lat="36.93593872800775" lon="14.941177584426612"><ele>285.8</ele><time>2026-04-18T13:30:47Z</time></trkpt><trkpt lat="36.93597448607107" lon="14.941040774142305"><ele>284.4</ele><time>2026-04-18T13:30:48Z</time></trkpt><trkpt lat="36.93601438172956" lon="14.940902868792595"><ele>283.0</ele><time>2026-04-18T13:30:49Z</time></trkpt><trkpt lat="36.93604965382266" lon="14.940780142253432"><ele>283.0</ele><time>2026-04-18T13:30:50Z</time></trkpt><trkpt lat="36.9360981490284" lon="14.94069183760195"><ele>283.0</ele><time>2026-04-18T13:30:51Z</time></trkpt><trkpt lat="36.93614862857036" lon="14.94054240701785"><ele>283.0</ele><time>2026-04-18T13:30:52Z</time></trkpt><trkpt lat="36.93620768124393" lon="14.940418086125826"><ele>283.0</ele><time>2026-04-18T13:30:53Z</time></trkpt><trkpt lat="36.936257466080754" lon="14.940290105948385"><ele>283.0</ele><time>2026-04-18T13:30:54Z</time></trkpt><trkpt lat="36.93628422731619" lon="14.94017030331504"><ele>283.0</ele><time>2026-04-18T13:30:55Z</time></trkpt><trkpt lat="36.93633143978899" lon="14.940069153786668"><ele>283.0</ele><time>2026-04-18T13:30:56Z</time></trkpt><trkpt lat="36.936348856424914" lon="14.939965091609412"><ele>283.0</ele><time>2026-04-18T13:30:57Z</time></trkpt><trkpt lat="36.936361233752706" lon="14.939874244800912"><ele>283.0</ele><time>2026-04-18T13:30:58Z</time></trkpt><trkpt lat="36.9363644515701" lon="14.939770680571362"><ele>283.0</ele><time>2026-04-18T13:30:59Z</time></trkpt><trkpt lat="36.9363675490115" lon="14.939650346838597"><ele>283.0</ele><time>2026-04-18T13:31:00Z</time></trkpt><trkpt lat="36.93636977759743" lon="14.939522581679796"><ele>281.6</ele><time>2026-04-18T13:31:01Z</time></trkpt><trkpt lat="36.93638265568195" lon="14.939399886386115"><ele>280.20000000000005</ele><time>2026-04-18T13:31:02Z</time></trkpt><trkpt lat="36.93636854758601" lon="14.939279187611241"><ele>278.8</ele><time>2026-04-18T13:31:03Z</time></trkpt><trkpt lat="36.93636019345834" lon="14.939168396222076"><ele>277.40000000000003</ele><time>2026-04-18T13:31:04Z</time></trkpt><trkpt lat="36.93635661038863" lon="14.939065875524532"><ele>276.0</ele><time>2026-04-18T13:31:05Z</time></trkpt><trkpt lat="36.93635927817848" lon="14.938956856501566"><ele>275.1666666666667</ele><time>2026-04-18T13:31:06Z</time></trkpt><trkpt lat="36.93635878568751" lon="14.93885822213253"><ele>274.3333333333333</ele><time>2026-04-18T13:31:06.999Z</time></trkpt><trkpt lat="36.93636253970824" lon="14.938776877223297"><ele>273.5</ele><time>2026-04-18T13:31:07.999Z</time></trkpt><trkpt lat="36.93634908210086" lon="14.938649451992402"><ele>272.66666666666663</ele><time>2026-04-18T13:31:09.999Z</time></trkpt><trkpt lat="36.936283676908445" lon="14.938568996131208"><ele>271.8333333333333</ele><time>2026-04-18T13:31:11.999Z</time></trkpt><trkpt lat="36.936218762725154" lon="14.938578234727823"><ele>271.0</ele><time>2026-04-18T13:31:12.999Z</time></trkpt><trkpt lat="36.936147561049374" lon="14.938614745202791"><ele>271.0</ele><time>2026-04-18T13:31:13.999Z</time></trkpt><trkpt lat="36.936067364879165" lon="14.938687081648306"><ele>271.0</ele><time>2026-04-18T13:31:14.999Z</time></trkpt><trkpt lat="36.935967186073164" lon="14.938778530868063"><ele>271.0</ele><time>2026-04-18T13:31:15.999Z</time></trkpt><trkpt lat="36.93583265052" lon="14.938900064437409"><ele>271.0</ele><time>2026-04-18T13:31:16.999Z</time></trkpt><trkpt lat="36.93570661786945" lon="14.939013916861263"><ele>270.8</ele><time>2026-04-18T13:31:17.999Z</time></trkpt><trkpt lat="36.9355991383184" lon="14.939111009219184"><ele>270.6</ele><time>2026-04-18T13:31:18.999Z</time></trkpt><trkpt lat="36.93549691107917" lon="14.939209597944311"><ele>270.4</ele><time>2026-04-18T13:31:19.999Z</time></trkpt><trkpt lat="36.935428916863316" lon="14.939305352506397"><ele>270.2</ele><time>2026-04-18T13:31:20.999Z</time></trkpt><trkpt lat="36.935366434407364" lon="14.93936347246594"><ele>270.0</ele><time>2026-04-18T13:31:21.999Z</time></trkpt><trkpt lat="36.93530718826916" lon="14.939402445417134"><ele>270.0</ele><time>2026-04-18T13:31:23Z</time></trkpt><trkpt lat="36.93523906489989" lon="14.93938172009217"><ele>270.0</ele><time>2026-04-18T13:31:25Z</time></trkpt><trkpt lat="36.935220161188326" lon="14.939298331641004"><ele>270.0</ele><time>2026-04-18T13:31:27Z</time></trkpt><trkpt lat="36.9352493185364" lon="14.939128776152202"><ele>270.0</ele><time>2026-04-18T13:31:29Z</time></trkpt><trkpt lat="36.93527604303946" lon="14.938986040207253"><ele>270.0</ele><time>2026-04-18T13:31:30Z</time></trkpt><trkpt lat="36.93531276227229" lon="14.938786896373648"><ele>267.3333333333333</ele><time>2026-04-18T13:31:31Z</time></trkpt><trkpt lat="36.93534669260017" lon="14.938570277879052"><ele>264.66666666666663</ele><time>2026-04-18T13:31:32Z</time></trkpt><trkpt lat="36.93538443226741" lon="14.938361450342613"><ele>262.0</ele><time>2026-04-18T13:31:33Z</time></trkpt><trkpt lat="36.935413087596054" lon="14.938167697465653"><ele>260.0</ele><time>2026-04-18T13:31:34Z</time></trkpt><trkpt lat="36.93544809248498" lon="14.937977344533868"><ele>258.0</ele><time>2026-04-18T13:31:35Z</time></trkpt><trkpt lat="36.935480293942476" lon="14.937798803819216"><ele>256.0</ele><time>2026-04-18T13:31:36Z</time></trkpt><trkpt lat="36.93550828778203" lon="14.937638430225853"><ele>254.0</ele><time>2026-04-18T13:31:37Z</time></trkpt><trkpt lat="36.93553953907216" lon="14.937497016615577"><ele>252.0</ele><time>2026-04-18T13:31:38Z</time></trkpt><trkpt lat="36.935580313868904" lon="14.937359279284152"><ele>250.0</ele><time>2026-04-18T13:31:39Z</time></trkpt><trkpt lat="36.935629891139826" lon="14.937231012998845"><ele>248.0</ele><time>2026-04-18T13:31:40Z</time></trkpt><trkpt lat="36.93569937905414" lon="14.937105344923678"><ele>246.0</ele><time>2026-04-18T13:31:41Z</time></trkpt><trkpt lat="36.93579061660136" lon="14.936965364470042"><ele>246.0</ele><time>2026-04-18T13:31:42Z</time></trkpt><trkpt lat="36.93588509814676" lon="14.936825287265691"><ele>246.0</ele><time>2026-04-18T13:31:43Z</time></trkpt><trkpt lat="36.93598177383045" lon="14.936690914383227"><ele>246.0</ele><time>2026-04-18T13:31:44Z</time></trkpt><trkpt lat="36.936060892179114" lon="14.936561882067764"><ele>246.0</ele><time>2026-04-18T13:31:45Z</time></trkpt><trkpt lat="36.93612117601443" lon="14.936460184480266"><ele>243.83333333333334</ele><time>2026-04-18T13:31:46Z</time></trkpt><trkpt lat="36.936177572124656" lon="14.93637283584265"><ele>241.66666666666669</ele><time>2026-04-18T13:31:47Z</time></trkpt><trkpt lat="36.93621943031631" lon="14.936306996036825"><ele>239.5</ele><time>2026-04-18T13:31:48Z</time></trkpt><trkpt lat="36.936243842479854" lon="14.936171480909415"><ele>237.33333333333334</ele><time>2026-04-18T13:31:50Z</time></trkpt><trkpt lat="36.936203062880814" lon="14.936044924423065"><ele>235.16666666666669</ele><time>2026-04-18T13:31:52Z</time></trkpt><trkpt lat="36.93616301466907" lon="14.935971949380605"><ele>233.0</ele><time>2026-04-18T13:31:53Z</time></trkpt><trkpt lat="36.93611204045091" lon="14.935907159290366"><ele>233.60000000000002</ele><time>2026-04-18T13:31:54Z</time></trkpt><trkpt lat="36.9360525599886" lon="14.935859293089"><ele>234.20000000000002</ele><time>2026-04-18T13:31:55Z</time></trkpt><trkpt lat="36.93593096040371" lon="14.935877889912083"><ele>234.8</ele><time>2026-04-18T13:31:57Z</time></trkpt><trkpt lat="36.93585781585417" lon="14.935902853085386"><ele>235.4</ele><time>2026-04-18T13:31:58Z</time></trkpt><trkpt lat="36.93579793531347" lon="14.935991152211287"><ele>236.0</ele><time>2026-04-18T13:31:59Z</time></trkpt><trkpt lat="36.93572230643485" lon="14.936057367208171"><ele>236.00000000000003</ele><time>2026-04-18T13:32:00Z</time></trkpt><trkpt lat="36.93564669134557" lon="14.93616053157455"><ele>236.0</ele><time>2026-04-18T13:32:01Z</time></trkpt><trkpt lat="36.9355748553266" lon="14.936258597694286"><ele>236.0</ele><time>2026-04-18T13:32:02Z</time></trkpt><trkpt lat="36.93551273038853" lon="14.936343406844015"><ele>236.0</ele><time>2026-04-18T13:32:03Z</time></trkpt><trkpt lat="36.93546893033496" lon="14.936403199984891"><ele>236.00000000000003</ele><time>2026-04-18T13:32:04Z</time></trkpt><trkpt lat="36.9354181776973" lon="14.936465495521652"><ele>236.0</ele><time>2026-04-18T13:32:06Z</time></trkpt><trkpt lat="36.935346649787306" lon="14.936430635614085"><ele>236.0</ele><time>2026-04-18T13:32:09Z</time></trkpt><trkpt lat="36.93534787066012" lon="14.93631355691622"><ele>236.00000000000003</ele><time>2026-04-18T13:32:11Z</time></trkpt><trkpt lat="36.93535652862527" lon="14.936192041666624"><ele>236.00000000000003</ele><time>2026-04-18T13:32:12Z</time></trkpt><trkpt lat="36.935360784595986" lon="14.936054615712589"><ele>236.0</ele><time>2026-04-18T13:32:13Z</time></trkpt><trkpt lat="36.9353626479012" lon="14.935898836499439"><ele>236.0</ele><time>2026-04-18T13:32:14Z</time></trkpt><trkpt lat="36.93536460213805" lon="14.935723397035856"><ele>234.25</ele><time>2026-04-18T13:32:15Z</time></trkpt><trkpt lat="36.9353670954038" lon="14.93553539822388"><ele>232.5</ele><time>2026-04-18T13:32:16Z</time></trkpt><trkpt lat="36.935371008647934" lon="14.935368236022196"><ele>230.75</ele><time>2026-04-18T13:32:17Z</time></trkpt><trkpt lat="36.93537347408886" lon="14.935211671269554"><ele>229.0</ele><time>2026-04-18T13:32:18Z</time></trkpt><trkpt lat="36.93537399557609" lon="14.935067637289736"><ele>227.79999999999998</ele><time>2026-04-18T13:32:19Z</time></trkpt><trkpt lat="36.93537604116297" lon="14.934939479483338"><ele>226.59999999999997</ele><time>2026-04-18T13:32:20Z</time></trkpt><trkpt lat="36.935380669179075" lon="14.934816000750676"><ele>225.4</ele><time>2026-04-18T13:32:21Z</time></trkpt><trkpt lat="36.93538552586534" lon="14.93470432956725"><ele>224.2</ele><time>2026-04-18T13:32:22Z</time></trkpt><trkpt lat="36.93538446150132" lon="14.934607956120704"><ele>223.0</ele><time>2026-04-18T13:32:23Z</time></trkpt><trkpt lat="36.93539258882111" lon="14.93449489232995"><ele>222.99999999999997</ele><time>2026-04-18T13:32:25Z</time></trkpt><trkpt lat="36.935358285914965" lon="14.934405387401354"><ele>223.0</ele><time>2026-04-18T13:32:27Z</time></trkpt><trkpt lat="36.93528732020355" lon="14.934388197031428"><ele>223.0</ele><time>2026-04-18T13:32:29Z</time></trkpt><trkpt lat="36.935201362355336" lon="14.934465283664851"><ele>223.0</ele><time>2026-04-18T13:32:31Z</time></trkpt><trkpt lat="36.9351393528911" lon="14.934528948546278"><ele>222.99999999999997</ele><time>2026-04-18T13:32:32Z</time></trkpt><trkpt lat="36.93505614745152" lon="14.934564971601878"><ele>223.0</ele><time>2026-04-18T13:32:34Z</time></trkpt><trkpt lat="36.935004794113354" lon="14.934442756005927"><ele>222.0</ele><time>2026-04-18T13:32:36Z</time></trkpt><trkpt lat="36.93504005994556" lon="14.93435964351501"><ele>221.0</ele><time>2026-04-18T13:32:37Z</time></trkpt><trkpt lat="36.9350482925293" lon="14.934175179214217"><ele>220.0</ele><time>2026-04-18T13:32:39Z</time></trkpt><trkpt lat="36.93506650626916" lon="14.934031729094574"><ele>219.0</ele><time>2026-04-18T13:32:40Z</time></trkpt><trkpt lat="36.935074804176644" lon="14.933897367526676"><ele>218.0</ele><time>2026-04-18T13:32:41Z</time></trkpt><trkpt lat="36.935088539478514" lon="14.933773462362284"><ele>218.00000000000003</ele><time>2026-04-18T13:32:42Z</time></trkpt><trkpt lat="36.935098213714014" lon="14.93365922795237"><ele>218.0</ele><time>2026-04-18T13:32:43Z</time></trkpt><trkpt lat="36.93510414484718" lon="14.933548005338968"><ele>218.0</ele><time>2026-04-18T13:32:44Z</time></trkpt><trkpt lat="36.93510640811048" lon="14.933460554815522"><ele>218.0</ele><time>2026-04-18T13:32:45Z</time></trkpt><trkpt lat="36.93513415897519" lon="14.933353096781788"><ele>218.00000000000003</ele><time>2026-04-18T13:32:46Z</time></trkpt><trkpt lat="36.93514875153362" lon="14.933256593023382"><ele>218.0</ele><time>2026-04-18T13:32:47Z</time></trkpt><trkpt lat="36.93514288479549" lon="14.933175546299575"><ele>216.8</ele><time>2026-04-18T13:32:48Z</time></trkpt><trkpt lat="36.93510603052237" lon="14.933085368124615"><ele>215.60000000000002</ele><time>2026-04-18T13:32:50Z</time></trkpt><trkpt lat="36.934982222721295" lon="14.933086166706005"><ele>214.39999999999998</ele><time>2026-04-18T13:32:52Z</time></trkpt><trkpt lat="36.93490024462409" lon="14.933126940753784"><ele>213.2</ele><time>2026-04-18T13:32:53Z</time></trkpt><trkpt lat="36.93483494075095" lon="14.933113484860415"><ele>212.0</ele><time>2026-04-18T13:32:54Z</time></trkpt><trkpt lat="36.93477750122951" lon="14.93299700301498"><ele>210.83333333333334</ele><time>2026-04-18T13:32:56Z</time></trkpt><trkpt lat="36.93475583667198" lon="14.932909190615048"><ele>209.66666666666669</ele><time>2026-04-18T13:32:57Z</time></trkpt><trkpt lat="36.934722071732246" lon="14.93278539599411"><ele>208.5</ele><time>2026-04-18T13:32:59Z</time></trkpt><trkpt lat="36.93471827685354" lon="14.93269584887778"><ele>207.33333333333331</ele><time>2026-04-18T13:33:01Z</time></trkpt><trkpt lat="36.934698327668414" lon="14.932602761284206"><ele>206.16666666666666</ele><time>2026-04-18T13:33:30.999Z</time></trkpt><trkpt lat="36.934714369351056" lon="14.93251762677125"><ele>205.0</ele><time>2026-04-18T13:33:33.999Z</time></trkpt><trkpt lat="36.934850655964084" lon="14.932493537152398"><ele>204.0</ele><time>2026-04-18T13:33:34.999Z</time></trkpt><trkpt lat="36.93491591521473" lon="14.93240228846751"><ele>203.0</ele><time>2026-04-18T13:33:35.999Z</time></trkpt><trkpt lat="36.93500427411041" lon="14.93229315726052"><ele>202.0</ele><time>2026-04-18T13:33:36.999Z</time></trkpt><trkpt lat="36.935106685417715" lon="14.932175813760677"><ele>201.0</ele><time>2026-04-18T13:33:37.999Z</time></trkpt><trkpt lat="36.935226282278826" lon="14.932047550126574"><ele>201.0</ele><time>2026-04-18T13:33:38.999Z</time></trkpt><trkpt lat="36.9353484431306" lon="14.931939876957145"><ele>201.0</ele><time>2026-04-18T13:33:39.999Z</time></trkpt><trkpt lat="36.93545123735107" lon="14.931827969144907"><ele>201.0</ele><time>2026-04-18T13:33:40.999Z</time></trkpt><trkpt lat="36.935549764652976" lon="14.931721473885665"><ele>201.0</ele><time>2026-04-18T13:33:41.999Z</time></trkpt><trkpt lat="36.935638264594665" lon="14.931627175474611"><ele>200.8</ele><time>2026-04-18T13:33:42.999Z</time></trkpt><trkpt lat="36.93571340298418" lon="14.93154185054462"><ele>200.60000000000002</ele><time>2026-04-18T13:33:43.999Z</time></trkpt><trkpt lat="36.93578236558492" lon="14.93145193402988"><ele>200.4</ele><time>2026-04-18T13:33:44.999Z</time></trkpt><trkpt lat="36.9358359430609" lon="14.931334832729037"><ele>200.2</ele><time>2026-04-18T13:33:45.999Z</time></trkpt><trkpt lat="36.93590838692652" lon="14.931215100012626"><ele>200.0</ele><time>2026-04-18T13:33:46.999Z</time></trkpt><trkpt lat="36.93596858982458" lon="14.931079420245005"><ele>200.0</ele><time>2026-04-18T13:33:47.999Z</time></trkpt><trkpt lat="36.93600402712481" lon="14.93093682090104"><ele>200.0</ele><time>2026-04-18T13:33:48.999Z</time></trkpt><trkpt lat="36.936027589985144" lon="14.930774593339581"><ele>200.0</ele><time>2026-04-18T13:33:49.999Z</time></trkpt><trkpt lat="36.93604412632408" lon="14.930610701568575"><ele>200.0</ele><time>2026-04-18T13:33:50.999Z</time></trkpt><trkpt lat="36.93605802007459" lon="14.930490400387155"><ele>200.4</ele><time>2026-04-18T13:33:51.999Z</time></trkpt><trkpt lat="36.9360721291565" lon="14.930369028156912"><ele>200.8</ele><time>2026-04-18T13:33:52.999Z</time></trkpt><trkpt lat="36.93607665402303" lon="14.930246355650569"><ele>201.2</ele><time>2026-04-18T13:33:53.999Z</time></trkpt><trkpt lat="36.93607682566662" lon="14.930126041893674"><ele>201.6</ele><time>2026-04-18T13:33:55Z</time></trkpt><trkpt lat="36.93606368664608" lon="14.930003705928204"><ele>202.0</ele><time>2026-04-18T13:33:56Z</time></trkpt><trkpt lat="36.93602124998728" lon="14.929884996003544"><ele>203.66666666666666</ele><time>2026-04-18T13:33:57Z</time></trkpt><trkpt lat="36.93594243243447" lon="14.929770193038296"><ele>205.33333333333331</ele><time>2026-04-18T13:33:58Z</time></trkpt><trkpt lat="36.93583157540871" lon="14.929635613839052"><ele>207.0</ele><time>2026-04-18T13:33:59Z</time></trkpt><trkpt lat="36.935702814381166" lon="14.929457984076977"><ele>206.0</ele><time>2026-04-18T13:34:00Z</time></trkpt><trkpt lat="36.93557332008628" lon="14.929266980421554"><ele>205.0</ele><time>2026-04-18T13:34:01Z</time></trkpt><trkpt lat="36.935450247242" lon="14.929082494121932"><ele>204.0</ele><time>2026-04-18T13:34:02Z</time></trkpt><trkpt lat="36.935349014677364" lon="14.928911944567933"><ele>204.0</ele><time>2026-04-18T13:34:03Z</time></trkpt><trkpt lat="36.93525148233966" lon="14.928723055678"><ele>204.0</ele><time>2026-04-18T13:34:04Z</time></trkpt><trkpt lat="36.935156014143026" lon="14.928527722780458"><ele>204.0</ele><time>2026-04-18T13:34:05Z</time></trkpt><trkpt lat="36.93505610523229" lon="14.928325465252305"><ele>202.66666666666669</ele><time>2026-04-18T13:34:06Z</time></trkpt><trkpt lat="36.93495410732304" lon="14.928147443116838"><ele>201.33333333333334</ele><time>2026-04-18T13:34:07Z</time></trkpt><trkpt lat="36.93483368569456" lon="14.927985569593144"><ele>200.0</ele><time>2026-04-18T13:34:08Z</time></trkpt><trkpt lat="36.934692340464366" lon="14.92782089246672"><ele>200.0</ele><time>2026-04-18T13:34:09Z</time></trkpt><trkpt lat="36.93454776228505" lon="14.927659337633912"><ele>200.0</ele><time>2026-04-18T13:34:10Z</time></trkpt><trkpt lat="36.934413588936565" lon="14.927500164882511"><ele>200.0</ele><time>2026-04-18T13:34:11Z</time></trkpt><trkpt lat="36.93428218411032" lon="14.927343331508782"><ele>198.66666666666669</ele><time>2026-04-18T13:34:12Z</time></trkpt><trkpt lat="36.934153764189695" lon="14.927189593630699"><ele>197.33333333333331</ele><time>2026-04-18T13:34:13Z</time></trkpt><trkpt lat="36.93402565655487" lon="14.927037428106914"><ele>196.0</ele><time>2026-04-18T13:34:14Z</time></trkpt><trkpt lat="36.93390466198242" lon="14.926899603867351"><ele>196.0</ele><time>2026-04-18T13:34:15Z</time></trkpt><trkpt lat="36.93379285178397" lon="14.926770229232698"><ele>196.0</ele><time>2026-04-18T13:34:16Z</time></trkpt><trkpt lat="36.93367954423067" lon="14.926633376038616"><ele>196.0</ele><time>2026-04-18T13:34:17Z</time></trkpt><trkpt lat="36.933575133363895" lon="14.926504722537652"><ele>194.33333333333331</ele><time>2026-04-18T13:34:18Z</time></trkpt><trkpt lat="36.93346595299218" lon="14.926377858090824"><ele>192.66666666666666</ele><time>2026-04-18T13:34:19Z</time></trkpt><trkpt lat="36.93335562340414" lon="14.926246782155415"><ele>191.0</ele><time>2026-04-18T13:34:20Z</time></trkpt><trkpt lat="36.93324762183316" lon="14.926106812034169"><ele>191.0</ele><time>2026-04-18T13:34:21Z</time></trkpt><trkpt lat="36.93315272893206" lon="14.92596699949931"><ele>191.0</ele><time>2026-04-18T13:34:22Z</time></trkpt><trkpt lat="36.933062106677745" lon="14.925831286844387"><ele>191.0</ele><time>2026-04-18T13:34:23Z</time></trkpt><trkpt lat="36.93295653067397" lon="14.925685617456935"><ele>191.0</ele><time>2026-04-18T13:34:24Z</time></trkpt><trkpt lat="36.93284282219293" lon="14.925537016969107"><ele>190.66666666666666</ele><time>2026-04-18T13:34:25Z</time></trkpt><trkpt lat="36.932728221944224" lon="14.925389391986672"><ele>190.33333333333334</ele><time>2026-04-18T13:34:26Z</time></trkpt><trkpt lat="36.93261293887468" lon="14.92524331283543"><ele>190.0</ele><time>2026-04-18T13:34:27Z</time></trkpt><trkpt lat="36.932496964083875" lon="14.925108643024735"><ele>191.33333333333334</ele><time>2026-04-18T13:34:28Z</time></trkpt><trkpt lat="36.9323785097935" lon="14.924979750512028"><ele>192.66666666666669</ele><time>2026-04-18T13:34:29Z</time></trkpt><trkpt lat="36.93225589536806" lon="14.924853103657789"><ele>194.0</ele><time>2026-04-18T13:34:30Z</time></trkpt><trkpt lat="36.932137820761675" lon="14.924732237699263"><ele>194.0</ele><time>2026-04-18T13:34:31Z</time></trkpt><trkpt lat="36.93202849493761" lon="14.924631998215494"><ele>194.0</ele><time>2026-04-18T13:34:32Z</time></trkpt><trkpt lat="36.93191362402809" lon="14.924538541789662"><ele>194.0</ele><time>2026-04-18T13:34:33Z</time></trkpt><trkpt lat="36.93178745062313" lon="14.924464442354783"><ele>194.0</ele><time>2026-04-18T13:34:34Z</time></trkpt><trkpt lat="36.9316578840361" lon="14.924417894023945"><ele>192.75</ele><time>2026-04-18T13:34:35Z</time></trkpt><trkpt lat="36.93152508487866" lon="14.924389497438039"><ele>191.5</ele><time>2026-04-18T13:34:36Z</time></trkpt><trkpt lat="36.93138155854544" lon="14.924362914518325"><ele>190.25</ele><time>2026-04-18T13:34:37Z</time></trkpt><trkpt lat="36.931239906580444" lon="14.92433052716823"><ele>189.0</ele><time>2026-04-18T13:34:38Z</time></trkpt><trkpt lat="36.93110265672289" lon="14.924288947095656"><ele>189.0</ele><time>2026-04-18T13:34:39Z</time></trkpt><trkpt lat="36.93095919317597" lon="14.924239878312221"><ele>189.0</ele><time>2026-04-18T13:34:40Z</time></trkpt><trkpt lat="36.930806243327105" lon="14.92418930613519"><ele>189.0</ele><time>2026-04-18T13:34:41Z</time></trkpt><trkpt lat="36.93066103092791" lon="14.924144526679674"><ele>188.5</ele><time>2026-04-18T13:34:42Z</time></trkpt><trkpt lat="36.930521320461466" lon="14.924101984410319"><ele>188.0</ele><time>2026-04-18T13:34:43Z</time></trkpt><trkpt lat="36.930396285403894" lon="14.924062731992459"><ele>187.5</ele><time>2026-04-18T13:34:44Z</time></trkpt><trkpt lat="36.93027770446266" lon="14.924031778612722"><ele>187.0</ele><time>2026-04-18T13:34:45Z</time></trkpt><trkpt lat="36.93016871395542" lon="14.923992917401605"><ele>187.0</ele><time>2026-04-18T13:34:46Z</time></trkpt><trkpt lat="36.93006899373751" lon="14.923943432838264"><ele>187.0</ele><time>2026-04-18T13:34:47Z</time></trkpt><trkpt lat="36.92997289066934" lon="14.92387746033769"><ele>187.0</ele><time>2026-04-18T13:34:48Z</time></trkpt><trkpt lat="36.929881719753816" lon="14.923791620269455"><ele>187.0</ele><time>2026-04-18T13:34:49Z</time></trkpt><trkpt lat="36.92978735414323" lon="14.923691667101945"><ele>185.8</ele><time>2026-04-18T13:34:50Z</time></trkpt><trkpt lat="36.92970790884749" lon="14.923598938849805"><ele>184.6</ele><time>2026-04-18T13:34:51Z</time></trkpt><trkpt lat="36.92964925647092" lon="14.923507039624111"><ele>183.4</ele><time>2026-04-18T13:34:52Z</time></trkpt><trkpt lat="36.92960100101544" lon="14.923390312464496"><ele>182.20000000000002</ele><time>2026-04-18T13:34:53Z</time></trkpt><trkpt lat="36.92957489420143" lon="14.923280127170484"><ele>181.0</ele><time>2026-04-18T13:34:54Z</time></trkpt><trkpt lat="36.92957136128658" lon="14.923182884377942"><ele>180.75</ele><time>2026-04-18T13:34:55Z</time></trkpt><trkpt lat="36.92958830045" lon="14.923086896869785"><ele>180.5</ele><time>2026-04-18T13:34:56Z</time></trkpt><trkpt lat="36.92959157064825" lon="14.922999396996339"><ele>180.25</ele><time>2026-04-18T13:34:57Z</time></trkpt><trkpt lat="36.92958674681106" lon="14.922899411609777"><ele>180.0</ele><time>2026-04-18T13:34:58Z</time></trkpt><trkpt lat="36.929814372992595" lon="14.92274486037406"><ele>180.0</ele><time>2026-04-18T13:34:59Z</time></trkpt><trkpt lat="36.92991593571078" lon="14.922585075429039"><ele>180.0</ele><time>2026-04-18T13:35:00Z</time></trkpt><trkpt lat="36.92999826133857" lon="14.922435695314727"><ele>180.0</ele><time>2026-04-18T13:35:01Z</time></trkpt><trkpt lat="36.93006375927379" lon="14.92229718218128"><ele>180.0</ele><time>2026-04-18T13:35:02Z</time></trkpt><trkpt lat="36.93011940716239" lon="14.922156916052012"><ele>179.0</ele><time>2026-04-18T13:35:03Z</time></trkpt><trkpt lat="36.9301608431044" lon="14.922024492498359"><ele>178.0</ele><time>2026-04-18T13:35:04Z</time></trkpt><trkpt lat="36.93017797557258" lon="14.921900254774615"><ele>177.0</ele><time>2026-04-18T13:35:05Z</time></trkpt><trkpt lat="36.930167813167735" lon="14.921783670344368"><ele>176.0</ele><time>2026-04-18T13:35:06Z</time></trkpt><trkpt lat="36.93013069119298" lon="14.921683343777016"><ele>175.0</ele><time>2026-04-18T13:35:07Z</time></trkpt><trkpt lat="36.93007200364279" lon="14.921594215393243"><ele>173.8</ele><time>2026-04-18T13:35:08Z</time></trkpt><trkpt lat="36.929990493361814" lon="14.921483151258185"><ele>172.6</ele><time>2026-04-18T13:35:09Z</time></trkpt><trkpt lat="36.929915112195005" lon="14.921372112598199"><ele>171.39999999999998</ele><time>2026-04-18T13:35:10Z</time></trkpt><trkpt lat="36.929859456020594" lon="14.921280768639333"><ele>170.2</ele><time>2026-04-18T13:35:11Z</time></trkpt><trkpt lat="36.92982979905425" lon="14.921198983094547"><ele>169.0</ele><time>2026-04-18T13:35:12Z</time></trkpt><trkpt lat="36.92983033518003" lon="14.921117296955844"><ele>169.0</ele><time>2026-04-18T13:35:13Z</time></trkpt><trkpt lat="36.92985726772309" lon="14.92103267492683"><ele>169.0</ele><time>2026-04-18T13:35:14Z</time></trkpt><trkpt lat="36.92989691824341" lon="14.92091924804467"><ele>169.0</ele><time>2026-04-18T13:35:15Z</time></trkpt><trkpt lat="36.9299386149252" lon="14.920771834512648"><ele>169.0</ele><time>2026-04-18T13:35:16Z</time></trkpt><trkpt lat="36.92996827893333" lon="14.920626560792"><ele>169.0</ele><time>2026-04-18T13:35:17Z</time></trkpt><trkpt lat="36.92997984170291" lon="14.920482802752401"><ele>168.66666666666669</ele><time>2026-04-18T13:35:18Z</time></trkpt><trkpt lat="36.929978773406944" lon="14.920308741505737"><ele>168.33333333333334</ele><time>2026-04-18T13:35:18.999Z</time></trkpt><trkpt lat="36.92997304612278" lon="14.920088131295392"><ele>168.0</ele><time>2026-04-18T13:35:19.999Z</time></trkpt><trkpt lat="36.92996787170178" lon="14.919844507410113"><ele>168.66666666666666</ele><time>2026-04-18T13:35:20.999Z</time></trkpt><trkpt lat="36.92996608342715" lon="14.919583522960696"><ele>169.33333333333331</ele><time>2026-04-18T13:35:21.999Z</time></trkpt><trkpt lat="36.92997451891806" lon="14.919354015850642"><ele>170.0</ele><time>2026-04-18T13:35:22.999Z</time></trkpt><trkpt lat="36.92999318573747" lon="14.91915059206745"><ele>170.75</ele><time>2026-04-18T13:35:23.999Z</time></trkpt><trkpt lat="36.93003091687648" lon="14.918986563669419"><ele>171.5</ele><time>2026-04-18T13:35:24.999Z</time></trkpt><trkpt lat="36.930094467321716" lon="14.918828553325046"><ele>172.25</ele><time>2026-04-18T13:35:25.999Z</time></trkpt><trkpt lat="36.93017833951722" lon="14.91867642336263"><ele>173.0</ele><time>2026-04-18T13:35:26.999Z</time></trkpt><trkpt lat="36.930281981534016" lon="14.918541185115522"><ele>173.66666666666666</ele><time>2026-04-18T13:35:27.999Z</time></trkpt><trkpt lat="36.93039958743883" lon="14.918410840902837"><ele>174.33333333333334</ele><time>2026-04-18T13:35:28.999Z</time></trkpt><trkpt lat="36.93053540941166" lon="14.918308640907126"><ele>175.0</ele><time>2026-04-18T13:35:29.999Z</time></trkpt><trkpt lat="36.93068865840009" lon="14.918207941179844"><ele>177.0</ele><time>2026-04-18T13:35:30.999Z</time></trkpt><trkpt lat="36.93087180292769" lon="14.918100573081704"><ele>179.0</ele><time>2026-04-18T13:35:31.999Z</time></trkpt><trkpt lat="36.93106569453629" lon="14.917984538073073"><ele>181.0</ele><time>2026-04-18T13:35:32.999Z</time></trkpt><trkpt lat="36.93126291275269" lon="14.917871665316149"><ele>181.0</ele><time>2026-04-18T13:35:33.999Z</time></trkpt><trkpt lat="36.93145553451746" lon="14.917754649486604"><ele>181.0</ele><time>2026-04-18T13:35:34.999Z</time></trkpt><trkpt lat="36.93164892719655" lon="14.917632214057221"><ele>181.0</ele><time>2026-04-18T13:35:35.999Z</time></trkpt><trkpt lat="36.931849940346744" lon="14.917510992288427"><ele>183.0</ele><time>2026-04-18T13:35:36.999Z</time></trkpt><trkpt lat="36.93205109539615" lon="14.917392042307233"><ele>185.0</ele><time>2026-04-18T13:35:37.999Z</time></trkpt><trkpt lat="36.932238642668246" lon="14.917279879108063"><ele>187.0</ele><time>2026-04-18T13:35:38.999Z</time></trkpt><trkpt lat="36.93241947904033" lon="14.917167866132303"><ele>186.33333333333334</ele><time>2026-04-18T13:35:39.999Z</time></trkpt><trkpt lat="36.93258844759398" lon="14.917062177943176"><ele>185.66666666666666</ele><time>2026-04-18T13:35:40.999Z</time></trkpt><trkpt lat="36.932743138179376" lon="14.916966981137216"><ele>185.0</ele><time>2026-04-18T13:35:41.999Z</time></trkpt><trkpt lat="36.93288420058542" lon="14.916880398623753"><ele>185.0</ele><time>2026-04-18T13:35:42.999Z</time></trkpt><trkpt lat="36.93300475088411" lon="14.916794870043015"><ele>185.0</ele><time>2026-04-18T13:35:43.999Z</time></trkpt><trkpt lat="36.93310835801471" lon="14.916687999430232"><ele>185.0</ele><time>2026-04-18T13:35:44.999Z</time></trkpt><trkpt lat="36.93319338940511" lon="14.916555215050497"><ele>185.0</ele><time>2026-04-18T13:35:45.999Z</time></trkpt><trkpt lat="36.93325440453342" lon="14.916412974589091"><ele>187.0</ele><time>2026-04-18T13:35:46.999Z</time></trkpt><trkpt lat="36.93328724901203" lon="14.916261986299306"><ele>189.0</ele><time>2026-04-18T13:35:47.999Z</time></trkpt><trkpt lat="36.9333105047195" lon="14.916088885021304"><ele>191.0</ele><time>2026-04-18T13:35:48.999Z</time></trkpt><trkpt lat="36.93332017182595" lon="14.915875187262925"><ele>193.0</ele><time>2026-04-18T13:35:49.999Z</time></trkpt><trkpt lat="36.93332221338711" lon="14.915638238329167"><ele>195.66666666666666</ele><time>2026-04-18T13:35:50.999Z</time></trkpt><trkpt lat="36.933329348131984" lon="14.915412430998575"><ele>198.33333333333331</ele><time>2026-04-18T13:35:51.999Z</time></trkpt><trkpt lat="36.93332193355681" lon="14.915210238716464"><ele>201.0</ele><time>2026-04-18T13:35:52.999Z</time></trkpt><trkpt lat="36.93328492084899" lon="14.915037830250942"><ele>202.0</ele><time>2026-04-18T13:35:53.999Z</time></trkpt><trkpt lat="36.93322511066125" lon="14.914875658134944"><ele>203.0</ele><time>2026-04-18T13:35:54.999Z</time></trkpt><trkpt lat="36.93314350941531" lon="14.914718822656186"><ele>204.0</ele><time>2026-04-18T13:35:55.999Z</time></trkpt><trkpt lat="36.93304108226974" lon="14.914578577325342"><ele>205.0</ele><time>2026-04-18T13:35:56.999Z</time></trkpt><trkpt lat="36.93291261140592" lon="14.914448101136022"><ele>205.0</ele><time>2026-04-18T13:35:57.999Z</time></trkpt><trkpt lat="36.93275769141363" lon="14.914331371388261"><ele>205.0</ele><time>2026-04-18T13:35:58.999Z</time></trkpt><trkpt lat="36.93258346166369" lon="14.91422982611669"><ele>205.0</ele><time>2026-04-18T13:36:00Z</time></trkpt><trkpt lat="36.93240343517845" lon="14.914130280499"><ele>207.66666666666666</ele><time>2026-04-18T13:36:01Z</time></trkpt><trkpt lat="36.9322325507025" lon="14.914015610714461"><ele>210.33333333333331</ele><time>2026-04-18T13:36:02Z</time></trkpt><trkpt lat="36.9320470390512" lon="14.913883525783117"><ele>213.0</ele><time>2026-04-18T13:36:03Z</time></trkpt><trkpt lat="36.931888315151845" lon="14.913770000512255"><ele>213.0</ele><time>2026-04-18T13:36:04Z</time></trkpt><trkpt lat="36.93174692049667" lon="14.91367163847822"><ele>213.0</ele><time>2026-04-18T13:36:05Z</time></trkpt><trkpt lat="36.931607493335704" lon="14.913574113836237"><ele>213.0</ele><time>2026-04-18T13:36:06Z</time></trkpt><trkpt lat="36.93147727263223" lon="14.913480969304981"><ele>215.5</ele><time>2026-04-18T13:36:07Z</time></trkpt><trkpt lat="36.931355865105004" lon="14.913392404052537"><ele>218.0</ele><time>2026-04-18T13:36:08Z</time></trkpt><trkpt lat="36.93123633757602" lon="14.913299771846628"><ele>220.5</ele><time>2026-04-18T13:36:09Z</time></trkpt><trkpt lat="36.93113124677702" lon="14.913186541840396"><ele>223.0</ele><time>2026-04-18T13:36:10Z</time></trkpt><trkpt lat="36.931038876958354" lon="14.913057639389852"><ele>223.0</ele><time>2026-04-18T13:36:11Z</time></trkpt><trkpt lat="36.930965769968196" lon="14.912911335060642"><ele>223.0</ele><time>2026-04-18T13:36:12Z</time></trkpt><trkpt lat="36.93091464616161" lon="14.912761740742095"><ele>223.0</ele><time>2026-04-18T13:36:13Z</time></trkpt><trkpt lat="36.93086561583183" lon="14.912594325310295"><ele>223.0</ele><time>2026-04-18T13:36:14Z</time></trkpt><trkpt lat="36.930821449916344" lon="14.912406650239376"><ele>224.66666666666666</ele><time>2026-04-18T13:36:15Z</time></trkpt><trkpt lat="36.93077889489178" lon="14.912190034549532"><ele>226.33333333333331</ele><time>2026-04-18T13:36:16Z</time></trkpt><trkpt lat="36.930728805148576" lon="14.911954505215185"><ele>228.0</ele><time>2026-04-18T13:36:17Z</time></trkpt><trkpt lat="36.93067746984765" lon="14.911716948243615"><ele>228.0</ele><time>2026-04-18T13:36:18Z</time></trkpt><trkpt lat="36.93062574921777" lon="14.91148521386743"><ele>228.0</ele><time>2026-04-18T13:36:19Z</time></trkpt><trkpt lat="36.93057606587068" lon="14.911253626440478"><ele>228.0</ele><time>2026-04-18T13:36:20Z</time></trkpt><trkpt lat="36.930526532908445" lon="14.911034488476146"><ele>229.66666666666669</ele><time>2026-04-18T13:36:21Z</time></trkpt><trkpt lat="36.930482957630446" lon="14.910838496558128"><ele>231.33333333333334</ele><time>2026-04-18T13:36:22Z</time></trkpt><trkpt lat="36.93044713007451" lon="14.910651750315173"><ele>233.0</ele><time>2026-04-18T13:36:23Z</time></trkpt><trkpt lat="36.93041483318155" lon="14.910459623645465"><ele>233.0</ele><time>2026-04-18T13:36:24Z</time></trkpt><trkpt lat="36.930393110819374" lon="14.910253455773068"><ele>233.0</ele><time>2026-04-18T13:36:25Z</time></trkpt><trkpt lat="36.93038712384227" lon="14.910042886658818"><ele>233.0</ele><time>2026-04-18T13:36:26Z</time></trkpt><trkpt lat="36.93039899639821" lon="14.90983206493612"><ele>234.5</ele><time>2026-04-18T13:36:27Z</time></trkpt><trkpt lat="36.93042191184175" lon="14.909634724719798"><ele>236.0</ele><time>2026-04-18T13:36:28Z</time></trkpt><trkpt lat="36.930451214513184" lon="14.909462878416992"><ele>237.5</ele><time>2026-04-18T13:36:29Z</time></trkpt><trkpt lat="36.93048695651343" lon="14.9092942138652"><ele>239.0</ele><time>2026-04-18T13:36:30Z</time></trkpt><trkpt lat="36.93052441745861" lon="14.909117526374343"><ele>240.33333333333334</ele><time>2026-04-18T13:36:31Z</time></trkpt><trkpt lat="36.93057080931723" lon="14.908912072670029"><ele>241.66666666666669</ele><time>2026-04-18T13:36:32Z</time></trkpt><trkpt lat="36.93061403873098" lon="14.908721301524963"><ele>243.0</ele><time>2026-04-18T13:36:33Z</time></trkpt><trkpt lat="36.930656309080774" lon="14.90855477663737"><ele>243.0</ele><time>2026-04-18T13:36:34Z</time></trkpt><trkpt lat="36.93069049836484" lon="14.908409733363744"><ele>243.0</ele><time>2026-04-18T13:36:35Z</time></trkpt><trkpt lat="36.93071917592875" lon="14.908277476048372"><ele>243.0</ele><time>2026-04-18T13:36:36Z</time></trkpt><trkpt lat="36.93075286768396" lon="14.908163311522115"><ele>243.0</ele><time>2026-04-18T13:36:37Z</time></trkpt><trkpt lat="36.93080201834538" lon="14.908076913622336"><ele>243.0</ele><time>2026-04-18T13:36:38Z</time></trkpt><trkpt lat="36.93086961531642" lon="14.90800384337616"><ele>245.75</ele><time>2026-04-18T13:36:39Z</time></trkpt><trkpt lat="36.93095741241982" lon="14.907944194962901"><ele>248.5</ele><time>2026-04-18T13:36:40Z</time></trkpt><trkpt lat="36.931067473412405" lon="14.907887586116606"><ele>251.25</ele><time>2026-04-18T13:36:41Z</time></trkpt><trkpt lat="36.93119499114926" lon="14.907825284904341"><ele>254.0</ele><time>2026-04-18T13:36:42Z</time></trkpt><trkpt lat="36.93133180517346" lon="14.907748037373848"><ele>254.0</ele><time>2026-04-18T13:36:43Z</time></trkpt><trkpt lat="36.93147357157563" lon="14.907668732548823"><ele>254.0</ele><time>2026-04-18T13:36:44Z</time></trkpt><trkpt lat="36.93162066881417" lon="14.907586581469214"><ele>254.0</ele><time>2026-04-18T13:36:45Z</time></trkpt><trkpt lat="36.93175398664374" lon="14.907515446714548"><ele>254.25</ele><time>2026-04-18T13:36:46Z</time></trkpt><trkpt lat="36.93188254711522" lon="14.907446782168163"><ele>254.5</ele><time>2026-04-18T13:36:47Z</time></trkpt><trkpt lat="36.93200165070148" lon="14.907388133160236"><ele>254.75</ele><time>2026-04-18T13:36:48Z</time></trkpt><trkpt lat="36.93211515003065" lon="14.907339958758445"><ele>255.0</ele><time>2026-04-18T13:36:49Z</time></trkpt><trkpt lat="36.93223191291139" lon="14.907304255625107"><ele>255.0</ele><time>2026-04-18T13:36:50Z</time></trkpt><trkpt lat="36.932368652941996" lon="14.907271630756776"><ele>255.0</ele><time>2026-04-18T13:36:51Z</time></trkpt><trkpt lat="36.93252306005827" lon="14.907238460727323"><ele>255.0</ele><time>2026-04-18T13:36:52Z</time></trkpt><trkpt lat="36.932683025856285" lon="14.907208374403655"><ele>255.66666666666669</ele><time>2026-04-18T13:36:53Z</time></trkpt><trkpt lat="36.93284223189949" lon="14.907180289874855"><ele>256.33333333333337</ele><time>2026-04-18T13:36:54Z</time></trkpt><trkpt lat="36.93299908239649" lon="14.907162384892153"><ele>257.0</ele><time>2026-04-18T13:36:55Z</time></trkpt><trkpt lat="36.93314558524489" lon="14.907144154157592"><ele>257.0</ele><time>2026-04-18T13:36:56Z</time></trkpt><trkpt lat="36.93328593237808" lon="14.907121568250238"><ele>257.0</ele><time>2026-04-18T13:36:57Z</time></trkpt><trkpt lat="36.93341576900616" lon="14.90709189964402"><ele>257.0</ele><time>2026-04-18T13:36:58Z</time></trkpt><trkpt lat="36.93354731894695" lon="14.90706737788925"><ele>257.0</ele><time>2026-04-18T13:36:59Z</time></trkpt><trkpt lat="36.933695236689616" lon="14.907035875749438"><ele>256.0</ele><time>2026-04-18T13:37:00Z</time></trkpt><trkpt lat="36.933846878222866" lon="14.90700679032672"><ele>255.0</ele><time>2026-04-18T13:37:01Z</time></trkpt><trkpt lat="36.933986832047545" lon="14.906989312415053"><ele>254.0</ele><time>2026-04-18T13:37:02Z</time></trkpt><trkpt lat="36.93411984495171" lon="14.906955846355924"><ele>253.0</ele><time>2026-04-18T13:37:03Z</time></trkpt><trkpt lat="36.93423937849346" lon="14.906920612115465"><ele>252.75</ele><time>2026-04-18T13:37:04Z</time></trkpt><trkpt lat="36.93435334922095" lon="14.90688216645893"><ele>252.5</ele><time>2026-04-18T13:37:05Z</time></trkpt><trkpt lat="36.934473313077554" lon="14.906831800888432"><ele>252.25</ele><time>2026-04-18T13:37:06Z</time></trkpt><trkpt lat="36.93459720127068" lon="14.906764574335163"><ele>252.0</ele><time>2026-04-18T13:37:07Z</time></trkpt><trkpt lat="36.93470892957678" lon="14.906683763233943"><ele>252.75</ele><time>2026-04-18T13:37:08Z</time></trkpt><trkpt lat="36.93482084441846" lon="14.906592772824515"><ele>253.5</ele><time>2026-04-18T13:37:09Z</time></trkpt><trkpt lat="36.93493751457732" lon="14.906493403883928"><ele>254.25</ele><time>2026-04-18T13:37:10Z</time></trkpt><trkpt lat="36.93505813102877" lon="14.906385125282899"><ele>255.0</ele><time>2026-04-18T13:37:11Z</time></trkpt><trkpt lat="36.93518108579018" lon="14.906270994469244"><ele>256.0</ele><time>2026-04-18T13:37:12Z</time></trkpt><trkpt lat="36.93530923521128" lon="14.906146005867415"><ele>257.0</ele><time>2026-04-18T13:37:13Z</time></trkpt><trkpt lat="36.93543504645022" lon="14.906020356865897"><ele>258.0</ele><time>2026-04-18T13:37:14Z</time></trkpt><trkpt lat="36.9355624186672" lon="14.905894567666566"><ele>258.0</ele><time>2026-04-18T13:37:15Z</time></trkpt><trkpt lat="36.93566981752292" lon="14.905783106463298"><ele>258.0</ele><time>2026-04-18T13:37:16Z</time></trkpt><trkpt lat="36.93575811876182" lon="14.905670824407961"><ele>258.0</ele><time>2026-04-18T13:37:17Z</time></trkpt><trkpt lat="36.935826300879796" lon="14.905551296964878"><ele>258.0</ele><time>2026-04-18T13:37:18Z</time></trkpt><trkpt lat="36.93588945661277" lon="14.905417868383823"><ele>258.6666666666667</ele><time>2026-04-18T13:37:19Z</time></trkpt><trkpt lat="36.93595006630884" lon="14.9052648775762"><ele>259.33333333333337</ele><time>2026-04-18T13:37:20Z</time></trkpt><trkpt lat="36.936020182185416" lon="14.905098383835698"><ele>260.0</ele><time>2026-04-18T13:37:21Z</time></trkpt><trkpt lat="36.9360953691204" lon="14.90490746776133"><ele>260.0</ele><time>2026-04-18T13:37:22Z</time></trkpt><trkpt lat="36.93618154206292" lon="14.90469313930273"><ele>260.0</ele><time>2026-04-18T13:37:23Z</time></trkpt><trkpt lat="36.93627286648376" lon="14.90446756852558"><ele>260.0</ele><time>2026-04-18T13:37:24Z</time></trkpt><trkpt lat="36.936362533386486" lon="14.904248301102013"><ele>260.75</ele><time>2026-04-18T13:37:24.999Z</time></trkpt><trkpt lat="36.93643956494084" lon="14.904065268031246"><ele>261.5</ele><time>2026-04-18T13:37:25.999Z</time></trkpt><trkpt lat="36.9365043609011" lon="14.903910622268274"><ele>262.25</ele><time>2026-04-18T13:37:26.999Z</time></trkpt><trkpt lat="36.93656365545171" lon="14.903770372068184"><ele>263.0</ele><time>2026-04-18T13:37:27.999Z</time></trkpt><trkpt lat="36.93661480620874" lon="14.903643834485253"><ele>263.0</ele><time>2026-04-18T13:37:28.999Z</time></trkpt><trkpt lat="36.936648143732334" lon="14.903529375283133"><ele>263.0</ele><time>2026-04-18T13:37:29.999Z</time></trkpt><trkpt lat="36.93666452735937" lon="14.903408512005694"><ele>263.0</ele><time>2026-04-18T13:37:30.999Z</time></trkpt><trkpt lat="36.93666625831689" lon="14.903264792787853"><ele>263.0</ele><time>2026-04-18T13:37:31.999Z</time></trkpt><trkpt lat="36.93665997697451" lon="14.903101394482558"><ele>263.0</ele><time>2026-04-18T13:37:32.999Z</time></trkpt><trkpt lat="36.93664455296736" lon="14.9029006213442"><ele>264.33333333333337</ele><time>2026-04-18T13:37:33.999Z</time></trkpt><trkpt lat="36.936624901079725" lon="14.902664527972798"><ele>265.6666666666667</ele><time>2026-04-18T13:37:34.999Z</time></trkpt><trkpt lat="36.936607146581046" lon="14.902451356265582"><ele>267.0</ele><time>2026-04-18T13:37:35.999Z</time></trkpt><trkpt lat="36.936600379583126" lon="14.90227842348584"><ele>267.6</ele><time>2026-04-18T13:37:36.999Z</time></trkpt><trkpt lat="36.936605665460554" lon="14.902136244163552"><ele>268.2</ele><time>2026-04-18T13:37:37.999Z</time></trkpt><trkpt lat="36.936624027458095" lon="14.902006519786012"><ele>268.8</ele><time>2026-04-18T13:37:38.999Z</time></trkpt><trkpt lat="36.936659208996744" lon="14.901897984982238"><ele>269.4</ele><time>2026-04-18T13:37:39.999Z</time></trkpt><trkpt lat="36.93672257804336" lon="14.901785585748614"><ele>270.0</ele><time>2026-04-18T13:37:40.999Z</time></trkpt><trkpt lat="36.93682069973926" lon="14.90164708336612"><ele>271.5</ele><time>2026-04-18T13:37:41.999Z</time></trkpt><trkpt lat="36.9369426942963" lon="14.901487856722724"><ele>273.0</ele><time>2026-04-18T13:37:42.999Z</time></trkpt><trkpt lat="36.93705037664992" lon="14.901347952007981"><ele>274.5</ele><time>2026-04-18T13:37:43.999Z</time></trkpt><trkpt lat="36.93712547902872" lon="14.901241424384427"><ele>276.0</ele><time>2026-04-18T13:37:44.999Z</time></trkpt><trkpt lat="36.937174823235374" lon="14.901152440484763"><ele>276.0</ele><time>2026-04-18T13:37:45.999Z</time></trkpt><trkpt lat="36.93719977382885" lon="14.901069108003329"><ele>276.0</ele><time>2026-04-18T13:37:46.999Z</time></trkpt><trkpt lat="36.937165024851225" lon="14.90091355156624"><ele>276.0</ele><time>2026-04-18T13:37:48.999Z</time></trkpt><trkpt lat="36.93710719448525" lon="14.900835054730488"><ele>276.0</ele><time>2026-04-18T13:37:49.999Z</time></trkpt><trkpt lat="36.93703395489038" lon="14.90076795482214"><ele>276.0</ele><time>2026-04-18T13:37:50.999Z</time></trkpt><trkpt lat="36.936958314552925" lon="14.900738941780594"><ele>275.6666666666667</ele><time>2026-04-18T13:37:51.999Z</time></trkpt><trkpt lat="36.93688587558125" lon="14.900746732137902"><ele>275.3333333333333</ele><time>2026-04-18T13:37:52.999Z</time></trkpt><trkpt lat="36.93681846143324" lon="14.900792253995393"><ele>275.0</ele><time>2026-04-18T13:37:53.999Z</time></trkpt><trkpt lat="36.936751911485175" lon="14.90087042830857"><ele>274.66666666666663</ele><time>2026-04-18T13:37:54.999Z</time></trkpt><trkpt lat="36.93668515176524" lon="14.900933637052821"><ele>274.3333333333333</ele><time>2026-04-18T13:37:55.999Z</time></trkpt><trkpt lat="36.93657077295752" lon="14.900918596740873"><ele>274.0</ele><time>2026-04-18T13:37:57.999Z</time></trkpt><trkpt lat="36.93652360711519" lon="14.900862333457992"><ele>275.0</ele><time>2026-04-18T13:37:59Z</time></trkpt><trkpt lat="36.93648555091334" lon="14.900781673542241"><ele>276.0</ele><time>2026-04-18T13:38:00Z</time></trkpt><trkpt lat="36.93646167136179" lon="14.900678200157072"><ele>277.0</ele><time>2026-04-18T13:38:01Z</time></trkpt><trkpt lat="36.93644922363966" lon="14.900548005654688"><ele>278.0</ele><time>2026-04-18T13:38:02Z</time></trkpt><trkpt lat="36.936434133263816" lon="14.900362173982634"><ele>279.0</ele><time>2026-04-18T13:38:03Z</time></trkpt><trkpt lat="36.93641414079076" lon="14.900124958284357"><ele>281.0</ele><time>2026-04-18T13:38:04Z</time></trkpt><trkpt lat="36.9363910143228" lon="14.89986139627017"><ele>283.0</ele><time>2026-04-18T13:38:05Z</time></trkpt><trkpt lat="36.936373162045754" lon="14.899636835469497"><ele>285.0</ele><time>2026-04-18T13:38:06Z</time></trkpt><trkpt lat="36.93636460096103" lon="14.899466332258186"><ele>285.0</ele><time>2026-04-18T13:38:07Z</time></trkpt><trkpt lat="36.9363745449522" lon="14.899330852585244"><ele>285.0</ele><time>2026-04-18T13:38:08Z</time></trkpt><trkpt lat="36.936411644779014" lon="14.899180647136367"><ele>285.0</ele><time>2026-04-18T13:38:09Z</time></trkpt><trkpt lat="36.936466257067764" lon="14.898977293747564"><ele>285.0</ele><time>2026-04-18T13:38:10Z</time></trkpt><trkpt lat="36.93652137743397" lon="14.898781439111731"><ele>286.25</ele><time>2026-04-18T13:38:11Z</time></trkpt><trkpt lat="36.93656664630401" lon="14.898637859634471"><ele>287.5</ele><time>2026-04-18T13:38:12Z</time></trkpt><trkpt lat="36.93661826042237" lon="14.898530748574787"><ele>288.75</ele><time>2026-04-18T13:38:13Z</time></trkpt><trkpt lat="36.9366929078828" lon="14.898437820886782"><ele>290.0</ele><time>2026-04-18T13:38:14Z</time></trkpt><trkpt lat="36.9367953909514" lon="14.898311825752101"><ele>291.33333333333337</ele><time>2026-04-18T13:38:15Z</time></trkpt><trkpt lat="36.93692170188658" lon="14.8981624991029"><ele>292.6666666666667</ele><time>2026-04-18T13:38:16Z</time></trkpt><trkpt lat="36.93702784120589" lon="14.898015533297263"><ele>294.0</ele><time>2026-04-18T13:38:17Z</time></trkpt><trkpt lat="36.93711932361645" lon="14.897854998187151"><ele>294.0</ele><time>2026-04-18T13:38:18Z</time></trkpt><trkpt lat="36.93721166067982" lon="14.897673658615764"><ele>294.0</ele><time>2026-04-18T13:38:19Z</time></trkpt><trkpt lat="36.937312301987305" lon="14.897459002271951"><ele>294.0</ele><time>2026-04-18T13:38:20Z</time></trkpt><trkpt lat="36.93742155195728" lon="14.897209844365056"><ele>295.6666666666667</ele><time>2026-04-18T13:38:21Z</time></trkpt><trkpt lat="36.93753779819363" lon="14.896952957452797"><ele>297.33333333333337</ele><time>2026-04-18T13:38:22Z</time></trkpt><trkpt lat="36.93763825539314" lon="14.896719658005768"><ele>299.0</ele><time>2026-04-18T13:38:23Z</time></trkpt><trkpt lat="36.937736072623444" lon="14.896497848818862"><ele>299.6666666666667</ele><time>2026-04-18T13:38:24Z</time></trkpt><trkpt lat="36.937837668913716" lon="14.896283495416698"><ele>300.3333333333333</ele><time>2026-04-18T13:38:25Z</time></trkpt><trkpt lat="36.93793205348125" lon="14.896086796739688"><ele>301.0</ele><time>2026-04-18T13:38:26Z</time></trkpt><trkpt lat="36.93802061768399" lon="14.895903320471705"><ele>301.0</ele><time>2026-04-18T13:38:27Z</time></trkpt><trkpt lat="36.93810204959268" lon="14.895729842169667"><ele>301.0</ele><time>2026-04-18T13:38:28Z</time></trkpt><trkpt lat="36.938182248932456" lon="14.895553907827566"><ele>301.0</ele><time>2026-04-18T13:38:29Z</time></trkpt><trkpt lat="36.93826287249643" lon="14.8953828782275"><ele>301.0</ele><time>2026-04-18T13:38:30Z</time></trkpt><trkpt lat="36.93834456703237" lon="14.895213414904289"><ele>301.0</ele><time>2026-04-18T13:38:31Z</time></trkpt><trkpt lat="36.93842564316124" lon="14.895040323089361"><ele>301.0</ele><time>2026-04-18T13:38:32Z</time></trkpt><trkpt lat="36.93850738879413" lon="14.894863411726996"><ele>298.75</ele><time>2026-04-18T13:38:33Z</time></trkpt><trkpt lat="36.93858326689361" lon="14.894700204368812"><ele>296.5</ele><time>2026-04-18T13:38:34Z</time></trkpt><trkpt lat="36.93865617414069" lon="14.894549924485624"><ele>294.25</ele><time>2026-04-18T13:38:35Z</time></trkpt><trkpt lat="36.9387331811732" lon="14.894409452119518"><ele>292.0</ele><time>2026-04-18T13:38:36Z</time></trkpt><trkpt lat="36.93882443735292" lon="14.894272310076648"><ele>293.5</ele><time>2026-04-18T13:38:37Z</time></trkpt><trkpt lat="36.93892568056741" lon="14.894146429123516"><ele>295.0</ele><time>2026-04-18T13:38:38Z</time></trkpt><trkpt lat="36.93902997990264" lon="14.894027388898483"><ele>296.5</ele><time>2026-04-18T13:38:39Z</time></trkpt><trkpt lat="36.93912254331284" lon="14.893894072739762"><ele>298.0</ele><time>2026-04-18T13:38:40Z</time></trkpt><trkpt lat="36.93919521841299" lon="14.89376385255144"><ele>295.5</ele><time>2026-04-18T13:38:41Z</time></trkpt><trkpt lat="36.93926746541949" lon="14.893629577665939"><ele>293.0</ele><time>2026-04-18T13:38:42Z</time></trkpt><trkpt lat="36.939339602537586" lon="14.893475740466805"><ele>290.5</ele><time>2026-04-18T13:38:43Z</time></trkpt><trkpt lat="36.93940865294507" lon="14.893309604570497"><ele>288.0</ele><time>2026-04-18T13:38:44Z</time></trkpt><trkpt lat="36.93948289726706" lon="14.89313300530808"><ele>288.0</ele><time>2026-04-18T13:38:45Z</time></trkpt><trkpt lat="36.93955218249987" lon="14.892954886044995"><ele>288.0</ele><time>2026-04-18T13:38:46Z</time></trkpt><trkpt lat="36.93960653254405" lon="14.892780214201306"><ele>288.0</ele><time>2026-04-18T13:38:47Z</time></trkpt><trkpt lat="36.93964568957644" lon="14.8926035271294"><ele>290.75</ele><time>2026-04-18T13:38:48Z</time></trkpt><trkpt lat="36.93967316155882" lon="14.892422587452456"><ele>293.5</ele><time>2026-04-18T13:38:49Z</time></trkpt><trkpt lat="36.93969819481678" lon="14.892242087431647"><ele>296.25</ele><time>2026-04-18T13:38:50Z</time></trkpt><trkpt lat="36.93972292336714" lon="14.892077990324298"><ele>299.0</ele><time>2026-04-18T13:38:51Z</time></trkpt><trkpt lat="36.9397490393011" lon="14.891959452162293"><ele>299.0</ele><time>2026-04-18T13:38:52Z</time></trkpt><trkpt lat="36.939780011173795" lon="14.891864389440306"><ele>299.0</ele><time>2026-04-18T13:38:53Z</time></trkpt><trkpt lat="36.93982243367048" lon="14.891794876964003"><ele>299.0</ele><time>2026-04-18T13:38:54Z</time></trkpt><trkpt lat="36.93987630607297" lon="14.891749276171444"><ele>299.0</ele><time>2026-04-18T13:38:55Z</time></trkpt><trkpt lat="36.93994363942504" lon="14.891707557510381"><ele>299.0</ele><time>2026-04-18T13:38:56Z</time></trkpt><trkpt lat="36.940017767843486" lon="14.891669155669204"><ele>299.0</ele><time>2026-04-18T13:38:57Z</time></trkpt><trkpt lat="36.94007851702461" lon="14.891629023490479"><ele>299.0</ele><time>2026-04-18T13:38:58Z</time></trkpt><trkpt lat="36.94015700954016" lon="14.891492342063751"><ele>298.5</ele><time>2026-04-18T13:39:00Z</time></trkpt><trkpt lat="36.94019596594461" lon="14.891377734056151"><ele>298.0</ele><time>2026-04-18T13:39:01Z</time></trkpt><trkpt lat="36.9402467861126" lon="14.89122369392104"><ele>297.5</ele><time>2026-04-18T13:39:02Z</time></trkpt><trkpt lat="36.94029932990373" lon="14.891083680723257"><ele>297.0</ele><time>2026-04-18T13:39:03Z</time></trkpt><trkpt lat="36.940359461250885" lon="14.890971249482009"><ele>300.0</ele><time>2026-04-18T13:39:04Z</time></trkpt><trkpt lat="36.94043723701072" lon="14.890855932691359"><ele>303.0</ele><time>2026-04-18T13:39:05Z</time></trkpt><trkpt lat="36.940536046743716" lon="14.890715216164477"><ele>306.0</ele><time>2026-04-18T13:39:06Z</time></trkpt><trkpt lat="36.94065230346362" lon="14.890555704743518"><ele>309.0</ele><time>2026-04-18T13:39:07Z</time></trkpt><trkpt lat="36.940779335972124" lon="14.890371094719654"><ele>311.0</ele><time>2026-04-18T13:39:08Z</time></trkpt><trkpt lat="36.94089775584973" lon="14.890194020363568"><ele>313.0</ele><time>2026-04-18T13:39:09Z</time></trkpt><trkpt lat="36.94098500330146" lon="14.890065037533883"><ele>315.0</ele><time>2026-04-18T13:39:10Z</time></trkpt><trkpt lat="36.94105228105869" lon="14.889982183280477"><ele>317.0</ele><time>2026-04-18T13:39:11Z</time></trkpt><trkpt lat="36.941116453613596" lon="14.889925431505556"><ele>318.2</ele><time>2026-04-18T13:39:12Z</time></trkpt><trkpt lat="36.94118324967152" lon="14.889893550053907"><ele>319.4</ele><time>2026-04-18T13:39:13Z</time></trkpt><trkpt lat="36.941258816949535" lon="14.88988095788761"><ele>320.59999999999997</ele><time>2026-04-18T13:39:14Z</time></trkpt><trkpt lat="36.941349007486444" lon="14.889892567702592"><ele>321.79999999999995</ele><time>2026-04-18T13:39:15Z</time></trkpt><trkpt lat="36.94145511637413" lon="14.88992239245334"><ele>323.0</ele><time>2026-04-18T13:39:16Z</time></trkpt><trkpt lat="36.94157028766608" lon="14.889968559660806"><ele>323.0</ele><time>2026-04-18T13:39:17Z</time></trkpt><trkpt lat="36.94165172458509" lon="14.890004358846985"><ele>323.0</ele><time>2026-04-18T13:39:18Z</time></trkpt><trkpt lat="36.94173644896891" lon="14.889975392924233"><ele>323.0</ele><time>2026-04-18T13:39:20Z</time></trkpt><trkpt lat="36.94176169990517" lon="14.889849321499062"><ele>323.0</ele><time>2026-04-18T13:39:22Z</time></trkpt><trkpt lat="36.94169224803553" lon="14.889746760910132"><ele>323.0</ele><time>2026-04-18T13:39:24Z</time></trkpt><trkpt lat="36.94153507407929" lon="14.889699440529789"><ele>323.0</ele><time>2026-04-18T13:39:26Z</time></trkpt><trkpt lat="36.94140195949336" lon="14.889672158315388"><ele>323.0</ele><time>2026-04-18T13:39:27Z</time></trkpt><trkpt lat="36.94128444143827" lon="14.889640460174402"><ele>323.0</ele><time>2026-04-18T13:39:28Z</time></trkpt><trkpt lat="36.94122053575071" lon="14.889603114045048"><ele>323.0</ele><time>2026-04-18T13:39:29Z</time></trkpt><trkpt lat="36.94115879935259" lon="14.889513909848251"><ele>323.0</ele><time>2026-04-18T13:39:30.999Z</time></trkpt><trkpt lat="36.941205533199835" lon="14.88942560732909"><ele>323.0</ele><time>2026-04-18T13:39:32.999Z</time></trkpt><trkpt lat="36.94130403380387" lon="14.88939215507945"><ele>323.0</ele><time>2026-04-18T13:39:34.999Z</time></trkpt><trkpt lat="36.94138231480308" lon="14.88938526538218"><ele>323.0</ele><time>2026-04-18T13:39:35.999Z</time></trkpt><trkpt lat="36.94148972448925" lon="14.889379204683515"><ele>323.0</ele><time>2026-04-18T13:39:36.999Z</time></trkpt><trkpt lat="36.94159757591662" lon="14.889368379902834"><ele>323.0</ele><time>2026-04-18T13:39:37.999Z</time></trkpt><trkpt lat="36.94168129183717" lon="14.889337023239815"><ele>325.5</ele><time>2026-04-18T13:39:38.999Z</time></trkpt><trkpt lat="36.94175499505475" lon="14.889281910891205"><ele>328.0</ele><time>2026-04-18T13:39:39.999Z</time></trkpt><trkpt lat="36.94184169371418" lon="14.889203037744023"><ele>330.5</ele><time>2026-04-18T13:39:40.999Z</time></trkpt><trkpt lat="36.94195626332321" lon="14.889090979120116"><ele>333.0</ele><time>2026-04-18T13:39:41.999Z</time></trkpt><trkpt lat="36.94209466246557" lon="14.88895542887034"><ele>334.0</ele><time>2026-04-18T13:39:42.999Z</time></trkpt><trkpt lat="36.942236046653285" lon="14.888814396241992"><ele>335.0</ele><time>2026-04-18T13:39:43.999Z</time></trkpt><trkpt lat="36.94235150348606" lon="14.888680199554567"><ele>336.0</ele><time>2026-04-18T13:39:44.999Z</time></trkpt><trkpt lat="36.94244203392118" lon="14.888552611509201"><ele>337.0</ele><time>2026-04-18T13:39:45.999Z</time></trkpt><trkpt lat="36.9425197601325" lon="14.88841886048338"><ele>338.0</ele><time>2026-04-18T13:39:46.999Z</time></trkpt><trkpt lat="36.94259465944468" lon="14.888257785774888"><ele>339.0</ele><time>2026-04-18T13:39:47.999Z</time></trkpt><trkpt lat="36.94268068485729" lon="14.888052470784954"><ele>339.6666666666667</ele><time>2026-04-18T13:39:48.999Z</time></trkpt><trkpt lat="36.9427735543785" lon="14.887811161644473"><ele>340.33333333333337</ele><time>2026-04-18T13:39:49.999Z</time></trkpt><trkpt lat="36.94286805863224" lon="14.887548855018272"><ele>341.0</ele><time>2026-04-18T13:39:50.999Z</time></trkpt><trkpt lat="36.942952862361594" lon="14.887308329426146"><ele>341.0</ele><time>2026-04-18T13:39:52Z</time></trkpt><trkpt lat="36.94302601501769" lon="14.887108224062157"><ele>341.0</ele><time>2026-04-18T13:39:53Z</time></trkpt><trkpt lat="36.94309899994738" lon="14.88693226173125"><ele>341.0</ele><time>2026-04-18T13:39:54Z</time></trkpt><trkpt lat="36.94318446673328" lon="14.886752588822853"><ele>342.0</ele><time>2026-04-18T13:39:55Z</time></trkpt><trkpt lat="36.943277863513174" lon="14.886593740664331"><ele>343.0</ele><time>2026-04-18T13:39:56Z</time></trkpt><trkpt lat="36.94338024479911" lon="14.886436767477985"><ele>344.0</ele><time>2026-04-18T13:39:57Z</time></trkpt><trkpt lat="36.94350459706999" lon="14.886279397885504"><ele>343.25</ele><time>2026-04-18T13:39:58Z</time></trkpt><trkpt lat="36.94363471795316" lon="14.886116281685696"><ele>342.5</ele><time>2026-04-18T13:39:59Z</time></trkpt><trkpt lat="36.94373761830969" lon="14.88599136509162"><ele>341.75</ele><time>2026-04-18T13:40:00Z</time></trkpt><trkpt lat="36.94381897089939" lon="14.88588253564246"><ele>341.0</ele><time>2026-04-18T13:40:01Z</time></trkpt><trkpt lat="36.94389230700975" lon="14.885779621916878"><ele>341.0</ele><time>2026-04-18T13:40:02Z</time></trkpt><trkpt lat="36.94395660914526" lon="14.885675318920955"><ele>341.0</ele><time>2026-04-18T13:40:03Z</time></trkpt><trkpt lat="36.944012103560844" lon="14.885546759922939"><ele>341.0</ele><time>2026-04-18T13:40:04Z</time></trkpt><trkpt lat="36.944070986815944" lon="14.88538883019408"><ele>341.0</ele><time>2026-04-18T13:40:05Z</time></trkpt><trkpt lat="36.944141177158386" lon="14.885202362110816"><ele>342.0</ele><time>2026-04-18T13:40:06Z</time></trkpt><trkpt lat="36.94422148330328" lon="14.885008180026981"><ele>343.0</ele><time>2026-04-18T13:40:07Z</time></trkpt><trkpt lat="36.94430007295289" lon="14.884817463014029"><ele>344.0</ele><time>2026-04-18T13:40:08Z</time></trkpt><trkpt lat="36.94438165666551" lon="14.884625658481815"><ele>344.0</ele><time>2026-04-18T13:40:09Z</time></trkpt><trkpt lat="36.944461635497056" lon="14.884443371075056"><ele>344.0</ele><time>2026-04-18T13:40:10Z</time></trkpt><trkpt lat="36.944534180774625" lon="14.884280730899938"><ele>344.0</ele><time>2026-04-18T13:40:11Z</time></trkpt><trkpt lat="36.94459748110652" lon="14.884139237020102"><ele>344.0</ele><time>2026-04-18T13:40:12Z</time></trkpt><trkpt lat="36.94464810741893" lon="14.884002547327544"><ele>344.2</ele><time>2026-04-18T13:40:13Z</time></trkpt><trkpt lat="36.94469840004631" lon="14.883882025079167"><ele>344.4</ele><time>2026-04-18T13:40:14Z</time></trkpt><trkpt lat="36.94474507121384" lon="14.883773472614445"><ele>344.6</ele><time>2026-04-18T13:40:15Z</time></trkpt><trkpt lat="36.94479243354268" lon="14.883669043007378"><ele>344.8</ele><time>2026-04-18T13:40:16Z</time></trkpt><trkpt lat="36.944843296256494" lon="14.883559762682877"><ele>345.0</ele><time>2026-04-18T13:40:17Z</time></trkpt><trkpt lat="36.94493592388867" lon="14.883473835672397"><ele>345.2</ele><time>2026-04-18T13:40:18Z</time></trkpt><trkpt lat="36.94500014267856" lon="14.883360983619877"><ele>345.4</ele><time>2026-04-18T13:40:19Z</time></trkpt><trkpt lat="36.945065901944915" lon="14.883281799631934"><ele>345.6</ele><time>2026-04-18T13:40:20Z</time></trkpt><trkpt lat="36.94512787733511" lon="14.883213689081419"><ele>345.8</ele><time>2026-04-18T13:40:21Z</time></trkpt><trkpt lat="36.945195766551706" lon="14.883151382311556"><ele>346.0</ele><time>2026-04-18T13:40:22Z</time></trkpt><trkpt lat="36.94528950967581" lon="14.883138414791214"><ele>345.0</ele><time>2026-04-18T13:40:23Z</time></trkpt><trkpt lat="36.94540625080025" lon="14.883104610324612"><ele>344.0</ele><time>2026-04-18T13:40:24Z</time></trkpt><trkpt lat="36.94553591267252" lon="14.883069410315096"><ele>343.0</ele><time>2026-04-18T13:40:25Z</time></trkpt><trkpt lat="36.945663316181694" lon="14.883031933718822"><ele>342.0</ele><time>2026-04-18T13:40:26Z</time></trkpt><trkpt lat="36.94577977648693" lon="14.882997676138267"><ele>340.75</ele><time>2026-04-18T13:40:27Z</time></trkpt><trkpt lat="36.94590005573422" lon="14.882961373865315"><ele>339.5</ele><time>2026-04-18T13:40:28Z</time></trkpt><trkpt lat="36.94602050311523" lon="14.882922910974916"><ele>338.25</ele><time>2026-04-18T13:40:29Z</time></trkpt><trkpt lat="36.94614261738261" lon="14.882882080899034"><ele>337.0</ele><time>2026-04-18T13:40:30Z</time></trkpt><trkpt lat="36.9462688799833" lon="14.882839863779651"><ele>337.0</ele><time>2026-04-18T13:40:31Z</time></trkpt><trkpt lat="36.94640377362925" lon="14.8827961501892"><ele>337.0</ele><time>2026-04-18T13:40:32Z</time></trkpt><trkpt lat="36.94653538602366" lon="14.882756132777128"><ele>337.0</ele><time>2026-04-18T13:40:33Z</time></trkpt><trkpt lat="36.946675493831435" lon="14.882711709031415"><ele>337.0</ele><time>2026-04-18T13:40:34Z</time></trkpt><trkpt lat="36.9468202802831" lon="14.882679198807105"><ele>336.5</ele><time>2026-04-18T13:40:35Z</time></trkpt><trkpt lat="36.94690770629801" lon="14.882670853355243"><ele>336.0</ele><time>2026-04-18T13:40:36Z</time></trkpt><trkpt lat="36.94702260136539" lon="14.88265901431727"><ele>335.5</ele><time>2026-04-18T13:40:37Z</time></trkpt><trkpt lat="36.947149501798926" lon="14.882639115053378"><ele>335.0</ele><time>2026-04-18T13:40:38Z</time></trkpt><trkpt lat="36.94726561612211" lon="14.882588559858698"><ele>337.75</ele><time>2026-04-18T13:40:39Z</time></trkpt><trkpt lat="36.94738838510495" lon="14.882533293712333"><ele>340.5</ele><time>2026-04-18T13:40:40Z</time></trkpt><trkpt lat="36.9475186159078" lon="14.88246271931922"><ele>343.25</ele><time>2026-04-18T13:40:41Z</time></trkpt><trkpt lat="36.94766132368689" lon="14.88238971740987"><ele>346.0</ele><time>2026-04-18T13:40:42Z</time></trkpt><trkpt lat="36.94781122519207" lon="14.88231469966362"><ele>346.66666666666663</ele><time>2026-04-18T13:40:43Z</time></trkpt><trkpt lat="36.94796912866836" lon="14.882226169251645"><ele>347.3333333333333</ele><time>2026-04-18T13:40:44Z</time></trkpt><trkpt lat="36.948133751745345" lon="14.882159894492233"><ele>348.0</ele><time>2026-04-18T13:40:45Z</time></trkpt><trkpt lat="36.94829397714795" lon="14.882076050916712"><ele>346.0</ele><time>2026-04-18T13:40:46Z</time></trkpt><trkpt lat="36.948455675541275" lon="14.881990087117812"><ele>344.0</ele><time>2026-04-18T13:40:47Z</time></trkpt><trkpt lat="36.94861799418652" lon="14.881888279064304"><ele>342.0</ele><time>2026-04-18T13:40:48Z</time></trkpt><trkpt lat="36.94878840895153" lon="14.881793769325304"><ele>341.3333333333333</ele><time>2026-04-18T13:40:49Z</time></trkpt><trkpt lat="36.94896478925937" lon="14.881718596556919"><ele>340.66666666666663</ele><time>2026-04-18T13:40:50Z</time></trkpt><trkpt lat="36.94911216371786" lon="14.88161503735145"><ele>340.0</ele><time>2026-04-18T13:40:51Z</time></trkpt><trkpt lat="36.94925612723893" lon="14.88152892980567"><ele>340.0</ele><time>2026-04-18T13:40:52Z</time></trkpt><trkpt lat="36.949381249589266" lon="14.881441770268175"><ele>340.0</ele><time>2026-04-18T13:40:53Z</time></trkpt><trkpt lat="36.94950528988515" lon="14.881345308971245"><ele>340.0</ele><time>2026-04-18T13:40:54Z</time></trkpt><trkpt lat="36.94962601012325" lon="14.881244670596509"><ele>340.0</ele><time>2026-04-18T13:40:55Z</time></trkpt><trkpt lat="36.94974657448761" lon="14.881138227130915"><ele>340.0</ele><time>2026-04-18T13:40:56Z</time></trkpt><trkpt lat="36.94986468982854" lon="14.881024772488564"><ele>340.0</ele><time>2026-04-18T13:40:57Z</time></trkpt><trkpt lat="36.94999034362076" lon="14.880928940752025"><ele>340.0</ele><time>2026-04-18T13:40:58Z</time></trkpt><trkpt lat="36.950097574559734" lon="14.880806269105701"><ele>340.0</ele><time>2026-04-18T13:40:59Z</time></trkpt><trkpt lat="36.950223477529626" lon="14.880717551444977"><ele>343.75</ele><time>2026-04-18T13:41:00Z</time></trkpt><trkpt lat="36.95034209392054" lon="14.88062416192676"><ele>347.5</ele><time>2026-04-18T13:41:01Z</time></trkpt><trkpt lat="36.950469378336514" lon="14.880550764430573"><ele>351.25</ele><time>2026-04-18T13:41:02Z</time></trkpt><trkpt lat="36.950594378098685" lon="14.880488463048753"><ele>355.0</ele><time>2026-04-18T13:41:03Z</time></trkpt><trkpt lat="36.95071165022755" lon="14.88043097528231"><ele>355.0</ele><time>2026-04-18T13:41:04Z</time></trkpt><trkpt lat="36.95081899981246" lon="14.88036811124021"><ele>355.0</ele><time>2026-04-18T13:41:05Z</time></trkpt><trkpt lat="36.95091687844546" lon="14.88031172263766"><ele>355.0</ele><time>2026-04-18T13:41:06Z</time></trkpt><trkpt lat="36.950999550738935" lon="14.880240282872098"><ele>355.0</ele><time>2026-04-18T13:41:07Z</time></trkpt><trkpt lat="36.951072240208106" lon="14.880147202965455"><ele>355.0</ele><time>2026-04-18T13:41:08Z</time></trkpt><trkpt lat="36.95113542427979" lon="14.880036051093555"><ele>358.0</ele><time>2026-04-18T13:41:09Z</time></trkpt><trkpt lat="36.951209683732415" lon="14.879902635965026"><ele>361.0</ele><time>2026-04-18T13:41:10Z</time></trkpt><trkpt lat="36.95130527752423" lon="14.879733393192769"><ele>364.0</ele><time>2026-04-18T13:41:11Z</time></trkpt><trkpt lat="36.95140520630741" lon="14.879567094911781"><ele>364.0</ele><time>2026-04-18T13:41:12Z</time></trkpt><trkpt lat="36.95150204917101" lon="14.879410599358907"><ele>364.0</ele><time>2026-04-18T13:41:13Z</time></trkpt><trkpt lat="36.95158444871043" lon="14.879269527852925"><ele>364.0</ele><time>2026-04-18T13:41:14Z</time></trkpt><trkpt lat="36.95165776217878" lon="14.879146045434094"><ele>364.0</ele><time>2026-04-18T13:41:15Z</time></trkpt><trkpt lat="36.95171265826346" lon="14.879036987671903"><ele>363.0</ele><time>2026-04-18T13:41:16Z</time></trkpt><trkpt lat="36.9517433905675" lon="14.87892009776864"><ele>362.0</ele><time>2026-04-18T13:41:17Z</time></trkpt><trkpt lat="36.95175965480762" lon="14.87877909615294"><ele>361.0</ele><time>2026-04-18T13:41:18Z</time></trkpt><trkpt lat="36.951759917113634" lon="14.878626130509046"><ele>360.0</ele><time>2026-04-18T13:41:19Z</time></trkpt><trkpt lat="36.95175259691898" lon="14.878460786932065"><ele>362.2</ele><time>2026-04-18T13:41:20Z</time></trkpt><trkpt lat="36.95174725652824" lon="14.878290181370028"><ele>364.4</ele><time>2026-04-18T13:41:21Z</time></trkpt><trkpt lat="36.951752812398986" lon="14.878154477136336"><ele>366.6</ele><time>2026-04-18T13:41:22Z</time></trkpt><trkpt lat="36.95177479045898" lon="14.878059196491582"><ele>368.8</ele><time>2026-04-18T13:41:23Z</time></trkpt><trkpt lat="36.95183734149128" lon="14.877991305185743"><ele>371.0</ele><time>2026-04-18T13:41:24Z</time></trkpt><trkpt lat="36.9518897370131" lon="14.87790186303747"><ele>371.0</ele><time>2026-04-18T13:41:25Z</time></trkpt><trkpt lat="36.951926750512555" lon="14.877801610394203"><ele>371.0</ele><time>2026-04-18T13:41:26Z</time></trkpt><trkpt lat="36.95195663555879" lon="14.877701848352597"><ele>371.0</ele><time>2026-04-18T13:41:27Z</time></trkpt><trkpt lat="36.951975700075245" lon="14.877570938461385"><ele>371.0</ele><time>2026-04-18T13:41:28Z</time></trkpt><trkpt lat="36.95198521212591" lon="14.877399166162263"><ele>371.0</ele><time>2026-04-18T13:41:29Z</time></trkpt><trkpt lat="36.95200584274171" lon="14.877186307120924"><ele>371.33333333333337</ele><time>2026-04-18T13:41:30Z</time></trkpt><trkpt lat="36.95203660864686" lon="14.876965961316408"><ele>371.6666666666667</ele><time>2026-04-18T13:41:31Z</time></trkpt><trkpt lat="36.952069900424966" lon="14.876778303887566"><ele>372.0</ele><time>2026-04-18T13:41:32Z</time></trkpt><trkpt lat="36.952115304540406" lon="14.876615463572215"><ele>372.0</ele><time>2026-04-18T13:41:33Z</time></trkpt><trkpt lat="36.95217375877547" lon="14.876452037948718"><ele>372.0</ele><time>2026-04-18T13:41:34Z</time></trkpt><trkpt lat="36.9522443738436" lon="14.876294666740701"><ele>372.0</ele><time>2026-04-18T13:41:35Z</time></trkpt><trkpt lat="36.95232236720708" lon="14.876141165975922"><ele>372.0</ele><time>2026-04-18T13:41:36Z</time></trkpt><trkpt lat="36.95240136484283" lon="14.875978966725388"><ele>371.75</ele><time>2026-04-18T13:41:36.999Z</time></trkpt><trkpt lat="36.952477026075286" lon="14.875823936607018"><ele>371.5</ele><time>2026-04-18T13:41:37.999Z</time></trkpt><trkpt lat="36.95254268213375" lon="14.875692995416912"><ele>371.25</ele><time>2026-04-18T13:41:38.999Z</time></trkpt><trkpt lat="36.952607077990926" lon="14.875586314880106"><ele>371.0</ele><time>2026-04-18T13:41:39.999Z</time></trkpt><trkpt lat="36.952674102748766" lon="14.875496510434395"><ele>371.0</ele><time>2026-04-18T13:41:40.999Z</time></trkpt><trkpt lat="36.952745223037304" lon="14.875418065547526"><ele>371.0</ele><time>2026-04-18T13:41:41.999Z</time></trkpt><trkpt lat="36.95283798879348" lon="14.875346865173919"><ele>371.0</ele><time>2026-04-18T13:41:42.999Z</time></trkpt><trkpt lat="36.95294336673504" lon="14.875266275749905"><ele>371.0</ele><time>2026-04-18T13:41:43.999Z</time></trkpt><trkpt lat="36.95304427833944" lon="14.875180147216856"><ele>371.0</ele><time>2026-04-18T13:41:44.999Z</time></trkpt><trkpt lat="36.953135171568114" lon="14.87509181307687"><ele>372.5</ele><time>2026-04-18T13:41:45.999Z</time></trkpt><trkpt lat="36.95321032229351" lon="14.874993737073515"><ele>374.0</ele><time>2026-04-18T13:41:46.999Z</time></trkpt><trkpt lat="36.95327620325876" lon="14.874874898528876"><ele>375.5</ele><time>2026-04-18T13:41:48Z</time></trkpt><trkpt lat="36.95333540777824" lon="14.874737584239535"><ele>377.0</ele><time>2026-04-18T13:41:48.999Z</time></trkpt><trkpt lat="36.95338904045736" lon="14.874585600070427"><ele>375.75</ele><time>2026-04-18T13:41:50Z</time></trkpt><trkpt lat="36.953442181300964" lon="14.874420108252867"><ele>374.5</ele><time>2026-04-18T13:41:51Z</time></trkpt><trkpt lat="36.953495810486864" lon="14.87424908146871"><ele>373.25</ele><time>2026-04-18T13:41:52Z</time></trkpt><trkpt lat="36.95355337809658" lon="14.874067556802833"><ele>372.0</ele><time>2026-04-18T13:41:53Z</time></trkpt><trkpt lat="36.95361299945156" lon="14.873883436683885"><ele>372.0</ele><time>2026-04-18T13:41:54Z</time></trkpt><trkpt lat="36.95367163117769" lon="14.873703727348733"><ele>372.0</ele><time>2026-04-18T13:41:55Z</time></trkpt><trkpt lat="36.953729794858205" lon="14.873531317039332"><ele>372.0</ele><time>2026-04-18T13:41:56Z</time></trkpt><trkpt lat="36.953791401985065" lon="14.87335038070195"><ele>373.25</ele><time>2026-04-18T13:41:57Z</time></trkpt><trkpt lat="36.95385652439051" lon="14.873177814223785"><ele>374.5</ele><time>2026-04-18T13:41:58Z</time></trkpt><trkpt lat="36.953920886839576" lon="14.87303076331892"><ele>375.75</ele><time>2026-04-18T13:41:59Z</time></trkpt><trkpt lat="36.95398011030065" lon="14.872899738838735"><ele>377.0</ele><time>2026-04-18T13:42:00Z</time></trkpt><trkpt lat="36.954030668806084" lon="14.872803617218606"><ele>377.0</ele><time>2026-04-18T13:42:01Z</time></trkpt><trkpt lat="36.95410379818733" lon="14.872760650420908"><ele>377.0</ele><time>2026-04-18T13:42:02Z</time></trkpt><trkpt lat="36.954172745106305" lon="14.872725180853962"><ele>377.0</ele><time>2026-04-18T13:42:03Z</time></trkpt><trkpt lat="36.95426325992414" lon="14.872705630176277"><ele>377.0</ele><time>2026-04-18T13:42:04Z</time></trkpt><trkpt lat="36.954397197318066" lon="14.872658500134412"><ele>377.0</ele><time>2026-04-18T13:42:05Z</time></trkpt><trkpt lat="36.95456048159033" lon="14.87255852869658"><ele>375.0</ele><time>2026-04-18T13:42:06Z</time></trkpt><trkpt lat="36.95472561157439" lon="14.872436048285463"><ele>373.0</ele><time>2026-04-18T13:42:07Z</time></trkpt><trkpt lat="36.95488944251374" lon="14.872321934261178"><ele>371.0</ele><time>2026-04-18T13:42:08Z</time></trkpt><trkpt lat="36.95505995483308" lon="14.872196368184602"><ele>369.6666666666667</ele><time>2026-04-18T13:42:09Z</time></trkpt><trkpt lat="36.955242359218396" lon="14.872068319719258"><ele>368.3333333333333</ele><time>2026-04-18T13:42:10Z</time></trkpt><trkpt lat="36.95540660508926" lon="14.871952867989643"><ele>367.0</ele><time>2026-04-18T13:42:11Z</time></trkpt><trkpt lat="36.955537014758626" lon="14.871852674851446"><ele>369.75</ele><time>2026-04-18T13:42:12Z</time></trkpt><trkpt lat="36.95566270498612" lon="14.871742112916278"><ele>372.5</ele><time>2026-04-18T13:42:13Z</time></trkpt><trkpt lat="36.95578195433255" lon="14.871637125473844"><ele>375.25</ele><time>2026-04-18T13:42:14Z</time></trkpt><trkpt lat="36.95589724830951" lon="14.871533563915296"><ele>378.0</ele><time>2026-04-18T13:42:15Z</time></trkpt><trkpt lat="36.95601361961295" lon="14.871425644459213"><ele>378.0</ele><time>2026-04-18T13:42:16Z</time></trkpt><trkpt lat="36.95612966059592" lon="14.871313773039013"><ele>378.0</ele><time>2026-04-18T13:42:17Z</time></trkpt><trkpt lat="36.956238572866546" lon="14.87119864197617"><ele>378.0</ele><time>2026-04-18T13:42:18Z</time></trkpt><trkpt lat="36.95633363551264" lon="14.87108862767972"><ele>378.0</ele><time>2026-04-18T13:42:19Z</time></trkpt><trkpt lat="36.9564164430886" lon="14.870975726212956"><ele>379.5</ele><time>2026-04-18T13:42:20Z</time></trkpt><trkpt lat="36.95647972387922" lon="14.870853160346451"><ele>381.0</ele><time>2026-04-18T13:42:21Z</time></trkpt><trkpt lat="36.956526675297546" lon="14.870710023979909"><ele>382.5</ele><time>2026-04-18T13:42:22Z</time></trkpt><trkpt lat="36.95655995574572" lon="14.870550969223277"><ele>384.0</ele><time>2026-04-18T13:42:23Z</time></trkpt><trkpt lat="36.956588325492795" lon="14.870380941960098"><ele>384.0</ele><time>2026-04-18T13:42:24Z</time></trkpt><trkpt lat="36.956616588820296" lon="14.870198400098465"><ele>384.0</ele><time>2026-04-18T13:42:25Z</time></trkpt><trkpt lat="36.956651028113654" lon="14.87001126339914"><ele>384.0</ele><time>2026-04-18T13:42:26Z</time></trkpt><trkpt lat="36.956684595543514" lon="14.869852421872872"><ele>384.0</ele><time>2026-04-18T13:42:27Z</time></trkpt><trkpt lat="36.95672420110131" lon="14.86971792957366"><ele>385.0</ele><time>2026-04-18T13:42:28Z</time></trkpt><trkpt lat="36.9567660175477" lon="14.86960821819412"><ele>386.0</ele><time>2026-04-18T13:42:29Z</time></trkpt><trkpt lat="36.95682916628262" lon="14.869535918942107"><ele>387.0</ele><time>2026-04-18T13:42:30Z</time></trkpt><trkpt lat="36.956883794446235" lon="14.869437167249243"><ele>388.0</ele><time>2026-04-18T13:42:31Z</time></trkpt><trkpt lat="36.95695982210831" lon="14.869335702738674"><ele>389.0</ele><time>2026-04-18T13:42:32Z</time></trkpt><trkpt lat="36.957033150303594" lon="14.86922674891614"><ele>389.2</ele><time>2026-04-18T13:42:33Z</time></trkpt><trkpt lat="36.957086685377625" lon="14.8691259458325"><ele>389.4</ele><time>2026-04-18T13:42:34Z</time></trkpt><trkpt lat="36.9571284805736" lon="14.869010293394682"><ele>389.6</ele><time>2026-04-18T13:42:35Z</time></trkpt><trkpt lat="36.95714879437162" lon="14.868895229262767"><ele>389.8</ele><time>2026-04-18T13:42:36Z</time></trkpt><trkpt lat="36.957150738997655" lon="14.8687871552438"><ele>390.0</ele><time>2026-04-18T13:42:37Z</time></trkpt><trkpt lat="36.95713080425966" lon="14.868689452318725"><ele>390.0</ele><time>2026-04-18T13:42:38Z</time></trkpt><trkpt lat="36.95709527712057" lon="14.868581905599234"><ele>390.0</ele><time>2026-04-18T13:42:39Z</time></trkpt><trkpt lat="36.957043484899835" lon="14.868485760863734"><ele>390.0</ele><time>2026-04-18T13:42:40Z</time></trkpt><trkpt lat="36.95698488877101" lon="14.868396456016582"><ele>390.0</ele><time>2026-04-18T13:42:41Z</time></trkpt><trkpt lat="36.95693274474918" lon="14.86829953726109"><ele>390.0</ele><time>2026-04-18T13:42:42Z</time></trkpt><trkpt lat="36.956900060664985" lon="14.86819788215836"><ele>390.5</ele><time>2026-04-18T13:42:43Z</time></trkpt><trkpt lat="36.95688537024169" lon="14.868099547782846"><ele>391.0</ele><time>2026-04-18T13:42:44Z</time></trkpt><trkpt lat="36.956889154742456" lon="14.868005777088987"><ele>391.5</ele><time>2026-04-18T13:42:45Z</time></trkpt><trkpt lat="36.95691336498217" lon="14.867919192225257"><ele>392.0</ele><time>2026-04-18T13:42:46Z</time></trkpt><trkpt lat="36.95695340690417" lon="14.867819756580252"><ele>392.5</ele><time>2026-04-18T13:42:47Z</time></trkpt><trkpt lat="36.95701295016508" lon="14.867698224013122"><ele>393.0</ele><time>2026-04-18T13:42:48Z</time></trkpt><trkpt lat="36.95709022094015" lon="14.867567764473582"><ele>393.25</ele><time>2026-04-18T13:42:49Z</time></trkpt><trkpt lat="36.95717552900024" lon="14.867448985483067"><ele>393.5</ele><time>2026-04-18T13:42:50Z</time></trkpt><trkpt lat="36.95726087348992" lon="14.867352588128272"><ele>393.75</ele><time>2026-04-18T13:42:51Z</time></trkpt><trkpt lat="36.957353170255814" lon="14.86726706350192"><ele>394.0</ele><time>2026-04-18T13:42:52Z</time></trkpt><trkpt lat="36.957452729488175" lon="14.86718164265345"><ele>394.50000000000006</ele><time>2026-04-18T13:42:53Z</time></trkpt><trkpt lat="36.95753659439296" lon="14.867112608087027"><ele>395.0</ele><time>2026-04-18T13:42:54Z</time></trkpt><trkpt lat="36.95759818490309" lon="14.867050386521948"><ele>395.5</ele><time>2026-04-18T13:42:55Z</time></trkpt><trkpt lat="36.957648847689214" lon="14.866979886120319"><ele>396.0</ele><time>2026-04-18T13:42:56Z</time></trkpt><trkpt lat="36.95768278525994" lon="14.866898281417145"><ele>396.50000000000006</ele><time>2026-04-18T13:42:57Z</time></trkpt><trkpt lat="36.95770236864897" lon="14.866800996493607"><ele>397.0</ele><time>2026-04-18T13:42:58Z</time></trkpt><trkpt lat="36.95771449870764" lon="14.866678860907342"><ele>397.0</ele><time>2026-04-18T13:42:59Z</time></trkpt><trkpt lat="36.95771587778168" lon="14.866539390188954"><ele>397.0</ele><time>2026-04-18T13:43:00Z</time></trkpt><trkpt lat="36.95770941109933" lon="14.866365592503751"><ele>397.0</ele><time>2026-04-18T13:43:01Z</time></trkpt><trkpt lat="36.95770175630753" lon="14.86613203422264"><ele>397.0</ele><time>2026-04-18T13:43:02Z</time></trkpt><trkpt lat="36.95769430695366" lon="14.865849645345332"><ele>394.6666666666667</ele><time>2026-04-18T13:43:03Z</time></trkpt><trkpt lat="36.957692926132594" lon="14.865570983827105"><ele>392.33333333333337</ele><time>2026-04-18T13:43:04Z</time></trkpt><trkpt lat="36.95769625865403" lon="14.865346340941942"><ele>390.0</ele><time>2026-04-18T13:43:05Z</time></trkpt><trkpt lat="36.95769660258521" lon="14.865149629847506"><ele>389.4</ele><time>2026-04-18T13:43:06Z</time></trkpt><trkpt lat="36.95769339335659" lon="14.864974842103072"><ele>388.8</ele><time>2026-04-18T13:43:07Z</time></trkpt><trkpt lat="36.95768591197515" lon="14.864829365350912"><ele>388.20000000000005</ele><time>2026-04-18T13:43:08Z</time></trkpt><trkpt lat="36.957674529111884" lon="14.86470830664561"><ele>387.6</ele><time>2026-04-18T13:43:09Z</time></trkpt><trkpt lat="36.957649633019415" lon="14.86459905205305"><ele>387.0</ele><time>2026-04-18T13:43:10Z</time></trkpt><trkpt lat="36.95760558158579" lon="14.864484131043474"><ele>387.0</ele><time>2026-04-18T13:43:11Z</time></trkpt><trkpt lat="36.95753847306274" lon="14.864361560224705"><ele>387.0</ele><time>2026-04-18T13:43:12Z</time></trkpt><trkpt lat="36.95744554600092" lon="14.86421368645366"><ele>387.0</ele><time>2026-04-18T13:43:13Z</time></trkpt><trkpt lat="36.95734485240214" lon="14.864040405719134"><ele>387.0</ele><time>2026-04-18T13:43:14Z</time></trkpt><trkpt lat="36.95726892287837" lon="14.863888059533403"><ele>387.40000000000003</ele><time>2026-04-18T13:43:15Z</time></trkpt><trkpt lat="36.957216758630274" lon="14.863734990516821"><ele>387.8</ele><time>2026-04-18T13:43:16Z</time></trkpt><trkpt lat="36.95717283412163" lon="14.863580547103473"><ele>388.2</ele><time>2026-04-18T13:43:17Z</time></trkpt><trkpt lat="36.957145411785575" lon="14.86345970236187"><ele>388.6</ele><time>2026-04-18T13:43:18Z</time></trkpt><trkpt lat="36.957139446502424" lon="14.863353428061888"><ele>389.0</ele><time>2026-04-18T13:43:19Z</time></trkpt><trkpt lat="36.95715281786657" lon="14.863254462087935"><ele>389.0</ele><time>2026-04-18T13:43:20Z</time></trkpt><trkpt lat="36.95718682324813" lon="14.863166618426382"><ele>389.0</ele><time>2026-04-18T13:43:21Z</time></trkpt><trkpt lat="36.95724272451634" lon="14.863072711233304"><ele>389.0</ele><time>2026-04-18T13:43:22Z</time></trkpt><trkpt lat="36.95732254512068" lon="14.86297046211296"><ele>389.0</ele><time>2026-04-18T13:43:23Z</time></trkpt><trkpt lat="36.95740235779359" lon="14.86287552327147"><ele>389.0</ele><time>2026-04-18T13:43:24Z</time></trkpt><trkpt lat="36.95746068744926" lon="14.86278372723121"><ele>389.0</ele><time>2026-04-18T13:43:25Z</time></trkpt><trkpt lat="36.9574871270059" lon="14.862680887910393"><ele>389.0</ele><time>2026-04-18T13:43:26Z</time></trkpt><trkpt lat="36.957499671333515" lon="14.862566823878556"><ele>389.0</ele><time>2026-04-18T13:43:27Z</time></trkpt><trkpt lat="36.957504804400706" lon="14.862432280195522"><ele>389.0</ele><time>2026-04-18T13:43:28Z</time></trkpt><trkpt lat="36.957511731391655" lon="14.862278563804653"><ele>389.0</ele><time>2026-04-18T13:43:29Z</time></trkpt><trkpt lat="36.957527702874394" lon="14.862133763299143"><ele>391.25</ele><time>2026-04-18T13:43:30Z</time></trkpt><trkpt lat="36.957592645323274" lon="14.861996956727035"><ele>393.5</ele><time>2026-04-18T13:43:31Z</time></trkpt><trkpt lat="36.957619520800534" lon="14.861829389504317"><ele>395.75</ele><time>2026-04-18T13:43:32Z</time></trkpt><trkpt lat="36.9576484560601" lon="14.86168461200181"><ele>398.0</ele><time>2026-04-18T13:43:33Z</time></trkpt><trkpt lat="36.95764527873576" lon="14.861554193644984"><ele>398.0</ele><time>2026-04-18T13:43:34Z</time></trkpt><trkpt lat="36.957618837961874" lon="14.861401338781524"><ele>398.0</ele><time>2026-04-18T13:43:35Z</time></trkpt><trkpt lat="36.957586837204175" lon="14.861209073044137"><ele>398.0</ele><time>2026-04-18T13:43:36Z</time></trkpt><trkpt lat="36.95756999681949" lon="14.860983050052763"><ele>400.66666666666663</ele><time>2026-04-18T13:43:37Z</time></trkpt><trkpt lat="36.95756989596094" lon="14.86076532314401"><ele>403.33333333333337</ele><time>2026-04-18T13:43:38Z</time></trkpt><trkpt lat="36.95758114049534" lon="14.860575840365533"><ele>406.0</ele><time>2026-04-18T13:43:39Z</time></trkpt><trkpt lat="36.957593407818926" lon="14.860410969420714"><ele>406.0</ele><time>2026-04-18T13:43:40Z</time></trkpt><trkpt lat="36.95761292947356" lon="14.860240300313379"><ele>406.0</ele><time>2026-04-18T13:43:41Z</time></trkpt><trkpt lat="36.95764943247279" lon="14.860044035787267"><ele>406.0</ele><time>2026-04-18T13:43:42Z</time></trkpt><trkpt lat="36.95769835671195" lon="14.859814881435472"><ele>405.33333333333337</ele><time>2026-04-18T13:43:43Z</time></trkpt><trkpt lat="36.95775256994892" lon="14.859549129004302"><ele>404.66666666666663</ele><time>2026-04-18T13:43:44Z</time></trkpt><trkpt lat="36.957799800508916" lon="14.859303613995372"><ele>404.0</ele><time>2026-04-18T13:43:45Z</time></trkpt><trkpt lat="36.957838532567926" lon="14.859077296002825"><ele>402.0</ele><time>2026-04-18T13:43:46Z</time></trkpt><trkpt lat="36.9578742531943" lon="14.858871152076587"><ele>400.0</ele><time>2026-04-18T13:43:47Z</time></trkpt><trkpt lat="36.9579116483352" lon="14.858665849463284"><ele>398.0</ele><time>2026-04-18T13:43:48Z</time></trkpt><trkpt lat="36.95795014402497" lon="14.858456673522891"><ele>398.66666666666663</ele><time>2026-04-18T13:43:49Z</time></trkpt><trkpt lat="36.95798739568567" lon="14.858251683164974"><ele>399.33333333333337</ele><time>2026-04-18T13:43:50Z</time></trkpt><trkpt lat="36.95802703628995" lon="14.858048351402712"><ele>400.0</ele><time>2026-04-18T13:43:51Z</time></trkpt><trkpt lat="36.95806679159342" lon="14.857844297921629"><ele>400.0</ele><time>2026-04-18T13:43:52Z</time></trkpt><trkpt lat="36.95810765279377" lon="14.857647185506822"><ele>400.0</ele><time>2026-04-18T13:43:53Z</time></trkpt><trkpt lat="36.958153039406454" lon="14.857450804326295"><ele>400.0</ele><time>2026-04-18T13:43:54Z</time></trkpt><trkpt lat="36.95820039686737" lon="14.85728142016689"><ele>400.0</ele><time>2026-04-18T13:43:55Z</time></trkpt><trkpt lat="36.95827317952603" lon="14.85717101835419"><ele>400.0</ele><time>2026-04-18T13:43:56Z</time></trkpt><trkpt lat="36.95834761208921" lon="14.857048198095491"><ele>400.0</ele><time>2026-04-18T13:43:57Z</time></trkpt><trkpt lat="36.95843425247318" lon="14.85688971743046"><ele>400.0</ele><time>2026-04-18T13:43:58Z</time></trkpt><trkpt lat="36.95855166297994" lon="14.856730223527853"><ele>403.6666666666667</ele><time>2026-04-18T13:43:59Z</time></trkpt><trkpt lat="36.95867117486369" lon="14.856554522769546"><ele>407.33333333333337</ele><time>2026-04-18T13:44:00Z</time></trkpt><trkpt lat="36.95879760751939" lon="14.856375615100674"><ele>411.0</ele><time>2026-04-18T13:44:01Z</time></trkpt><trkpt lat="36.95893021765963" lon="14.856189230346628"><ele>411.0</ele><time>2026-04-18T13:44:02Z</time></trkpt><trkpt lat="36.9590705932965" lon="14.856026818022539"><ele>411.0</ele><time>2026-04-18T13:44:03Z</time></trkpt><trkpt lat="36.959170326991774" lon="14.855855303606164"><ele>411.0</ele><time>2026-04-18T13:44:04Z</time></trkpt><trkpt lat="36.95927290857856" lon="14.855708218064496"><ele>414.75</ele><time>2026-04-18T13:44:05Z</time></trkpt><trkpt lat="36.95936679675451" lon="14.855561461815455"><ele>418.5</ele><time>2026-04-18T13:44:06Z</time></trkpt><trkpt lat="36.9594520732998" lon="14.855421388386272"><ele>422.25</ele><time>2026-04-18T13:44:07Z</time></trkpt><trkpt lat="36.95952582703882" lon="14.855285902586497"><ele>426.0</ele><time>2026-04-18T13:44:08Z</time></trkpt><trkpt lat="36.959584811314464" lon="14.855143509064021"><ele>425.4</ele><time>2026-04-18T13:44:09Z</time></trkpt><trkpt lat="36.9596357098676" lon="14.854993388681367"><ele>424.8</ele><time>2026-04-18T13:44:10Z</time></trkpt><trkpt lat="36.95967830754588" lon="14.854856979852206"><ele>424.2</ele><time>2026-04-18T13:44:11Z</time></trkpt><trkpt lat="36.95971158375557" lon="14.85473812153309"><ele>423.59999999999997</ele><time>2026-04-18T13:44:12Z</time></trkpt><trkpt lat="36.95973058946828" lon="14.854618822305415"><ele>423.0</ele><time>2026-04-18T13:44:13Z</time></trkpt><trkpt lat="36.95972497076138" lon="14.854515901357253"><ele>423.0</ele><time>2026-04-18T13:44:14Z</time></trkpt><trkpt lat="36.959694455725085" lon="14.854417627210251"><ele>423.0</ele><time>2026-04-18T13:44:15Z</time></trkpt><trkpt lat="36.95964214631994" lon="14.854316035457314"><ele>423.0</ele><time>2026-04-18T13:44:16Z</time></trkpt><trkpt lat="36.95956976097823" lon="14.854210798632794"><ele>423.0</ele><time>2026-04-18T13:44:17Z</time></trkpt><trkpt lat="36.95948029863571" lon="14.854109715733246"><ele>423.0</ele><time>2026-04-18T13:44:18Z</time></trkpt><trkpt lat="36.9593760231418" lon="14.85399393329459"><ele>423.0</ele><time>2026-04-18T13:44:19Z</time></trkpt><trkpt lat="36.95927137174222" lon="14.853862820251019"><ele>423.0</ele><time>2026-04-18T13:44:20Z</time></trkpt><trkpt lat="36.9591874433146" lon="14.853744427072295"><ele>423.0</ele><time>2026-04-18T13:44:21Z</time></trkpt><trkpt lat="36.95911921125104" lon="14.853645995326973"><ele>423.0</ele><time>2026-04-18T13:44:22Z</time></trkpt><trkpt lat="36.95905657695541" lon="14.853577247019453"><ele>422.8333333333333</ele><time>2026-04-18T13:44:23Z</time></trkpt><trkpt lat="36.9589890531173" lon="14.853538312208315"><ele>422.66666666666663</ele><time>2026-04-18T13:44:24Z</time></trkpt><trkpt lat="36.95891126070244" lon="14.853526408371252"><ele>422.5</ele><time>2026-04-18T13:44:25Z</time></trkpt><trkpt lat="36.9588292895652" lon="14.853548233265979"><ele>422.3333333333333</ele><time>2026-04-18T13:44:26Z</time></trkpt><trkpt lat="36.958749163389804" lon="14.853594950768043"><ele>422.16666666666663</ele><time>2026-04-18T13:44:27Z</time></trkpt><trkpt lat="36.958662487022934" lon="14.853666517386412"><ele>422.0</ele><time>2026-04-18T13:44:28Z</time></trkpt><trkpt lat="36.958561857410835" lon="14.853764241422178"><ele>422.0</ele><time>2026-04-18T13:44:29Z</time></trkpt><trkpt lat="36.958439386851666" lon="14.853882023429255"><ele>422.0</ele><time>2026-04-18T13:44:30Z</time></trkpt><trkpt lat="36.958303288506585" lon="14.853993229573215"><ele>422.0</ele><time>2026-04-18T13:44:31Z</time></trkpt><trkpt lat="36.95818392725023" lon="14.854089549200763"><ele>422.16666666666663</ele><time>2026-04-18T13:44:32Z</time></trkpt><trkpt lat="36.958092138793454" lon="14.854164860846602"><ele>422.3333333333333</ele><time>2026-04-18T13:44:33Z</time></trkpt><trkpt lat="36.95801718332273" lon="14.85421868190103"><ele>422.5</ele><time>2026-04-18T13:44:34Z</time></trkpt><trkpt lat="36.95794816189942" lon="14.854244991527231"><ele>422.66666666666663</ele><time>2026-04-18T13:44:35Z</time></trkpt><trkpt lat="36.957874808770086" lon="14.854244558349338"><ele>422.8333333333333</ele><time>2026-04-18T13:44:36Z</time></trkpt><trkpt lat="36.95780128227964" lon="14.854218339023607"><ele>423.0</ele><time>2026-04-18T13:44:37Z</time></trkpt><trkpt lat="36.95773567421812" lon="14.854168102613421"><ele>423.0</ele><time>2026-04-18T13:44:38Z</time></trkpt><trkpt lat="36.95768912648869" lon="14.854101171686"><ele>423.0</ele><time>2026-04-18T13:44:39Z</time></trkpt><trkpt lat="36.957654709086874" lon="14.854018544296668"><ele>423.0</ele><time>2026-04-18T13:44:40Z</time></trkpt><trkpt lat="36.95763527874465" lon="14.853923346018929"><ele>423.0</ele><time>2026-04-18T13:44:41Z</time></trkpt><trkpt lat="36.9576201490876" lon="14.853804181721332"><ele>423.0</ele><time>2026-04-18T13:44:42Z</time></trkpt><trkpt lat="36.95760195230039" lon="14.853643189690287"><ele>426.0</ele><time>2026-04-18T13:44:43Z</time></trkpt><trkpt lat="36.95758499298526" lon="14.853449940160566"><ele>429.0</ele><time>2026-04-18T13:44:44Z</time></trkpt><trkpt lat="36.95757084348923" lon="14.853264177210908"><ele>432.0</ele><time>2026-04-18T13:44:45Z</time></trkpt><trkpt lat="36.95756159902527" lon="14.853097770355431"><ele>435.0</ele><time>2026-04-18T13:44:46Z</time></trkpt><trkpt lat="36.95755971081273" lon="14.852952918739724"><ele>435.0</ele><time>2026-04-18T13:44:47Z</time></trkpt><trkpt lat="36.95757337303822" lon="14.852835176959765"><ele>435.0</ele><time>2026-04-18T13:44:48Z</time></trkpt><trkpt lat="36.957605088631624" lon="14.852742132184828"><ele>435.0</ele><time>2026-04-18T13:44:49Z</time></trkpt><trkpt lat="36.95765679835516" lon="14.852647838652187"><ele>435.0</ele><time>2026-04-18T13:44:50Z</time></trkpt><trkpt lat="36.9577319301393" lon="14.852534728175202"><ele>435.0</ele><time>2026-04-18T13:44:51Z</time></trkpt><trkpt lat="36.95780797475351" lon="14.852418633549764"><ele>436.6</ele><time>2026-04-18T13:44:52Z</time></trkpt><trkpt lat="36.95785196079084" lon="14.85230406124884"><ele>438.2</ele><time>2026-04-18T13:44:53Z</time></trkpt><trkpt lat="36.957863352462" lon="14.852191633913982"><ele>439.79999999999995</ele><time>2026-04-18T13:44:54Z</time></trkpt><trkpt lat="36.95784723580905" lon="14.852078277752305"><ele>441.4</ele><time>2026-04-18T13:44:55Z</time></trkpt><trkpt lat="36.957812585756805" lon="14.851944594326584"><ele>443.0</ele><time>2026-04-18T13:44:56Z</time></trkpt><trkpt lat="36.9577702251588" lon="14.851780530553"><ele>443.75</ele><time>2026-04-18T13:44:57Z</time></trkpt><trkpt lat="36.9577474544261" lon="14.851623880584206"><ele>444.5</ele><time>2026-04-18T13:44:58Z</time></trkpt><trkpt lat="36.9577500389377" lon="14.851472461786473"><ele>445.25</ele><time>2026-04-18T13:44:59Z</time></trkpt><trkpt lat="36.957770562788546" lon="14.851331745599529"><ele>446.0</ele><time>2026-04-18T13:45:00Z</time></trkpt><trkpt lat="36.95780618870946" lon="14.851161914825799"><ele>445.3333333333333</ele><time>2026-04-18T13:45:01Z</time></trkpt><trkpt lat="36.9578520865722" lon="14.850949137289687"><ele>444.66666666666663</ele><time>2026-04-18T13:45:02Z</time></trkpt><trkpt lat="36.95789964908819" lon="14.850718714094153"><ele>444.0</ele><time>2026-04-18T13:45:03Z</time></trkpt><trkpt lat="36.95794898104703" lon="14.850494388934298"><ele>444.0</ele><time>2026-04-18T13:45:04Z</time></trkpt><trkpt lat="36.95799263056944" lon="14.850271891899943"><ele>444.0</ele><time>2026-04-18T13:45:05Z</time></trkpt><trkpt lat="36.958026382144425" lon="14.850069026927745"><ele>444.0</ele><time>2026-04-18T13:45:06Z</time></trkpt><trkpt lat="36.95805158259479" lon="14.849881288482715"><ele>444.5</ele><time>2026-04-18T13:45:07Z</time></trkpt><trkpt lat="36.958070981842226" lon="14.849700395293212"><ele>445.0</ele><time>2026-04-18T13:45:08Z</time></trkpt><trkpt lat="36.95809036377158" lon="14.84952083531154"><ele>445.5</ele><time>2026-04-18T13:45:09Z</time></trkpt><trkpt lat="36.958112304116405" lon="14.84934026146968"><ele>446.0</ele><time>2026-04-18T13:45:10Z</time></trkpt><trkpt lat="36.958135876169564" lon="14.849157019149212"><ele>447.75</ele><time>2026-04-18T13:45:11Z</time></trkpt><trkpt lat="36.95816056872864" lon="14.848975815734471"><ele>449.5</ele><time>2026-04-18T13:45:12Z</time></trkpt><trkpt lat="36.95819097413634" lon="14.848794236003076"><ele>451.25</ele><time>2026-04-18T13:45:13Z</time></trkpt><trkpt lat="36.958226614605444" lon="14.848612103275766"><ele>453.0</ele><time>2026-04-18T13:45:14Z</time></trkpt><trkpt lat="36.958264608872575" lon="14.848430637305377"><ele>453.75</ele><time>2026-04-18T13:45:15Z</time></trkpt><trkpt lat="36.95830115673023" lon="14.848270565801025"><ele>454.5</ele><time>2026-04-18T13:45:16Z</time></trkpt><trkpt lat="36.95833606055218" lon="14.848140593204933"><ele>455.25</ele><time>2026-04-18T13:45:17Z</time></trkpt><trkpt lat="36.958378294548105" lon="14.848022765075946"><ele>456.0</ele><time>2026-04-18T13:45:18Z</time></trkpt><trkpt lat="36.958429439348606" lon="14.847909354694428"><ele>457.0</ele><time>2026-04-18T13:45:19Z</time></trkpt><trkpt lat="36.95849339654736" lon="14.84780482001732"><ele>458.0</ele><time>2026-04-18T13:45:20Z</time></trkpt><trkpt lat="36.95856885631351" lon="14.84769215039374"><ele>459.0</ele><time>2026-04-18T13:45:21Z</time></trkpt><trkpt lat="36.95865268309314" lon="14.847569615655502"><ele>460.0</ele><time>2026-04-18T13:45:22Z</time></trkpt><trkpt lat="36.95873926615669" lon="14.847450668511225"><ele>458.4</ele><time>2026-04-18T13:45:23Z</time></trkpt><trkpt lat="36.95881790486213" lon="14.847350192207568"><ele>456.8</ele><time>2026-04-18T13:45:24Z</time></trkpt><trkpt lat="36.958887735036605" lon="14.847265479992014"><ele>455.20000000000005</ele><time>2026-04-18T13:45:25Z</time></trkpt><trkpt lat="36.9589553431123" lon="14.8471853940331"><ele>453.6</ele><time>2026-04-18T13:45:26Z</time></trkpt><trkpt lat="36.95901724103383" lon="14.847115078377831"><ele>452.0</ele><time>2026-04-18T13:45:27Z</time></trkpt><trkpt lat="36.95907332031417" lon="14.847046859309721"><ele>451.99999999999994</ele><time>2026-04-18T13:45:28Z</time></trkpt><trkpt lat="36.95911802801365" lon="14.846981802645665"><ele>452.0</ele><time>2026-04-18T13:45:29Z</time></trkpt><trkpt lat="36.95915067993868" lon="14.846908496311789"><ele>452.0</ele><time>2026-04-18T13:45:30Z</time></trkpt><trkpt lat="36.95916881307127" lon="14.846821009552915"><ele>452.0</ele><time>2026-04-18T13:45:31Z</time></trkpt><trkpt lat="36.95917543650617" lon="14.846722179755938"><ele>451.99999999999994</ele><time>2026-04-18T13:45:32Z</time></trkpt><trkpt lat="36.959176941266996" lon="14.846585932387312"><ele>452.0</ele><time>2026-04-18T13:45:33Z</time></trkpt><trkpt lat="36.95917300294314" lon="14.84642267832538"><ele>450.6</ele><time>2026-04-18T13:45:34Z</time></trkpt><trkpt lat="36.959169132170004" lon="14.846264460938697"><ele>449.20000000000005</ele><time>2026-04-18T13:45:35Z</time></trkpt><trkpt lat="36.95916836674271" lon="14.846121017121401"><ele>447.8</ele><time>2026-04-18T13:45:36Z</time></trkpt><trkpt lat="36.95917032435211" lon="14.845997586780374"><ele>446.4</ele><time>2026-04-18T13:45:37Z</time></trkpt><trkpt lat="36.95917578862509" lon="14.845905729829681"><ele>445.0</ele><time>2026-04-18T13:45:38Z</time></trkpt><trkpt lat="36.959201543500136" lon="14.84576635955715"><ele>442.2</ele><time>2026-04-18T13:45:40Z</time></trkpt><trkpt lat="36.95926351638322" lon="14.845649119322196"><ele>439.4</ele><time>2026-04-18T13:45:42Z</time></trkpt><trkpt lat="36.9593547063961" lon="14.84557746208747"><ele>436.6</ele><time>2026-04-18T13:45:44Z</time></trkpt><trkpt lat="36.959416061831504" lon="14.84555614770272"><ele>433.8</ele><time>2026-04-18T13:45:45Z</time></trkpt><trkpt lat="36.9594974954654" lon="14.845573951988115"><ele>431.0</ele><time>2026-04-18T13:45:46Z</time></trkpt><trkpt lat="36.95960641236296" lon="14.84555656077084"><ele>431.0</ele><time>2026-04-18T13:45:47Z</time></trkpt><trkpt lat="36.95974499045945" lon="14.845529781965855"><ele>431.0</ele><time>2026-04-18T13:45:48Z</time></trkpt><trkpt lat="36.959879048927576" lon="14.845481157155827"><ele>431.0</ele><time>2026-04-18T13:45:49Z</time></trkpt><trkpt lat="36.95999107937176" lon="14.845446423887962"><ele>431.0</ele><time>2026-04-18T13:45:50Z</time></trkpt><trkpt lat="36.96007261061605" lon="14.845414821959833"><ele>431.8</ele><time>2026-04-18T13:45:51Z</time></trkpt><trkpt lat="36.960137936485786" lon="14.845369073748289"><ele>432.6</ele><time>2026-04-18T13:45:52Z</time></trkpt><trkpt lat="36.96020235208006" lon="14.8452976133838"><ele>433.4</ele><time>2026-04-18T13:45:53Z</time></trkpt><trkpt lat="36.960267601358964" lon="14.845196035626914"><ele>434.2</ele><time>2026-04-18T13:45:54Z</time></trkpt><trkpt lat="36.960332543798046" lon="14.845064017485228"><ele>435.0</ele><time>2026-04-18T13:45:55Z</time></trkpt><trkpt lat="36.96040642591979" lon="14.844889510057182"><ele>433.0</ele><time>2026-04-18T13:45:56Z</time></trkpt><trkpt lat="36.96048032760644" lon="14.844694519956422"><ele>431.0</ele><time>2026-04-18T13:45:57Z</time></trkpt><trkpt lat="36.96054950039721" lon="14.844535927240091"><ele>429.0</ele><time>2026-04-18T13:45:58Z</time></trkpt><trkpt lat="36.96060961016291" lon="14.844395347631975"><ele>427.0</ele><time>2026-04-18T13:45:59Z</time></trkpt><trkpt lat="36.96066723944218" lon="14.844262967038933"><ele>425.25</ele><time>2026-04-18T13:46:00Z</time></trkpt><trkpt lat="36.96072368343509" lon="14.844132039402577"><ele>423.5</ele><time>2026-04-18T13:46:01Z</time></trkpt><trkpt lat="36.96078112780052" lon="14.843997658535402"><ele>421.75</ele><time>2026-04-18T13:46:02Z</time></trkpt><trkpt lat="36.96084964428476" lon="14.843840368143644"><ele>420.0</ele><time>2026-04-18T13:46:03Z</time></trkpt><trkpt lat="36.96091254806933" lon="14.84370165634049"><ele>420.0</ele><time>2026-04-18T13:46:04Z</time></trkpt><trkpt lat="36.960965254640996" lon="14.843578553438832"><ele>420.0</ele><time>2026-04-18T13:46:05Z</time></trkpt><trkpt lat="36.96101533229888" lon="14.84345969265547"><ele>420.0</ele><time>2026-04-18T13:46:06Z</time></trkpt><trkpt lat="36.961063104596015" lon="14.84334084643208"><ele>420.0</ele><time>2026-04-18T13:46:07Z</time></trkpt><trkpt lat="36.96111224918181" lon="14.843215441314015"><ele>420.0</ele><time>2026-04-18T13:46:08Z</time></trkpt><trkpt lat="36.961152630538066" lon="14.843096823460412"><ele>419.6</ele><time>2026-04-18T13:46:09Z</time></trkpt><trkpt lat="36.96118816599746" lon="14.842980245861531"><ele>419.2</ele><time>2026-04-18T13:46:10Z</time></trkpt><trkpt lat="36.961225890404926" lon="14.84285403157402"><ele>418.79999999999995</ele><time>2026-04-18T13:46:11Z</time></trkpt><trkpt lat="36.961257128150876" lon="14.842716206612087"><ele>418.4</ele><time>2026-04-18T13:46:12Z</time></trkpt><trkpt lat="36.96129004959374" lon="14.842566655275368"><ele>418.0</ele><time>2026-04-18T13:46:13Z</time></trkpt><trkpt lat="36.96131833230448" lon="14.842421997871938"><ele>416.75</ele><time>2026-04-18T13:46:14Z</time></trkpt><trkpt lat="36.96134425091708" lon="14.842269729100952"><ele>415.5</ele><time>2026-04-18T13:46:15Z</time></trkpt><trkpt lat="36.96136977517168" lon="14.842114256418668"><ele>414.25</ele><time>2026-04-18T13:46:16Z</time></trkpt><trkpt lat="36.96139236056672" lon="14.84196555343024"><ele>413.0</ele><time>2026-04-18T13:46:17Z</time></trkpt><trkpt lat="36.96141430208314" lon="14.841815536414192"><ele>413.0</ele><time>2026-04-18T13:46:18Z</time></trkpt><trkpt lat="36.961435525282866" lon="14.841671981605757"><ele>413.0</ele><time>2026-04-18T13:46:19Z</time></trkpt><trkpt lat="36.961452827098235" lon="14.841533671620477"><ele>413.0</ele><time>2026-04-18T13:46:20Z</time></trkpt><trkpt lat="36.96146650979746" lon="14.841390478327149"><ele>413.0</ele><time>2026-04-18T13:46:21Z</time></trkpt><trkpt lat="36.96147461241132" lon="14.841248255150319"><ele>413.0</ele><time>2026-04-18T13:46:22Z</time></trkpt><trkpt lat="36.96147815818038" lon="14.84110565810436"><ele>413.0</ele><time>2026-04-18T13:46:23Z</time></trkpt><trkpt lat="36.96147746370223" lon="14.840963890078925"><ele>413.0</ele><time>2026-04-18T13:46:24Z</time></trkpt><trkpt lat="36.96147132470431" lon="14.840816334110464"><ele>413.0</ele><time>2026-04-18T13:46:25Z</time></trkpt><trkpt lat="36.96145770200075" lon="14.840676348434899"><ele>413.2</ele><time>2026-04-18T13:46:26Z</time></trkpt><trkpt lat="36.96143790920705" lon="14.840549248737611"><ele>413.4</ele><time>2026-04-18T13:46:27Z</time></trkpt><trkpt lat="36.961412901389735" lon="14.84044420557162"><ele>413.59999999999997</ele><time>2026-04-18T13:46:28Z</time></trkpt><trkpt lat="36.96139741949753" lon="14.840353712190849"><ele>413.79999999999995</ele><time>2026-04-18T13:46:29Z</time></trkpt><trkpt lat="36.961423860248104" lon="14.840225325837766"><ele>414.0</ele><time>2026-04-18T13:46:31Z</time></trkpt><trkpt lat="36.96151353728499" lon="14.840141255269184"><ele>414.0</ele><time>2026-04-18T13:46:33Z</time></trkpt><trkpt lat="36.961576188122834" lon="14.84011312592413"><ele>414.0</ele><time>2026-04-18T13:46:34Z</time></trkpt><trkpt lat="36.961656151619486" lon="14.840092210473136"><ele>414.0</ele><time>2026-04-18T13:46:35Z</time></trkpt><trkpt lat="36.96174659744772" lon="14.840113264455805"><ele>414.0</ele><time>2026-04-18T13:46:36Z</time></trkpt><trkpt lat="36.961854303634475" lon="14.840126460745692"><ele>414.0</ele><time>2026-04-18T13:46:37Z</time></trkpt><trkpt lat="36.961999359827225" lon="14.840144378618378"><ele>413.75</ele><time>2026-04-18T13:46:38Z</time></trkpt><trkpt lat="36.96215137073179" lon="14.840163772828484"><ele>413.5</ele><time>2026-04-18T13:46:39Z</time></trkpt><trkpt lat="36.9622837702333" lon="14.840179228888605"><ele>413.25</ele><time>2026-04-18T13:46:40Z</time></trkpt><trkpt lat="36.96242132349061" lon="14.840176194434665"><ele>413.0</ele><time>2026-04-18T13:46:41Z</time></trkpt><trkpt lat="36.96255677666578" lon="14.840127566513939"><ele>413.0</ele><time>2026-04-18T13:46:42Z</time></trkpt><trkpt lat="36.962696314083324" lon="14.840093170936012"><ele>413.0</ele><time>2026-04-18T13:46:43Z</time></trkpt><trkpt lat="36.96285457254653" lon="14.84005048797151"><ele>413.0</ele><time>2026-04-18T13:46:44Z</time></trkpt><trkpt lat="36.96302373964697" lon="14.840004877023725"><ele>413.0</ele><time>2026-04-18T13:46:45Z</time></trkpt><trkpt lat="36.963181262054384" lon="14.839971237554508"><ele>413.0</ele><time>2026-04-18T13:46:46Z</time></trkpt><trkpt lat="36.96332654674048" lon="14.839954424228731"><ele>413.0</ele><time>2026-04-18T13:46:47Z</time></trkpt><trkpt lat="36.96346749671996" lon="14.839974771617454"><ele>413.0</ele><time>2026-04-18T13:46:48Z</time></trkpt><trkpt lat="36.96361517671552" lon="14.839986699257906"><ele>414.0</ele><time>2026-04-18T13:46:49Z</time></trkpt><trkpt lat="36.96378484277079" lon="14.840008050983025"><ele>415.0</ele><time>2026-04-18T13:46:50Z</time></trkpt><trkpt lat="36.963962706704955" lon="14.840035180700836"><ele>416.0</ele><time>2026-04-18T13:46:51Z</time></trkpt><trkpt lat="36.96412738647303" lon="14.84006291795196"><ele>416.75</ele><time>2026-04-18T13:46:52Z</time></trkpt><trkpt lat="36.964267131313804" lon="14.840083842628413"><ele>417.5</ele><time>2026-04-18T13:46:53Z</time></trkpt><trkpt lat="36.96439613447497" lon="14.84009820313295"><ele>418.25</ele><time>2026-04-18T13:46:54Z</time></trkpt><trkpt lat="36.9645291048704" lon="14.840099939020732"><ele>419.0</ele><time>2026-04-18T13:46:55Z</time></trkpt><trkpt lat="36.96466212188598" lon="14.840087833109989"><ele>419.0</ele><time>2026-04-18T13:46:56Z</time></trkpt><trkpt lat="36.96479604748966" lon="14.840039188369786"><ele>419.0</ele><time>2026-04-18T13:46:57Z</time></trkpt><trkpt lat="36.96493381545778" lon="14.83999945499423"><ele>419.0</ele><time>2026-04-18T13:46:58Z</time></trkpt><trkpt lat="36.96508797624658" lon="14.839952170502947"><ele>419.0</ele><time>2026-04-18T13:46:59Z</time></trkpt><trkpt lat="36.96526812559221" lon="14.839888301977902"><ele>419.3333333333333</ele><time>2026-04-18T13:47:00Z</time></trkpt><trkpt lat="36.965469815482436" lon="14.839825439546404"><ele>419.66666666666663</ele><time>2026-04-18T13:47:01Z</time></trkpt><trkpt lat="36.96568596356261" lon="14.83977377705011"><ele>420.0</ele><time>2026-04-18T13:47:02Z</time></trkpt><trkpt lat="36.96592465711066" lon="14.839731194726676"><ele>421.0</ele><time>2026-04-18T13:47:03Z</time></trkpt><trkpt lat="36.96618727192613" lon="14.839709409110787"><ele>422.0</ele><time>2026-04-18T13:47:04Z</time></trkpt><trkpt lat="36.96641533370896" lon="14.83964296408188"><ele>422.0</ele><time>2026-04-18T13:47:05Z</time></trkpt><trkpt lat="36.966621223631165" lon="14.83959877353474"><ele>422.0</ele><time>2026-04-18T13:47:06Z</time></trkpt><trkpt lat="36.96682265972647" lon="14.839559054737936"><ele>422.0</ele><time>2026-04-18T13:47:07Z</time></trkpt><trkpt lat="36.96701607306402" lon="14.83951623579407"><ele>423.0</ele><time>2026-04-18T13:47:08Z</time></trkpt><trkpt lat="36.96720635158542" lon="14.839465657328152"><ele>424.0</ele><time>2026-04-18T13:47:09Z</time></trkpt><trkpt lat="36.967377973902785" lon="14.83940759158877"><ele>425.0</ele><time>2026-04-18T13:47:10Z</time></trkpt><trkpt lat="36.96754104458359" lon="14.83933183161802"><ele>425.66666666666663</ele><time>2026-04-18T13:47:11Z</time></trkpt><trkpt lat="36.96770253233035" lon="14.839236519605997"><ele>426.33333333333337</ele><time>2026-04-18T13:47:12Z</time></trkpt><trkpt lat="36.967861028541" lon="14.839125177749144"><ele>427.0</ele><time>2026-04-18T13:47:13Z</time></trkpt><trkpt lat="36.96803956811507" lon="14.838989011207667"><ele>427.0</ele><time>2026-04-18T13:47:14Z</time></trkpt><trkpt lat="36.96824519805211" lon="14.83883282442412"><ele>427.0</ele><time>2026-04-18T13:47:15Z</time></trkpt><trkpt lat="36.96847708297355" lon="14.838663011982321"><ele>427.0</ele><time>2026-04-18T13:47:16Z</time></trkpt><trkpt lat="36.968708807740605" lon="14.83849021612846"><ele>427.0</ele><time>2026-04-18T13:47:17Z</time></trkpt><trkpt lat="36.96890933319842" lon="14.838334727764204"><ele>427.0</ele><time>2026-04-18T13:47:18Z</time></trkpt><trkpt lat="36.96910096378685" lon="14.83816882202408"><ele>427.0</ele><time>2026-04-18T13:47:19Z</time></trkpt><trkpt lat="36.96930701818297" lon="14.837977147880084"><ele>428.5</ele><time>2026-04-18T13:47:20Z</time></trkpt><trkpt lat="36.96949837475356" lon="14.837789337511287"><ele>430.0</ele><time>2026-04-18T13:47:21Z</time></trkpt><trkpt lat="36.96966348217755" lon="14.83763259054542"><ele>430.0</ele><time>2026-04-18T13:47:22Z</time></trkpt><trkpt lat="36.969820187134665" lon="14.837504638522754"><ele>430.0</ele><time>2026-04-18T13:47:23Z</time></trkpt><trkpt lat="36.970010889781925" lon="14.837378841145766"><ele>430.0</ele><time>2026-04-18T13:47:24Z</time></trkpt><trkpt lat="36.97023203772566" lon="14.837247548824664"><ele>431.0</ele><time>2026-04-18T13:47:25Z</time></trkpt><trkpt lat="36.970457948424496" lon="14.837118993650959"><ele>432.0</ele><time>2026-04-18T13:47:26Z</time></trkpt><trkpt lat="36.970677633672935" lon="14.836985525585263"><ele>434.0</ele><time>2026-04-18T13:47:27Z</time></trkpt><trkpt lat="36.97090540822607" lon="14.836859566709222"><ele>436.0</ele><time>2026-04-18T13:47:28Z</time></trkpt><trkpt lat="36.97110507938986" lon="14.836718144509677"><ele>436.33333333333337</ele><time>2026-04-18T13:47:29Z</time></trkpt><trkpt lat="36.97127138171891" lon="14.836573059187245"><ele>436.66666666666663</ele><time>2026-04-18T13:47:30Z</time></trkpt><trkpt lat="36.97143801214522" lon="14.836460509438345"><ele>437.0</ele><time>2026-04-18T13:47:31Z</time></trkpt><trkpt lat="36.97160293944741" lon="14.83635177529619"><ele>438.0</ele><time>2026-04-18T13:47:32Z</time></trkpt><trkpt lat="36.97175917438135" lon="14.83625010776181"><ele>439.0</ele><time>2026-04-18T13:47:33Z</time></trkpt><trkpt lat="36.97190771150697" lon="14.836166342008054"><ele>440.0</ele><time>2026-04-18T13:47:34Z</time></trkpt><trkpt lat="36.97203873170489" lon="14.83609262501461"><ele>440.0</ele><time>2026-04-18T13:47:35Z</time></trkpt><trkpt lat="36.972156020459046" lon="14.835994449165762"><ele>440.0</ele><time>2026-04-18T13:47:36Z</time></trkpt><trkpt lat="36.97226603327522" lon="14.835850966604742"><ele>440.0</ele><time>2026-04-18T13:47:37Z</time></trkpt><trkpt lat="36.9723559343776" lon="14.835683789569305"><ele>440.3333333333333</ele><time>2026-04-18T13:47:38Z</time></trkpt><trkpt lat="36.972454401134975" lon="14.835484996030473"><ele>440.66666666666663</ele><time>2026-04-18T13:47:39Z</time></trkpt><trkpt lat="36.9725938870833" lon="14.83531157037215"><ele>441.0</ele><time>2026-04-18T13:47:40Z</time></trkpt><trkpt lat="36.97274202110625" lon="14.835089337679285"><ele>443.33333333333337</ele><time>2026-04-18T13:47:41Z</time></trkpt><trkpt lat="36.97289859748867" lon="14.83489971189449"><ele>445.6666666666667</ele><time>2026-04-18T13:47:42Z</time></trkpt><trkpt lat="36.97302693514568" lon="14.834750579193193"><ele>448.0</ele><time>2026-04-18T13:47:43Z</time></trkpt><trkpt lat="36.973140908014834" lon="14.834624389660178"><ele>448.0</ele><time>2026-04-18T13:47:44Z</time></trkpt><trkpt lat="36.97324980298444" lon="14.834491779060942"><ele>448.0</ele><time>2026-04-18T13:47:45Z</time></trkpt><trkpt lat="36.9733462848244" lon="14.834329791298801"><ele>448.0</ele><time>2026-04-18T13:47:46Z</time></trkpt><trkpt lat="36.97342333892394" lon="14.83414558126769"><ele>448.6666666666667</ele><time>2026-04-18T13:47:47Z</time></trkpt><trkpt lat="36.97348790977506" lon="14.833937414659172"><ele>449.33333333333337</ele><time>2026-04-18T13:47:48Z</time></trkpt><trkpt lat="36.97354883434354" lon="14.833736779488053"><ele>450.0</ele><time>2026-04-18T13:47:49Z</time></trkpt><trkpt lat="36.97361796874656" lon="14.83357214629692"><ele>452.25</ele><time>2026-04-18T13:47:50Z</time></trkpt><trkpt lat="36.97369021826407" lon="14.833448893624615"><ele>454.5</ele><time>2026-04-18T13:47:51Z</time></trkpt><trkpt lat="36.97377411784556" lon="14.833342504998905"><ele>456.75</ele><time>2026-04-18T13:47:52Z</time></trkpt><trkpt lat="36.97388571829389" lon="14.83322520356383"><ele>459.0</ele><time>2026-04-18T13:47:53Z</time></trkpt><trkpt lat="36.97401446779672" lon="14.83308709441522"><ele>459.0</ele><time>2026-04-18T13:47:54Z</time></trkpt><trkpt lat="36.97414661095055" lon="14.83293364102727"><ele>459.0</ele><time>2026-04-18T13:47:55Z</time></trkpt><trkpt lat="36.97426855089124" lon="14.832787769571373"><ele>459.0</ele><time>2026-04-18T13:47:56Z</time></trkpt><trkpt lat="36.97438938898224" lon="14.832648491600446"><ele>460.0</ele><time>2026-04-18T13:47:57Z</time></trkpt><trkpt lat="36.974509116201446" lon="14.832528884998423"><ele>461.0</ele><time>2026-04-18T13:47:58Z</time></trkpt><trkpt lat="36.974644199375064" lon="14.832421288120765"><ele>462.0</ele><time>2026-04-18T13:47:59Z</time></trkpt><trkpt lat="36.97479346105691" lon="14.832321876091122"><ele>462.0</ele><time>2026-04-18T13:48:00Z</time></trkpt><trkpt lat="36.97495414523938" lon="14.83221991678175"><ele>462.0</ele><time>2026-04-18T13:48:01Z</time></trkpt><trkpt lat="36.97511402326827" lon="14.83210264512369"><ele>462.0</ele><time>2026-04-18T13:48:02Z</time></trkpt><trkpt lat="36.975269936970975" lon="14.831972484565265"><ele>461.66666666666663</ele><time>2026-04-18T13:48:03Z</time></trkpt><trkpt lat="36.975422733960436" lon="14.831841671345975"><ele>461.3333333333333</ele><time>2026-04-18T13:48:04Z</time></trkpt><trkpt lat="36.975573188569555" lon="14.831721904124466"><ele>461.0</ele><time>2026-04-18T13:48:05Z</time></trkpt><trkpt lat="36.97571773181925" lon="14.831622876002054"><ele>463.3333333333333</ele><time>2026-04-18T13:48:06Z</time></trkpt><trkpt lat="36.97584670629693" lon="14.83153406467282"><ele>465.66666666666663</ele><time>2026-04-18T13:48:07Z</time></trkpt><trkpt lat="36.97596929226653" lon="14.831428119569917"><ele>468.0</ele><time>2026-04-18T13:48:08Z</time></trkpt><trkpt lat="36.97609929217584" lon="14.831291651886154"><ele>468.0</ele><time>2026-04-18T13:48:09Z</time></trkpt><trkpt lat="36.976239279281835" lon="14.831134042703226"><ele>468.0</ele><time>2026-04-18T13:48:10Z</time></trkpt><trkpt lat="36.97638569661923" lon="14.830974499579943"><ele>468.0</ele><time>2026-04-18T13:48:11Z</time></trkpt><trkpt lat="36.97654342697117" lon="14.830817616334294"><ele>472.0</ele><time>2026-04-18T13:48:12Z</time></trkpt><trkpt lat="36.976710613467255" lon="14.830671312869415"><ele>476.0</ele><time>2026-04-18T13:48:13Z</time></trkpt><trkpt lat="36.976886134680655" lon="14.830557905980537"><ele>480.0</ele><time>2026-04-18T13:48:14Z</time></trkpt><trkpt lat="36.977062596483655" lon="14.830444403185002"><ele>480.0</ele><time>2026-04-18T13:48:15Z</time></trkpt><trkpt lat="36.97723895400592" lon="14.830334234647799"><ele>480.0</ele><time>2026-04-18T13:48:16Z</time></trkpt><trkpt lat="36.977414980663475" lon="14.830229205969854"><ele>480.0</ele><time>2026-04-18T13:48:17Z</time></trkpt><trkpt lat="36.977585917088476" lon="14.830133261684551"><ele>484.0</ele><time>2026-04-18T13:48:18Z</time></trkpt><trkpt lat="36.97775945203687" lon="14.830046698004578"><ele>488.0</ele><time>2026-04-18T13:48:19Z</time></trkpt><trkpt lat="36.977921133854615" lon="14.829981625875998"><ele>492.0</ele><time>2026-04-18T13:48:20Z</time></trkpt><trkpt lat="36.97808417492376" lon="14.82991729322483"><ele>492.0</ele><time>2026-04-18T13:48:21Z</time></trkpt><trkpt lat="36.978242481073444" lon="14.829838274453609"><ele>492.0</ele><time>2026-04-18T13:48:22Z</time></trkpt><trkpt lat="36.978395944610135" lon="14.829744976413572"><ele>492.0</ele><time>2026-04-18T13:48:23Z</time></trkpt><trkpt lat="36.97854638646451" lon="14.829640908711292"><ele>492.0</ele><time>2026-04-18T13:48:24Z</time></trkpt><trkpt lat="36.978694523355564" lon="14.82953554607227"><ele>492.0</ele><time>2026-04-18T13:48:25Z</time></trkpt><trkpt lat="36.9788388427793" lon="14.829432246527588"><ele>492.0</ele><time>2026-04-18T13:48:26Z</time></trkpt><trkpt lat="36.97896492094119" lon="14.829353353821094"><ele>493.5</ele><time>2026-04-18T13:48:27Z</time></trkpt><trkpt lat="36.979086019614556" lon="14.829288420742087"><ele>495.0</ele><time>2026-04-18T13:48:28Z</time></trkpt><trkpt lat="36.97920268096086" lon="14.829243671842999"><ele>496.5</ele><time>2026-04-18T13:48:29Z</time></trkpt><trkpt lat="36.97932407600529" lon="14.829208813871306"><ele>498.0</ele><time>2026-04-18T13:48:30Z</time></trkpt><trkpt lat="36.979475306439184" lon="14.829173522420648"><ele>499.0</ele><time>2026-04-18T13:48:31Z</time></trkpt><trkpt lat="36.97962404882275" lon="14.829156310224922"><ele>500.0</ele><time>2026-04-18T13:48:32Z</time></trkpt><trkpt lat="36.979757931403036" lon="14.829141873317004"><ele>501.0</ele><time>2026-04-18T13:48:33Z</time></trkpt><trkpt lat="36.979869461535685" lon="14.82914411728768"><ele>502.0</ele><time>2026-04-18T13:48:34Z</time></trkpt><trkpt lat="36.97996856473118" lon="14.829145811351964"><ele>502.6</ele><time>2026-04-18T13:48:35Z</time></trkpt><trkpt lat="36.98004538343391" lon="14.829140037314298"><ele>503.20000000000005</ele><time>2026-04-18T13:48:36Z</time></trkpt><trkpt lat="36.98010892426524" lon="14.829130532197802"><ele>503.8</ele><time>2026-04-18T13:48:37Z</time></trkpt><trkpt lat="36.9802072636104" lon="14.829090717477797"><ele>504.4</ele><time>2026-04-18T13:48:39Z</time></trkpt><trkpt lat="36.98025983175964" lon="14.829003204594004"><ele>505.0</ele><time>2026-04-18T13:48:41Z</time></trkpt><trkpt lat="36.980208697462345" lon="14.828859161478846"><ele>505.0</ele><time>2026-04-18T13:48:43Z</time></trkpt><trkpt lat="36.98014144364095" lon="14.828751557305617"><ele>505.0</ele><time>2026-04-18T13:48:44Z</time></trkpt><trkpt lat="36.980054575835354" lon="14.828625179574502"><ele>505.0</ele><time>2026-04-18T13:48:45Z</time></trkpt><trkpt lat="36.97996926646275" lon="14.828483589161003"><ele>505.0</ele><time>2026-04-18T13:48:46Z</time></trkpt><trkpt lat="36.97989856445347" lon="14.828347548049532"><ele>505.0</ele><time>2026-04-18T13:48:47Z</time></trkpt><trkpt lat="36.97984393370278" lon="14.828220111867306"><ele>505.0</ele><time>2026-04-18T13:48:48Z</time></trkpt><trkpt lat="36.97980725623425" lon="14.82809442845141"><ele>505.0</ele><time>2026-04-18T13:48:49Z</time></trkpt><trkpt lat="36.9797866395183" lon="14.827954485759506"><ele>505.0</ele><time>2026-04-18T13:48:50Z</time></trkpt><trkpt lat="36.97976607207311" lon="14.827795398917091"><ele>505.2</ele><time>2026-04-18T13:48:51Z</time></trkpt><trkpt lat="36.97973763399643" lon="14.827641279426631"><ele>505.4</ele><time>2026-04-18T13:48:52Z</time></trkpt><trkpt lat="36.97971385907502" lon="14.827507712318418"><ele>505.6</ele><time>2026-04-18T13:48:53Z</time></trkpt><trkpt lat="36.979692719746794" lon="14.827390487839114"><ele>505.8</ele><time>2026-04-18T13:48:54Z</time></trkpt><trkpt lat="36.97966913871238" lon="14.827275400151892"><ele>506.0</ele><time>2026-04-18T13:48:55Z</time></trkpt><trkpt lat="36.979650465489094" lon="14.827175851785924"><ele>505.99999999999994</ele><time>2026-04-18T13:48:56.001Z</time></trkpt><trkpt lat="36.97962907848947" lon="14.827066019702018"><ele>506.0</ele><time>2026-04-18T13:48:57.001Z</time></trkpt><trkpt lat="36.979610519388416" lon="14.82695254299846"><ele>506.0</ele><time>2026-04-18T13:48:58.001Z</time></trkpt><trkpt lat="36.97960805806876" lon="14.826855961262865"><ele>506.0</ele><time>2026-04-18T13:48:59.001Z</time></trkpt><trkpt lat="36.979620283032844" lon="14.826774211594586"><ele>505.99999999999994</ele><time>2026-04-18T13:49:00.001Z</time></trkpt><trkpt lat="36.979677356513925" lon="14.826662744041123"><ele>506.0</ele><time>2026-04-18T13:49:02.001Z</time></trkpt><trkpt lat="36.9797289244665" lon="14.826593977543874"><ele>507.25</ele><time>2026-04-18T13:49:03.001Z</time></trkpt><trkpt lat="36.979781868901206" lon="14.826497992363777"><ele>508.5</ele><time>2026-04-18T13:49:04.001Z</time></trkpt><trkpt lat="36.97989380618715" lon="14.82644199196741"><ele>509.75</ele><time>2026-04-18T13:49:05.001Z</time></trkpt><trkpt lat="36.97998821717795" lon="14.826367854105376"><ele>511.0</ele><time>2026-04-18T13:49:06.001Z</time></trkpt><trkpt lat="36.980104398630836" lon="14.826287916275598"><ele>513.0</ele><time>2026-04-18T13:49:07.001Z</time></trkpt><trkpt lat="36.980241626919685" lon="14.826199766540444"><ele>515.0</ele><time>2026-04-18T13:49:08.001Z</time></trkpt><trkpt lat="36.98037960128529" lon="14.82611235521806"><ele>517.0</ele><time>2026-04-18T13:49:09.001Z</time></trkpt><trkpt lat="36.98049961271962" lon="14.826039279277156"><ele>519.0</ele><time>2026-04-18T13:49:10.001Z</time></trkpt><trkpt lat="36.98060623241866" lon="14.825979840931458"><ele>518.0</ele><time>2026-04-18T13:49:11.001Z</time></trkpt><trkpt lat="36.98071158619271" lon="14.825917352123389"><ele>517.0</ele><time>2026-04-18T13:49:12.001Z</time></trkpt><trkpt lat="36.980814949045495" lon="14.82585345438794"><ele>516.0</ele><time>2026-04-18T13:49:13.001Z</time></trkpt><trkpt lat="36.98092241550269" lon="14.825785687237046"><ele>515.0</ele><time>2026-04-18T13:49:14.001Z</time></trkpt><trkpt lat="36.98102087242232" lon="14.82573094437539"><ele>517.75</ele><time>2026-04-18T13:49:15.001Z</time></trkpt><trkpt lat="36.981122255783376" lon="14.825667416153447"><ele>520.5</ele><time>2026-04-18T13:49:16.001Z</time></trkpt><trkpt lat="36.98122245995818" lon="14.825583301957844"><ele>523.25</ele><time>2026-04-18T13:49:17.001Z</time></trkpt><trkpt lat="36.98131531222737" lon="14.825486517871836"><ele>526.0</ele><time>2026-04-18T13:49:18.001Z</time></trkpt><trkpt lat="36.98140299596549" lon="14.825381270920344"><ele>526.0</ele><time>2026-04-18T13:49:19.001Z</time></trkpt><trkpt lat="36.98148301698745" lon="14.825262607077958"><ele>526.0</ele><time>2026-04-18T13:49:20.001Z</time></trkpt><trkpt lat="36.98156403657772" lon="14.825141892038369"><ele>526.0</ele><time>2026-04-18T13:49:21.001Z</time></trkpt><trkpt lat="36.98163935211893" lon="14.825038933168173"><ele>526.0</ele><time>2026-04-18T13:49:22.001Z</time></trkpt><trkpt lat="36.981711695084876" lon="14.824956332918717"><ele>525.1666666666667</ele><time>2026-04-18T13:49:23.001Z</time></trkpt><trkpt lat="36.981789390590194" lon="14.824892657275655"><ele>524.3333333333334</ele><time>2026-04-18T13:49:24.001Z</time></trkpt><trkpt lat="36.98186877288272" lon="14.82485224298234"><ele>523.5</ele><time>2026-04-18T13:49:25.001Z</time></trkpt><trkpt lat="36.981950112417294" lon="14.82486588083164"><ele>522.6666666666666</ele><time>2026-04-18T13:49:26.001Z</time></trkpt><trkpt lat="36.98201823051087" lon="14.824880404372246"><ele>521.8333333333333</ele><time>2026-04-18T13:49:27.001Z</time></trkpt><trkpt lat="36.98207750445251" lon="14.824910322426199"><ele>521.0</ele><time>2026-04-18T13:49:28.001Z</time></trkpt><trkpt lat="36.982142312343925" lon="14.824956839320656"><ele>521.0</ele><time>2026-04-18T13:49:29.001Z</time></trkpt><trkpt lat="36.98222454131364" lon="14.8250168803465"><ele>521.0</ele><time>2026-04-18T13:49:30.001Z</time></trkpt><trkpt lat="36.982322703114214" lon="14.825069750769137"><ele>521.0</ele><time>2026-04-18T13:49:31.001Z</time></trkpt><trkpt lat="36.98240906538375" lon="14.825126020453691"><ele>521.0</ele><time>2026-04-18T13:49:32.001Z</time></trkpt><trkpt lat="36.98248693949959" lon="14.825178235801438"><ele>521.0</ele><time>2026-04-18T13:49:33.001Z</time></trkpt><trkpt lat="36.98258608018804" lon="14.825149789587389"><ele>520.8</ele><time>2026-04-18T13:49:34.001Z</time></trkpt><trkpt lat="36.98266983362738" lon="14.825121656687562"><ele>520.6</ele><time>2026-04-18T13:49:35.001Z</time></trkpt><trkpt lat="36.98275147829936" lon="14.825067641764342"><ele>520.4</ele><time>2026-04-18T13:49:36.001Z</time></trkpt><trkpt lat="36.9828369936196" lon="14.824988029108832"><ele>520.2</ele><time>2026-04-18T13:49:37.001Z</time></trkpt><trkpt lat="36.98292431583664" lon="14.824886228595302"><ele>520.0</ele><time>2026-04-18T13:49:38.001Z</time></trkpt><trkpt lat="36.98300286681333" lon="14.824770403706756"><ele>520.0</ele><time>2026-04-18T13:49:39.001Z</time></trkpt><trkpt lat="36.9830760509425" lon="14.82466052253924"><ele>520.0</ele><time>2026-04-18T13:49:40.001Z</time></trkpt><trkpt lat="36.98315718367556" lon="14.82457643816638"><ele>520.0</ele><time>2026-04-18T13:49:41.001Z</time></trkpt><trkpt lat="36.98324773420878" lon="14.824522633530291"><ele>520.0</ele><time>2026-04-18T13:49:42.001Z</time></trkpt><trkpt lat="36.98335005687131" lon="14.8244851169189"><ele>520.0</ele><time>2026-04-18T13:49:43.001Z</time></trkpt><trkpt lat="36.983460817598676" lon="14.824463609719627"><ele>518.25</ele><time>2026-04-18T13:49:44.001Z</time></trkpt><trkpt lat="36.98355786117972" lon="14.82446708548494"><ele>516.5</ele><time>2026-04-18T13:49:45.001Z</time></trkpt><trkpt lat="36.983660261544465" lon="14.824489825392055"><ele>514.75</ele><time>2026-04-18T13:49:46.001Z</time></trkpt><trkpt lat="36.98377321378135" lon="14.824533430562473"><ele>513.0</ele><time>2026-04-18T13:49:47.001Z</time></trkpt><trkpt lat="36.98389794951163" lon="14.824588716901347"><ele>513.0</ele><time>2026-04-18T13:49:48.001Z</time></trkpt><trkpt lat="36.984030251080064" lon="14.82464484524412"><ele>513.0</ele><time>2026-04-18T13:49:49.001Z</time></trkpt><trkpt lat="36.98415461578594" lon="14.82468684209167"><ele>513.0</ele><time>2026-04-18T13:49:50.001Z</time></trkpt><trkpt lat="36.984277594940465" lon="14.824714353581573"><ele>513.0</ele><time>2026-04-18T13:49:51.001Z</time></trkpt><trkpt lat="36.984413552640916" lon="14.824730038060286"><ele>511.33333333333337</ele><time>2026-04-18T13:49:52.001Z</time></trkpt><trkpt lat="36.984561792233684" lon="14.824738108036662"><ele>509.6666666666667</ele><time>2026-04-18T13:49:53.001Z</time></trkpt><trkpt lat="36.984719962977934" lon="14.824770899903669"><ele>508.0</ele><time>2026-04-18T13:49:54.001Z</time></trkpt><trkpt lat="36.98489727156559" lon="14.824785631442293"><ele>506.6666666666667</ele><time>2026-04-18T13:49:55.001Z</time></trkpt><trkpt lat="36.985081751179806" lon="14.824801303420953"><ele>505.33333333333337</ele><time>2026-04-18T13:49:56.001Z</time></trkpt><trkpt lat="36.985264928535216" lon="14.824817313786074"><ele>504.0</ele><time>2026-04-18T13:49:57.001Z</time></trkpt><trkpt lat="36.985441506931515" lon="14.824816023474805"><ele>504.0</ele><time>2026-04-18T13:49:58.001Z</time></trkpt><trkpt lat="36.98560421977607" lon="14.82483237639167"><ele>504.0</ele><time>2026-04-18T13:49:59.001Z</time></trkpt><trkpt lat="36.9857742968301" lon="14.824866941238556"><ele>504.0</ele><time>2026-04-18T13:50:00.001Z</time></trkpt><trkpt lat="36.985946365201336" lon="14.824884197235933"><ele>503.0</ele><time>2026-04-18T13:50:01.001Z</time></trkpt><trkpt lat="36.98612513500081" lon="14.824901228376268"><ele>502.0</ele><time>2026-04-18T13:50:02.001Z</time></trkpt><trkpt lat="36.98628207590778" lon="14.824916064519426"><ele>501.0</ele><time>2026-04-18T13:50:03.001Z</time></trkpt><trkpt lat="36.98643819438142" lon="14.824930822916771"><ele>501.0</ele><time>2026-04-18T13:50:04.001Z</time></trkpt><trkpt lat="36.98658880357064" lon="14.824945060503042"><ele>501.0</ele><time>2026-04-18T13:50:05.001Z</time></trkpt><trkpt lat="36.986742960355954" lon="14.824959633454517"><ele>501.0</ele><time>2026-04-18T13:50:06.001Z</time></trkpt><trkpt lat="36.98689538506315" lon="14.82497404266754"><ele>500.25</ele><time>2026-04-18T13:50:07.001Z</time></trkpt><trkpt lat="36.987047472367195" lon="14.824986214029295"><ele>499.5</ele><time>2026-04-18T13:50:08.001Z</time></trkpt><trkpt lat="36.987195394606864" lon="14.824978701953343"><ele>498.75</ele><time>2026-04-18T13:50:09.001Z</time></trkpt><trkpt lat="36.9873410847366" lon="14.824993352027622"><ele>498.0</ele><time>2026-04-18T13:50:10.001Z</time></trkpt><trkpt lat="36.987488522428315" lon="14.825006948590675"><ele>497.75</ele><time>2026-04-18T13:50:11.001Z</time></trkpt><trkpt lat="36.98762843849055" lon="14.825018423749507"><ele>497.5</ele><time>2026-04-18T13:50:12.001Z</time></trkpt><trkpt lat="36.98776328211543" lon="14.82502906736497"><ele>497.25</ele><time>2026-04-18T13:50:13.001Z</time></trkpt><trkpt lat="36.987888241164484" lon="14.825063422719161"><ele>497.0</ele><time>2026-04-18T13:50:14.001Z</time></trkpt><trkpt lat="36.988003035024704" lon="14.82509182548127"><ele>497.0</ele><time>2026-04-18T13:50:15.001Z</time></trkpt><trkpt lat="36.9881055306177" lon="14.82513705747649"><ele>497.0</ele><time>2026-04-18T13:50:16.001Z</time></trkpt><trkpt lat="36.98821088498746" lon="14.825203614144128"><ele>497.0</ele><time>2026-04-18T13:50:17.001Z</time></trkpt><trkpt lat="36.98832699920701" lon="14.82528009684528"><ele>497.0</ele><time>2026-04-18T13:50:18.001Z</time></trkpt><trkpt lat="36.98844931115561" lon="14.825362278075815"><ele>495.0</ele><time>2026-04-18T13:50:19.001Z</time></trkpt><trkpt lat="36.98856570534227" lon="14.825451022460364"><ele>493.0</ele><time>2026-04-18T13:50:20.001Z</time></trkpt><trkpt lat="36.98868264964558" lon="14.82554976379887"><ele>491.0</ele><time>2026-04-18T13:50:21.001Z</time></trkpt><trkpt lat="36.988804370912476" lon="14.825654914454145"><ele>489.0</ele><time>2026-04-18T13:50:22.001Z</time></trkpt><trkpt lat="36.988919559615084" lon="14.82574105591863"><ele>489.0</ele><time>2026-04-18T13:50:23.001Z</time></trkpt><trkpt lat="36.98901346182022" lon="14.825829330165186"><ele>489.0</ele><time>2026-04-18T13:50:24.001Z</time></trkpt><trkpt lat="36.98909424153258" lon="14.825928364595761"><ele>489.0</ele><time>2026-04-18T13:50:25.001Z</time></trkpt><trkpt lat="36.989143263049854" lon="14.826048196334158"><ele>489.0</ele><time>2026-04-18T13:50:26.001Z</time></trkpt><trkpt lat="36.989212570122646" lon="14.82618897534014"><ele>488.25</ele><time>2026-04-18T13:50:27.001Z</time></trkpt><trkpt lat="36.98929461736873" lon="14.826345929117863"><ele>487.5</ele><time>2026-04-18T13:50:28.001Z</time></trkpt><trkpt lat="36.98938186837392" lon="14.82648935398136"><ele>486.75</ele><time>2026-04-18T13:50:29.001Z</time></trkpt><trkpt lat="36.98948650357125" lon="14.826630595122621"><ele>486.0</ele><time>2026-04-18T13:50:30.001Z</time></trkpt><trkpt lat="36.989601547024996" lon="14.826766751092535"><ele>484.66666666666663</ele><time>2026-04-18T13:50:31.001Z</time></trkpt><trkpt lat="36.98972596559103" lon="14.826907111424953"><ele>483.3333333333333</ele><time>2026-04-18T13:50:32.001Z</time></trkpt><trkpt lat="36.989858827460715" lon="14.8270490367618"><ele>482.0</ele><time>2026-04-18T13:50:33.001Z</time></trkpt><trkpt lat="36.98999507470724" lon="14.827193688986915"><ele>483.0</ele><time>2026-04-18T13:50:34.001Z</time></trkpt><trkpt lat="36.990131476346534" lon="14.827339416510737"><ele>484.0</ele><time>2026-04-18T13:50:35.001Z</time></trkpt><trkpt lat="36.99026380831913" lon="14.827480789336127"><ele>485.0</ele><time>2026-04-18T13:50:36.001Z</time></trkpt><trkpt lat="36.99039186740462" lon="14.827609141319998"><ele>483.3333333333333</ele><time>2026-04-18T13:50:37.001Z</time></trkpt><trkpt lat="36.99051828399677" lon="14.82772642665269"><ele>481.66666666666663</ele><time>2026-04-18T13:50:38.001Z</time></trkpt><trkpt lat="36.99064622780521" lon="14.827835755216649"><ele>480.0</ele><time>2026-04-18T13:50:39.001Z</time></trkpt><trkpt lat="36.99077209854809" lon="14.82792950544447"><ele>479.5</ele><time>2026-04-18T13:50:40.001Z</time></trkpt><trkpt lat="36.990897171319084" lon="14.828005471951599"><ele>479.0</ele><time>2026-04-18T13:50:41.001Z</time></trkpt><trkpt lat="36.991024146840786" lon="14.828062228940832"><ele>478.5</ele><time>2026-04-18T13:50:42.001Z</time></trkpt><trkpt lat="36.99115468023531" lon="14.828096892107066"><ele>478.0</ele><time>2026-04-18T13:50:43.001Z</time></trkpt><trkpt lat="36.991298652041706" lon="14.828109781052131"><ele>478.0</ele><time>2026-04-18T13:50:44.001Z</time></trkpt><trkpt lat="36.99147155766622" lon="14.828115287343843"><ele>478.0</ele><time>2026-04-18T13:50:45.001Z</time></trkpt><trkpt lat="36.99167265345846" lon="14.82812891006774"><ele>478.0</ele><time>2026-04-18T13:50:46.001Z</time></trkpt><trkpt lat="36.991866105248484" lon="14.828143212617656"><ele>477.0</ele><time>2026-04-18T13:50:47.001Z</time></trkpt><trkpt lat="36.99204763662283" lon="14.828155964532142"><ele>476.0</ele><time>2026-04-18T13:50:48.001Z</time></trkpt><trkpt lat="36.99221440564784" lon="14.828163673585165"><ele>475.0</ele><time>2026-04-18T13:50:49.001Z</time></trkpt><trkpt lat="36.99237137699029" lon="14.828168415145994"><ele>474.0</ele><time>2026-04-18T13:50:50.001Z</time></trkpt><trkpt lat="36.992518100145794" lon="14.828173588908502"><ele>473.0</ele><time>2026-04-18T13:50:51.001Z</time></trkpt><trkpt lat="36.99266823030934" lon="14.828173798258874"><ele>472.0</ele><time>2026-04-18T13:50:52.001Z</time></trkpt><trkpt lat="36.99281373089486" lon="14.828147998805798"><ele>471.0</ele><time>2026-04-18T13:50:53.001Z</time></trkpt><trkpt lat="36.992963174213656" lon="14.828111032311085"><ele>471.0</ele><time>2026-04-18T13:50:54.001Z</time></trkpt><trkpt lat="36.99312155686861" lon="14.82805106376379"><ele>471.0</ele><time>2026-04-18T13:50:55.001Z</time></trkpt><trkpt lat="36.99327228186348" lon="14.82798157432464"><ele>471.0</ele><time>2026-04-18T13:50:56.001Z</time></trkpt><trkpt lat="36.99341147750071" lon="14.827904746357884"><ele>470.0</ele><time>2026-04-18T13:50:57.001Z</time></trkpt><trkpt lat="36.9935442644154" lon="14.827817121261475"><ele>469.0</ele><time>2026-04-18T13:50:58.001Z</time></trkpt><trkpt lat="36.99367691325255" lon="14.82771633509753"><ele>468.0</ele><time>2026-04-18T13:50:59.001Z</time></trkpt><trkpt lat="36.993804402676716" lon="14.82760655900097"><ele>468.0</ele><time>2026-04-18T13:51:00.001Z</time></trkpt><trkpt lat="36.99392475840384" lon="14.827492917717697"><ele>468.0</ele><time>2026-04-18T13:51:01.001Z</time></trkpt><trkpt lat="36.99404282982854" lon="14.82737141802934"><ele>468.0</ele><time>2026-04-18T13:51:02.001Z</time></trkpt><trkpt lat="36.99415774966823" lon="14.827249332904"><ele>472.66666666666663</ele><time>2026-04-18T13:51:03.001Z</time></trkpt><trkpt lat="36.99426441892446" lon="14.827128446488603"><ele>477.3333333333333</ele><time>2026-04-18T13:51:04.001Z</time></trkpt><trkpt lat="36.99438360295261" lon="14.827000748562297"><ele>482.0</ele><time>2026-04-18T13:51:05.001Z</time></trkpt><trkpt lat="36.994470377844415" lon="14.826838178326746"><ele>478.0</ele><time>2026-04-18T13:51:06.001Z</time></trkpt><trkpt lat="36.99455940963924" lon="14.826687841538922"><ele>474.0</ele><time>2026-04-18T13:51:07.001Z</time></trkpt><trkpt lat="36.9946411482247" lon="14.826548214357116"><ele>470.0</ele><time>2026-04-18T13:51:08.001Z</time></trkpt><trkpt lat="36.99472727424935" lon="14.826420542077853"><ele>466.0</ele><time>2026-04-18T13:51:09.001Z</time></trkpt><trkpt lat="36.994818719293974" lon="14.826309318002497"><ele>466.0</ele><time>2026-04-18T13:51:10.001Z</time></trkpt><trkpt lat="36.99492029451205" lon="14.82621362122323"><ele>466.0</ele><time>2026-04-18T13:51:11.001Z</time></trkpt><trkpt lat="36.99503642355303" lon="14.826115581869491"><ele>466.0</ele><time>2026-04-18T13:51:12.001Z</time></trkpt><trkpt lat="36.995169425473286" lon="14.826017608184548"><ele>466.0</ele><time>2026-04-18T13:51:13.001Z</time></trkpt><trkpt lat="36.995312581633556" lon="14.825912109371714"><ele>466.5</ele><time>2026-04-18T13:51:14.001Z</time></trkpt><trkpt lat="36.99544617402418" lon="14.825817501484723"><ele>467.0</ele><time>2026-04-18T13:51:15.001Z</time></trkpt><trkpt lat="36.99556133426802" lon="14.825728154253378"><ele>467.5</ele><time>2026-04-18T13:51:16.001Z</time></trkpt><trkpt lat="36.99566814295788" lon="14.825640235448823"><ele>468.0</ele><time>2026-04-18T13:51:17.001Z</time></trkpt><trkpt lat="36.99576576545102" lon="14.825549819460406"><ele>469.25</ele><time>2026-04-18T13:51:18.001Z</time></trkpt><trkpt lat="36.995858562286394" lon="14.825439597072444"><ele>470.5</ele><time>2026-04-18T13:51:19.001Z</time></trkpt><trkpt lat="36.995950385922235" lon="14.825310143771288"><ele>471.75</ele><time>2026-04-18T13:51:20.001Z</time></trkpt><trkpt lat="36.99604067231567" lon="14.82516456239398"><ele>473.0</ele><time>2026-04-18T13:51:21.001Z</time></trkpt><trkpt lat="36.996128598331104" lon="14.825004970548239"><ele>473.0</ele><time>2026-04-18T13:51:22.001Z</time></trkpt><trkpt lat="36.99620339294997" lon="14.824848253702278"><ele>473.0</ele><time>2026-04-18T13:51:23.001Z</time></trkpt><trkpt lat="36.99625753939024" lon="14.824700499769072"><ele>473.0</ele><time>2026-04-18T13:51:24.001Z</time></trkpt><trkpt lat="36.99629833324612" lon="14.824537622895184"><ele>473.0</ele><time>2026-04-18T13:51:25.001Z</time></trkpt><trkpt lat="36.99632285709738" lon="14.824357665538248"><ele>472.66666666666663</ele><time>2026-04-18T13:51:26.001Z</time></trkpt><trkpt lat="36.99633759910205" lon="14.824136061092705"><ele>472.33333333333337</ele><time>2026-04-18T13:51:27.001Z</time></trkpt><trkpt lat="36.9963512841647" lon="14.823883223634441"><ele>472.0</ele><time>2026-04-18T13:51:28.001Z</time></trkpt><trkpt lat="36.99636384519358" lon="14.82359820777206"><ele>471.5</ele><time>2026-04-18T13:51:29.001Z</time></trkpt><trkpt lat="36.99637726512866" lon="14.823287071720564"><ele>471.0</ele><time>2026-04-18T13:51:30.001Z</time></trkpt><trkpt lat="36.996391450984106" lon="14.823002094003982"><ele>471.0</ele><time>2026-04-18T13:51:31.001Z</time></trkpt><trkpt lat="36.996401628864746" lon="14.822752432834353"><ele>471.0</ele><time>2026-04-18T13:51:32.001Z</time></trkpt><trkpt lat="36.99640984522323" lon="14.822527233749248"><ele>471.0</ele><time>2026-04-18T13:51:33.001Z</time></trkpt><trkpt lat="36.99641576143595" lon="14.82231994158575"><ele>470.75</ele><time>2026-04-18T13:51:34.001Z</time></trkpt><trkpt lat="36.996429618090744" lon="14.822150124626019"><ele>470.5</ele><time>2026-04-18T13:51:35.001Z</time></trkpt><trkpt lat="36.9964485899505" lon="14.821990544854561"><ele>470.25</ele><time>2026-04-18T13:51:36.001Z</time></trkpt><trkpt lat="36.996487239342706" lon="14.82184083568321"><ele>470.0</ele><time>2026-04-18T13:51:37.001Z</time></trkpt><trkpt lat="36.99656097927212" lon="14.821706615427432"><ele>469.3333333333333</ele><time>2026-04-18T13:51:38.001Z</time></trkpt><trkpt lat="36.99663168971732" lon="14.821540697460701"><ele>468.66666666666663</ele><time>2026-04-18T13:51:39.001Z</time></trkpt><trkpt lat="36.9967353301276" lon="14.821357827231562"><ele>468.0</ele><time>2026-04-18T13:51:40.001Z</time></trkpt><trkpt lat="36.996849204725585" lon="14.821149952031321"><ele>471.33333333333337</ele><time>2026-04-18T13:51:41.001Z</time></trkpt><trkpt lat="36.99696080657555" lon="14.82094724832252"><ele>474.6666666666667</ele><time>2026-04-18T13:51:42.001Z</time></trkpt><trkpt lat="36.99705463638367" lon="14.820781623392211"><ele>478.0</ele><time>2026-04-18T13:51:43.001Z</time></trkpt><trkpt lat="36.997133014496484" lon="14.820642840906316"><ele>478.00000000000006</ele><time>2026-04-18T13:51:44.001Z</time></trkpt><trkpt lat="36.99719556378268" lon="14.820528462268832"><ele>478.0</ele><time>2026-04-18T13:51:45.001Z</time></trkpt><trkpt lat="36.99725194944925" lon="14.820429777795798"><ele>478.0</ele><time>2026-04-18T13:51:46.001Z</time></trkpt><trkpt lat="36.99730805813485" lon="14.820352994240166"><ele>478.0</ele><time>2026-04-18T13:51:47.001Z</time></trkpt><trkpt lat="36.9973638516567" lon="14.820300224118336"><ele>478.00000000000006</ele><time>2026-04-18T13:51:48.001Z</time></trkpt><trkpt lat="36.99742090709052" lon="14.820263329912319"><ele>478.0</ele><time>2026-04-18T13:51:49.001Z</time></trkpt><trkpt lat="36.997490662303484" lon="14.820248351466176"><ele>479.33333333333337</ele><time>2026-04-18T13:51:50.001Z</time></trkpt><trkpt lat="36.99759821321361" lon="14.820249669456262"><ele>480.66666666666663</ele><time>2026-04-18T13:51:51.001Z</time></trkpt><trkpt lat="36.99774817561442" lon="14.820261908010728"><ele>482.0</ele><time>2026-04-18T13:51:52.001Z</time></trkpt><trkpt lat="36.997945818388814" lon="14.820276028198906"><ele>482.0</ele><time>2026-04-18T13:51:53.001Z</time></trkpt><trkpt lat="36.998152756406334" lon="14.820287729358226"><ele>482.0</ele><time>2026-04-18T13:51:54.001Z</time></trkpt><trkpt lat="36.99834302166074" lon="14.820289585343582"><ele>482.0</ele><time>2026-04-18T13:51:55.001Z</time></trkpt><trkpt lat="36.998518451364106" lon="14.820288187345145"><ele>479.0</ele><time>2026-04-18T13:51:56.001Z</time></trkpt><trkpt lat="36.9986881555962" lon="14.8202820611144"><ele>476.0</ele><time>2026-04-18T13:51:57.001Z</time></trkpt><trkpt lat="36.998869628089984" lon="14.820258504713712"><ele>473.0</ele><time>2026-04-18T13:51:58.001Z</time></trkpt><trkpt lat="36.99905012918432" lon="14.820211306783559"><ele>469.66666666666663</ele><time>2026-04-18T13:51:59.001Z</time></trkpt><trkpt lat="36.999256872246015" lon="14.82015614043917"><ele>466.33333333333337</ele><time>2026-04-18T13:52:00.001Z</time></trkpt><trkpt lat="36.99947630112061" lon="14.82010998088875"><ele>463.0</ele><time>2026-04-18T13:52:01.001Z</time></trkpt><trkpt lat="36.99969638550648" lon="14.820062818467179"><ele>460.33333333333337</ele><time>2026-04-18T13:52:02.001Z</time></trkpt><trkpt lat="36.99990954497414" lon="14.820006666545943"><ele>457.66666666666663</ele><time>2026-04-18T13:52:03.001Z</time></trkpt><trkpt lat="37.000112739197604" lon="14.819938194612925"><ele>455.0</ele><time>2026-04-18T13:52:04.001Z</time></trkpt><trkpt lat="37.00030442572784" lon="14.81986375234519"><ele>455.0</ele><time>2026-04-18T13:52:05.001Z</time></trkpt><trkpt lat="37.000481750867124" lon="14.819790483004493"><ele>455.0</ele><time>2026-04-18T13:52:06.001Z</time></trkpt><trkpt lat="37.00064864983105" lon="14.819721690672013"><ele>455.0</ele><time>2026-04-18T13:52:07.001Z</time></trkpt><trkpt lat="37.000816301395524" lon="14.8196479862996"><ele>457.66666666666663</ele><time>2026-04-18T13:52:08.001Z</time></trkpt><trkpt lat="37.000973522394" lon="14.819571092626264"><ele>460.33333333333337</ele><time>2026-04-18T13:52:09.001Z</time></trkpt><trkpt lat="37.00111079727055" lon="14.819487599813792"><ele>463.0</ele><time>2026-04-18T13:52:10.001Z</time></trkpt><trkpt lat="37.00123612669332" lon="14.81939260134654"><ele>461.5</ele><time>2026-04-18T13:52:11.001Z</time></trkpt><trkpt lat="37.00134428393615" lon="14.819280701250156"><ele>460.0</ele><time>2026-04-18T13:52:12.001Z</time></trkpt><trkpt lat="37.00143255694587" lon="14.81914698137766"><ele>458.5</ele><time>2026-04-18T13:52:13.001Z</time></trkpt><trkpt lat="37.00150441101236" lon="14.818995703944578"><ele>457.0</ele><time>2026-04-18T13:52:14.001Z</time></trkpt><trkpt lat="37.00154234623475" lon="14.818846451742688"><ele>457.0</ele><time>2026-04-18T13:52:15.001Z</time></trkpt><trkpt lat="37.0015553115378" lon="14.818680021491438"><ele>457.0</ele><time>2026-04-18T13:52:16.001Z</time></trkpt><trkpt lat="37.001547686619176" lon="14.81848225065336"><ele>457.0</ele><time>2026-04-18T13:52:17.001Z</time></trkpt><trkpt lat="37.00152340207063" lon="14.818254054492707"><ele>457.6666666666667</ele><time>2026-04-18T13:52:18.001Z</time></trkpt><trkpt lat="37.00149121338909" lon="14.817997298576868"><ele>458.33333333333337</ele><time>2026-04-18T13:52:19.001Z</time></trkpt><trkpt lat="37.001462495592214" lon="14.817750713739812"><ele>459.0</ele><time>2026-04-18T13:52:20.001Z</time></trkpt><trkpt lat="37.00143382647596" lon="14.8175365442117"><ele>459.0</ele><time>2026-04-18T13:52:21.001Z</time></trkpt><trkpt lat="37.001421021129396" lon="14.81734311442016"><ele>459.0</ele><time>2026-04-18T13:52:22.001Z</time></trkpt><trkpt lat="37.001421694204524" lon="14.817165059860793"><ele>459.0</ele><time>2026-04-18T13:52:23.001Z</time></trkpt><trkpt lat="37.001435822754246" lon="14.817011048038196"><ele>459.0</ele><time>2026-04-18T13:52:24.001Z</time></trkpt><trkpt lat="37.00146765112091" lon="14.816889663183652"><ele>459.3333333333333</ele><time>2026-04-18T13:52:25.001Z</time></trkpt><trkpt lat="37.001515848092104" lon="14.8167983012962"><ele>459.66666666666663</ele><time>2026-04-18T13:52:26.001Z</time></trkpt><trkpt lat="37.001584834495226" lon="14.816725267388328"><ele>460.0</ele><time>2026-04-18T13:52:27.001Z</time></trkpt><trkpt lat="37.001664808991" lon="14.816685312520566"><ele>460.3333333333333</ele><time>2026-04-18T13:52:28.001Z</time></trkpt><trkpt lat="37.00175416955205" lon="14.81667211073715"><ele>460.66666666666663</ele><time>2026-04-18T13:52:29.001Z</time></trkpt><trkpt lat="37.0018481844973" lon="14.816681878321495"><ele>461.0</ele><time>2026-04-18T13:52:30.001Z</time></trkpt><trkpt lat="37.00195599220195" lon="14.816709441718206"><ele>462.3333333333333</ele><time>2026-04-18T13:52:31.001Z</time></trkpt><trkpt lat="37.0020858811744" lon="14.816756067878766"><ele>463.66666666666663</ele><time>2026-04-18T13:52:32.001Z</time></trkpt><trkpt lat="37.00226194554129" lon="14.816830629487908"><ele>465.0</ele><time>2026-04-18T13:52:33.001Z</time></trkpt><trkpt lat="37.00246528628197" lon="14.816909024164524"><ele>469.0</ele><time>2026-04-18T13:52:34.001Z</time></trkpt><trkpt lat="37.00269029871005" lon="14.817001783849985"><ele>473.0</ele><time>2026-04-18T13:52:35.001Z</time></trkpt><trkpt lat="37.002891601445725" lon="14.817079464148105"><ele>477.0</ele><time>2026-04-18T13:52:36.001Z</time></trkpt><trkpt lat="37.00306611384532" lon="14.817148605123666"><ele>477.0</ele><time>2026-04-18T13:52:37.001Z</time></trkpt><trkpt lat="37.00323342194601" lon="14.817209047184125"><ele>477.0</ele><time>2026-04-18T13:52:38.001Z</time></trkpt><trkpt lat="37.00340135923597" lon="14.817236196405206"><ele>477.0</ele><time>2026-04-18T13:52:39.001Z</time></trkpt><trkpt lat="37.00358599159935" lon="14.817241175320989"><ele>477.0</ele><time>2026-04-18T13:52:40.001Z</time></trkpt><trkpt lat="37.00379818733801" lon="14.81724336648399"><ele>477.0</ele><time>2026-04-18T13:52:41.001Z</time></trkpt><trkpt lat="37.00403264625545" lon="14.817243703088868"><ele>477.0</ele><time>2026-04-18T13:52:42.001Z</time></trkpt><trkpt lat="37.00426307573141" lon="14.817239210013295"><ele>478.33333333333337</ele><time>2026-04-18T13:52:43.001Z</time></trkpt><trkpt lat="37.00446116384638" lon="14.817228673306602"><ele>479.6666666666667</ele><time>2026-04-18T13:52:44.001Z</time></trkpt><trkpt lat="37.00463505536565" lon="14.817205968812218"><ele>481.0</ele><time>2026-04-18T13:52:45.001Z</time></trkpt><trkpt lat="37.004785849964264" lon="14.817172068041575"><ele>481.0</ele><time>2026-04-18T13:52:46.001Z</time></trkpt><trkpt lat="37.004913891386764" lon="14.817135173387106"><ele>481.0</ele><time>2026-04-18T13:52:47.001Z</time></trkpt><trkpt lat="37.00503035175297" lon="14.817089514761712"><ele>481.0</ele><time>2026-04-18T13:52:48.001Z</time></trkpt><trkpt lat="37.00513518215047" lon="14.81703213268779"><ele>481.0</ele><time>2026-04-18T13:52:49.001Z</time></trkpt><trkpt lat="37.00525235204043" lon="14.81695689359963"><ele>484.0</ele><time>2026-04-18T13:52:50.001Z</time></trkpt><trkpt lat="37.00537289299083" lon="14.816856667901135"><ele>487.0</ele><time>2026-04-18T13:52:51.001Z</time></trkpt><trkpt lat="37.00550497757563" lon="14.816728133402474"><ele>490.0</ele><time>2026-04-18T13:52:52.001Z</time></trkpt><trkpt lat="37.00565209080871" lon="14.816590330846712"><ele>487.5</ele><time>2026-04-18T13:52:53.001Z</time></trkpt><trkpt lat="37.0057920543504" lon="14.816470322634"><ele>485.0</ele><time>2026-04-18T13:52:54.001Z</time></trkpt><trkpt lat="37.00591318752514" lon="14.81638125430853"><ele>482.5</ele><time>2026-04-18T13:52:55.001Z</time></trkpt><trkpt lat="37.00602078843025" lon="14.816310547432094"><ele>480.0</ele><time>2026-04-18T13:52:56.001Z</time></trkpt><trkpt lat="37.006121224416" lon="14.816265941311883"><ele>480.0</ele><time>2026-04-18T13:52:57.001Z</time></trkpt><trkpt lat="37.0062192438499" lon="14.816241256692027"><ele>480.0</ele><time>2026-04-18T13:52:58.001Z</time></trkpt><trkpt lat="37.0063230595869" lon="14.816238764896507"><ele>480.0</ele><time>2026-04-18T13:52:59.001Z</time></trkpt><trkpt lat="37.00644543408586" lon="14.816250487332754"><ele>480.0</ele><time>2026-04-18T13:53:00.001Z</time></trkpt><trkpt lat="37.00657954376374" lon="14.816268885257882"><ele>480.0</ele><time>2026-04-18T13:53:01.001Z</time></trkpt><trkpt lat="37.00671471995648" lon="14.816298771062344"><ele>480.0</ele><time>2026-04-18T13:53:02.001Z</time></trkpt><trkpt lat="37.00684524021207" lon="14.81634286896256"><ele>480.0</ele><time>2026-04-18T13:53:03.001Z</time></trkpt><trkpt lat="37.006964481867534" lon="14.816404070972945"><ele>480.0</ele><time>2026-04-18T13:53:04.001Z</time></trkpt><trkpt lat="37.007064058919404" lon="14.816479762088578"><ele>480.0</ele><time>2026-04-18T13:53:05.001Z</time></trkpt><trkpt lat="37.007155752920625" lon="14.816570826844803"><ele>480.0</ele><time>2026-04-18T13:53:06.001Z</time></trkpt><trkpt lat="37.00724453146162" lon="14.81667769357931"><ele>480.0</ele><time>2026-04-18T13:53:07.001Z</time></trkpt><trkpt lat="37.00733388363038" lon="14.81680456468542"><ele>480.0</ele><time>2026-04-18T13:53:08.001Z</time></trkpt><trkpt lat="37.007429289171554" lon="14.816942222887345"><ele>479.0</ele><time>2026-04-18T13:53:09.001Z</time></trkpt><trkpt lat="37.007520650935696" lon="14.817061074579962"><ele>478.0</ele><time>2026-04-18T13:53:10.001Z</time></trkpt><trkpt lat="37.00760593657312" lon="14.817152399312246"><ele>477.0</ele><time>2026-04-18T13:53:11.001Z</time></trkpt><trkpt lat="37.00768969399691" lon="14.817204639558458"><ele>476.0</ele><time>2026-04-18T13:53:12.001Z</time></trkpt><trkpt lat="37.007774460194916" lon="14.81722295869369"><ele>475.0</ele><time>2026-04-18T13:53:13.001Z</time></trkpt><trkpt lat="37.00785131886438" lon="14.817211952296878"><ele>475.00000000000006</ele><time>2026-04-18T13:53:14.001Z</time></trkpt><trkpt lat="37.00792909435043" lon="14.81718133576136"><ele>475.0</ele><time>2026-04-18T13:53:15.001Z</time></trkpt><trkpt lat="37.00800023694571" lon="14.81712822629333"><ele>475.0</ele><time>2026-04-18T13:53:16.001Z</time></trkpt><trkpt lat="37.008052183375064" lon="14.817058132307912"><ele>475.0</ele><time>2026-04-18T13:53:17.001Z</time></trkpt><trkpt lat="37.0080942032983" lon="14.816969395083774"><ele>475.00000000000006</ele><time>2026-04-18T13:53:18.001Z</time></trkpt><trkpt lat="37.008133479885075" lon="14.81685325664355"><ele>475.0</ele><time>2026-04-18T13:53:19.001Z</time></trkpt><trkpt lat="37.0081779189999" lon="14.816704171885565"><ele>474.5</ele><time>2026-04-18T13:53:20.001Z</time></trkpt><trkpt lat="37.00823462035559" lon="14.816519565329253"><ele>474.0</ele><time>2026-04-18T13:53:21.001Z</time></trkpt><trkpt lat="37.00828140751828" lon="14.816361634196545"><ele>473.5</ele><time>2026-04-18T13:53:22.001Z</time></trkpt><trkpt lat="37.00830705393807" lon="14.81622269891959"><ele>473.0</ele><time>2026-04-18T13:53:23.001Z</time></trkpt><trkpt lat="37.00830755914214" lon="14.816077970847994"><ele>472.75</ele><time>2026-04-18T13:53:24.001Z</time></trkpt><trkpt lat="37.0082840196928" lon="14.81592590220678"><ele>472.5</ele><time>2026-04-18T13:53:25.001Z</time></trkpt><trkpt lat="37.008242418169274" lon="14.815745799390543"><ele>472.25</ele><time>2026-04-18T13:53:26.001Z</time></trkpt><trkpt lat="37.0081978928328" lon="14.815564033283097"><ele>472.0</ele><time>2026-04-18T13:53:27.001Z</time></trkpt><trkpt lat="37.008171180102664" lon="14.81539811705723"><ele>472.0</ele><time>2026-04-18T13:53:28.001Z</time></trkpt><trkpt lat="37.00817175078831" lon="14.815260919664246"><ele>472.00000000000006</ele><time>2026-04-18T13:53:29.001Z</time></trkpt><trkpt lat="37.00818950663357" lon="14.815131820456042"><ele>472.00000000000006</ele><time>2026-04-18T13:53:30.001Z</time></trkpt><trkpt lat="37.008199309256526" lon="14.815005425327147"><ele>472.0</ele><time>2026-04-18T13:53:31.001Z</time></trkpt><trkpt lat="37.00817635008826" lon="14.814884883669327"><ele>472.0</ele><time>2026-04-18T13:53:32.001Z</time></trkpt><trkpt lat="37.00812409715047" lon="14.814755467952311"><ele>474.0</ele><time>2026-04-18T13:53:33.001Z</time></trkpt><trkpt lat="37.00805045422658" lon="14.814615174616605"><ele>476.0</ele><time>2026-04-18T13:53:34.001Z</time></trkpt><trkpt lat="37.007958549118584" lon="14.814439882555567"><ele>478.0</ele><time>2026-04-18T13:53:35.001Z</time></trkpt><trkpt lat="37.00785856479081" lon="14.814227137448848"><ele>481.5</ele><time>2026-04-18T13:53:36.001Z</time></trkpt><trkpt lat="37.00775989068516" lon="14.814036869144033"><ele>485.0</ele><time>2026-04-18T13:53:37.001Z</time></trkpt><trkpt lat="37.00766522710284" lon="14.813901942873622"><ele>488.5</ele><time>2026-04-18T13:53:38.001Z</time></trkpt><trkpt lat="37.00759839500476" lon="14.813792561595157"><ele>492.0</ele><time>2026-04-18T13:53:39.001Z</time></trkpt><trkpt lat="37.00755795368989" lon="14.813684554278286"><ele>492.0</ele><time>2026-04-18T13:53:40.001Z</time></trkpt><trkpt lat="37.00753756200953" lon="14.813571137147244"><ele>492.0</ele><time>2026-04-18T13:53:41.001Z</time></trkpt><trkpt lat="37.007534242698334" lon="14.813466318065245"><ele>492.0</ele><time>2026-04-18T13:53:42.001Z</time></trkpt><trkpt lat="37.00755191494669" lon="14.813384202448328"><ele>492.0</ele><time>2026-04-18T13:53:43.001Z</time></trkpt><trkpt lat="37.00758541475503" lon="14.813293828870291"><ele>492.0</ele><time>2026-04-18T13:53:44.001Z</time></trkpt><trkpt lat="37.007637987771965" lon="14.813187194781301"><ele>492.0</ele><time>2026-04-18T13:53:45.001Z</time></trkpt><trkpt lat="37.007712956865596" lon="14.813044807410037"><ele>491.66666666666663</ele><time>2026-04-18T13:53:46.001Z</time></trkpt><trkpt lat="37.00781306429814" lon="14.812864058133167"><ele>491.3333333333333</ele><time>2026-04-18T13:53:47.001Z</time></trkpt><trkpt lat="37.007941609552496" lon="14.812644212797158"><ele>491.0</ele><time>2026-04-18T13:53:48.001Z</time></trkpt><trkpt lat="37.00808188317419" lon="14.812398398912933"><ele>491.0</ele><time>2026-04-18T13:53:49.001Z</time></trkpt><trkpt lat="37.00820413764449" lon="14.812186218047293"><ele>491.0</ele><time>2026-04-18T13:53:50.001Z</time></trkpt><trkpt lat="37.00829573971892" lon="14.812024047909413"><ele>491.0</ele><time>2026-04-18T13:53:51.001Z</time></trkpt><trkpt lat="37.008371823534354" lon="14.811881320377664"><ele>492.8</ele><time>2026-04-18T13:53:52.001Z</time></trkpt><trkpt lat="37.00843699851381" lon="14.811766269702636"><ele>494.6</ele><time>2026-04-18T13:53:53.001Z</time></trkpt><trkpt lat="37.008507755566136" lon="14.811679261642873"><ele>496.4</ele><time>2026-04-18T13:53:54.001Z</time></trkpt><trkpt lat="37.00858889652625" lon="14.811615538115229"><ele>498.2</ele><time>2026-04-18T13:53:55.001Z</time></trkpt><trkpt lat="37.00868896686312" lon="14.811571508907159"><ele>500.0</ele><time>2026-04-18T13:53:56.001Z</time></trkpt><trkpt lat="37.00880252115277" lon="14.8115417225265"><ele>500.0</ele><time>2026-04-18T13:53:57.001Z</time></trkpt><trkpt lat="37.00893312599677" lon="14.811523260896161"><ele>500.0</ele><time>2026-04-18T13:53:58.001Z</time></trkpt><trkpt lat="37.00909973261565" lon="14.811511126345463"><ele>500.0</ele><time>2026-04-18T13:53:59.001Z</time></trkpt><trkpt lat="37.00927403765031" lon="14.81149239171404"><ele>502.0</ele><time>2026-04-18T13:54:00.001Z</time></trkpt><trkpt lat="37.009417851962574" lon="14.811463968721654"><ele>504.0</ele><time>2026-04-18T13:54:01.001Z</time></trkpt><trkpt lat="37.0095364780332" lon="14.811413895672423"><ele>506.0</ele><time>2026-04-18T13:54:02.001Z</time></trkpt><trkpt lat="37.00964748708798" lon="14.811337567581294"><ele>508.0</ele><time>2026-04-18T13:54:03.001Z</time></trkpt><trkpt lat="37.00975993156014" lon="14.811231491753997"><ele>508.0</ele><time>2026-04-18T13:54:04.001Z</time></trkpt><trkpt lat="37.00989719479367" lon="14.811103590790312"><ele>508.0</ele><time>2026-04-18T13:54:05.001Z</time></trkpt><trkpt lat="37.01005291788757" lon="14.810966433511592"><ele>508.0</ele><time>2026-04-18T13:54:06.001Z</time></trkpt><trkpt lat="37.01019481865674" lon="14.810858835844964"><ele>505.33333333333337</ele><time>2026-04-18T13:54:07.001Z</time></trkpt><trkpt lat="37.01034120960806" lon="14.810768789427938"><ele>502.66666666666663</ele><time>2026-04-18T13:54:08.001Z</time></trkpt><trkpt lat="37.010496259935756" lon="14.81068364872253"><ele>500.0</ele><time>2026-04-18T13:54:09.001Z</time></trkpt><trkpt lat="37.01066230630303" lon="14.810590525838961"><ele>505.5</ele><time>2026-04-18T13:54:10.001Z</time></trkpt><trkpt lat="37.01086072554583" lon="14.81048418089306"><ele>511.0</ele><time>2026-04-18T13:54:11.001Z</time></trkpt><trkpt lat="37.01108030035539" lon="14.81037283937403"><ele>511.0</ele><time>2026-04-18T13:54:12.001Z</time></trkpt><trkpt lat="37.01130693712281" lon="14.81026693469647"><ele>511.0</ele><time>2026-04-18T13:54:13.001Z</time></trkpt><trkpt lat="37.01151784852755" lon="14.81017586598489"><ele>508.6666666666667</ele><time>2026-04-18T13:54:14.001Z</time></trkpt><trkpt lat="37.011738341724715" lon="14.810091677221697"><ele>506.33333333333337</ele><time>2026-04-18T13:54:15.001Z</time></trkpt><trkpt lat="37.01194260001" lon="14.810015531740493"><ele>504.0</ele><time>2026-04-18T13:54:16.001Z</time></trkpt><trkpt lat="37.01212198145762" lon="14.80995141032456"><ele>504.0</ele><time>2026-04-18T13:54:17.001Z</time></trkpt><trkpt lat="37.01226737649733" lon="14.809897560090713"><ele>504.0</ele><time>2026-04-18T13:54:18.001Z</time></trkpt><trkpt lat="37.012398292152476" lon="14.80986159687386"><ele>504.0</ele><time>2026-04-18T13:54:19.001Z</time></trkpt><trkpt lat="37.01251866548488" lon="14.809843838624984"><ele>504.0</ele><time>2026-04-18T13:54:20.001Z</time></trkpt><trkpt lat="37.0126494999651" lon="14.80984225710691"><ele>506.33333333333337</ele><time>2026-04-18T13:54:21.001Z</time></trkpt><trkpt lat="37.01280868905325" lon="14.809857525879833"><ele>508.6666666666667</ele><time>2026-04-18T13:54:22.001Z</time></trkpt><trkpt lat="37.01300919756408" lon="14.809878057523521"><ele>511.0</ele><time>2026-04-18T13:54:23.001Z</time></trkpt><trkpt lat="37.01323923647161" lon="14.809896341344068"><ele>510.33333333333337</ele><time>2026-04-18T13:54:24.001Z</time></trkpt><trkpt lat="37.013453955865494" lon="14.80990857550309"><ele>509.66666666666663</ele><time>2026-04-18T13:54:25.001Z</time></trkpt><trkpt lat="37.01363980548847" lon="14.809908769165292"><ele>509.0</ele><time>2026-04-18T13:54:26.001Z</time></trkpt><trkpt lat="37.01380992681311" lon="14.809893374003908"><ele>509.0</ele><time>2026-04-18T13:54:27.001Z</time></trkpt><trkpt lat="37.013983534225105" lon="14.809861827137695"><ele>509.0</ele><time>2026-04-18T13:54:28.001Z</time></trkpt><trkpt lat="37.01414633384892" lon="14.809817933650299"><ele>509.0</ele><time>2026-04-18T13:54:29.001Z</time></trkpt><trkpt lat="37.01428934694738" lon="14.809768055421944"><ele>509.66666666666663</ele><time>2026-04-18T13:54:30.001Z</time></trkpt><trkpt lat="37.014440862918846" lon="14.809716112741281"><ele>510.33333333333337</ele><time>2026-04-18T13:54:31.001Z</time></trkpt><trkpt lat="37.01460315728244" lon="14.809678021839046"><ele>511.0</ele><time>2026-04-18T13:54:32.001Z</time></trkpt><trkpt lat="37.0147683692367" lon="14.809656566476052"><ele>511.0</ele><time>2026-04-18T13:54:33.001Z</time></trkpt><trkpt lat="37.014898662462606" lon="14.809650698543972"><ele>511.0</ele><time>2026-04-18T13:54:34.001Z</time></trkpt><trkpt lat="37.01500675025489" lon="14.809655711789308"><ele>511.0</ele><time>2026-04-18T13:54:35.001Z</time></trkpt><trkpt lat="37.01511469087528" lon="14.809673124846391"><ele>511.0</ele><time>2026-04-18T13:54:36.001Z</time></trkpt><trkpt lat="37.01522340255561" lon="14.809708647018745"><ele>512.5</ele><time>2026-04-18T13:54:37.001Z</time></trkpt><trkpt lat="37.01531639026588" lon="14.809789351921594"><ele>514.0</ele><time>2026-04-18T13:54:38.001Z</time></trkpt><trkpt lat="37.01542762552062" lon="14.80986465349112"><ele>515.5</ele><time>2026-04-18T13:54:39.001Z</time></trkpt><trkpt lat="37.01557286177501" lon="14.809961363296837"><ele>517.0</ele><time>2026-04-18T13:54:40.001Z</time></trkpt><trkpt lat="37.01573446296155" lon="14.810038783306334"><ele>517.0</ele><time>2026-04-18T13:54:41.001Z</time></trkpt><trkpt lat="37.015864807208345" lon="14.810109478805915"><ele>517.0</ele><time>2026-04-18T13:54:42.001Z</time></trkpt><trkpt lat="37.01597825202768" lon="14.810151112775952"><ele>517.0</ele><time>2026-04-18T13:54:43.001Z</time></trkpt><trkpt lat="37.01608050348678" lon="14.810169798446283"><ele>517.0</ele><time>2026-04-18T13:54:44.001Z</time></trkpt><trkpt lat="37.016163382788015" lon="14.810162885555856"><ele>517.0</ele><time>2026-04-18T13:54:45.001Z</time></trkpt><trkpt lat="37.016229055488814" lon="14.810128738604547"><ele>517.0</ele><time>2026-04-18T13:54:46.001Z</time></trkpt><trkpt lat="37.01627778760782" lon="14.810071732394166"><ele>517.0</ele><time>2026-04-18T13:54:47.001Z</time></trkpt><trkpt lat="37.01632117514805" lon="14.809998532196966"><ele>517.0</ele><time>2026-04-18T13:54:48.001Z</time></trkpt><trkpt lat="37.01636673942604" lon="14.809932757770882"><ele>517.0</ele><time>2026-04-18T13:54:49.001Z</time></trkpt><trkpt lat="37.016476943783815" lon="14.80988780092242"><ele>517.0</ele><time>2026-04-18T13:54:51.001Z</time></trkpt><trkpt lat="37.01655341001409" lon="14.809898738644781"><ele>517.0</ele><time>2026-04-18T13:54:52.001Z</time></trkpt><trkpt lat="37.01664036608501" lon="14.809929302522068"><ele>517.0</ele><time>2026-04-18T13:54:53.001Z</time></trkpt><trkpt lat="37.01673663515113" lon="14.80997657535086"><ele>517.0</ele><time>2026-04-18T13:54:54.001Z</time></trkpt><trkpt lat="37.01685138722173" lon="14.810074456139898"><ele>517.0</ele><time>2026-04-18T13:54:55.001Z</time></trkpt><trkpt lat="37.01702246703701" lon="14.810161974828299"><ele>517.0</ele><time>2026-04-18T13:54:56.001Z</time></trkpt><trkpt lat="37.01718682592855" lon="14.810244398637908"><ele>517.3333333333334</ele><time>2026-04-18T13:54:57.001Z</time></trkpt><trkpt lat="37.01733840586914" lon="14.810294282617038"><ele>517.6666666666666</ele><time>2026-04-18T13:54:58.001Z</time></trkpt><trkpt lat="37.01748587457304" lon="14.810347904024018"><ele>518.0</ele><time>2026-04-18T13:54:59.001Z</time></trkpt><trkpt lat="37.01763903730725" lon="14.810392030389174"><ele>518.0</ele><time>2026-04-18T13:55:00.001Z</time></trkpt><trkpt lat="37.01778909806029" lon="14.810430603591653"><ele>518.0</ele><time>2026-04-18T13:55:01.001Z</time></trkpt><trkpt lat="37.01793910538403" lon="14.810487166273713"><ele>518.0</ele><time>2026-04-18T13:55:02.001Z</time></trkpt><trkpt lat="37.01809830219417" lon="14.810507631136598"><ele>518.0</ele><time>2026-04-18T13:55:03.001Z</time></trkpt><trkpt lat="37.01827111626186" lon="14.810488303415264"><ele>518.0</ele><time>2026-04-18T13:55:04.001Z</time></trkpt><trkpt lat="37.01847066402074" lon="14.810493168395725"><ele>518.0</ele><time>2026-04-18T13:55:05.001Z</time></trkpt><trkpt lat="37.01866168213818" lon="14.81049360159067"><ele>519.0</ele><time>2026-04-18T13:55:06.001Z</time></trkpt><trkpt lat="37.01883008359723" lon="14.81049718717518"><ele>520.0</ele><time>2026-04-18T13:55:07.001Z</time></trkpt><trkpt lat="37.01898848147995" lon="14.810515046974324"><ele>521.0</ele><time>2026-04-18T13:55:08.001Z</time></trkpt><trkpt lat="37.01913074453293" lon="14.810546463838524"><ele>521.1666666666666</ele><time>2026-04-18T13:55:09.001Z</time></trkpt><trkpt lat="37.01924340191826" lon="14.810578895380269"><ele>521.3333333333333</ele><time>2026-04-18T13:55:10.001Z</time></trkpt><trkpt lat="37.01933684325317" lon="14.810599499256442"><ele>521.5</ele><time>2026-04-18T13:55:11.001Z</time></trkpt><trkpt lat="37.019404381741296" lon="14.81061067060428"><ele>521.6666666666666</ele><time>2026-04-18T13:55:12.001Z</time></trkpt><trkpt lat="37.01948220947057" lon="14.810619307228503"><ele>521.8333333333334</ele><time>2026-04-18T13:55:14.001Z</time></trkpt><trkpt lat="37.01955347791269" lon="14.810613299840602"><ele>522.0</ele><time>2026-04-18T13:55:18.001Z</time></trkpt><trkpt lat="37.01962277751546" lon="14.810615497764664"><ele>522.0</ele><time>2026-04-18T13:55:21.001Z</time></trkpt><trkpt lat="37.019716353147864" lon="14.810597255340085"><ele>522.0</ele><time>2026-04-18T13:55:24.001Z</time></trkpt><trkpt lat="37.01979754001026" lon="14.810587702398683"><ele>522.0</ele><time>2026-04-18T13:55:26.001Z</time></trkpt><trkpt lat="37.01988825800946" lon="14.810575733525821"><ele>522.0</ele><time>2026-04-18T13:55:28.001Z</time></trkpt><trkpt lat="37.0199810764849" lon="14.81055988589872"><ele>522.0</ele><time>2026-04-18T13:55:30.001Z</time></trkpt><trkpt lat="37.02007825985512" lon="14.81055100450207"><ele>522.0</ele><time>2026-04-18T13:55:32.001Z</time></trkpt><trkpt lat="37.02017666391376" lon="14.810526080085681"><ele>522.0</ele><time>2026-04-18T13:55:34.001Z</time></trkpt><trkpt lat="37.02027467613536" lon="14.810509417157007"><ele>522.0</ele><time>2026-04-18T13:55:36.001Z</time></trkpt><trkpt lat="37.02037823219704" lon="14.810495823084015"><ele>522.0</ele><time>2026-04-18T13:55:38.001Z</time></trkpt><trkpt lat="37.02048450920779" lon="14.810484309426386"><ele>522.0</ele><time>2026-04-18T13:55:40.001Z</time></trkpt><trkpt lat="37.02058025056715" lon="14.810479395835898"><ele>522.0</ele><time>2026-04-18T13:55:42.001Z</time></trkpt><trkpt lat="37.02067206497971" lon="14.810486800653372"><ele>522.0</ele><time>2026-04-18T13:55:44.001Z</time></trkpt><trkpt lat="37.02076381445892" lon="14.810495124709144"><ele>522.0</ele><time>2026-04-18T13:55:46.001Z</time></trkpt><trkpt lat="37.02085362751137" lon="14.810525128864505"><ele>522.0</ele><time>2026-04-18T13:55:48.001Z</time></trkpt><trkpt lat="37.0209448499244" lon="14.8105438457895"><ele>522.0</ele><time>2026-04-18T13:55:50.001Z</time></trkpt><trkpt lat="37.02104011054224" lon="14.81054824214832"><ele>522.4285714285714</ele><time>2026-04-18T13:55:52.001Z</time></trkpt><trkpt lat="37.021125159097885" lon="14.810569229189431"><ele>522.8571428571429</ele><time>2026-04-18T13:55:54.001Z</time></trkpt><trkpt lat="37.021185584243064" lon="14.810605493624971"><ele>523.2857142857142</ele><time>2026-04-18T13:55:57.001Z</time></trkpt><trkpt lat="37.02125096479259" lon="14.81062062527661"><ele>523.7142857142858</ele><time>2026-04-18T13:56:26.001Z</time></trkpt><trkpt lat="37.0213333601185" lon="14.810639349048468"><ele>524.1428571428571</ele><time>2026-04-18T13:56:39.001Z</time></trkpt><trkpt lat="37.02139557143906" lon="14.81065239423128"><ele>524.5714285714286</ele><time>2026-04-18T13:56:40.001Z</time></trkpt><trkpt lat="37.02146710223295" lon="14.810673833907927"><ele>525.0</ele><time>2026-04-18T13:56:41.001Z</time></trkpt><trkpt lat="37.0215447206566" lon="14.810695742531795"><ele>525.0</ele><time>2026-04-18T13:56:42.001Z</time></trkpt><trkpt lat="37.02162707086714" lon="14.81071360122756"><ele>525.0</ele><time>2026-04-18T13:56:43.001Z</time></trkpt><trkpt lat="37.021715297877414" lon="14.810726414787599"><ele>525.0</ele><time>2026-04-18T13:56:44.001Z</time></trkpt><trkpt lat="37.021808710500395" lon="14.810732562748116"><ele>525.0</ele><time>2026-04-18T13:56:45.001Z</time></trkpt><trkpt lat="37.021904205233625" lon="14.81073301323282"><ele>525.0</ele><time>2026-04-18T13:56:46.001Z</time></trkpt><trkpt lat="37.02200379776162" lon="14.810725231675052"><ele>526.75</ele><time>2026-04-18T13:56:47.001Z</time></trkpt><trkpt lat="37.0221067225269" lon="14.81071023852129"><ele>528.5</ele><time>2026-04-18T13:56:48.001Z</time></trkpt><trkpt lat="37.022222315288055" lon="14.810693154366673"><ele>530.25</ele><time>2026-04-18T13:56:49.001Z</time></trkpt><trkpt lat="37.02234094693802" lon="14.810675886969374"><ele>532.0</ele><time>2026-04-18T13:56:50.001Z</time></trkpt><trkpt lat="37.022497233074304" lon="14.810668778702425"><ele>533.0</ele><time>2026-04-18T13:56:52.001Z</time></trkpt><trkpt lat="37.02259439082784" lon="14.810661938574238"><ele>534.0</ele><time>2026-04-18T13:56:53.001Z</time></trkpt><trkpt lat="37.02269243555507" lon="14.810654466842688"><ele>535.0</ele><time>2026-04-18T13:56:54.001Z</time></trkpt><trkpt lat="37.02278854809001" lon="14.810643224750935"><ele>536.0</ele><time>2026-04-18T13:56:55.001Z</time></trkpt><trkpt lat="37.02288550248061" lon="14.810613244094267"><ele>537.0</ele><time>2026-04-18T13:56:56.001Z</time></trkpt><trkpt lat="37.02298418837456" lon="14.810571671292626"><ele>537.0</ele><time>2026-04-18T13:56:57.001Z</time></trkpt><trkpt lat="37.02307700278022" lon="14.81051844677843"><ele>537.0</ele><time>2026-04-18T13:56:58.001Z</time></trkpt><trkpt lat="37.023152007265956" lon="14.810451109878505"><ele>537.0</ele><time>2026-04-18T13:56:59.001Z</time></trkpt><trkpt lat="37.02321652890182" lon="14.810375686196268"><ele>537.0</ele><time>2026-04-18T13:57:00.001Z</time></trkpt><trkpt lat="37.023274176187925" lon="14.810290137916525"><ele>537.0</ele><time>2026-04-18T13:57:01.001Z</time></trkpt><trkpt lat="37.02333317731575" lon="14.81019359063127"><ele>539.2</ele><time>2026-04-18T13:57:02.001Z</time></trkpt><trkpt lat="37.02339921432829" lon="14.810077387067233"><ele>541.4000000000001</ele><time>2026-04-18T13:57:03.001Z</time></trkpt><trkpt lat="37.02345850686397" lon="14.809958509641778"><ele>543.5999999999999</ele><time>2026-04-18T13:57:04.001Z</time></trkpt><trkpt lat="37.02350151561849" lon="14.809851733031397"><ele>545.8</ele><time>2026-04-18T13:57:05.001Z</time></trkpt><trkpt lat="37.0235329900306" lon="14.809729226273898"><ele>548.0</ele><time>2026-04-18T13:57:06.001Z</time></trkpt><trkpt lat="37.02356444851854" lon="14.809585668064457"><ele>548.0</ele><time>2026-04-18T13:57:07.001Z</time></trkpt><trkpt lat="37.023597691119804" lon="14.809431678420252"><ele>548.0</ele><time>2026-04-18T13:57:08.001Z</time></trkpt><trkpt lat="37.02363478815058" lon="14.809282315087374"><ele>548.0</ele><time>2026-04-18T13:57:09.001Z</time></trkpt><trkpt lat="37.023670024205565" lon="14.809157787650246"><ele>548.0</ele><time>2026-04-18T13:57:10.001Z</time></trkpt><trkpt lat="37.02371885762815" lon="14.809058460958115"><ele>549.0</ele><time>2026-04-18T13:57:11.001Z</time></trkpt><trkpt lat="37.02380262367458" lon="14.808986116507173"><ele>550.0</ele><time>2026-04-18T13:57:12.001Z</time></trkpt><trkpt lat="37.023890092574206" lon="14.808857898327743"><ele>551.0</ele><time>2026-04-18T13:57:13.001Z</time></trkpt><trkpt lat="37.023977827340225" lon="14.808748274427646"><ele>552.0</ele><time>2026-04-18T13:57:14.001Z</time></trkpt><trkpt lat="37.02405246041239" lon="14.80863116625553"><ele>552.0</ele><time>2026-04-18T13:57:15.001Z</time></trkpt><trkpt lat="37.024113482653796" lon="14.808508085638243"><ele>552.0</ele><time>2026-04-18T13:57:16.001Z</time></trkpt><trkpt lat="37.024171295134" lon="14.808377743429402"><ele>552.0</ele><time>2026-04-18T13:57:17.001Z</time></trkpt><trkpt lat="37.02423389797479" lon="14.808244042531797"><ele>552.0</ele><time>2026-04-18T13:57:18.001Z</time></trkpt><trkpt lat="37.02431039233125" lon="14.808109491528317"><ele>548.75</ele><time>2026-04-18T13:57:19.001Z</time></trkpt><trkpt lat="37.02439447770254" lon="14.807967772088913"><ele>545.5</ele><time>2026-04-18T13:57:20.001Z</time></trkpt><trkpt lat="37.02448582286985" lon="14.807817703966627"><ele>542.25</ele><time>2026-04-18T13:57:21.001Z</time></trkpt><trkpt lat="37.02457168754187" lon="14.80766305775825"><ele>539.0</ele><time>2026-04-18T13:57:22.001Z</time></trkpt><trkpt lat="37.024653165330896" lon="14.80750535525984"><ele>535.75</ele><time>2026-04-18T13:57:23.001Z</time></trkpt><trkpt lat="37.02472515557966" lon="14.807352078947252"><ele>532.5</ele><time>2026-04-18T13:57:24.001Z</time></trkpt><trkpt lat="37.02478997743885" lon="14.807204941371007"><ele>529.25</ele><time>2026-04-18T13:57:25.001Z</time></trkpt><trkpt lat="37.02485326185519" lon="14.807062769186988"><ele>526.0</ele><time>2026-04-18T13:57:26.001Z</time></trkpt><trkpt lat="37.024912557725344" lon="14.806940257587195"><ele>526.0</ele><time>2026-04-18T13:57:27.001Z</time></trkpt><trkpt lat="37.02496656891843" lon="14.806847169226796"><ele>526.0</ele><time>2026-04-18T13:57:28.001Z</time></trkpt><trkpt lat="37.02501767828392" lon="14.806773928543931"><ele>526.0</ele><time>2026-04-18T13:57:29.001Z</time></trkpt><trkpt lat="37.025072612255535" lon="14.806723515171125"><ele>526.0</ele><time>2026-04-18T13:57:30.001Z</time></trkpt><trkpt lat="37.02513414049919" lon="14.80668536423006"><ele>526.0</ele><time>2026-04-18T13:57:31.001Z</time></trkpt><trkpt lat="37.02520407800787" lon="14.806665345934125"><ele>526.0</ele><time>2026-04-18T13:57:32.001Z</time></trkpt><trkpt lat="37.02527866459746" lon="14.806690011991732"><ele>525.0</ele><time>2026-04-18T13:57:33.001Z</time></trkpt><trkpt lat="37.025361375249155" lon="14.806684865102056"><ele>524.0</ele><time>2026-04-18T13:57:34.001Z</time></trkpt><trkpt lat="37.025440790698674" lon="14.806649157305943"><ele>523.0</ele><time>2026-04-18T13:57:35.001Z</time></trkpt><trkpt lat="37.02551274636332" lon="14.806617216179127"><ele>522.0</ele><time>2026-04-18T13:57:36.001Z</time></trkpt><trkpt lat="37.02557569866381" lon="14.806563439166425"><ele>521.0</ele><time>2026-04-18T13:57:37.001Z</time></trkpt><trkpt lat="37.02562979253119" lon="14.806488277919344"><ele>520.0</ele><time>2026-04-18T13:57:38.001Z</time></trkpt><trkpt lat="37.0256684524085" lon="14.80640180774007"><ele>520.0</ele><time>2026-04-18T13:57:39.001Z</time></trkpt><trkpt lat="37.025693453883044" lon="14.806304953004616"><ele>520.0</ele><time>2026-04-18T13:57:40.001Z</time></trkpt><trkpt lat="37.02571313284852" lon="14.806205245748457"><ele>520.0</ele><time>2026-04-18T13:57:41.001Z</time></trkpt><trkpt lat="37.02573996527303" lon="14.806121557179747"><ele>520.0</ele><time>2026-04-18T13:57:42.001Z</time></trkpt><trkpt lat="37.02578580201559" lon="14.806049308354632"><ele>520.0</ele><time>2026-04-18T13:57:43.001Z</time></trkpt><trkpt lat="37.02586969929215" lon="14.805995186054883"><ele>520.0</ele><time>2026-04-18T13:57:44.001Z</time></trkpt><trkpt lat="37.02596984848251" lon="14.805908623354881"><ele>518.75</ele><time>2026-04-18T13:57:45.001Z</time></trkpt><trkpt lat="37.02607118454148" lon="14.80580466035313"><ele>517.5</ele><time>2026-04-18T13:57:46.001Z</time></trkpt><trkpt lat="37.02616662579331" lon="14.805733376368782"><ele>516.25</ele><time>2026-04-18T13:57:47.001Z</time></trkpt><trkpt lat="37.02626865493777" lon="14.805670431617438"><ele>515.0</ele><time>2026-04-18T13:57:48.001Z</time></trkpt><trkpt lat="37.02636737380999" lon="14.805622575680092"><ele>515.0</ele><time>2026-04-18T13:57:49.001Z</time></trkpt><trkpt lat="37.02647533416877" lon="14.805596897434887"><ele>515.0</ele><time>2026-04-18T13:57:50.001Z</time></trkpt><trkpt lat="37.026606662471934" lon="14.805593643614277"><ele>515.0</ele><time>2026-04-18T13:57:51.001Z</time></trkpt><trkpt lat="37.02675030933842" lon="14.805572511872635"><ele>515.0</ele><time>2026-04-18T13:57:52.001Z</time></trkpt><trkpt lat="37.02689227322265" lon="14.80555004141407"><ele>516.4</ele><time>2026-04-18T13:57:53.001Z</time></trkpt><trkpt lat="37.02701589456971" lon="14.805530045876756"><ele>517.8</ele><time>2026-04-18T13:57:54.001Z</time></trkpt><trkpt lat="37.027128918610835" lon="14.805515307966626"><ele>519.2</ele><time>2026-04-18T13:57:55.001Z</time></trkpt><trkpt lat="37.027227968282105" lon="14.805513226076036"><ele>520.6</ele><time>2026-04-18T13:57:56.001Z</time></trkpt><trkpt lat="37.0273150521912" lon="14.805524617978135"><ele>522.0</ele><time>2026-04-18T13:57:57.001Z</time></trkpt><trkpt lat="37.027398386501666" lon="14.805543161828341"><ele>521.1666666666666</ele><time>2026-04-18T13:57:58.001Z</time></trkpt><trkpt lat="37.02748319881282" lon="14.805538989270385"><ele>520.3333333333334</ele><time>2026-04-18T13:57:59.001Z</time></trkpt><trkpt lat="37.02756388777437" lon="14.805534317239564"><ele>519.5</ele><time>2026-04-18T13:58:00.001Z</time></trkpt><trkpt lat="37.02763283602441" lon="14.805497894243436"><ele>518.6666666666667</ele><time>2026-04-18T13:58:01.001Z</time></trkpt><trkpt lat="37.02768014851838" lon="14.805432132871594"><ele>517.8333333333334</ele><time>2026-04-18T13:58:02.001Z</time></trkpt><trkpt lat="37.027716393185095" lon="14.805345038420628"><ele>517.0</ele><time>2026-04-18T13:58:03.001Z</time></trkpt><trkpt lat="37.02774905529139" lon="14.805231626889467"><ele>514.6</ele><time>2026-04-18T13:58:04.001Z</time></trkpt><trkpt lat="37.027792421522484" lon="14.805106035905471"><ele>512.2</ele><time>2026-04-18T13:58:05.001Z</time></trkpt><trkpt lat="37.027852946074276" lon="14.804993762310708"><ele>509.8</ele><time>2026-04-18T13:58:06.001Z</time></trkpt><trkpt lat="37.02792487487824" lon="14.804905372144484"><ele>507.4</ele><time>2026-04-18T13:58:07.001Z</time></trkpt><trkpt lat="37.02801294717653" lon="14.804820915617302"><ele>505.0</ele><time>2026-04-18T13:58:08.001Z</time></trkpt><trkpt lat="37.02811025257152" lon="14.804753197284722"><ele>505.0</ele><time>2026-04-18T13:58:09.001Z</time></trkpt><trkpt lat="37.02821131751868" lon="14.80473314339263"><ele>505.0</ele><time>2026-04-18T13:58:10.001Z</time></trkpt><trkpt lat="37.02831598036456" lon="14.804718961007307"><ele>505.0</ele><time>2026-04-18T13:58:11.001Z</time></trkpt><trkpt lat="37.028440320522044" lon="14.804708961715168"><ele>505.0</ele><time>2026-04-18T13:58:12.001Z</time></trkpt><trkpt lat="37.02857510217611" lon="14.804695304582005"><ele>506.0</ele><time>2026-04-18T13:58:13.001Z</time></trkpt><trkpt lat="37.02869721031442" lon="14.804690136842316"><ele>507.0</ele><time>2026-04-18T13:58:14.001Z</time></trkpt><trkpt lat="37.02881975899914" lon="14.804711473292388"><ele>508.0</ele><time>2026-04-18T13:58:15.001Z</time></trkpt><trkpt lat="37.028945449386036" lon="14.804747667513276"><ele>509.0</ele><time>2026-04-18T13:58:16.001Z</time></trkpt><trkpt lat="37.02907515652001" lon="14.804784733358467"><ele>508.25</ele><time>2026-04-18T13:58:17.001Z</time></trkpt><trkpt lat="37.029197906554984" lon="14.804785925112322"><ele>507.5</ele><time>2026-04-18T13:58:18.001Z</time></trkpt><trkpt lat="37.02931105457729" lon="14.804787275639141"><ele>506.75</ele><time>2026-04-18T13:58:19.001Z</time></trkpt><trkpt lat="37.02942949364" lon="14.804761731004294"><ele>506.0</ele><time>2026-04-18T13:58:20.001Z</time></trkpt><trkpt lat="37.029563389007905" lon="14.80472150487041"><ele>506.0</ele><time>2026-04-18T13:58:21.001Z</time></trkpt><trkpt lat="37.029706319345706" lon="14.804682613794581"><ele>506.0</ele><time>2026-04-18T13:58:22.001Z</time></trkpt><trkpt lat="37.02985252025395" lon="14.804634634253194"><ele>506.0</ele><time>2026-04-18T13:58:23.001Z</time></trkpt><trkpt lat="37.02999047030423" lon="14.804607364445175"><ele>506.0</ele><time>2026-04-18T13:58:24.001Z</time></trkpt><trkpt lat="37.03012878187516" lon="14.804618135352548"><ele>504.5</ele><time>2026-04-18T13:58:25.001Z</time></trkpt><trkpt lat="37.03027733251043" lon="14.80463497139172"><ele>503.0</ele><time>2026-04-18T13:58:26.001Z</time></trkpt><trkpt lat="37.030427078151995" lon="14.804603535255296"><ele>501.5</ele><time>2026-04-18T13:58:27.001Z</time></trkpt><trkpt lat="37.030566380129464" lon="14.804580524096519"><ele>500.0</ele><time>2026-04-18T13:58:28.001Z</time></trkpt><trkpt lat="37.030691213984035" lon="14.804543590193108"><ele>500.0</ele><time>2026-04-18T13:58:29.001Z</time></trkpt><trkpt lat="37.03080463428163" lon="14.804494487049112"><ele>500.0</ele><time>2026-04-18T13:58:30.001Z</time></trkpt><trkpt lat="37.03091481114367" lon="14.804430456447115"><ele>500.0</ele><time>2026-04-18T13:58:31.001Z</time></trkpt><trkpt lat="37.03103267286301" lon="14.804341158046364"><ele>500.0</ele><time>2026-04-18T13:58:32.001Z</time></trkpt><trkpt lat="37.0311469632773" lon="14.804232223530839"><ele>498.0</ele><time>2026-04-18T13:58:33.001Z</time></trkpt><trkpt lat="37.03126409329884" lon="14.804125719482125"><ele>496.0</ele><time>2026-04-18T13:58:34.001Z</time></trkpt><trkpt lat="37.03137411797333" lon="14.804054826737902"><ele>494.0</ele><time>2026-04-18T13:58:35.001Z</time></trkpt><trkpt lat="37.03148519089871" lon="14.804018657734028"><ele>492.0</ele><time>2026-04-18T13:58:36.001Z</time></trkpt><trkpt lat="37.03161616822765" lon="14.804026403489358"><ele>491.75</ele><time>2026-04-18T13:58:37.001Z</time></trkpt><trkpt lat="37.031761121981674" lon="14.803972820614991"><ele>491.5</ele><time>2026-04-18T13:58:38.001Z</time></trkpt><trkpt lat="37.031906950408064" lon="14.80393032763165"><ele>491.25</ele><time>2026-04-18T13:58:39.001Z</time></trkpt><trkpt lat="37.032027250465774" lon="14.803864899027532"><ele>491.0</ele><time>2026-04-18T13:58:40.001Z</time></trkpt><trkpt lat="37.03213914314881" lon="14.803770953282148"><ele>491.0</ele><time>2026-04-18T13:58:41.001Z</time></trkpt><trkpt lat="37.03225208604718" lon="14.803651727343446"><ele>491.0</ele><time>2026-04-18T13:58:42.001Z</time></trkpt><trkpt lat="37.03236466338637" lon="14.803521260944486"><ele>491.0</ele><time>2026-04-18T13:58:43.001Z</time></trkpt><trkpt lat="37.03246509409702" lon="14.803402361192017"><ele>491.0</ele><time>2026-04-18T13:58:44.001Z</time></trkpt><trkpt lat="37.03256160036669" lon="14.80329356506929"><ele>490.5</ele><time>2026-04-18T13:58:45.001Z</time></trkpt><trkpt lat="37.03266416839537" lon="14.803175530196858"><ele>490.0</ele><time>2026-04-18T13:58:46.001Z</time></trkpt><trkpt lat="37.032750350431925" lon="14.803064917924278"><ele>489.5</ele><time>2026-04-18T13:58:47.001Z</time></trkpt><trkpt lat="37.03281890679224" lon="14.802961313852018"><ele>489.0</ele><time>2026-04-18T13:58:48.001Z</time></trkpt><trkpt lat="37.03287605304193" lon="14.8028518048274"><ele>489.0</ele><time>2026-04-18T13:58:49.001Z</time></trkpt><trkpt lat="37.03292896868517" lon="14.802725160406807"><ele>489.0</ele><time>2026-04-18T13:58:50.001Z</time></trkpt><trkpt lat="37.0329751607477" lon="14.80259088006973"><ele>489.0</ele><time>2026-04-18T13:58:51.001Z</time></trkpt><trkpt lat="37.0330195084501" lon="14.802472931141995"><ele>489.0</ele><time>2026-04-18T13:58:52.001Z</time></trkpt><trkpt lat="37.03307717037474" lon="14.80237342318908"><ele>489.0</ele><time>2026-04-18T13:58:53.001Z</time></trkpt><trkpt lat="37.033154288173" lon="14.802264866046306"><ele>489.0</ele><time>2026-04-18T13:58:54.001Z</time></trkpt><trkpt lat="37.03323421452734" lon="14.802153508898396"><ele>489.0</ele><time>2026-04-18T13:58:55.001Z</time></trkpt><trkpt lat="37.033292869212175" lon="14.802045566607969"><ele>489.0</ele><time>2026-04-18T13:58:56.001Z</time></trkpt><trkpt lat="37.03332637800358" lon="14.80193171229882"><ele>489.0</ele><time>2026-04-18T13:58:57.001Z</time></trkpt><trkpt lat="37.03333863603678" lon="14.801802851089098"><ele>489.0</ele><time>2026-04-18T13:58:58.001Z</time></trkpt><trkpt lat="37.03332894189535" lon="14.801658081630745"><ele>488.79999999999995</ele><time>2026-04-18T13:58:59.001Z</time></trkpt><trkpt lat="37.03333147884814" lon="14.801497078997183"><ele>488.59999999999997</ele><time>2026-04-18T13:59:00.001Z</time></trkpt><trkpt lat="37.033317114243125" lon="14.801345847827944"><ele>488.4</ele><time>2026-04-18T13:59:01.001Z</time></trkpt><trkpt lat="37.033297385204385" lon="14.801217450260953"><ele>488.2</ele><time>2026-04-18T13:59:02.001Z</time></trkpt><trkpt lat="37.03331858066485" lon="14.801104544872095"><ele>488.0</ele><time>2026-04-18T13:59:03.001Z</time></trkpt><trkpt lat="37.033374966811635" lon="14.801017116749957"><ele>487.4</ele><time>2026-04-18T13:59:04.001Z</time></trkpt><trkpt lat="37.03341354760448" lon="14.80091271965202"><ele>486.79999999999995</ele><time>2026-04-18T13:59:05.001Z</time></trkpt><trkpt lat="37.033487438913845" lon="14.800820720345566"><ele>486.2</ele><time>2026-04-18T13:59:06.001Z</time></trkpt><trkpt lat="37.03357923042877" lon="14.800737507984138"><ele>485.6</ele><time>2026-04-18T13:59:07.001Z</time></trkpt><trkpt lat="37.03367497490998" lon="14.800672492056659"><ele>485.0</ele><time>2026-04-18T13:59:08.001Z</time></trkpt><trkpt lat="37.03378104067278" lon="14.800656890708773"><ele>485.0</ele><time>2026-04-18T13:59:09.001Z</time></trkpt><trkpt lat="37.03389880374121" lon="14.800620895048205"><ele>485.0</ele><time>2026-04-18T13:59:10.001Z</time></trkpt><trkpt lat="37.03402977447853" lon="14.800565155088197"><ele>485.0</ele><time>2026-04-18T13:59:11.001Z</time></trkpt><trkpt lat="37.03415752622028" lon="14.80052180630559"><ele>485.0</ele><time>2026-04-18T13:59:12.001Z</time></trkpt><trkpt lat="37.03428868161463" lon="14.800443944077552"><ele>486.0</ele><time>2026-04-18T13:59:13.001Z</time></trkpt><trkpt lat="37.034420181208205" lon="14.800338627337652"><ele>487.0</ele><time>2026-04-18T13:59:14.001Z</time></trkpt><trkpt lat="37.034558618048116" lon="14.800220049822235"><ele>488.0</ele><time>2026-04-18T13:59:15.001Z</time></trkpt><trkpt lat="37.03471481758191" lon="14.800093478679972"><ele>486.66666666666663</ele><time>2026-04-18T13:59:16.001Z</time></trkpt><trkpt lat="37.034885221412004" lon="14.799952321707199"><ele>485.33333333333337</ele><time>2026-04-18T13:59:17.001Z</time></trkpt><trkpt lat="37.0350368174143" lon="14.799826751896948"><ele>484.0</ele><time>2026-04-18T13:59:18.001Z</time></trkpt><trkpt lat="37.035171818679366" lon="14.7997235486736"><ele>484.0</ele><time>2026-04-18T13:59:19.001Z</time></trkpt><trkpt lat="37.035287479037486" lon="14.799630099272775"><ele>484.0</ele><time>2026-04-18T13:59:20.001Z</time></trkpt><trkpt lat="37.03539249432315" lon="14.799536565392648"><ele>484.0</ele><time>2026-04-18T13:59:21.001Z</time></trkpt><trkpt lat="37.03547815046679" lon="14.799438563426888"><ele>484.0</ele><time>2026-04-18T13:59:22.001Z</time></trkpt><trkpt lat="37.035546665657435" lon="14.79933138047149"><ele>483.6</ele><time>2026-04-18T13:59:23.001Z</time></trkpt><trkpt lat="37.03560362207863" lon="14.79921409871634"><ele>483.2</ele><time>2026-04-18T13:59:24.001Z</time></trkpt><trkpt lat="37.03567289513907" lon="14.799104944938007"><ele>482.80000000000007</ele><time>2026-04-18T13:59:25.001Z</time></trkpt><trkpt lat="37.0357392462525" lon="14.798987464598797"><ele>482.40000000000003</ele><time>2026-04-18T13:59:26.001Z</time></trkpt><trkpt lat="37.03581113769097" lon="14.798891426399118"><ele>482.0</ele><time>2026-04-18T13:59:27.001Z</time></trkpt><trkpt lat="37.035900418428284" lon="14.798801993647036"><ele>482.0</ele><time>2026-04-18T13:59:28.001Z</time></trkpt><trkpt lat="37.0359844397522" lon="14.798694806572215"><ele>482.0</ele><time>2026-04-18T13:59:29.001Z</time></trkpt><trkpt lat="37.036057129079495" lon="14.798591610220441"><ele>482.0</ele><time>2026-04-18T13:59:30.001Z</time></trkpt><trkpt lat="37.03610244149099" lon="14.79846250681201"><ele>482.0</ele><time>2026-04-18T13:59:31.001Z</time></trkpt><trkpt lat="37.0361291737819" lon="14.798315642052902"><ele>480.6</ele><time>2026-04-18T13:59:32.001Z</time></trkpt><trkpt lat="37.03615662307203" lon="14.798167532083491"><ele>479.20000000000005</ele><time>2026-04-18T13:59:33.001Z</time></trkpt><trkpt lat="37.03620084332165" lon="14.798038865934393"><ele>477.8</ele><time>2026-04-18T13:59:34.001Z</time></trkpt><trkpt lat="37.03626502512799" lon="14.797924738383955"><ele>476.4</ele><time>2026-04-18T13:59:35.001Z</time></trkpt><trkpt lat="37.03633801837531" lon="14.797830462992197"><ele>475.0</ele><time>2026-04-18T13:59:36.001Z</time></trkpt><trkpt lat="37.03643566092644" lon="14.797729405051635"><ele>475.0</ele><time>2026-04-18T13:59:37.001Z</time></trkpt><trkpt lat="37.03655489582434" lon="14.797626164280599"><ele>475.0</ele><time>2026-04-18T13:59:38.001Z</time></trkpt><trkpt lat="37.03669234848263" lon="14.797516936272274"><ele>475.0</ele><time>2026-04-18T13:59:39.001Z</time></trkpt><trkpt lat="37.03684028319046" lon="14.7973977542905"><ele>475.0</ele><time>2026-04-18T13:59:40.001Z</time></trkpt><trkpt lat="37.036988769247856" lon="14.797321789842316"><ele>475.0</ele><time>2026-04-18T13:59:41.001Z</time></trkpt><trkpt lat="37.03712266329462" lon="14.797232469227922"><ele>475.0</ele><time>2026-04-18T13:59:42.001Z</time></trkpt><trkpt lat="37.037240416801396" lon="14.797125708267561"><ele>475.0</ele><time>2026-04-18T13:59:43.001Z</time></trkpt><trkpt lat="37.037367462460246" lon="14.797025486332988"><ele>475.0</ele><time>2026-04-18T13:59:44.001Z</time></trkpt><trkpt lat="37.03749154160445" lon="14.796907150344275"><ele>475.0</ele><time>2026-04-18T13:59:45.001Z</time></trkpt><trkpt lat="37.037614644041774" lon="14.796777218267243"><ele>474.33333333333337</ele><time>2026-04-18T13:59:46.001Z</time></trkpt><trkpt lat="37.037741335980726" lon="14.796645144531515"><ele>473.66666666666663</ele><time>2026-04-18T13:59:47.001Z</time></trkpt><trkpt lat="37.03785820149473" lon="14.796521432560858"><ele>473.0</ele><time>2026-04-18T13:59:48.001Z</time></trkpt><trkpt lat="37.03796434035886" lon="14.79641037265006"><ele>473.0</ele><time>2026-04-18T13:59:49.001Z</time></trkpt><trkpt lat="37.038067477257904" lon="14.796303093271163"><ele>473.0</ele><time>2026-04-18T13:59:50.001Z</time></trkpt><trkpt lat="37.03815709511913" lon="14.796197846789585"><ele>473.0</ele><time>2026-04-18T13:59:51.001Z</time></trkpt><trkpt lat="37.03822592569101" lon="14.796098877590545"><ele>473.0</ele><time>2026-04-18T13:59:52.001Z</time></trkpt><trkpt lat="37.03827720499249" lon="14.795994064790793"><ele>472.66666666666663</ele><time>2026-04-18T13:59:53.001Z</time></trkpt><trkpt lat="37.038318046043884" lon="14.795883064677929"><ele>472.3333333333333</ele><time>2026-04-18T13:59:54.001Z</time></trkpt><trkpt lat="37.03834641265953" lon="14.795786363445883"><ele>472.0</ele><time>2026-04-18T13:59:55.001Z</time></trkpt><trkpt lat="37.038367192713274" lon="14.795700497222372"><ele>471.66666666666663</ele><time>2026-04-18T13:59:56.001Z</time></trkpt><trkpt lat="37.03839737712192" lon="14.795583045881795"><ele>471.3333333333333</ele><time>2026-04-18T13:59:58.001Z</time></trkpt><trkpt lat="37.03842646354389" lon="14.795493443516456"><ele>471.0</ele><time>2026-04-18T14:00:01.001Z</time></trkpt><trkpt lat="37.03845954487766" lon="14.795271407046808"><ele>470.6</ele><time>2026-04-18T14:01:03.001Z</time></trkpt><trkpt lat="37.0385174490193" lon="14.79512546945777"><ele>470.20000000000005</ele><time>2026-04-18T14:01:05.001Z</time></trkpt><trkpt lat="37.03854323698739" lon="14.795028917709361"><ele>469.79999999999995</ele><time>2026-04-18T14:01:06.001Z</time></trkpt><trkpt lat="37.0385695411323" lon="14.794914549179477"><ele>469.4</ele><time>2026-04-18T14:01:07.001Z</time></trkpt><trkpt lat="37.03859994992967" lon="14.794817209417053"><ele>469.0</ele><time>2026-04-18T14:01:08.001Z</time></trkpt><trkpt lat="37.038627665344514" lon="14.794733385845777"><ele>469.00000000000006</ele><time>2026-04-18T14:01:09.001Z</time></trkpt><trkpt lat="37.03865683694297" lon="14.79466100471012"><ele>469.0</ele><time>2026-04-18T14:01:10.001Z</time></trkpt><trkpt lat="37.038701900579525" lon="14.79459596216612"><ele>469.0</ele><time>2026-04-18T14:01:11.001Z</time></trkpt><trkpt lat="37.03881161463942" lon="14.794523087705516"><ele>469.0</ele><time>2026-04-18T14:01:13.001Z</time></trkpt><trkpt lat="37.03887977798795" lon="14.794497099541731"><ele>469.00000000000006</ele><time>2026-04-18T14:01:14.001Z</time></trkpt><trkpt lat="37.03895257743466" lon="14.794523292485623"><ele>469.0</ele><time>2026-04-18T14:01:15.001Z</time></trkpt><trkpt lat="37.03902436438987" lon="14.794534422519002"><ele>469.0</ele><time>2026-04-18T14:01:16.001Z</time></trkpt><trkpt lat="37.039107276700065" lon="14.79456061103373"><ele>469.0</ele><time>2026-04-18T14:01:17.001Z</time></trkpt><trkpt lat="37.0392084986707" lon="14.794589836596536"><ele>469.0</ele><time>2026-04-18T14:01:18.001Z</time></trkpt><trkpt lat="37.03933945732204" lon="14.79462323717668"><ele>469.0</ele><time>2026-04-18T14:01:19.001Z</time></trkpt><trkpt lat="37.039497657880915" lon="14.794663379922795"><ele>469.0</ele><time>2026-04-18T14:01:20.001Z</time></trkpt><trkpt lat="37.03967324121766" lon="14.794712113386783"><ele>469.0</ele><time>2026-04-18T14:01:21.001Z</time></trkpt><trkpt lat="37.039849444940636" lon="14.79474193888404"><ele>469.0</ele><time>2026-04-18T14:01:22.001Z</time></trkpt><trkpt lat="37.04002050337668" lon="14.794791111984347"><ele>470.33333333333337</ele><time>2026-04-18T14:01:23.001Z</time></trkpt><trkpt lat="37.040193110984866" lon="14.794840126727493"><ele>471.66666666666663</ele><time>2026-04-18T14:01:24.001Z</time></trkpt><trkpt lat="37.040388112810895" lon="14.794896270789078"><ele>473.0</ele><time>2026-04-18T14:01:25.001Z</time></trkpt><trkpt lat="37.04057477986647" lon="14.794946636441658"><ele>473.0</ele><time>2026-04-18T14:01:26.001Z</time></trkpt><trkpt lat="37.04077107211187" lon="14.794994015771719"><ele>473.0</ele><time>2026-04-18T14:01:27.001Z</time></trkpt><trkpt lat="37.04096806004055" lon="14.795050742625197"><ele>473.0</ele><time>2026-04-18T14:01:28.001Z</time></trkpt><trkpt lat="37.041157478745006" lon="14.795105838793752"><ele>474.3333333333333</ele><time>2026-04-18T14:01:29.001Z</time></trkpt><trkpt lat="37.04133858540795" lon="14.795158126361185"><ele>475.66666666666663</ele><time>2026-04-18T14:01:30.001Z</time></trkpt><trkpt lat="37.041505549478806" lon="14.795200158369665"><ele>477.0</ele><time>2026-04-18T14:01:31.001Z</time></trkpt><trkpt lat="37.0416625983452" lon="14.795244386023208"><ele>478.0</ele><time>2026-04-18T14:01:32.001Z</time></trkpt><trkpt lat="37.04180214663604" lon="14.7952738758655"><ele>479.0</ele><time>2026-04-18T14:01:33.001Z</time></trkpt><trkpt lat="37.0419298685474" lon="14.795287809546037"><ele>480.0</ele><time>2026-04-18T14:01:34.001Z</time></trkpt><trkpt lat="37.042045014144406" lon="14.795281193453995"><ele>481.0</ele><time>2026-04-18T14:01:35.001Z</time></trkpt><trkpt lat="37.04215060237213" lon="14.795256663988399"><ele>481.0</ele><time>2026-04-18T14:01:36.001Z</time></trkpt><trkpt lat="37.042257162070435" lon="14.795221449401236"><ele>481.0</ele><time>2026-04-18T14:01:37.001Z</time></trkpt><trkpt lat="37.04238229394434" lon="14.795179488232156"><ele>481.0</ele><time>2026-04-18T14:01:38.001Z</time></trkpt><trkpt lat="37.04253202067151" lon="14.795133195947734"><ele>481.0</ele><time>2026-04-18T14:01:39.001Z</time></trkpt><trkpt lat="37.04269171518362" lon="14.79508713343089"><ele>484.33333333333337</ele><time>2026-04-18T14:01:40.001Z</time></trkpt><trkpt lat="37.04287221763756" lon="14.795040227690883"><ele>487.66666666666663</ele><time>2026-04-18T14:01:41.001Z</time></trkpt><trkpt lat="37.043057991056536" lon="14.794988328917425"><ele>491.0</ele><time>2026-04-18T14:01:42.001Z</time></trkpt><trkpt lat="37.04323462676728" lon="14.79493938349265"><ele>492.0</ele><time>2026-04-18T14:01:43.001Z</time></trkpt><trkpt lat="37.04341100045976" lon="14.794895525264465"><ele>493.0</ele><time>2026-04-18T14:01:44.001Z</time></trkpt><trkpt lat="37.04359324941881" lon="14.794850204896184"><ele>494.0</ele><time>2026-04-18T14:01:45.001Z</time></trkpt><trkpt lat="37.04377850379665" lon="14.79479919704219"><ele>494.0</ele><time>2026-04-18T14:01:46.001Z</time></trkpt><trkpt lat="37.043957433950474" lon="14.794749390450598"><ele>494.0</ele><time>2026-04-18T14:01:47.001Z</time></trkpt><trkpt lat="37.04414208503022" lon="14.794696878061709"><ele>494.0</ele><time>2026-04-18T14:01:48.001Z</time></trkpt><trkpt lat="37.04431732443213" lon="14.794650486919117"><ele>496.66666666666663</ele><time>2026-04-18T14:01:49.001Z</time></trkpt><trkpt lat="37.04447823401822" lon="14.79460661139473"><ele>499.33333333333337</ele><time>2026-04-18T14:01:50.001Z</time></trkpt><trkpt lat="37.0446305172274" lon="14.794567236460631"><ele>502.0</ele><time>2026-04-18T14:01:51.001Z</time></trkpt><trkpt lat="37.0447701846259" lon="14.794533723848891"><ele>502.0</ele><time>2026-04-18T14:01:52.001Z</time></trkpt><trkpt lat="37.044894802626885" lon="14.794493231582909"><ele>502.0</ele><time>2026-04-18T14:01:53.001Z</time></trkpt><trkpt lat="37.04501055805104" lon="14.794463761198314"><ele>502.0</ele><time>2026-04-18T14:01:54.001Z</time></trkpt><trkpt lat="37.04512045197588" lon="14.794426278943714"><ele>502.0</ele><time>2026-04-18T14:01:55.001Z</time></trkpt><trkpt lat="37.04521885218584" lon="14.794399323854368"><ele>503.6</ele><time>2026-04-18T14:01:56.001Z</time></trkpt><trkpt lat="37.04530147401198" lon="14.794373095100037"><ele>505.20000000000005</ele><time>2026-04-18T14:01:57.001Z</time></trkpt><trkpt lat="37.045365629502534" lon="14.794377081945308"><ele>506.8</ele><time>2026-04-18T14:01:58.001Z</time></trkpt><trkpt lat="37.04545688968341" lon="14.794295923423876"><ele>508.4</ele><time>2026-04-18T14:02:00.001Z</time></trkpt><trkpt lat="37.04551198215998" lon="14.794255043535362"><ele>510.0</ele><time>2026-04-18T14:02:01.001Z</time></trkpt><trkpt lat="37.0456229500344" lon="14.794159012491466"><ele>510.0</ele><time>2026-04-18T14:02:03.001Z</time></trkpt><trkpt lat="37.045699132801026" lon="14.794150896991027"><ele>510.0</ele><time>2026-04-18T14:02:04.001Z</time></trkpt><trkpt lat="37.04576149103216" lon="14.794082804386129"><ele>510.0</ele><time>2026-04-18T14:02:05.001Z</time></trkpt><trkpt lat="37.045837599103514" lon="14.79404904466649"><ele>510.0</ele><time>2026-04-18T14:02:06.001Z</time></trkpt><trkpt lat="37.0459032720145" lon="14.794021613924158"><ele>510.0</ele><time>2026-04-18T14:02:07.001Z</time></trkpt><trkpt lat="37.04596681367886" lon="14.793991795082617"><ele>510.0</ele><time>2026-04-18T14:02:08.001Z</time></trkpt><trkpt lat="37.046045967613004" lon="14.793924415014843"><ele>510.3333333333333</ele><time>2026-04-18T14:02:10.001Z</time></trkpt><trkpt lat="37.04610524082419" lon="14.793892431251743"><ele>510.66666666666663</ele><time>2026-04-18T14:02:12.001Z</time></trkpt><trkpt lat="37.04604926327288" lon="14.793784624894212"><ele>511.0</ele><time>2026-04-18T14:02:13.001Z</time></trkpt><trkpt lat="37.04603217932549" lon="14.79370534039111"><ele>511.3333333333333</ele><time>2026-04-18T14:02:14.001Z</time></trkpt><trkpt lat="37.046009177272595" lon="14.793597514411672"><ele>511.66666666666663</ele><time>2026-04-18T14:02:15.001Z</time></trkpt><trkpt lat="37.04597068407216" lon="14.793453293020843"><ele>512.0</ele><time>2026-04-18T14:02:16.001Z</time></trkpt><trkpt lat="37.04596285065906" lon="14.793325216401438"><ele>511.20000000000005</ele><time>2026-04-18T14:02:17.001Z</time></trkpt><trkpt lat="37.045928068093474" lon="14.793200322242308"><ele>510.40000000000003</ele><time>2026-04-18T14:02:18.001Z</time></trkpt><trkpt lat="37.04592048786995" lon="14.793078050796607"><ele>509.59999999999997</ele><time>2026-04-18T14:02:19.001Z</time></trkpt><trkpt lat="37.04590966440763" lon="14.792948128653842"><ele>508.79999999999995</ele><time>2026-04-18T14:02:20.001Z</time></trkpt><trkpt lat="37.045907146792445" lon="14.792825378171491"><ele>508.0</ele><time>2026-04-18T14:02:21.001Z</time></trkpt><trkpt lat="37.04590626885482" lon="14.792699717625936"><ele>507.4</ele><time>2026-04-18T14:02:22.001Z</time></trkpt><trkpt lat="37.045908387550554" lon="14.792567844897402"><ele>506.79999999999995</ele><time>2026-04-18T14:02:23.001Z</time></trkpt><trkpt lat="37.04592459864618" lon="14.792440455590585"><ele>506.2</ele><time>2026-04-18T14:02:24.001Z</time></trkpt><trkpt lat="37.04593701847977" lon="14.792302957703367"><ele>505.6</ele><time>2026-04-18T14:02:25.001Z</time></trkpt><trkpt lat="37.04595591051105" lon="14.792174129684405"><ele>505.0</ele><time>2026-04-18T14:02:26.001Z</time></trkpt><trkpt lat="37.045966155290394" lon="14.792054579610117"><ele>505.00000000000006</ele><time>2026-04-18T14:02:27.001Z</time></trkpt><trkpt lat="37.04597054231821" lon="14.791940857535344"><ele>505.0</ele><time>2026-04-18T14:02:28.001Z</time></trkpt><trkpt lat="37.045968791941185" lon="14.791824671013336"><ele>505.0</ele><time>2026-04-18T14:02:29.001Z</time></trkpt><trkpt lat="37.04596649086271" lon="14.791714169123617"><ele>505.0</ele><time>2026-04-18T14:02:30.001Z</time></trkpt><trkpt lat="37.0459548511608" lon="14.791608416666218"><ele>505.00000000000006</ele><time>2026-04-18T14:02:31.001Z</time></trkpt><trkpt lat="37.045936800135685" lon="14.791510149309186"><ele>505.0</ele><time>2026-04-18T14:02:32.001Z</time></trkpt><trkpt lat="37.045909970918196" lon="14.79141333032679"><ele>504.0</ele><time>2026-04-18T14:02:33.001Z</time></trkpt><trkpt lat="37.04587856916255" lon="14.791326294764133"><ele>503.0</ele><time>2026-04-18T14:02:34.001Z</time></trkpt><trkpt lat="37.04585301283639" lon="14.791249803508649"><ele>502.0</ele><time>2026-04-18T14:02:35.001Z</time></trkpt><trkpt lat="37.045814982968494" lon="14.791127948377312"><ele>501.0</ele><time>2026-04-18T14:02:37Z</time></trkpt><trkpt lat="37.0459022543374" lon="14.790995801402639"><ele>500.0</ele><time>2026-04-18T14:02:39Z</time></trkpt><trkpt lat="37.0460269725301" lon="14.790905779708273"><ele>499.99999999999994</ele><time>2026-04-18T14:02:41Z</time></trkpt><trkpt lat="37.04608526547684" lon="14.790841694414699"><ele>500.0</ele><time>2026-04-18T14:02:42Z</time></trkpt><trkpt lat="37.04611821792476" lon="14.790767548173866"><ele>500.0</ele><time>2026-04-18T14:02:43Z</time></trkpt><trkpt lat="37.04612680425325" lon="14.790630142658074"><ele>500.0</ele><time>2026-04-18T14:02:45Z</time></trkpt><trkpt lat="37.04612338146577" lon="14.790546456765723"><ele>499.99999999999994</ele><time>2026-04-18T14:02:46Z</time></trkpt><trkpt lat="37.046107142666486" lon="14.790416902358276"><ele>500.0</ele><time>2026-04-18T14:02:47Z</time></trkpt><trkpt lat="37.04608927140471" lon="14.790293472253127"><ele>502.8</ele><time>2026-04-18T14:02:48Z</time></trkpt><trkpt lat="37.04606722882744" lon="14.79016113146033"><ele>505.6</ele><time>2026-04-18T14:02:49Z</time></trkpt><trkpt lat="37.04603152064141" lon="14.790035571960917"><ele>508.4</ele><time>2026-04-18T14:02:50Z</time></trkpt><trkpt lat="37.04601642654285" lon="14.789941267358875"><ele>511.2</ele><time>2026-04-18T14:02:51Z</time></trkpt><trkpt lat="37.04596799138481" lon="14.789786460418433"><ele>514.0</ele><time>2026-04-18T14:02:53Z</time></trkpt><trkpt lat="37.045933188010025" lon="14.789682826257245"><ele>514.0</ele><time>2026-04-18T14:02:54Z</time></trkpt><trkpt lat="37.045909156766704" lon="14.789561859468861"><ele>514.0</ele><time>2026-04-18T14:02:55Z</time></trkpt><trkpt lat="37.045883575500405" lon="14.789456886909605"><ele>514.0</ele><time>2026-04-18T14:02:56Z</time></trkpt><trkpt lat="37.045853716836" lon="14.789336580482136"><ele>514.0</ele><time>2026-04-18T14:02:57Z</time></trkpt><trkpt lat="37.04582897636048" lon="14.78921116370514"><ele>514.0</ele><time>2026-04-18T14:02:58Z</time></trkpt><trkpt lat="37.04580146193302" lon="14.78911673089887"><ele>515.8</ele><time>2026-04-18T14:02:59Z</time></trkpt><trkpt lat="37.04577956068117" lon="14.789031946777207"><ele>517.5999999999999</ele><time>2026-04-18T14:03:00Z</time></trkpt><trkpt lat="37.045791718566086" lon="14.788890159634882"><ele>519.4</ele><time>2026-04-18T14:03:02Z</time></trkpt><trkpt lat="37.04580835271063" lon="14.788774884718295"><ele>521.1999999999999</ele><time>2026-04-18T14:03:04Z</time></trkpt><trkpt lat="37.04573013926422" lon="14.788712000454419"><ele>523.0</ele><time>2026-04-18T14:03:07.001Z</time></trkpt><trkpt lat="37.04563901504949" lon="14.78878893620105"><ele>525.5</ele><time>2026-04-18T14:03:09.001Z</time></trkpt><trkpt lat="37.04558430752207" lon="14.788904723825597"><ele>528.0</ele><time>2026-04-18T14:03:11.001Z</time></trkpt><trkpt lat="37.04552335677988" lon="14.788947400141112"><ele>530.5</ele><time>2026-04-18T14:03:13.001Z</time></trkpt><trkpt lat="37.04550729181696" lon="14.7888578332394"><ele>533.0</ele><time>2026-04-18T14:03:17.001Z</time></trkpt><trkpt lat="37.045559566527004" lon="14.788796431290773"><ele>535.5</ele><time>2026-04-18T14:03:18.001Z</time></trkpt><trkpt lat="37.04558980803657" lon="14.788694310983251"><ele>538.0</ele><time>2026-04-18T14:03:19.001Z</time></trkpt><trkpt lat="37.04565690752409" lon="14.78861662724138"><ele>538.0</ele><time>2026-04-18T14:03:20.001Z</time></trkpt><trkpt lat="37.04569724816329" lon="14.788514492673958"><ele>538.0</ele><time>2026-04-18T14:03:21.001Z</time></trkpt><trkpt lat="37.045684263215165" lon="14.788381333275828"><ele>538.0</ele><time>2026-04-18T14:03:23.001Z</time></trkpt><trkpt lat="37.04564109401342" lon="14.788216884916025"><ele>538.0</ele><time>2026-04-18T14:03:25.001Z</time></trkpt><trkpt lat="37.0456017130526" lon="14.788115411383691"><ele>538.0</ele><time>2026-04-18T14:03:26.001Z</time></trkpt><trkpt lat="37.04556701582873" lon="14.7880178486638"><ele>540.1999999999999</ele><time>2026-04-18T14:03:27.001Z</time></trkpt><trkpt lat="37.045527306223626" lon="14.787909655709589"><ele>542.4</ele><time>2026-04-18T14:03:28.001Z</time></trkpt><trkpt lat="37.04548587222701" lon="14.78779519487101"><ele>544.5999999999999</ele><time>2026-04-18T14:03:29.001Z</time></trkpt><trkpt lat="37.045442884281904" lon="14.787679643587692"><ele>546.8</ele><time>2026-04-18T14:03:30.001Z</time></trkpt><trkpt lat="37.04541022768223" lon="14.787573854150484"><ele>549.0</ele><time>2026-04-18T14:03:31.001Z</time></trkpt><trkpt lat="37.0453939348921" lon="14.787481024368422"><ele>551.0</ele><time>2026-04-18T14:03:32.001Z</time></trkpt><trkpt lat="37.0453914362201" lon="14.787390506869933"><ele>553.0</ele><time>2026-04-18T14:03:33.001Z</time></trkpt><trkpt lat="37.04542036847022" lon="14.787282757170638"><ele>555.0</ele><time>2026-04-18T14:03:34.001Z</time></trkpt><trkpt lat="37.045416925429016" lon="14.787159544253852"><ele>557.0</ele><time>2026-04-18T14:03:35.001Z</time></trkpt><trkpt lat="37.04539451183653" lon="14.787035556234644"><ele>559.0</ele><time>2026-04-18T14:03:36.001Z</time></trkpt><trkpt lat="37.045403534712925" lon="14.786899439073933"><ele>561.3333333333334</ele><time>2026-04-18T14:03:37.001Z</time></trkpt><trkpt lat="37.045412668527256" lon="14.78679349932273"><ele>563.6666666666667</ele><time>2026-04-18T14:03:38.001Z</time></trkpt><trkpt lat="37.04543126472181" lon="14.786690476669234"><ele>566.0</ele><time>2026-04-18T14:03:39.001Z</time></trkpt><trkpt lat="37.04545731644695" lon="14.786600663014967"><ele>568.3333333333334</ele><time>2026-04-18T14:03:40.001Z</time></trkpt><trkpt lat="37.045494425951986" lon="14.786509892453022"><ele>570.6666666666666</ele><time>2026-04-18T14:03:41.001Z</time></trkpt><trkpt lat="37.04554238593636" lon="14.78644154065119"><ele>573.0</ele><time>2026-04-18T14:03:42.001Z</time></trkpt><trkpt lat="37.04559588541206" lon="14.786356825250124"><ele>573.0</ele><time>2026-04-18T14:03:43.001Z</time></trkpt><trkpt lat="37.045636529359804" lon="14.786263954571625"><ele>573.0</ele><time>2026-04-18T14:03:44.001Z</time></trkpt><trkpt lat="37.04566416927108" lon="14.786183954307104"><ele>573.0</ele><time>2026-04-18T14:03:45.001Z</time></trkpt><trkpt lat="37.04567630256362" lon="14.786094105262006"><ele>573.0</ele><time>2026-04-18T14:03:46.001Z</time></trkpt><trkpt lat="37.045682664075784" lon="14.786007146139685"><ele>573.0</ele><time>2026-04-18T14:03:47.001Z</time></trkpt><trkpt lat="37.045684249529" lon="14.785918986121679"><ele>573.0</ele><time>2026-04-18T14:03:48.001Z</time></trkpt><trkpt lat="37.04568646318842" lon="14.785820596737928"><ele>573.0</ele><time>2026-04-18T14:03:49.001Z</time></trkpt><trkpt lat="37.045696933596815" lon="14.785700698040888"><ele>576.25</ele><time>2026-04-18T14:03:50.001Z</time></trkpt><trkpt lat="37.04569544179235" lon="14.785572547628012"><ele>579.5</ele><time>2026-04-18T14:03:51.001Z</time></trkpt><trkpt lat="37.0457238219077" lon="14.785420163488103"><ele>582.75</ele><time>2026-04-18T14:03:52.001Z</time></trkpt><trkpt lat="37.04575128363506" lon="14.785246457131151"><ele>586.0</ele><time>2026-04-18T14:03:53.001Z</time></trkpt><trkpt lat="37.045775635554506" lon="14.785087123674883"><ele>585.5</ele><time>2026-04-18T14:03:54.001Z</time></trkpt><trkpt lat="37.04578564413292" lon="14.784953761560386"><ele>585.0</ele><time>2026-04-18T14:03:55.001Z</time></trkpt><trkpt lat="37.045784807316274" lon="14.784840590342945"><ele>584.5</ele><time>2026-04-18T14:03:56.001Z</time></trkpt><trkpt lat="37.0457832116799" lon="14.78472499493228"><ele>584.0</ele><time>2026-04-18T14:03:57.001Z</time></trkpt><trkpt lat="37.045787757823895" lon="14.784632240873773"><ele>583.5</ele><time>2026-04-18T14:03:58.001Z</time></trkpt><trkpt lat="37.04582018803672" lon="14.784534967745456"><ele>583.0</ele><time>2026-04-18T14:04:00.001Z</time></trkpt><trkpt lat="37.04589066898396" lon="14.784420298701187"><ele>584.3333333333334</ele><time>2026-04-18T14:04:02.001Z</time></trkpt><trkpt lat="37.045924900873544" lon="14.784293630794552"><ele>585.6666666666667</ele><time>2026-04-18T14:04:04.001Z</time></trkpt><trkpt lat="37.04593723987785" lon="14.784214334933516"><ele>587.0</ele><time>2026-04-18T14:04:05.001Z</time></trkpt><trkpt lat="37.04594075535593" lon="14.784121585731725"><ele>588.3333333333334</ele><time>2026-04-18T14:04:06.001Z</time></trkpt><trkpt lat="37.045903638649264" lon="14.784002878617693"><ele>589.6666666666666</ele><time>2026-04-18T14:04:08.001Z</time></trkpt><trkpt lat="37.0458779152576" lon="14.783907983608714"><ele>591.0</ele><time>2026-04-18T14:04:09.001Z</time></trkpt><trkpt lat="37.04588303238819" lon="14.783813905992282"><ele>591.0</ele><time>2026-04-18T14:04:10.001Z</time></trkpt><trkpt lat="37.04590044147674" lon="14.78364999902298"><ele>591.0</ele><time>2026-04-18T14:04:12.001Z</time></trkpt><trkpt lat="37.045952689953765" lon="14.783521828801216"><ele>591.0</ele><time>2026-04-18T14:04:14.001Z</time></trkpt><trkpt lat="37.0459980196541" lon="14.783458952327408"><ele>591.0</ele><time>2026-04-18T14:04:15.001Z</time></trkpt><trkpt lat="37.04605502402815" lon="14.783363676096204"><ele>591.0</ele><time>2026-04-18T14:04:16.001Z</time></trkpt><trkpt lat="37.0460991391453" lon="14.78328113045273"><ele>592.6666666666666</ele><time>2026-04-18T14:04:17.001Z</time></trkpt><trkpt lat="37.046139378264165" lon="14.783188461327919"><ele>594.3333333333334</ele><time>2026-04-18T14:04:18.001Z</time></trkpt><trkpt lat="37.04617243202078" lon="14.783101768527539"><ele>596.0</ele><time>2026-04-18T14:04:19.001Z</time></trkpt><trkpt lat="37.0462081029469" lon="14.783024138245594"><ele>597.6666666666667</ele><time>2026-04-18T14:04:20.001Z</time></trkpt><trkpt lat="37.04625505877277" lon="14.782931170237042"><ele>599.3333333333334</ele><time>2026-04-18T14:04:21.001Z</time></trkpt><trkpt lat="37.04629569319716" lon="14.782840336109743"><ele>601.0</ele><time>2026-04-18T14:04:22.001Z</time></trkpt><trkpt lat="37.04634394611862" lon="14.78269560753858"><ele>603.4</ele><time>2026-04-18T14:04:24.001Z</time></trkpt><trkpt lat="37.04635183577494" lon="14.782583104958315"><ele>605.8</ele><time>2026-04-18T14:04:25.001Z</time></trkpt><trkpt lat="37.046364245383835" lon="14.782439586271906"><ele>608.1999999999999</ele><time>2026-04-18T14:04:26.001Z</time></trkpt><trkpt lat="37.046378272330145" lon="14.782320481513311"><ele>610.6</ele><time>2026-04-18T14:04:27.001Z</time></trkpt><trkpt lat="37.04639829304989" lon="14.78223546013981"><ele>613.0</ele><time>2026-04-18T14:04:28.001Z</time></trkpt><trkpt lat="37.046425701435034" lon="14.782100426114711"><ele>613.0</ele><time>2026-04-18T14:04:30.001Z</time></trkpt><trkpt lat="37.04646158388127" lon="14.782033894610061"><ele>613.0</ele><time>2026-04-18T14:04:31.001Z</time></trkpt><trkpt lat="37.046520233370806" lon="14.781944309331703"><ele>613.0</ele><time>2026-04-18T14:04:32.001Z</time></trkpt><trkpt lat="37.04659516762915" lon="14.781853519995156"><ele>613.0</ele><time>2026-04-18T14:04:33.001Z</time></trkpt><trkpt lat="37.04668386614518" lon="14.781766797723664"><ele>613.0</ele><time>2026-04-18T14:04:34.001Z</time></trkpt><trkpt lat="37.04679046239811" lon="14.781676472455255"><ele>613.0</ele><time>2026-04-18T14:04:35.001Z</time></trkpt><trkpt lat="37.046924654894084" lon="14.781564163660327"><ele>613.0</ele><time>2026-04-18T14:04:36.001Z</time></trkpt><trkpt lat="37.04707724382262" lon="14.781436383411748"><ele>613.0</ele><time>2026-04-18T14:04:37.001Z</time></trkpt><trkpt lat="37.047221320613204" lon="14.781305566615732"><ele>613.0</ele><time>2026-04-18T14:04:38.001Z</time></trkpt><trkpt lat="37.047338830505325" lon="14.78119453440767"><ele>613.0</ele><time>2026-04-18T14:04:39.001Z</time></trkpt><trkpt lat="37.04744619034319" lon="14.781084771032278"><ele>613.0</ele><time>2026-04-18T14:04:40.001Z</time></trkpt><trkpt lat="37.047567538707455" lon="14.780961657633735"><ele>613.0</ele><time>2026-04-18T14:04:41.001Z</time></trkpt><trkpt lat="37.047700024295835" lon="14.780837480177015"><ele>616.5</ele><time>2026-04-18T14:04:42Z</time></trkpt><trkpt lat="37.04783899622217" lon="14.780712997689717"><ele>620.0</ele><time>2026-04-18T14:04:43Z</time></trkpt><trkpt lat="37.04795930064516" lon="14.780611640777177"><ele>623.5</ele><time>2026-04-18T14:04:44Z</time></trkpt><trkpt lat="37.048043577602705" lon="14.780517455823846"><ele>627.0</ele><time>2026-04-18T14:04:45Z</time></trkpt><trkpt lat="37.04810254297093" lon="14.780444025019369"><ele>627.0</ele><time>2026-04-18T14:04:46Z</time></trkpt><trkpt lat="37.048147340276614" lon="14.780363610523791"><ele>627.0</ele><time>2026-04-18T14:04:47Z</time></trkpt><trkpt lat="37.048190355869984" lon="14.780265439740727"><ele>627.0</ele><time>2026-04-18T14:04:48Z</time></trkpt><trkpt lat="37.04822802064085" lon="14.78016258537563"><ele>627.0</ele><time>2026-04-18T14:04:49Z</time></trkpt><trkpt lat="37.048265411275324" lon="14.780046589154367"><ele>627.0</ele><time>2026-04-18T14:04:50Z</time></trkpt><trkpt lat="37.04830569595758" lon="14.779932379160048"><ele>629.5</ele><time>2026-04-18T14:04:51Z</time></trkpt><trkpt lat="37.0483287056695" lon="14.77985212240616"><ele>632.0</ele><time>2026-04-18T14:04:52Z</time></trkpt><trkpt lat="37.04835367175134" lon="14.779773213021349"><ele>634.5</ele><time>2026-04-18T14:04:53Z</time></trkpt><trkpt lat="37.04838836181689" lon="14.779700211301407"><ele>637.0</ele><time>2026-04-18T14:04:54Z</time></trkpt><trkpt lat="37.04844154689268" lon="14.779623549948179"><ele>639.5</ele><time>2026-04-18T14:04:55Z</time></trkpt><trkpt lat="37.04851462616574" lon="14.779542313845338"><ele>642.0</ele><time>2026-04-18T14:04:56Z</time></trkpt><trkpt lat="37.048594543917105" lon="14.779470042917826"><ele>642.0</ele><time>2026-04-18T14:04:57Z</time></trkpt><trkpt lat="37.04871439138881" lon="14.779384150419341"><ele>642.0</ele><time>2026-04-18T14:04:58Z</time></trkpt><trkpt lat="37.048828625620736" lon="14.779289708882509"><ele>642.0</ele><time>2026-04-18T14:04:59Z</time></trkpt><trkpt lat="37.04893267008864" lon="14.779196727724404"><ele>642.0</ele><time>2026-04-18T14:05:00Z</time></trkpt><trkpt lat="37.04904180587133" lon="14.779131200445084"><ele>642.6</ele><time>2026-04-18T14:05:01Z</time></trkpt><trkpt lat="37.04913279395821" lon="14.779059313070919"><ele>643.2</ele><time>2026-04-18T14:05:02Z</time></trkpt><trkpt lat="37.04921667355849" lon="14.778981264414647"><ele>643.8</ele><time>2026-04-18T14:05:03Z</time></trkpt><trkpt lat="37.049280252828645" lon="14.77890423604799"><ele>644.4</ele><time>2026-04-18T14:05:04Z</time></trkpt><trkpt lat="37.04934662273609" lon="14.778853873173773"><ele>645.0</ele><time>2026-04-18T14:05:05Z</time></trkpt><trkpt lat="37.04941334720735" lon="14.778786053693588"><ele>645.0</ele><time>2026-04-18T14:05:06Z</time></trkpt><trkpt lat="37.049466302195476" lon="14.778719754800536"><ele>645.0</ele><time>2026-04-18T14:05:07Z</time></trkpt><trkpt lat="37.04953711623633" lon="14.778606902821792"><ele>645.0</ele><time>2026-04-18T14:05:09Z</time></trkpt><trkpt lat="37.0495716596454" lon="14.778531891761537"><ele>645.0</ele><time>2026-04-18T14:05:10Z</time></trkpt><trkpt lat="37.0496020064294" lon="14.778433451395491"><ele>645.0</ele><time>2026-04-18T14:05:11Z</time></trkpt><trkpt lat="37.04962561117047" lon="14.778315799857012"><ele>645.0</ele><time>2026-04-18T14:05:12Z</time></trkpt><trkpt lat="37.04964668950986" lon="14.778184359474565"><ele>647.0</ele><time>2026-04-18T14:05:13Z</time></trkpt><trkpt lat="37.04966431032143" lon="14.778053399784962"><ele>649.0</ele><time>2026-04-18T14:05:14Z</time></trkpt><trkpt lat="37.049674844824914" lon="14.777933609420193"><ele>651.0</ele><time>2026-04-18T14:05:15Z</time></trkpt><trkpt lat="37.04968342408425" lon="14.777842709331372"><ele>653.0</ele><time>2026-04-18T14:05:16Z</time></trkpt><trkpt lat="37.049692154189664" lon="14.777737571412072"><ele>655.0</ele><time>2026-04-18T14:05:17Z</time></trkpt><trkpt lat="37.0497016012675" lon="14.777622285310096"><ele>655.2</ele><time>2026-04-18T14:05:18Z</time></trkpt><trkpt lat="37.04970455676321" lon="14.777469360317312"><ele>655.4</ele><time>2026-04-18T14:05:19Z</time></trkpt><trkpt lat="37.049755107555995" lon="14.777359332812146"><ele>655.5999999999999</ele><time>2026-04-18T14:05:20Z</time></trkpt><trkpt lat="37.04978669920738" lon="14.777215184012517"><ele>655.8</ele><time>2026-04-18T14:05:21Z</time></trkpt><trkpt lat="37.04982844802354" lon="14.777102367425861"><ele>656.0</ele><time>2026-04-18T14:05:22Z</time></trkpt><trkpt lat="37.04984710699069" lon="14.776983469794107"><ele>656.5</ele><time>2026-04-18T14:05:23Z</time></trkpt><trkpt lat="37.04986405649461" lon="14.776820419346077"><ele>657.0</ele><time>2026-04-18T14:05:24Z</time></trkpt><trkpt lat="37.049889235005374" lon="14.77665360805331"><ele>657.5</ele><time>2026-04-18T14:05:25Z</time></trkpt><trkpt lat="37.049889088859096" lon="14.776515941412134"><ele>658.0</ele><time>2026-04-18T14:05:26Z</time></trkpt><trkpt lat="37.049898620892165" lon="14.776387646217414"><ele>658.0</ele><time>2026-04-18T14:05:27Z</time></trkpt><trkpt lat="37.04993420595754" lon="14.776277233837"><ele>658.0</ele><time>2026-04-18T14:05:28Z</time></trkpt><trkpt lat="37.049964451822" lon="14.77620062009922"><ele>658.0</ele><time>2026-04-18T14:05:29Z</time></trkpt><trkpt lat="37.05000759023632" lon="14.776122114527622"><ele>658.0</ele><time>2026-04-18T14:05:30Z</time></trkpt><trkpt lat="37.05005896695465" lon="14.776034469173883"><ele>658.0</ele><time>2026-04-18T14:05:31Z</time></trkpt><trkpt lat="37.05011814359963" lon="14.775936875266316"><ele>658.0</ele><time>2026-04-18T14:05:32.001Z</time></trkpt><trkpt lat="37.05018335028627" lon="14.775827559793989"><ele>655.8333333333334</ele><time>2026-04-18T14:05:33.001Z</time></trkpt><trkpt lat="37.05023263049329" lon="14.775721896975217"><ele>653.6666666666667</ele><time>2026-04-18T14:05:34.001Z</time></trkpt><trkpt lat="37.05028212767118" lon="14.775654189672524"><ele>651.5</ele><time>2026-04-18T14:05:35.001Z</time></trkpt><trkpt lat="37.05033000164153" lon="14.775577077016312"><ele>649.3333333333334</ele><time>2026-04-18T14:05:36.001Z</time></trkpt><trkpt lat="37.05040306806411" lon="14.7755066435642"><ele>647.1666666666666</ele><time>2026-04-18T14:05:37.001Z</time></trkpt><trkpt lat="37.05048367556239" lon="14.775425561504303"><ele>645.0</ele><time>2026-04-18T14:05:38.001Z</time></trkpt><trkpt lat="37.05057724164476" lon="14.775326222766598"><ele>645.0</ele><time>2026-04-18T14:05:39.001Z</time></trkpt><trkpt lat="37.05068100679505" lon="14.775210546590705"><ele>645.0</ele><time>2026-04-18T14:05:40.001Z</time></trkpt><trkpt lat="37.05078983286495" lon="14.775079939380271"><ele>645.0</ele><time>2026-04-18T14:05:41.001Z</time></trkpt><trkpt lat="37.05088619721984" lon="14.774981531149196"><ele>645.0</ele><time>2026-04-18T14:05:42.001Z</time></trkpt><trkpt lat="37.05098390441615" lon="14.774925886570687"><ele>646.5</ele><time>2026-04-18T14:05:43.001Z</time></trkpt><trkpt lat="37.051072681874" lon="14.774857804560206"><ele>648.0</ele><time>2026-04-18T14:05:44.001Z</time></trkpt><trkpt lat="37.051173757894354" lon="14.774785039152606"><ele>649.5</ele><time>2026-04-18T14:05:45.001Z</time></trkpt><trkpt lat="37.05130027291532" lon="14.774701319048804"><ele>651.0</ele><time>2026-04-18T14:05:46.001Z</time></trkpt><trkpt lat="37.05144126020386" lon="14.774608104964761"><ele>651.0</ele><time>2026-04-18T14:05:47.001Z</time></trkpt><trkpt lat="37.05157824851388" lon="14.774509015778166"><ele>651.0</ele><time>2026-04-18T14:05:48.001Z</time></trkpt><trkpt lat="37.0517107274851" lon="14.774415563159728"><ele>651.0</ele><time>2026-04-18T14:05:49.001Z</time></trkpt><trkpt lat="37.05181261379024" lon="14.774355278466144"><ele>651.0</ele><time>2026-04-18T14:05:50.001Z</time></trkpt><trkpt lat="37.05187920227434" lon="14.774305286149616"><ele>654.5999999999999</ele><time>2026-04-18T14:05:51.001Z</time></trkpt><trkpt lat="37.05191675032029" lon="14.774177652191343"><ele>658.2</ele><time>2026-04-18T14:05:53.001Z</time></trkpt><trkpt lat="37.05196237147561" lon="14.77408719753297"><ele>661.8</ele><time>2026-04-18T14:05:54.001Z</time></trkpt><trkpt lat="37.05201710827105" lon="14.773996462236465"><ele>665.4000000000001</ele><time>2026-04-18T14:05:55.001Z</time></trkpt><trkpt lat="37.05209391932181" lon="14.7739414941096"><ele>669.0</ele><time>2026-04-18T14:05:56.001Z</time></trkpt><trkpt lat="37.05216116426618" lon="14.773879518354882"><ele>669.0</ele><time>2026-04-18T14:05:57.001Z</time></trkpt><trkpt lat="37.05223452068948" lon="14.773873909740626"><ele>669.0</ele><time>2026-04-18T14:05:58.001Z</time></trkpt><trkpt lat="37.0523252788815" lon="14.773882105505153"><ele>669.0</ele><time>2026-04-18T14:06:00.001Z</time></trkpt><trkpt lat="37.052401219098186" lon="14.773889338442814"><ele>669.0</ele><time>2026-04-18T14:06:01.001Z</time></trkpt><trkpt lat="37.05247414657448" lon="14.77390368245683"><ele>669.0</ele><time>2026-04-18T14:06:02.001Z</time></trkpt><trkpt lat="37.05255357943638" lon="14.773917974063886"><ele>669.0</ele><time>2026-04-18T14:06:03.001Z</time></trkpt><trkpt lat="37.05263945613723" lon="14.7739318348477"><ele>669.8333333333334</ele><time>2026-04-18T14:06:04.001Z</time></trkpt><trkpt lat="37.05271281102251" lon="14.773942825289847"><ele>670.6666666666666</ele><time>2026-04-18T14:06:05.001Z</time></trkpt><trkpt lat="37.052783224510634" lon="14.77395856849777"><ele>671.5</ele><time>2026-04-18T14:06:06.001Z</time></trkpt><trkpt lat="37.05284972160276" lon="14.773972968144616"><ele>672.3333333333333</ele><time>2026-04-18T14:06:07.001Z</time></trkpt><trkpt lat="37.052927121764434" lon="14.7739806323019"><ele>673.1666666666666</ele><time>2026-04-18T14:06:08.001Z</time></trkpt><trkpt lat="37.05304567332193" lon="14.77399626749491"><ele>674.0</ele><time>2026-04-18T14:06:09.001Z</time></trkpt><trkpt lat="37.05317863994615" lon="14.774034046902893"><ele>674.0</ele><time>2026-04-18T14:06:10.001Z</time></trkpt><trkpt lat="37.053285930593574" lon="14.774080352946289"><ele>674.0</ele><time>2026-04-18T14:06:11.001Z</time></trkpt><trkpt lat="37.053394237906154" lon="14.77413799082028"><ele>674.0</ele><time>2026-04-18T14:06:12.001Z</time></trkpt><trkpt lat="37.053513927968275" lon="14.774196945931374"><ele>674.0</ele><time>2026-04-18T14:06:13.001Z</time></trkpt><trkpt lat="37.05361366337894" lon="14.774229452843894"><ele>675.0</ele><time>2026-04-18T14:06:14.001Z</time></trkpt><trkpt lat="37.0536927629002" lon="14.774223909626578"><ele>676.0</ele><time>2026-04-18T14:06:15.001Z</time></trkpt><trkpt lat="37.05379154424288" lon="14.774200865503623"><ele>677.0</ele><time>2026-04-18T14:06:17.001Z</time></trkpt><trkpt lat="37.053898042049006" lon="14.774105314272546"><ele>678.0</ele><time>2026-04-18T14:06:19.001Z</time></trkpt><trkpt lat="37.05399658829918" lon="14.774066393905859"><ele>679.0</ele><time>2026-04-18T14:06:20.001Z</time></trkpt><trkpt lat="37.054118145077545" lon="14.773990311695435"><ele>678.6</ele><time>2026-04-18T14:06:21.001Z</time></trkpt><trkpt lat="37.05421480415426" lon="14.773933948299998"><ele>678.2</ele><time>2026-04-18T14:06:22.001Z</time></trkpt><trkpt lat="37.05428853028142" lon="14.773872964570854"><ele>677.8000000000001</ele><time>2026-04-18T14:06:23.001Z</time></trkpt><trkpt lat="37.05435735989052" lon="14.773879277051803"><ele>677.4000000000001</ele><time>2026-04-18T14:06:24.001Z</time></trkpt><trkpt lat="37.05448727838415" lon="14.773903659962235"><ele>677.0</ele><time>2026-04-18T14:06:26.001Z</time></trkpt><trkpt lat="37.054557166275785" lon="14.77393333884167"><ele>677.0</ele><time>2026-04-18T14:06:27.001Z</time></trkpt><trkpt lat="37.054666414993186" lon="14.774044860071957"><ele>677.0</ele><time>2026-04-18T14:06:29.001Z</time></trkpt><trkpt lat="37.05475343744317" lon="14.774101374523005"><ele>677.0</ele><time>2026-04-18T14:06:30.001Z</time></trkpt><trkpt lat="37.05481487405617" lon="14.774120915980937"><ele>677.0</ele><time>2026-04-18T14:06:31.001Z</time></trkpt><trkpt lat="37.05488844413104" lon="14.77408582216031"><ele>677.0</ele><time>2026-04-18T14:06:32.001Z</time></trkpt><trkpt lat="37.05498209520726" lon="14.774051574066295"><ele>678.0</ele><time>2026-04-18T14:06:33.001Z</time></trkpt><trkpt lat="37.05506007573678" lon="14.774013427047416"><ele>679.0</ele><time>2026-04-18T14:06:34.001Z</time></trkpt><trkpt lat="37.055128037971066" lon="14.773972084816045"><ele>680.0</ele><time>2026-04-18T14:06:36.001Z</time></trkpt><trkpt lat="37.05517481519213" lon="14.773864598003668"><ele>681.0</ele><time>2026-04-18T14:06:55Z</time></trkpt><trkpt lat="37.05515898088055" lon="14.773762573458958"><ele>682.0</ele><time>2026-04-18T14:06:57Z</time></trkpt><trkpt lat="37.055117838878616" lon="14.77368684069664"><ele>683.0</ele><time>2026-04-18T14:06:58Z</time></trkpt><trkpt lat="37.05506253545404" lon="14.773592589512857"><ele>685.0</ele><time>2026-04-18T14:06:59Z</time></trkpt><trkpt lat="37.055022438022746" lon="14.77349819167051"><ele>687.0</ele><time>2026-04-18T14:07:00Z</time></trkpt><trkpt lat="37.05501303334497" lon="14.773366118141597"><ele>689.0</ele><time>2026-04-18T14:07:02Z</time></trkpt><trkpt lat="37.05503470289803" lon="14.773202812178086"><ele>691.0</ele><time>2026-04-18T14:07:04Z</time></trkpt><trkpt lat="37.05502948302457" lon="14.773078390274437"><ele>693.0</ele><time>2026-04-18T14:07:05Z</time></trkpt><trkpt lat="37.05505230350475" lon="14.772953343880738"><ele>693.0</ele><time>2026-04-18T14:07:06Z</time></trkpt><trkpt lat="37.05507987259887" lon="14.772843017273376"><ele>693.0</ele><time>2026-04-18T14:07:07Z</time></trkpt><trkpt lat="37.05508702923618" lon="14.772751175785489"><ele>693.0</ele><time>2026-04-18T14:07:08Z</time></trkpt><trkpt lat="37.05510862002433" lon="14.772616641693928"><ele>693.0</ele><time>2026-04-18T14:07:10Z</time></trkpt><trkpt lat="37.0551026275623" lon="14.772528693283931"><ele>693.0</ele><time>2026-04-18T14:07:11Z</time></trkpt><trkpt lat="37.055091910003014" lon="14.772423289914688"><ele>693.0</ele><time>2026-04-18T14:07:12Z</time></trkpt><trkpt lat="37.05507967535078" lon="14.772307004781949"><ele>694.1666666666666</ele><time>2026-04-18T14:07:13Z</time></trkpt><trkpt lat="37.055073309702465" lon="14.772214053698578"><ele>695.3333333333334</ele><time>2026-04-18T14:07:14Z</time></trkpt><trkpt lat="37.055101255573675" lon="14.772136720229176"><ele>696.5</ele><time>2026-04-18T14:07:15Z</time></trkpt><trkpt lat="37.05513851092707" lon="14.772066336752411"><ele>697.6666666666667</ele><time>2026-04-18T14:07:16Z</time></trkpt><trkpt lat="37.055177335440895" lon="14.77198944281229"><ele>698.8333333333334</ele><time>2026-04-18T14:07:17Z</time></trkpt><trkpt lat="37.0552266415502" lon="14.771902096601922"><ele>700.0</ele><time>2026-04-18T14:07:18Z</time></trkpt><trkpt lat="37.055283817997704" lon="14.771810276126635"><ele>700.6666666666667</ele><time>2026-04-18T14:07:19Z</time></trkpt><trkpt lat="37.055314880653825" lon="14.771733083492297"><ele>701.3333333333334</ele><time>2026-04-18T14:07:20Z</time></trkpt><trkpt lat="37.055360392866085" lon="14.771648914088267"><ele>702.0</ele><time>2026-04-18T14:07:22Z</time></trkpt><trkpt lat="37.055366058838544" lon="14.771568727565255"><ele>702.6666666666666</ele><time>2026-04-18T14:07:43Z</time></trkpt><trkpt lat="37.055247702566476" lon="14.771563504834951"><ele>703.3333333333333</ele><time>2026-04-18T14:07:46Z</time></trkpt><trkpt lat="37.05515642116039" lon="14.771627049241545"><ele>704.0</ele><time>2026-04-18T14:07:48Z</time></trkpt><trkpt lat="37.05502947053162" lon="14.771663904757421"><ele>703.8333333333333</ele><time>2026-04-18T14:07:50Z</time></trkpt><trkpt lat="37.0549506245914" lon="14.771667378367747"><ele>703.6666666666666</ele><time>2026-04-18T14:07:51Z</time></trkpt><trkpt lat="37.05486165455716" lon="14.771658524356186"><ele>703.5</ele><time>2026-04-18T14:07:52Z</time></trkpt><trkpt lat="37.0547860406372" lon="14.771629045971736"><ele>703.3333333333334</ele><time>2026-04-18T14:07:53Z</time></trkpt><trkpt lat="37.054714222493395" lon="14.771578072968502"><ele>703.1666666666667</ele><time>2026-04-18T14:07:54Z</time></trkpt><trkpt lat="37.05466303569568" lon="14.771504859114565"><ele>703.0</ele><time>2026-04-18T14:07:55Z</time></trkpt><trkpt lat="37.05460504303954" lon="14.771408663220399"><ele>703.0</ele><time>2026-04-18T14:07:56Z</time></trkpt><trkpt lat="37.054565733951485" lon="14.771304362590378"><ele>703.0</ele><time>2026-04-18T14:07:57Z</time></trkpt><trkpt lat="37.05454304957267" lon="14.77118201862795"><ele>703.0</ele><time>2026-04-18T14:07:58Z</time></trkpt><trkpt lat="37.05451089062916" lon="14.771024212617018"><ele>703.0</ele><time>2026-04-18T14:07:59Z</time></trkpt><trkpt lat="37.05447215015706" lon="14.770798529784177"><ele>704.6666666666667</ele><time>2026-04-18T14:08:00Z</time></trkpt><trkpt lat="37.05442700677781" lon="14.770587430119129"><ele>706.3333333333334</ele><time>2026-04-18T14:08:01Z</time></trkpt><trkpt lat="37.05436995724489" lon="14.770380254267252"><ele>708.0</ele><time>2026-04-18T14:08:02.001Z</time></trkpt><trkpt lat="37.054309851889585" lon="14.77018900537244"><ele>709.0</ele><time>2026-04-18T14:08:03.001Z</time></trkpt><trkpt lat="37.05424010490768" lon="14.769996409274375"><ele>710.0</ele><time>2026-04-18T14:08:04.001Z</time></trkpt><trkpt lat="37.05416243136119" lon="14.769798118136949"><ele>711.0</ele><time>2026-04-18T14:08:05.001Z</time></trkpt><trkpt lat="37.05407637426133" lon="14.769611944683847"><ele>711.0</ele><time>2026-04-18T14:08:06.001Z</time></trkpt><trkpt lat="37.05399410375236" lon="14.7694566552548"><ele>711.0</ele><time>2026-04-18T14:08:07.001Z</time></trkpt><trkpt lat="37.053915432777636" lon="14.769315849143874"><ele>711.0</ele><time>2026-04-18T14:08:08.001Z</time></trkpt><trkpt lat="37.05384534389829" lon="14.769195844983205"><ele>711.0</ele><time>2026-04-18T14:08:09.001Z</time></trkpt><trkpt lat="37.053781906274175" lon="14.769085159520362"><ele>713.75</ele><time>2026-04-18T14:08:10.001Z</time></trkpt><trkpt lat="37.053717464220455" lon="14.76896900487679"><ele>716.5</ele><time>2026-04-18T14:08:11.001Z</time></trkpt><trkpt lat="37.05364924227165" lon="14.768847209931502"><ele>719.25</ele><time>2026-04-18T14:08:12.001Z</time></trkpt><trkpt lat="37.053579861861095" lon="14.768720051154935"><ele>722.0</ele><time>2026-04-18T14:08:13.001Z</time></trkpt><trkpt lat="37.053509047680585" lon="14.768592795879385"><ele>721.75</ele><time>2026-04-18T14:08:14.001Z</time></trkpt><trkpt lat="37.053437165915355" lon="14.768463182202078"><ele>721.5</ele><time>2026-04-18T14:08:15.001Z</time></trkpt><trkpt lat="37.05336425273028" lon="14.768331875998966"><ele>721.25</ele><time>2026-04-18T14:08:16.001Z</time></trkpt><trkpt lat="37.05329195667881" lon="14.768199361174853"><ele>721.0</ele><time>2026-04-18T14:08:17.001Z</time></trkpt><trkpt lat="37.05321732198739" lon="14.768062611005755"><ele>719.75</ele><time>2026-04-18T14:08:18.001Z</time></trkpt><trkpt lat="37.053140732158404" lon="14.767921107284796"><ele>718.5</ele><time>2026-04-18T14:08:19.001Z</time></trkpt><trkpt lat="37.05306413053462" lon="14.76778032366059"><ele>717.25</ele><time>2026-04-18T14:08:20.001Z</time></trkpt><trkpt lat="37.05298529798485" lon="14.767636086048658"><ele>716.0</ele><time>2026-04-18T14:08:21.001Z</time></trkpt><trkpt lat="37.052903916734905" lon="14.767488525495374"><ele>716.0</ele><time>2026-04-18T14:08:22.001Z</time></trkpt><trkpt lat="37.0528250973826" lon="14.767342006544814"><ele>716.0</ele><time>2026-04-18T14:08:23.001Z</time></trkpt><trkpt lat="37.05274246071844" lon="14.767189473804985"><ele>716.0</ele><time>2026-04-18T14:08:24.001Z</time></trkpt><trkpt lat="37.05266090519832" lon="14.76703151581291"><ele>716.0</ele><time>2026-04-18T14:08:25.001Z</time></trkpt><trkpt lat="37.05258518105022" lon="14.766876408134975"><ele>720.0</ele><time>2026-04-18T14:08:26.001Z</time></trkpt><trkpt lat="37.052495393355485" lon="14.766688099376404"><ele>724.0</ele><time>2026-04-18T14:08:27.001Z</time></trkpt><trkpt lat="37.05240603692351" lon="14.766497412021108"><ele>728.0</ele><time>2026-04-18T14:08:28.001Z</time></trkpt><trkpt lat="37.052326659929165" lon="14.766313997786057"><ele>728.3333333333333</ele><time>2026-04-18T14:08:29.001Z</time></trkpt><trkpt lat="37.05225314452618" lon="14.766131981112304"><ele>728.6666666666666</ele><time>2026-04-18T14:08:30.001Z</time></trkpt><trkpt lat="37.05218422996383" lon="14.76594983978757"><ele>729.0</ele><time>2026-04-18T14:08:31.001Z</time></trkpt><trkpt lat="37.05210971329197" lon="14.765760263186966"><ele>730.6666666666666</ele><time>2026-04-18T14:08:32.001Z</time></trkpt><trkpt lat="37.05203011769202" lon="14.76557761696448"><ele>732.3333333333333</ele><time>2026-04-18T14:08:33.001Z</time></trkpt><trkpt lat="37.05194420194499" lon="14.765403642789488"><ele>734.0</ele><time>2026-04-18T14:08:34.001Z</time></trkpt><trkpt lat="37.05185577502861" lon="14.765252021618254"><ele>733.5</ele><time>2026-04-18T14:08:35.001Z</time></trkpt><trkpt lat="37.05176295074588" lon="14.765121166251427"><ele>733.0</ele><time>2026-04-18T14:08:36.001Z</time></trkpt><trkpt lat="37.05165732674787" lon="14.765015919729253"><ele>732.5</ele><time>2026-04-18T14:08:37.001Z</time></trkpt><trkpt lat="37.05153123533849" lon="14.764928314705472"><ele>732.0</ele><time>2026-04-18T14:08:38.001Z</time></trkpt><trkpt lat="37.05138729406876" lon="14.76485257270368"><ele>733.6666666666666</ele><time>2026-04-18T14:08:39.001Z</time></trkpt><trkpt lat="37.051227210316945" lon="14.76478574668249"><ele>735.3333333333333</ele><time>2026-04-18T14:08:40.001Z</time></trkpt><trkpt lat="37.05104393235196" lon="14.764722079744523"><ele>737.0</ele><time>2026-04-18T14:08:41.001Z</time></trkpt><trkpt lat="37.050846741988806" lon="14.764649756848398"><ele>738.0</ele><time>2026-04-18T14:08:42.001Z</time></trkpt><trkpt lat="37.05064890142475" lon="14.764571714090751"><ele>739.0</ele><time>2026-04-18T14:08:43.001Z</time></trkpt><trkpt lat="37.05045427434208" lon="14.764497984342835"><ele>740.0</ele><time>2026-04-18T14:08:44.001Z</time></trkpt><trkpt lat="37.05024273459045" lon="14.764428363295703"><ele>744.0</ele><time>2026-04-18T14:08:45.001Z</time></trkpt><trkpt lat="37.05002606715479" lon="14.764359656848503"><ele>748.0</ele><time>2026-04-18T14:08:46.001Z</time></trkpt><trkpt lat="37.04980293765855" lon="14.76429162864119"><ele>749.6666666666667</ele><time>2026-04-18T14:08:47.001Z</time></trkpt><trkpt lat="37.04958178598051" lon="14.764221780906864"><ele>751.3333333333334</ele><time>2026-04-18T14:08:48.001Z</time></trkpt><trkpt lat="37.04938196269998" lon="14.764146729753929"><ele>753.0</ele><time>2026-04-18T14:08:49.001Z</time></trkpt><trkpt lat="37.04918448230999" lon="14.764055288906567"><ele>754.0</ele><time>2026-04-18T14:08:50.001Z</time></trkpt><trkpt lat="37.04897420472569" lon="14.763939236684905"><ele>755.0</ele><time>2026-04-18T14:08:51.001Z</time></trkpt><trkpt lat="37.048758072256994" lon="14.763810019896074"><ele>755.0</ele><time>2026-04-18T14:08:52.001Z</time></trkpt><trkpt lat="37.048549451956866" lon="14.763673709549288"><ele>755.0</ele><time>2026-04-18T14:08:53.001Z</time></trkpt><trkpt lat="37.04835677797584" lon="14.763540777214798"><ele>759.6666666666666</ele><time>2026-04-18T14:08:54Z</time></trkpt><trkpt lat="37.04818035788493" lon="14.763407300566898"><ele>764.3333333333333</ele><time>2026-04-18T14:08:55Z</time></trkpt><trkpt lat="37.048006315182555" lon="14.76326658350013"><ele>769.0</ele><time>2026-04-18T14:08:56Z</time></trkpt><trkpt lat="37.047829508894374" lon="14.763109969364304"><ele>769.0</ele><time>2026-04-18T14:08:57Z</time></trkpt><trkpt lat="37.04765405335184" lon="14.762941569687678"><ele>769.0</ele><time>2026-04-18T14:08:58Z</time></trkpt><trkpt lat="37.047486643649684" lon="14.76276987114273"><ele>769.0</ele><time>2026-04-18T14:08:59Z</time></trkpt><trkpt lat="37.04733915690328" lon="14.762603340592314"><ele>768.3333333333333</ele><time>2026-04-18T14:09:00Z</time></trkpt><trkpt lat="37.047199113869404" lon="14.7624242013381"><ele>767.6666666666666</ele><time>2026-04-18T14:09:01Z</time></trkpt><trkpt lat="37.047058254620204" lon="14.762239972724919"><ele>767.0</ele><time>2026-04-18T14:09:02Z</time></trkpt><trkpt lat="37.04691928205089" lon="14.762035980261206"><ele>766.0</ele><time>2026-04-18T14:09:03Z</time></trkpt><trkpt lat="37.046781133666826" lon="14.761823384296806"><ele>765.0</ele><time>2026-04-18T14:09:04Z</time></trkpt><trkpt lat="37.046647091383875" lon="14.761602944403352"><ele>764.0</ele><time>2026-04-18T14:09:05Z</time></trkpt><trkpt lat="37.04652130881" lon="14.761385433669206"><ele>764.0</ele><time>2026-04-18T14:09:06Z</time></trkpt><trkpt lat="37.04639867293974" lon="14.761171019938757"><ele>764.0</ele><time>2026-04-18T14:09:07Z</time></trkpt><trkpt lat="37.04627851933291" lon="14.760957325748375"><ele>764.0</ele><time>2026-04-18T14:09:08Z</time></trkpt><trkpt lat="37.04616279894667" lon="14.76074611134943"><ele>768.0</ele><time>2026-04-18T14:09:09Z</time></trkpt><trkpt lat="37.0460489567153" lon="14.760536289155713"><ele>772.0</ele><time>2026-04-18T14:09:10Z</time></trkpt><trkpt lat="37.04593416895416" lon="14.76033016320291"><ele>776.0</ele><time>2026-04-18T14:09:11Z</time></trkpt><trkpt lat="37.045815824236854" lon="14.760121322426622"><ele>776.3333333333334</ele><time>2026-04-18T14:09:12Z</time></trkpt><trkpt lat="37.045697432815224" lon="14.759906114345153"><ele>776.6666666666667</ele><time>2026-04-18T14:09:13Z</time></trkpt><trkpt lat="37.04557984832472" lon="14.759688817126813"><ele>777.0</ele><time>2026-04-18T14:09:14Z</time></trkpt><trkpt lat="37.045466840307405" lon="14.759484378402536"><ele>778.3333333333333</ele><time>2026-04-18T14:09:15Z</time></trkpt><trkpt lat="37.04536102002032" lon="14.759303183046777"><ele>779.6666666666666</ele><time>2026-04-18T14:09:16Z</time></trkpt><trkpt lat="37.04525510923598" lon="14.759139225429873"><ele>781.0</ele><time>2026-04-18T14:09:17Z</time></trkpt><trkpt lat="37.04513987927215" lon="14.758971340359645"><ele>781.0</ele><time>2026-04-18T14:09:18Z</time></trkpt><trkpt lat="37.0450199369197" lon="14.758790583062506"><ele>781.0</ele><time>2026-04-18T14:09:19Z</time></trkpt><trkpt lat="37.04490868119325" lon="14.758610458439026"><ele>781.0</ele><time>2026-04-18T14:09:20Z</time></trkpt><trkpt lat="37.04480921796588" lon="14.7584403408361"><ele>777.75</ele><time>2026-04-18T14:09:21Z</time></trkpt><trkpt lat="37.04473304873417" lon="14.758278851733154"><ele>774.5</ele><time>2026-04-18T14:09:22Z</time></trkpt><trkpt lat="37.04466721564625" lon="14.75811735750764"><ele>771.25</ele><time>2026-04-18T14:09:23Z</time></trkpt><trkpt lat="37.044606408709974" lon="14.75793962899583"><ele>768.0</ele><time>2026-04-18T14:09:24Z</time></trkpt><trkpt lat="37.04455014275399" lon="14.757750523272207"><ele>773.3333333333333</ele><time>2026-04-18T14:09:25Z</time></trkpt><trkpt lat="37.044498362016306" lon="14.757561396572331"><ele>778.6666666666666</ele><time>2026-04-18T14:09:26Z</time></trkpt><trkpt lat="37.04444552228791" lon="14.757352544894653"><ele>784.0</ele><time>2026-04-18T14:09:27Z</time></trkpt><trkpt lat="37.04438816055096" lon="14.757157444632572"><ele>784.0</ele><time>2026-04-18T14:09:28Z</time></trkpt><trkpt lat="37.04432348667351" lon="14.756966673963555"><ele>784.0</ele><time>2026-04-18T14:09:29Z</time></trkpt><trkpt lat="37.044250063712546" lon="14.756779557545554"><ele>784.0</ele><time>2026-04-18T14:09:30Z</time></trkpt><trkpt lat="37.04416262207517" lon="14.756601071727271"><ele>782.0</ele><time>2026-04-18T14:09:31Z</time></trkpt><trkpt lat="37.04406099602901" lon="14.756440124067874"><ele>780.0</ele><time>2026-04-18T14:09:32Z</time></trkpt><trkpt lat="37.043945547658176" lon="14.75628598338346"><ele>778.0</ele><time>2026-04-18T14:09:33Z</time></trkpt><trkpt lat="37.043821810636715" lon="14.756146602389382"><ele>782.0</ele><time>2026-04-18T14:09:34Z</time></trkpt><trkpt lat="37.04369036877426" lon="14.756012515406578"><ele>786.0</ele><time>2026-04-18T14:09:35Z</time></trkpt><trkpt lat="37.0435539000054" lon="14.75589280038324"><ele>790.0</ele><time>2026-04-18T14:09:36Z</time></trkpt><trkpt lat="37.043417361264616" lon="14.75578574716514"><ele>786.5</ele><time>2026-04-18T14:09:37Z</time></trkpt><trkpt lat="37.043291166774324" lon="14.755694098677294"><ele>783.0</ele><time>2026-04-18T14:09:38Z</time></trkpt><trkpt lat="37.04317916440443" lon="14.755610592040439"><ele>779.5</ele><time>2026-04-18T14:09:39Z</time></trkpt><trkpt lat="37.043080309037" lon="14.755537305752538"><ele>776.0</ele><time>2026-04-18T14:09:40Z</time></trkpt><trkpt lat="37.04300032236228" lon="14.755466296558028"><ele>776.0</ele><time>2026-04-18T14:09:41Z</time></trkpt><trkpt lat="37.042938394371205" lon="14.755381941072512"><ele>776.0</ele><time>2026-04-18T14:09:42Z</time></trkpt><trkpt lat="37.04289123209473" lon="14.755271082518236"><ele>776.0</ele><time>2026-04-18T14:09:43Z</time></trkpt><trkpt lat="37.0428546094094" lon="14.755140451469291"><ele>776.0</ele><time>2026-04-18T14:09:44Z</time></trkpt><trkpt lat="37.04281487320185" lon="14.754998499984541"><ele>776.0</ele><time>2026-04-18T14:09:45Z</time></trkpt><trkpt lat="37.0427612465726" lon="14.754873402175168"><ele>778.5</ele><time>2026-04-18T14:09:46Z</time></trkpt><trkpt lat="37.04268764959911" lon="14.754771473694808"><ele>781.0</ele><time>2026-04-18T14:09:47Z</time></trkpt><trkpt lat="37.042598644700355" lon="14.754686939409032"><ele>783.5</ele><time>2026-04-18T14:09:48Z</time></trkpt><trkpt lat="37.042489086063114" lon="14.754612252585261"><ele>786.0</ele><time>2026-04-18T14:09:49Z</time></trkpt><trkpt lat="37.042368642831825" lon="14.75455806308002"><ele>786.0</ele><time>2026-04-18T14:09:50Z</time></trkpt><trkpt lat="37.04225712582408" lon="14.754492516839537"><ele>786.0</ele><time>2026-04-18T14:09:51Z</time></trkpt><trkpt lat="37.04216027253875" lon="14.754437315063713"><ele>786.0</ele><time>2026-04-18T14:09:52Z</time></trkpt><trkpt lat="37.04206053474594" lon="14.754427077888145"><ele>786.0</ele><time>2026-04-18T14:09:53Z</time></trkpt><trkpt lat="37.04198740205649" lon="14.7543300244526"><ele>786.0</ele><time>2026-04-18T14:09:54Z</time></trkpt><trkpt lat="37.04191645963641" lon="14.754209012513114"><ele>786.0</ele><time>2026-04-18T14:09:55Z</time></trkpt><trkpt lat="37.04184446977461" lon="14.754070963444251"><ele>786.0</ele><time>2026-04-18T14:09:56Z</time></trkpt><trkpt lat="37.04176644420372" lon="14.7538999146784"><ele>786.0</ele><time>2026-04-18T14:09:57Z</time></trkpt><trkpt lat="37.04168031494196" lon="14.753700619338053"><ele>781.6666666666667</ele><time>2026-04-18T14:09:58Z</time></trkpt><trkpt lat="37.04158721674989" lon="14.753496136438569"><ele>777.3333333333334</ele><time>2026-04-18T14:09:59.001Z</time></trkpt><trkpt lat="37.04149291382114" lon="14.753305279467313"><ele>773.0</ele><time>2026-04-18T14:10:00.001Z</time></trkpt><trkpt lat="37.041404713381006" lon="14.753144831602548"><ele>773.0</ele><time>2026-04-18T14:10:01.001Z</time></trkpt><trkpt lat="37.041317825600125" lon="14.753008542002455"><ele>773.0</ele><time>2026-04-18T14:10:02.001Z</time></trkpt><trkpt lat="37.04123033591318" lon="14.752889974090293"><ele>773.0</ele><time>2026-04-18T14:10:03.001Z</time></trkpt><trkpt lat="37.041145387157286" lon="14.752787089280279"><ele>773.0</ele><time>2026-04-18T14:10:04.001Z</time></trkpt><trkpt lat="37.04106717963782" lon="14.752686256140109"><ele>775.6666666666667</ele><time>2026-04-18T14:10:05.001Z</time></trkpt><trkpt lat="37.04100341683184" lon="14.752594590642122"><ele>778.3333333333334</ele><time>2026-04-18T14:10:06.001Z</time></trkpt><trkpt lat="37.04095098175968" lon="14.752519668616937"><ele>781.0</ele><time>2026-04-18T14:10:07.001Z</time></trkpt><trkpt lat="37.040905701335085" lon="14.752455267142713"><ele>783.6666666666667</ele><time>2026-04-18T14:10:08.001Z</time></trkpt><trkpt lat="37.04085778832014" lon="14.752361413340182"><ele>786.3333333333334</ele><time>2026-04-18T14:10:10.001Z</time></trkpt><trkpt lat="37.04087596579198" lon="14.752277457472319"><ele>789.0</ele><time>2026-04-18T14:10:12.001Z</time></trkpt><trkpt lat="37.04092091666204" lon="14.752141406861838"><ele>789.0</ele><time>2026-04-18T14:10:14.001Z</time></trkpt><trkpt lat="37.04095441794745" lon="14.75205526990211"><ele>789.0</ele><time>2026-04-18T14:10:16.001Z</time></trkpt><trkpt lat="37.0409884616801" lon="14.751957296683077"><ele>789.0</ele><time>2026-04-18T14:10:17.001Z</time></trkpt><trkpt lat="37.04101506232899" lon="14.75187195088505"><ele>789.0</ele><time>2026-04-18T14:10:18.001Z</time></trkpt><trkpt lat="37.04106176412141" lon="14.751749831146826"><ele>789.0</ele><time>2026-04-18T14:10:20.001Z</time></trkpt><trkpt lat="37.0411231853672" lon="14.751601269542016"><ele>789.8333333333334</ele><time>2026-04-18T14:10:22.001Z</time></trkpt><trkpt lat="37.04115323415669" lon="14.751507408489827"><ele>790.6666666666667</ele><time>2026-04-18T14:10:23.001Z</time></trkpt><trkpt lat="37.041174204355656" lon="14.751389290993293"><ele>791.5</ele><time>2026-04-18T14:10:25.001Z</time></trkpt><trkpt lat="37.04114561138757" lon="14.751309846718351"><ele>792.3333333333334</ele><time>2026-04-18T14:10:27.001Z</time></trkpt><trkpt lat="37.04111317199968" lon="14.751240653348825"><ele>793.1666666666667</ele><time>2026-04-18T14:10:28.001Z</time></trkpt><trkpt lat="37.041046065060335" lon="14.75110569922378"><ele>794.0</ele><time>2026-04-18T14:10:30.001Z</time></trkpt><trkpt lat="37.041011280357615" lon="14.751023822104909"><ele>794.0000000000001</ele><time>2026-04-18T14:10:32.001Z</time></trkpt><trkpt lat="37.041009833993805" lon="14.750919812835832"><ele>794.0</ele><time>2026-04-18T14:10:34.001Z</time></trkpt><trkpt lat="37.040981164189226" lon="14.750816313400307"><ele>794.0</ele><time>2026-04-18T14:10:36.001Z</time></trkpt><trkpt lat="37.04092848290673" lon="14.750717688942526"><ele>794.0</ele><time>2026-04-18T14:10:38.001Z</time></trkpt><trkpt lat="37.040905067692826" lon="14.750612749624961"><ele>794.0000000000001</ele><time>2026-04-18T14:10:40.001Z</time></trkpt><trkpt lat="37.040872208600845" lon="14.750541913536352"><ele>794.0</ele><time>2026-04-18T14:10:41.001Z</time></trkpt><trkpt lat="37.040825563422956" lon="14.750464026814166"><ele>794.0</ele><time>2026-04-18T14:10:42.001Z</time></trkpt><trkpt lat="37.0407948386154" lon="14.750387292539502"><ele>794.0</ele><time>2026-04-18T14:10:44.001Z</time></trkpt><trkpt lat="37.0407362924294" lon="14.750228349302768"><ele>794.0</ele><time>2026-04-18T14:10:46.001Z</time></trkpt><trkpt lat="37.040726877576006" lon="14.750139933491706"><ele>794.0</ele><time>2026-04-18T14:10:47.001Z</time></trkpt><trkpt lat="37.04069431814831" lon="14.75006247052596"><ele>794.0</ele><time>2026-04-18T14:10:48.001Z</time></trkpt><trkpt lat="37.04068287252785" lon="14.749902600279812"><ele>794.0</ele><time>2026-04-18T14:10:50.001Z</time></trkpt><trkpt lat="37.040660778545636" lon="14.74981698019426"><ele>794.0</ele><time>2026-04-18T14:10:51.001Z</time></trkpt><trkpt lat="37.04064616062095" lon="14.749736788135046"><ele>794.0</ele><time>2026-04-18T14:10:52.001Z</time></trkpt><trkpt lat="37.04065335124586" lon="14.749636775573409"><ele>794.0</ele><time>2026-04-18T14:10:53.001Z</time></trkpt><trkpt lat="37.04064620850438" lon="14.749558417095813"><ele>794.0</ele><time>2026-04-18T14:10:54.001Z</time></trkpt><trkpt lat="37.04062043583026" lon="14.749440097995782"><ele>794.0</ele><time>2026-04-18T14:10:56.001Z</time></trkpt><trkpt lat="37.040605945066716" lon="14.749363281473194"><ele>794.0</ele><time>2026-04-18T14:10:57.001Z</time></trkpt><trkpt lat="37.0405645593748" lon="14.749232861596347"><ele>793.7142857142857</ele><time>2026-04-18T14:10:59Z</time></trkpt><trkpt lat="37.04053637011839" lon="14.749148767757156"><ele>793.4285714285713</ele><time>2026-04-18T14:11:00Z</time></trkpt><trkpt lat="37.04050263773107" lon="14.749070719868847"><ele>793.1428571428571</ele><time>2026-04-18T14:11:01Z</time></trkpt><trkpt lat="37.04047283175063" lon="14.748994642203339"><ele>792.8571428571429</ele><time>2026-04-18T14:11:02Z</time></trkpt><trkpt lat="37.04043395524121" lon="14.748867707671021"><ele>792.5714285714286</ele><time>2026-04-18T14:11:04Z</time></trkpt><trkpt lat="37.04040919645614" lon="14.748793447140706"><ele>792.2857142857143</ele><time>2026-04-18T14:11:05Z</time></trkpt><trkpt lat="37.04038893061806" lon="14.748715673880891"><ele>792.0</ele><time>2026-04-18T14:11:06Z</time></trkpt><trkpt lat="37.04036291271201" lon="14.748643538149352"><ele>790.2</ele><time>2026-04-18T14:11:07Z</time></trkpt><trkpt lat="37.04032960015872" lon="14.748534556862658"><ele>788.4000000000001</ele><time>2026-04-18T14:11:09Z</time></trkpt><trkpt lat="37.04029392026375" lon="14.748441309395188"><ele>786.5999999999999</ele><time>2026-04-18T14:11:11Z</time></trkpt><trkpt lat="37.04025086679989" lon="14.748317429610776"><ele>784.8</ele><time>2026-04-18T14:11:13Z</time></trkpt><trkpt lat="37.04022535951633" lon="14.74820539325498"><ele>783.0</ele><time>2026-04-18T14:11:15Z</time></trkpt><trkpt lat="37.0401834953484" lon="14.748113896998538"><ele>783.0</ele><time>2026-04-18T14:11:17Z</time></trkpt><trkpt lat="37.04014628815178" lon="14.748040020490775"><ele>783.0</ele><time>2026-04-18T14:11:19Z</time></trkpt><trkpt lat="37.040115248531606" lon="14.747943099433424"><ele>783.0</ele><time>2026-04-18T14:11:22Z</time></trkpt><trkpt lat="37.040128995059405" lon="14.74785154154766"><ele>783.0</ele><time>2026-04-18T14:11:36Z</time></trkpt><trkpt lat="37.04016472625098" lon="14.747783137253776"><ele>783.0</ele><time>2026-04-18T14:11:39Z</time></trkpt><trkpt lat="37.040148694898846" lon="14.74770166759397"><ele>783.0</ele><time>2026-04-18T14:11:43Z</time></trkpt><trkpt lat="37.04011749798983" lon="14.747626034779687"><ele>783.0</ele><time>2026-04-18T14:11:49Z</time></trkpt><trkpt lat="37.04009393516459" lon="14.747539416819318"><ele>781.8</ele><time>2026-04-18T14:12:37.001Z</time></trkpt><trkpt lat="37.04006407675379" lon="14.747431549904386"><ele>780.5999999999999</ele><time>2026-04-18T14:12:39.001Z</time></trkpt><trkpt lat="37.04004152342838" lon="14.747297982801188"><ele>779.4000000000001</ele><time>2026-04-18T14:12:41.001Z</time></trkpt><trkpt lat="37.04001076544574" lon="14.747172981943429"><ele>778.2</ele><time>2026-04-18T14:12:43.001Z</time></trkpt><trkpt lat="37.039983047772076" lon="14.74705865569329"><ele>777.0</ele><time>2026-04-18T14:12:45.001Z</time></trkpt><trkpt lat="37.039953521438434" lon="14.74694836298702"><ele>774.25</ele><time>2026-04-18T14:12:47.001Z</time></trkpt><trkpt lat="37.03990553624637" lon="14.74680324320591"><ele>771.5</ele><time>2026-04-18T14:12:49.001Z</time></trkpt><trkpt lat="37.03987217948149" lon="14.746660976538895"><ele>768.75</ele><time>2026-04-18T14:12:51.001Z</time></trkpt><trkpt lat="37.039845126185945" lon="14.746541298796787"><ele>766.0</ele><time>2026-04-18T14:12:53.001Z</time></trkpt><trkpt lat="37.03981499511748" lon="14.746398076231495"><ele>766.0</ele><time>2026-04-18T14:12:55.001Z</time></trkpt><trkpt lat="37.03979049908431" lon="14.746271069910172"><ele>766.0</ele><time>2026-04-18T14:12:57.001Z</time></trkpt><trkpt lat="37.039759752023876" lon="14.746142723837766"><ele>766.0</ele><time>2026-04-18T14:12:59.001Z</time></trkpt><trkpt lat="37.03973045840604" lon="14.746026558674414"><ele>766.0</ele><time>2026-04-18T14:13:01.001Z</time></trkpt><trkpt lat="37.03969497280622" lon="14.745862948576644"><ele>766.0</ele><time>2026-04-18T14:13:03.001Z</time></trkpt><trkpt lat="37.03966914145989" lon="14.745765503829462"><ele>764.4</ele><time>2026-04-18T14:13:05Z</time></trkpt><trkpt lat="37.039624078950446" lon="14.74565929891754"><ele>762.8</ele><time>2026-04-18T14:13:08Z</time></trkpt><trkpt lat="37.039595828660694" lon="14.745569258784165"><ele>761.1999999999999</ele><time>2026-04-18T14:13:10Z</time></trkpt><trkpt lat="37.039599385212256" lon="14.745448966100188"><ele>759.5999999999999</ele><time>2026-04-18T14:13:12Z</time></trkpt><trkpt lat="37.03963815852366" lon="14.745345021512144"><ele>758.0</ele><time>2026-04-18T14:13:14Z</time></trkpt><trkpt lat="37.03965433524013" lon="14.745229759374093"><ele>755.0</ele><time>2026-04-18T14:13:16Z</time></trkpt><trkpt lat="37.03967396804693" lon="14.74508987183959"><ele>752.0</ele><time>2026-04-18T14:13:18Z</time></trkpt><trkpt lat="37.039483316977574" lon="14.744944047829511"><ele>749.0</ele><time>2026-04-18T14:13:20Z</time></trkpt><trkpt lat="37.03945330103127" lon="14.744798829013787"><ele>749.0</ele><time>2026-04-18T14:13:22Z</time></trkpt><trkpt lat="37.039422970690225" lon="14.744648754829093"><ele>749.0</ele><time>2026-04-18T14:13:24Z</time></trkpt><trkpt lat="37.039390745091616" lon="14.744531218584411"><ele>749.0</ele><time>2026-04-18T14:13:26Z</time></trkpt><trkpt lat="37.03933128466224" lon="14.744401383915681"><ele>749.0</ele><time>2026-04-18T14:13:28Z</time></trkpt><trkpt lat="37.039271375496746" lon="14.744267352224865"><ele>747.2</ele><time>2026-04-18T14:13:30Z</time></trkpt><trkpt lat="37.03920120858662" lon="14.74414811420608"><ele>745.4000000000001</ele><time>2026-04-18T14:13:32Z</time></trkpt><trkpt lat="37.03914174746997" lon="14.744081907286679"><ele>743.6</ele><time>2026-04-18T14:13:34Z</time></trkpt><trkpt lat="37.039068037720654" lon="14.74398808363026"><ele>741.8</ele><time>2026-04-18T14:13:36Z</time></trkpt><trkpt lat="37.038987256299514" lon="14.743906699676108"><ele>740.0</ele><time>2026-04-18T14:13:38Z</time></trkpt><trkpt lat="37.038931587303274" lon="14.743819518926692"><ele>740.0</ele><time>2026-04-18T14:13:40Z</time></trkpt><trkpt lat="37.03887993729953" lon="14.743746244862487"><ele>740.0</ele><time>2026-04-18T14:13:42Z</time></trkpt><trkpt lat="37.038816367333915" lon="14.743667603025278"><ele>740.0</ele><time>2026-04-18T14:13:45Z</time></trkpt><trkpt lat="37.03874754232407" lon="14.743573829984584"><ele>740.0</ele><time>2026-04-18T14:13:47Z</time></trkpt><trkpt lat="37.03867051207245" lon="14.743470433620386"><ele>740.0</ele><time>2026-04-18T14:13:49Z</time></trkpt><trkpt lat="37.038599652733666" lon="14.74337922181974"><ele>738.8333333333333</ele><time>2026-04-18T14:13:51Z</time></trkpt><trkpt lat="37.038544102996745" lon="14.743281122050314"><ele>737.6666666666666</ele><time>2026-04-18T14:13:53Z</time></trkpt><trkpt lat="37.038467949848545" lon="14.743177949902716"><ele>736.5</ele><time>2026-04-18T14:13:55Z</time></trkpt><trkpt lat="37.038422141726876" lon="14.743116143182908"><ele>735.3333333333334</ele><time>2026-04-18T14:13:56Z</time></trkpt><trkpt lat="37.03836507604971" lon="14.743044768820823"><ele>734.1666666666667</ele><time>2026-04-18T14:13:57Z</time></trkpt><trkpt lat="37.03831355334156" lon="14.742988283224573"><ele>733.0</ele><time>2026-04-18T14:13:58Z</time></trkpt><trkpt lat="37.03825652900663" lon="14.742935045797811"><ele>733.0</ele><time>2026-04-18T14:13:59Z</time></trkpt><trkpt lat="37.03820719756829" lon="14.742884352394944"><ele>733.0</ele><time>2026-04-18T14:14:00Z</time></trkpt><trkpt lat="37.0381193138684" lon="14.742804670727317"><ele>733.0</ele><time>2026-04-18T14:14:02Z</time></trkpt><trkpt lat="37.03801459832835" lon="14.742733903221442"><ele>733.0</ele><time>2026-04-18T14:14:04Z</time></trkpt><trkpt lat="37.037909551159395" lon="14.742654593554704"><ele>733.0</ele><time>2026-04-18T14:14:06Z</time></trkpt><trkpt lat="37.03785814260791" lon="14.74260874137213"><ele>730.5999999999999</ele><time>2026-04-18T14:14:07Z</time></trkpt><trkpt lat="37.03776772081432" lon="14.742526406970082"><ele>728.1999999999999</ele><time>2026-04-18T14:14:09Z</time></trkpt><trkpt lat="37.03770316590392" lon="14.742442960522878"><ele>725.8</ele><time>2026-04-18T14:14:11Z</time></trkpt><trkpt lat="37.03764379342418" lon="14.742374976037542"><ele>723.4</ele><time>2026-04-18T14:14:13Z</time></trkpt><trkpt lat="37.03758803402207" lon="14.7423161396791"><ele>721.0</ele><time>2026-04-18T14:14:15Z</time></trkpt><trkpt lat="37.03750913282766" lon="14.74223222987477"><ele>720.6666666666667</ele><time>2026-04-18T14:14:17Z</time></trkpt><trkpt lat="37.03743665385698" lon="14.742141553320774"><ele>720.3333333333334</ele><time>2026-04-18T14:14:19.001Z</time></trkpt><trkpt lat="37.037392399702654" lon="14.742048930521978"><ele>720.0</ele><time>2026-04-18T14:14:21.001Z</time></trkpt><trkpt lat="37.03736045952019" lon="14.741970873660385"><ele>719.6666666666666</ele><time>2026-04-18T14:14:23.001Z</time></trkpt><trkpt lat="37.03732696816607" lon="14.741886965995658"><ele>719.3333333333333</ele><time>2026-04-18T14:14:25.001Z</time></trkpt><trkpt lat="37.037287668747275" lon="14.741808960609704"><ele>719.0</ele><time>2026-04-18T14:14:28.001Z</time></trkpt><trkpt lat="37.03724350334905" lon="14.741714508702215"><ele>718.4285714285713</ele><time>2026-04-18T14:14:31.001Z</time></trkpt><trkpt lat="37.03720161643664" lon="14.741631378286145"><ele>717.8571428571429</ele><time>2026-04-18T14:14:34.001Z</time></trkpt><trkpt lat="37.03718646055539" lon="14.74155342962886"><ele>717.2857142857142</ele><time>2026-04-18T14:14:37.001Z</time></trkpt><trkpt lat="37.037175709935084" lon="14.741451028085908"><ele>716.7142857142857</ele><time>2026-04-18T14:14:40.001Z</time></trkpt><trkpt lat="37.03718986794176" lon="14.741372376091899"><ele>716.1428571428571</ele><time>2026-04-18T14:14:42.001Z</time></trkpt><trkpt lat="37.037214560790204" lon="14.74129651519486"><ele>715.5714285714286</ele><time>2026-04-18T14:14:44.001Z</time></trkpt><trkpt lat="37.037244764818176" lon="14.74120688646756"><ele>715.0</ele><time>2026-04-18T14:14:46.001Z</time></trkpt><trkpt lat="37.03727469361061" lon="14.741099822954743"><ele>715.0</ele><time>2026-04-18T14:14:48.001Z</time></trkpt><trkpt lat="37.03729134807401" lon="14.740988600242742"><ele>715.0</ele><time>2026-04-18T14:14:50.001Z</time></trkpt><trkpt lat="37.03729749154468" lon="14.740881935767042"><ele>715.0</ele><time>2026-04-18T14:14:52.001Z</time></trkpt><trkpt lat="37.03737321623799" lon="14.740844119052504"><ele>715.0</ele><time>2026-04-18T14:15:06.001Z</time></trkpt><trkpt lat="37.03743747852356" lon="14.740848219490491"><ele>715.0</ele><time>2026-04-18T14:15:08.001Z</time></trkpt><trkpt lat="37.03750726979833" lon="14.740852593963139"><ele>715.0</ele><time>2026-04-18T14:15:10.001Z</time></trkpt><trkpt lat="37.037574147331696" lon="14.740864150223194"><ele>715.3333333333334</ele><time>2026-04-18T14:15:12Z</time></trkpt><trkpt lat="37.037653773373144" lon="14.740871402982469"><ele>715.6666666666667</ele><time>2026-04-18T14:15:14Z</time></trkpt><trkpt lat="37.037743904302765" lon="14.740864526079516"><ele>716.0</ele><time>2026-04-18T14:15:16Z</time></trkpt><trkpt lat="37.03782931493101" lon="14.740853772127377"><ele>716.3333333333334</ele><time>2026-04-18T14:15:18Z</time></trkpt><trkpt lat="37.03791904712967" lon="14.740844236553214"><ele>716.6666666666666</ele><time>2026-04-18T14:15:20Z</time></trkpt><trkpt lat="37.03799058744314" lon="14.740832755582897"><ele>717.0</ele><time>2026-04-18T14:15:22.057Z</time></trkpt><trkpt lat="37.038069639851976" lon="14.740827389163224"><ele>733.0</ele><time>2026-04-18T14:15:24.041Z</time></trkpt><trkpt lat="37.038597441540155" lon="14.7412615521843"><ele>733.0</ele><time>2026-04-18T14:15:34Z</time></trkpt><trkpt lat="37.03867692820086" lon="14.741201338101062"><ele>733.0</ele><time>2026-04-18T14:15:35Z</time></trkpt><trkpt lat="37.03872389866949" lon="14.741292925220415"><ele>733.0</ele><time>2026-04-18T14:15:36Z</time></trkpt><trkpt lat="37.038773264295536" lon="14.741356347346533"><ele>733.0</ele><time>2026-04-18T14:15:37Z</time></trkpt><trkpt lat="37.03882590362125" lon="14.741426472111854"><ele>733.0</ele><time>2026-04-18T14:15:38Z</time></trkpt><trkpt lat="37.03888653548041" lon="14.741459583888949"><ele>733.0</ele><time>2026-04-18T14:15:39Z</time></trkpt><trkpt lat="37.039000839409816" lon="14.741523333848178"><ele>733.0</ele><time>2026-04-18T14:15:41Z</time></trkpt><trkpt lat="37.0391053872909" lon="14.74158669132073"><ele>733.0</ele><time>2026-04-18T14:15:43Z</time></trkpt><trkpt lat="37.0392057867086" lon="14.741623166063231"><ele>733.0</ele><time>2026-04-18T14:15:45Z</time></trkpt><trkpt lat="37.039330318858475" lon="14.741663370257655"><ele>733.0</ele><time>2026-04-18T14:15:47Z</time></trkpt><trkpt lat="37.03939669951503" lon="14.741669650628996"><ele>733.0</ele><time>2026-04-18T14:15:48Z</time></trkpt><trkpt lat="37.03949221067908" lon="14.74169820007105"><ele>731.1666666666667</ele><time>2026-04-18T14:15:50Z</time></trkpt><trkpt lat="37.03957546151363" lon="14.741691118715613"><ele>729.3333333333334</ele><time>2026-04-18T14:15:52Z</time></trkpt><trkpt lat="37.03964088529612" lon="14.741688019346087"><ele>727.5</ele><time>2026-04-18T14:15:53Z</time></trkpt><trkpt lat="37.0397172072806" lon="14.741661689157956"><ele>725.6666666666666</ele><time>2026-04-18T14:15:54Z</time></trkpt><trkpt lat="37.03977904483297" lon="14.741634416195398"><ele>723.8333333333333</ele><time>2026-04-18T14:15:55Z</time></trkpt><trkpt lat="37.039844606717516" lon="14.741603370469129"><ele>722.0</ele><time>2026-04-18T14:15:56Z</time></trkpt><trkpt lat="37.039945463492344" lon="14.741508925092049"><ele>720.0</ele><time>2026-04-18T14:15:58Z</time></trkpt><trkpt lat="37.040004397485795" lon="14.74145356779605"><ele>718.0</ele><time>2026-04-18T14:15:59Z</time></trkpt><trkpt lat="37.04006027734035" lon="14.74138771579816"><ele>716.0</ele><time>2026-04-18T14:16:00Z</time></trkpt><trkpt lat="37.04011023228406" lon="14.741320076297646"><ele>714.0</ele><time>2026-04-18T14:16:01Z</time></trkpt><trkpt lat="37.040161772397475" lon="14.741244873864533"><ele>712.0</ele><time>2026-04-18T14:16:02Z</time></trkpt><trkpt lat="37.0402098680615" lon="14.741160801922485"><ele>710.0</ele><time>2026-04-18T14:16:03Z</time></trkpt><trkpt lat="37.04025408647699" lon="14.741080440708943"><ele>709.0</ele><time>2026-04-18T14:16:04Z</time></trkpt><trkpt lat="37.040314032307066" lon="14.740957518698433"><ele>708.0</ele><time>2026-04-18T14:16:06Z</time></trkpt><trkpt lat="37.040387596089666" lon="14.74083704668242"><ele>707.0</ele><time>2026-04-18T14:16:08Z</time></trkpt><trkpt lat="37.04042585621534" lon="14.74076729896799"><ele>706.0</ele><time>2026-04-18T14:16:09Z</time></trkpt><trkpt lat="37.040464433298084" lon="14.740697077414273"><ele>705.0</ele><time>2026-04-18T14:16:10Z</time></trkpt><trkpt lat="37.040510272130014" lon="14.740634054654361"><ele>704.0</ele><time>2026-04-18T14:16:11Z</time></trkpt><trkpt lat="37.040542989990726" lon="14.740563491736872"><ele>704.0</ele><time>2026-04-18T14:16:12Z</time></trkpt><trkpt lat="37.040623146832715" lon="14.740451414310058"><ele>704.0</ele><time>2026-04-18T14:16:14Z</time></trkpt><trkpt lat="37.040688794772606" lon="14.740311898429463"><ele>704.0</ele><time>2026-04-18T14:16:16Z</time></trkpt><trkpt lat="37.040733325415" lon="14.740244303342573"><ele>704.0</ele><time>2026-04-18T14:16:17Z</time></trkpt><trkpt lat="37.04078429905105" lon="14.740168020040702"><ele>704.0</ele><time>2026-04-18T14:16:18Z</time></trkpt><trkpt lat="37.040887214031954" lon="14.74018401037956"><ele>703.3333333333333</ele><time>2026-04-18T14:16:20Z</time></trkpt><trkpt lat="37.04095846984155" lon="14.740180716378784"><ele>702.6666666666666</ele><time>2026-04-18T14:16:21Z</time></trkpt><trkpt lat="37.04104336898105" lon="14.740182400147502"><ele>702.0</ele><time>2026-04-18T14:16:22Z</time></trkpt><trkpt lat="37.041123345602905" lon="14.740182597456759"><ele>701.3333333333334</ele><time>2026-04-18T14:16:23Z</time></trkpt><trkpt lat="37.041190976033775" lon="14.740182899538928"><ele>700.6666666666667</ele><time>2026-04-18T14:16:24Z</time></trkpt><trkpt lat="37.04125506811645" lon="14.740186709599984"><ele>700.0</ele><time>2026-04-18T14:16:25Z</time></trkpt><trkpt lat="37.041376637968234" lon="14.74021459702642"><ele>703.1666666666667</ele><time>2026-04-18T14:16:27Z</time></trkpt><trkpt lat="37.041443611358346" lon="14.740241753094296"><ele>706.3333333333334</ele><time>2026-04-18T14:16:28Z</time></trkpt><trkpt lat="37.041520187585526" lon="14.740270122898021"><ele>709.5</ele><time>2026-04-18T14:16:29Z</time></trkpt><trkpt lat="37.0416011568424" lon="14.740304135236727"><ele>712.6666666666666</ele><time>2026-04-18T14:16:30Z</time></trkpt><trkpt lat="37.041667398140795" lon="14.740345039933233"><ele>715.8333333333333</ele><time>2026-04-18T14:16:31Z</time></trkpt><trkpt lat="37.04173173739948" lon="14.74040836743928"><ele>719.0</ele><time>2026-04-18T14:16:32Z</time></trkpt><trkpt lat="37.041801224370886" lon="14.74046762851625"><ele>719.0</ele><time>2026-04-18T14:16:33Z</time></trkpt><trkpt lat="37.04185783749192" lon="14.740525582974286"><ele>719.0</ele><time>2026-04-18T14:16:34Z</time></trkpt><trkpt lat="37.04192660687775" lon="14.740600344054066"><ele>719.0</ele><time>2026-04-18T14:16:35Z</time></trkpt><trkpt lat="37.04199023911613" lon="14.740677107861526"><ele>719.0</ele><time>2026-04-18T14:16:36Z</time></trkpt><trkpt lat="37.0420631614411" lon="14.740742638972758"><ele>719.0</ele><time>2026-04-18T14:16:37Z</time></trkpt><trkpt lat="37.042139757709336" lon="14.74079350297289"><ele>719.0</ele><time>2026-04-18T14:16:38Z</time></trkpt><trkpt lat="37.04221798099316" lon="14.740842968199999"><ele>719.0</ele><time>2026-04-18T14:16:39Z</time></trkpt><trkpt lat="37.04229931413583" lon="14.740878679986931"><ele>719.0</ele><time>2026-04-18T14:16:40Z</time></trkpt><trkpt lat="37.04237418685434" lon="14.740908583064266"><ele>719.0</ele><time>2026-04-18T14:16:41Z</time></trkpt><trkpt lat="37.042444676149834" lon="14.740925185564148"><ele>719.0</ele><time>2026-04-18T14:16:42Z</time></trkpt><trkpt lat="37.04250781112983" lon="14.740948985875633"><ele>719.0</ele><time>2026-04-18T14:16:43.001Z</time></trkpt><trkpt lat="37.04256797070287" lon="14.740995966522902"><ele>719.0</ele><time>2026-04-18T14:16:44.001Z</time></trkpt><trkpt lat="37.042644076930436" lon="14.741048249645276"><ele>720.5</ele><time>2026-04-18T14:16:45.001Z</time></trkpt><trkpt lat="37.042709373888165" lon="14.74109615542877"><ele>722.0</ele><time>2026-04-18T14:16:46.001Z</time></trkpt><trkpt lat="37.04277318532389" lon="14.741139348735924"><ele>723.5</ele><time>2026-04-18T14:16:47.001Z</time></trkpt><trkpt lat="37.04283539922549" lon="14.741152497511194"><ele>725.0</ele><time>2026-04-18T14:16:48.001Z</time></trkpt><trkpt lat="37.042904975896946" lon="14.74117596659131"><ele>726.5</ele><time>2026-04-18T14:16:49.001Z</time></trkpt><trkpt lat="37.04298245579322" lon="14.741207589312767"><ele>728.0</ele><time>2026-04-18T14:16:50.001Z</time></trkpt><trkpt lat="37.04306786358231" lon="14.741227799590785"><ele>728.0</ele><time>2026-04-18T14:16:51.001Z</time></trkpt><trkpt lat="37.043156221072095" lon="14.741260385936027"><ele>728.0</ele><time>2026-04-18T14:16:52.001Z</time></trkpt><trkpt lat="37.04325356849189" lon="14.741299983401285"><ele>728.0</ele><time>2026-04-18T14:16:53.001Z</time></trkpt><trkpt lat="37.043352584401156" lon="14.741323087116346"><ele>728.0</ele><time>2026-04-18T14:16:54.001Z</time></trkpt><trkpt lat="37.04343863430124" lon="14.741339276079074"><ele>728.0</ele><time>2026-04-18T14:16:55.001Z</time></trkpt><trkpt lat="37.04350719157954" lon="14.74133329909986"><ele>725.6666666666666</ele><time>2026-04-18T14:16:56.001Z</time></trkpt><trkpt lat="37.04359644653153" lon="14.74132591520723"><ele>723.3333333333333</ele><time>2026-04-18T14:16:57.001Z</time></trkpt><trkpt lat="37.04367184221883" lon="14.741299059999614"><ele>721.0</ele><time>2026-04-18T14:16:58.001Z</time></trkpt><trkpt lat="37.04375760977194" lon="14.741283543454438"><ele>718.6666666666666</ele><time>2026-04-18T14:16:59.001Z</time></trkpt><trkpt lat="37.04384198750757" lon="14.741265661715405"><ele>716.3333333333334</ele><time>2026-04-18T14:17:00.001Z</time></trkpt><trkpt lat="37.043914452368846" lon="14.741233575541003"><ele>714.0</ele><time>2026-04-18T14:17:01.001Z</time></trkpt><trkpt lat="37.04400169841824" lon="14.741210724506184"><ele>714.0</ele><time>2026-04-18T14:17:02.001Z</time></trkpt><trkpt lat="37.0440973152215" lon="14.741180577665371"><ele>714.0</ele><time>2026-04-18T14:17:03.001Z</time></trkpt><trkpt lat="37.04418746298223" lon="14.741143637545283"><ele>714.0</ele><time>2026-04-18T14:17:04.001Z</time></trkpt><trkpt lat="37.04428748778057" lon="14.741121864580325"><ele>714.0</ele><time>2026-04-18T14:17:05.001Z</time></trkpt><trkpt lat="37.044372150714295" lon="14.741102233343101"><ele>714.0</ele><time>2026-04-18T14:17:06.001Z</time></trkpt><trkpt lat="37.044451186608086" lon="14.741085626666129"><ele>713.8333333333334</ele><time>2026-04-18T14:17:07.001Z</time></trkpt><trkpt lat="37.04453102161088" lon="14.741073881550438"><ele>713.6666666666666</ele><time>2026-04-18T14:17:08.001Z</time></trkpt><trkpt lat="37.04460410342266" lon="14.741085656592018"><ele>713.5</ele><time>2026-04-18T14:17:09.001Z</time></trkpt><trkpt lat="37.04467984249744" lon="14.741103908022112"><ele>713.3333333333333</ele><time>2026-04-18T14:17:10.001Z</time></trkpt><trkpt lat="37.04474769537627" lon="14.741119407014711"><ele>713.1666666666666</ele><time>2026-04-18T14:17:11.001Z</time></trkpt><trkpt lat="37.04481914209887" lon="14.741154902021908"><ele>713.0</ele><time>2026-04-18T14:17:12.001Z</time></trkpt><trkpt lat="37.044897056635996" lon="14.741188987780996"><ele>711.2</ele><time>2026-04-18T14:17:13.001Z</time></trkpt><trkpt lat="37.04497409014294" lon="14.741240341351066"><ele>709.4</ele><time>2026-04-18T14:17:14.001Z</time></trkpt><trkpt lat="37.045051141119366" lon="14.741301885612154"><ele>707.6</ele><time>2026-04-18T14:17:15.001Z</time></trkpt><trkpt lat="37.04514471684568" lon="14.741328761026384"><ele>705.8000000000001</ele><time>2026-04-18T14:17:16.001Z</time></trkpt><trkpt lat="37.04521282158295" lon="14.741412728314504"><ele>704.0</ele><time>2026-04-18T14:17:17Z</time></trkpt><trkpt lat="37.04525953215721" lon="14.741513710421875"><ele>704.0</ele><time>2026-04-18T14:17:18Z</time></trkpt><trkpt lat="37.04531686458766" lon="14.741589166773178"><ele>704.0</ele><time>2026-04-18T14:17:19Z</time></trkpt><trkpt lat="37.04535744242034" lon="14.741700117604818"><ele>704.0</ele><time>2026-04-18T14:17:20Z</time></trkpt><trkpt lat="37.045418769726915" lon="14.741768450277519"><ele>704.0</ele><time>2026-04-18T14:17:21Z</time></trkpt><trkpt lat="37.04548485666471" lon="14.741830772553623"><ele>704.0</ele><time>2026-04-18T14:17:22Z</time></trkpt><trkpt lat="37.04553200410365" lon="14.741893631700563"><ele>704.0</ele><time>2026-04-18T14:17:23Z</time></trkpt><trkpt lat="37.04558798812304" lon="14.74193966356537"><ele>704.1666666666666</ele><time>2026-04-18T14:17:24Z</time></trkpt><trkpt lat="37.04566083392841" lon="14.742005176227126"><ele>704.3333333333333</ele><time>2026-04-18T14:17:25Z</time></trkpt><trkpt lat="37.045732294094854" lon="14.742067410916063"><ele>704.5</ele><time>2026-04-18T14:17:26Z</time></trkpt><trkpt lat="37.045800370053335" lon="14.742133779241998"><ele>704.6666666666666</ele><time>2026-04-18T14:17:27Z</time></trkpt><trkpt lat="37.04587271041562" lon="14.742205854821174"><ele>704.8333333333334</ele><time>2026-04-18T14:17:28Z</time></trkpt><trkpt lat="37.04593495896857" lon="14.742264090401148"><ele>705.0</ele><time>2026-04-18T14:17:29Z</time></trkpt><trkpt lat="37.045987707486574" lon="14.742324134313554"><ele>704.9999999999999</ele><time>2026-04-18T14:17:30Z</time></trkpt><trkpt lat="37.046031963050645" lon="14.742387874464145"><ele>705.0</ele><time>2026-04-18T14:17:31Z</time></trkpt><trkpt lat="37.046079829496854" lon="14.742444462113898"><ele>705.0</ele><time>2026-04-18T14:17:32Z</time></trkpt><trkpt lat="37.046137105737216" lon="14.74248750714996"><ele>705.0</ele><time>2026-04-18T14:17:33Z</time></trkpt><trkpt lat="37.046178977379526" lon="14.742574100813503"><ele>705.0</ele><time>2026-04-18T14:17:34Z</time></trkpt><trkpt lat="37.04622376645373" lon="14.742666367922144"><ele>704.9999999999999</ele><time>2026-04-18T14:17:35Z</time></trkpt><trkpt lat="37.04625725876328" lon="14.74275818080414"><ele>705.0</ele><time>2026-04-18T14:17:36Z</time></trkpt><trkpt lat="37.046292739456376" lon="14.74283350391022"><ele>709.0</ele><time>2026-04-18T14:17:37Z</time></trkpt><trkpt lat="37.046334857516264" lon="14.742914675241577"><ele>713.0</ele><time>2026-04-18T14:17:38Z</time></trkpt><trkpt lat="37.046396960738846" lon="14.742993050906216"><ele>717.0</ele><time>2026-04-18T14:17:39Z</time></trkpt><trkpt lat="37.046439942254075" lon="14.743069452558728"><ele>721.0</ele><time>2026-04-18T14:17:40Z</time></trkpt><trkpt lat="37.046480367518065" lon="14.743145097248082"><ele>725.0</ele><time>2026-04-18T14:17:41.058Z</time></trkpt><trkpt lat="37.04657782659323" lon="14.743288004132385"><ele>719.6666666666666</ele><time>2026-04-18T14:17:42Z</time></trkpt><trkpt lat="37.04666833392834" lon="14.74338604116333"><ele>714.3333333333333</ele><time>2026-04-18T14:17:43Z</time></trkpt><trkpt lat="37.04673782199402" lon="14.74343564011355"><ele>709.0</ele><time>2026-04-18T14:17:44Z</time></trkpt><trkpt lat="37.04682325922193" lon="14.743452646845352"><ele>703.6666666666666</ele><time>2026-04-18T14:17:45Z</time></trkpt><trkpt lat="37.04688967012403" lon="14.743456603053167"><ele>698.3333333333334</ele><time>2026-04-18T14:17:46Z</time></trkpt><trkpt lat="37.04696075605676" lon="14.74348318293167"><ele>693.0</ele><time>2026-04-18T14:17:47Z</time></trkpt><trkpt lat="37.047033893187354" lon="14.74349149226098"><ele>693.0</ele><time>2026-04-18T14:17:48Z</time></trkpt><trkpt lat="37.047114046233354" lon="14.743512540723168"><ele>693.0</ele><time>2026-04-18T14:17:49Z</time></trkpt><trkpt lat="37.04720624838373" lon="14.743502621578617"><ele>693.0</ele><time>2026-04-18T14:17:50Z</time></trkpt><trkpt lat="37.047292783838024" lon="14.7434673486674"><ele>693.0</ele><time>2026-04-18T14:17:51Z</time></trkpt><trkpt lat="37.047367013692565" lon="14.743444015553845"><ele>693.0</ele><time>2026-04-18T14:17:52Z</time></trkpt><trkpt lat="37.047434525110546" lon="14.743411941615332"><ele>693.0</ele><time>2026-04-18T14:17:53Z</time></trkpt><trkpt lat="37.04751052131622" lon="14.74336381576837"><ele>692.4</ele><time>2026-04-18T14:17:54Z</time></trkpt><trkpt lat="37.04758262708987" lon="14.743310368389809"><ele>691.8</ele><time>2026-04-18T14:17:55Z</time></trkpt><trkpt lat="37.04766864351848" lon="14.743232251673591"><ele>691.2</ele><time>2026-04-18T14:17:56Z</time></trkpt><trkpt lat="37.04776085887455" lon="14.743163226892998"><ele>690.6</ele><time>2026-04-18T14:17:57Z</time></trkpt><trkpt lat="37.04783788921337" lon="14.743086362227814"><ele>690.0</ele><time>2026-04-18T14:17:58Z</time></trkpt><trkpt lat="37.04791918982837" lon="14.7430141961883"><ele>690.0</ele><time>2026-04-18T14:17:59Z</time></trkpt><trkpt lat="37.048001920255544" lon="14.742940084627683"><ele>690.0</ele><time>2026-04-18T14:18:00Z</time></trkpt><trkpt lat="37.04809085451663" lon="14.742865347776284"><ele>690.0</ele><time>2026-04-18T14:18:01Z</time></trkpt><trkpt lat="37.048187055035314" lon="14.742823915101427"><ele>690.0</ele><time>2026-04-18T14:18:02Z</time></trkpt><trkpt lat="37.048275775813266" lon="14.742807090691363"><ele>690.0</ele><time>2026-04-18T14:18:03.044Z</time></trkpt><trkpt lat="37.048365825460245" lon="14.742791359137765"><ele>694.0</ele><time>2026-04-18T14:18:04.04Z</time></trkpt><trkpt lat="37.04845509649589" lon="14.742781005315527"><ele>698.0</ele><time>2026-04-18T14:18:05Z</time></trkpt><trkpt lat="37.04854047672312" lon="14.742781194355775"><ele>702.0</ele><time>2026-04-18T14:18:07Z</time></trkpt><trkpt lat="37.048616653577156" lon="14.74278891024984"><ele>706.0</ele><time>2026-04-18T14:18:08Z</time></trkpt><trkpt lat="37.04872158863252" lon="14.742794594361307"><ele>710.0</ele><time>2026-04-18T14:18:09Z</time></trkpt><trkpt lat="37.04882251416091" lon="14.742792900507437"><ele>710.0</ele><time>2026-04-18T14:18:10Z</time></trkpt><trkpt lat="37.04893477945853" lon="14.742787320104714"><ele>710.0</ele><time>2026-04-18T14:18:11Z</time></trkpt><trkpt lat="37.04903034310036" lon="14.74276120826258"><ele>710.0</ele><time>2026-04-18T14:18:12Z</time></trkpt><trkpt lat="37.0491225397491" lon="14.742766523074451"><ele>710.0</ele><time>2026-04-18T14:18:13Z</time></trkpt><trkpt lat="37.04920635781718" lon="14.74276274482902"><ele>710.0</ele><time>2026-04-18T14:18:14Z</time></trkpt><trkpt lat="37.04929237320409" lon="14.7427499751239"><ele>710.0</ele><time>2026-04-18T14:18:15Z</time></trkpt><trkpt lat="37.04937952004331" lon="14.74273132377781"><ele>710.0</ele><time>2026-04-18T14:18:16Z</time></trkpt><trkpt lat="37.049464773495124" lon="14.742711696246998"><ele>710.0</ele><time>2026-04-18T14:18:17Z</time></trkpt><trkpt lat="37.04955878943176" lon="14.742708029493048"><ele>710.0</ele><time>2026-04-18T14:18:18Z</time></trkpt><trkpt lat="37.049646896796084" lon="14.742694103254822"><ele>710.0</ele><time>2026-04-18T14:18:19Z</time></trkpt><trkpt lat="37.0497379165375" lon="14.742683646174568"><ele>710.0</ele><time>2026-04-18T14:18:20Z</time></trkpt><trkpt lat="37.049825897229134" lon="14.742691983770591"><ele>703.4</ele><time>2026-04-18T14:18:21Z</time></trkpt><trkpt lat="37.049912737749686" lon="14.742669931226361"><ele>696.8</ele><time>2026-04-18T14:18:22Z</time></trkpt><trkpt lat="37.049991790765056" lon="14.742637097190809"><ele>690.2</ele><time>2026-04-18T14:18:23Z</time></trkpt><trkpt lat="37.05009463147898" lon="14.742591315096794"><ele>683.6</ele><time>2026-04-18T14:18:24Z</time></trkpt><trkpt lat="37.050184466913585" lon="14.742553049651908"><ele>677.0</ele><time>2026-04-18T14:18:25Z</time></trkpt><trkpt lat="37.05027338219291" lon="14.74254602894493"><ele>677.0</ele><time>2026-04-18T14:18:26Z</time></trkpt><trkpt lat="37.05035402380785" lon="14.742526146619413"><ele>677.0</ele><time>2026-04-18T14:18:27Z</time></trkpt><trkpt lat="37.050433403699216" lon="14.742513420354227"><ele>677.0</ele><time>2026-04-18T14:18:28Z</time></trkpt><trkpt lat="37.05050958435441" lon="14.7425099379724"><ele>677.0</ele><time>2026-04-18T14:18:29Z</time></trkpt><trkpt lat="37.050593556900346" lon="14.74252623773841"><ele>677.0</ele><time>2026-04-18T14:18:30Z</time></trkpt><trkpt lat="37.050672094527684" lon="14.742545321783286"><ele>677.0</ele><time>2026-04-18T14:18:31Z</time></trkpt><trkpt lat="37.05074959470608" lon="14.742570294794689"><ele>677.2</ele><time>2026-04-18T14:18:32Z</time></trkpt><trkpt lat="37.050811361305406" lon="14.742595168355324"><ele>677.4000000000001</ele><time>2026-04-18T14:18:33Z</time></trkpt><trkpt lat="37.05090150009138" lon="14.74264120505797"><ele>677.5999999999999</ele><time>2026-04-18T14:18:35Z</time></trkpt><trkpt lat="37.051016189242496" lon="14.742716685097276"><ele>677.8</ele><time>2026-04-18T14:18:37Z</time></trkpt><trkpt lat="37.05109219656603" lon="14.742776582789034"><ele>678.0</ele><time>2026-04-18T14:18:38.001Z</time></trkpt><trkpt lat="37.051191461061535" lon="14.742851697863506"><ele>679.0</ele><time>2026-04-18T14:18:39.001Z</time></trkpt><trkpt lat="37.051303455440745" lon="14.742934080134455"><ele>680.0</ele><time>2026-04-18T14:18:40.001Z</time></trkpt><trkpt lat="37.05143150308705" lon="14.743021030454772"><ele>681.0</ele><time>2026-04-18T14:18:41.001Z</time></trkpt><trkpt lat="37.0515535333388" lon="14.743096528873588"><ele>682.0</ele><time>2026-04-18T14:18:42.001Z</time></trkpt><trkpt lat="37.051647242530905" lon="14.743156017736128"><ele>682.0</ele><time>2026-04-18T14:18:43.001Z</time></trkpt><trkpt lat="37.05173890119447" lon="14.743218523617667"><ele>682.0</ele><time>2026-04-18T14:18:44.001Z</time></trkpt><trkpt lat="37.05182760462029" lon="14.74326248773572"><ele>682.0</ele><time>2026-04-18T14:18:45.001Z</time></trkpt><trkpt lat="37.051895202909044" lon="14.743316513694221"><ele>682.0</ele><time>2026-04-18T14:18:46.001Z</time></trkpt><trkpt lat="37.05195758538866" lon="14.743352693862583"><ele>682.0</ele><time>2026-04-18T14:18:47.001Z</time></trkpt><trkpt lat="37.05203787609761" lon="14.743412632699679"><ele>682.0</ele><time>2026-04-18T14:18:48.001Z</time></trkpt><trkpt lat="37.0521031034622" lon="14.743503172939839"><ele>682.4000000000001</ele><time>2026-04-18T14:18:49.001Z</time></trkpt><trkpt lat="37.05217437543656" lon="14.743590985127524"><ele>682.8000000000001</ele><time>2026-04-18T14:18:50.001Z</time></trkpt><trkpt lat="37.05225486193487" lon="14.74366167251067"><ele>683.2</ele><time>2026-04-18T14:18:51.001Z</time></trkpt><trkpt lat="37.05232061819719" lon="14.743762814907907"><ele>683.6</ele><time>2026-04-18T14:18:52.001Z</time></trkpt><trkpt lat="37.05238901380356" lon="14.743862587173773"><ele>684.0</ele><time>2026-04-18T14:18:53.001Z</time></trkpt><trkpt lat="37.052457946839674" lon="14.743966428591039"><ele>684.0</ele><time>2026-04-18T14:18:54.001Z</time></trkpt><trkpt lat="37.052520349571175" lon="14.744055212148112"><ele>684.0</ele><time>2026-04-18T14:18:55.001Z</time></trkpt><trkpt lat="37.05259387928103" lon="14.744147370633963"><ele>684.0</ele><time>2026-04-18T14:18:56.001Z</time></trkpt><trkpt lat="37.05266074907327" lon="14.744243302161067"><ele>684.0</ele><time>2026-04-18T14:18:57.001Z</time></trkpt><trkpt lat="37.05272439533819" lon="14.744338034887914"><ele>684.0</ele><time>2026-04-18T14:18:58.001Z</time></trkpt><trkpt lat="37.05278493206598" lon="14.74443002216296"><ele>687.0</ele><time>2026-04-18T14:18:59.001Z</time></trkpt><trkpt lat="37.05284938225742" lon="14.744520790045097"><ele>690.0</ele><time>2026-04-18T14:19:00.001Z</time></trkpt><trkpt lat="37.052896653428256" lon="14.744621067207344"><ele>693.0</ele><time>2026-04-18T14:19:01.001Z</time></trkpt><trkpt lat="37.052949509531885" lon="14.744700983978205"><ele>696.0</ele><time>2026-04-18T14:19:02.001Z</time></trkpt><trkpt lat="37.05299044223535" lon="14.744773881260652"><ele>699.0</ele><time>2026-04-18T14:19:03.001Z</time></trkpt><trkpt lat="37.05304800324478" lon="14.744904384673589"><ele>699.0</ele><time>2026-04-18T14:19:05.001Z</time></trkpt><trkpt lat="37.05307325194806" lon="14.744982214776188"><ele>699.0</ele><time>2026-04-18T14:19:06.001Z</time></trkpt><trkpt lat="37.05309831620835" lon="14.745078388104512"><ele>699.0</ele><time>2026-04-18T14:19:07.001Z</time></trkpt><trkpt lat="37.05311791795362" lon="14.745181641040448"><ele>699.0</ele><time>2026-04-18T14:19:08.001Z</time></trkpt><trkpt lat="37.05313250197692" lon="14.74528735724659"><ele>699.0</ele><time>2026-04-18T14:19:09.001Z</time></trkpt><trkpt lat="37.0531377277427" lon="14.745391732105569"><ele>699.0</ele><time>2026-04-18T14:19:10.001Z</time></trkpt><trkpt lat="37.053137331878574" lon="14.74547402125878"><ele>698.0</ele><time>2026-04-18T14:19:11.001Z</time></trkpt><trkpt lat="37.05312246931961" lon="14.74555320727904"><ele>697.0</ele><time>2026-04-18T14:19:12.001Z</time></trkpt><trkpt lat="37.053101165112444" lon="14.74564959796323"><ele>696.0</ele><time>2026-04-18T14:19:13.001Z</time></trkpt><trkpt lat="37.053076838294984" lon="14.745751751794021"><ele>695.0</ele><time>2026-04-18T14:19:14.001Z</time></trkpt><trkpt lat="37.053044215537106" lon="14.74585306383591"><ele>694.0</ele><time>2026-04-18T14:19:15.001Z</time></trkpt><trkpt lat="37.05300708636352" lon="14.745939475803151"><ele>693.0</ele><time>2026-04-18T14:19:16.001Z</time></trkpt><trkpt lat="37.052963344666225" lon="14.746029826536342"><ele>691.5999999999999</ele><time>2026-04-18T14:19:17.001Z</time></trkpt><trkpt lat="37.05291194505548" lon="14.74611553925277"><ele>690.1999999999999</ele><time>2026-04-18T14:19:18.001Z</time></trkpt><trkpt lat="37.05284894919448" lon="14.746210617660871"><ele>688.8</ele><time>2026-04-18T14:19:19.001Z</time></trkpt><trkpt lat="37.052786393650216" lon="14.746291219493079"><ele>687.4</ele><time>2026-04-18T14:19:20.001Z</time></trkpt><trkpt lat="37.05274155410343" lon="14.746365119385139"><ele>686.0</ele><time>2026-04-18T14:19:21.001Z</time></trkpt><trkpt lat="37.05270038347393" lon="14.746481485339846"><ele>686.0</ele><time>2026-04-18T14:19:23Z</time></trkpt><trkpt lat="37.052729780375245" lon="14.746601002824208"><ele>686.0</ele><time>2026-04-18T14:19:25Z</time></trkpt><trkpt lat="37.05274518350603" lon="14.746683747700008"><ele>686.0</ele><time>2026-04-18T14:19:27Z</time></trkpt><trkpt lat="37.0527458765804" lon="14.74676861435633"><ele>686.0</ele><time>2026-04-18T14:19:40Z</time></trkpt><trkpt lat="37.05272099400582" lon="14.746863377677508"><ele>686.0</ele><time>2026-04-18T14:19:43Z</time></trkpt><trkpt lat="37.05268473064139" lon="14.747002961962538"><ele>686.0</ele><time>2026-04-18T14:19:45Z</time></trkpt><trkpt lat="37.05266436330298" lon="14.74708135985633"><ele>686.6666666666666</ele><time>2026-04-18T14:19:46Z</time></trkpt><trkpt lat="37.05262236386392" lon="14.747185035543401"><ele>687.3333333333333</ele><time>2026-04-18T14:19:48Z</time></trkpt><trkpt lat="37.05255448127317" lon="14.747254949869982"><ele>688.0</ele><time>2026-04-18T14:19:50Z</time></trkpt><trkpt lat="37.052438086217705" lon="14.747292893438438"><ele>688.6666666666666</ele><time>2026-04-18T14:19:52Z</time></trkpt><trkpt lat="37.05237096690522" lon="14.747287898056806"><ele>689.3333333333334</ele><time>2026-04-18T14:19:53Z</time></trkpt><trkpt lat="37.05229622215321" lon="14.747298547623789"><ele>690.0</ele><time>2026-04-18T14:19:54Z</time></trkpt><trkpt lat="37.052218520219895" lon="14.747321734096802"><ele>690.0</ele><time>2026-04-18T14:19:55Z</time></trkpt><trkpt lat="37.05215044926108" lon="14.747351326173742"><ele>690.0</ele><time>2026-04-18T14:19:56Z</time></trkpt><trkpt lat="37.05208165330604" lon="14.747395653059844"><ele>690.0</ele><time>2026-04-18T14:19:57Z</time></trkpt><trkpt lat="37.052028578466626" lon="14.747461672303002"><ele>690.0</ele><time>2026-04-18T14:19:58Z</time></trkpt><trkpt lat="37.05197445373432" lon="14.747534955048852"><ele>690.0</ele><time>2026-04-18T14:19:59Z</time></trkpt><trkpt lat="37.05192643119383" lon="14.747600980370896"><ele>690.0</ele><time>2026-04-18T14:20:00Z</time></trkpt><trkpt lat="37.0518718939506" lon="14.747683879790886"><ele>690.25</ele><time>2026-04-18T14:20:02Z</time></trkpt><trkpt lat="37.051835229006436" lon="14.747780895503237"><ele>690.5</ele><time>2026-04-18T14:20:04Z</time></trkpt><trkpt lat="37.05182803128283" lon="14.74788619652215"><ele>690.75</ele><time>2026-04-18T14:20:06Z</time></trkpt><trkpt lat="37.05182646197003" lon="14.747999506386211"><ele>691.0</ele><time>2026-04-18T14:20:09Z</time></trkpt><trkpt lat="37.05212072681574" lon="14.748091967783724"><ele>691.0</ele><time>2026-04-18T14:20:10Z</time></trkpt><trkpt lat="37.05218229224254" lon="14.748140677932028"><ele>691.0</ele><time>2026-04-18T14:20:11Z</time></trkpt><trkpt lat="37.052230524681086" lon="14.748204045200916"><ele>691.0</ele><time>2026-04-18T14:20:12Z</time></trkpt><trkpt lat="37.052275858337815" lon="14.748287351073843"><ele>691.0</ele><time>2026-04-18T14:20:13Z</time></trkpt><trkpt lat="37.05231973590996" lon="14.748419191674703"><ele>691.0</ele><time>2026-04-18T14:20:15Z</time></trkpt><trkpt lat="37.052307604836585" lon="14.74858664151549"><ele>688.5999999999999</ele><time>2026-04-18T14:20:17Z</time></trkpt><trkpt lat="37.05227529453529" lon="14.748676747114551"><ele>686.2</ele><time>2026-04-18T14:20:18Z</time></trkpt><trkpt lat="37.05223566163406" lon="14.748754978709831"><ele>683.8</ele><time>2026-04-18T14:20:19Z</time></trkpt><trkpt lat="37.05218940559952" lon="14.748853740222595"><ele>681.4000000000001</ele><time>2026-04-18T14:20:20Z</time></trkpt><trkpt lat="37.052142479605166" lon="14.748936806364902"><ele>679.0</ele><time>2026-04-18T14:20:21Z</time></trkpt><trkpt lat="37.05206920855561" lon="14.749081730580004"><ele>679.0</ele><time>2026-04-18T14:20:23Z</time></trkpt><trkpt lat="37.05203854319045" lon="14.749164081810349"><ele>679.0</ele><time>2026-04-18T14:20:24Z</time></trkpt><trkpt lat="37.052008001344205" lon="14.74924382949001"><ele>679.0</ele><time>2026-04-18T14:20:25Z</time></trkpt><trkpt lat="37.0519877530782" lon="14.749330223520507"><ele>679.0</ele><time>2026-04-18T14:20:26Z</time></trkpt><trkpt lat="37.05200385727602" lon="14.74944372268059"><ele>679.0</ele><time>2026-04-18T14:20:28Z</time></trkpt><trkpt lat="37.05206048641021" lon="14.749509841913572"><ele>679.0</ele><time>2026-04-18T14:20:30Z</time></trkpt><trkpt lat="37.05214627830387" lon="14.74953760450259"><ele>679.0</ele><time>2026-04-18T14:20:32Z</time></trkpt><trkpt lat="37.05223736307502" lon="14.74953814310207"><ele>679.0</ele><time>2026-04-18T14:20:34Z</time></trkpt><trkpt lat="37.05234764821269" lon="14.74948189589884"><ele>679.0</ele><time>2026-04-18T14:20:36Z</time></trkpt><trkpt lat="37.05245345073062" lon="14.749429140406631"><ele>679.0</ele><time>2026-04-18T14:20:37Z</time></trkpt><trkpt lat="37.05257346192655" lon="14.749354604928348"><ele>678.2</ele><time>2026-04-18T14:20:38Z</time></trkpt><trkpt lat="37.05267019003365" lon="14.74928888499382"><ele>677.4000000000001</ele><time>2026-04-18T14:20:39Z</time></trkpt><trkpt lat="37.0527468296007" lon="14.749251855391837"><ele>676.6</ele><time>2026-04-18T14:20:40Z</time></trkpt><trkpt lat="37.052813562436505" lon="14.749231157890668"><ele>675.8</ele><time>2026-04-18T14:20:41Z</time></trkpt><trkpt lat="37.05288773117272" lon="14.749255204973164"><ele>675.0</ele><time>2026-04-18T14:20:43Z</time></trkpt><trkpt lat="37.052983029120476" lon="14.749380717887576"><ele>675.0</ele><time>2026-04-18T14:20:45Z</time></trkpt><trkpt lat="37.05302275470549" lon="14.74947541926993"><ele>675.0</ele><time>2026-04-18T14:20:46Z</time></trkpt><trkpt lat="37.05306101561447" lon="14.749580812417744"><ele>675.0</ele><time>2026-04-18T14:20:47Z</time></trkpt><trkpt lat="37.0531192650332" lon="14.749699748680186"><ele>675.0</ele><time>2026-04-18T14:20:48Z</time></trkpt><trkpt lat="37.053188827904215" lon="14.749818752462412"><ele>675.0</ele><time>2026-04-18T14:20:49Z</time></trkpt><trkpt lat="37.053259541479214" lon="14.749943932762044"><ele>673.8</ele><time>2026-04-18T14:20:50Z</time></trkpt><trkpt lat="37.05332669419104" lon="14.75006400518257"><ele>672.6</ele><time>2026-04-18T14:20:51Z</time></trkpt><trkpt lat="37.05338558101789" lon="14.750189195309844"><ele>671.4000000000001</ele><time>2026-04-18T14:20:52Z</time></trkpt><trkpt lat="37.05343816935724" lon="14.750310122397126"><ele>670.2</ele><time>2026-04-18T14:20:53Z</time></trkpt><trkpt lat="37.05348819575672" lon="14.750418523378011"><ele>669.0</ele><time>2026-04-18T14:20:54Z</time></trkpt><trkpt lat="37.05352629655964" lon="14.750514883333274"><ele>669.0</ele><time>2026-04-18T14:20:55Z</time></trkpt><trkpt lat="37.05355527537696" lon="14.750607954530794"><ele>669.0</ele><time>2026-04-18T14:20:56.001Z</time></trkpt><trkpt lat="37.053594754297784" lon="14.750686497861226"><ele>669.0</ele><time>2026-04-18T14:20:57.001Z</time></trkpt><trkpt lat="37.05364373511738" lon="14.750767244750644"><ele>669.0</ele><time>2026-04-18T14:20:59.001Z</time></trkpt><trkpt lat="37.05371009206402" lon="14.750836612132957"><ele>669.0</ele><time>2026-04-18T14:21:02.001Z</time></trkpt><trkpt lat="37.05378805491702" lon="14.750843302938936"><ele>669.0</ele><time>2026-04-18T14:21:05.001Z</time></trkpt><trkpt lat="37.05384429040782" lon="14.750790709481414"><ele>669.0</ele><time>2026-04-18T14:21:07.001Z</time></trkpt><trkpt lat="37.05383961256646" lon="14.750671045020738"><ele>669.0</ele><time>2026-04-18T14:21:09.001Z</time></trkpt><trkpt lat="37.05381699434502" lon="14.750571877278205"><ele>669.0</ele><time>2026-04-18T14:21:10.001Z</time></trkpt><trkpt lat="37.053806971330076" lon="14.750474876474431"><ele>669.0</ele><time>2026-04-18T14:21:11.001Z</time></trkpt><trkpt lat="37.05381052444946" lon="14.750338729860498"><ele>669.0</ele><time>2026-04-18T14:21:12.001Z</time></trkpt><trkpt lat="37.05381193959954" lon="14.750215226962206"><ele>667.6</ele><time>2026-04-18T14:21:13.001Z</time></trkpt><trkpt lat="37.05379402588047" lon="14.750123944842722"><ele>666.2</ele><time>2026-04-18T14:21:14.001Z</time></trkpt><trkpt lat="37.05377547240049" lon="14.749970025505622"><ele>664.8000000000001</ele><time>2026-04-18T14:21:15.001Z</time></trkpt><trkpt lat="37.05377010890563" lon="14.749803574426847"><ele>663.4000000000001</ele><time>2026-04-18T14:21:16.001Z</time></trkpt><trkpt lat="37.053762512431184" lon="14.749693471133353"><ele>662.0</ele><time>2026-04-18T14:21:17.001Z</time></trkpt><trkpt lat="37.053754136166816" lon="14.749604242115765"><ele>662.0</ele><time>2026-04-18T14:21:18.001Z</time></trkpt><trkpt lat="37.053741560441395" lon="14.749498552790609"><ele>662.0</ele><time>2026-04-18T14:21:19.001Z</time></trkpt><trkpt lat="37.053721130417664" lon="14.749385150007761"><ele>662.0</ele><time>2026-04-18T14:21:20.001Z</time></trkpt><trkpt lat="37.05370424478468" lon="14.749254506576197"><ele>662.0</ele><time>2026-04-18T14:21:22.001Z</time></trkpt><trkpt lat="37.05373871418376" lon="14.749143523818944"><ele>662.0</ele><time>2026-04-18T14:21:24.001Z</time></trkpt><trkpt lat="37.05374515414459" lon="14.749062841642449"><ele>662.0</ele><time>2026-04-18T14:21:25.001Z</time></trkpt><trkpt lat="37.05373861290018" lon="14.748979368904209"><ele>661.1428571428571</ele><time>2026-04-18T14:21:26.001Z</time></trkpt><trkpt lat="37.05369552984699" lon="14.748902417293662"><ele>660.2857142857142</ele><time>2026-04-18T14:21:27.001Z</time></trkpt><trkpt lat="37.05365730774445" lon="14.748828099249494"><ele>659.4285714285713</ele><time>2026-04-18T14:21:28Z</time></trkpt><trkpt lat="37.05363809158666" lon="14.748741199301156"><ele>658.5714285714286</ele><time>2026-04-18T14:21:29Z</time></trkpt><trkpt lat="37.05361003852509" lon="14.748650762765443"><ele>657.7142857142857</ele><time>2026-04-18T14:21:30Z</time></trkpt><trkpt lat="37.05359839474563" lon="14.748554989720944"><ele>656.8571428571428</ele><time>2026-04-18T14:21:31Z</time></trkpt><trkpt lat="37.05358224801523" lon="14.748472887020258"><ele>656.0</ele><time>2026-04-18T14:21:32Z</time></trkpt><trkpt lat="37.053627312949374" lon="14.748317964818982"><ele>655.5999999999999</ele><time>2026-04-18T14:21:34Z</time></trkpt><trkpt lat="37.05368867047169" lon="14.748222418199358"><ele>655.2</ele><time>2026-04-18T14:21:35Z</time></trkpt><trkpt lat="37.05374239742948" lon="14.748114675103729"><ele>654.8</ele><time>2026-04-18T14:21:36Z</time></trkpt><trkpt lat="37.053800891989276" lon="14.748004192330349"><ele>654.4000000000001</ele><time>2026-04-18T14:21:37Z</time></trkpt><trkpt lat="37.053860507270805" lon="14.747911361023244"><ele>654.0</ele><time>2026-04-18T14:21:38Z</time></trkpt><trkpt lat="37.05389966837217" lon="14.74783430953073"><ele>654.0</ele><time>2026-04-18T14:21:39Z</time></trkpt><trkpt lat="37.05394556207549" lon="14.74773789420593"><ele>654.0</ele><time>2026-04-18T14:21:40Z</time></trkpt><trkpt lat="37.05398478600709" lon="14.747664573968093"><ele>654.0</ele><time>2026-04-18T14:21:41Z</time></trkpt><trkpt lat="37.054036826907875" lon="14.74760990213017"><ele>654.0</ele><time>2026-04-18T14:21:42Z</time></trkpt><trkpt lat="37.054125999188756" lon="14.747597089093055"><ele>654.0</ele><time>2026-04-18T14:21:44Z</time></trkpt><trkpt lat="37.054226962926435" lon="14.74766249545698"><ele>654.0</ele><time>2026-04-18T14:21:46Z</time></trkpt><trkpt lat="37.05428136932686" lon="14.747717624333983"><ele>658.6</ele><time>2026-04-18T14:21:47Z</time></trkpt><trkpt lat="37.05434705979377" lon="14.747812855266021"><ele>663.2</ele><time>2026-04-18T14:21:49Z</time></trkpt><trkpt lat="37.05438789210138" lon="14.747882260519258"><ele>667.8000000000001</ele><time>2026-04-18T14:21:50Z</time></trkpt><trkpt lat="37.05444400518258" lon="14.747965380992332"><ele>672.4000000000001</ele><time>2026-04-18T14:21:51Z</time></trkpt><trkpt lat="37.054519965435404" lon="14.748068899210487"><ele>677.0</ele><time>2026-04-18T14:21:52Z</time></trkpt><trkpt lat="37.0546000343218" lon="14.74818169097256"><ele>677.0</ele><time>2026-04-18T14:21:53Z</time></trkpt><trkpt lat="37.05468409149955" lon="14.748279433681839"><ele>677.0</ele><time>2026-04-18T14:21:54Z</time></trkpt><trkpt lat="37.0547705195821" lon="14.748372757186676"><ele>677.0</ele><time>2026-04-18T14:21:55Z</time></trkpt><trkpt lat="37.05484671771317" lon="14.748450187041733"><ele>677.0</ele><time>2026-04-18T14:21:56Z</time></trkpt><trkpt lat="37.054926499993535" lon="14.748531730699527"><ele>677.0</ele><time>2026-04-18T14:21:57Z</time></trkpt><trkpt lat="37.05500666246246" lon="14.748606697893559"><ele>678.5</ele><time>2026-04-18T14:21:58Z</time></trkpt><trkpt lat="37.05507355898774" lon="14.748691652863558"><ele>680.0</ele><time>2026-04-18T14:21:59Z</time></trkpt><trkpt lat="37.05513515962032" lon="14.748763455273025"><ele>681.5</ele><time>2026-04-18T14:22:00Z</time></trkpt><trkpt lat="37.05520204158089" lon="14.748831269523945"><ele>683.0</ele><time>2026-04-18T14:22:01Z</time></trkpt><trkpt lat="37.05526083696099" lon="14.74887037549824"><ele>684.5</ele><time>2026-04-18T14:22:02Z</time></trkpt><trkpt lat="37.05535184891868" lon="14.748892670627637"><ele>686.0</ele><time>2026-04-18T14:22:04Z</time></trkpt><trkpt lat="37.055439431781956" lon="14.748892713102176"><ele>686.0</ele><time>2026-04-18T14:22:06Z</time></trkpt><trkpt lat="37.05546925712199" lon="14.748798683887168"><ele>686.0</ele><time>2026-04-18T14:22:09Z</time></trkpt><trkpt lat="37.05544174940919" lon="14.748678136963326"><ele>686.0</ele><time>2026-04-18T14:22:11Z</time></trkpt><trkpt lat="37.05539043215652" lon="14.748598441396792"><ele>686.0</ele><time>2026-04-18T14:22:15Z</time></trkpt><trkpt lat="37.05534657726006" lon="14.748479084289821"><ele>686.0</ele><time>2026-04-18T14:22:18Z</time></trkpt><trkpt lat="37.05530963054617" lon="14.748368859258337"><ele>683.6666666666666</ele><time>2026-04-18T14:22:20Z</time></trkpt><trkpt lat="37.05530442797021" lon="14.748275398134735"><ele>681.3333333333333</ele><time>2026-04-18T14:22:22Z</time></trkpt><trkpt lat="37.05527695887005" lon="14.748141072608346"><ele>679.0</ele><time>2026-04-18T14:22:24Z</time></trkpt><trkpt lat="37.05524834513272" lon="14.74804550187757"><ele>676.6666666666666</ele><time>2026-04-18T14:22:27Z</time></trkpt><trkpt lat="37.0552073305982" lon="14.747963278169856"><ele>674.3333333333334</ele><time>2026-04-18T14:22:39Z</time></trkpt><trkpt lat="37.0551670782577" lon="14.747877635947594"><ele>672.0</ele><time>2026-04-18T14:22:41Z</time></trkpt><trkpt lat="37.05514610154082" lon="14.74778591612781"><ele>671.3333333333334</ele><time>2026-04-18T14:22:43Z</time></trkpt><trkpt lat="37.055130402409915" lon="14.74769889951361"><ele>670.6666666666666</ele><time>2026-04-18T14:22:44Z</time></trkpt><trkpt lat="37.05510901319951" lon="14.747609437746252"><ele>670.0</ele><time>2026-04-18T14:22:45Z</time></trkpt><trkpt lat="37.055095458431985" lon="14.74750860346806"><ele>669.3333333333333</ele><time>2026-04-18T14:22:46Z</time></trkpt><trkpt lat="37.05508361707476" lon="14.74741594478821"><ele>668.6666666666666</ele><time>2026-04-18T14:22:47Z</time></trkpt><trkpt lat="37.055071277034884" lon="14.74731976228476"><ele>668.0</ele><time>2026-04-18T14:22:48Z</time></trkpt><trkpt lat="37.05505578827879" lon="14.747202968737938"><ele>668.0</ele><time>2026-04-18T14:22:49Z</time></trkpt><trkpt lat="37.05503300376755" lon="14.747090864640144"><ele>668.0</ele><time>2026-04-18T14:22:50Z</time></trkpt><trkpt lat="37.055015899633865" lon="14.74699244419043"><ele>668.0</ele><time>2026-04-18T14:22:51Z</time></trkpt><trkpt lat="37.05499551628588" lon="14.746882741807502"><ele>668.0</ele><time>2026-04-18T14:22:52Z</time></trkpt><trkpt lat="37.05498193065195" lon="14.746787273362893"><ele>668.0</ele><time>2026-04-18T14:22:53Z</time></trkpt><trkpt lat="37.05496612070183" lon="14.746710499646118"><ele>668.0</ele><time>2026-04-18T14:22:54Z</time></trkpt><trkpt lat="37.05494710870127" lon="14.746592764512924"><ele>668.3333333333333</ele><time>2026-04-18T14:22:56Z</time></trkpt><trkpt lat="37.054946756874756" lon="14.746504597917864"><ele>668.6666666666666</ele><time>2026-04-18T14:22:58.001Z</time></trkpt><trkpt lat="37.054963527755966" lon="14.746426988664998"><ele>669.0</ele><time>2026-04-18T14:23:01.001Z</time></trkpt><trkpt lat="37.05501461953311" lon="14.746318237605536"><ele>669.3333333333334</ele><time>2026-04-18T14:23:04.001Z</time></trkpt><trkpt lat="37.055074437667606" lon="14.746269734999967"><ele>669.6666666666667</ele><time>2026-04-18T14:23:06.001Z</time></trkpt><trkpt lat="37.05517148216128" lon="14.746221495323685"><ele>670.0</ele><time>2026-04-18T14:23:08.001Z</time></trkpt><trkpt lat="37.055226265624384" lon="14.746181926577668"><ele>670.0</ele><time>2026-04-18T14:23:09.001Z</time></trkpt><trkpt lat="37.05528810393475" lon="14.746138905022333"><ele>670.0</ele><time>2026-04-18T14:23:10.001Z</time></trkpt><trkpt lat="37.05537507129216" lon="14.746079212226551"><ele>670.0</ele><time>2026-04-18T14:23:11.001Z</time></trkpt><trkpt lat="37.055453325272836" lon="14.746003757402837"><ele>670.0</ele><time>2026-04-18T14:23:12.001Z</time></trkpt><trkpt lat="37.055515249619376" lon="14.745950871929848"><ele>670.0</ele><time>2026-04-18T14:23:13.001Z</time></trkpt><trkpt lat="37.0555837378201" lon="14.74592653330525"><ele>670.0</ele><time>2026-04-18T14:23:14.001Z</time></trkpt><trkpt lat="37.05565864680255" lon="14.745930545645194"><ele>670.2</ele><time>2026-04-18T14:23:15.001Z</time></trkpt><trkpt lat="37.055739786196895" lon="14.745947588634733"><ele>670.4</ele><time>2026-04-18T14:23:16.001Z</time></trkpt><trkpt lat="37.055834239110816" lon="14.745980254884884"><ele>670.5999999999999</ele><time>2026-04-18T14:23:17.001Z</time></trkpt><trkpt lat="37.055948359939975" lon="14.746018915954"><ele>670.8</ele><time>2026-04-18T14:23:18.001Z</time></trkpt><trkpt lat="37.05608681177695" lon="14.746075648212795"><ele>671.0</ele><time>2026-04-18T14:23:19.001Z</time></trkpt><trkpt lat="37.05619413276455" lon="14.746129204047309"><ele>675.3333333333333</ele><time>2026-04-18T14:23:20.001Z</time></trkpt><trkpt lat="37.05628139115265" lon="14.746162377312872"><ele>679.6666666666666</ele><time>2026-04-18T14:23:21.001Z</time></trkpt><trkpt lat="37.05636706208" lon="14.746182386901584"><ele>684.0</ele><time>2026-04-18T14:23:22.001Z</time></trkpt><trkpt lat="37.05643963693469" lon="14.746191846411728"><ele>688.3333333333334</ele><time>2026-04-18T14:23:23.001Z</time></trkpt><trkpt lat="37.05650730091419" lon="14.746184991994461"><ele>692.6666666666667</ele><time>2026-04-18T14:23:24.001Z</time></trkpt><trkpt lat="37.05657371403085" lon="14.74617746478947"><ele>697.0</ele><time>2026-04-18T14:23:25.001Z</time></trkpt><trkpt lat="37.056630582517336" lon="14.746141268834483"><ele>697.8</ele><time>2026-04-18T14:23:26.001Z</time></trkpt><trkpt lat="37.05668399571267" lon="14.746086861029369"><ele>698.6</ele><time>2026-04-18T14:23:27.001Z</time></trkpt><trkpt lat="37.05674802302622" lon="14.746003480354144"><ele>699.4</ele><time>2026-04-18T14:23:28.001Z</time></trkpt><trkpt lat="37.05680887919224" lon="14.745917277719402"><ele>700.1999999999999</ele><time>2026-04-18T14:23:29.001Z</time></trkpt><trkpt lat="37.05686567456881" lon="14.745817307733137"><ele>701.0</ele><time>2026-04-18T14:23:30.001Z</time></trkpt><trkpt lat="37.056906022968725" lon="14.745699476667047"><ele>697.0</ele><time>2026-04-18T14:23:31.001Z</time></trkpt><trkpt lat="37.05694930924853" lon="14.745588084683254"><ele>693.0</ele><time>2026-04-18T14:23:32.001Z</time></trkpt><trkpt lat="37.05699208527266" lon="14.745511811569047"><ele>689.0</ele><time>2026-04-18T14:23:33.001Z</time></trkpt><trkpt lat="37.05704733146811" lon="14.745469423221682"><ele>685.0</ele><time>2026-04-18T14:23:34Z</time></trkpt><trkpt lat="37.0571281568002" lon="14.745434027960846"><ele>681.0</ele><time>2026-04-18T14:23:35Z</time></trkpt><trkpt lat="37.05722368136579" lon="14.745405535896305"><ele>677.0</ele><time>2026-04-18T14:23:36Z</time></trkpt><trkpt lat="37.05733680502611" lon="14.74535929531377"><ele>677.0</ele><time>2026-04-18T14:23:37Z</time></trkpt><trkpt lat="37.05743945227648" lon="14.745324841138551"><ele>677.0</ele><time>2026-04-18T14:23:38Z</time></trkpt><trkpt lat="37.05751686891355" lon="14.745326985050735"><ele>677.0</ele><time>2026-04-18T14:23:39Z</time></trkpt><trkpt lat="37.057600022525094" lon="14.74535683037807"><ele>677.0</ele><time>2026-04-18T14:23:40Z</time></trkpt><trkpt lat="37.0576856896322" lon="14.74540322141417"><ele>677.0</ele><time>2026-04-18T14:23:41Z</time></trkpt><trkpt lat="37.05775721490758" lon="14.745420327929923"><ele>677.0</ele><time>2026-04-18T14:23:42Z</time></trkpt><trkpt lat="37.057888151425956" lon="14.745333153027552"><ele>681.4000000000001</ele><time>2026-04-18T14:23:44Z</time></trkpt><trkpt lat="37.05797675440394" lon="14.745252800150865"><ele>685.8000000000001</ele><time>2026-04-18T14:23:45Z</time></trkpt><trkpt lat="37.05804834073696" lon="14.745220993180663"><ele>690.2</ele><time>2026-04-18T14:23:46Z</time></trkpt><trkpt lat="37.058124573195556" lon="14.74522616671261"><ele>694.6</ele><time>2026-04-18T14:23:47Z</time></trkpt><trkpt lat="37.05820935921422" lon="14.745273414332821"><ele>699.0</ele><time>2026-04-18T14:23:48Z</time></trkpt><trkpt lat="37.058308325816185" lon="14.745337081224703"><ele>700.0</ele><time>2026-04-18T14:23:49Z</time></trkpt><trkpt lat="37.058408049601674" lon="14.745405082603627"><ele>701.0</ele><time>2026-04-18T14:23:50Z</time></trkpt><trkpt lat="37.05848083897643" lon="14.745457122013192"><ele>702.0</ele><time>2026-04-18T14:23:51Z</time></trkpt><trkpt lat="37.058548656678546" lon="14.745484541974553"><ele>703.0</ele><time>2026-04-18T14:23:52Z</time></trkpt><trkpt lat="37.05863136348282" lon="14.745465911093751"><ele>704.0</ele><time>2026-04-18T14:23:53Z</time></trkpt><trkpt lat="37.05870365346678" lon="14.745432830154087"><ele>705.0</ele><time>2026-04-18T14:23:54Z</time></trkpt><trkpt lat="37.05878436056933" lon="14.74540552571036"><ele>705.0</ele><time>2026-04-18T14:23:55Z</time></trkpt><trkpt lat="37.05885152359084" lon="14.745366341279155"><ele>705.0</ele><time>2026-04-18T14:23:56Z</time></trkpt><trkpt lat="37.05890603645171" lon="14.745303702104225"><ele>705.0</ele><time>2026-04-18T14:23:57Z</time></trkpt><trkpt lat="37.058949870376935" lon="14.745231285359514"><ele>705.0</ele><time>2026-04-18T14:23:58Z</time></trkpt><trkpt lat="37.05898302722212" lon="14.745151533798571"><ele>705.0</ele><time>2026-04-18T14:23:59Z</time></trkpt><trkpt lat="37.05901750189958" lon="14.745045578645945"><ele>705.0</ele><time>2026-04-18T14:24:00Z</time></trkpt><trkpt lat="37.059053747468255" lon="14.744956792023533"><ele>705.3333333333334</ele><time>2026-04-18T14:24:01Z</time></trkpt><trkpt lat="37.059112222850544" lon="14.74488791140498"><ele>705.6666666666666</ele><time>2026-04-18T14:24:03Z</time></trkpt><trkpt lat="37.059172555368455" lon="14.744915358893738"><ele>706.0</ele><time>2026-04-18T14:24:05Z</time></trkpt><trkpt lat="37.059244516109615" lon="14.74495759448558"><ele>706.3333333333333</ele><time>2026-04-18T14:24:06Z</time></trkpt><trkpt lat="37.05932790252677" lon="14.74502524421105"><ele>706.6666666666666</ele><time>2026-04-18T14:24:07Z</time></trkpt><trkpt lat="37.05941914611705" lon="14.745118346964414"><ele>707.0</ele><time>2026-04-18T14:24:08Z</time></trkpt><trkpt lat="37.0595173342119" lon="14.745216778970669"><ele>707.0</ele><time>2026-04-18T14:24:09Z</time></trkpt><trkpt lat="37.059601349560715" lon="14.745321764709264"><ele>707.0</ele><time>2026-04-18T14:24:10Z</time></trkpt><trkpt lat="37.05967409748893" lon="14.74540493027929"><ele>707.0</ele><time>2026-04-18T14:24:11Z</time></trkpt><trkpt lat="37.059732259499135" lon="14.745477964584982"><ele>707.0</ele><time>2026-04-18T14:24:12Z</time></trkpt><trkpt lat="37.059784656042375" lon="14.745521998908941"><ele>707.0</ele><time>2026-04-18T14:24:13Z</time></trkpt><trkpt lat="37.05984975018548" lon="14.7455533287405"><ele>707.0</ele><time>2026-04-18T14:24:15Z</time></trkpt><trkpt lat="37.059933747416345" lon="14.745540358279085"><ele>706.8333333333333</ele><time>2026-04-18T14:24:17Z</time></trkpt><trkpt lat="37.06000065427206" lon="14.745531356229751"><ele>706.6666666666666</ele><time>2026-04-18T14:24:18Z</time></trkpt><trkpt lat="37.060064222769036" lon="14.745518925522951"><ele>706.5</ele><time>2026-04-18T14:24:19Z</time></trkpt><trkpt lat="37.060143042959865" lon="14.745439731894843"><ele>706.3333333333334</ele><time>2026-04-18T14:24:21Z</time></trkpt><trkpt lat="37.0601775694582" lon="14.74537171760584"><ele>706.1666666666667</ele><time>2026-04-18T14:24:22Z</time></trkpt><trkpt lat="37.060217440971876" lon="14.745276303256865"><ele>706.0</ele><time>2026-04-18T14:24:23Z</time></trkpt><trkpt lat="37.06024829729508" lon="14.745188104082892"><ele>701.8</ele><time>2026-04-18T14:24:24Z</time></trkpt><trkpt lat="37.060241064671814" lon="14.745043386789218"><ele>697.5999999999999</ele><time>2026-04-18T14:24:26Z</time></trkpt><trkpt lat="37.0601965420032" lon="14.744902042247215"><ele>693.4</ele><time>2026-04-18T14:24:28Z</time></trkpt><trkpt lat="37.06016082650751" lon="14.744830207770951"><ele>689.2</ele><time>2026-04-18T14:24:29Z</time></trkpt><trkpt lat="37.06012520870176" lon="14.74473041791408"><ele>685.0</ele><time>2026-04-18T14:24:30Z</time></trkpt><trkpt lat="37.060104381432446" lon="14.744629361387366"><ele>685.0</ele><time>2026-04-18T14:24:31Z</time></trkpt><trkpt lat="37.060098592769045" lon="14.744525198139057"><ele>685.0</ele><time>2026-04-18T14:24:32Z</time></trkpt><trkpt lat="37.06010720304408" lon="14.744435561102481"><ele>685.0</ele><time>2026-04-18T14:24:33Z</time></trkpt><trkpt lat="37.060177166677185" lon="14.744313997827865"><ele>685.0</ele><time>2026-04-18T14:24:35Z</time></trkpt><trkpt lat="37.06024623255566" lon="14.744252202118137"><ele>685.0</ele><time>2026-04-18T14:24:36Z</time></trkpt><trkpt lat="37.060337548592365" lon="14.74420184982849"><ele>686.75</ele><time>2026-04-18T14:24:37Z</time></trkpt><trkpt lat="37.06047154823713" lon="14.744148059172947"><ele>688.5</ele><time>2026-04-18T14:24:38Z</time></trkpt><trkpt lat="37.060621866288706" lon="14.744109720216077"><ele>690.25</ele><time>2026-04-18T14:24:39Z</time></trkpt><trkpt lat="37.06074521811403" lon="14.74409647309868"><ele>692.0</ele><time>2026-04-18T14:24:40Z</time></trkpt><trkpt lat="37.06083092902487" lon="14.7440727719087"><ele>692.0</ele><time>2026-04-18T14:24:41Z</time></trkpt><trkpt lat="37.060907720415635" lon="14.74398496534879"><ele>692.0</ele><time>2026-04-18T14:24:43Z</time></trkpt><trkpt lat="37.06094927803443" lon="14.743894606700684"><ele>692.0</ele><time>2026-04-18T14:24:45Z</time></trkpt><trkpt lat="37.06100507873629" lon="14.743816551066029"><ele>692.0</ele><time>2026-04-18T14:24:46Z</time></trkpt><trkpt lat="37.06105788026109" lon="14.743764792213447"><ele>692.0</ele><time>2026-04-18T14:24:47Z</time></trkpt><trkpt lat="37.0611191234685" lon="14.74374147698564"><ele>692.0</ele><time>2026-04-18T14:24:48Z</time></trkpt><trkpt lat="37.061187594887436" lon="14.743743237546301"><ele>692.0</ele><time>2026-04-18T14:24:49Z</time></trkpt><trkpt lat="37.0612519664454" lon="14.74377546100655"><ele>692.0</ele><time>2026-04-18T14:24:50Z</time></trkpt><trkpt lat="37.06133258627559" lon="14.743815706043547"><ele>692.0</ele><time>2026-04-18T14:24:51Z</time></trkpt><trkpt lat="37.061409383312686" lon="14.743878540951945"><ele>692.0</ele><time>2026-04-18T14:24:52Z</time></trkpt><trkpt lat="37.0614914690236" lon="14.743968470885191"><ele>692.0</ele><time>2026-04-18T14:24:53Z</time></trkpt><trkpt lat="37.06159127592373" lon="14.744086471753539"><ele>692.6</ele><time>2026-04-18T14:24:54Z</time></trkpt><trkpt lat="37.061676765232505" lon="14.74419799477235"><ele>693.2</ele><time>2026-04-18T14:24:55Z</time></trkpt><trkpt lat="37.06174126992645" lon="14.744278343014654"><ele>693.8</ele><time>2026-04-18T14:24:56Z</time></trkpt><trkpt lat="37.06179866849451" lon="14.744341170740771"><ele>694.4</ele><time>2026-04-18T14:24:57Z</time></trkpt><trkpt lat="37.06185102526453" lon="14.744390403550735"><ele>695.0</ele><time>2026-04-18T14:24:58Z</time></trkpt><trkpt lat="37.06193956802285" lon="14.744448011288242"><ele>695.0</ele><time>2026-04-18T14:25:00Z</time></trkpt><trkpt lat="37.06201414596808" lon="14.744416567337394"><ele>695.0</ele><time>2026-04-18T14:25:02Z</time></trkpt><trkpt lat="37.062092157728294" lon="14.744308723130354"><ele>695.0</ele><time>2026-04-18T14:25:04Z</time></trkpt><trkpt lat="37.06212781995296" lon="14.744206546499411"><ele>695.0</ele><time>2026-04-18T14:25:05Z</time></trkpt><trkpt lat="37.0621549548278" lon="14.744113166325578"><ele>695.0</ele><time>2026-04-18T14:25:06Z</time></trkpt><trkpt lat="37.06218335369206" lon="14.743993900795408"><ele>695.0</ele><time>2026-04-18T14:25:07Z</time></trkpt><trkpt lat="37.06221865600182" lon="14.743859734294876"><ele>695.0</ele><time>2026-04-18T14:25:08Z</time></trkpt><trkpt lat="37.062246992622605" lon="14.743758305298666"><ele>695.0</ele><time>2026-04-18T14:25:09Z</time></trkpt><trkpt lat="37.062266140354645" lon="14.743682501051275"><ele>695.0</ele><time>2026-04-18T14:25:10Z</time></trkpt><trkpt lat="37.062329438937816" lon="14.743594600779518"><ele>695.0</ele><time>2026-04-18T14:25:12Z</time></trkpt><trkpt lat="37.0624330140836" lon="14.74359120181953"><ele>695.0</ele><time>2026-04-18T14:25:14Z</time></trkpt><trkpt lat="37.062529971765095" lon="14.74369057210547"><ele>695.0</ele><time>2026-04-18T14:25:16Z</time></trkpt><trkpt lat="37.06257902788305" lon="14.74377307521385"><ele>695.0</ele><time>2026-04-18T14:25:17Z</time></trkpt><trkpt lat="37.0626281022033" lon="14.74386063500781"><ele>695.0</ele><time>2026-04-18T14:25:18Z</time></trkpt><trkpt lat="37.062685025568" lon="14.743929103491997"><ele>695.0</ele><time>2026-04-18T14:25:19Z</time></trkpt><trkpt lat="37.06274200774653" lon="14.743978868868801"><ele>695.0</ele><time>2026-04-18T14:25:20Z</time></trkpt><trkpt lat="37.062866765545394" lon="14.743996220444384"><ele>695.0</ele><time>2026-04-18T14:25:22.001Z</time></trkpt><trkpt lat="37.06294670960269" lon="14.743982121366885"><ele>695.0</ele><time>2026-04-18T14:25:23.001Z</time></trkpt><trkpt lat="37.06301918654789" lon="14.743941159134145"><ele>695.0</ele><time>2026-04-18T14:25:24.001Z</time></trkpt><trkpt lat="37.063102817648655" lon="14.743907159860234"><ele>695.0</ele><time>2026-04-18T14:25:25.001Z</time></trkpt><trkpt lat="37.06319879177515" lon="14.743870246274216"><ele>695.0</ele><time>2026-04-18T14:25:26.001Z</time></trkpt><trkpt lat="37.063281664758804" lon="14.743848168155756"><ele>695.0</ele><time>2026-04-18T14:25:27.001Z</time></trkpt><trkpt lat="37.06335271813442" lon="14.743828853902045"><ele>694.4285714285714</ele><time>2026-04-18T14:25:28.001Z</time></trkpt><trkpt lat="37.0634155529317" lon="14.743835802063053"><ele>693.8571428571429</ele><time>2026-04-18T14:25:29.001Z</time></trkpt><trkpt lat="37.06350517093346" lon="14.743914187627977"><ele>693.2857142857142</ele><time>2026-04-18T14:25:31.001Z</time></trkpt><trkpt lat="37.063541227836836" lon="14.743980194258784"><ele>692.7142857142858</ele><time>2026-04-18T14:25:32.001Z</time></trkpt><trkpt lat="37.0635507524339" lon="14.744072846797593"><ele>692.1428571428571</ele><time>2026-04-18T14:25:33.001Z</time></trkpt><trkpt lat="37.06357256778575" lon="14.744149253061027"><ele>691.5714285714286</ele><time>2026-04-18T14:25:34.001Z</time></trkpt><trkpt lat="37.06360179896648" lon="14.744221086506117"><ele>691.0</ele><time>2026-04-18T14:25:35.001Z</time></trkpt><trkpt lat="37.06368696446283" lon="14.744289424327567"><ele>691.0</ele><time>2026-04-18T14:25:37.001Z</time></trkpt><trkpt lat="37.06380811502796" lon="14.744294927728946"><ele>691.0</ele><time>2026-04-18T14:25:39.001Z</time></trkpt><trkpt lat="37.06388258723415" lon="14.744281667356113"><ele>691.0</ele><time>2026-04-18T14:25:40Z</time></trkpt><trkpt lat="37.06395431715547" lon="14.744267396245736"><ele>691.0</ele><time>2026-04-18T14:25:41Z</time></trkpt><trkpt lat="37.06403161940171" lon="14.744257858307726"><ele>691.0</ele><time>2026-04-18T14:25:42Z</time></trkpt><trkpt lat="37.064107449307755" lon="14.744254221068722"><ele>691.0</ele><time>2026-04-18T14:25:43Z</time></trkpt><trkpt lat="37.06421836215628" lon="14.744260818873085"><ele>691.1999999999999</ele><time>2026-04-18T14:25:45Z</time></trkpt><trkpt lat="37.06430894375096" lon="14.74432761662189"><ele>691.4</ele><time>2026-04-18T14:25:47Z</time></trkpt><trkpt lat="37.064346352182845" lon="14.74439669645953"><ele>691.6</ele><time>2026-04-18T14:25:48Z</time></trkpt><trkpt lat="37.064382078304696" lon="14.744529145254695"><ele>691.8</ele><time>2026-04-18T14:25:50Z</time></trkpt><trkpt lat="37.06436228693271" lon="14.744669180018416"><ele>692.0</ele><time>2026-04-18T14:25:52Z</time></trkpt><trkpt lat="37.06432277083707" lon="14.744781002988631"><ele>692.0</ele><time>2026-04-18T14:25:54Z</time></trkpt><trkpt lat="37.06428513095466" lon="14.744845821676176"><ele>692.0</ele><time>2026-04-18T14:25:55Z</time></trkpt><trkpt lat="37.06426038426377" lon="14.74493712075515"><ele>692.0</ele><time>2026-04-18T14:25:56Z</time></trkpt><trkpt lat="37.064235811723634" lon="14.745027309712432"><ele>692.0</ele><time>2026-04-18T14:25:57Z</time></trkpt><trkpt lat="37.06420519125306" lon="14.745121766301153"><ele>692.0</ele><time>2026-04-18T14:25:58Z</time></trkpt><trkpt lat="37.06415753357216" lon="14.74523982735745"><ele>692.0</ele><time>2026-04-18T14:26:00Z</time></trkpt><trkpt lat="37.06413850466246" lon="14.745361278201555"><ele>694.5</ele><time>2026-04-18T14:26:02Z</time></trkpt><trkpt lat="37.06418620426108" lon="14.745437079547852"><ele>697.0</ele><time>2026-04-18T14:26:04Z</time></trkpt><trkpt lat="37.06427237068743" lon="14.745464706895188"><ele>699.5</ele><time>2026-04-18T14:26:06Z</time></trkpt><trkpt lat="37.064347657874286" lon="14.7454716500158"><ele>702.0</ele><time>2026-04-18T14:26:07Z</time></trkpt><trkpt lat="37.06444440925449" lon="14.745475208781482"><ele>704.5</ele><time>2026-04-18T14:26:08Z</time></trkpt><trkpt lat="37.06452806889055" lon="14.74547124900618"><ele>707.0</ele><time>2026-04-18T14:26:09Z</time></trkpt><trkpt lat="37.064614187509186" lon="14.74544706699862"><ele>707.0</ele><time>2026-04-18T14:26:10Z</time></trkpt><trkpt lat="37.064718607502435" lon="14.745406859663513"><ele>707.0</ele><time>2026-04-18T14:26:11Z</time></trkpt><trkpt lat="37.064809727275424" lon="14.745390220340065"><ele>707.0</ele><time>2026-04-18T14:26:12Z</time></trkpt><trkpt lat="37.06487356994266" lon="14.745393988574705"><ele>707.0</ele><time>2026-04-18T14:26:13Z</time></trkpt><trkpt lat="37.064948899800214" lon="14.745410380244174"><ele>707.0</ele><time>2026-04-18T14:26:14Z</time></trkpt><trkpt lat="37.06503282478418" lon="14.74544419430899"><ele>707.0</ele><time>2026-04-18T14:26:15Z</time></trkpt><trkpt lat="37.06512131455043" lon="14.745506894752465"><ele>703.2</ele><time>2026-04-18T14:26:16Z</time></trkpt><trkpt lat="37.06519055954518" lon="14.745574720271692"><ele>699.4000000000001</ele><time>2026-04-18T14:26:17Z</time></trkpt><trkpt lat="37.065259485305596" lon="14.745639491038958"><ele>695.5999999999999</ele><time>2026-04-18T14:26:18Z</time></trkpt><trkpt lat="37.06532720987633" lon="14.74572229512114"><ele>691.8</ele><time>2026-04-18T14:26:19Z</time></trkpt><trkpt lat="37.065398286546035" lon="14.745820487861177"><ele>688.0</ele><time>2026-04-18T14:26:20Z</time></trkpt><trkpt lat="37.06545428340824" lon="14.745922254765429"><ele>688.0</ele><time>2026-04-18T14:26:21Z</time></trkpt><trkpt lat="37.06547894123398" lon="14.746030997541942"><ele>688.0</ele><time>2026-04-18T14:26:22Z</time></trkpt><trkpt lat="37.06551888418782" lon="14.746129332823331"><ele>688.0</ele><time>2026-04-18T14:26:23Z</time></trkpt><trkpt lat="37.065544869622364" lon="14.746219206916166"><ele>688.0</ele><time>2026-04-18T14:26:24Z</time></trkpt><trkpt lat="37.06555045970975" lon="14.74630106971813"><ele>688.0</ele><time>2026-04-18T14:26:25Z</time></trkpt><trkpt lat="37.06555324376617" lon="14.74638416151783"><ele>688.0</ele><time>2026-04-18T14:26:26Z</time></trkpt><trkpt lat="37.0655355678809" lon="14.746533919677928"><ele>690.4</ele><time>2026-04-18T14:26:28Z</time></trkpt><trkpt lat="37.06552087191209" lon="14.746623927965175"><ele>692.8</ele><time>2026-04-18T14:26:29Z</time></trkpt><trkpt lat="37.06552529462465" lon="14.746747273328742"><ele>695.2</ele><time>2026-04-18T14:26:31Z</time></trkpt><trkpt lat="37.06557942936821" lon="14.746884199678364"><ele>697.6</ele><time>2026-04-18T14:26:33Z</time></trkpt><trkpt lat="37.06565533099846" lon="14.74695821257185"><ele>700.0</ele><time>2026-04-18T14:26:35Z</time></trkpt><trkpt lat="37.065767440224576" lon="14.746992035723087"><ele>698.6</ele><time>2026-04-18T14:26:37Z</time></trkpt><trkpt lat="37.0658322999786" lon="14.746996778721467"><ele>697.2</ele><time>2026-04-18T14:26:38Z</time></trkpt><trkpt lat="37.06591001694267" lon="14.746975738359373"><ele>695.8</ele><time>2026-04-18T14:26:39Z</time></trkpt><trkpt lat="37.066015680405684" lon="14.746960349596584"><ele>694.4</ele><time>2026-04-18T14:26:40Z</time></trkpt><trkpt lat="37.06613095067714" lon="14.74691399312075"><ele>693.0</ele><time>2026-04-18T14:26:41Z</time></trkpt><trkpt lat="37.06625777815341" lon="14.746877870096174"><ele>693.0</ele><time>2026-04-18T14:26:42Z</time></trkpt><trkpt lat="37.066341061810334" lon="14.746859464684915"><ele>693.0</ele><time>2026-04-18T14:26:43Z</time></trkpt><trkpt lat="37.0664630845589" lon="14.746876534622348"><ele>693.0</ele><time>2026-04-18T14:26:45Z</time></trkpt><trkpt lat="37.06658457463709" lon="14.74692430973865"><ele>693.0</ele><time>2026-04-18T14:26:47Z</time></trkpt><trkpt lat="37.066637908895444" lon="14.747012517648995"><ele>693.0</ele><time>2026-04-18T14:26:48Z</time></trkpt><trkpt lat="37.06668714916034" lon="14.747118652808027"><ele>691.25</ele><time>2026-04-18T14:26:49Z</time></trkpt><trkpt lat="37.066729738976974" lon="14.74724182430854"><ele>689.5</ele><time>2026-04-18T14:26:50Z</time></trkpt><trkpt lat="37.06678472962967" lon="14.747386467746763"><ele>687.75</ele><time>2026-04-18T14:26:51Z</time></trkpt><trkpt lat="37.06682934702866" lon="14.74752533884996"><ele>686.0</ele><time>2026-04-18T14:26:52Z</time></trkpt><trkpt lat="37.066881689955714" lon="14.7476374414711"><ele>687.6666666666666</ele><time>2026-04-18T14:26:53Z</time></trkpt><trkpt lat="37.06693380413092" lon="14.747745533765459"><ele>689.3333333333333</ele><time>2026-04-18T14:26:54Z</time></trkpt><trkpt lat="37.06698155824278" lon="14.747845336639305"><ele>691.0</ele><time>2026-04-18T14:26:55Z</time></trkpt><trkpt lat="37.06702659804231" lon="14.747923893072674"><ele>692.6666666666666</ele><time>2026-04-18T14:26:56Z</time></trkpt><trkpt lat="37.067065152542085" lon="14.747986415111761"><ele>694.3333333333334</ele><time>2026-04-18T14:26:57Z</time></trkpt><trkpt lat="37.067163172412364" lon="14.748055885119276"><ele>696.0</ele><time>2026-04-18T14:26:59Z</time></trkpt><trkpt lat="37.067231090070585" lon="14.748091885456056"><ele>696.0</ele><time>2026-04-18T14:27:00Z</time></trkpt><trkpt lat="37.067307317302465" lon="14.74810981639447"><ele>696.0</ele><time>2026-04-18T14:27:01Z</time></trkpt><trkpt lat="37.06737520651876" lon="14.748110118223524"><ele>696.0</ele><time>2026-04-18T14:27:02Z</time></trkpt><trkpt lat="37.06747781238082" lon="14.748099539401233"><ele>696.0</ele><time>2026-04-18T14:27:03Z</time></trkpt><trkpt lat="37.06761301984282" lon="14.74806733508026"><ele>696.0</ele><time>2026-04-18T14:27:04Z</time></trkpt><trkpt lat="37.06772136944213" lon="14.74802310763789"><ele>692.75</ele><time>2026-04-18T14:27:05Z</time></trkpt><trkpt lat="37.06780437314718" lon="14.747984258839104"><ele>689.5</ele><time>2026-04-18T14:27:06Z</time></trkpt><trkpt lat="37.067910359087435" lon="14.747924828259979"><ele>686.25</ele><time>2026-04-18T14:27:07Z</time></trkpt><trkpt lat="37.068024960116794" lon="14.747849814535066"><ele>683.0</ele><time>2026-04-18T14:27:08Z</time></trkpt><trkpt lat="37.068134411774324" lon="14.747768083482999"><ele>681.4</ele><time>2026-04-18T14:27:09Z</time></trkpt><trkpt lat="37.06821804678718" lon="14.747683027854423"><ele>679.8</ele><time>2026-04-18T14:27:10Z</time></trkpt><trkpt lat="37.06829921079438" lon="14.747583585814064"><ele>678.2</ele><time>2026-04-18T14:27:11Z</time></trkpt><trkpt lat="37.068363807185406" lon="14.747501753515113"><ele>676.6</ele><time>2026-04-18T14:27:12Z</time></trkpt><trkpt lat="37.0684314422807" lon="14.747452581630887"><ele>675.0</ele><time>2026-04-18T14:27:13Z</time></trkpt><trkpt lat="37.068544131050366" lon="14.74743332681151"><ele>675.0</ele><time>2026-04-18T14:27:15Z</time></trkpt><trkpt lat="37.06866991115225" lon="14.747511464865264"><ele>675.0</ele><time>2026-04-18T14:27:17.001Z</time></trkpt><trkpt lat="37.06873304186061" lon="14.747571364476487"><ele>675.0</ele><time>2026-04-18T14:27:18.001Z</time></trkpt><trkpt lat="37.06879475791125" lon="14.747707597533088"><ele>675.0</ele><time>2026-04-18T14:27:19.001Z</time></trkpt><trkpt lat="37.06886410079414" lon="14.747838481044175"><ele>674.3333333333334</ele><time>2026-04-18T14:27:20.001Z</time></trkpt><trkpt lat="37.0689247679734" lon="14.747941277512412"><ele>673.6666666666666</ele><time>2026-04-18T14:27:21.001Z</time></trkpt><trkpt lat="37.06897467942381" lon="14.748032420034637"><ele>673.0</ele><time>2026-04-18T14:27:22.001Z</time></trkpt><trkpt lat="37.069019385560324" lon="14.748114929896552"><ele>672.3333333333333</ele><time>2026-04-18T14:27:23.001Z</time></trkpt><trkpt lat="37.06906339459922" lon="14.748202397809566"><ele>671.6666666666666</ele><time>2026-04-18T14:27:24.001Z</time></trkpt><trkpt lat="37.06910844962272" lon="14.748294028772435"><ele>671.0</ele><time>2026-04-18T14:27:25.001Z</time></trkpt><trkpt lat="37.0691334246338" lon="14.748378115535436"><ele>671.0</ele><time>2026-04-18T14:27:26.001Z</time></trkpt><trkpt lat="37.06915607234631" lon="14.748467193702465"><ele>671.0</ele><time>2026-04-18T14:27:27.001Z</time></trkpt><trkpt lat="37.06917992153543" lon="14.748613125187765"><ele>671.0</ele><time>2026-04-18T14:27:29.001Z</time></trkpt><trkpt lat="37.06915288152551" lon="14.748771698779427"><ele>671.0</ele><time>2026-04-18T14:27:31.001Z</time></trkpt><trkpt lat="37.069140934308194" lon="14.748849646323082"><ele>671.0</ele><time>2026-04-18T14:27:32.001Z</time></trkpt><trkpt lat="37.06912037710424" lon="14.748931457588395"><ele>671.8333333333333</ele><time>2026-04-18T14:27:33.001Z</time></trkpt><trkpt lat="37.06911491230632" lon="14.749017863995508"><ele>672.6666666666666</ele><time>2026-04-18T14:27:34.001Z</time></trkpt><trkpt lat="37.069128707054105" lon="14.74911043998603"><ele>673.5</ele><time>2026-04-18T14:27:35.001Z</time></trkpt><trkpt lat="37.069152665991886" lon="14.749183556023866"><ele>674.3333333333334</ele><time>2026-04-18T14:27:36.001Z</time></trkpt><trkpt lat="37.06920288469772" lon="14.749260657621306"><ele>675.1666666666667</ele><time>2026-04-18T14:27:38.001Z</time></trkpt><trkpt lat="37.069304900245655" lon="14.749338050666797"><ele>676.0</ele><time>2026-04-18T14:27:40.001Z</time></trkpt><trkpt lat="37.06940085569161" lon="14.749366162685103"><ele>678.5</ele><time>2026-04-18T14:27:41.001Z</time></trkpt><trkpt lat="37.06950966108426" lon="14.74939102425175"><ele>681.0</ele><time>2026-04-18T14:27:42.001Z</time></trkpt><trkpt lat="37.069596499189856" lon="14.749418815468369"><ele>683.5</ele><time>2026-04-18T14:27:43.001Z</time></trkpt><trkpt lat="37.069669535758536" lon="14.749463406032294"><ele>686.0</ele><time>2026-04-18T14:27:44.001Z</time></trkpt><trkpt lat="37.069742043536785" lon="14.749502321685526"><ele>688.5</ele><time>2026-04-18T14:27:45.001Z</time></trkpt><trkpt lat="37.069812679860306" lon="14.749539237498176"><ele>691.0</ele><time>2026-04-18T14:27:46Z</time></trkpt><trkpt lat="37.069882713109656" lon="14.749522245451697"><ele>688.8</ele><time>2026-04-18T14:27:47Z</time></trkpt><trkpt lat="37.06997256566198" lon="14.749483577980332"><ele>686.5999999999999</ele><time>2026-04-18T14:27:48Z</time></trkpt><trkpt lat="37.07004977206208" lon="14.749437882623726"><ele>684.4</ele><time>2026-04-18T14:27:49Z</time></trkpt><trkpt lat="37.07011777402526" lon="14.74937080307946"><ele>682.2</ele><time>2026-04-18T14:27:50Z</time></trkpt><trkpt lat="37.07021139742795" lon="14.749297015808535"><ele>680.0</ele><time>2026-04-18T14:27:51Z</time></trkpt><trkpt lat="37.07029741500669" lon="14.749226838760361"><ele>680.0</ele><time>2026-04-18T14:27:52Z</time></trkpt><trkpt lat="37.070369856658296" lon="14.749181599476424"><ele>680.0</ele><time>2026-04-18T14:27:53Z</time></trkpt><trkpt lat="37.07046447365014" lon="14.749111904578712"><ele>680.0</ele><time>2026-04-18T14:27:55Z</time></trkpt><trkpt lat="37.0705353479799" lon="14.74912986014103"><ele>680.0</ele><time>2026-04-18T14:27:57Z</time></trkpt><trkpt lat="37.07060571810156" lon="14.749162363618453"><ele>680.0</ele><time>2026-04-18T14:27:59Z</time></trkpt><trkpt lat="37.07061053695951" lon="14.749283236016101"><ele>680.0</ele><time>2026-04-18T14:28:43Z</time></trkpt><trkpt lat="37.070649637945216" lon="14.749387484597255"><ele>680.0</ele><time>2026-04-18T14:28:45Z</time></trkpt><trkpt lat="37.07069657510995" lon="14.749465055360202"><ele>680.0</ele><time>2026-04-18T14:28:46Z</time></trkpt><trkpt lat="37.070752653296395" lon="14.74954207616619"><ele>680.0</ele><time>2026-04-18T14:28:47Z</time></trkpt><trkpt lat="37.07083229992565" lon="14.749645098635146"><ele>680.0</ele><time>2026-04-18T14:28:48Z</time></trkpt><trkpt lat="37.07092456520542" lon="14.749744155100357"><ele>680.0</ele><time>2026-04-18T14:28:49Z</time></trkpt><trkpt lat="37.07099386005086" lon="14.749821556526099"><ele>680.4</ele><time>2026-04-18T14:28:50Z</time></trkpt><trkpt lat="37.07105573861724" lon="14.749927453077857"><ele>680.8</ele><time>2026-04-18T14:28:52Z</time></trkpt><trkpt lat="37.071062112439236" lon="14.750067161281741"><ele>681.2</ele><time>2026-04-18T14:28:54Z</time></trkpt><trkpt lat="37.07106999464119" lon="14.750184501718406"><ele>681.6</ele><time>2026-04-18T14:28:55Z</time></trkpt><trkpt lat="37.071065072434074" lon="14.750313955821573"><ele>682.0</ele><time>2026-04-18T14:28:56Z</time></trkpt><trkpt lat="37.07105951145461" lon="14.750400563028736"><ele>682.0</ele><time>2026-04-18T14:28:57Z</time></trkpt><trkpt lat="37.071097363254346" lon="14.750526342202813"><ele>682.0</ele><time>2026-04-18T14:28:59Z</time></trkpt><trkpt lat="37.07114674313601" lon="14.750593975159623"><ele>682.0</ele><time>2026-04-18T14:29:00Z</time></trkpt><trkpt lat="37.07119610941216" lon="14.75064346748119"><ele>682.0</ele><time>2026-04-18T14:29:01Z</time></trkpt><trkpt lat="37.0713006956718" lon="14.750718115211386"><ele>682.0</ele><time>2026-04-18T14:29:03Z</time></trkpt><trkpt lat="37.07139937523446" lon="14.750762565691607"><ele>682.0</ele><time>2026-04-18T14:29:04Z</time></trkpt><trkpt lat="37.07148537246553" lon="14.750817046995158"><ele>682.0</ele><time>2026-04-18T14:29:05Z</time></trkpt><trkpt lat="37.07157108856751" lon="14.750875935474161"><ele>682.0</ele><time>2026-04-18T14:29:06Z</time></trkpt><trkpt lat="37.07163890776993" lon="14.75094019829177"><ele>682.0</ele><time>2026-04-18T14:29:07Z</time></trkpt><trkpt lat="37.07170387020692" lon="14.750973640020083"><ele>682.0</ele><time>2026-04-18T14:29:08Z</time></trkpt><trkpt lat="37.07183039621503" lon="14.750957135080238"><ele>681.6666666666667</ele><time>2026-04-18T14:29:10Z</time></trkpt><trkpt lat="37.07191585506593" lon="14.750940724302238"><ele>681.3333333333334</ele><time>2026-04-18T14:29:11Z</time></trkpt><trkpt lat="37.072007833897956" lon="14.750923945407036"><ele>681.0</ele><time>2026-04-18T14:29:12Z</time></trkpt><trkpt lat="37.07211463023305" lon="14.75097461308004"><ele>680.6666666666666</ele><time>2026-04-18T14:29:14Z</time></trkpt><trkpt lat="37.07215275293801" lon="14.751051177091723"><ele>680.3333333333333</ele><time>2026-04-18T14:29:15Z</time></trkpt><trkpt lat="37.07217255133937" lon="14.75114893213641"><ele>680.0</ele><time>2026-04-18T14:29:16Z</time></trkpt><trkpt lat="37.072158679297544" lon="14.7512488598715"><ele>680.0</ele><time>2026-04-18T14:29:17Z</time></trkpt><trkpt lat="37.07213785927017" lon="14.751351399137661"><ele>680.0</ele><time>2026-04-18T14:29:18Z</time></trkpt><trkpt lat="37.07211884776822" lon="14.7514644793531"><ele>680.0</ele><time>2026-04-18T14:29:19Z</time></trkpt><trkpt lat="37.07213594165307" lon="14.751551430579408"><ele>680.0</ele><time>2026-04-18T14:29:20Z</time></trkpt><trkpt lat="37.07215301734023" lon="14.751637670288323"><ele>680.0</ele><time>2026-04-18T14:29:21Z</time></trkpt><trkpt lat="37.07218250859492" lon="14.751729326171633"><ele>680.0</ele><time>2026-04-18T14:29:22Z</time></trkpt><trkpt lat="37.07223218801898" lon="14.75180822649118"><ele>680.0</ele><time>2026-04-18T14:29:23Z</time></trkpt><trkpt lat="37.07228830844248" lon="14.751864533945435"><ele>680.0</ele><time>2026-04-18T14:29:24Z</time></trkpt><trkpt lat="37.07235130854191" lon="14.75190909007314"><ele>680.0</ele><time>2026-04-18T14:29:25Z</time></trkpt><trkpt lat="37.072432406440186" lon="14.751953862224143"><ele>680.0</ele><time>2026-04-18T14:29:26Z</time></trkpt><trkpt lat="37.07252723836902" lon="14.752003601490216"><ele>680.0</ele><time>2026-04-18T14:29:27Z</time></trkpt><trkpt lat="37.072608056962686" lon="14.752045968527487"><ele>680.0</ele><time>2026-04-18T14:29:28Z</time></trkpt><trkpt lat="37.0726756981443" lon="14.752098745437875"><ele>676.4</ele><time>2026-04-18T14:29:29Z</time></trkpt><trkpt lat="37.07273693806593" lon="14.752141411232497"><ele>672.8</ele><time>2026-04-18T14:29:30Z</time></trkpt><trkpt lat="37.07279548722216" lon="14.75217179164657"><ele>669.2</ele><time>2026-04-18T14:29:31Z</time></trkpt><trkpt lat="37.07290146092571" lon="14.752258087970327"><ele>665.6</ele><time>2026-04-18T14:29:33Z</time></trkpt><trkpt lat="37.07296183857337" lon="14.752389417254614"><ele>662.0</ele><time>2026-04-18T14:29:35Z</time></trkpt><trkpt lat="37.072941376227085" lon="14.752478405050674"><ele>662.0</ele><time>2026-04-18T14:29:36.001Z</time></trkpt><trkpt lat="37.072893738944636" lon="14.752596241215262"><ele>662.0</ele><time>2026-04-18T14:29:37.001Z</time></trkpt><trkpt lat="37.07284732755305" lon="14.752708392669806"><ele>662.0</ele><time>2026-04-18T14:29:38.001Z</time></trkpt><trkpt lat="37.07276927058169" lon="14.752822996125168"><ele>662.0</ele><time>2026-04-18T14:29:39.001Z</time></trkpt><trkpt lat="37.07270108848884" lon="14.752933735870172"><ele>662.0</ele><time>2026-04-18T14:29:40.001Z</time></trkpt><trkpt lat="37.07267438890739" lon="14.753029391105475"><ele>659.6666666666666</ele><time>2026-04-18T14:29:41.001Z</time></trkpt><trkpt lat="37.072630427815604" lon="14.753121327017688"><ele>657.3333333333333</ele><time>2026-04-18T14:29:42.001Z</time></trkpt><trkpt lat="37.07257467146254" lon="14.753218733374341"><ele>655.0</ele><time>2026-04-18T14:29:43.001Z</time></trkpt><trkpt lat="37.07252497239902" lon="14.753312638616316"><ele>652.6666666666666</ele><time>2026-04-18T14:29:45.001Z</time></trkpt><trkpt lat="37.07247700108153" lon="14.753425268211354"><ele>650.3333333333334</ele><time>2026-04-18T14:29:55Z</time></trkpt><trkpt lat="37.07244983268066" lon="14.75351419377156"><ele>648.0</ele><time>2026-04-18T14:29:57Z</time></trkpt><trkpt lat="37.07236338653654" lon="14.753594768904824"><ele>644.25</ele><time>2026-04-18T14:29:59Z</time></trkpt><trkpt lat="37.07227988737129" lon="14.753648477198306"><ele>640.5</ele><time>2026-04-18T14:30:01Z</time></trkpt><trkpt lat="37.072202165471076" lon="14.753699062264053"><ele>636.75</ele><time>2026-04-18T14:30:03Z</time></trkpt><trkpt lat="37.072079868020744" lon="14.753766472500793"><ele>633.0</ele><time>2026-04-18T14:30:05Z</time></trkpt><trkpt lat="37.07194369088858" lon="14.753792428704875"><ele>633.0</ele><time>2026-04-18T14:30:07Z</time></trkpt><trkpt lat="37.071868884666465" lon="14.753785298040935"><ele>633.0</ele><time>2026-04-18T14:30:08Z</time></trkpt><trkpt lat="37.07179739039609" lon="14.753785296896593"><ele>633.0</ele><time>2026-04-18T14:30:09Z</time></trkpt><trkpt lat="37.07170960343511" lon="14.753799464765939"><ele>633.0</ele><time>2026-04-18T14:30:10Z</time></trkpt><trkpt lat="37.071628956457396" lon="14.75380998950899"><ele>633.0</ele><time>2026-04-18T14:30:11Z</time></trkpt><trkpt lat="37.07155585729443" lon="14.75382633959636"><ele>633.0</ele><time>2026-04-18T14:30:12Z</time></trkpt><trkpt lat="37.07142946566227" lon="14.753807384258685"><ele>633.0</ele><time>2026-04-18T14:30:14Z</time></trkpt><trkpt lat="37.07134277741944" lon="14.753812774169587"><ele>633.0</ele><time>2026-04-18T14:30:16Z</time></trkpt><trkpt lat="37.07134148475021" lon="14.75392732581985"><ele>633.0</ele><time>2026-04-18T14:30:18Z</time></trkpt><trkpt lat="37.0714074463386" lon="14.753980726227566"><ele>633.0</ele><time>2026-04-18T14:30:20Z</time></trkpt><trkpt lat="37.071477981739655" lon="14.75399839687439"><ele>633.0</ele><time>2026-04-18T14:30:21Z</time></trkpt><trkpt lat="37.0715741962675" lon="14.754057047061751"><ele>633.0</ele><time>2026-04-18T14:30:22Z</time></trkpt><trkpt lat="37.07165871878369" lon="14.754125541123962"><ele>633.0</ele><time>2026-04-18T14:30:23Z</time></trkpt><trkpt lat="37.071708708712734" lon="14.754191975422266"><ele>633.0</ele><time>2026-04-18T14:30:24Z</time></trkpt><trkpt lat="37.07176566945446" lon="14.754237321087494"><ele>633.0</ele><time>2026-04-18T14:30:25Z</time></trkpt><trkpt lat="37.07185809803978" lon="14.75425132557689"><ele>633.0</ele><time>2026-04-18T14:30:27Z</time></trkpt><trkpt lat="37.071932338816474" lon="14.754232670946218"><ele>633.0</ele><time>2026-04-18T14:30:28Z</time></trkpt><trkpt lat="37.07201931223978" lon="14.754204603169498"><ele>633.0</ele><time>2026-04-18T14:30:29Z</time></trkpt><trkpt lat="37.07210652482366" lon="14.754166665932077"><ele>633.0</ele><time>2026-04-18T14:30:31Z</time></trkpt><trkpt lat="37.07217122421298" lon="14.754172180886043"><ele>633.0</ele><time>2026-04-18T14:30:32Z</time></trkpt><trkpt lat="37.0722503894674" lon="14.754157993086121"><ele>633.0</ele><time>2026-04-18T14:30:33Z</time></trkpt><trkpt lat="37.07232525524391" lon="14.754140264340434"><ele>633.0</ele><time>2026-04-18T14:30:34Z</time></trkpt><trkpt lat="37.07240907813927" lon="14.754126160305521"><ele>633.0</ele><time>2026-04-18T14:30:35Z</time></trkpt><trkpt lat="37.072500681720506" lon="14.754099939551544"><ele>633.0</ele><time>2026-04-18T14:30:36Z</time></trkpt><trkpt lat="37.07258933381929" lon="14.754058581708863"><ele>631.3333333333334</ele><time>2026-04-18T14:30:37Z</time></trkpt><trkpt lat="37.07265425066991" lon="14.75401629505214"><ele>629.6666666666666</ele><time>2026-04-18T14:30:38Z</time></trkpt><trkpt lat="37.07274012231676" lon="14.753949759094326"><ele>628.0</ele><time>2026-04-18T14:30:40Z</time></trkpt><trkpt lat="37.07280724503386" lon="14.75389468894039"><ele>626.3333333333333</ele><time>2026-04-18T14:30:42Z</time></trkpt><trkpt lat="37.072850529550685" lon="14.753834354211744"><ele>624.6666666666666</ele><time>2026-04-18T14:30:44Z</time></trkpt><trkpt lat="37.0729235823018" lon="14.753778547580815"><ele>623.0</ele><time>2026-04-18T14:30:46Z</time></trkpt><trkpt lat="37.072946011127414" lon="14.753853773491617"><ele>623.0</ele><time>2026-04-18T14:30:49Z</time></trkpt><trkpt lat="37.072916000998326" lon="14.753945948020679"><ele>623.0</ele><time>2026-04-18T14:30:52Z</time></trkpt><trkpt lat="37.07286014884992" lon="14.754067411018427"><ele>623.0</ele><time>2026-04-18T14:30:54Z</time></trkpt><trkpt lat="37.07280522740108" lon="14.754184089721237"><ele>623.0</ele><time>2026-04-18T14:30:55Z</time></trkpt><trkpt lat="37.07275197266041" lon="14.754263492942343"><ele>623.0</ele><time>2026-04-18T14:30:56Z</time></trkpt><trkpt lat="37.072684954109285" lon="14.754340476557902"><ele>621.6</ele><time>2026-04-18T14:30:57Z</time></trkpt><trkpt lat="37.07260947030215" lon="14.754411494616"><ele>620.1999999999999</ele><time>2026-04-18T14:30:58Z</time></trkpt><trkpt lat="37.072526835457644" lon="14.754491447216406"><ele>618.8</ele><time>2026-04-18T14:30:59Z</time></trkpt><trkpt lat="37.07246244603046" lon="14.754562892080504"><ele>617.4</ele><time>2026-04-18T14:31:00Z</time></trkpt><trkpt lat="37.07242000755658" lon="14.754637419234918"><ele>616.0</ele><time>2026-04-18T14:31:01Z</time></trkpt><trkpt lat="37.07235348139402" lon="14.754728950091568"><ele>616.0</ele><time>2026-04-18T14:31:02Z</time></trkpt><trkpt lat="37.072284916069044" lon="14.754825389076602"><ele>616.0</ele><time>2026-04-18T14:31:03Z</time></trkpt><trkpt lat="37.072215501141216" lon="14.754910168435584"><ele>616.0</ele><time>2026-04-18T14:31:04Z</time></trkpt><trkpt lat="37.07214462385496" lon="14.755008711564827"><ele>616.0</ele><time>2026-04-18T14:31:05Z</time></trkpt><trkpt lat="37.07209344002188" lon="14.755107168016352"><ele>616.0</ele><time>2026-04-18T14:31:06Z</time></trkpt><trkpt lat="37.07199258897489" lon="14.75522187085547"><ele>612.6666666666667</ele><time>2026-04-18T14:31:08Z</time></trkpt><trkpt lat="37.07193170527357" lon="14.7552693520935"><ele>609.3333333333334</ele><time>2026-04-18T14:31:09Z</time></trkpt><trkpt lat="37.07184741318545" lon="14.75533142235769"><ele>606.0</ele><time>2026-04-18T14:31:11Z</time></trkpt><trkpt lat="37.07181998138472" lon="14.755415141602768"><ele>602.6666666666666</ele><time>2026-04-18T14:31:13Z</time></trkpt><trkpt lat="37.071878756330555" lon="14.755469429199845"><ele>599.3333333333333</ele><time>2026-04-18T14:31:15Z</time></trkpt><trkpt lat="37.07197384865155" lon="14.75546804518796"><ele>596.0</ele><time>2026-04-18T14:31:17Z</time></trkpt><trkpt lat="37.07204237677834" lon="14.755412985397284"><ele>596.0</ele><time>2026-04-18T14:31:19Z</time></trkpt><trkpt lat="37.0721160331196" lon="14.755298055046113"><ele>596.0</ele><time>2026-04-18T14:31:21Z</time></trkpt><trkpt lat="37.07214211821645" lon="14.755209963841798"><ele>596.0</ele><time>2026-04-18T14:31:22Z</time></trkpt><trkpt lat="37.0721715695939" lon="14.755136712753938"><ele>596.0</ele><time>2026-04-18T14:31:23Z</time></trkpt><trkpt lat="37.07227339200978" lon="14.755020922751793"><ele>596.0</ele><time>2026-04-18T14:31:25Z</time></trkpt><trkpt lat="37.072343922368255" lon="14.754960282203507"><ele>597.1666666666666</ele><time>2026-04-18T14:31:26Z</time></trkpt><trkpt lat="37.072412564539675" lon="14.754903745931017"><ele>598.3333333333333</ele><time>2026-04-18T14:31:27Z</time></trkpt><trkpt lat="37.07246744865145" lon="14.754861579657785"><ele>599.5</ele><time>2026-04-18T14:31:28Z</time></trkpt><trkpt lat="37.0725761072763" lon="14.754824229655544"><ele>600.6666666666666</ele><time>2026-04-18T14:31:30Z</time></trkpt><trkpt lat="37.07264937332936" lon="14.754806919821519"><ele>601.8333333333334</ele><time>2026-04-18T14:31:32Z</time></trkpt><trkpt lat="37.072719009165965" lon="14.754780262557142"><ele>603.0</ele><time>2026-04-18T14:31:35Z</time></trkpt><trkpt lat="37.07280162594761" lon="14.754762610817908"><ele>603.0</ele><time>2026-04-18T14:31:39Z</time></trkpt><trkpt lat="37.07283752688852" lon="14.754834875331122"><ele>603.0</ele><time>2026-04-18T14:31:42Z</time></trkpt><trkpt lat="37.07279260088961" lon="14.754904575271942"><ele>603.0</ele><time>2026-04-18T14:31:46Z</time></trkpt><trkpt lat="37.072719852437416" lon="14.754965846608435"><ele>603.0</ele><time>2026-04-18T14:31:49Z</time></trkpt><trkpt lat="37.07266453034458" lon="14.755021026750795"><ele>603.0</ele><time>2026-04-18T14:31:50Z</time></trkpt><trkpt lat="37.07258507186269" lon="14.755098125697831"><ele>603.0</ele><time>2026-04-18T14:31:51Z</time></trkpt><trkpt lat="37.072510283553434" lon="14.755172272459534"><ele>601.6</ele><time>2026-04-18T14:31:52.001Z</time></trkpt><trkpt lat="37.072439437852275" lon="14.755238937313445"><ele>600.1999999999999</ele><time>2026-04-18T14:31:53.001Z</time></trkpt><trkpt lat="37.07238110681079" lon="14.75531011287778"><ele>598.8</ele><time>2026-04-18T14:31:54.001Z</time></trkpt><trkpt lat="37.072324219707696" lon="14.75539912532756"><ele>597.4</ele><time>2026-04-18T14:31:55.001Z</time></trkpt><trkpt lat="37.0722642603785" lon="14.755518663322144"><ele>596.0</ele><time>2026-04-18T14:31:56.001Z</time></trkpt><trkpt lat="37.07220572585316" lon="14.755613229173768"><ele>596.0</ele><time>2026-04-18T14:31:57Z</time></trkpt><trkpt lat="37.07213666112225" lon="14.755694858426818"><ele>596.0</ele><time>2026-04-18T14:31:58Z</time></trkpt><trkpt lat="37.072062369986035" lon="14.75577862933669"><ele>596.0</ele><time>2026-04-18T14:31:59Z</time></trkpt><trkpt lat="37.071987387096314" lon="14.755848624487578"><ele>596.0</ele><time>2026-04-18T14:32:00Z</time></trkpt><trkpt lat="37.071918036850704" lon="14.755926867133123"><ele>596.0</ele><time>2026-04-18T14:32:01Z</time></trkpt><trkpt lat="37.07185080155988" lon="14.756003592396688"><ele>592.8333333333333</ele><time>2026-04-18T14:32:02Z</time></trkpt><trkpt lat="37.071793234526744" lon="14.756069576945983"><ele>589.6666666666666</ele><time>2026-04-18T14:32:03Z</time></trkpt><trkpt lat="37.07173919908635" lon="14.756118226140641"><ele>586.5</ele><time>2026-04-18T14:32:04Z</time></trkpt><trkpt lat="37.0716817585831" lon="14.756177221111646"><ele>583.3333333333334</ele><time>2026-04-18T14:32:05Z</time></trkpt><trkpt lat="37.07162844469601" lon="14.756234758244814"><ele>580.1666666666667</ele><time>2026-04-18T14:32:06Z</time></trkpt><trkpt lat="37.07155219467872" lon="14.756298554862335"><ele>577.0</ele><time>2026-04-18T14:32:08Z</time></trkpt><trkpt lat="37.071478720658966" lon="14.756303676358046"><ele>577.0</ele><time>2026-04-18T14:32:10Z</time></trkpt><trkpt lat="37.0714232802896" lon="14.756233961939904"><ele>577.0</ele><time>2026-04-18T14:32:12Z</time></trkpt><trkpt lat="37.071369597438874" lon="14.756078861526717"><ele>577.0</ele><time>2026-04-18T14:32:14Z</time></trkpt><trkpt lat="37.071326898401594" lon="14.755996226375876"><ele>577.0</ele><time>2026-04-18T14:32:15Z</time></trkpt><trkpt lat="37.07126658702012" lon="14.755932751592667"><ele>577.0</ele><time>2026-04-18T14:32:16Z</time></trkpt><trkpt lat="37.071196659942586" lon="14.755864523742046"><ele>579.8000000000001</ele><time>2026-04-18T14:32:17Z</time></trkpt><trkpt lat="37.07114759903068" lon="14.755771585920858"><ele>582.6</ele><time>2026-04-18T14:32:18Z</time></trkpt><trkpt lat="37.07110974970392" lon="14.75567739590191"><ele>585.4000000000001</ele><time>2026-04-18T14:32:19Z</time></trkpt><trkpt lat="37.07103299433556" lon="14.755520816145337"><ele>588.2</ele><time>2026-04-18T14:32:21Z</time></trkpt><trkpt lat="37.07098220096893" lon="14.755439562214143"><ele>591.0</ele><time>2026-04-18T14:32:22Z</time></trkpt><trkpt lat="37.070933713960336" lon="14.75538302147712"><ele>591.0</ele><time>2026-04-18T14:32:23Z</time></trkpt><trkpt lat="37.07085758520546" lon="14.75530177319477"><ele>591.0</ele><time>2026-04-18T14:32:25Z</time></trkpt><trkpt lat="37.07078742085696" lon="14.755276892530942"><ele>591.0</ele><time>2026-04-18T14:32:27Z</time></trkpt><trkpt lat="37.07072516511555" lon="14.755330504122998"><ele>591.0</ele><time>2026-04-18T14:32:29Z</time></trkpt><trkpt lat="37.07074053878558" lon="14.755465247346715"><ele>591.0</ele><time>2026-04-18T14:32:31Z</time></trkpt><trkpt lat="37.070785283587746" lon="14.755542385934692"><ele>591.0</ele><time>2026-04-18T14:32:32Z</time></trkpt><trkpt lat="37.07086401241792" lon="14.755640568557965"><ele>591.0</ele><time>2026-04-18T14:32:34Z</time></trkpt><trkpt lat="37.07092107973682" lon="14.755713186568402"><ele>591.0</ele><time>2026-04-18T14:32:36Z</time></trkpt><trkpt lat="37.070966797544614" lon="14.75583916584521"><ele>591.0</ele><time>2026-04-18T14:32:38Z</time></trkpt><trkpt lat="37.0709955919604" lon="14.755973153039344"><ele>591.0</ele><time>2026-04-18T14:32:40Z</time></trkpt><trkpt lat="37.07103078577223" lon="14.756093079435868"><ele>591.0</ele><time>2026-04-18T14:32:42Z</time></trkpt><trkpt lat="37.071024645174596" lon="14.756194868007324"><ele>588.6666666666666</ele><time>2026-04-18T14:32:44Z</time></trkpt><trkpt lat="37.070979457345636" lon="14.756341971421758"><ele>586.3333333333334</ele><time>2026-04-18T14:32:46Z</time></trkpt><trkpt lat="37.07093455704614" lon="14.756456597093464"><ele>584.0</ele><time>2026-04-18T14:32:47Z</time></trkpt><trkpt lat="37.07090426071018" lon="14.756540096953952"><ele>581.6666666666667</ele><time>2026-04-18T14:32:48Z</time></trkpt><trkpt lat="37.07088554169142" lon="14.756620301328827"><ele>579.3333333333334</ele><time>2026-04-18T14:32:49Z</time></trkpt><trkpt lat="37.070857966984974" lon="14.756702424096645"><ele>577.0</ele><time>2026-04-18T14:32:51Z</time></trkpt><trkpt lat="37.07083618168119" lon="14.756778599135664"><ele>578.8333333333334</ele><time>2026-04-18T14:32:54Z</time></trkpt><trkpt lat="37.070811218814626" lon="14.756871144365222"><ele>580.6666666666667</ele><time>2026-04-18T14:33:37Z</time></trkpt><trkpt lat="37.0707771383505" lon="14.75696262226757"><ele>582.5</ele><time>2026-04-18T14:33:40Z</time></trkpt><trkpt lat="37.07073350592715" lon="14.757029522575547"><ele>584.3333333333334</ele><time>2026-04-18T14:33:44Z</time></trkpt><trkpt lat="37.07070420864394" lon="14.757100203096702"><ele>586.1666666666666</ele><time>2026-04-18T14:34:23Z</time></trkpt><trkpt lat="37.07065369545978" lon="14.757230773746008"><ele>588.0</ele><time>2026-04-18T14:47:10Z</time></trkpt><trkpt lat="37.07060819050288" lon="14.757316731833399"><ele>588.0</ele><time>2026-04-18T14:47:11Z</time></trkpt><trkpt lat="37.07055556841916" lon="14.757430790635457"><ele>588.0</ele><time>2026-04-18T14:47:12Z</time></trkpt><trkpt lat="37.07049068714468" lon="14.757578341056378"><ele>588.0</ele><time>2026-04-18T14:47:13Z</time></trkpt><trkpt lat="37.070420956739255" lon="14.757715633390454"><ele>588.0</ele><time>2026-04-18T14:47:14Z</time></trkpt><trkpt lat="37.070374127837404" lon="14.757842986343675"><ele>584.5</ele><time>2026-04-18T14:47:15Z</time></trkpt><trkpt lat="37.07033463151032" lon="14.75794863119809"><ele>581.0</ele><time>2026-04-18T14:47:16Z</time></trkpt><trkpt lat="37.07028444256995" lon="14.758061744630893"><ele>577.5</ele><time>2026-04-18T14:47:17Z</time></trkpt><trkpt lat="37.07023781453901" lon="14.758156605273033"><ele>574.0</ele><time>2026-04-18T14:47:18Z</time></trkpt><trkpt lat="37.07019269495902" lon="14.758238346808962"><ele>570.5</ele><time>2026-04-18T14:47:19Z</time></trkpt><trkpt lat="37.07014352227445" lon="14.758317702949435"><ele>567.0</ele><time>2026-04-18T14:47:20Z</time></trkpt><trkpt lat="37.07008305882629" lon="14.758406872786004"><ele>567.0</ele><time>2026-04-18T14:47:21Z</time></trkpt><trkpt lat="37.070010559453195" lon="14.75850096672086"><ele>567.0</ele><time>2026-04-18T14:47:22Z</time></trkpt><trkpt lat="37.06993468284423" lon="14.758610738090203"><ele>567.0</ele><time>2026-04-18T14:47:23Z</time></trkpt><trkpt lat="37.06983733326451" lon="14.758675231655431"><ele>567.0</ele><time>2026-04-18T14:47:24Z</time></trkpt><trkpt lat="37.06974468887298" lon="14.75876990546758"><ele>566.25</ele><time>2026-04-18T14:47:25Z</time></trkpt><trkpt lat="37.06962824268371" lon="14.75884276059818"><ele>565.5</ele><time>2026-04-18T14:47:26Z</time></trkpt><trkpt lat="37.069510854849966" lon="14.758917833466622"><ele>564.75</ele><time>2026-04-18T14:47:27Z</time></trkpt><trkpt lat="37.069406428989005" lon="14.758992381945175"><ele>564.0</ele><time>2026-04-18T14:47:28Z</time></trkpt><trkpt lat="37.06929848924806" lon="14.759064600010806"><ele>564.0</ele><time>2026-04-18T14:47:29Z</time></trkpt><trkpt lat="37.06920686221669" lon="14.759146921645081"><ele>564.0</ele><time>2026-04-18T14:47:30Z</time></trkpt><trkpt lat="37.06912795822932" lon="14.759235068107165"><ele>564.0</ele><time>2026-04-18T14:47:31Z</time></trkpt><trkpt lat="37.06906356573064" lon="14.759327580668005"><ele>564.0</ele><time>2026-04-18T14:47:32Z</time></trkpt><trkpt lat="37.069012264520396" lon="14.759424524730091"><ele>564.0</ele><time>2026-04-18T14:47:33Z</time></trkpt><trkpt lat="37.06896686812312" lon="14.759534758145398"><ele>564.4</ele><time>2026-04-18T14:47:34Z</time></trkpt><trkpt lat="37.06893053606385" lon="14.759656028879865"><ele>564.8</ele><time>2026-04-18T14:47:35Z</time></trkpt><trkpt lat="37.06890512246228" lon="14.759781953569869"><ele>565.2</ele><time>2026-04-18T14:47:36Z</time></trkpt><trkpt lat="37.06889005379553" lon="14.759912460350481"><ele>565.6</ele><time>2026-04-18T14:47:37Z</time></trkpt><trkpt lat="37.06888764527285" lon="14.760045553596461"><ele>566.0</ele><time>2026-04-18T14:47:38Z</time></trkpt><trkpt lat="37.068898813003216" lon="14.760169546032063"><ele>564.6</ele><time>2026-04-18T14:47:39Z</time></trkpt><trkpt lat="37.06890465916654" lon="14.760283752300515"><ele>563.2</ele><time>2026-04-18T14:47:40Z</time></trkpt><trkpt lat="37.06893811290242" lon="14.760406493306462"><ele>561.8</ele><time>2026-04-18T14:47:41Z</time></trkpt><trkpt lat="37.06898765557883" lon="14.760548409382633"><ele>560.4</ele><time>2026-04-18T14:47:42Z</time></trkpt><trkpt lat="37.069040645112075" lon="14.760681749807096"><ele>559.0</ele><time>2026-04-18T14:47:43Z</time></trkpt><trkpt lat="37.06910823703761" lon="14.760841988908131"><ele>558.75</ele><time>2026-04-18T14:47:44Z</time></trkpt><trkpt lat="37.069182807007905" lon="14.760984895485487"><ele>558.5</ele><time>2026-04-18T14:47:45Z</time></trkpt><trkpt lat="37.06925492758497" lon="14.761134474378245"><ele>558.25</ele><time>2026-04-18T14:47:46Z</time></trkpt><trkpt lat="37.06932780583688" lon="14.761293217266472"><ele>558.0</ele><time>2026-04-18T14:47:47Z</time></trkpt><trkpt lat="37.06935642313897" lon="14.76148031885831"><ele>559.25</ele><time>2026-04-18T14:47:48Z</time></trkpt><trkpt lat="37.06940532922007" lon="14.761666222175087"><ele>560.5</ele><time>2026-04-18T14:47:49Z</time></trkpt><trkpt lat="37.0694656356015" lon="14.761810453613913"><ele>561.75</ele><time>2026-04-18T14:47:50Z</time></trkpt><trkpt lat="37.0695182475483" lon="14.761929574761504"><ele>563.0</ele><time>2026-04-18T14:47:51Z</time></trkpt><trkpt lat="37.06957896638028" lon="14.762027301161863"><ele>563.4</ele><time>2026-04-18T14:47:52Z</time></trkpt><trkpt lat="37.06965689022789" lon="14.762103647217439"><ele>563.8</ele><time>2026-04-18T14:47:53Z</time></trkpt><trkpt lat="37.06974076925255" lon="14.762159559220805"><ele>564.2</ele><time>2026-04-18T14:47:54Z</time></trkpt><trkpt lat="37.06984564333855" lon="14.762210086272777"><ele>564.6</ele><time>2026-04-18T14:47:55Z</time></trkpt><trkpt lat="37.069978262242905" lon="14.762267800359275"><ele>565.0</ele><time>2026-04-18T14:47:56Z</time></trkpt><trkpt lat="37.070122800222485" lon="14.76231985479166"><ele>565.0</ele><time>2026-04-18T14:47:57Z</time></trkpt><trkpt lat="37.07026332373821" lon="14.762363263522294"><ele>565.0</ele><time>2026-04-18T14:47:58Z</time></trkpt><trkpt lat="37.0704077605149" lon="14.762414147816312"><ele>565.0</ele><time>2026-04-18T14:47:59Z</time></trkpt><trkpt lat="37.0705467476038" lon="14.762465049232485"><ele>565.0</ele><time>2026-04-18T14:48:00Z</time></trkpt><trkpt lat="37.07067382859214" lon="14.762505460109834"><ele>567.25</ele><time>2026-04-18T14:48:01Z</time></trkpt><trkpt lat="37.07080131490855" lon="14.762545477409002"><ele>569.5</ele><time>2026-04-18T14:48:02Z</time></trkpt><trkpt lat="37.07092770921697" lon="14.762573718210852"><ele>571.75</ele><time>2026-04-18T14:48:03Z</time></trkpt><trkpt lat="37.071060873685006" lon="14.762593964140576"><ele>574.0</ele><time>2026-04-18T14:48:04Z</time></trkpt><trkpt lat="37.07119949615835" lon="14.762612564423582"><ele>574.0</ele><time>2026-04-18T14:48:05Z</time></trkpt><trkpt lat="37.07134268071938" lon="14.762617988110199"><ele>574.0</ele><time>2026-04-18T14:48:06Z</time></trkpt><trkpt lat="37.07149313926219" lon="14.762628627403815"><ele>574.0</ele><time>2026-04-18T14:48:07Z</time></trkpt><trkpt lat="37.07163862730987" lon="14.762643072675914"><ele>574.0</ele><time>2026-04-18T14:48:08Z</time></trkpt><trkpt lat="37.07178728444709" lon="14.762661951947852"><ele>579.6666666666667</ele><time>2026-04-18T14:48:09Z</time></trkpt><trkpt lat="37.07192694711296" lon="14.76271572143749"><ele>585.3333333333334</ele><time>2026-04-18T14:48:10Z</time></trkpt><trkpt lat="37.07207336940113" lon="14.76277056591223"><ele>591.0</ele><time>2026-04-18T14:48:11Z</time></trkpt><trkpt lat="37.072230070759204" lon="14.762807664169932"><ele>591.0</ele><time>2026-04-18T14:48:12Z</time></trkpt><trkpt lat="37.072377180147676" lon="14.762875260022438"><ele>591.0</ele><time>2026-04-18T14:48:13Z</time></trkpt><trkpt lat="37.072526439990376" lon="14.762939687887584"><ele>591.0</ele><time>2026-04-18T14:48:14Z</time></trkpt><trkpt lat="37.07267524266582" lon="14.7629938058253"><ele>591.0</ele><time>2026-04-18T14:48:15Z</time></trkpt><trkpt lat="37.07282488313754" lon="14.763049336649727"><ele>591.0</ele><time>2026-04-18T14:48:16Z</time></trkpt><trkpt lat="37.07297586537696" lon="14.763103806863786"><ele>591.0</ele><time>2026-04-18T14:48:17Z</time></trkpt><trkpt lat="37.07312019356333" lon="14.76315702436026"><ele>591.0</ele><time>2026-04-18T14:48:18Z</time></trkpt><trkpt lat="37.07326468037142" lon="14.763210190062404"><ele>591.0</ele><time>2026-04-18T14:48:19Z</time></trkpt><trkpt lat="37.07338982132939" lon="14.763260149695812"><ele>591.0</ele><time>2026-04-18T14:48:20Z</time></trkpt><trkpt lat="37.07349825972629" lon="14.763309752485155"><ele>591.0</ele><time>2026-04-18T14:48:21Z</time></trkpt><trkpt lat="37.07359542172751" lon="14.763362246053994"><ele>592.1666666666666</ele><time>2026-04-18T14:48:22Z</time></trkpt><trkpt lat="37.073676506764805" lon="14.763427042702384"><ele>593.3333333333334</ele><time>2026-04-18T14:48:23Z</time></trkpt><trkpt lat="37.073742001033274" lon="14.763501898302716"><ele>594.5</ele><time>2026-04-18T14:48:24Z</time></trkpt><trkpt lat="37.073785508545356" lon="14.763575563327699"><ele>595.6666666666667</ele><time>2026-04-18T14:48:25Z</time></trkpt><trkpt lat="37.07381833428877" lon="14.763660790074074"><ele>596.8333333333334</ele><time>2026-04-18T14:48:26Z</time></trkpt><trkpt lat="37.07384705123214" lon="14.763752938768604"><ele>598.0</ele><time>2026-04-18T14:48:27Z</time></trkpt><trkpt lat="37.073866172776064" lon="14.763851483851228"><ele>599.4</ele><time>2026-04-18T14:48:28Z</time></trkpt><trkpt lat="37.073875327598316" lon="14.763962888072381"><ele>600.8</ele><time>2026-04-18T14:48:29Z</time></trkpt><trkpt lat="37.07387250341698" lon="14.764081564605275"><ele>602.2</ele><time>2026-04-18T14:48:30Z</time></trkpt><trkpt lat="37.07386908101306" lon="14.764224566343948"><ele>603.6</ele><time>2026-04-18T14:48:31Z</time></trkpt><trkpt lat="37.07386654632798" lon="14.764383535529626"><ele>605.0</ele><time>2026-04-18T14:48:32Z</time></trkpt><trkpt lat="37.073871900840835" lon="14.764546330280677"><ele>605.75</ele><time>2026-04-18T14:48:33Z</time></trkpt><trkpt lat="37.073891538271205" lon="14.764696030966737"><ele>606.5</ele><time>2026-04-18T14:48:34Z</time></trkpt><trkpt lat="37.073924931782294" lon="14.764831756693141"><ele>607.25</ele><time>2026-04-18T14:48:35Z</time></trkpt><trkpt lat="37.073971487515294" lon="14.764960553120314"><ele>608.0</ele><time>2026-04-18T14:48:36Z</time></trkpt><trkpt lat="37.074030024571734" lon="14.765081432492757"><ele>608.5</ele><time>2026-04-18T14:48:37Z</time></trkpt><trkpt lat="37.074097366433676" lon="14.765195833915447"><ele>609.0</ele><time>2026-04-18T14:48:38Z</time></trkpt><trkpt lat="37.07417192992537" lon="14.765311003649959"><ele>609.5</ele><time>2026-04-18T14:48:39Z</time></trkpt><trkpt lat="37.07425561577514" lon="14.765438450429867"><ele>610.0</ele><time>2026-04-18T14:48:40Z</time></trkpt><trkpt lat="37.07434280607029" lon="14.765576386653064"><ele>610.0</ele><time>2026-04-18T14:48:41Z</time></trkpt><trkpt lat="37.0744332192065" lon="14.765723547664033"><ele>610.0</ele><time>2026-04-18T14:48:42Z</time></trkpt><trkpt lat="37.07452663434463" lon="14.765868624009157"><ele>610.0</ele><time>2026-04-18T14:48:43Z</time></trkpt><trkpt lat="37.07462419788029" lon="14.765995689444953"><ele>610.0</ele><time>2026-04-18T14:48:44Z</time></trkpt><trkpt lat="37.074729400793764" lon="14.766108454396798"><ele>610.5</ele><time>2026-04-18T14:48:45Z</time></trkpt><trkpt lat="37.074844696082366" lon="14.766214421220806"><ele>611.0</ele><time>2026-04-18T14:48:46Z</time></trkpt><trkpt lat="37.074961052477924" lon="14.766310853855622"><ele>611.5</ele><time>2026-04-18T14:48:47Z</time></trkpt><trkpt lat="37.075057353194424" lon="14.76638962662475"><ele>612.0</ele><time>2026-04-18T14:48:48Z</time></trkpt><trkpt lat="37.07512917134224" lon="14.766456247398747"><ele>612.0</ele><time>2026-04-18T14:48:49Z</time></trkpt><trkpt lat="37.07518229371359" lon="14.766525369592296"><ele>612.0</ele><time>2026-04-18T14:48:50Z</time></trkpt><trkpt lat="37.075223526017076" lon="14.766605072256908"><ele>612.0</ele><time>2026-04-18T14:48:51Z</time></trkpt><trkpt lat="37.07525005263715" lon="14.766698734367077"><ele>612.0</ele><time>2026-04-18T14:48:52Z</time></trkpt><trkpt lat="37.075279044674424" lon="14.766828539995286"><ele>612.0</ele><time>2026-04-18T14:48:53Z</time></trkpt><trkpt lat="37.07531301384221" lon="14.766999685567857"><ele>611.0</ele><time>2026-04-18T14:48:54Z</time></trkpt><trkpt lat="37.07535476989766" lon="14.767206819321432"><ele>610.0</ele><time>2026-04-18T14:48:55Z</time></trkpt><trkpt lat="37.07539521319051" lon="14.767412312858704"><ele>609.0</ele><time>2026-04-18T14:48:56Z</time></trkpt><trkpt lat="37.07541078602423" lon="14.767594689429382"><ele>608.5</ele><time>2026-04-18T14:48:57Z</time></trkpt><trkpt lat="37.07544454599341" lon="14.767756075298514"><ele>608.0</ele><time>2026-04-18T14:48:58Z</time></trkpt><trkpt lat="37.0754758675648" lon="14.767905805327096"><ele>607.5</ele><time>2026-04-18T14:48:59Z</time></trkpt><trkpt lat="37.07550475984924" lon="14.768042388948865"><ele>607.0</ele><time>2026-04-18T14:49:00Z</time></trkpt><trkpt lat="37.07553055010852" lon="14.768164413202445"><ele>607.0</ele><time>2026-04-18T14:49:01Z</time></trkpt><trkpt lat="37.07555361492963" lon="14.768273542327613"><ele>607.0</ele><time>2026-04-18T14:49:02Z</time></trkpt><trkpt lat="37.075574050088306" lon="14.768370229391858"><ele>607.0</ele><time>2026-04-18T14:49:03Z</time></trkpt><trkpt lat="37.07559027529197" lon="14.768446997440135"><ele>607.0</ele><time>2026-04-18T14:49:04Z</time></trkpt><trkpt lat="37.075620514191336" lon="14.768590070028443"><ele>607.0</ele><time>2026-04-18T14:49:06Z</time></trkpt><trkpt lat="37.07590734562177" lon="14.768622362524095"><ele>607.0</ele><time>2026-04-18T14:49:08Z</time></trkpt><trkpt lat="37.07599579806623" lon="14.768633494516187"><ele>607.0</ele><time>2026-04-18T14:49:09Z</time></trkpt><trkpt lat="37.076099455295875" lon="14.76863303197803"><ele>607.0</ele><time>2026-04-18T14:49:10Z</time></trkpt><trkpt lat="37.076222596033325" lon="14.768622544106096"><ele>607.0</ele><time>2026-04-18T14:49:11Z</time></trkpt><trkpt lat="37.07635625431501" lon="14.768606379590356"><ele>607.0</ele><time>2026-04-18T14:49:12Z</time></trkpt><trkpt lat="37.07649392485866" lon="14.768592788282357"><ele>607.0</ele><time>2026-04-18T14:49:13Z</time></trkpt><trkpt lat="37.07663610277403" lon="14.768581443420823"><ele>607.0</ele><time>2026-04-18T14:49:14Z</time></trkpt><trkpt lat="37.07678482268418" lon="14.768570860535545"><ele>607.0</ele><time>2026-04-18T14:49:15Z</time></trkpt><trkpt lat="37.0769355257224" lon="14.76856160089517"><ele>607.0</ele><time>2026-04-18T14:49:16Z</time></trkpt><trkpt lat="37.07707468786688" lon="14.768553544599092"><ele>607.0</ele><time>2026-04-18T14:49:17Z</time></trkpt><trkpt lat="37.07719537334779" lon="14.76854734954597"><ele>607.0</ele><time>2026-04-18T14:49:18Z</time></trkpt><trkpt lat="37.07730684444763" lon="14.768539594666295"><ele>607.0</ele><time>2026-04-18T14:49:19Z</time></trkpt><trkpt lat="37.0774073120226" lon="14.768525028541939"><ele>607.1666666666667</ele><time>2026-04-18T14:49:20Z</time></trkpt><trkpt lat="37.07750284141923" lon="14.768509491077731"><ele>607.3333333333334</ele><time>2026-04-18T14:49:21Z</time></trkpt><trkpt lat="37.07760225281488" lon="14.768506534049836"><ele>607.5</ele><time>2026-04-18T14:49:22Z</time></trkpt><trkpt lat="37.07769198063544" lon="14.768510876095261"><ele>607.6666666666666</ele><time>2026-04-18T14:49:23Z</time></trkpt><trkpt lat="37.07777376312479" lon="14.768519681611172"><ele>607.8333333333333</ele><time>2026-04-18T14:49:24Z</time></trkpt><trkpt lat="37.0778416635708" lon="14.768535117529202"><ele>608.0</ele><time>2026-04-18T14:49:25Z</time></trkpt><trkpt lat="37.07795117930801" lon="14.768582398670345"><ele>608.0</ele><time>2026-04-18T14:49:27Z</time></trkpt><trkpt lat="37.078136639776794" lon="14.768613998519827"><ele>608.0</ele><time>2026-04-18T14:49:29Z</time></trkpt><trkpt lat="37.07820947540932" lon="14.768556378096457"><ele>608.0</ele><time>2026-04-18T14:49:30Z</time></trkpt><trkpt lat="37.078303592217495" lon="14.768501577029445"><ele>608.0</ele><time>2026-04-18T14:49:31Z</time></trkpt><trkpt lat="37.07840820407811" lon="14.768437409780974"><ele>608.0</ele><time>2026-04-18T14:49:32Z</time></trkpt><trkpt lat="37.07852400272731" lon="14.768406951568481"><ele>608.0</ele><time>2026-04-18T14:49:33Z</time></trkpt><trkpt lat="37.07864419471455" lon="14.768372604650645"><ele>608.0</ele><time>2026-04-18T14:49:34Z</time></trkpt><trkpt lat="37.078761355090585" lon="14.768333195637657"><ele>608.0</ele><time>2026-04-18T14:49:35Z</time></trkpt><trkpt lat="37.078874640346484" lon="14.768288895267995"><ele>608.0</ele><time>2026-04-18T14:49:36Z</time></trkpt><trkpt lat="37.07898362263455" lon="14.768242503683817"><ele>608.0</ele><time>2026-04-18T14:49:37Z</time></trkpt><trkpt lat="37.07909079069688" lon="14.768198301358296"><ele>608.0</ele><time>2026-04-18T14:49:38Z</time></trkpt><trkpt lat="37.079190292720604" lon="14.768160079270725"><ele>608.0</ele><time>2026-04-18T14:49:39Z</time></trkpt><trkpt lat="37.0792889002242" lon="14.76812614571992"><ele>608.0</ele><time>2026-04-18T14:49:40Z</time></trkpt><trkpt lat="37.07938660610977" lon="14.768096277268986"><ele>606.25</ele><time>2026-04-18T14:49:41Z</time></trkpt><trkpt lat="37.07949108006718" lon="14.768068385987025"><ele>604.5</ele><time>2026-04-18T14:49:42Z</time></trkpt><trkpt lat="37.079602272497866" lon="14.768045926302023"><ele>602.75</ele><time>2026-04-18T14:49:43Z</time></trkpt><trkpt lat="37.07971865840609" lon="14.768035453157815"><ele>601.0</ele><time>2026-04-18T14:49:44Z</time></trkpt><trkpt lat="37.07983519123125" lon="14.768024407833636"><ele>599.2</ele><time>2026-04-18T14:49:45Z</time></trkpt><trkpt lat="37.07994372922129" lon="14.768015064946098"><ele>597.4000000000001</ele><time>2026-04-18T14:49:46Z</time></trkpt><trkpt lat="37.08004857445322" lon="14.768005642352374"><ele>595.6</ele><time>2026-04-18T14:49:47Z</time></trkpt><trkpt lat="37.08014959156054" lon="14.767987762330357"><ele>593.8000000000001</ele><time>2026-04-18T14:49:48Z</time></trkpt><trkpt lat="37.08024581523527" lon="14.767958184548743"><ele>592.0</ele><time>2026-04-18T14:49:49Z</time></trkpt><trkpt lat="37.08033265324217" lon="14.767913766865545"><ele>592.0</ele><time>2026-04-18T14:49:50Z</time></trkpt><trkpt lat="37.08041277225784" lon="14.767853549037808"><ele>592.0</ele><time>2026-04-18T14:49:51Z</time></trkpt><trkpt lat="37.080482373119" lon="14.767777069746824"><ele>592.0</ele><time>2026-04-18T14:49:52Z</time></trkpt><trkpt lat="37.08054331105134" lon="14.767691032895115"><ele>592.0</ele><time>2026-04-18T14:49:53Z</time></trkpt><trkpt lat="37.08059691473175" lon="14.767592227200419"><ele>592.0</ele><time>2026-04-18T14:49:54Z</time></trkpt><trkpt lat="37.08065571587696" lon="14.767467838174369"><ele>591.5</ele><time>2026-04-18T14:49:55Z</time></trkpt><trkpt lat="37.080723311985516" lon="14.767334852616791"><ele>591.0</ele><time>2026-04-18T14:49:56Z</time></trkpt><trkpt lat="37.08079930127958" lon="14.767192735666697"><ele>590.5</ele><time>2026-04-18T14:49:57Z</time></trkpt><trkpt lat="37.08087294579499" lon="14.767051571214756"><ele>590.0</ele><time>2026-04-18T14:49:58Z</time></trkpt><trkpt lat="37.08094168202943" lon="14.766918195832234"><ele>587.0</ele><time>2026-04-18T14:49:59Z</time></trkpt><trkpt lat="37.0810127446628" lon="14.766798083371214"><ele>584.0</ele><time>2026-04-18T14:50:00Z</time></trkpt><trkpt lat="37.08109345796328" lon="14.76668425610072"><ele>581.0</ele><time>2026-04-18T14:50:01Z</time></trkpt><trkpt lat="37.081185035197294" lon="14.766571594291626"><ele>578.0</ele><time>2026-04-18T14:50:02Z</time></trkpt><trkpt lat="37.08128657619423" lon="14.766466098822237"><ele>578.0</ele><time>2026-04-18T14:50:03Z</time></trkpt><trkpt lat="37.08140383425377" lon="14.766358954385508"><ele>578.0</ele><time>2026-04-18T14:50:04Z</time></trkpt><trkpt lat="37.081533511458616" lon="14.766247484604348"><ele>578.0</ele><time>2026-04-18T14:50:05Z</time></trkpt><trkpt lat="37.08166966146722" lon="14.766132580038404"><ele>575.0</ele><time>2026-04-18T14:50:06Z</time></trkpt><trkpt lat="37.081809029236815" lon="14.766009138447945"><ele>572.0</ele><time>2026-04-18T14:50:07Z</time></trkpt><trkpt lat="37.08194048438626" lon="14.765893661745686"><ele>569.0</ele><time>2026-04-18T14:50:08Z</time></trkpt><trkpt lat="37.08206488170822" lon="14.765783434550258"><ele>569.0</ele><time>2026-04-18T14:50:09Z</time></trkpt><trkpt lat="37.082172767885865" lon="14.76568524769962"><ele>569.0</ele><time>2026-04-18T14:50:10Z</time></trkpt><trkpt lat="37.082272960520626" lon="14.765597412520673"><ele>569.0</ele><time>2026-04-18T14:50:11Z</time></trkpt><trkpt lat="37.082365797414475" lon="14.765504483806563"><ele>569.0</ele><time>2026-04-18T14:50:12Z</time></trkpt><trkpt lat="37.08242815197148" lon="14.765368450009067"><ele>568.0</ele><time>2026-04-18T14:50:13Z</time></trkpt><trkpt lat="37.082491193102925" lon="14.765246835259282"><ele>567.0</ele><time>2026-04-18T14:50:14Z</time></trkpt><trkpt lat="37.08255754548466" lon="14.765106031975257"><ele>566.0</ele><time>2026-04-18T14:50:15Z</time></trkpt><trkpt lat="37.08262479720137" lon="14.76495401364337"><ele>565.0</ele><time>2026-04-18T14:50:16Z</time></trkpt><trkpt lat="37.082689643339634" lon="14.764811182745738"><ele>563.75</ele><time>2026-04-18T14:50:17Z</time></trkpt><trkpt lat="37.082755750256915" lon="14.764666987546201"><ele>562.5</ele><time>2026-04-18T14:50:18Z</time></trkpt><trkpt lat="37.08282013456466" lon="14.764527198756838"><ele>561.25</ele><time>2026-04-18T14:50:19Z</time></trkpt><trkpt lat="37.082883961916195" lon="14.764397311088672"><ele>560.0</ele><time>2026-04-18T14:50:20Z</time></trkpt><trkpt lat="37.08293328508142" lon="14.764261574898715"><ele>560.0</ele><time>2026-04-18T14:50:21Z</time></trkpt><trkpt lat="37.08298598905197" lon="14.764127810193989"><ele>560.0</ele><time>2026-04-18T14:50:22Z</time></trkpt><trkpt lat="37.08301777018182" lon="14.763983480154105"><ele>560.0</ele><time>2026-04-18T14:50:23Z</time></trkpt><trkpt lat="37.08304219260366" lon="14.763824070576199"><ele>560.0</ele><time>2026-04-18T14:50:24Z</time></trkpt><trkpt lat="37.08306259407238" lon="14.763656027645641"><ele>561.0</ele><time>2026-04-18T14:50:25Z</time></trkpt><trkpt lat="37.08308360753885" lon="14.763479447404977"><ele>562.0</ele><time>2026-04-18T14:50:26Z</time></trkpt><trkpt lat="37.08310386770719" lon="14.763307769667302"><ele>563.0</ele><time>2026-04-18T14:50:27Z</time></trkpt><trkpt lat="37.083125988677594" lon="14.763119655321237"><ele>564.0</ele><time>2026-04-18T14:50:28Z</time></trkpt><trkpt lat="37.083138720393755" lon="14.762900723381952"><ele>565.6666666666666</ele><time>2026-04-18T14:50:29Z</time></trkpt><trkpt lat="37.083173146837446" lon="14.7626640842178"><ele>567.3333333333333</ele><time>2026-04-18T14:50:30Z</time></trkpt><trkpt lat="37.08320403790803" lon="14.76242469375042"><ele>569.0</ele><time>2026-04-18T14:50:31Z</time></trkpt><trkpt lat="37.08323751962665" lon="14.762178434620374"><ele>563.0</ele><time>2026-04-18T14:50:32Z</time></trkpt><trkpt lat="37.08326824651563" lon="14.76192830160042"><ele>557.0</ele><time>2026-04-18T14:50:33Z</time></trkpt><trkpt lat="37.083298496126105" lon="14.761684843186424"><ele>551.0</ele><time>2026-04-18T14:50:34Z</time></trkpt><trkpt lat="37.08332798542289" lon="14.761468435149368"><ele>550.0</ele><time>2026-04-18T14:50:35Z</time></trkpt><trkpt lat="37.08335446368821" lon="14.761265380377996"><ele>549.0</ele><time>2026-04-18T14:50:36Z</time></trkpt><trkpt lat="37.08337867567353" lon="14.761067533998881"><ele>548.0</ele><time>2026-04-18T14:50:37Z</time></trkpt><trkpt lat="37.083400697086745" lon="14.760875571174662"><ele>546.0</ele><time>2026-04-18T14:50:38Z</time></trkpt><trkpt lat="37.08342275656675" lon="14.76069370458116"><ele>544.0</ele><time>2026-04-18T14:50:39Z</time></trkpt><trkpt lat="37.083447259419565" lon="14.760529155918526"><ele>542.0</ele><time>2026-04-18T14:50:40Z</time></trkpt><trkpt lat="37.08347698147468" lon="14.760376063175986"><ele>540.0</ele><time>2026-04-18T14:50:41Z</time></trkpt><trkpt lat="37.08351283379866" lon="14.76023347825478"><ele>538.0</ele><time>2026-04-18T14:50:42Z</time></trkpt><trkpt lat="37.083561150108444" lon="14.760097184756379"><ele>536.0</ele><time>2026-04-18T14:50:43Z</time></trkpt><trkpt lat="37.08362118133841" lon="14.759963798639095"><ele>534.0</ele><time>2026-04-18T14:50:44Z</time></trkpt><trkpt lat="37.08369135339237" lon="14.759842622661147"><ele>532.0</ele><time>2026-04-18T14:50:45Z</time></trkpt><trkpt lat="37.08377262980888" lon="14.759722983802554"><ele>532.0</ele><time>2026-04-18T14:50:46Z</time></trkpt><trkpt lat="37.08386171980044" lon="14.759602482627544"><ele>532.0</ele><time>2026-04-18T14:50:47Z</time></trkpt><trkpt lat="37.08395895237134" lon="14.759473128669512"><ele>532.0</ele><time>2026-04-18T14:50:48Z</time></trkpt><trkpt lat="37.08405840473637" lon="14.759339479491453"><ele>532.0</ele><time>2026-04-18T14:50:49Z</time></trkpt><trkpt lat="37.084152392430134" lon="14.759204786868617"><ele>532.25</ele><time>2026-04-18T14:50:50Z</time></trkpt><trkpt lat="37.08424215217851" lon="14.759070695938949"><ele>532.5</ele><time>2026-04-18T14:50:51Z</time></trkpt><trkpt lat="37.084323603615736" lon="14.758938284978317"><ele>532.75</ele><time>2026-04-18T14:50:52Z</time></trkpt><trkpt lat="37.08439727766651" lon="14.758801990751799"><ele>533.0</ele><time>2026-04-18T14:50:53Z</time></trkpt><trkpt lat="37.08446763789466" lon="14.758653308268148"><ele>530.25</ele><time>2026-04-18T14:50:54Z</time></trkpt><trkpt lat="37.08453746986882" lon="14.758497588706085"><ele>527.5</ele><time>2026-04-18T14:50:55Z</time></trkpt><trkpt lat="37.084606889254175" lon="14.758340450849843"><ele>524.75</ele><time>2026-04-18T14:50:56Z</time></trkpt><trkpt lat="37.084677784643006" lon="14.758190006629055"><ele>522.0</ele><time>2026-04-18T14:50:57Z</time></trkpt><trkpt lat="37.08474758008959" lon="14.758053368850115"><ele>522.0</ele><time>2026-04-18T14:50:58Z</time></trkpt><trkpt lat="37.08482986109252" lon="14.757929329625963"><ele>522.0</ele><time>2026-04-18T14:50:59Z</time></trkpt><trkpt lat="37.08492933477329" lon="14.757803963058231"><ele>522.0</ele><time>2026-04-18T14:51:00Z</time></trkpt><trkpt lat="37.08503296127745" lon="14.757684465243756"><ele>522.0</ele><time>2026-04-18T14:51:01Z</time></trkpt><trkpt lat="37.08513544302481" lon="14.757572338246485"><ele>520.0</ele><time>2026-04-18T14:51:02Z</time></trkpt><trkpt lat="37.08524724070506" lon="14.757460997990728"><ele>518.0</ele><time>2026-04-18T14:51:03Z</time></trkpt><trkpt lat="37.08536990564928" lon="14.757351976387634"><ele>516.0</ele><time>2026-04-18T14:51:04Z</time></trkpt><trkpt lat="37.08549299000425" lon="14.757268487530373"><ele>514.0</ele><time>2026-04-18T14:51:05Z</time></trkpt><trkpt lat="37.08562020818829" lon="14.757199202339422"><ele>514.0</ele><time>2026-04-18T14:51:06Z</time></trkpt><trkpt lat="37.085740528872634" lon="14.757143108255148"><ele>514.0</ele><time>2026-04-18T14:51:07Z</time></trkpt><trkpt lat="37.08585658433759" lon="14.75710631135957"><ele>514.0</ele><time>2026-04-18T14:51:08Z</time></trkpt><trkpt lat="37.08596414691931" lon="14.757095939375247"><ele>514.0</ele><time>2026-04-18T14:51:09Z</time></trkpt><trkpt lat="37.08607186263749" lon="14.757108025483765"><ele>518.25</ele><time>2026-04-18T14:51:10Z</time></trkpt><trkpt lat="37.086180383337116" lon="14.757140912885443"><ele>522.5</ele><time>2026-04-18T14:51:11Z</time></trkpt><trkpt lat="37.08630221337834" lon="14.757192574510924"><ele>526.75</ele><time>2026-04-18T14:51:12Z</time></trkpt><trkpt lat="37.086440199630474" lon="14.757252973467597"><ele>531.0</ele><time>2026-04-18T14:51:13Z</time></trkpt><trkpt lat="37.086585915461534" lon="14.757311277044774"><ele>529.25</ele><time>2026-04-18T14:51:14Z</time></trkpt><trkpt lat="37.08671851949746" lon="14.75736006541693"><ele>527.5</ele><time>2026-04-18T14:51:15Z</time></trkpt><trkpt lat="37.08684179143821" lon="14.7574011721428"><ele>525.75</ele><time>2026-04-18T14:51:16Z</time></trkpt><trkpt lat="37.0869546791622" lon="14.757422103207967"><ele>524.0</ele><time>2026-04-18T14:51:17Z</time></trkpt><trkpt lat="37.087067024240014" lon="14.757422137646119"><ele>524.0</ele><time>2026-04-18T14:51:18Z</time></trkpt><trkpt lat="37.087171503184265" lon="14.7574048172672"><ele>524.0</ele><time>2026-04-18T14:51:19Z</time></trkpt><trkpt lat="37.08727354172503" lon="14.757373973520199"><ele>524.0</ele><time>2026-04-18T14:51:20Z</time></trkpt><trkpt lat="37.08738452307435" lon="14.757349817321595"><ele>524.0</ele><time>2026-04-18T14:51:21Z</time></trkpt><trkpt lat="37.087499062532366" lon="14.757339565945484"><ele>524.0</ele><time>2026-04-18T14:51:22Z</time></trkpt><trkpt lat="37.087612594759996" lon="14.757345836435189"><ele>524.5</ele><time>2026-04-18T14:51:23Z</time></trkpt><trkpt lat="37.08773039268203" lon="14.757373219223242"><ele>525.0</ele><time>2026-04-18T14:51:24Z</time></trkpt><trkpt lat="37.08785170000927" lon="14.75741939762085"><ele>525.5</ele><time>2026-04-18T14:51:25Z</time></trkpt><trkpt lat="37.087972318222704" lon="14.757476920562244"><ele>526.0</ele><time>2026-04-18T14:51:26Z</time></trkpt><trkpt lat="37.08808710202389" lon="14.75752702271691"><ele>526.0</ele><time>2026-04-18T14:51:27Z</time></trkpt><trkpt lat="37.08819731483227" lon="14.757567781830529"><ele>526.0</ele><time>2026-04-18T14:51:28Z</time></trkpt><trkpt lat="37.08830706109051" lon="14.75759055750035"><ele>526.0</ele><time>2026-04-18T14:51:29Z</time></trkpt><trkpt lat="37.08842174479271" lon="14.757591288548005"><ele>526.0</ele><time>2026-04-18T14:51:30Z</time></trkpt><trkpt lat="37.08852883230829" lon="14.757569750825729"><ele>526.0</ele><time>2026-04-18T14:51:31Z</time></trkpt><trkpt lat="37.08862987705484" lon="14.757525581963298"><ele>524.6</ele><time>2026-04-18T14:51:32Z</time></trkpt><trkpt lat="37.08872896265841" lon="14.7574706440571"><ele>523.2</ele><time>2026-04-18T14:51:33Z</time></trkpt><trkpt lat="37.08883254282672" lon="14.757410236476819"><ele>521.8</ele><time>2026-04-18T14:51:34Z</time></trkpt><trkpt lat="37.088926270093125" lon="14.757361663355493"><ele>520.4</ele><time>2026-04-18T14:51:35Z</time></trkpt><trkpt lat="37.08901307155407" lon="14.75731844092221"><ele>519.0</ele><time>2026-04-18T14:51:36Z</time></trkpt><trkpt lat="37.08908673380705" lon="14.757267289834338"><ele>521.4</ele><time>2026-04-18T14:51:37Z</time></trkpt><trkpt lat="37.08916044975467" lon="14.75721017302886"><ele>523.8</ele><time>2026-04-18T14:51:38Z</time></trkpt><trkpt lat="37.08923380993143" lon="14.757142144310084"><ele>526.2</ele><time>2026-04-18T14:51:39Z</time></trkpt><trkpt lat="37.089310959056824" lon="14.757099756123353"><ele>528.6</ele><time>2026-04-18T14:51:40Z</time></trkpt><trkpt lat="37.089380250563764" lon="14.75699646658816"><ele>531.0</ele><time>2026-04-18T14:51:41Z</time></trkpt><trkpt lat="37.089452962805915" lon="14.756913649720493"><ele>525.3333333333334</ele><time>2026-04-18T14:51:42Z</time></trkpt><trkpt lat="37.08951461030938" lon="14.756832241645848"><ele>519.6666666666666</ele><time>2026-04-18T14:51:43Z</time></trkpt><trkpt lat="37.08962378786402" lon="14.756742199233107"><ele>514.0</ele><time>2026-04-18T14:51:45Z</time></trkpt><trkpt lat="37.089689785996256" lon="14.75667053170549"><ele>508.3333333333333</ele><time>2026-04-18T14:51:46Z</time></trkpt><trkpt lat="37.08976401001127" lon="14.756654911034303"><ele>502.66666666666663</ele><time>2026-04-18T14:51:47Z</time></trkpt><trkpt lat="37.08982530047325" lon="14.75663291705137"><ele>497.0</ele><time>2026-04-18T14:51:48Z</time></trkpt><trkpt lat="37.08988166752109" lon="14.75659474390739"><ele>500.75</ele><time>2026-04-18T14:51:49Z</time></trkpt><trkpt lat="37.09001052140631" lon="14.75656449520292"><ele>504.5</ele><time>2026-04-18T14:51:51Z</time></trkpt><trkpt lat="37.0901208631384" lon="14.756547151354056"><ele>508.25</ele><time>2026-04-18T14:51:53Z</time></trkpt><trkpt lat="37.09026402178927" lon="14.756533366492256"><ele>512.0</ele><time>2026-04-18T14:51:55Z</time></trkpt><trkpt lat="37.090321821496325" lon="14.756570646294614"><ele>512.0</ele><time>2026-04-18T14:51:56Z</time></trkpt><trkpt lat="37.09042981375185" lon="14.756617274688798"><ele>512.0</ele><time>2026-04-18T14:51:58Z</time></trkpt><trkpt lat="37.09049429858013" lon="14.75667086744371"><ele>512.0</ele><time>2026-04-18T14:51:59Z</time></trkpt><trkpt lat="37.090564984244914" lon="14.756771027583616"><ele>512.0</ele><time>2026-04-18T14:52:01Z</time></trkpt><trkpt lat="37.090607432730025" lon="14.756891845706306"><ele>512.0</ele><time>2026-04-18T14:52:03Z</time></trkpt><trkpt lat="37.09064867455235" lon="14.756974038929645"><ele>510.16666666666663</ele><time>2026-04-18T14:52:05Z</time></trkpt><trkpt lat="37.090733282653524" lon="14.756988883414373"><ele>508.3333333333333</ele><time>2026-04-18T14:52:07Z</time></trkpt><trkpt lat="37.090780026201855" lon="14.756899208304402"><ele>506.5</ele><time>2026-04-18T14:52:08Z</time></trkpt><trkpt lat="37.09076638632574" lon="14.756806575506738"><ele>504.66666666666663</ele><time>2026-04-18T14:52:09Z</time></trkpt><trkpt lat="37.09082909695706" lon="14.75670751504346"><ele>502.8333333333333</ele><time>2026-04-18T14:52:11Z</time></trkpt><trkpt lat="37.090906308344955" lon="14.75662862177655"><ele>501.0</ele><time>2026-04-18T14:52:13Z</time></trkpt><trkpt lat="37.09099238625717" lon="14.756615411128731"><ele>501.0</ele><time>2026-04-18T14:52:15Z</time></trkpt><trkpt lat="37.09112119953985" lon="14.756668571269058"><ele>501.0</ele><time>2026-04-18T14:52:18Z</time></trkpt><trkpt lat="37.09119533207559" lon="14.756697705572321"><ele>501.0</ele><time>2026-04-18T14:52:19Z</time></trkpt><trkpt lat="37.09127378446394" lon="14.756726631796596"><ele>501.0</ele><time>2026-04-18T14:52:20Z</time></trkpt><trkpt lat="37.091357456900546" lon="14.756742475824675"><ele>501.0</ele><time>2026-04-18T14:52:21Z</time></trkpt><trkpt lat="37.09148354582906" lon="14.756765808395967"><ele>501.75</ele><time>2026-04-18T14:52:22Z</time></trkpt><trkpt lat="37.09162312200598" lon="14.756782825506232"><ele>502.5</ele><time>2026-04-18T14:52:23Z</time></trkpt><trkpt lat="37.09172545850499" lon="14.7567864475563"><ele>503.25</ele><time>2026-04-18T14:52:24Z</time></trkpt><trkpt lat="37.0918473925205" lon="14.75679257205791"><ele>504.0</ele><time>2026-04-18T14:52:25Z</time></trkpt><trkpt lat="37.091947286289994" lon="14.756800755627339"><ele>504.0</ele><time>2026-04-18T14:52:28Z</time></trkpt><trkpt lat="37.092020211411096" lon="14.756807514529301"><ele>504.0</ele><time>2026-04-18T14:52:29Z</time></trkpt><trkpt lat="37.09209649749366" lon="14.756814693823502"><ele>504.0</ele><time>2026-04-18T14:52:30Z</time></trkpt><trkpt lat="37.092179660100825" lon="14.756818924245293"><ele>504.0</ele><time>2026-04-18T14:52:31Z</time></trkpt><trkpt lat="37.09225495720903" lon="14.756815518951466"><ele>504.0</ele><time>2026-04-18T14:52:32Z</time></trkpt><trkpt lat="37.09233044841945" lon="14.756795256699665"><ele>504.0</ele><time>2026-04-18T14:52:33Z</time></trkpt><trkpt lat="37.09240595698786" lon="14.75678118771271"><ele>502.8333333333333</ele><time>2026-04-18T14:52:34Z</time></trkpt><trkpt lat="37.092473736176814" lon="14.756766588941876"><ele>501.66666666666663</ele><time>2026-04-18T14:52:35Z</time></trkpt><trkpt lat="37.092549181139816" lon="14.756760453094296"><ele>500.5</ele><time>2026-04-18T14:52:36Z</time></trkpt><trkpt lat="37.09262292454352" lon="14.75674829727057"><ele>499.3333333333333</ele><time>2026-04-18T14:52:37Z</time></trkpt><trkpt lat="37.09270468019069" lon="14.756748322036588"><ele>498.16666666666663</ele><time>2026-04-18T14:52:38Z</time></trkpt><trkpt lat="37.09279486696269" lon="14.75672590698854"><ele>497.0</ele><time>2026-04-18T14:52:39Z</time></trkpt><trkpt lat="37.09287719364519" lon="14.75675450666833"><ele>496.99999999999994</ele><time>2026-04-18T14:52:40Z</time></trkpt><trkpt lat="37.09295448915125" lon="14.756738693516002"><ele>497.0</ele><time>2026-04-18T14:52:41Z</time></trkpt><trkpt lat="37.09304084448878" lon="14.756732083684245"><ele>497.0</ele><time>2026-04-18T14:52:42Z</time></trkpt><trkpt lat="37.093129985609664" lon="14.756710544731584"><ele>497.0</ele><time>2026-04-18T14:52:43Z</time></trkpt><trkpt lat="37.09319776978456" lon="14.756687174214818"><ele>496.99999999999994</ele><time>2026-04-18T14:52:44Z</time></trkpt><trkpt lat="37.09329410475204" lon="14.756663897642643"><ele>497.0</ele><time>2026-04-18T14:52:46Z</time></trkpt><trkpt lat="37.093388964089975" lon="14.756661463590568"><ele>496.40000000000003</ele><time>2026-04-18T14:52:48Z</time></trkpt><trkpt lat="37.09348994002511" lon="14.756648207146299"><ele>495.80000000000007</ele><time>2026-04-18T14:52:50Z</time></trkpt><trkpt lat="37.093608141556466" lon="14.756643481899065"><ele>495.2</ele><time>2026-04-18T14:52:52Z</time></trkpt><trkpt lat="37.09367254367672" lon="14.7566353110772"><ele>494.6</ele><time>2026-04-18T14:52:53Z</time></trkpt><trkpt lat="37.09378893262837" lon="14.756622293333566"><ele>494.0</ele><time>2026-04-18T14:52:55Z</time></trkpt><trkpt lat="37.09389390126648" lon="14.756624676027252"><ele>494.0</ele><time>2026-04-18T14:52:57Z</time></trkpt><trkpt lat="37.0940090566201" lon="14.756624524691928"><ele>494.0</ele><time>2026-04-18T14:52:59Z</time></trkpt><trkpt lat="37.09412140503172" lon="14.7566160452562"><ele>494.0</ele><time>2026-04-18T14:53:01Z</time></trkpt><trkpt lat="37.09423165159487" lon="14.756641578379048"><ele>494.0</ele><time>2026-04-18T14:53:03Z</time></trkpt><trkpt lat="37.09429748662781" lon="14.756646708633337"><ele>494.0</ele><time>2026-04-18T14:53:04Z</time></trkpt><trkpt lat="37.094411856700866" lon="14.75665713870188"><ele>493.2</ele><time>2026-04-18T14:53:06Z</time></trkpt><trkpt lat="37.09451199467629" lon="14.756663531785593"><ele>492.4</ele><time>2026-04-18T14:53:08Z</time></trkpt><trkpt lat="37.094580520548746" lon="14.75667135564478"><ele>491.6</ele><time>2026-04-18T14:53:09Z</time></trkpt><trkpt lat="37.09470662220069" lon="14.75666567043736"><ele>490.8</ele><time>2026-04-18T14:53:11Z</time></trkpt><trkpt lat="37.09481845250802" lon="14.756685288634761"><ele>490.0</ele><time>2026-04-18T14:53:13Z</time></trkpt><trkpt lat="37.09490683075561" lon="14.75668083436515"><ele>487.8</ele><time>2026-04-18T14:53:15Z</time></trkpt><trkpt lat="37.09500062606922" lon="14.75668822321461"><ele>485.6</ele><time>2026-04-18T14:53:17Z</time></trkpt><trkpt lat="37.095102344739054" lon="14.756659536380159"><ele>483.4</ele><time>2026-04-18T14:53:19Z</time></trkpt><trkpt lat="37.09520497468709" lon="14.756606404193143"><ele>481.2</ele><time>2026-04-18T14:53:21Z</time></trkpt><trkpt lat="37.09532101570189" lon="14.75652950806484"><ele>479.0</ele><time>2026-04-18T14:53:23Z</time></trkpt><trkpt lat="37.095394452259505" lon="14.756477108944903"><ele>478.99999999999994</ele><time>2026-04-18T14:53:24Z</time></trkpt><trkpt lat="37.09546918141234" lon="14.75643142088555"><ele>479.0</ele><time>2026-04-18T14:53:25Z</time></trkpt><trkpt lat="37.09552961778747" lon="14.756383305182801"><ele>479.0</ele><time>2026-04-18T14:53:26Z</time></trkpt><trkpt lat="37.09558077212894" lon="14.756327768814533"><ele>479.0</ele><time>2026-04-18T14:53:27Z</time></trkpt><trkpt lat="37.09561740721329" lon="14.756262771359557"><ele>478.99999999999994</ele><time>2026-04-18T14:53:28Z</time></trkpt><trkpt lat="37.095693285678834" lon="14.75614883781638"><ele>479.0</ele><time>2026-04-18T14:53:30Z</time></trkpt><trkpt lat="37.09575980025989" lon="14.756030727816034"><ele>477.8333333333333</ele><time>2026-04-18T14:53:31Z</time></trkpt><trkpt lat="37.09579694104513" lon="14.755954439306034"><ele>476.66666666666663</ele><time>2026-04-18T14:53:32Z</time></trkpt><trkpt lat="37.095834943755975" lon="14.755886297059384"><ele>475.5</ele><time>2026-04-18T14:53:33Z</time></trkpt><trkpt lat="37.095883604736635" lon="14.755792939454787"><ele>474.33333333333337</ele><time>2026-04-18T14:53:34Z</time></trkpt><trkpt lat="37.09593219247202" lon="14.755681971167004"><ele>473.1666666666667</ele><time>2026-04-18T14:53:35Z</time></trkpt><trkpt lat="37.09598194873866" lon="14.755565555826914"><ele>472.0</ele><time>2026-04-18T14:53:36Z</time></trkpt><trkpt lat="37.09604953996765" lon="14.755432407066976"><ele>472.0</ele><time>2026-04-18T14:53:37Z</time></trkpt><trkpt lat="37.09610121839615" lon="14.755318272212604"><ele>472.00000000000006</ele><time>2026-04-18T14:53:38Z</time></trkpt><trkpt lat="37.096150440810796" lon="14.755227375658496"><ele>472.00000000000006</ele><time>2026-04-18T14:53:39Z</time></trkpt><trkpt lat="37.09624724802861" lon="14.755135096918707"><ele>472.0</ele><time>2026-04-18T14:53:41Z</time></trkpt><trkpt lat="37.09631843557938" lon="14.755131406567923"><ele>472.0</ele><time>2026-04-18T14:53:42Z</time></trkpt><trkpt lat="37.09641539217528" lon="14.755108753832873"><ele>472.33333333333337</ele><time>2026-04-18T14:53:43Z</time></trkpt><trkpt lat="37.09650082490863" lon="14.755055499239976"><ele>472.6666666666667</ele><time>2026-04-18T14:53:44Z</time></trkpt><trkpt lat="37.09656984286652" lon="14.754994261688354"><ele>473.0</ele><time>2026-04-18T14:53:46Z</time></trkpt><trkpt lat="37.09659785932185" lon="14.754910986913378"><ele>473.33333333333337</ele><time>2026-04-18T14:53:49Z</time></trkpt><trkpt lat="37.09662678572707" lon="14.754818625680448"><ele>473.6666666666667</ele><time>2026-04-18T14:53:51Z</time></trkpt><trkpt lat="37.09667739188891" lon="14.754703626163947"><ele>474.0</ele><time>2026-04-18T14:53:53Z</time></trkpt><trkpt lat="37.096732313140855" lon="14.754597171548065"><ele>473.2</ele><time>2026-04-18T14:53:55Z</time></trkpt><trkpt lat="37.0968136473752" lon="14.754506378988866"><ele>472.4</ele><time>2026-04-18T14:53:58Z</time></trkpt><trkpt lat="37.096902251755424" lon="14.754459238534954"><ele>471.6</ele><time>2026-04-18T14:53:59Z</time></trkpt><trkpt lat="37.09699080445453" lon="14.754391948856071"><ele>470.8</ele><time>2026-04-18T14:54:00Z</time></trkpt><trkpt lat="37.09711066255321" lon="14.75431747984366"><ele>470.0</ele><time>2026-04-18T14:54:01Z</time></trkpt><trkpt lat="37.09724756093345" lon="14.754217379755337"><ele>470.25</ele><time>2026-04-18T14:54:02Z</time></trkpt><trkpt lat="37.09736624640001" lon="14.754142839799485"><ele>470.5</ele><time>2026-04-18T14:54:03Z</time></trkpt><trkpt lat="37.09746398662711" lon="14.754081090595845"><ele>470.75</ele><time>2026-04-18T14:54:04Z</time></trkpt><trkpt lat="37.097567652273916" lon="14.754022008827752"><ele>471.0</ele><time>2026-04-18T14:54:05Z</time></trkpt><trkpt lat="37.097658140127656" lon="14.753982274485942"><ele>471.0</ele><time>2026-04-18T14:54:06Z</time></trkpt><trkpt lat="37.09776589010175" lon="14.753950640924115"><ele>471.0</ele><time>2026-04-18T14:54:07Z</time></trkpt><trkpt lat="37.09790845788073" lon="14.753875524826887"><ele>471.0</ele><time>2026-04-18T14:54:08Z</time></trkpt><trkpt lat="37.09804142351352" lon="14.7538123926973"><ele>471.0</ele><time>2026-04-18T14:54:09Z</time></trkpt><trkpt lat="37.098142372433756" lon="14.753774120659193"><ele>471.0</ele><time>2026-04-18T14:54:10Z</time></trkpt><trkpt lat="37.09820415906615" lon="14.753727713667047"><ele>471.0</ele><time>2026-04-18T14:54:11Z</time></trkpt><trkpt lat="37.098256694569635" lon="14.7536759344256"><ele>471.0</ele><time>2026-04-18T14:54:12Z</time></trkpt><trkpt lat="37.098396646323174" lon="14.753510950652133"><ele>471.0</ele><time>2026-04-18T14:54:14Z</time></trkpt><trkpt lat="37.09848251645352" lon="14.753435411591926"><ele>471.0</ele><time>2026-04-18T14:54:15Z</time></trkpt><trkpt lat="37.098537842449446" lon="14.753378079560834"><ele>470.4</ele><time>2026-04-18T14:54:16Z</time></trkpt><trkpt lat="37.09860222134318" lon="14.753289336619833"><ele>469.8</ele><time>2026-04-18T14:54:17Z</time></trkpt><trkpt lat="37.098651968665294" lon="14.75318396178925"><ele>469.19999999999993</ele><time>2026-04-18T14:54:18Z</time></trkpt><trkpt lat="37.0986791853625" lon="14.753065534977138"><ele>468.59999999999997</ele><time>2026-04-18T14:54:19Z</time></trkpt><trkpt lat="37.09872266490763" lon="14.752936780952876"><ele>468.0</ele><time>2026-04-18T14:54:20Z</time></trkpt><trkpt lat="37.098802420953966" lon="14.752843029901609"><ele>467.25</ele><time>2026-04-18T14:54:21Z</time></trkpt><trkpt lat="37.09885562386572" lon="14.752690133679726"><ele>466.5</ele><time>2026-04-18T14:54:22Z</time></trkpt><trkpt lat="37.098940547405746" lon="14.752532751144205"><ele>465.75</ele><time>2026-04-18T14:54:23Z</time></trkpt><trkpt lat="37.099021292912454" lon="14.752405600051729"><ele>465.0</ele><time>2026-04-18T14:54:24Z</time></trkpt><trkpt lat="37.09909656912877" lon="14.752298754963492"><ele>466.0</ele><time>2026-04-18T14:54:25Z</time></trkpt><trkpt lat="37.099138383984254" lon="14.752157473997038"><ele>467.0</ele><time>2026-04-18T14:54:26Z</time></trkpt><trkpt lat="37.09916927400707" lon="14.752034374819296"><ele>468.0</ele><time>2026-04-18T14:54:27Z</time></trkpt><trkpt lat="37.09920236962777" lon="14.751939488308652"><ele>469.0</ele><time>2026-04-18T14:54:28Z</time></trkpt><trkpt lat="37.099231355807035" lon="14.751860288443591"><ele>470.0</ele><time>2026-04-18T14:54:29Z</time></trkpt><trkpt lat="37.09928942924183" lon="14.751742808694946"><ele>470.0</ele><time>2026-04-18T14:54:31Z</time></trkpt><trkpt lat="37.099317147537235" lon="14.751625937340103"><ele>470.0</ele><time>2026-04-18T14:54:32Z</time></trkpt><trkpt lat="37.09931740335831" lon="14.751483452448095"><ele>470.0</ele><time>2026-04-18T14:54:33Z</time></trkpt><trkpt lat="37.0993502811948" lon="14.751305494308262"><ele>470.0</ele><time>2026-04-18T14:54:34Z</time></trkpt><trkpt lat="37.09937931132998" lon="14.75116053580376"><ele>468.4</ele><time>2026-04-18T14:54:35Z</time></trkpt><trkpt lat="37.09941405515824" lon="14.751030302980778"><ele>466.8</ele><time>2026-04-18T14:54:36Z</time></trkpt><trkpt lat="37.099445735168906" lon="14.750910173245373"><ele>465.20000000000005</ele><time>2026-04-18T14:54:37Z</time></trkpt><trkpt lat="37.09947931912997" lon="14.750794765705582"><ele>463.6</ele><time>2026-04-18T14:54:38Z</time></trkpt><trkpt lat="37.09951710048905" lon="14.750684935550217"><ele>462.0</ele><time>2026-04-18T14:54:39Z</time></trkpt><trkpt lat="37.09955446559509" lon="14.750580402407612"><ele>462.0</ele><time>2026-04-18T14:54:40Z</time></trkpt><trkpt lat="37.09959901052635" lon="14.750480932026424"><ele>462.0</ele><time>2026-04-18T14:54:41Z</time></trkpt><trkpt lat="37.09964347509751" lon="14.750392101124282"><ele>462.0</ele><time>2026-04-18T14:54:42Z</time></trkpt><trkpt lat="37.09968658036659" lon="14.750305195561674"><ele>462.0</ele><time>2026-04-18T14:54:43Z</time></trkpt><trkpt lat="37.09972780062696" lon="14.75022755798871"><ele>462.0</ele><time>2026-04-18T14:54:44Z</time></trkpt><trkpt lat="37.09977293433282" lon="14.750140835018506"><ele>462.0</ele><time>2026-04-18T14:54:45Z</time></trkpt><trkpt lat="37.09981708637183" lon="14.75004995851734"><ele>461.8333333333333</ele><time>2026-04-18T14:54:46Z</time></trkpt><trkpt lat="37.09986098812826" lon="14.749956778551683"><ele>461.66666666666663</ele><time>2026-04-18T14:54:47Z</time></trkpt><trkpt lat="37.09990859710986" lon="14.749857621392502"><ele>461.5</ele><time>2026-04-18T14:54:48Z</time></trkpt><trkpt lat="37.09995309580136" lon="14.749755496693787"><ele>461.3333333333333</ele><time>2026-04-18T14:54:49Z</time></trkpt><trkpt lat="37.09999255832163" lon="14.749662306466329"><ele>461.16666666666663</ele><time>2026-04-18T14:54:50Z</time></trkpt><trkpt lat="37.10002418876547" lon="14.749568116837983"><ele>461.0</ele><time>2026-04-18T14:54:51Z</time></trkpt><trkpt lat="37.10006456653429" lon="14.749489111955034"><ele>461.28571428571433</ele><time>2026-04-18T14:54:52Z</time></trkpt><trkpt lat="37.10009254694314" lon="14.749408909615369"><ele>461.5714285714286</ele><time>2026-04-18T14:54:53Z</time></trkpt><trkpt lat="37.10013374597558" lon="14.749288640780348"><ele>461.8571428571429</ele><time>2026-04-18T14:54:55Z</time></trkpt><trkpt lat="37.10015952940317" lon="14.749213574255897"><ele>462.1428571428571</ele><time>2026-04-18T14:54:57Z</time></trkpt><trkpt lat="37.10019020027479" lon="14.749121601034542"><ele>462.4285714285714</ele><time>2026-04-18T14:55:01Z</time></trkpt><trkpt lat="37.10020410580667" lon="14.74904160569712"><ele>462.71428571428567</ele><time>2026-04-18T14:55:17Z</time></trkpt><trkpt lat="37.10020952794908" lon="14.748960218908673"><ele>463.0</ele><time>2026-04-18T14:55:46Z</time></trkpt><trkpt lat="37.10020743975497" lon="14.748866963186403"><ele>463.0</ele><time>2026-04-18T14:55:48Z</time></trkpt><trkpt lat="37.10019303710296" lon="14.748789484415383"><ele>462.99999999999994</ele><time>2026-04-18T14:55:49Z</time></trkpt><trkpt lat="37.10016429144293" lon="14.748692135413261"><ele>462.99999999999994</ele><time>2026-04-18T14:55:50Z</time></trkpt><trkpt lat="37.10012800566977" lon="14.748579323964973"><ele>463.0</ele><time>2026-04-18T14:55:51Z</time></trkpt><trkpt lat="37.10008175709173" lon="14.748455676648001"><ele>463.0</ele><time>2026-04-18T14:55:52Z</time></trkpt><trkpt lat="37.100031737774955" lon="14.74832071647718"><ele>463.75</ele><time>2026-04-18T14:55:53Z</time></trkpt><trkpt lat="37.0999796832455" lon="14.74817829484193"><ele>464.5</ele><time>2026-04-18T14:55:54Z</time></trkpt><trkpt lat="37.09992837077071" lon="14.748041818704927"><ele>465.25</ele><time>2026-04-18T14:55:55Z</time></trkpt><trkpt lat="37.09987472501737" lon="14.747902538306146"><ele>466.0</ele><time>2026-04-18T14:55:56Z</time></trkpt><trkpt lat="37.09981940045841" lon="14.747756668857319"><ele>468.25</ele><time>2026-04-18T14:55:57Z</time></trkpt><trkpt lat="37.09976439914351" lon="14.747616106798255"><ele>470.5</ele><time>2026-04-18T14:55:58Z</time></trkpt><trkpt lat="37.09971972793021" lon="14.747491062166334"><ele>472.75</ele><time>2026-04-18T14:55:59Z</time></trkpt><trkpt lat="37.099669465129075" lon="14.747343590728315"><ele>475.0</ele><time>2026-04-18T14:56:00Z</time></trkpt><trkpt lat="37.09961611709885" lon="14.747166281342285"><ele>475.0</ele><time>2026-04-18T14:56:01Z</time></trkpt><trkpt lat="37.09955616704258" lon="14.74695854557124"><ele>475.0</ele><time>2026-04-18T14:56:02Z</time></trkpt><trkpt lat="37.09951240024429" lon="14.746757970272304"><ele>475.0</ele><time>2026-04-18T14:56:03Z</time></trkpt><trkpt lat="37.09948495638871" lon="14.746579435532203"><ele>476.75</ele><time>2026-04-18T14:56:04Z</time></trkpt><trkpt lat="37.099466766246636" lon="14.746409262336016"><ele>478.5</ele><time>2026-04-18T14:56:05Z</time></trkpt><trkpt lat="37.09948376016418" lon="14.746256773339777"><ele>480.25</ele><time>2026-04-18T14:56:06Z</time></trkpt><trkpt lat="37.09950456305693" lon="14.74610635315218"><ele>482.0</ele><time>2026-04-18T14:56:07Z</time></trkpt><trkpt lat="37.09952895430212" lon="14.745955442072075"><ele>484.25</ele><time>2026-04-18T14:56:08Z</time></trkpt><trkpt lat="37.09954914369464" lon="14.745804221470301"><ele>486.5</ele><time>2026-04-18T14:56:09Z</time></trkpt><trkpt lat="37.09959537394324" lon="14.745640554881463"><ele>488.75</ele><time>2026-04-18T14:56:10Z</time></trkpt><trkpt lat="37.09964677791568" lon="14.745462993281944"><ele>491.0</ele><time>2026-04-18T14:56:11Z</time></trkpt><trkpt lat="37.09968068597243" lon="14.745295176333238"><ele>492.0</ele><time>2026-04-18T14:56:12Z</time></trkpt><trkpt lat="37.09971373623924" lon="14.745119537907591"><ele>493.0</ele><time>2026-04-18T14:56:13Z</time></trkpt><trkpt lat="37.099751832299624" lon="14.744939584694835"><ele>494.0</ele><time>2026-04-18T14:56:14Z</time></trkpt><trkpt lat="37.09978983480739" lon="14.744788805174004"><ele>495.0</ele><time>2026-04-18T14:56:15Z</time></trkpt><trkpt lat="37.09983129354484" lon="14.744640935828041"><ele>495.0</ele><time>2026-04-18T14:56:16Z</time></trkpt><trkpt lat="37.09986450743767" lon="14.744499425960019"><ele>495.0</ele><time>2026-04-18T14:56:17Z</time></trkpt><trkpt lat="37.099901404351556" lon="14.744362791449241"><ele>495.0</ele><time>2026-04-18T14:56:18Z</time></trkpt><trkpt lat="37.0999387720673" lon="14.744212251273257"><ele>495.0</ele><time>2026-04-18T14:56:19Z</time></trkpt><trkpt lat="37.09997134932668" lon="14.744062467497123"><ele>483.5</ele><time>2026-04-18T14:56:20Z</time></trkpt><trkpt lat="37.09999408548358" lon="14.743909400932782"><ele>472.0</ele><time>2026-04-18T14:56:21Z</time></trkpt><trkpt lat="37.10000753669337" lon="14.743761209523576"><ele>460.5</ele><time>2026-04-18T14:56:22Z</time></trkpt><trkpt lat="37.10001531200641" lon="14.74361003437121"><ele>449.0</ele><time>2026-04-18T14:56:23Z</time></trkpt><trkpt lat="37.100024534852686" lon="14.743451064735716"><ele>448.5</ele><time>2026-04-18T14:56:24Z</time></trkpt><trkpt lat="37.10003364092369" lon="14.743292883187983"><ele>448.0</ele><time>2026-04-18T14:56:25Z</time></trkpt><trkpt lat="37.100035079744906" lon="14.743135365040976"><ele>447.5</ele><time>2026-04-18T14:56:26Z</time></trkpt><trkpt lat="37.100031525504" lon="14.742995713894476"><ele>447.0</ele><time>2026-04-18T14:56:27Z</time></trkpt><trkpt lat="37.1000229026191" lon="14.742865149020012"><ele>447.0</ele><time>2026-04-18T14:56:28Z</time></trkpt><trkpt lat="37.10000524665393" lon="14.74273676523022"><ele>447.00000000000006</ele><time>2026-04-18T14:56:29Z</time></trkpt><trkpt lat="37.09997869657358" lon="14.742625814736193"><ele>447.00000000000006</ele><time>2026-04-18T14:56:30Z</time></trkpt><trkpt lat="37.099949794823196" lon="14.742543773517356"><ele>447.0</ele><time>2026-04-18T14:56:31Z</time></trkpt><trkpt lat="37.0998869939143" lon="14.742406882897205"><ele>447.0</ele><time>2026-04-18T14:56:33Z</time></trkpt><trkpt lat="37.09985142727449" lon="14.74233319786447"><ele>450.40000000000003</ele><time>2026-04-18T14:56:34Z</time></trkpt><trkpt lat="37.09981046392337" lon="14.742252986531517"><ele>453.80000000000007</ele><time>2026-04-18T14:56:35Z</time></trkpt><trkpt lat="37.09977168181469" lon="14.742149262127699"><ele>457.2</ele><time>2026-04-18T14:56:36Z</time></trkpt><trkpt lat="37.099718412017886" lon="14.742047498641309"><ele>460.6</ele><time>2026-04-18T14:56:37Z</time></trkpt><trkpt lat="37.09966000705049" lon="14.741934137787256"><ele>464.0</ele><time>2026-04-18T14:56:38Z</time></trkpt><trkpt lat="37.09960381341472" lon="14.741804084962917"><ele>464.0</ele><time>2026-04-18T14:56:39Z</time></trkpt><trkpt lat="37.09952733365915" lon="14.74168083151008"><ele>464.0</ele><time>2026-04-18T14:56:40Z</time></trkpt><trkpt lat="37.099447667654495" lon="14.741559337001668"><ele>464.0</ele><time>2026-04-18T14:56:41Z</time></trkpt><trkpt lat="37.09937587094093" lon="14.741441078234159"><ele>464.0</ele><time>2026-04-18T14:56:42Z</time></trkpt><trkpt lat="37.099307555349846" lon="14.741328737744027"><ele>463.99999999999994</ele><time>2026-04-18T14:56:43Z</time></trkpt><trkpt lat="37.099242711844155" lon="14.741222106904672"><ele>464.0</ele><time>2026-04-18T14:56:44Z</time></trkpt><trkpt lat="37.0991621157544" lon="14.741152989133095"><ele>464.0</ele><time>2026-04-18T14:56:45Z</time></trkpt><trkpt lat="37.099106158032825" lon="14.74107859951609"><ele>464.0</ele><time>2026-04-18T14:56:46Z</time></trkpt><trkpt lat="37.09905076742166" lon="14.741010686889565"><ele>463.99999999999994</ele><time>2026-04-18T14:56:47Z</time></trkpt><trkpt lat="37.09898937773675" lon="14.740937367859312"><ele>464.0</ele><time>2026-04-18T14:56:48Z</time></trkpt><trkpt lat="37.098932100735325" lon="14.740861703992666"><ele>468.2</ele><time>2026-04-18T14:56:49Z</time></trkpt><trkpt lat="37.09888155487922" lon="14.74078893808915"><ele>472.4</ele><time>2026-04-18T14:56:50Z</time></trkpt><trkpt lat="37.09882726187194" lon="14.740699252902498"><ele>476.6</ele><time>2026-04-18T14:56:51Z</time></trkpt><trkpt lat="37.098767139195814" lon="14.740585446979637"><ele>480.8</ele><time>2026-04-18T14:56:52Z</time></trkpt><trkpt lat="37.09871831780718" lon="14.740462062584369"><ele>485.0</ele><time>2026-04-18T14:56:53Z</time></trkpt><trkpt lat="37.09868233598535" lon="14.740364364435218"><ele>485.0</ele><time>2026-04-18T14:56:54Z</time></trkpt><trkpt lat="37.098657284984874" lon="14.740281565191669"><ele>485.0</ele><time>2026-04-18T14:56:55Z</time></trkpt><trkpt lat="37.09866650908098" lon="14.740176833799408"><ele>485.0</ele><time>2026-04-18T14:56:56Z</time></trkpt><trkpt lat="37.098651723975046" lon="14.740055121784488"><ele>485.0</ele><time>2026-04-18T14:56:57Z</time></trkpt><trkpt lat="37.098662465158284" lon="14.739892657957695"><ele>485.0</ele><time>2026-04-18T14:56:58Z</time></trkpt><trkpt lat="37.09866690059282" lon="14.739690015749717"><ele>483.0</ele><time>2026-04-18T14:56:59Z</time></trkpt><trkpt lat="37.098684064632906" lon="14.739497591870588"><ele>481.0</ele><time>2026-04-18T14:57:00Z</time></trkpt><trkpt lat="37.09869211906056" lon="14.739355975755696"><ele>479.0</ele><time>2026-04-18T14:57:01Z</time></trkpt><trkpt lat="37.09869700498792" lon="14.739241453325347"><ele>477.0</ele><time>2026-04-18T14:57:02Z</time></trkpt><trkpt lat="37.09868710888867" lon="14.73911602673659"><ele>475.0</ele><time>2026-04-18T14:57:03Z</time></trkpt><trkpt lat="37.09869998041585" lon="14.739015601607766"><ele>473.00000000000006</ele><time>2026-04-18T14:57:04Z</time></trkpt><trkpt lat="37.09868469530501" lon="14.738907380909906"><ele>471.00000000000006</ele><time>2026-04-18T14:57:05Z</time></trkpt><trkpt lat="37.098648402396734" lon="14.73879659473684"><ele>469.0</ele><time>2026-04-18T14:57:06Z</time></trkpt><trkpt lat="37.09861504935919" lon="14.738653372384132"><ele>467.0</ele><time>2026-04-18T14:57:07Z</time></trkpt><trkpt lat="37.09858871641335" lon="14.738474203681907"><ele>464.5</ele><time>2026-04-18T14:57:08Z</time></trkpt><trkpt lat="37.098552163864994" lon="14.738302215936095"><ele>462.0</ele><time>2026-04-18T14:57:09Z</time></trkpt><trkpt lat="37.09854987956007" lon="14.738125777970385"><ele>459.5</ele><time>2026-04-18T14:57:10Z</time></trkpt><trkpt lat="37.098529425981006" lon="14.737959584173678"><ele>457.0</ele><time>2026-04-18T14:57:11Z</time></trkpt><trkpt lat="37.0985015813992" lon="14.737803298826204"><ele>456.6</ele><time>2026-04-18T14:57:12Z</time></trkpt><trkpt lat="37.098489578450796" lon="14.73765402559827"><ele>456.20000000000005</ele><time>2026-04-18T14:57:13Z</time></trkpt><trkpt lat="37.098479685103115" lon="14.737537465607213"><ele>455.8</ele><time>2026-04-18T14:57:14Z</time></trkpt><trkpt lat="37.098465912725686" lon="14.737411007607259"><ele>455.4</ele><time>2026-04-18T14:57:15Z</time></trkpt><trkpt lat="37.09844747739976" lon="14.737293023096463"><ele>455.0</ele><time>2026-04-18T14:57:16Z</time></trkpt><trkpt lat="37.09842601239511" lon="14.73719217085788"><ele>455.0</ele><time>2026-04-18T14:57:17Z</time></trkpt><trkpt lat="37.0983956206554" lon="14.737068903545469"><ele>455.0</ele><time>2026-04-18T14:57:18Z</time></trkpt><trkpt lat="37.09835691707581" lon="14.736938390694128"><ele>455.0</ele><time>2026-04-18T14:57:19Z</time></trkpt><trkpt lat="37.09831472788098" lon="14.736817541037867"><ele>455.0</ele><time>2026-04-18T14:57:20Z</time></trkpt><trkpt lat="37.09825725641299" lon="14.736720524765671"><ele>455.0</ele><time>2026-04-18T14:57:21Z</time></trkpt><trkpt lat="37.098221252477934" lon="14.736611563340356"><ele>457.0</ele><time>2026-04-18T14:57:22Z</time></trkpt><trkpt lat="37.09816139503817" lon="14.736498123589575"><ele>459.0</ele><time>2026-04-18T14:57:23Z</time></trkpt><trkpt lat="37.09812710576602" lon="14.736374362774868"><ele>461.0</ele><time>2026-04-18T14:57:24Z</time></trkpt><trkpt lat="37.09807586106943" lon="14.736258440311941"><ele>463.0</ele><time>2026-04-18T14:57:25Z</time></trkpt><trkpt lat="37.098021059499295" lon="14.736154760438993"><ele>465.0</ele><time>2026-04-18T14:57:26Z</time></trkpt><trkpt lat="37.09797803746394" lon="14.736033032491251"><ele>460.8</ele><time>2026-04-18T14:57:27Z</time></trkpt><trkpt lat="37.09793203145359" lon="14.735921577760063"><ele>456.6</ele><time>2026-04-18T14:57:28Z</time></trkpt><trkpt lat="37.09787471504227" lon="14.735808520208623"><ele>452.4</ele><time>2026-04-18T14:57:29Z</time></trkpt><trkpt lat="37.09781046539615" lon="14.735699049729263"><ele>448.2</ele><time>2026-04-18T14:57:30Z</time></trkpt><trkpt lat="37.09774962852867" lon="14.735590315299172"><ele>444.0</ele><time>2026-04-18T14:57:31Z</time></trkpt><trkpt lat="37.09768897205567" lon="14.73547623603554"><ele>444.0</ele><time>2026-04-18T14:57:32Z</time></trkpt><trkpt lat="37.097609212052234" lon="14.735347649238648"><ele>444.0</ele><time>2026-04-18T14:57:33Z</time></trkpt><trkpt lat="37.09755111209953" lon="14.73519085896823"><ele>444.0</ele><time>2026-04-18T14:57:34Z</time></trkpt><trkpt lat="37.097496018203685" lon="14.735075909305221"><ele>444.0</ele><time>2026-04-18T14:57:35Z</time></trkpt><trkpt lat="37.097449086169846" lon="14.73496074336225"><ele>446.25</ele><time>2026-04-18T14:57:36Z</time></trkpt><trkpt lat="37.097403748173825" lon="14.73482063711356"><ele>448.5</ele><time>2026-04-18T14:57:37Z</time></trkpt><trkpt lat="37.09734272696805" lon="14.734693048805946"><ele>450.75</ele><time>2026-04-18T14:57:38Z</time></trkpt><trkpt lat="37.097281358206125" lon="14.734587551998514"><ele>453.0</ele><time>2026-04-18T14:57:39Z</time></trkpt><trkpt lat="37.09720451981876" lon="14.73449028106247"><ele>448.5</ele><time>2026-04-18T14:57:40Z</time></trkpt><trkpt lat="37.09713010782833" lon="14.734378002316928"><ele>444.0</ele><time>2026-04-18T14:57:41Z</time></trkpt><trkpt lat="37.09703530649682" lon="14.734260114241325"><ele>439.5</ele><time>2026-04-18T14:57:42Z</time></trkpt><trkpt lat="37.09694375618902" lon="14.734136400875606"><ele>435.0</ele><time>2026-04-18T14:57:43Z</time></trkpt><trkpt lat="37.09684902817859" lon="14.734015868729694"><ele>435.0</ele><time>2026-04-18T14:57:44Z</time></trkpt><trkpt lat="37.096761669166334" lon="14.733904314278885"><ele>435.0</ele><time>2026-04-18T14:57:45Z</time></trkpt><trkpt lat="37.096695736496685" lon="14.733810291587815"><ele>435.0</ele><time>2026-04-18T14:57:46Z</time></trkpt><trkpt lat="37.09663172306332" lon="14.733719714408615"><ele>435.0</ele><time>2026-04-18T14:57:47Z</time></trkpt><trkpt lat="37.096566222419746" lon="14.733605639952879"><ele>435.0</ele><time>2026-04-18T14:57:48Z</time></trkpt><trkpt lat="37.09649608435597" lon="14.733465813278135"><ele>439.0</ele><time>2026-04-18T14:57:49Z</time></trkpt><trkpt lat="37.09642924107962" lon="14.733328580452753"><ele>443.0</ele><time>2026-04-18T14:57:50Z</time></trkpt><trkpt lat="37.096373188910675" lon="14.73320449829262"><ele>447.0</ele><time>2026-04-18T14:57:51Z</time></trkpt><trkpt lat="37.09633217806602" lon="14.733095489039473"><ele>451.0</ele><time>2026-04-18T14:57:52Z</time></trkpt><trkpt lat="37.096302609076616" lon="14.732983037521707"><ele>455.0</ele><time>2026-04-18T14:57:53Z</time></trkpt><trkpt lat="37.09628686879939" lon="14.732860595274692"><ele>455.0</ele><time>2026-04-18T14:57:54Z</time></trkpt><trkpt lat="37.09629838959257" lon="14.73273366389439"><ele>455.0</ele><time>2026-04-18T14:57:55Z</time></trkpt><trkpt lat="37.09627438599711" lon="14.732577424006909"><ele>455.0</ele><time>2026-04-18T14:57:56Z</time></trkpt><trkpt lat="37.09627093303047" lon="14.732456140168523"><ele>455.0</ele><time>2026-04-18T14:57:57Z</time></trkpt><trkpt lat="37.09626144091479" lon="14.732360196232277"><ele>455.0</ele><time>2026-04-18T14:57:58Z</time></trkpt><trkpt lat="37.096249518160626" lon="14.732239683984833"><ele>451.25</ele><time>2026-04-18T14:57:59Z</time></trkpt><trkpt lat="37.09608690059697" lon="14.732109188287449"><ele>447.5</ele><time>2026-04-18T14:58:00Z</time></trkpt><trkpt lat="37.09599934631958" lon="14.731978751503537"><ele>443.75</ele><time>2026-04-18T14:58:01Z</time></trkpt><trkpt lat="37.0959334105777" lon="14.731855399261566"><ele>440.0</ele><time>2026-04-18T14:58:02Z</time></trkpt><trkpt lat="37.09587850273706" lon="14.731732089118612"><ele>438.75</ele><time>2026-04-18T14:58:03Z</time></trkpt><trkpt lat="37.09582774400946" lon="14.73159582763025"><ele>437.5</ele><time>2026-04-18T14:58:04Z</time></trkpt><trkpt lat="37.09577763722915" lon="14.731435865357453"><ele>436.25</ele><time>2026-04-18T14:58:05Z</time></trkpt><trkpt lat="37.095718511866494" lon="14.731257164929184"><ele>435.0</ele><time>2026-04-18T14:58:06Z</time></trkpt><trkpt lat="37.09567183247443" lon="14.731079054926717"><ele>441.25</ele><time>2026-04-18T14:58:07Z</time></trkpt><trkpt lat="37.09563052131231" lon="14.73091040189279"><ele>447.5</ele><time>2026-04-18T14:58:08Z</time></trkpt><trkpt lat="37.095587477859226" lon="14.7307740452044"><ele>453.75</ele><time>2026-04-18T14:58:09Z</time></trkpt><trkpt lat="37.09555689087875" lon="14.730631647790457"><ele>460.0</ele><time>2026-04-18T14:58:10Z</time></trkpt><trkpt lat="37.095522537721465" lon="14.730484504562535"><ele>460.0</ele><time>2026-04-18T14:58:11Z</time></trkpt><trkpt lat="37.09549083092097" lon="14.730344000720384"><ele>460.0</ele><time>2026-04-18T14:58:12Z</time></trkpt><trkpt lat="37.09545066134254" lon="14.730225192370149"><ele>460.0</ele><time>2026-04-18T14:58:13Z</time></trkpt><trkpt lat="37.095416403290095" lon="14.730124552605"><ele>460.0</ele><time>2026-04-18T14:58:14Z</time></trkpt><trkpt lat="37.09539102825541" lon="14.730046774575158"><ele>460.0</ele><time>2026-04-18T14:58:15Z</time></trkpt><trkpt lat="37.09538623251604" lon="14.729929466190535"><ele>458.6666666666667</ele><time>2026-04-18T14:58:17Z</time></trkpt><trkpt lat="37.095396553674114" lon="14.729842379694594"><ele>457.33333333333337</ele><time>2026-04-18T14:58:19Z</time></trkpt><trkpt lat="37.09542791710559" lon="14.729765991911554"><ele>456.0</ele><time>2026-04-18T14:58:21Z</time></trkpt><trkpt lat="37.09545918082611" lon="14.729681178858153"><ele>454.66666666666663</ele><time>2026-04-18T14:58:23Z</time></trkpt><trkpt lat="37.09547196647193" lon="14.729596523832212"><ele>453.3333333333333</ele><time>2026-04-18T14:58:42Z</time></trkpt><trkpt lat="37.095489654711734" lon="14.72949744552873"><ele>452.0</ele><time>2026-04-18T14:58:44Z</time></trkpt><trkpt lat="37.095499982881535" lon="14.729347553605024"><ele>452.0</ele><time>2026-04-18T14:58:46Z</time></trkpt><trkpt lat="37.0955069548316" lon="14.729253581618984"><ele>452.00000000000006</ele><time>2026-04-18T14:58:47Z</time></trkpt><trkpt lat="37.09551248991199" lon="14.729130525434513"><ele>452.00000000000006</ele><time>2026-04-18T14:58:48Z</time></trkpt><trkpt lat="37.09551776271869" lon="14.728975176416744"><ele>452.0</ele><time>2026-04-18T14:58:49Z</time></trkpt><trkpt lat="37.09551442285824" lon="14.72882942757368"><ele>452.0</ele><time>2026-04-18T14:58:50Z</time></trkpt><trkpt lat="37.095508688377045" lon="14.728698141585404"><ele>452.0</ele><time>2026-04-18T14:58:51Z</time></trkpt><trkpt lat="37.095519750042506" lon="14.728561097312506"><ele>452.0</ele><time>2026-04-18T14:58:52Z</time></trkpt><trkpt lat="37.09555758657158" lon="14.728419221386535"><ele>452.0</ele><time>2026-04-18T14:58:53Z</time></trkpt><trkpt lat="37.09555769394017" lon="14.728279510100885"><ele>452.0</ele><time>2026-04-18T14:58:54Z</time></trkpt><trkpt lat="37.09557963163388" lon="14.728128681297362"><ele>454.20000000000005</ele><time>2026-04-18T14:58:55Z</time></trkpt><trkpt lat="37.095600226338895" lon="14.727972314011284"><ele>456.40000000000003</ele><time>2026-04-18T14:58:56Z</time></trkpt><trkpt lat="37.09563000029494" lon="14.727826329343268"><ele>458.59999999999997</ele><time>2026-04-18T14:58:57Z</time></trkpt><trkpt lat="37.09567131202571" lon="14.727708607591868"><ele>460.79999999999995</ele><time>2026-04-18T14:58:58Z</time></trkpt><trkpt lat="37.09573560301254" lon="14.727630141518317"><ele>463.0</ele><time>2026-04-18T14:58:59Z</time></trkpt><trkpt lat="37.095759385351734" lon="14.727553356752033"><ele>455.59999999999997</ele><time>2026-04-18T14:59:00Z</time></trkpt><trkpt lat="37.095807988461516" lon="14.727466014825175"><ele>448.19999999999993</ele><time>2026-04-18T14:59:01Z</time></trkpt><trkpt lat="37.09587739119224" lon="14.727361342343514"><ele>440.8</ele><time>2026-04-18T14:59:02Z</time></trkpt><trkpt lat="37.09595340366062" lon="14.727237936740023"><ele>433.4</ele><time>2026-04-18T14:59:03Z</time></trkpt><trkpt lat="37.09602012602228" lon="14.72713334531021"><ele>426.0</ele><time>2026-04-18T14:59:04Z</time></trkpt><trkpt lat="37.09610479585617" lon="14.727054643809836"><ele>426.0</ele><time>2026-04-18T14:59:05Z</time></trkpt><trkpt lat="37.09619980320195" lon="14.726973352337362"><ele>426.0</ele><time>2026-04-18T14:59:06Z</time></trkpt><trkpt lat="37.09627289316416" lon="14.726907902138025"><ele>426.0</ele><time>2026-04-18T14:59:07Z</time></trkpt><trkpt lat="37.096334094193" lon="14.726838087889135"><ele>426.0</ele><time>2026-04-18T14:59:08Z</time></trkpt><trkpt lat="37.0964040350212" lon="14.726798790429664"><ele>426.0</ele><time>2026-04-18T14:59:09Z</time></trkpt><trkpt lat="37.09647979880567" lon="14.726812261608238"><ele>426.0</ele><time>2026-04-18T14:59:10Z</time></trkpt><trkpt lat="37.096574020477824" lon="14.726783292862375"><ele>425.0</ele><time>2026-04-18T14:59:11Z</time></trkpt><trkpt lat="37.09669346753195" lon="14.726759808944532"><ele>424.0</ele><time>2026-04-18T14:59:12Z</time></trkpt><trkpt lat="37.09680629027496" lon="14.726699633601982"><ele>423.0</ele><time>2026-04-18T14:59:13Z</time></trkpt><trkpt lat="37.09690103567665" lon="14.726604461418386"><ele>422.0</ele><time>2026-04-18T14:59:14Z</time></trkpt><trkpt lat="37.09700718736868" lon="14.726501217061923"><ele>422.0</ele><time>2026-04-18T14:59:15Z</time></trkpt><trkpt lat="37.09712987764356" lon="14.726377764081104"><ele>422.0</ele><time>2026-04-18T14:59:16Z</time></trkpt><trkpt lat="37.09727343483939" lon="14.726282043388865"><ele>422.0</ele><time>2026-04-18T14:59:17Z</time></trkpt><trkpt lat="37.097400875899325" lon="14.726164415815004"><ele>421.5</ele><time>2026-04-18T14:59:18Z</time></trkpt><trkpt lat="37.09749330347368" lon="14.726106967033752"><ele>421.0</ele><time>2026-04-18T14:59:19Z</time></trkpt><trkpt lat="37.09760186116276" lon="14.726070748120478"><ele>420.5</ele><time>2026-04-18T14:59:20Z</time></trkpt><trkpt lat="37.097710047634735" lon="14.726030811257301"><ele>420.0</ele><time>2026-04-18T14:59:21Z</time></trkpt><trkpt lat="37.09784495892792" lon="14.725978337153688"><ele>421.33333333333337</ele><time>2026-04-18T14:59:22Z</time></trkpt><trkpt lat="37.09802344232285" lon="14.725939415794615"><ele>422.6666666666667</ele><time>2026-04-18T14:59:23Z</time></trkpt><trkpt lat="37.09819403602755" lon="14.725922504685698"><ele>424.0</ele><time>2026-04-18T14:59:24Z</time></trkpt><trkpt lat="37.098350133764484" lon="14.725888376891357"><ele>424.0</ele><time>2026-04-18T14:59:25Z</time></trkpt><trkpt lat="37.098500973617895" lon="14.72587111826593"><ele>424.0</ele><time>2026-04-18T14:59:26Z</time></trkpt><trkpt lat="37.09862290042567" lon="14.725853130549192"><ele>424.0</ele><time>2026-04-18T14:59:27Z</time></trkpt><trkpt lat="37.09870730034925" lon="14.725846144114943"><ele>424.0</ele><time>2026-04-18T14:59:28Z</time></trkpt><trkpt lat="37.09880282961071" lon="14.725837875015078"><ele>424.0</ele><time>2026-04-18T14:59:29Z</time></trkpt><trkpt lat="37.09890302193416" lon="14.725867499386561"><ele>424.0</ele><time>2026-04-18T14:59:30Z</time></trkpt><trkpt lat="37.099032991874765" lon="14.725894640180229"><ele>424.0</ele><time>2026-04-18T14:59:31Z</time></trkpt><trkpt lat="37.099159365366376" lon="14.725879596278912"><ele>424.0</ele><time>2026-04-18T14:59:32Z</time></trkpt><trkpt lat="37.09926949065936" lon="14.725876034815249"><ele>422.6</ele><time>2026-04-18T14:59:33Z</time></trkpt><trkpt lat="37.0993505858305" lon="14.725860783022027"><ele>421.2</ele><time>2026-04-18T14:59:34Z</time></trkpt><trkpt lat="37.099458709533614" lon="14.725797501010193"><ele>419.8</ele><time>2026-04-18T14:59:36Z</time></trkpt><trkpt lat="37.09951707839267" lon="14.72576181130134"><ele>418.40000000000003</ele><time>2026-04-18T14:59:37Z</time></trkpt><trkpt lat="37.099600944005545" lon="14.725767615223395"><ele>417.0</ele><time>2026-04-18T14:59:39Z</time></trkpt><trkpt lat="37.09963247388458" lon="14.725929403864505"><ele>417.0</ele><time>2026-04-18T14:59:41Z</time></trkpt><trkpt lat="37.099672512445345" lon="14.726028024005899"><ele>417.0</ele><time>2026-04-18T14:59:42Z</time></trkpt><trkpt lat="37.099739832892986" lon="14.726116502744564"><ele>417.0</ele><time>2026-04-18T14:59:44Z</time></trkpt><trkpt lat="37.09983301688877" lon="14.726115141923598"><ele>417.0</ele><time>2026-04-18T14:59:45Z</time></trkpt><trkpt lat="37.09993837549947" lon="14.726135715145176"><ele>417.0</ele><time>2026-04-18T14:59:46Z</time></trkpt><trkpt lat="37.10006648919615" lon="14.726150380168571"><ele>416.40000000000003</ele><time>2026-04-18T14:59:47Z</time></trkpt><trkpt lat="37.10015585989514" lon="14.726146952156828"><ele>415.8</ele><time>2026-04-18T14:59:48Z</time></trkpt><trkpt lat="37.100260693925335" lon="14.726068417414284"><ele>415.2</ele><time>2026-04-18T14:59:50Z</time></trkpt><trkpt lat="37.100300404988154" lon="14.725991330886599"><ele>414.6</ele><time>2026-04-18T14:59:51Z</time></trkpt><trkpt lat="37.10033407134198" lon="14.725906124140971"><ele>414.0</ele><time>2026-04-18T14:59:52Z</time></trkpt><trkpt lat="37.10037126153788" lon="14.725790364748377"><ele>414.0</ele><time>2026-04-18T14:59:53Z</time></trkpt><trkpt lat="37.1003956382202" lon="14.725679130764336"><ele>414.0</ele><time>2026-04-18T14:59:54Z</time></trkpt><trkpt lat="37.10042021273231" lon="14.72555983612681"><ele>414.0</ele><time>2026-04-18T14:59:55Z</time></trkpt><trkpt lat="37.100440780023916" lon="14.725466454074244"><ele>414.0</ele><time>2026-04-18T14:59:56Z</time></trkpt><trkpt lat="37.10047644119664" lon="14.725361082378553"><ele>414.0</ele><time>2026-04-18T14:59:57Z</time></trkpt><trkpt lat="37.10053122430819" lon="14.725271489710904"><ele>414.0</ele><time>2026-04-18T14:59:58Z</time></trkpt><trkpt lat="37.10058890329901" lon="14.725199528600553"><ele>415.6</ele><time>2026-04-18T14:59:59Z</time></trkpt><trkpt lat="37.100664648950335" lon="14.725134251576232"><ele>417.2</ele><time>2026-04-18T15:00:00Z</time></trkpt><trkpt lat="37.100743575347316" lon="14.725106796892268"><ele>418.8</ele><time>2026-04-18T15:00:01Z</time></trkpt><trkpt lat="37.100841640491204" lon="14.725093721380544"><ele>420.40000000000003</ele><time>2026-04-18T15:00:02Z</time></trkpt><trkpt lat="37.10098111558059" lon="14.725064367721602"><ele>422.0</ele><time>2026-04-18T15:00:03Z</time></trkpt><trkpt lat="37.101118055281" lon="14.725012212992771"><ele>422.0</ele><time>2026-04-18T15:00:04Z</time></trkpt><trkpt lat="37.10123863005323" lon="14.724947175419029"><ele>422.0</ele><time>2026-04-18T15:00:05Z</time></trkpt><trkpt lat="37.10134645179373" lon="14.724885598337766"><ele>422.0</ele><time>2026-04-18T15:00:06Z</time></trkpt><trkpt lat="37.10144919729584" lon="14.724816012491111"><ele>422.0</ele><time>2026-04-18T15:00:07Z</time></trkpt><trkpt lat="37.101544730594455" lon="14.724733380393106"><ele>419.20000000000005</ele><time>2026-04-18T15:00:08Z</time></trkpt><trkpt lat="37.101635383511685" lon="14.724647297535965"><ele>416.4</ele><time>2026-04-18T15:00:09Z</time></trkpt><trkpt lat="37.101708336615054" lon="14.724559012449724"><ele>413.6</ele><time>2026-04-18T15:00:10Z</time></trkpt><trkpt lat="37.101771457240524" lon="14.724468455888214"><ele>410.79999999999995</ele><time>2026-04-18T15:00:11Z</time></trkpt><trkpt lat="37.10183232052372" lon="14.724420207610923"><ele>408.0</ele><time>2026-04-18T15:00:12Z</time></trkpt><trkpt lat="37.101913298844224" lon="14.724397945180037"><ele>412.2</ele><time>2026-04-18T15:00:13Z</time></trkpt><trkpt lat="37.10203662473162" lon="14.724374442350845"><ele>416.4</ele><time>2026-04-18T15:00:14Z</time></trkpt><trkpt lat="37.10213902691547" lon="14.724381709589816"><ele>420.59999999999997</ele><time>2026-04-18T15:00:15Z</time></trkpt><trkpt lat="37.102233567796326" lon="14.724369262535975"><ele>424.79999999999995</ele><time>2026-04-18T15:00:16Z</time></trkpt><trkpt lat="37.10234600135241" lon="14.72438756846125"><ele>429.0</ele><time>2026-04-18T15:00:17Z</time></trkpt><trkpt lat="37.102486837255604" lon="14.72437326493598"><ele>429.0</ele><time>2026-04-18T15:00:18Z</time></trkpt><trkpt lat="37.10262268256074" lon="14.724371348556218"><ele>429.0</ele><time>2026-04-18T15:00:19Z</time></trkpt><trkpt lat="37.10272854104515" lon="14.72440446025511"><ele>429.0</ele><time>2026-04-18T15:00:20Z</time></trkpt><trkpt lat="37.10280691674834" lon="14.724430964870445"><ele>429.0</ele><time>2026-04-18T15:00:21Z</time></trkpt><trkpt lat="37.10289203764463" lon="14.724467970303229"><ele>429.0</ele><time>2026-04-18T15:00:22Z</time></trkpt><trkpt lat="37.102979561466455" lon="14.72452784399881"><ele>423.0</ele><time>2026-04-18T15:00:23Z</time></trkpt><trkpt lat="37.10310239306306" lon="14.724615805141736"><ele>417.0</ele><time>2026-04-18T15:00:24Z</time></trkpt><trkpt lat="37.10321473283421" lon="14.724680054713291"><ele>411.0</ele><time>2026-04-18T15:00:25Z</time></trkpt><trkpt lat="37.103318071891195" lon="14.724719976322527"><ele>405.0</ele><time>2026-04-18T15:00:26Z</time></trkpt><trkpt lat="37.10342799570397" lon="14.724716253420933"><ele>405.0</ele><time>2026-04-18T15:00:27Z</time></trkpt><trkpt lat="37.10356532280601" lon="14.724728429713782"><ele>405.0</ele><time>2026-04-18T15:00:28Z</time></trkpt><trkpt lat="37.103709903578746" lon="14.724734426613905"><ele>405.0</ele><time>2026-04-18T15:00:29Z</time></trkpt><trkpt lat="37.103831615589066" lon="14.724767239552888"><ele>405.0</ele><time>2026-04-18T15:00:30Z</time></trkpt><trkpt lat="37.10393416268343" lon="14.724795944488546"><ele>405.0</ele><time>2026-04-18T15:00:31Z</time></trkpt><trkpt lat="37.10402843604664" lon="14.724836146073187"><ele>405.0</ele><time>2026-04-18T15:00:32Z</time></trkpt><trkpt lat="37.10414679476276" lon="14.724872688917587"><ele>405.0</ele><time>2026-04-18T15:00:33Z</time></trkpt><trkpt lat="37.104279755189054" lon="14.724900668962237"><ele>405.0</ele><time>2026-04-18T15:00:34Z</time></trkpt><trkpt lat="37.10442125635596" lon="14.724895389093728"><ele>406.5</ele><time>2026-04-18T15:00:35Z</time></trkpt><trkpt lat="37.10453532976444" lon="14.72489248610177"><ele>408.0</ele><time>2026-04-18T15:00:36Z</time></trkpt><trkpt lat="37.104648334091145" lon="14.724888934808785"><ele>409.5</ele><time>2026-04-18T15:00:37Z</time></trkpt><trkpt lat="37.104762965961534" lon="14.724906948586488"><ele>411.0</ele><time>2026-04-18T15:00:38Z</time></trkpt><trkpt lat="37.104867198001024" lon="14.724940535818812"><ele>414.5</ele><time>2026-04-18T15:00:39Z</time></trkpt><trkpt lat="37.104998697646" lon="14.724993454060726"><ele>418.0</ele><time>2026-04-18T15:00:40Z</time></trkpt><trkpt lat="37.10515865968087" lon="14.725033396628747"><ele>421.5</ele><time>2026-04-18T15:00:41Z</time></trkpt><trkpt lat="37.10530082512274" lon="14.7250758610468"><ele>425.0</ele><time>2026-04-18T15:00:42Z</time></trkpt><trkpt lat="37.10543630311805" lon="14.725121516353973"><ele>425.0</ele><time>2026-04-18T15:00:43Z</time></trkpt><trkpt lat="37.10554944795071" lon="14.725158687316414"><ele>425.0</ele><time>2026-04-18T15:00:44Z</time></trkpt><trkpt lat="37.10568870384964" lon="14.725191392061568"><ele>425.0</ele><time>2026-04-18T15:00:45Z</time></trkpt><trkpt lat="37.10582856324201" lon="14.725213010954775"><ele>425.0</ele><time>2026-04-18T15:00:46Z</time></trkpt><trkpt lat="37.10594504453838" lon="14.725219474632452"><ele>426.3333333333333</ele><time>2026-04-18T15:00:47Z</time></trkpt><trkpt lat="37.10605842408341" lon="14.725215383562691"><ele>427.66666666666663</ele><time>2026-04-18T15:00:48Z</time></trkpt><trkpt lat="37.10615933418484" lon="14.725205584734514"><ele>429.0</ele><time>2026-04-18T15:00:49Z</time></trkpt><trkpt lat="37.10623789762726" lon="14.725215209826603"><ele>430.33333333333337</ele><time>2026-04-18T15:00:50Z</time></trkpt><trkpt lat="37.10630743953954" lon="14.72522176839689"><ele>431.6666666666667</ele><time>2026-04-18T15:00:51Z</time></trkpt><trkpt lat="37.10637548528827" lon="14.72525771296863"><ele>433.0</ele><time>2026-04-18T15:00:52Z</time></trkpt><trkpt lat="37.10643206808793" lon="14.725315008780006"><ele>427.59999999999997</ele><time>2026-04-18T15:00:53Z</time></trkpt><trkpt lat="37.10649052575866" lon="14.72540396621281"><ele>422.19999999999993</ele><time>2026-04-18T15:00:54Z</time></trkpt><trkpt lat="37.106585474680564" lon="14.725503887768005"><ele>416.8</ele><time>2026-04-18T15:00:55Z</time></trkpt><trkpt lat="37.10665650636587" lon="14.725542118477792"><ele>411.4</ele><time>2026-04-18T15:00:56Z</time></trkpt><trkpt lat="37.10678376205134" lon="14.72554633444916"><ele>406.0</ele><time>2026-04-18T15:00:58Z</time></trkpt><trkpt lat="37.106866486879" lon="14.725538892732425"><ele>406.0</ele><time>2026-04-18T15:00:59Z</time></trkpt><trkpt lat="37.10694761094074" lon="14.725521622881027"><ele>406.0</ele><time>2026-04-18T15:01:00Z</time></trkpt><trkpt lat="37.10703706262085" lon="14.725531110942423"><ele>406.0</ele><time>2026-04-18T15:01:01Z</time></trkpt><trkpt lat="37.10712871148529" lon="14.725559677217825"><ele>406.0</ele><time>2026-04-18T15:01:02Z</time></trkpt><trkpt lat="37.107239242337975" lon="14.725596738815343"><ele>406.0</ele><time>2026-04-18T15:01:03Z</time></trkpt><trkpt lat="37.1073628106798" lon="14.725617020295985"><ele>406.20000000000005</ele><time>2026-04-18T15:01:04Z</time></trkpt><trkpt lat="37.10746533236146" lon="14.725677663834235"><ele>406.40000000000003</ele><time>2026-04-18T15:01:05Z</time></trkpt><trkpt lat="37.10757828351038" lon="14.725726511388082"><ele>406.6</ele><time>2026-04-18T15:01:06Z</time></trkpt><trkpt lat="37.10766482730091" lon="14.725762672070173"><ele>406.8</ele><time>2026-04-18T15:01:07Z</time></trkpt><trkpt lat="37.10774113607306" lon="14.72578295602296"><ele>407.0</ele><time>2026-04-18T15:01:08Z</time></trkpt><trkpt lat="37.10780553719015" lon="14.725796039972911"><ele>407.0</ele><time>2026-04-18T15:01:09Z</time></trkpt><trkpt lat="37.10791350968841" lon="14.725799375838434"><ele>407.0</ele><time>2026-04-18T15:01:11Z</time></trkpt><trkpt lat="37.10804772461193" lon="14.725810562079886"><ele>407.0</ele><time>2026-04-18T15:01:13Z</time></trkpt><trkpt lat="37.108125151096196" lon="14.725798175111054"><ele>407.0</ele><time>2026-04-18T15:01:14Z</time></trkpt><trkpt lat="37.10818586106172" lon="14.725747452934948"><ele>407.0</ele><time>2026-04-18T15:01:15Z</time></trkpt><trkpt lat="37.108257383478545" lon="14.72571629173805"><ele>406.8</ele><time>2026-04-18T15:01:16Z</time></trkpt><trkpt lat="37.10832477407913" lon="14.7257240342832"><ele>406.6</ele><time>2026-04-18T15:01:17Z</time></trkpt><trkpt lat="37.10845986669012" lon="14.725769775702869"><ele>406.40000000000003</ele><time>2026-04-18T15:01:19Z</time></trkpt><trkpt lat="37.10855256060685" lon="14.72580418570225"><ele>406.20000000000005</ele><time>2026-04-18T15:01:20Z</time></trkpt><trkpt lat="37.108652680343454" lon="14.72581086442896"><ele>406.0</ele><time>2026-04-18T15:01:21Z</time></trkpt><trkpt lat="37.10875010761068" lon="14.725827486263954"><ele>406.00000000000006</ele><time>2026-04-18T15:01:22Z</time></trkpt><trkpt lat="37.10882384420414" lon="14.725872375920753"><ele>406.0</ele><time>2026-04-18T15:01:23Z</time></trkpt><trkpt lat="37.10885125082901" lon="14.725977249339074"><ele>406.0</ele><time>2026-04-18T15:01:25Z</time></trkpt><trkpt lat="37.10887044922483" lon="14.726069837813894"><ele>406.0</ele><time>2026-04-18T15:01:26Z</time></trkpt><trkpt lat="37.10889091683167" lon="14.726206270811208"><ele>406.00000000000006</ele><time>2026-04-18T15:01:27Z</time></trkpt><trkpt lat="37.10892596054145" lon="14.726300099040893"><ele>406.0</ele><time>2026-04-18T15:01:28Z</time></trkpt><trkpt lat="37.10900117547722" lon="14.726340884323182"><ele>405.6</ele><time>2026-04-18T15:01:29Z</time></trkpt><trkpt lat="37.10905955080314" lon="14.72637867142748"><ele>405.20000000000005</ele><time>2026-04-18T15:01:30Z</time></trkpt><trkpt lat="37.109120218761326" lon="14.726435983101135"><ele>404.79999999999995</ele><time>2026-04-18T15:01:31Z</time></trkpt><trkpt lat="37.10921550022331" lon="14.726444996785766"><ele>404.4</ele><time>2026-04-18T15:01:32Z</time></trkpt><trkpt lat="37.10931483052333" lon="14.72647818672932"><ele>404.0</ele><time>2026-04-18T15:01:33Z</time></trkpt><trkpt lat="37.109440906096594" lon="14.72658342762414"><ele>403.99999999999994</ele><time>2026-04-18T15:01:35Z</time></trkpt><trkpt lat="37.109527164931464" lon="14.726621969613507"><ele>404.0</ele><time>2026-04-18T15:01:36Z</time></trkpt><trkpt lat="37.1095985041317" lon="14.726632035994166"><ele>404.0</ele><time>2026-04-18T15:01:37Z</time></trkpt><trkpt lat="37.10968039032912" lon="14.726611392594183"><ele>404.0</ele><time>2026-04-18T15:01:38Z</time></trkpt><trkpt lat="37.10975817569681" lon="14.72660533566655"><ele>403.99999999999994</ele><time>2026-04-18T15:01:39Z</time></trkpt><trkpt lat="37.10985155226641" lon="14.726607423932819"><ele>404.0</ele><time>2026-04-18T15:01:40Z</time></trkpt><trkpt lat="37.10994693576059" lon="14.72667713710144"><ele>405.75</ele><time>2026-04-18T15:01:41Z</time></trkpt><trkpt lat="37.1100696302297" lon="14.726708782490174"><ele>407.5</ele><time>2026-04-18T15:01:42Z</time></trkpt><trkpt lat="37.11018611375375" lon="14.726712430433235"><ele>409.25</ele><time>2026-04-18T15:01:43Z</time></trkpt><trkpt lat="37.11029070555712" lon="14.726724409392281"><ele>411.0</ele><time>2026-04-18T15:01:44Z</time></trkpt><trkpt lat="37.11040405228404" lon="14.726711181309065"><ele>411.0</ele><time>2026-04-18T15:01:45Z</time></trkpt><trkpt lat="37.11051629921" lon="14.726738208154709"><ele>411.0</ele><time>2026-04-18T15:01:46Z</time></trkpt><trkpt lat="37.11065419597675" lon="14.726783661861559"><ele>411.0</ele><time>2026-04-18T15:01:47Z</time></trkpt><trkpt lat="37.11079361752377" lon="14.7268380880379"><ele>411.0</ele><time>2026-04-18T15:01:48Z</time></trkpt><trkpt lat="37.11090842413677" lon="14.726882950061361"><ele>408.0</ele><time>2026-04-18T15:01:49Z</time></trkpt><trkpt lat="37.111016455944544" lon="14.726939671003187"><ele>405.0</ele><time>2026-04-18T15:01:50Z</time></trkpt><trkpt lat="37.111135734802424" lon="14.726984835491779"><ele>402.0</ele><time>2026-04-18T15:01:51Z</time></trkpt><trkpt lat="37.11126338205582" lon="14.727019641367283"><ele>399.0</ele><time>2026-04-18T15:01:52Z</time></trkpt><trkpt lat="37.11138991131087" lon="14.727062214242823"><ele>399.0</ele><time>2026-04-18T15:01:53Z</time></trkpt><trkpt lat="37.111500315149236" lon="14.727121401545759"><ele>399.0</ele><time>2026-04-18T15:01:54Z</time></trkpt><trkpt lat="37.11159178359758" lon="14.727157744137633"><ele>399.0</ele><time>2026-04-18T15:01:55Z</time></trkpt><trkpt lat="37.111673972754936" lon="14.727193174331548"><ele>399.0</ele><time>2026-04-18T15:01:56Z</time></trkpt><trkpt lat="37.11175653906176" lon="14.727230850211821"><ele>399.0</ele><time>2026-04-18T15:01:57Z</time></trkpt><trkpt lat="37.11184220973682" lon="14.72727649806622"><ele>399.0</ele><time>2026-04-18T15:01:58Z</time></trkpt><trkpt lat="37.11193321295078" lon="14.727329437962162"><ele>399.0</ele><time>2026-04-18T15:01:59Z</time></trkpt><trkpt lat="37.112021429494405" lon="14.727392749260664"><ele>399.0</ele><time>2026-04-18T15:02:00Z</time></trkpt><trkpt lat="37.11210699067545" lon="14.727461678060388"><ele>399.0</ele><time>2026-04-18T15:02:01Z</time></trkpt><trkpt lat="37.112195583499705" lon="14.727535746077915"><ele>399.0</ele><time>2026-04-18T15:02:02Z</time></trkpt><trkpt lat="37.11229480022514" lon="14.72759370244301"><ele>399.0</ele><time>2026-04-18T15:02:03Z</time></trkpt><trkpt lat="37.11237031100554" lon="14.727653979534585"><ele>399.0</ele><time>2026-04-18T15:02:04Z</time></trkpt><trkpt lat="37.112442987308974" lon="14.727696342798497"><ele>399.0</ele><time>2026-04-18T15:02:05Z</time></trkpt><trkpt lat="37.11251071424867" lon="14.727755842032858"><ele>399.0</ele><time>2026-04-18T15:02:06Z</time></trkpt><trkpt lat="37.112577290863456" lon="14.72776583740344"><ele>399.0</ele><time>2026-04-18T15:02:07Z</time></trkpt><trkpt lat="37.11266070416647" lon="14.72778772100632"><ele>399.0</ele><time>2026-04-18T15:02:09Z</time></trkpt><trkpt lat="37.1127065719241" lon="14.727676549144839"><ele>399.1666666666667</ele><time>2026-04-18T15:02:12Z</time></trkpt><trkpt lat="37.11271959745289" lon="14.72758526435347"><ele>399.33333333333337</ele><time>2026-04-18T15:02:13Z</time></trkpt><trkpt lat="37.112765095264514" lon="14.727517042486294"><ele>399.5</ele><time>2026-04-18T15:02:14Z</time></trkpt><trkpt lat="37.112808859181506" lon="14.727451273260886"><ele>399.6666666666667</ele><time>2026-04-18T15:02:15Z</time></trkpt><trkpt lat="37.11290497568806" lon="14.727390704633063"><ele>399.83333333333337</ele><time>2026-04-18T15:02:17Z</time></trkpt><trkpt lat="37.11299466320937" lon="14.727424118379128"><ele>400.0</ele><time>2026-04-18T15:02:19Z</time></trkpt><trkpt lat="37.11311370566419" lon="14.727529817807815"><ele>400.6666666666667</ele><time>2026-04-18T15:02:21Z</time></trkpt><trkpt lat="37.11324121142637" lon="14.72764711476093"><ele>401.33333333333337</ele><time>2026-04-18T15:02:22Z</time></trkpt><trkpt lat="37.11338906059816" lon="14.72780480179676"><ele>402.0</ele><time>2026-04-18T15:02:23Z</time></trkpt><trkpt lat="37.113533316814234" lon="14.727939942440367"><ele>400.0</ele><time>2026-04-18T15:02:24Z</time></trkpt><trkpt lat="37.11362759498891" lon="14.728032785049363"><ele>398.0</ele><time>2026-04-18T15:02:25Z</time></trkpt><trkpt lat="37.11369052375734" lon="14.72809373643723"><ele>396.0</ele><time>2026-04-18T15:02:26Z</time></trkpt><trkpt lat="37.113755797716" lon="14.728148402889413"><ele>394.0</ele><time>2026-04-18T15:02:27Z</time></trkpt><trkpt lat="37.11384378240177" lon="14.72818064929266"><ele>392.0</ele><time>2026-04-18T15:02:28Z</time></trkpt><trkpt lat="37.11395234738005" lon="14.728215571665366"><ele>392.20000000000005</ele><time>2026-04-18T15:02:29Z</time></trkpt><trkpt lat="37.114074644110985" lon="14.728230712711985"><ele>392.4</ele><time>2026-04-18T15:02:30Z</time></trkpt><trkpt lat="37.11418435734779" lon="14.72824673599106"><ele>392.6</ele><time>2026-04-18T15:02:31Z</time></trkpt><trkpt lat="37.114289529041656" lon="14.72825571970207"><ele>392.79999999999995</ele><time>2026-04-18T15:02:32Z</time></trkpt><trkpt lat="37.11439004890592" lon="14.728263058231025"><ele>393.0</ele><time>2026-04-18T15:02:33Z</time></trkpt><trkpt lat="37.11447312216959" lon="14.728257040922209"><ele>393.0</ele><time>2026-04-18T15:02:34Z</time></trkpt><trkpt lat="37.11455718714383" lon="14.728223290392854"><ele>393.0</ele><time>2026-04-18T15:02:35Z</time></trkpt><trkpt lat="37.11462975161427" lon="14.728182085629284"><ele>393.0</ele><time>2026-04-18T15:02:36Z</time></trkpt><trkpt lat="37.114703679788256" lon="14.728118659514832"><ele>393.0</ele><time>2026-04-18T15:02:37Z</time></trkpt><trkpt lat="37.11475706122595" lon="14.728036754489926"><ele>393.0</ele><time>2026-04-18T15:02:38Z</time></trkpt><trkpt lat="37.11482776040275" lon="14.727972661665598"><ele>393.0</ele><time>2026-04-18T15:02:39Z</time></trkpt><trkpt lat="37.11489454190459" lon="14.727928077989773"><ele>392.8571428571429</ele><time>2026-04-18T15:02:40Z</time></trkpt><trkpt lat="37.11494375526599" lon="14.72787435354063"><ele>392.7142857142857</ele><time>2026-04-18T15:02:41Z</time></trkpt><trkpt lat="37.1150146253616" lon="14.727833025245667"><ele>392.57142857142856</ele><time>2026-04-18T15:02:42Z</time></trkpt><trkpt lat="37.11506781187846" lon="14.727788782889995"><ele>392.42857142857144</ele><time>2026-04-18T15:02:43Z</time></trkpt><trkpt lat="37.11512228928108" lon="14.727745332014656"><ele>392.2857142857143</ele><time>2026-04-18T15:02:44Z</time></trkpt><trkpt lat="37.11518682359135" lon="14.72771163312674"><ele>392.14285714285717</ele><time>2026-04-18T15:02:45Z</time></trkpt><trkpt lat="37.115257934881264" lon="14.727683836841111"><ele>392.0</ele><time>2026-04-18T15:02:46Z</time></trkpt><trkpt lat="37.11532272927038" lon="14.727691988791833"><ele>392.0</ele><time>2026-04-18T15:02:47Z</time></trkpt><trkpt lat="37.11541370813395" lon="14.727684071216055"><ele>392.0</ele><time>2026-04-18T15:02:48Z</time></trkpt><trkpt lat="37.11550963329471" lon="14.727653859382768"><ele>392.0</ele><time>2026-04-18T15:02:49Z</time></trkpt><trkpt lat="37.11560536485937" lon="14.72762958562431"><ele>392.0</ele><time>2026-04-18T15:02:50Z</time></trkpt><trkpt lat="37.115685755423414" lon="14.727593949109519"><ele>392.0</ele><time>2026-04-18T15:02:51Z</time></trkpt><trkpt lat="37.115775783130836" lon="14.727568389091825"><ele>389.6</ele><time>2026-04-18T15:02:52Z</time></trkpt><trkpt lat="37.11586700847351" lon="14.727523320671699"><ele>387.20000000000005</ele><time>2026-04-18T15:02:53Z</time></trkpt><trkpt lat="37.11596659160992" lon="14.72747874093703"><ele>384.8</ele><time>2026-04-18T15:02:54Z</time></trkpt><trkpt lat="37.116069450553894" lon="14.72741488299532"><ele>382.4</ele><time>2026-04-18T15:02:55Z</time></trkpt><trkpt lat="37.116176319800175" lon="14.727380691216622"><ele>380.0</ele><time>2026-04-18T15:02:56Z</time></trkpt><trkpt lat="37.116289468366176" lon="14.727326436395424"><ele>380.0</ele><time>2026-04-18T15:02:57Z</time></trkpt><trkpt lat="37.116408589367936" lon="14.727270644282681"><ele>380.0</ele><time>2026-04-18T15:02:58Z</time></trkpt><trkpt lat="37.116536023563064" lon="14.72723162370983"><ele>380.0</ele><time>2026-04-18T15:02:59Z</time></trkpt><trkpt lat="37.11662906199124" lon="14.727175871050921"><ele>380.0</ele><time>2026-04-18T15:03:00Z</time></trkpt><trkpt lat="37.116728483212114" lon="14.727150363616147"><ele>376.4</ele><time>2026-04-18T15:03:01Z</time></trkpt><trkpt lat="37.116831815311386" lon="14.727106734852761"><ele>372.8</ele><time>2026-04-18T15:03:02Z</time></trkpt><trkpt lat="37.116915920105605" lon="14.727068723524884"><ele>369.20000000000005</ele><time>2026-04-18T15:03:03Z</time></trkpt><trkpt lat="37.11701398667854" lon="14.727033427308408"><ele>365.6</ele><time>2026-04-18T15:03:04Z</time></trkpt><trkpt lat="37.1171083691436" lon="14.727004529491659"><ele>362.0</ele><time>2026-04-18T15:03:05Z</time></trkpt><trkpt lat="37.11718726180449" lon="14.726939455620153"><ele>361.5</ele><time>2026-04-18T15:03:06Z</time></trkpt><trkpt lat="37.117279669531165" lon="14.726837060147066"><ele>361.0</ele><time>2026-04-18T15:03:07Z</time></trkpt><trkpt lat="37.11739367535769" lon="14.72670270113129"><ele>360.5</ele><time>2026-04-18T15:03:08Z</time></trkpt><trkpt lat="37.11750518553117" lon="14.72655882591857"><ele>360.0</ele><time>2026-04-18T15:03:09Z</time></trkpt><trkpt lat="37.11760232907674" lon="14.72642173037395"><ele>360.0</ele><time>2026-04-18T15:03:10Z</time></trkpt><trkpt lat="37.11768328854153" lon="14.726291099858527"><ele>360.0</ele><time>2026-04-18T15:03:11Z</time></trkpt><trkpt lat="37.11777311586424" lon="14.726129323536622"><ele>360.0</ele><time>2026-04-18T15:03:12Z</time></trkpt><trkpt lat="37.11786845159718" lon="14.725944198726554"><ele>364.5</ele><time>2026-04-18T15:03:13Z</time></trkpt><trkpt lat="37.11795858334455" lon="14.725774639474155"><ele>369.0</ele><time>2026-04-18T15:03:14Z</time></trkpt><trkpt lat="37.11803584721881" lon="14.725619689216513"><ele>373.5</ele><time>2026-04-18T15:03:15Z</time></trkpt><trkpt lat="37.118100283679915" lon="14.725497650323193"><ele>378.0</ele><time>2026-04-18T15:03:16Z</time></trkpt><trkpt lat="37.11814089030623" lon="14.725397439892925"><ele>378.0</ele><time>2026-04-18T15:03:17Z</time></trkpt><trkpt lat="37.11817434562145" lon="14.725305665686953"><ele>378.0</ele><time>2026-04-18T15:03:18Z</time></trkpt><trkpt lat="37.11820851707792" lon="14.725214556393317"><ele>378.0</ele><time>2026-04-18T15:03:19Z</time></trkpt><trkpt lat="37.11826108929611" lon="14.725081303219365"><ele>378.0</ele><time>2026-04-18T15:03:20Z</time></trkpt><trkpt lat="37.118313626172345" lon="14.724940044186384"><ele>378.0</ele><time>2026-04-18T15:03:21Z</time></trkpt><trkpt lat="37.1183646320333" lon="14.724816993922385"><ele>377.59999999999997</ele><time>2026-04-18T15:03:22Z</time></trkpt><trkpt lat="37.11841770401634" lon="14.724685939348236"><ele>377.2</ele><time>2026-04-18T15:03:23Z</time></trkpt><trkpt lat="37.11846363004771" lon="14.724563741858136"><ele>376.8</ele><time>2026-04-18T15:03:24Z</time></trkpt><trkpt lat="37.11848847711133" lon="14.724449699653363"><ele>376.4</ele><time>2026-04-18T15:03:25Z</time></trkpt><trkpt lat="37.11849558896418" lon="14.72434404425432"><ele>376.0</ele><time>2026-04-18T15:03:26Z</time></trkpt><trkpt lat="37.11850553695464" lon="14.724247915665549"><ele>376.0</ele><time>2026-04-18T15:03:27Z</time></trkpt><trkpt lat="37.11852781004927" lon="14.724137714488242"><ele>376.0</ele><time>2026-04-18T15:03:28Z</time></trkpt><trkpt lat="37.11855984718625" lon="14.724000330117098"><ele>376.0</ele><time>2026-04-18T15:03:29Z</time></trkpt><trkpt lat="37.118619790525294" lon="14.723864604157582"><ele>376.0</ele><time>2026-04-18T15:03:30Z</time></trkpt><trkpt lat="37.11869995559156" lon="14.723728252168595"><ele>376.0</ele><time>2026-04-18T15:03:31Z</time></trkpt><trkpt lat="37.11874546896475" lon="14.72364526386879"><ele>376.0</ele><time>2026-04-18T15:03:32Z</time></trkpt><trkpt lat="37.118762616174934" lon="14.723474587116854"><ele>376.0</ele><time>2026-04-18T15:03:34Z</time></trkpt><trkpt lat="37.118778110351926" lon="14.723371276124915"><ele>376.0</ele><time>2026-04-18T15:03:35Z</time></trkpt><trkpt lat="37.118810566853625" lon="14.723302676206567"><ele>376.0</ele><time>2026-04-18T15:03:36Z</time></trkpt><trkpt lat="37.11891488810238" lon="14.723274999969913"><ele>373.0</ele><time>2026-04-18T15:03:38Z</time></trkpt><trkpt lat="37.11899724566755" lon="14.723253917628403"><ele>370.0</ele><time>2026-04-18T15:03:39Z</time></trkpt><trkpt lat="37.119086341222506" lon="14.723182160843331"><ele>367.0</ele><time>2026-04-18T15:03:40Z</time></trkpt><trkpt lat="37.119154112366225" lon="14.72308583597346"><ele>364.0</ele><time>2026-04-18T15:03:41Z</time></trkpt><trkpt lat="37.119242216518124" lon="14.722952371234053"><ele>361.0</ele><time>2026-04-18T15:03:42Z</time></trkpt><trkpt lat="37.11934953845435" lon="14.722783175236543"><ele>369.66666666666663</ele><time>2026-04-18T15:03:43Z</time></trkpt><trkpt lat="37.119448412461566" lon="14.722593349075474"><ele>378.3333333333333</ele><time>2026-04-18T15:03:44Z</time></trkpt><trkpt lat="37.11955428575091" lon="14.722421675753749"><ele>387.0</ele><time>2026-04-18T15:03:45Z</time></trkpt><trkpt lat="37.11965823416376" lon="14.722277074669586"><ele>387.0</ele><time>2026-04-18T15:03:46Z</time></trkpt><trkpt lat="37.11974480143075" lon="14.72213342920469"><ele>387.0</ele><time>2026-04-18T15:03:47Z</time></trkpt><trkpt lat="37.11984446654686" lon="14.721989533868033"><ele>387.0</ele><time>2026-04-18T15:03:48Z</time></trkpt><trkpt lat="37.119935299223364" lon="14.721856310573822"><ele>387.0</ele><time>2026-04-18T15:03:49Z</time></trkpt><trkpt lat="37.12001866332884" lon="14.721752395016171"><ele>385.20000000000005</ele><time>2026-04-18T15:03:50Z</time></trkpt><trkpt lat="37.12009869568158" lon="14.72166263875353"><ele>383.4</ele><time>2026-04-18T15:03:51Z</time></trkpt><trkpt lat="37.12017392451495" lon="14.72156231723531"><ele>381.6</ele><time>2026-04-18T15:03:52Z</time></trkpt><trkpt lat="37.12025219364586" lon="14.72147836314989"><ele>379.79999999999995</ele><time>2026-04-18T15:03:53Z</time></trkpt><trkpt lat="37.12029774917386" lon="14.72140792832459"><ele>378.0</ele><time>2026-04-18T15:03:54Z</time></trkpt><trkpt lat="37.120341964204954" lon="14.721319341935782"><ele>378.0</ele><time>2026-04-18T15:03:56Z</time></trkpt><trkpt lat="37.120411347619175" lon="14.721237496234107"><ele>378.0</ele><time>2026-04-18T15:03:58Z</time></trkpt><trkpt lat="37.120498278675576" lon="14.721142911147519"><ele>378.0</ele><time>2026-04-18T15:04:00Z</time></trkpt><trkpt lat="37.12059756312308" lon="14.721048658575105"><ele>378.0</ele><time>2026-04-18T15:04:02Z</time></trkpt><trkpt lat="37.12065456421626" lon="14.721001215390421"><ele>378.0</ele><time>2026-04-18T15:04:03Z</time></trkpt><trkpt lat="37.12074571243771" lon="14.720929888077338"><ele>374.5</ele><time>2026-04-18T15:04:04Z</time></trkpt><trkpt lat="37.12084541921832" lon="14.720847512506936"><ele>371.0</ele><time>2026-04-18T15:04:05Z</time></trkpt><trkpt lat="37.12095326216214" lon="14.720751675935379"><ele>367.5</ele><time>2026-04-18T15:04:06Z</time></trkpt><trkpt lat="37.1210588385248" lon="14.720655614924118"><ele>364.0</ele><time>2026-04-18T15:04:07Z</time></trkpt><trkpt lat="37.12113137285446" lon="14.720547998613686"><ele>364.0</ele><time>2026-04-18T15:04:08Z</time></trkpt><trkpt lat="37.12119342573047" lon="14.720449330718289"><ele>364.0</ele><time>2026-04-18T15:04:09Z</time></trkpt><trkpt lat="37.12123103039925" lon="14.720359207900588"><ele>364.0</ele><time>2026-04-18T15:04:10Z</time></trkpt><trkpt lat="37.121258570844965" lon="14.720272434706274"><ele>364.0</ele><time>2026-04-18T15:04:11Z</time></trkpt><trkpt lat="37.1212506510132" lon="14.720192796812993"><ele>364.0</ele><time>2026-04-18T15:04:12Z</time></trkpt><trkpt lat="37.12120490690128" lon="14.720034149251143"><ele>367.0</ele><time>2026-04-18T15:04:14Z</time></trkpt><trkpt lat="37.12114992715531" lon="14.719933200759035"><ele>370.0</ele><time>2026-04-18T15:04:15Z</time></trkpt><trkpt lat="37.12109521029009" lon="14.719826855192732"><ele>373.0</ele><time>2026-04-18T15:04:16Z</time></trkpt><trkpt lat="37.1210532256482" lon="14.719751039828004"><ele>376.0</ele><time>2026-04-18T15:04:17Z</time></trkpt><trkpt lat="37.120998044503885" lon="14.719684410560662"><ele>379.0</ele><time>2026-04-18T15:04:18Z</time></trkpt><trkpt lat="37.120957327670105" lon="14.719618925936098"><ele>382.0</ele><time>2026-04-18T15:04:20Z</time></trkpt><trkpt lat="37.12101769608544" lon="14.71952978712994"><ele>382.0</ele><time>2026-04-18T15:04:22Z</time></trkpt><trkpt lat="37.12109155358555" lon="14.719505183622946"><ele>382.0</ele><time>2026-04-18T15:04:23Z</time></trkpt><trkpt lat="37.12116327986357" lon="14.71952503555902"><ele>382.0</ele><time>2026-04-18T15:04:24Z</time></trkpt><trkpt lat="37.121246439490974" lon="14.71955472226046"><ele>382.0</ele><time>2026-04-18T15:04:25Z</time></trkpt><trkpt lat="37.12134404608157" lon="14.719571312282268"><ele>382.0</ele><time>2026-04-18T15:04:26Z</time></trkpt><trkpt lat="37.121410265076456" lon="14.719578538803106"><ele>382.0</ele><time>2026-04-18T15:04:27Z</time></trkpt><trkpt lat="37.12149614008019" lon="14.719579383749728"><ele>382.0</ele><time>2026-04-18T15:04:28Z</time></trkpt><trkpt lat="37.12156177374305" lon="14.7195175534111"><ele>382.0</ele><time>2026-04-18T15:04:30Z</time></trkpt><trkpt lat="37.12160002664862" lon="14.719454179044712"><ele>382.0</ele><time>2026-04-18T15:04:31Z</time></trkpt><trkpt lat="37.121640755826625" lon="14.719329977053217"><ele>382.0</ele><time>2026-04-18T15:04:32Z</time></trkpt><trkpt lat="37.12164986251258" lon="14.719162099161366"><ele>382.0</ele><time>2026-04-18T15:04:33Z</time></trkpt><trkpt lat="37.12167055761179" lon="14.718996533400698"><ele>381.5</ele><time>2026-04-18T15:04:34Z</time></trkpt><trkpt lat="37.121695825163414" lon="14.718827600748211"><ele>381.0</ele><time>2026-04-18T15:04:35Z</time></trkpt><trkpt lat="37.12172031570858" lon="14.718665335443076"><ele>380.5</ele><time>2026-04-18T15:04:36Z</time></trkpt><trkpt lat="37.121737513965684" lon="14.718515787603522"><ele>380.0</ele><time>2026-04-18T15:04:37Z</time></trkpt><trkpt lat="37.121759760859376" lon="14.718375478529708"><ele>380.0</ele><time>2026-04-18T15:04:38Z</time></trkpt><trkpt lat="37.12178049426078" lon="14.718244661575678"><ele>380.0</ele><time>2026-04-18T15:04:39Z</time></trkpt><trkpt lat="37.121803044220165" lon="14.71810782358055"><ele>380.0</ele><time>2026-04-18T15:04:40Z</time></trkpt><trkpt lat="37.121798995496206" lon="14.717958300308274"><ele>380.0</ele><time>2026-04-18T15:04:41Z</time></trkpt><trkpt lat="37.121784816833056" lon="14.717803859617153"><ele>380.2</ele><time>2026-04-18T15:04:42Z</time></trkpt><trkpt lat="37.12177816323443" lon="14.717657731558083"><ele>380.4</ele><time>2026-04-18T15:04:43Z</time></trkpt><trkpt lat="37.121769421467604" lon="14.717522643758228"><ele>380.6</ele><time>2026-04-18T15:04:44Z</time></trkpt><trkpt lat="37.12176639230634" lon="14.717396548227672"><ele>380.8</ele><time>2026-04-18T15:04:45Z</time></trkpt><trkpt lat="37.12176001963603" lon="14.717293639493796"><ele>381.0</ele><time>2026-04-18T15:04:46Z</time></trkpt><trkpt lat="37.121756259315745" lon="14.717169675145641"><ele>381.0</ele><time>2026-04-18T15:04:47Z</time></trkpt><trkpt lat="37.12177276873865" lon="14.717067644661316"><ele>381.0</ele><time>2026-04-18T15:04:48Z</time></trkpt><trkpt lat="37.121782463393245" lon="14.716959742710667"><ele>381.0</ele><time>2026-04-18T15:04:49Z</time></trkpt><trkpt lat="37.12179424567761" lon="14.716801022005047"><ele>381.0</ele><time>2026-04-18T15:04:50Z</time></trkpt><trkpt lat="37.12179085931938" lon="14.716617017773233"><ele>381.0</ele><time>2026-04-18T15:04:51Z</time></trkpt><trkpt lat="37.1218005194061" lon="14.716456666836104"><ele>380.0</ele><time>2026-04-18T15:04:52Z</time></trkpt><trkpt lat="37.121801103451354" lon="14.716360355079777"><ele>379.0</ele><time>2026-04-18T15:04:53Z</time></trkpt><trkpt lat="37.12179046392467" lon="14.716255652392451"><ele>378.0</ele><time>2026-04-18T15:04:54Z</time></trkpt><trkpt lat="37.12180182067035" lon="14.71613359581748"><ele>377.0</ele><time>2026-04-18T15:04:55Z</time></trkpt><trkpt lat="37.12178604849795" lon="14.715982260587515"><ele>376.0</ele><time>2026-04-18T15:04:56Z</time></trkpt><trkpt lat="37.121778626248116" lon="14.71583296776802"><ele>375.4</ele><time>2026-04-18T15:04:57Z</time></trkpt><trkpt lat="37.121771454088055" lon="14.715691924390962"><ele>374.8</ele><time>2026-04-18T15:04:58Z</time></trkpt><trkpt lat="37.121756576473004" lon="14.715582370340828"><ele>374.2</ele><time>2026-04-18T15:04:59Z</time></trkpt><trkpt lat="37.12174838602692" lon="14.715485989514642"><ele>373.59999999999997</ele><time>2026-04-18T15:05:01Z</time></trkpt><trkpt lat="37.12176568115631" lon="14.715358522359995"><ele>373.0</ele><time>2026-04-18T15:05:52Z</time></trkpt><trkpt lat="37.12178195625915" lon="14.715211826019264"><ele>373.0</ele><time>2026-04-18T15:05:54Z</time></trkpt><trkpt lat="37.12179464307431" lon="14.715126346136223"><ele>373.0</ele><time>2026-04-18T15:05:55Z</time></trkpt><trkpt lat="37.12181382246474" lon="14.71503218758958"><ele>373.0</ele><time>2026-04-18T15:05:56Z</time></trkpt><trkpt lat="37.121840497205284" lon="14.714955352890405"><ele>373.0</ele><time>2026-04-18T15:05:57Z</time></trkpt><trkpt lat="37.12187588873875" lon="14.714806411111267"><ele>373.0</ele><time>2026-04-18T15:05:59Z</time></trkpt><trkpt lat="37.12188759713668" lon="14.714687958513803"><ele>373.0</ele><time>2026-04-18T15:06:00Z</time></trkpt><trkpt lat="37.12187616782539" lon="14.714571853675068"><ele>373.0</ele><time>2026-04-18T15:06:01Z</time></trkpt><trkpt lat="37.121846001384064" lon="14.714469550070241"><ele>373.0</ele><time>2026-04-18T15:06:02Z</time></trkpt><trkpt lat="37.12180474979909" lon="14.714392942912287"><ele>373.0</ele><time>2026-04-18T15:06:03Z</time></trkpt><trkpt lat="37.12181016876607" lon="14.714293744866"><ele>373.0</ele><time>2026-04-18T15:06:05Z</time></trkpt><trkpt lat="37.12193406287159" lon="14.71419006284705"><ele>373.0</ele><time>2026-04-18T15:06:07Z</time></trkpt><trkpt lat="37.12197500706668" lon="14.714130026940417"><ele>373.5</ele><time>2026-04-18T15:06:08Z</time></trkpt><trkpt lat="37.12201638325305" lon="14.71405237876831"><ele>374.0</ele><time>2026-04-18T15:06:09Z</time></trkpt><trkpt lat="37.122052178317674" lon="14.713946949944438"><ele>374.5</ele><time>2026-04-18T15:06:11Z</time></trkpt><trkpt lat="37.122071522168355" lon="14.713852196322813"><ele>375.0</ele><time>2026-04-18T15:06:13Z</time></trkpt><trkpt lat="37.12208537969122" lon="14.71374345667065"><ele>375.5</ele><time>2026-04-18T15:06:15Z</time></trkpt><trkpt lat="37.12208799532646" lon="14.713640502540027"><ele>376.0</ele><time>2026-04-18T15:06:17Z</time></trkpt><trkpt lat="37.12209532029638" lon="14.713526673826747"><ele>376.0</ele><time>2026-04-18T15:06:20Z</time></trkpt><trkpt lat="37.122106197390586" lon="14.713398580597238"><ele>376.0</ele><time>2026-04-18T15:06:22Z</time></trkpt><trkpt lat="37.12211014553109" lon="14.713285410898898"><ele>376.0</ele><time>2026-04-18T15:06:24Z</time></trkpt><trkpt lat="37.12212067282039" lon="14.713133588969061"><ele>376.0</ele><time>2026-04-18T15:06:26Z</time></trkpt><trkpt lat="37.12214223776776" lon="14.713052763744367"><ele>376.0</ele><time>2026-04-18T15:06:27Z</time></trkpt><trkpt lat="37.12217255713445" lon="14.712980024416648"><ele>376.0</ele><time>2026-04-18T15:06:28Z</time></trkpt><trkpt lat="37.122243726650524" lon="14.712940333722926"><ele>376.0</ele><time>2026-04-18T15:06:29Z</time></trkpt><trkpt lat="37.122300079613005" lon="14.712859299382805"><ele>376.0</ele><time>2026-04-18T15:06:30Z</time></trkpt><trkpt lat="37.122345888626" lon="14.712768831328146"><ele>376.0</ele><time>2026-04-18T15:06:31Z</time></trkpt><trkpt lat="37.12237184993929" lon="14.712675013877217"><ele>376.0</ele><time>2026-04-18T15:06:32Z</time></trkpt><trkpt lat="37.122412936593946" lon="14.712596644934713"><ele>376.0</ele><time>2026-04-18T15:06:33Z</time></trkpt><trkpt lat="37.12247385565759" lon="14.712505858747447"><ele>376.0</ele><time>2026-04-18T15:06:35Z</time></trkpt><trkpt lat="37.12250812481718" lon="14.712416717018286"><ele>376.66666666666663</ele><time>2026-04-18T15:06:37Z</time></trkpt><trkpt lat="37.12256373744451" lon="14.712345771611227"><ele>377.3333333333333</ele><time>2026-04-18T15:06:38Z</time></trkpt><trkpt lat="37.1225993442609" lon="14.71225760909814"><ele>378.0</ele><time>2026-04-18T15:06:39Z</time></trkpt><trkpt lat="37.12263888803475" lon="14.71219541714752"><ele>378.6666666666667</ele><time>2026-04-18T15:06:40Z</time></trkpt><trkpt lat="37.122669634326385" lon="14.71212089833011"><ele>379.33333333333337</ele><time>2026-04-18T15:06:41Z</time></trkpt><trkpt lat="37.1226927760076" lon="14.712023169315739"><ele>380.0</ele><time>2026-04-18T15:06:42Z</time></trkpt><trkpt lat="37.12273443698943" lon="14.711886705583769"><ele>380.0</ele><time>2026-04-18T15:06:43Z</time></trkpt><trkpt lat="37.122795633173844" lon="14.711762939441206"><ele>380.0</ele><time>2026-04-18T15:06:44Z</time></trkpt><trkpt lat="37.122841124390014" lon="14.711676193524855"><ele>380.0</ele><time>2026-04-18T15:06:45Z</time></trkpt><trkpt lat="37.12292421431859" lon="14.71156616670791"><ele>380.0</ele><time>2026-04-18T15:06:47Z</time></trkpt><trkpt lat="37.1230013824706" lon="14.711536188452193"><ele>380.0</ele><time>2026-04-18T15:06:48Z</time></trkpt><trkpt lat="37.123079972671746" lon="14.711515381894484"><ele>380.0</ele><time>2026-04-18T15:06:49Z</time></trkpt><trkpt lat="37.123186460640596" lon="14.711427028903241"><ele>380.0</ele><time>2026-04-18T15:06:51Z</time></trkpt><trkpt lat="37.12321754848239" lon="14.711339209335318"><ele>380.0</ele><time>2026-04-18T15:06:52Z</time></trkpt><trkpt lat="37.12328211795359" lon="14.711224307997279"><ele>380.0</ele><time>2026-04-18T15:06:53Z</time></trkpt><trkpt lat="37.12336148730925" lon="14.71111523557633"><ele>380.0</ele><time>2026-04-18T15:06:54Z</time></trkpt><trkpt lat="37.123431063413456" lon="14.711052857622235"><ele>376.1666666666667</ele><time>2026-04-18T15:06:55Z</time></trkpt><trkpt lat="37.12349312798637" lon="14.711010263813328"><ele>372.33333333333337</ele><time>2026-04-18T15:06:56Z</time></trkpt><trkpt lat="37.12355708224629" lon="14.710947092250196"><ele>368.5</ele><time>2026-04-18T15:06:57Z</time></trkpt><trkpt lat="37.12363187573016" lon="14.710881387434588"><ele>364.6666666666667</ele><time>2026-04-18T15:06:58Z</time></trkpt><trkpt lat="37.12369936867602" lon="14.710814061369296"><ele>360.8333333333333</ele><time>2026-04-18T15:06:59Z</time></trkpt><trkpt lat="37.12377637720442" lon="14.710753628716684"><ele>357.0</ele><time>2026-04-18T15:07:00Z</time></trkpt><trkpt lat="37.12382046434501" lon="14.710695478456469"><ele>357.0</ele><time>2026-04-18T15:07:01Z</time></trkpt><trkpt lat="37.12388096502006" lon="14.71065357385552"><ele>357.0</ele><time>2026-04-18T15:07:02Z</time></trkpt><trkpt lat="37.123953445888475" lon="14.710588749703481"><ele>357.0</ele><time>2026-04-18T15:07:03Z</time></trkpt><trkpt lat="37.12403279650858" lon="14.710545878353342"><ele>357.0</ele><time>2026-04-18T15:07:04Z</time></trkpt><trkpt lat="37.12409063678649" lon="14.71046438356436"><ele>357.0</ele><time>2026-04-18T15:07:05Z</time></trkpt><trkpt lat="37.124131537254904" lon="14.710388604393865"><ele>357.0</ele><time>2026-04-18T15:07:06Z</time></trkpt><trkpt lat="37.12415051309442" lon="14.710290420027171"><ele>356.0</ele><time>2026-04-18T15:07:07Z</time></trkpt><trkpt lat="37.124186022520064" lon="14.710175597098274"><ele>355.0</ele><time>2026-04-18T15:07:08Z</time></trkpt><trkpt lat="37.124239833096226" lon="14.710060882573245"><ele>354.0</ele><time>2026-04-18T15:07:09Z</time></trkpt><trkpt lat="37.12431972732415" lon="14.70995645068951"><ele>353.0</ele><time>2026-04-18T15:07:10Z</time></trkpt><trkpt lat="37.12438460473481" lon="14.709877718247322"><ele>352.0</ele><time>2026-04-18T15:07:11Z</time></trkpt><trkpt lat="37.12444201144796" lon="14.709808097383606"><ele>352.0</ele><time>2026-04-18T15:07:12Z</time></trkpt><trkpt lat="37.12451292128596" lon="14.709711789910621"><ele>352.0</ele><time>2026-04-18T15:07:13Z</time></trkpt><trkpt lat="37.124570392815855" lon="14.709619809591521"><ele>352.0</ele><time>2026-04-18T15:07:14Z</time></trkpt><trkpt lat="37.124629815679484" lon="14.709538070910963"><ele>352.0</ele><time>2026-04-18T15:07:15Z</time></trkpt><trkpt lat="37.124697491686625" lon="14.709448389543965"><ele>352.0</ele><time>2026-04-18T15:07:16Z</time></trkpt><trkpt lat="37.12476194437351" lon="14.709345860383962"><ele>349.8</ele><time>2026-04-18T15:07:17Z</time></trkpt><trkpt lat="37.12483108352238" lon="14.709226744166077"><ele>347.6</ele><time>2026-04-18T15:07:18Z</time></trkpt><trkpt lat="37.124899290483484" lon="14.709105889975813"><ele>345.40000000000003</ele><time>2026-04-18T15:07:19Z</time></trkpt><trkpt lat="37.12494838230899" lon="14.709019408957921"><ele>343.20000000000005</ele><time>2026-04-18T15:07:20Z</time></trkpt><trkpt lat="37.1250189419994" lon="14.708957657202262"><ele>341.0</ele><time>2026-04-18T15:07:22Z</time></trkpt><trkpt lat="37.12507526767458" lon="14.708891675524091"><ele>341.0</ele><time>2026-04-18T15:07:23Z</time></trkpt><trkpt lat="37.12514268688356" lon="14.708834047972102"><ele>341.0</ele><time>2026-04-18T15:07:24Z</time></trkpt><trkpt lat="37.125200231087504" lon="14.708771991483443"><ele>341.0</ele><time>2026-04-18T15:07:25Z</time></trkpt><trkpt lat="37.125253563810574" lon="14.708694517526565"><ele>341.0</ele><time>2026-04-18T15:07:26Z</time></trkpt><trkpt lat="37.12531190517092" lon="14.708608063065892"><ele>341.0</ele><time>2026-04-18T15:07:27Z</time></trkpt><trkpt lat="37.12535972942997" lon="14.708527741882566"><ele>341.0</ele><time>2026-04-18T15:07:28Z</time></trkpt><trkpt lat="37.12539070816468" lon="14.708433139869687"><ele>344.83333333333337</ele><time>2026-04-18T15:07:29Z</time></trkpt><trkpt lat="37.12541983325612" lon="14.708315853026857"><ele>348.6666666666667</ele><time>2026-04-18T15:07:30Z</time></trkpt><trkpt lat="37.12545458707582" lon="14.708199621725647"><ele>352.5</ele><time>2026-04-18T15:07:31Z</time></trkpt><trkpt lat="37.125489422168435" lon="14.708089829783587"><ele>356.3333333333333</ele><time>2026-04-18T15:07:32Z</time></trkpt><trkpt lat="37.125527613854985" lon="14.70801455412006"><ele>360.16666666666663</ele><time>2026-04-18T15:07:33Z</time></trkpt><trkpt lat="37.125566006609695" lon="14.707939641801941"><ele>364.0</ele><time>2026-04-18T15:07:34Z</time></trkpt><trkpt lat="37.12559449877333" lon="14.707865053269709"><ele>364.0</ele><time>2026-04-18T15:07:35Z</time></trkpt><trkpt lat="37.125635683414785" lon="14.707770079818918"><ele>364.0</ele><time>2026-04-18T15:07:36Z</time></trkpt><trkpt lat="37.1256898135513" lon="14.70766073061375"><ele>364.0</ele><time>2026-04-18T15:07:37Z</time></trkpt><trkpt lat="37.12575134410925" lon="14.707567789591925"><ele>364.0</ele><time>2026-04-18T15:07:38Z</time></trkpt><trkpt lat="37.12578446548525" lon="14.707495310452016"><ele>364.0</ele><time>2026-04-18T15:07:39Z</time></trkpt><trkpt lat="37.125768875492696" lon="14.7074121546755"><ele>364.0</ele><time>2026-04-18T15:07:41Z</time></trkpt><trkpt lat="37.12571044623466" lon="14.707321679242073"><ele>365.8333333333333</ele><time>2026-04-18T15:07:43Z</time></trkpt><trkpt lat="37.12563854117349" lon="14.707227746439107"><ele>367.66666666666663</ele><time>2026-04-18T15:07:45Z</time></trkpt><trkpt lat="37.125582159583395" lon="14.70717509252138"><ele>369.5</ele><time>2026-04-18T15:07:46Z</time></trkpt><trkpt lat="37.12552849546059" lon="14.70711518898844"><ele>371.3333333333333</ele><time>2026-04-18T15:07:47Z</time></trkpt><trkpt lat="37.12546279775569" lon="14.707063698435032"><ele>373.1666666666667</ele><time>2026-04-18T15:07:48Z</time></trkpt><trkpt lat="37.12539161618702" lon="14.707005335305686"><ele>375.0</ele><time>2026-04-18T15:07:49Z</time></trkpt><trkpt lat="37.125305085006836" lon="14.706904795747857"><ele>375.0</ele><time>2026-04-18T15:07:50Z</time></trkpt><trkpt lat="37.1252158130794" lon="14.706830041641204"><ele>375.0</ele><time>2026-04-18T15:07:51Z</time></trkpt><trkpt lat="37.125125937354305" lon="14.706736134860453"><ele>375.0</ele><time>2026-04-18T15:07:52Z</time></trkpt><trkpt lat="37.12503060792879" lon="14.706637788797174"><ele>375.0</ele><time>2026-04-18T15:07:53Z</time></trkpt><trkpt lat="37.12494833536307" lon="14.706544261111945"><ele>381.4</ele><time>2026-04-18T15:07:54Z</time></trkpt><trkpt lat="37.12486229825318" lon="14.7064372860265"><ele>387.8</ele><time>2026-04-18T15:07:55Z</time></trkpt><trkpt lat="37.124790593211195" lon="14.706332204697107"><ele>394.20000000000005</ele><time>2026-04-18T15:07:56Z</time></trkpt><trkpt lat="37.12472778216461" lon="14.706252527159403"><ele>400.6</ele><time>2026-04-18T15:07:57Z</time></trkpt><trkpt lat="37.12463070586888" lon="14.70616412188781"><ele>407.0</ele><time>2026-04-18T15:07:58Z</time></trkpt><trkpt lat="37.124486087448275" lon="14.706098955962156"><ele>407.75</ele><time>2026-04-18T15:07:59Z</time></trkpt><trkpt lat="37.12434678466252" lon="14.706026786886486"><ele>408.5</ele><time>2026-04-18T15:08:00Z</time></trkpt><trkpt lat="37.12420639075416" lon="14.705969652355426"><ele>409.25</ele><time>2026-04-18T15:08:01Z</time></trkpt><trkpt lat="37.12409431049563" lon="14.705913129921669"><ele>410.0</ele><time>2026-04-18T15:08:02Z</time></trkpt><trkpt lat="37.12398531595802" lon="14.7058598788563"><ele>410.0</ele><time>2026-04-18T15:08:03Z</time></trkpt><trkpt lat="37.123870988729266" lon="14.705813474080442"><ele>410.0</ele><time>2026-04-18T15:08:04Z</time></trkpt><trkpt lat="37.123736065662705" lon="14.70576879179918"><ele>410.0</ele><time>2026-04-18T15:08:05Z</time></trkpt><trkpt lat="37.123599945744935" lon="14.705730206368932"><ele>410.0</ele><time>2026-04-18T15:08:06Z</time></trkpt><trkpt lat="37.1234618551461" lon="14.70569929746895"><ele>410.0</ele><time>2026-04-18T15:08:07Z</time></trkpt><trkpt lat="37.1233376052653" lon="14.705682832212178"><ele>410.0</ele><time>2026-04-18T15:08:08Z</time></trkpt><trkpt lat="37.123230980095585" lon="14.705654133248398"><ele>410.0</ele><time>2026-04-18T15:08:09Z</time></trkpt><trkpt lat="37.12311308054744" lon="14.705625389325899"><ele>410.0</ele><time>2026-04-18T15:08:10Z</time></trkpt><trkpt lat="37.12298892948753" lon="14.70560288614931"><ele>412.4</ele><time>2026-04-18T15:08:11Z</time></trkpt><trkpt lat="37.12288337211477" lon="14.70559459148098"><ele>414.8</ele><time>2026-04-18T15:08:12Z</time></trkpt><trkpt lat="37.12281232733204" lon="14.705594992172236"><ele>417.20000000000005</ele><time>2026-04-18T15:08:13Z</time></trkpt><trkpt lat="37.12273392293438" lon="14.70560535473332"><ele>419.6</ele><time>2026-04-18T15:08:14Z</time></trkpt><trkpt lat="37.12265022143993" lon="14.70560779178127"><ele>422.0</ele><time>2026-04-18T15:08:15Z</time></trkpt><trkpt lat="37.122522140596786" lon="14.705616904739657"><ele>424.5</ele><time>2026-04-18T15:08:16Z</time></trkpt><trkpt lat="37.122380273573164" lon="14.70563602222249"><ele>427.0</ele><time>2026-04-18T15:08:17Z</time></trkpt><trkpt lat="37.122239463902126" lon="14.705669238354906"><ele>429.5</ele><time>2026-04-18T15:08:18Z</time></trkpt><trkpt lat="37.122119831720056" lon="14.705698968606168"><ele>432.0</ele><time>2026-04-18T15:08:19Z</time></trkpt><trkpt lat="37.12198878066775" lon="14.7057338246708"><ele>432.0</ele><time>2026-04-18T15:08:20Z</time></trkpt><trkpt lat="37.121908849450385" lon="14.705769386607361"><ele>432.0</ele><time>2026-04-18T15:08:22Z</time></trkpt><trkpt lat="37.12182018949306" lon="14.70583527337769"><ele>432.0</ele><time>2026-04-18T15:08:23Z</time></trkpt><trkpt lat="37.121738194417766" lon="14.70587407812791"><ele>432.0</ele><time>2026-04-18T15:08:24Z</time></trkpt><trkpt lat="37.121670325223455" lon="14.70589201700304"><ele>432.0</ele><time>2026-04-18T15:08:25Z</time></trkpt><trkpt lat="37.12159742916519" lon="14.705896540747489"><ele>432.0</ele><time>2026-04-18T15:08:26Z</time></trkpt><trkpt lat="37.121500947369775" lon="14.705898542273793"><ele>433.6666666666667</ele><time>2026-04-18T15:08:27Z</time></trkpt><trkpt lat="37.12141049746953" lon="14.705901364824177"><ele>435.33333333333337</ele><time>2026-04-18T15:08:28Z</time></trkpt><trkpt lat="37.121330445409114" lon="14.705921395815343"><ele>437.0</ele><time>2026-04-18T15:08:29Z</time></trkpt><trkpt lat="37.12126055972769" lon="14.70594467122915"><ele>438.6666666666667</ele><time>2026-04-18T15:08:30Z</time></trkpt><trkpt lat="37.12115109641239" lon="14.70601659374829"><ele>440.33333333333337</ele><time>2026-04-18T15:08:32Z</time></trkpt><trkpt lat="37.121096955861404" lon="14.706064890874037"><ele>442.0</ele><time>2026-04-18T15:08:33Z</time></trkpt><trkpt lat="37.121010763823044" lon="14.706146541369876"><ele>443.83333333333337</ele><time>2026-04-18T15:08:35Z</time></trkpt><trkpt lat="37.12096021090581" lon="14.706216328515355"><ele>445.6666666666667</ele><time>2026-04-18T15:08:37Z</time></trkpt><trkpt lat="37.12090377816485" lon="14.706319306379147"><ele>447.5</ele><time>2026-04-18T15:08:39Z</time></trkpt><trkpt lat="37.12085178225512" lon="14.706375360558628"><ele>449.33333333333337</ele><time>2026-04-18T15:08:40Z</time></trkpt><trkpt lat="37.12079121448668" lon="14.706439132130777"><ele>451.1666666666667</ele><time>2026-04-18T15:08:41Z</time></trkpt><trkpt lat="37.120729547737994" lon="14.706505011931998"><ele>453.0</ele><time>2026-04-18T15:08:42Z</time></trkpt><trkpt lat="37.1206527552815" lon="14.706568338758641"><ele>454.0</ele><time>2026-04-18T15:08:43Z</time></trkpt><trkpt lat="37.120588316226794" lon="14.706585176076487"><ele>454.99999999999994</ele><time>2026-04-18T15:08:44Z</time></trkpt><trkpt lat="37.1205149491489" lon="14.706585014547844"><ele>455.99999999999994</ele><time>2026-04-18T15:08:45Z</time></trkpt><trkpt lat="37.12040285648401" lon="14.706590538796988"><ele>457.0</ele><time>2026-04-18T15:08:46Z</time></trkpt><trkpt lat="37.1202966890009" lon="14.70662060596228"><ele>458.0</ele><time>2026-04-18T15:08:47Z</time></trkpt><trkpt lat="37.12020053047745" lon="14.70663009522171"><ele>457.99999999999994</ele><time>2026-04-18T15:08:48Z</time></trkpt><trkpt lat="37.12011653202075" lon="14.70665549791713"><ele>458.0</ele><time>2026-04-18T15:08:49Z</time></trkpt><trkpt lat="37.12003912484544" lon="14.706638543893368"><ele>458.0</ele><time>2026-04-18T15:08:50Z</time></trkpt><trkpt lat="37.119974098274575" lon="14.706639889276461"><ele>458.0</ele><time>2026-04-18T15:08:51Z</time></trkpt><trkpt lat="37.11988614422178" lon="14.706639623248199"><ele>457.99999999999994</ele><time>2026-04-18T15:08:52Z</time></trkpt><trkpt lat="37.11980964890213" lon="14.706632501870443"><ele>458.0</ele><time>2026-04-18T15:08:53Z</time></trkpt><trkpt lat="37.11973649057465" lon="14.706618586693418"><ele>462.2</ele><time>2026-04-18T15:08:54Z</time></trkpt><trkpt lat="37.11960848726449" lon="14.706569029499713"><ele>466.4</ele><time>2026-04-18T15:08:56Z</time></trkpt><trkpt lat="37.119483983921484" lon="14.706494855199683"><ele>470.59999999999997</ele><time>2026-04-18T15:08:58Z</time></trkpt><trkpt lat="37.119412627933485" lon="14.706461438932367"><ele>474.79999999999995</ele><time>2026-04-18T15:08:59Z</time></trkpt><trkpt lat="37.11934466508778" lon="14.706436770592326"><ele>479.0</ele><time>2026-04-18T15:09:00Z</time></trkpt><trkpt lat="37.11925818020722" lon="14.706445128874256"><ele>479.0</ele><time>2026-04-18T15:09:01Z</time></trkpt><trkpt lat="37.119179570187235" lon="14.706437764906557"><ele>479.0</ele><time>2026-04-18T15:09:02Z</time></trkpt><trkpt lat="37.11908193882983" lon="14.706435663818068"><ele>479.0</ele><time>2026-04-18T15:09:03Z</time></trkpt><trkpt lat="37.118979901864456" lon="14.706436621571232"><ele>479.0</ele><time>2026-04-18T15:09:04Z</time></trkpt><trkpt lat="37.11887565465258" lon="14.706440376674768"><ele>479.0</ele><time>2026-04-18T15:09:05Z</time></trkpt><trkpt lat="37.1187571727127" lon="14.706462089531026"><ele>481.6</ele><time>2026-04-18T15:09:06Z</time></trkpt><trkpt lat="37.11866097630963" lon="14.70647544966051"><ele>484.2</ele><time>2026-04-18T15:09:07Z</time></trkpt><trkpt lat="37.11857204202559" lon="14.706505358913377"><ele>486.80000000000007</ele><time>2026-04-18T15:09:08Z</time></trkpt><trkpt lat="37.11847437288652" lon="14.706529820828502"><ele>489.40000000000003</ele><time>2026-04-18T15:09:09Z</time></trkpt><trkpt lat="37.11838210586401" lon="14.706555726634345"><ele>492.0</ele><time>2026-04-18T15:09:10Z</time></trkpt><trkpt lat="37.11827860710369" lon="14.706568782086107"><ele>494.0</ele><time>2026-04-18T15:09:11Z</time></trkpt><trkpt lat="37.11817640935712" lon="14.706613660107944"><ele>496.0</ele><time>2026-04-18T15:09:12Z</time></trkpt><trkpt lat="37.118065856629954" lon="14.706666323679194"><ele>498.0</ele><time>2026-04-18T15:09:13Z</time></trkpt><trkpt lat="37.117944932550294" lon="14.706694938590328"><ele>500.0</ele><time>2026-04-18T15:09:14Z</time></trkpt><trkpt lat="37.11784322052767" lon="14.706723313421191"><ele>500.0</ele><time>2026-04-18T15:09:15Z</time></trkpt><trkpt lat="37.11774032539353" lon="14.706742671843559"><ele>500.0</ele><time>2026-04-18T15:09:16Z</time></trkpt><trkpt lat="37.117650269222" lon="14.706780495882352"><ele>500.0</ele><time>2026-04-18T15:09:17Z</time></trkpt><trkpt lat="37.11758131388798" lon="14.706798294179631"><ele>500.0</ele><time>2026-04-18T15:09:18Z</time></trkpt><trkpt lat="37.117490020555685" lon="14.70681998844059"><ele>500.0</ele><time>2026-04-18T15:09:19Z</time></trkpt><trkpt lat="37.1173997933137" lon="14.706856825076109"><ele>499.99999999999994</ele><time>2026-04-18T15:09:20Z</time></trkpt><trkpt lat="37.11733474293727" lon="14.706839619498538"><ele>500.0</ele><time>2026-04-18T15:09:21Z</time></trkpt><trkpt lat="37.117256741296835" lon="14.706800429865849"><ele>500.0</ele><time>2026-04-18T15:09:23Z</time></trkpt><trkpt lat="37.11725467377168" lon="14.706719547918945"><ele>500.0</ele><time>2026-04-18T15:09:25Z</time></trkpt><trkpt lat="37.117337990056065" lon="14.706665003234027"><ele>499.99999999999994</ele><time>2026-04-18T15:09:28Z</time></trkpt><trkpt lat="37.11739192398236" lon="14.706589086487059"><ele>500.0</ele><time>2026-04-18T15:20:42Z</time></trkpt><trkpt lat="37.11741266046924" lon="14.70647139290258"><ele>499.99999999999994</ele><time>2026-04-18T15:20:46Z</time></trkpt><trkpt lat="37.11739327970047" lon="14.706393370180914"><ele>500.0</ele><time>2026-04-18T15:20:48Z</time></trkpt><trkpt lat="37.11744409307491" lon="14.706304470131707"><ele>500.0</ele><time>2026-04-18T15:20:50Z</time></trkpt><trkpt lat="37.11754794169034" lon="14.706278326294008"><ele>500.0</ele><time>2026-04-18T15:20:52Z</time></trkpt><trkpt lat="37.11763274259975" lon="14.706294859166379"><ele>499.99999999999994</ele><time>2026-04-18T15:20:54Z</time></trkpt><trkpt lat="37.11770688206762" lon="14.70630326088662"><ele>500.0</ele><time>2026-04-18T15:20:55Z</time></trkpt><trkpt lat="37.11777908457156" lon="14.706302801521518"><ele>499.99999999999994</ele><time>2026-04-18T15:20:56Z</time></trkpt><trkpt lat="37.11784663588528" lon="14.706231868246158"><ele>500.0</ele><time>2026-04-18T15:20:57Z</time></trkpt><trkpt lat="37.11792636207898" lon="14.70613951593266"><ele>500.0</ele><time>2026-04-18T15:20:59Z</time></trkpt><trkpt lat="37.11797551784642" lon="14.706080427054836"><ele>500.0</ele><time>2026-04-18T15:21:00Z</time></trkpt><trkpt lat="37.11802352548011" lon="14.706023181383387"><ele>499.99999999999994</ele><time>2026-04-18T15:21:01Z</time></trkpt><trkpt lat="37.1180771394217" lon="14.705966579389349"><ele>500.0</ele><time>2026-04-18T15:21:02Z</time></trkpt><trkpt lat="37.118143487157845" lon="14.70592369736445"><ele>501.6</ele><time>2026-04-18T15:21:03Z</time></trkpt><trkpt lat="37.1182162068948" lon="14.705872154005958"><ele>503.2</ele><time>2026-04-18T15:21:04Z</time></trkpt><trkpt lat="37.11831710611877" lon="14.705817135967457"><ele>504.79999999999995</ele><time>2026-04-18T15:21:05Z</time></trkpt><trkpt lat="37.11842098987353" lon="14.705762651487927"><ele>506.4</ele><time>2026-04-18T15:21:06Z</time></trkpt><trkpt lat="37.118495872535156" lon="14.7057292169991"><ele>508.0</ele><time>2026-04-18T15:21:07Z</time></trkpt><trkpt lat="37.11856518532404" lon="14.705703848759558"><ele>508.00000000000006</ele><time>2026-04-18T15:21:08Z</time></trkpt><trkpt lat="37.11864940342927" lon="14.705673656614865"><ele>508.0</ele><time>2026-04-18T15:21:09Z</time></trkpt><trkpt lat="37.11873120629618" lon="14.705645136519855"><ele>508.0</ele><time>2026-04-18T15:21:10Z</time></trkpt><trkpt lat="37.11879546376684" lon="14.705602695319072"><ele>508.0</ele><time>2026-04-18T15:21:11Z</time></trkpt><trkpt lat="37.118891951072" lon="14.705586038248338"><ele>508.00000000000006</ele><time>2026-04-18T15:21:12Z</time></trkpt><trkpt lat="37.11899025704236" lon="14.705563785477285"><ele>508.0</ele><time>2026-04-18T15:21:13Z</time></trkpt><trkpt lat="37.119080608596676" lon="14.705507331422254"><ele>504.75</ele><time>2026-04-18T15:21:14Z</time></trkpt><trkpt lat="37.11916543076015" lon="14.70546873817671"><ele>501.5</ele><time>2026-04-18T15:21:15Z</time></trkpt><trkpt lat="37.11926693929456" lon="14.705387823341718"><ele>498.25</ele><time>2026-04-18T15:21:16Z</time></trkpt><trkpt lat="37.119384262447355" lon="14.705324565144037"><ele>495.0</ele><time>2026-04-18T15:21:17Z</time></trkpt><trkpt lat="37.11948610558777" lon="14.705246948156818"><ele>499.6666666666667</ele><time>2026-04-18T15:21:18Z</time></trkpt><trkpt lat="37.1195659229964" lon="14.705188889248863"><ele>504.33333333333337</ele><time>2026-04-18T15:21:19Z</time></trkpt><trkpt lat="37.1196501277961" lon="14.705129351610287"><ele>509.0</ele><time>2026-04-18T15:21:20Z</time></trkpt><trkpt lat="37.1197060794565" lon="14.705061218353347"><ele>513.6666666666667</ele><time>2026-04-18T15:21:21Z</time></trkpt><trkpt lat="37.11973767347792" lon="14.704955253236315"><ele>518.3333333333334</ele><time>2026-04-18T15:21:23Z</time></trkpt><trkpt lat="37.11971102877374" lon="14.704858549506767"><ele>523.0</ele><time>2026-04-18T15:21:25Z</time></trkpt><trkpt lat="37.11962974921197" lon="14.70478771191808"><ele>523.0</ele><time>2026-04-18T15:21:27Z</time></trkpt><trkpt lat="37.11954711492199" lon="14.704677788564375"><ele>523.0</ele><time>2026-04-18T15:21:29Z</time></trkpt><trkpt lat="37.119422010212" lon="14.704606839652984"><ele>523.0</ele><time>2026-04-18T15:21:31Z</time></trkpt><trkpt lat="37.11933970976121" lon="14.704570827973097"><ele>523.0</ele><time>2026-04-18T15:21:32Z</time></trkpt><trkpt lat="37.11925804335271" lon="14.70454358372213"><ele>523.0</ele><time>2026-04-18T15:21:33Z</time></trkpt><trkpt lat="37.11917049785726" lon="14.704534253615103"><ele>523.0</ele><time>2026-04-18T15:21:34Z</time></trkpt><trkpt lat="37.11906764505225" lon="14.70448192883284"><ele>523.0</ele><time>2026-04-18T15:21:35Z</time></trkpt><trkpt lat="37.11897329480543" lon="14.704446126804562"><ele>523.0</ele><time>2026-04-18T15:21:36Z</time></trkpt><trkpt lat="37.11890160855012" lon="14.704416132347678"><ele>523.0</ele><time>2026-04-18T15:21:37Z</time></trkpt><trkpt lat="37.11882676252559" lon="14.704353199688192"><ele>523.0</ele><time>2026-04-18T15:21:39Z</time></trkpt><trkpt lat="37.11877658081851" lon="14.704296344439681"><ele>523.0</ele><time>2026-04-18T15:21:42Z</time></trkpt><trkpt lat="37.11868661724602" lon="14.704205306439578"><ele>526.6</ele><time>2026-04-18T15:21:46Z</time></trkpt><trkpt lat="37.11859652962351" lon="14.704092783291214"><ele>530.1999999999999</ele><time>2026-04-18T15:21:48Z</time></trkpt><trkpt lat="37.11854862340328" lon="14.704035234825014"><ele>533.8</ele><time>2026-04-18T15:21:49Z</time></trkpt><trkpt lat="37.118465311360914" lon="14.703947554436764"><ele>537.4</ele><time>2026-04-18T15:21:51Z</time></trkpt><trkpt lat="37.1184100192496" lon="14.703871545270275"><ele>541.0</ele><time>2026-04-18T15:21:52Z</time></trkpt><trkpt lat="37.11833400362412" lon="14.703796333498246"><ele>541.0</ele><time>2026-04-18T15:21:53Z</time></trkpt><trkpt lat="37.11828516590704" lon="14.703715778873391"><ele>541.0</ele><time>2026-04-18T15:21:54Z</time></trkpt><trkpt lat="37.11822534847963" lon="14.703661323457641"><ele>541.0</ele><time>2026-04-18T15:21:55Z</time></trkpt><trkpt lat="37.11816603468943" lon="14.703634814702584"><ele>541.0</ele><time>2026-04-18T15:21:56Z</time></trkpt><trkpt lat="37.11805688743982" lon="14.703614995765069"><ele>541.0</ele><time>2026-04-18T15:21:58Z</time></trkpt><trkpt lat="37.11797581945647" lon="14.703613862564461"><ele>541.0</ele><time>2026-04-18T15:21:59Z</time></trkpt><trkpt lat="37.11789763412787" lon="14.703610380271753"><ele>546.2</ele><time>2026-04-18T15:22:00Z</time></trkpt><trkpt lat="37.1178172024451" lon="14.703591137923233"><ele>551.4000000000001</ele><time>2026-04-18T15:22:02Z</time></trkpt><trkpt lat="37.117801703208606" lon="14.703770047513562"><ele>556.6</ele><time>2026-04-18T15:22:05Z</time></trkpt><trkpt lat="37.11787613491857" lon="14.70378629495712"><ele>561.8000000000001</ele><time>2026-04-18T15:22:34Z</time></trkpt><trkpt lat="37.11796521830336" lon="14.7038292836191"><ele>567.0</ele><time>2026-04-18T15:22:36Z</time></trkpt><trkpt lat="37.118032893548026" lon="14.703862038661589"><ele>567.0</ele><time>2026-04-18T15:22:37Z</time></trkpt><trkpt lat="37.11810633452186" lon="14.703900571177881"><ele>567.0</ele><time>2026-04-18T15:22:38Z</time></trkpt><trkpt lat="37.118191281862174" lon="14.703959554844271"><ele>567.0</ele><time>2026-04-18T15:22:39Z</time></trkpt><trkpt lat="37.11827655332315" lon="14.704043288884968"><ele>567.0</ele><time>2026-04-18T15:22:40Z</time></trkpt><trkpt lat="37.118337695932496" lon="14.704117936218118"><ele>567.0</ele><time>2026-04-18T15:22:41Z</time></trkpt><trkpt lat="37.11840266258751" lon="14.704220039500614"><ele>565.6</ele><time>2026-04-18T15:22:43Z</time></trkpt><trkpt lat="37.11841472613113" lon="14.704321645162555"><ele>564.2</ele><time>2026-04-18T15:22:45Z</time></trkpt><trkpt lat="37.11834414872172" lon="14.704455534070192"><ele>562.8</ele><time>2026-04-18T15:22:47Z</time></trkpt><trkpt lat="37.118300375241674" lon="14.70455584295659"><ele>561.4</ele><time>2026-04-18T15:22:48Z</time></trkpt><trkpt lat="37.11826360663378" lon="14.704672305982548"><ele>560.0</ele><time>2026-04-18T15:22:49Z</time></trkpt><trkpt lat="37.1182257828911" lon="14.704748499327803"><ele>560.0</ele><time>2026-04-18T15:22:50Z</time></trkpt><trkpt lat="37.11814989012408" lon="14.704853271264776"><ele>560.0</ele><time>2026-04-18T15:22:52Z</time></trkpt><trkpt lat="37.11806667874677" lon="14.704980527718632"><ele>560.0</ele><time>2026-04-18T15:22:54Z</time></trkpt><trkpt lat="37.118001451275276" lon="14.705069419602552"><ele>560.0</ele><time>2026-04-18T15:22:55Z</time></trkpt><trkpt lat="37.11793162238401" lon="14.7051369676841"><ele>560.0</ele><time>2026-04-18T15:22:56Z</time></trkpt><trkpt lat="37.117863662838154" lon="14.705198270343415"><ele>555.4</ele><time>2026-04-18T15:22:57Z</time></trkpt><trkpt lat="37.117780346462744" lon="14.705254861120057"><ele>550.8</ele><time>2026-04-18T15:22:58Z</time></trkpt><trkpt lat="37.11767425107219" lon="14.705294795896114"><ele>546.2</ele><time>2026-04-18T15:22:59Z</time></trkpt><trkpt lat="37.117566869341" lon="14.705326074547862"><ele>541.6</ele><time>2026-04-18T15:23:00Z</time></trkpt><trkpt lat="37.117474336675016" lon="14.705332153655206"><ele>537.0</ele><time>2026-04-18T15:23:01Z</time></trkpt><trkpt lat="37.11737179230614" lon="14.705341900254387"><ele>537.0</ele><time>2026-04-18T15:23:02Z</time></trkpt><trkpt lat="37.11696930660378" lon="14.705409539212736"><ele>537.0</ele><time>2026-04-18T15:23:06Z</time></trkpt><trkpt lat="37.11684680842929" lon="14.70545456136587"><ele>537.0</ele><time>2026-04-18T15:23:07Z</time></trkpt><trkpt lat="37.11673604338809" lon="14.705448262493677"><ele>537.0</ele><time>2026-04-18T15:23:08Z</time></trkpt><trkpt lat="37.116619039123094" lon="14.705461389794943"><ele>537.0</ele><time>2026-04-18T15:23:09Z</time></trkpt><trkpt lat="37.11650193715512" lon="14.705470500672435"><ele>537.0</ele><time>2026-04-18T15:23:10Z</time></trkpt><trkpt lat="37.11638148208063" lon="14.70547407703914"><ele>541.3333333333334</ele><time>2026-04-18T15:23:11Z</time></trkpt><trkpt lat="37.11629113306288" lon="14.705476759547436"><ele>545.6666666666666</ele><time>2026-04-18T15:23:12Z</time></trkpt><trkpt lat="37.11622046498588" lon="14.70549628913357"><ele>550.0</ele><time>2026-04-18T15:23:13Z</time></trkpt><trkpt lat="37.11611717172024" lon="14.70549305150504"><ele>554.3333333333333</ele><time>2026-04-18T15:23:15Z</time></trkpt><trkpt lat="37.11605460607051" lon="14.705523184506275"><ele>558.6666666666666</ele><time>2026-04-18T15:23:16Z</time></trkpt><trkpt lat="37.11597157632872" lon="14.705550108923967"><ele>563.0</ele><time>2026-04-18T15:23:17Z</time></trkpt><trkpt lat="37.11590065513334" lon="14.70558059399263"><ele>563.0</ele><time>2026-04-18T15:23:18Z</time></trkpt><trkpt lat="37.11580702781458" lon="14.705606100198624"><ele>563.0</ele><time>2026-04-18T15:23:19Z</time></trkpt><trkpt lat="37.11571520715679" lon="14.705623200805068"><ele>563.0</ele><time>2026-04-18T15:23:20Z</time></trkpt><trkpt lat="37.115630126122845" lon="14.705658762700764"><ele>563.0</ele><time>2026-04-18T15:23:21Z</time></trkpt><trkpt lat="37.11555034285462" lon="14.705657268019676"><ele>563.0</ele><time>2026-04-18T15:23:22Z</time></trkpt><trkpt lat="37.115486094216436" lon="14.705656735370743"><ele>563.0</ele><time>2026-04-18T15:23:23Z</time></trkpt><trkpt lat="37.115419035348495" lon="14.70569052246669"><ele>567.1666666666666</ele><time>2026-04-18T15:23:24Z</time></trkpt><trkpt lat="37.11532034648127" lon="14.705772273412663"><ele>571.3333333333333</ele><time>2026-04-18T15:23:26Z</time></trkpt><trkpt lat="37.11526151005895" lon="14.705815839578326"><ele>575.5</ele><time>2026-04-18T15:23:27Z</time></trkpt><trkpt lat="37.11521005882711" lon="14.705878499300914"><ele>579.6666666666666</ele><time>2026-04-18T15:23:29Z</time></trkpt><trkpt lat="37.11514607888836" lon="14.705950054100594"><ele>583.8333333333334</ele><time>2026-04-18T15:23:31Z</time></trkpt><trkpt lat="37.11509543544284" lon="14.706013731954851"><ele>588.0</ele><time>2026-04-18T15:23:32Z</time></trkpt><trkpt lat="37.11505609740388" lon="14.706089512465189"><ele>588.0</ele><time>2026-04-18T15:23:33Z</time></trkpt><trkpt lat="37.11508435337747" lon="14.706238539378836"><ele>588.0</ele><time>2026-04-18T15:23:35Z</time></trkpt><trkpt lat="37.11514175203626" lon="14.706280185373046"><ele>588.0</ele><time>2026-04-18T15:23:36Z</time></trkpt><trkpt lat="37.115190360633385" lon="14.70633656240381"><ele>588.0</ele><time>2026-04-18T15:23:37Z</time></trkpt><trkpt lat="37.11529241276271" lon="14.706434499927648"><ele>588.0</ele><time>2026-04-18T15:23:39Z</time></trkpt><trkpt lat="37.11537595657578" lon="14.706516249767532"><ele>588.0</ele><time>2026-04-18T15:23:41Z</time></trkpt><trkpt lat="37.11540007732644" lon="14.706620554019338"><ele>588.0</ele><time>2026-04-18T15:23:43Z</time></trkpt><trkpt lat="37.115321274808345" lon="14.7067468101129"><ele>588.0</ele><time>2026-04-18T15:23:46Z</time></trkpt><trkpt lat="37.11525780943839" lon="14.706807837709528"><ele>588.0</ele><time>2026-04-18T15:23:47Z</time></trkpt><trkpt lat="37.11515180553309" lon="14.706893435187206"><ele>588.0</ele><time>2026-04-18T15:23:49Z</time></trkpt><trkpt lat="37.115095358918126" lon="14.70695930631273"><ele>590.5</ele><time>2026-04-18T15:23:50Z</time></trkpt><trkpt lat="37.115020151933386" lon="14.70699791218863"><ele>593.0</ele><time>2026-04-18T15:23:51Z</time></trkpt><trkpt lat="37.114949132571795" lon="14.707054271402935"><ele>595.5</ele><time>2026-04-18T15:23:52Z</time></trkpt><trkpt lat="37.11487869540579" lon="14.707110168566986"><ele>598.0</ele><time>2026-04-18T15:23:53Z</time></trkpt><trkpt lat="37.114807690301596" lon="14.707191899696662"><ele>600.5</ele><time>2026-04-18T15:23:54Z</time></trkpt><trkpt lat="37.114743668569616" lon="14.70724716648525"><ele>603.0</ele><time>2026-04-18T15:23:55Z</time></trkpt><trkpt lat="37.1146700901373" lon="14.707295706157012"><ele>603.0</ele><time>2026-04-18T15:23:56Z</time></trkpt><trkpt lat="37.114579004348826" lon="14.707397749932722"><ele>603.0</ele><time>2026-04-18T15:23:58Z</time></trkpt><trkpt lat="37.1145221380196" lon="14.707446264228576"><ele>603.0</ele><time>2026-04-18T15:23:59Z</time></trkpt><trkpt lat="37.11446704878823" lon="14.707511480289309"><ele>603.0</ele><time>2026-04-18T15:24:00Z</time></trkpt><trkpt lat="37.1143548545769" lon="14.70760046683077"><ele>603.0</ele><time>2026-04-18T15:24:02Z</time></trkpt><trkpt lat="37.11426833822116" lon="14.707664037818747"><ele>603.0</ele><time>2026-04-18T15:24:03Z</time></trkpt><trkpt lat="37.11417632023786" lon="14.707724298590078"><ele>603.0</ele><time>2026-04-18T15:24:04Z</time></trkpt><trkpt lat="37.11408528510012" lon="14.707771522103924"><ele>603.0</ele><time>2026-04-18T15:24:05Z</time></trkpt><trkpt lat="37.11399384892933" lon="14.707804224665399"><ele>603.0</ele><time>2026-04-18T15:24:06Z</time></trkpt><trkpt lat="37.113881914467264" lon="14.707854155460806"><ele>603.0</ele><time>2026-04-18T15:24:07Z</time></trkpt><trkpt lat="37.11376251209294" lon="14.707901663418864"><ele>604.4</ele><time>2026-04-18T15:24:08Z</time></trkpt><trkpt lat="37.113649063167706" lon="14.707939003064624"><ele>605.8</ele><time>2026-04-18T15:24:09Z</time></trkpt><trkpt lat="37.113534987255555" lon="14.70800093780473"><ele>607.2</ele><time>2026-04-18T15:24:10Z</time></trkpt><trkpt lat="37.11342588051607" lon="14.708052540036082"><ele>608.6</ele><time>2026-04-18T15:24:11Z</time></trkpt><trkpt lat="37.113347806094" lon="14.708106231089983"><ele>610.0</ele><time>2026-04-18T15:24:12Z</time></trkpt><trkpt lat="37.11326164697081" lon="14.708133233563784"><ele>614.6666666666667</ele><time>2026-04-18T15:24:13Z</time></trkpt><trkpt lat="37.1131902283197" lon="14.708168865684929"><ele>619.3333333333334</ele><time>2026-04-18T15:24:14Z</time></trkpt><trkpt lat="37.11312078007577" lon="14.708197184267842"><ele>624.0</ele><time>2026-04-18T15:24:15Z</time></trkpt><trkpt lat="37.113035049841216" lon="14.708255261407366"><ele>628.6666666666666</ele><time>2026-04-18T15:24:16Z</time></trkpt><trkpt lat="37.11295648431234" lon="14.708289144663322"><ele>633.3333333333333</ele><time>2026-04-18T15:24:17Z</time></trkpt><trkpt lat="37.112882779877445" lon="14.708350653096645"><ele>638.0</ele><time>2026-04-18T15:24:18Z</time></trkpt><trkpt lat="37.11280070450944" lon="14.708358958721009"><ele>638.0</ele><time>2026-04-18T15:24:19Z</time></trkpt><trkpt lat="37.11273451593356" lon="14.70837122305876"><ele>638.0</ele><time>2026-04-18T15:24:20Z</time></trkpt><trkpt lat="37.11263093742028" lon="14.708396115579932"><ele>638.0</ele><time>2026-04-18T15:24:21Z</time></trkpt><trkpt lat="37.11250919041385" lon="14.70842869801559"><ele>638.0</ele><time>2026-04-18T15:24:22Z</time></trkpt><trkpt lat="37.11243423754949" lon="14.708465754829886"><ele>638.0</ele><time>2026-04-18T15:24:23Z</time></trkpt><trkpt lat="37.112373544076675" lon="14.70853759182948"><ele>638.8</ele><time>2026-04-18T15:24:25Z</time></trkpt><trkpt lat="37.11238313191399" lon="14.708658732807935"><ele>639.5999999999999</ele><time>2026-04-18T15:24:27Z</time></trkpt><trkpt lat="37.11244340437425" lon="14.708753753058565"><ele>640.4000000000001</ele><time>2026-04-18T15:24:29Z</time></trkpt><trkpt lat="37.11251611573952" lon="14.708848342646567"><ele>641.2</ele><time>2026-04-18T15:24:32Z</time></trkpt><trkpt lat="37.11262168563912" lon="14.708936742847525"><ele>642.0</ele><time>2026-04-18T15:24:34Z</time></trkpt><trkpt lat="37.11273518973946" lon="14.70900300329814"><ele>642.0</ele><time>2026-04-18T15:24:36Z</time></trkpt><trkpt lat="37.11281753572088" lon="14.709064337841621"><ele>642.0</ele><time>2026-04-18T15:24:38Z</time></trkpt><trkpt lat="37.11287042597139" lon="14.709156171050756"><ele>642.0</ele><time>2026-04-18T15:24:40Z</time></trkpt><trkpt lat="37.1129243987797" lon="14.709268322531585"><ele>642.0</ele><time>2026-04-18T15:24:42Z</time></trkpt><trkpt lat="37.11298959197184" lon="14.709324742022039"><ele>642.0</ele><time>2026-04-18T15:24:43Z</time></trkpt><trkpt lat="37.11310426185511" lon="14.709382919149785"><ele>642.0</ele><time>2026-04-18T15:24:45Z</time></trkpt><trkpt lat="37.11317369322407" lon="14.709351166617493"><ele>642.0</ele><time>2026-04-18T15:24:46Z</time></trkpt><trkpt lat="37.113241140035" lon="14.709318715401018"><ele>642.0</ele><time>2026-04-18T15:24:47Z</time></trkpt><trkpt lat="37.11331892808893" lon="14.709311336364467"><ele>642.0</ele><time>2026-04-18T15:24:48Z</time></trkpt><trkpt lat="37.113405338467466" lon="14.709293178703968"><ele>642.0</ele><time>2026-04-18T15:24:49Z</time></trkpt><trkpt lat="37.11351743379788" lon="14.709321601592487"><ele>642.0</ele><time>2026-04-18T15:24:51Z</time></trkpt><trkpt lat="37.11358283180912" lon="14.70934407023377"><ele>638.6666666666666</ele><time>2026-04-18T15:24:52Z</time></trkpt><trkpt lat="37.11366566043911" lon="14.70935802586188"><ele>635.3333333333334</ele><time>2026-04-18T15:24:53Z</time></trkpt><trkpt lat="37.1137572848209" lon="14.709394844142542"><ele>632.0</ele><time>2026-04-18T15:24:54Z</time></trkpt><trkpt lat="37.11381641650952" lon="14.709442098116824"><ele>628.6666666666667</ele><time>2026-04-18T15:24:55Z</time></trkpt><trkpt lat="37.113896716606625" lon="14.709464624802072"><ele>625.3333333333334</ele><time>2026-04-18T15:24:56Z</time></trkpt><trkpt lat="37.11395725142503" lon="14.709493882159045"><ele>622.0</ele><time>2026-04-18T15:24:57Z</time></trkpt><trkpt lat="37.11403289544275" lon="14.709585507539941"><ele>625.8333333333334</ele><time>2026-04-18T15:24:59Z</time></trkpt><trkpt lat="37.114080101563566" lon="14.709653209619747"><ele>629.6666666666667</ele><time>2026-04-18T15:25:00Z</time></trkpt><trkpt lat="37.1141353466766" lon="14.709726912131838"><ele>633.5</ele><time>2026-04-18T15:25:01Z</time></trkpt><trkpt lat="37.11418993446466" lon="14.709797060009713"><ele>637.3333333333334</ele><time>2026-04-18T15:25:02Z</time></trkpt><trkpt lat="37.114255232627926" lon="14.709871314886282"><ele>641.1666666666666</ele><time>2026-04-18T15:25:03Z</time></trkpt><trkpt lat="37.11432172045374" lon="14.709913740675985"><ele>645.0</ele><time>2026-04-18T15:25:04Z</time></trkpt><trkpt lat="37.11437721983902" lon="14.709953652166465"><ele>645.0</ele><time>2026-04-18T15:25:05Z</time></trkpt><trkpt lat="37.11450628296503" lon="14.709927181695763"><ele>645.0</ele><time>2026-04-18T15:25:07Z</time></trkpt><trkpt lat="37.11458508359803" lon="14.709881839925362"><ele>645.0</ele><time>2026-04-18T15:25:08Z</time></trkpt><trkpt lat="37.114688631829786" lon="14.709855084426207"><ele>645.0</ele><time>2026-04-18T15:25:09Z</time></trkpt><trkpt lat="37.1147659116882" lon="14.70984069536696"><ele>645.0</ele><time>2026-04-18T15:25:10Z</time></trkpt><trkpt lat="37.11491812046889" lon="14.70988202997048"><ele>645.2</ele><time>2026-04-18T15:25:12Z</time></trkpt><trkpt lat="37.11502305989806" lon="14.709902653649731"><ele>645.4</ele><time>2026-04-18T15:25:13Z</time></trkpt><trkpt lat="37.115104816052416" lon="14.709885715717101"><ele>645.5999999999999</ele><time>2026-04-18T15:25:14Z</time></trkpt><trkpt lat="37.115187127187454" lon="14.709852642290594"><ele>645.8</ele><time>2026-04-18T15:25:16Z</time></trkpt><trkpt lat="37.11529777947657" lon="14.709764141141243"><ele>646.0</ele><time>2026-04-18T15:25:18Z</time></trkpt><trkpt lat="37.11539163849982" lon="14.709689425123742"><ele>646.0</ele><time>2026-04-18T15:25:19Z</time></trkpt><trkpt lat="37.11547438153813" lon="14.709624763162582"><ele>646.0</ele><time>2026-04-18T15:25:20Z</time></trkpt><trkpt lat="37.11554873501327" lon="14.70957746534443"><ele>646.0</ele><time>2026-04-18T15:25:21Z</time></trkpt><trkpt lat="37.115646435936156" lon="14.70955008016837"><ele>646.0</ele><time>2026-04-18T15:25:22Z</time></trkpt><trkpt lat="37.11574145660645" lon="14.709553586168447"><ele>646.0</ele><time>2026-04-18T15:25:23Z</time></trkpt><trkpt lat="37.11581057928378" lon="14.709561314320737"><ele>646.0</ele><time>2026-04-18T15:25:24Z</time></trkpt><trkpt lat="37.115887870821375" lon="14.70962524250027"><ele>647.6666666666667</ele><time>2026-04-18T15:25:26Z</time></trkpt><trkpt lat="37.11593721734391" lon="14.709721481102312"><ele>649.3333333333334</ele><time>2026-04-18T15:25:35Z</time></trkpt><trkpt lat="37.11598592976814" lon="14.70980017999893"><ele>651.0</ele><time>2026-04-18T15:25:36Z</time></trkpt><trkpt lat="37.11603606770424" lon="14.709885634669721"><ele>652.6666666666666</ele><time>2026-04-18T15:25:37Z</time></trkpt><trkpt lat="37.116099141578694" lon="14.709948715320639"><ele>654.3333333333333</ele><time>2026-04-18T15:25:38Z</time></trkpt><trkpt lat="37.11614840566093" lon="14.710034027537189"><ele>656.0</ele><time>2026-04-18T15:25:39Z</time></trkpt><trkpt lat="37.11622263092626" lon="14.710100725563267"><ele>656.0</ele><time>2026-04-18T15:25:40Z</time></trkpt><trkpt lat="37.1162864569627" lon="14.71013427598238"><ele>656.0</ele><time>2026-04-18T15:25:41Z</time></trkpt><trkpt lat="37.11640619771679" lon="14.710111022872145"><ele>656.0</ele><time>2026-04-18T15:25:43Z</time></trkpt><trkpt lat="37.11647968407224" lon="14.710083715354362"><ele>656.0</ele><time>2026-04-18T15:25:44Z</time></trkpt><trkpt lat="37.11655156194466" lon="14.710050951478985"><ele>656.0</ele><time>2026-04-18T15:25:45Z</time></trkpt><trkpt lat="37.11663158818665" lon="14.710004710026423"><ele>656.0</ele><time>2026-04-18T15:25:47Z</time></trkpt><trkpt lat="37.11670129307742" lon="14.709982440244124"><ele>654.1666666666666</ele><time>2026-04-18T15:25:50Z</time></trkpt><trkpt lat="37.116637510613536" lon="14.709988513514647"><ele>652.3333333333333</ele><time>2026-04-18T15:26:50Z</time></trkpt><trkpt lat="37.11660105589745" lon="14.709886198491953"><ele>650.5</ele><time>2026-04-18T15:26:58Z</time></trkpt><trkpt lat="37.116652621973365" lon="14.709947941502493"><ele>648.6666666666666</ele><time>2026-04-18T15:30:04Z</time></trkpt><trkpt lat="37.11672095003014" lon="14.70992598886514"><ele>646.8333333333334</ele><time>2026-04-18T15:30:14Z</time></trkpt><trkpt lat="37.11681443976741" lon="14.709895645346656"><ele>645.0</ele><time>2026-04-18T15:31:39Z</time></trkpt><trkpt lat="37.116889425013035" lon="14.709871220603787"><ele>645.0</ele><time>2026-04-18T15:31:44Z</time></trkpt><trkpt lat="37.11696091951117" lon="14.709931558872077"><ele>645.0</ele><time>2026-04-18T15:31:48Z</time></trkpt><trkpt lat="37.116991161943325" lon="14.710022006255128"><ele>645.0</ele><time>2026-04-18T15:31:51Z</time></trkpt><trkpt lat="37.11702154230955" lon="14.71013591575756"><ele>645.0</ele><time>2026-04-18T15:31:53Z</time></trkpt><trkpt lat="37.11688799805394" lon="14.710264571362684"><ele>645.0</ele><time>2026-04-18T15:31:54Z</time></trkpt><trkpt lat="37.11688239055485" lon="14.710358059562646"><ele>643.0</ele><time>2026-04-18T15:31:56Z</time></trkpt><trkpt lat="37.11683914053087" lon="14.710476960585574"><ele>641.0</ele><time>2026-04-18T15:31:59Z</time></trkpt><trkpt lat="37.11677326235866" lon="14.710510169259967"><ele>639.0</ele><time>2026-04-18T15:32:02Z</time></trkpt><trkpt lat="37.11668535922572" lon="14.710543037577985"><ele>637.0</ele><time>2026-04-18T15:32:06Z</time></trkpt><trkpt lat="37.11660801012129" lon="14.710572928569956"><ele>635.0</ele><time>2026-04-18T15:32:08Z</time></trkpt><trkpt lat="37.116456880414475" lon="14.710628253045066"><ele>634.6</ele><time>2026-04-18T15:32:09Z</time></trkpt><trkpt lat="37.11637333820909" lon="14.710693548338856"><ele>634.2</ele><time>2026-04-18T15:32:10Z</time></trkpt><trkpt lat="37.11630555599408" lon="14.71074575565044"><ele>633.8</ele><time>2026-04-18T15:32:11Z</time></trkpt><trkpt lat="37.11620667338592" lon="14.710829817386047"><ele>633.4</ele><time>2026-04-18T15:32:13Z</time></trkpt><trkpt lat="37.116137994395004" lon="14.710924133933423"><ele>633.0</ele><time>2026-04-18T15:32:15Z</time></trkpt><trkpt lat="37.11641161448233" lon="14.7116802089837"><ele>633.0</ele><time>2026-04-18T15:32:16Z</time></trkpt><trkpt lat="37.11641611799741" lon="14.711790960996467"><ele>633.0</ele><time>2026-04-18T15:32:17Z</time></trkpt><trkpt lat="37.116415025938636" lon="14.711911207587635"><ele>633.0</ele><time>2026-04-18T15:32:18Z</time></trkpt><trkpt lat="37.11641929092984" lon="14.712010355858983"><ele>633.0</ele><time>2026-04-18T15:32:19Z</time></trkpt><trkpt lat="37.11642461579269" lon="14.712136242598365"><ele>633.0</ele><time>2026-04-18T15:32:20Z</time></trkpt><trkpt lat="37.11642448938754" lon="14.71222963561586"><ele>633.0</ele><time>2026-04-18T15:32:21Z</time></trkpt><trkpt lat="37.116363553445936" lon="14.712327990186067"><ele>627.0</ele><time>2026-04-18T15:32:23Z</time></trkpt><trkpt lat="37.11630059592779" lon="14.712327270998223"><ele>621.0</ele><time>2026-04-18T15:32:24Z</time></trkpt><trkpt lat="37.11623726960466" lon="14.712295446748351"><ele>615.0</ele><time>2026-04-18T15:32:25Z</time></trkpt><trkpt lat="37.116141283102095" lon="14.712269496213139"><ele>609.0</ele><time>2026-04-18T15:32:26Z</time></trkpt><trkpt lat="37.116043127494194" lon="14.712267568177417"><ele>603.0</ele><time>2026-04-18T15:32:27Z</time></trkpt><trkpt lat="37.11593618029555" lon="14.712298083923086"><ele>597.0</ele><time>2026-04-18T15:32:28Z</time></trkpt><trkpt lat="37.115827606655444" lon="14.712318028584612"><ele>599.8000000000001</ele><time>2026-04-18T15:32:29Z</time></trkpt><trkpt lat="37.11570841795064" lon="14.712328734779085"><ele>602.6</ele><time>2026-04-18T15:32:30Z</time></trkpt><trkpt lat="37.11559280221165" lon="14.712315498595963"><ele>605.4000000000001</ele><time>2026-04-18T15:32:31Z</time></trkpt><trkpt lat="37.11551467618385" lon="14.71229639523389"><ele>608.2</ele><time>2026-04-18T15:32:32Z</time></trkpt><trkpt lat="37.115405630309645" lon="14.712312274314948"><ele>611.0</ele><time>2026-04-18T15:32:34Z</time></trkpt><trkpt lat="37.115340216775856" lon="14.712403399816914"><ele>611.0000000000001</ele><time>2026-04-18T15:32:36Z</time></trkpt><trkpt lat="37.115311435636336" lon="14.712474836613907"><ele>611.0</ele><time>2026-04-18T15:32:37Z</time></trkpt><trkpt lat="37.115288438580414" lon="14.712553461078983"><ele>611.0</ele><time>2026-04-18T15:32:38Z</time></trkpt><trkpt lat="37.115263711070185" lon="14.712626117563918"><ele>611.0</ele><time>2026-04-18T15:32:39Z</time></trkpt><trkpt lat="37.11523111898387" lon="14.712709928593057"><ele>611.0</ele><time>2026-04-18T15:32:40Z</time></trkpt><trkpt lat="37.11518216580668" lon="14.712775903510643"><ele>611.0000000000001</ele><time>2026-04-18T15:32:41Z</time></trkpt><trkpt lat="37.115116618166745" lon="14.71282036929149"><ele>611.0</ele><time>2026-04-18T15:32:42Z</time></trkpt><trkpt lat="37.115027618479935" lon="14.712861781631402"><ele>614.1666666666666</ele><time>2026-04-18T15:32:43Z</time></trkpt><trkpt lat="37.11493784628724" lon="14.712902477675994"><ele>617.3333333333333</ele><time>2026-04-18T15:32:44Z</time></trkpt><trkpt lat="37.114862766784825" lon="14.712930808735866"><ele>620.5</ele><time>2026-04-18T15:32:45Z</time></trkpt><trkpt lat="37.114771322489354" lon="14.713008550810606"><ele>623.6666666666666</ele><time>2026-04-18T15:32:47Z</time></trkpt><trkpt lat="37.114737677982575" lon="14.713090179758366"><ele>626.8333333333334</ele><time>2026-04-18T15:32:48Z</time></trkpt><trkpt lat="37.11471091024003" lon="14.713188429783349"><ele>630.0</ele><time>2026-04-18T15:32:49Z</time></trkpt><trkpt lat="37.11471235789428" lon="14.713274605344914"><ele>630.0</ele><time>2026-04-18T15:32:50Z</time></trkpt><trkpt lat="37.11473428923819" lon="14.713351487104196"><ele>630.0</ele><time>2026-04-18T15:32:51Z</time></trkpt><trkpt lat="37.114772859979404" lon="14.713423895234179"><ele>630.0</ele><time>2026-04-18T15:32:52Z</time></trkpt><trkpt lat="37.11480894446997" lon="14.713496821101572"><ele>630.0</ele><time>2026-04-18T15:32:53Z</time></trkpt><trkpt lat="37.11486666240333" lon="14.713577895031003"><ele>630.0</ele><time>2026-04-18T15:32:54Z</time></trkpt><trkpt lat="37.1149321515419" lon="14.71365406421861"><ele>630.0</ele><time>2026-04-18T15:32:55Z</time></trkpt><trkpt lat="37.115005213980986" lon="14.713735208532233"><ele>622.8</ele><time>2026-04-18T15:32:56Z</time></trkpt><trkpt lat="37.11508058786629" lon="14.713798576470028"><ele>615.6</ele><time>2026-04-18T15:32:57Z</time></trkpt><trkpt lat="37.11514741232734" lon="14.713851158677096"><ele>608.4</ele><time>2026-04-18T15:32:58Z</time></trkpt><trkpt lat="37.115230554602064" lon="14.713940009124478"><ele>601.2</ele><time>2026-04-18T15:32:59Z</time></trkpt><trkpt lat="37.11530343220761" lon="14.714027853015834"><ele>594.0</ele><time>2026-04-18T15:33:00Z</time></trkpt><trkpt lat="37.11537456129106" lon="14.714115955558116"><ele>594.0</ele><time>2026-04-18T15:33:01Z</time></trkpt><trkpt lat="37.11544260632033" lon="14.71421195465909"><ele>594.0</ele><time>2026-04-18T15:33:02Z</time></trkpt><trkpt lat="37.11550718174125" lon="14.714336186026289"><ele>594.0</ele><time>2026-04-18T15:33:03Z</time></trkpt><trkpt lat="37.11556102129985" lon="14.714467627181003"><ele>594.0</ele><time>2026-04-18T15:33:04Z</time></trkpt><trkpt lat="37.115602306954905" lon="14.714589069225095"><ele>594.0</ele><time>2026-04-18T15:33:05Z</time></trkpt><trkpt lat="37.11562575354557" lon="14.714689870191936"><ele>590.4</ele><time>2026-04-18T15:33:06Z</time></trkpt><trkpt lat="37.11563673289749" lon="14.71477691528249"><ele>586.8</ele><time>2026-04-18T15:33:07Z</time></trkpt><trkpt lat="37.11558227245078" lon="14.71489515627829"><ele>583.2</ele><time>2026-04-18T15:33:09Z</time></trkpt><trkpt lat="37.115526523203854" lon="14.714940047758187"><ele>579.6</ele><time>2026-04-18T15:33:10Z</time></trkpt><trkpt lat="37.11542881633054" lon="14.714994153506284"><ele>576.0</ele><time>2026-04-18T15:33:11Z</time></trkpt><trkpt lat="37.11531659140877" lon="14.715037696544291"><ele>576.0</ele><time>2026-04-18T15:33:12Z</time></trkpt><trkpt lat="37.115200694191046" lon="14.71510849182587"><ele>576.0</ele><time>2026-04-18T15:33:13Z</time></trkpt><trkpt lat="37.11510356174107" lon="14.715159038249617"><ele>576.0</ele><time>2026-04-18T15:33:14Z</time></trkpt><trkpt lat="37.11501793076577" lon="14.715208543249995"><ele>576.0</ele><time>2026-04-18T15:33:15Z</time></trkpt><trkpt lat="37.1149509538974" lon="14.715257326857984"><ele>576.0</ele><time>2026-04-18T15:33:16Z</time></trkpt><trkpt lat="37.11488003538236" lon="14.715335953652048"><ele>573.2</ele><time>2026-04-18T15:33:18Z</time></trkpt><trkpt lat="37.114840857600804" lon="14.715491787170393"><ele>570.4000000000001</ele><time>2026-04-18T15:33:20Z</time></trkpt><trkpt lat="37.11484693251169" lon="14.7156314831671"><ele>567.6</ele><time>2026-04-18T15:33:22Z</time></trkpt><trkpt lat="37.11490931605138" lon="14.7157246996895"><ele>564.8000000000001</ele><time>2026-04-18T15:33:24Z</time></trkpt><trkpt lat="37.114951199451916" lon="14.715788040866476"><ele>562.0</ele><time>2026-04-18T15:33:25Z</time></trkpt><trkpt lat="37.11500043987964" lon="14.715882493428955"><ele>562.0</ele><time>2026-04-18T15:33:26Z</time></trkpt><trkpt lat="37.115043406586786" lon="14.715965710247897"><ele>562.0</ele><time>2026-04-18T15:33:27Z</time></trkpt><trkpt lat="37.115090938853896" lon="14.716027848933242"><ele>562.0</ele><time>2026-04-18T15:33:28Z</time></trkpt><trkpt lat="37.115146622259736" lon="14.71606750986826"><ele>562.0</ele><time>2026-04-18T15:33:29Z</time></trkpt><trkpt lat="37.115223825312746" lon="14.716120802380042"><ele>562.0</ele><time>2026-04-18T15:33:30Z</time></trkpt><trkpt lat="37.115321526261646" lon="14.716196293883733"><ele>562.0</ele><time>2026-04-18T15:33:31Z</time></trkpt><trkpt lat="37.11541420148415" lon="14.71629309962601"><ele>558.8000000000001</ele><time>2026-04-18T15:33:32Z</time></trkpt><trkpt lat="37.11547790345102" lon="14.716390201517658"><ele>555.6</ele><time>2026-04-18T15:33:33Z</time></trkpt><trkpt lat="37.11553402501441" lon="14.716480489214302"><ele>552.4000000000001</ele><time>2026-04-18T15:33:34Z</time></trkpt><trkpt lat="37.11558666035385" lon="14.716531373183923"><ele>549.2</ele><time>2026-04-18T15:33:35Z</time></trkpt><trkpt lat="37.115658316948654" lon="14.71657193467166"><ele>546.0</ele><time>2026-04-18T15:33:36Z</time></trkpt><trkpt lat="37.115770069726736" lon="14.716619636411359"><ele>546.0</ele><time>2026-04-18T15:33:37Z</time></trkpt><trkpt lat="37.11590394838435" lon="14.716715597076709"><ele>546.0</ele><time>2026-04-18T15:33:38Z</time></trkpt><trkpt lat="37.11603071553625" lon="14.716826407015438"><ele>546.0</ele><time>2026-04-18T15:33:39Z</time></trkpt><trkpt lat="37.11612974079263" lon="14.716913229061769"><ele>546.0</ele><time>2026-04-18T15:33:40Z</time></trkpt><trkpt lat="37.11619879479872" lon="14.716986121161343"><ele>550.4</ele><time>2026-04-18T15:33:41Z</time></trkpt><trkpt lat="37.11625040187128" lon="14.717071809479085"><ele>554.8</ele><time>2026-04-18T15:33:42Z</time></trkpt><trkpt lat="37.11629253059505" lon="14.717169546714722"><ele>559.1999999999999</ele><time>2026-04-18T15:33:43Z</time></trkpt><trkpt lat="37.11631972649712" lon="14.717268302175365"><ele>563.6</ele><time>2026-04-18T15:33:44Z</time></trkpt><trkpt lat="37.11630849149914" lon="14.717393952335241"><ele>568.0</ele><time>2026-04-18T15:33:45Z</time></trkpt><trkpt lat="37.11629923232496" lon="14.717536206556298"><ele>568.0</ele><time>2026-04-18T15:33:46Z</time></trkpt><trkpt lat="37.11628766262765" lon="14.71767895788782"><ele>568.0</ele><time>2026-04-18T15:33:47Z</time></trkpt><trkpt lat="37.11628903359788" lon="14.717783674244467"><ele>568.0</ele><time>2026-04-18T15:33:48Z</time></trkpt><trkpt lat="37.1163145381873" lon="14.71788307796164"><ele>568.0</ele><time>2026-04-18T15:33:49Z</time></trkpt><trkpt lat="37.1163613455644" lon="14.717959333237085"><ele>568.0</ele><time>2026-04-18T15:33:50Z</time></trkpt><trkpt lat="37.11642728504982" lon="14.718041474039401"><ele>570.8</ele><time>2026-04-18T15:33:51Z</time></trkpt><trkpt lat="37.11650447940971" lon="14.718121728804402"><ele>573.5999999999999</ele><time>2026-04-18T15:33:52Z</time></trkpt><trkpt lat="37.116584955192764" lon="14.718187236264907"><ele>576.4000000000001</ele><time>2026-04-18T15:33:53Z</time></trkpt><trkpt lat="37.116658631737295" lon="14.718269531203136"><ele>579.2</ele><time>2026-04-18T15:33:54Z</time></trkpt><trkpt lat="37.11670827920865" lon="14.718358913787366"><ele>582.0</ele><time>2026-04-18T15:33:55Z</time></trkpt><trkpt lat="37.11675144602304" lon="14.718475311943314"><ele>575.8000000000001</ele><time>2026-04-18T15:33:56Z</time></trkpt><trkpt lat="37.11680292993951" lon="14.718599018160981"><ele>569.6</ele><time>2026-04-18T15:33:57Z</time></trkpt><trkpt lat="37.116850358079546" lon="14.718709006627465"><ele>563.4000000000001</ele><time>2026-04-18T15:33:58Z</time></trkpt><trkpt lat="37.11691757824915" lon="14.71880923115056"><ele>557.2</ele><time>2026-04-18T15:33:59Z</time></trkpt><trkpt lat="37.11700132239502" lon="14.718906785545352"><ele>551.0</ele><time>2026-04-18T15:34:00Z</time></trkpt><trkpt lat="37.117100017188655" lon="14.719007380747186"><ele>551.0</ele><time>2026-04-18T15:34:01Z</time></trkpt><trkpt lat="37.11719418091504" lon="14.719110589541492"><ele>551.0</ele><time>2026-04-18T15:34:02Z</time></trkpt><trkpt lat="37.117281705780826" lon="14.719224501926485"><ele>551.0</ele><time>2026-04-18T15:34:03Z</time></trkpt><trkpt lat="37.11735465539114" lon="14.719315567329977"><ele>551.0</ele><time>2026-04-18T15:34:04Z</time></trkpt><trkpt lat="37.117429133679394" lon="14.719399704219388"><ele>546.5</ele><time>2026-04-18T15:34:05Z</time></trkpt><trkpt lat="37.11751077688284" lon="14.719516718661373"><ele>542.0</ele><time>2026-04-18T15:34:06Z</time></trkpt><trkpt lat="37.117580907899736" lon="14.719612948902684"><ele>537.5</ele><time>2026-04-18T15:34:07Z</time></trkpt><trkpt lat="37.117648514950474" lon="14.719701250144968"><ele>533.0</ele><time>2026-04-18T15:34:08Z</time></trkpt><trkpt lat="37.1177493140518" lon="14.719800331163054"><ele>533.0</ele><time>2026-04-18T15:34:09Z</time></trkpt><trkpt lat="37.117867434731956" lon="14.71990155624615"><ele>533.0</ele><time>2026-04-18T15:34:10Z</time></trkpt><trkpt lat="37.11799345349605" lon="14.719978533589012"><ele>533.0</ele><time>2026-04-18T15:34:11Z</time></trkpt><trkpt lat="37.11810381551407" lon="14.72004898886677"><ele>533.0</ele><time>2026-04-18T15:34:12Z</time></trkpt><trkpt lat="37.1181897257321" lon="14.720105245839239"><ele>524.4</ele><time>2026-04-18T15:34:13Z</time></trkpt><trkpt lat="37.11829772253217" lon="14.72015790148823"><ele>515.8</ele><time>2026-04-18T15:34:14Z</time></trkpt><trkpt lat="37.118395871885504" lon="14.720213843397607"><ele>507.2</ele><time>2026-04-18T15:34:15Z</time></trkpt><trkpt lat="37.11846824995887" lon="14.720272551286644"><ele>498.6</ele><time>2026-04-18T15:34:16Z</time></trkpt><trkpt lat="37.11852983109438" lon="14.72036916421546"><ele>490.0</ele><time>2026-04-18T15:34:18Z</time></trkpt><trkpt lat="37.11857506385459" lon="14.7203140845121"><ele>490.0</ele><time>2026-04-18T15:34:22Z</time></trkpt><trkpt lat="37.118544689417824" lon="14.720240742892646"><ele>490.0</ele><time>2026-04-18T15:34:24Z</time></trkpt><trkpt lat="37.11842471952051" lon="14.720121200906574"><ele>490.0</ele><time>2026-04-18T15:34:26Z</time></trkpt><trkpt lat="37.11833387493457" lon="14.720027562917947"><ele>490.0</ele><time>2026-04-18T15:34:27Z</time></trkpt><trkpt lat="37.11824605601744" lon="14.719921551084058"><ele>498.6</ele><time>2026-04-18T15:34:28Z</time></trkpt><trkpt lat="37.118154264980504" lon="14.719833067057188"><ele>507.2</ele><time>2026-04-18T15:34:29Z</time></trkpt><trkpt lat="37.11807820220083" lon="14.719759781813268"><ele>515.8</ele><time>2026-04-18T15:34:30Z</time></trkpt><trkpt lat="37.11803079292871" lon="14.719705091639419"><ele>524.4</ele><time>2026-04-18T15:34:31Z</time></trkpt><trkpt lat="37.11795829066563" lon="14.719609198221725"><ele>533.0</ele><time>2026-04-18T15:34:33Z</time></trkpt><trkpt lat="37.11793841336644" lon="14.719519815510406"><ele>533.0</ele><time>2026-04-18T15:34:36Z</time></trkpt><trkpt lat="37.11802527871278" lon="14.719529909200592"><ele>533.0</ele><time>2026-04-18T15:34:39Z</time></trkpt><trkpt lat="37.11817602038578" lon="14.71964166670622"><ele>533.0</ele><time>2026-04-18T15:34:41Z</time></trkpt><trkpt lat="37.118281480368445" lon="14.719712173186151"><ele>533.0</ele><time>2026-04-18T15:34:42Z</time></trkpt><trkpt lat="37.11838872473467" lon="14.719776741789012"><ele>522.25</ele><time>2026-04-18T15:34:43Z</time></trkpt><trkpt lat="37.11850219131955" lon="14.719833603294026"><ele>511.5</ele><time>2026-04-18T15:34:44Z</time></trkpt><trkpt lat="37.11861488906525" lon="14.719892737097895"><ele>500.75</ele><time>2026-04-18T15:34:45Z</time></trkpt><trkpt lat="37.11874374812568" lon="14.719966126865083"><ele>490.0</ele><time>2026-04-18T15:34:46Z</time></trkpt><trkpt lat="37.11886121428955" lon="14.720015338029837"><ele>490.00000000000006</ele><time>2026-04-18T15:34:47Z</time></trkpt><trkpt lat="37.11895719810149" lon="14.720065246742767"><ele>490.0</ele><time>2026-04-18T15:34:48Z</time></trkpt><trkpt lat="37.11904322315322" lon="14.720119582283099"><ele>490.0</ele><time>2026-04-18T15:34:49Z</time></trkpt><trkpt lat="37.119120049102825" lon="14.72017929873058"><ele>490.0</ele><time>2026-04-18T15:34:50Z</time></trkpt><trkpt lat="37.11918339530366" lon="14.720228890121074"><ele>490.00000000000006</ele><time>2026-04-18T15:34:51Z</time></trkpt><trkpt lat="37.119224022068764" lon="14.720291998941722"><ele>490.0</ele><time>2026-04-18T15:34:52Z</time></trkpt><trkpt lat="37.119229275890056" lon="14.720393981842328"><ele>489.0</ele><time>2026-04-18T15:34:54Z</time></trkpt><trkpt lat="37.11914987088873" lon="14.720543793864602"><ele>488.0</ele><time>2026-04-18T15:34:56Z</time></trkpt><trkpt lat="37.11908319004492" lon="14.720656756271254"><ele>487.0</ele><time>2026-04-18T15:34:57Z</time></trkpt><trkpt lat="37.11900143932439" lon="14.720766217588947"><ele>486.0</ele><time>2026-04-18T15:34:58Z</time></trkpt><trkpt lat="37.118936636474615" lon="14.720886966480878"><ele>486.0</ele><time>2026-04-18T15:34:59Z</time></trkpt><trkpt lat="37.118877881900154" lon="14.721031109161572"><ele>486.0</ele><time>2026-04-18T15:35:00Z</time></trkpt><trkpt lat="37.1188119436272" lon="14.721195110512545"><ele>486.0</ele><time>2026-04-18T15:35:01Z</time></trkpt><trkpt lat="37.118740067045195" lon="14.721349131338604"><ele>486.0</ele><time>2026-04-18T15:35:02Z</time></trkpt><trkpt lat="37.11866908938651" lon="14.721490351032998"><ele>480.25</ele><time>2026-04-18T15:35:03Z</time></trkpt><trkpt lat="37.11859982291286" lon="14.721638791133069"><ele>474.5</ele><time>2026-04-18T15:35:04Z</time></trkpt><trkpt lat="37.118551289086874" lon="14.721770950637879"><ele>468.75</ele><time>2026-04-18T15:35:05Z</time></trkpt><trkpt lat="37.11850428012697" lon="14.721899138931024"><ele>463.0</ele><time>2026-04-18T15:35:06Z</time></trkpt><trkpt lat="37.118472927825586" lon="14.722010877935697"><ele>460.2857142857143</ele><time>2026-04-18T15:35:07Z</time></trkpt><trkpt lat="37.11844737801855" lon="14.722093926223716"><ele>457.57142857142856</ele><time>2026-04-18T15:35:08Z</time></trkpt><trkpt lat="37.11841565460133" lon="14.722166727481158"><ele>454.85714285714283</ele><time>2026-04-18T15:35:09Z</time></trkpt><trkpt lat="37.11836867780567" lon="14.72221942503019"><ele>452.1428571428571</ele><time>2026-04-18T15:35:10Z</time></trkpt><trkpt lat="37.11830985999213" lon="14.722259707229034"><ele>449.42857142857144</ele><time>2026-04-18T15:35:11Z</time></trkpt><trkpt lat="37.11824523549501" lon="14.722271900262136"><ele>446.71428571428567</ele><time>2026-04-18T15:35:12Z</time></trkpt><trkpt lat="37.11816248463059" lon="14.722287427052107"><ele>444.0</ele><time>2026-04-18T15:35:13Z</time></trkpt><trkpt lat="37.118030404216356" lon="14.722279821298896"><ele>444.0</ele><time>2026-04-18T15:35:14Z</time></trkpt><trkpt lat="37.11790604119292" lon="14.72230242451357"><ele>444.0</ele><time>2026-04-18T15:35:15Z</time></trkpt><trkpt lat="37.11778415079038" lon="14.722315902363995"><ele>444.0</ele><time>2026-04-18T15:35:16Z</time></trkpt><trkpt lat="37.11767106490838" lon="14.722341496985502"><ele>444.0</ele><time>2026-04-18T15:35:17Z</time></trkpt><trkpt lat="37.11757606606433" lon="14.722353878751145"><ele>444.0</ele><time>2026-04-18T15:35:18Z</time></trkpt><trkpt lat="37.11749487004671" lon="14.722357345035562"><ele>444.0</ele><time>2026-04-18T15:35:19Z</time></trkpt><trkpt lat="37.11742739350761" lon="14.72237961384293"><ele>444.0</ele><time>2026-04-18T15:35:20Z</time></trkpt><trkpt lat="37.117367444256956" lon="14.722405284058922"><ele>444.0</ele><time>2026-04-18T15:35:22Z</time></trkpt><trkpt lat="37.11729066803377" lon="14.722430179520321"><ele>444.0</ele><time>2026-04-18T15:35:24Z</time></trkpt><trkpt lat="37.117215613275015" lon="14.72252934136607"><ele>444.0</ele><time>2026-04-18T15:35:26Z</time></trkpt><trkpt lat="37.11724894882213" lon="14.72263259321894"><ele>443.1666666666667</ele><time>2026-04-18T15:35:29Z</time></trkpt><trkpt lat="37.117278515670925" lon="14.722723605950705"><ele>442.33333333333337</ele><time>2026-04-18T15:35:31Z</time></trkpt><trkpt lat="37.11729625256383" lon="14.722806407980276"><ele>441.5</ele><time>2026-04-18T15:36:17Z</time></trkpt><trkpt lat="37.11734418579819" lon="14.722905533705823"><ele>440.6666666666667</ele><time>2026-04-18T15:36:21Z</time></trkpt><trkpt lat="37.117412080815974" lon="14.72304501758658"><ele>439.83333333333337</ele><time>2026-04-18T15:36:23Z</time></trkpt><trkpt lat="37.11744574984706" lon="14.723120570935473"><ele>439.0</ele><time>2026-04-18T15:36:24Z</time></trkpt><trkpt lat="37.11749053111847" lon="14.723202709223713"><ele>439.0</ele><time>2026-04-18T15:36:25Z</time></trkpt><trkpt lat="37.11753327649431" lon="14.723288131350522"><ele>439.0</ele><time>2026-04-18T15:36:26Z</time></trkpt><trkpt lat="37.11758011782802" lon="14.723371181189247"><ele>439.0</ele><time>2026-04-18T15:36:27Z</time></trkpt><trkpt lat="37.11763383117707" lon="14.723499329519049"><ele>439.0</ele><time>2026-04-18T15:36:29Z</time></trkpt><trkpt lat="37.117638263775945" lon="14.723645554236006"><ele>439.0</ele><time>2026-04-18T15:36:31Z</time></trkpt><trkpt lat="37.11761816014366" lon="14.723723258043167"><ele>437.6</ele><time>2026-04-18T15:36:32Z</time></trkpt><trkpt lat="37.117580393635535" lon="14.723832058415343"><ele>436.2</ele><time>2026-04-18T15:36:33Z</time></trkpt><trkpt lat="37.117540899151386" lon="14.72394517760768"><ele>434.80000000000007</ele><time>2026-04-18T15:36:34Z</time></trkpt><trkpt lat="37.11750317851015" lon="14.724057504200827"><ele>433.40000000000003</ele><time>2026-04-18T15:36:35Z</time></trkpt><trkpt lat="37.117455803274545" lon="14.724164743722083"><ele>432.0</ele><time>2026-04-18T15:36:36Z</time></trkpt><trkpt lat="37.117395156021644" lon="14.724269388800398"><ele>435.8</ele><time>2026-04-18T15:36:37Z</time></trkpt><trkpt lat="37.11732045736778" lon="14.724367012661203"><ele>439.6</ele><time>2026-04-18T15:36:38Z</time></trkpt><trkpt lat="37.11725048866283" lon="14.724464642683705"><ele>443.40000000000003</ele><time>2026-04-18T15:36:39Z</time></trkpt><trkpt lat="37.11717133242407" lon="14.724571243038383"><ele>447.20000000000005</ele><time>2026-04-18T15:36:40Z</time></trkpt><trkpt lat="37.11709650411905" lon="14.724667141016017"><ele>451.0</ele><time>2026-04-18T15:36:41Z</time></trkpt><trkpt lat="37.11703764190382" lon="14.724761493287982"><ele>451.00000000000006</ele><time>2026-04-18T15:36:42Z</time></trkpt><trkpt lat="37.11699539308714" lon="14.724859320895659"><ele>451.0</ele><time>2026-04-18T15:36:43Z</time></trkpt><trkpt lat="37.11697734755197" lon="14.724962629603228"><ele>451.0</ele><time>2026-04-18T15:36:44Z</time></trkpt><trkpt lat="37.11693213160461" lon="14.725079491803633"><ele>451.0</ele><time>2026-04-18T15:36:45Z</time></trkpt><trkpt lat="37.11687959934529" lon="14.725172525869176"><ele>451.00000000000006</ele><time>2026-04-18T15:36:46Z</time></trkpt><trkpt lat="37.116824141917675" lon="14.725242399074443"><ele>451.0</ele><time>2026-04-18T15:36:47Z</time></trkpt><trkpt lat="37.11671776448806" lon="14.725324174315062"><ele>448.83333333333337</ele><time>2026-04-18T15:36:49Z</time></trkpt><trkpt lat="37.1166484261657" lon="14.725354994912484"><ele>446.6666666666667</ele><time>2026-04-18T15:36:50Z</time></trkpt><trkpt lat="37.11655584413053" lon="14.725422217241146"><ele>444.5</ele><time>2026-04-18T15:36:51Z</time></trkpt><trkpt lat="37.116490677606315" lon="14.7254676704228"><ele>442.33333333333337</ele><time>2026-04-18T15:36:52Z</time></trkpt><trkpt lat="37.11641508597213" lon="14.72550053847175"><ele>440.1666666666667</ele><time>2026-04-18T15:36:53Z</time></trkpt><trkpt lat="37.116328559918664" lon="14.725512043189154"><ele>438.0</ele><time>2026-04-18T15:36:54Z</time></trkpt><trkpt lat="37.11625249306295" lon="14.725529913331014"><ele>438.0</ele><time>2026-04-18T15:36:55Z</time></trkpt><trkpt lat="37.1161685177679" lon="14.725504828917511"><ele>438.0</ele><time>2026-04-18T15:36:56Z</time></trkpt><trkpt lat="37.11606445730859" lon="14.725485207052472"><ele>438.0</ele><time>2026-04-18T15:36:57Z</time></trkpt><trkpt lat="37.1159418702106" lon="14.725444554897289"><ele>438.0</ele><time>2026-04-18T15:36:58Z</time></trkpt><trkpt lat="37.115802917058666" lon="14.72540142974163"><ele>437.0</ele><time>2026-04-18T15:36:59Z</time></trkpt><trkpt lat="37.115674381572106" lon="14.725351118120347"><ele>435.99999999999994</ele><time>2026-04-18T15:37:00Z</time></trkpt><trkpt lat="37.115581521752816" lon="14.725311669060492"><ele>434.99999999999994</ele><time>2026-04-18T15:37:01Z</time></trkpt><trkpt lat="37.11551871582676" lon="14.725235260376056"><ele>434.0</ele><time>2026-04-18T15:37:02Z</time></trkpt><trkpt lat="37.11545803142331" lon="14.725147965675792"><ele>433.0</ele><time>2026-04-18T15:37:03Z</time></trkpt><trkpt lat="37.11539788308172" lon="14.72502126839286"><ele>438.0</ele><time>2026-04-18T15:37:04Z</time></trkpt><trkpt lat="37.11532623268583" lon="14.724886494904993"><ele>443.0</ele><time>2026-04-18T15:37:05Z</time></trkpt><trkpt lat="37.11523537401591" lon="14.724753028053723"><ele>448.0</ele><time>2026-04-18T15:37:06Z</time></trkpt><trkpt lat="37.11515427733121" lon="14.724620597469206"><ele>453.0</ele><time>2026-04-18T15:37:07Z</time></trkpt><trkpt lat="37.11507975405483" lon="14.724491691680768"><ele>453.0</ele><time>2026-04-18T15:37:08Z</time></trkpt><trkpt lat="37.115015031471664" lon="14.724398227281647"><ele>453.0</ele><time>2026-04-18T15:37:09Z</time></trkpt><trkpt lat="37.114940490339535" lon="14.72431632639964"><ele>453.0</ele><time>2026-04-18T15:37:10Z</time></trkpt><trkpt lat="37.114865145254086" lon="14.724249060702503"><ele>453.0</ele><time>2026-04-18T15:37:11Z</time></trkpt><trkpt lat="37.11480947562181" lon="14.724183724264485"><ele>453.0</ele><time>2026-04-18T15:37:12Z</time></trkpt><trkpt lat="37.114780948828205" lon="14.724106908522524"><ele>453.0</ele><time>2026-04-18T15:37:13Z</time></trkpt><trkpt lat="37.11471430115466" lon="14.724009302010776"><ele>455.79999999999995</ele><time>2026-04-18T15:37:15Z</time></trkpt><trkpt lat="37.114614358845444" lon="14.72405023589865"><ele>458.59999999999997</ele><time>2026-04-18T15:37:17Z</time></trkpt><trkpt lat="37.114522289030866" lon="14.72414281130728"><ele>461.40000000000003</ele><time>2026-04-18T15:37:19Z</time></trkpt><trkpt lat="37.114493706451384" lon="14.724230148366606"><ele>464.20000000000005</ele><time>2026-04-18T15:37:20Z</time></trkpt><trkpt lat="37.114450248679915" lon="14.724308212411309"><ele>467.0</ele><time>2026-04-18T15:37:21Z</time></trkpt><trkpt lat="37.1144357010441" lon="14.724421003264201"><ele>466.99999999999994</ele><time>2026-04-18T15:37:22Z</time></trkpt><trkpt lat="37.114424684240284" lon="14.724557734783218"><ele>467.0</ele><time>2026-04-18T15:37:24Z</time></trkpt><trkpt lat="37.11440329635176" lon="14.724632990363425"><ele>467.0</ele><time>2026-04-18T15:37:26Z</time></trkpt><trkpt lat="37.11439018619248" lon="14.724719886865246"><ele>467.0</ele><time>2026-04-18T15:37:29Z</time></trkpt><trkpt lat="37.114372126556" lon="14.724826223825483"><ele>466.99999999999994</ele><time>2026-04-18T15:37:32Z</time></trkpt><trkpt lat="37.11435492128035" lon="14.724915231734414"><ele>467.0</ele><time>2026-04-18T15:37:34Z</time></trkpt><trkpt lat="37.11432566240558" lon="14.725018008446861"><ele>467.0</ele><time>2026-04-18T15:37:36Z</time></trkpt><trkpt lat="37.114282828734325" lon="14.725126255412658"><ele>467.00000000000006</ele><time>2026-04-18T15:37:38Z</time></trkpt><trkpt lat="37.114188730255854" lon="14.72522881295369"><ele>467.00000000000006</ele><time>2026-04-18T15:37:40Z</time></trkpt><trkpt lat="37.11412078122338" lon="14.725270262520985"><ele>467.0</ele><time>2026-04-18T15:37:41Z</time></trkpt><trkpt lat="37.114011090688805" lon="14.725347499754179"><ele>467.0</ele><time>2026-04-18T15:37:43Z</time></trkpt><trkpt lat="37.11394693275763" lon="14.725432895967836"><ele>463.0</ele><time>2026-04-18T15:37:45Z</time></trkpt><trkpt lat="37.11397049450711" lon="14.72552903764782"><ele>459.00000000000006</ele><time>2026-04-18T15:37:47Z</time></trkpt><trkpt lat="37.11404499712332" lon="14.725525076855106"><ele>455.00000000000006</ele><time>2026-04-18T15:37:49Z</time></trkpt><trkpt lat="37.11418243776988" lon="14.725522815837556"><ele>451.0</ele><time>2026-04-18T15:37:51Z</time></trkpt><trkpt lat="37.11425789526029" lon="14.72554001744638"><ele>447.0</ele><time>2026-04-18T15:37:52Z</time></trkpt><trkpt lat="37.11434186994496" lon="14.725556717353868"><ele>447.0</ele><time>2026-04-18T15:37:53Z</time></trkpt><trkpt lat="37.11441639553503" lon="14.725588590540598"><ele>447.0</ele><time>2026-04-18T15:37:54Z</time></trkpt><trkpt lat="37.11447671239564" lon="14.725614856028466"><ele>447.0</ele><time>2026-04-18T15:37:55Z</time></trkpt><trkpt lat="37.11453843380578" lon="14.725694970858024"><ele>447.0</ele><time>2026-04-18T15:37:57Z</time></trkpt><trkpt lat="37.114537322012616" lon="14.72577591803133"><ele>447.0</ele><time>2026-04-18T15:37:59Z</time></trkpt><trkpt lat="37.11451714301927" lon="14.725926973522293"><ele>447.0</ele><time>2026-04-18T15:38:01Z</time></trkpt><trkpt lat="37.1144398656116" lon="14.726026080444345"><ele>443.3333333333333</ele><time>2026-04-18T15:38:03Z</time></trkpt><trkpt lat="37.114358117150054" lon="14.726076131822362"><ele>439.66666666666663</ele><time>2026-04-18T15:38:04Z</time></trkpt><trkpt lat="37.11427163209656" lon="14.72613694642166"><ele>436.0</ele><time>2026-04-18T15:38:05Z</time></trkpt><trkpt lat="37.11419945157705" lon="14.726187838612367"><ele>432.3333333333333</ele><time>2026-04-18T15:38:06Z</time></trkpt><trkpt lat="37.1141285154947" lon="14.726212511420368"><ele>428.66666666666663</ele><time>2026-04-18T15:38:07Z</time></trkpt><trkpt lat="37.114053476064726" lon="14.72623312919985"><ele>425.0</ele><time>2026-04-18T15:38:08Z</time></trkpt><trkpt lat="37.1139794908031" lon="14.726224463818564"><ele>423.66666666666663</ele><time>2026-04-18T15:38:09Z</time></trkpt><trkpt lat="37.113898863769386" lon="14.72621652036434"><ele>422.3333333333333</ele><time>2026-04-18T15:38:10Z</time></trkpt><trkpt lat="37.113808605677754" lon="14.726226347218955"><ele>421.0</ele><time>2026-04-18T15:38:11Z</time></trkpt><trkpt lat="37.1137279266908" lon="14.72624979764043"><ele>419.66666666666663</ele><time>2026-04-18T15:38:12Z</time></trkpt><trkpt lat="37.11365348004286" lon="14.726287055260933"><ele>418.3333333333333</ele><time>2026-04-18T15:38:13Z</time></trkpt><trkpt lat="37.11359128625459" lon="14.726308390744062"><ele>417.0</ele><time>2026-04-18T15:38:14Z</time></trkpt><trkpt lat="37.113520459758526" lon="14.726292506018687"><ele>417.0</ele><time>2026-04-18T15:38:15Z</time></trkpt><trkpt lat="37.11345171815217" lon="14.726258441751702"><ele>417.0</ele><time>2026-04-18T15:38:16Z</time></trkpt><trkpt lat="37.11335965902338" lon="14.72624212776943"><ele>417.0</ele><time>2026-04-18T15:38:18Z</time></trkpt><trkpt lat="37.1132989497444" lon="14.726340498449577"><ele>417.0</ele><time>2026-04-18T15:38:20Z</time></trkpt><trkpt lat="37.113374628126394" lon="14.726484147267314"><ele>417.0</ele><time>2026-04-18T15:38:22Z</time></trkpt><trkpt lat="37.113439981624396" lon="14.726527558656775"><ele>417.0</ele><time>2026-04-18T15:38:23Z</time></trkpt><trkpt lat="37.113515447942724" lon="14.72658610634407"><ele>417.0</ele><time>2026-04-18T15:38:24Z</time></trkpt><trkpt lat="37.113584621251775" lon="14.726655042828762"><ele>417.0</ele><time>2026-04-18T15:38:25Z</time></trkpt><trkpt lat="37.11364814452731" lon="14.726751045202684"><ele>417.0</ele><time>2026-04-18T15:38:26Z</time></trkpt><trkpt lat="37.11372211306183" lon="14.726865904830342"><ele>417.0</ele><time>2026-04-18T15:38:27Z</time></trkpt><trkpt lat="37.11378652897807" lon="14.726973754654614"><ele>416.0</ele><time>2026-04-18T15:38:28Z</time></trkpt><trkpt lat="37.11382124340785" lon="14.727048259839673"><ele>415.0</ele><time>2026-04-18T15:38:29Z</time></trkpt><trkpt lat="37.11386438479926" lon="14.727111597969456"><ele>414.0</ele><time>2026-04-18T15:38:30Z</time></trkpt><trkpt lat="37.11391731173868" lon="14.727165759499645"><ele>413.0</ele><time>2026-04-18T15:38:31Z</time></trkpt><trkpt lat="37.11398570232188" lon="14.72717984535475"><ele>412.0</ele><time>2026-04-18T15:38:32Z</time></trkpt><trkpt lat="37.114064844196434" lon="14.727178536984171"><ele>411.0</ele><time>2026-04-18T15:38:33Z</time></trkpt><trkpt lat="37.114152313081796" lon="14.727200863645214"><ele>410.0</ele><time>2026-04-18T15:38:34Z</time></trkpt><trkpt lat="37.11425308557776" lon="14.727221303162091"><ele>410.0</ele><time>2026-04-18T15:38:35Z</time></trkpt><trkpt lat="37.11435005104372" lon="14.72721558461689"><ele>410.0</ele><time>2026-04-18T15:38:36Z</time></trkpt><trkpt lat="37.114446962063234" lon="14.727249778228504"><ele>410.0</ele><time>2026-04-18T15:38:37Z</time></trkpt><trkpt lat="37.11451183594151" lon="14.727291747781416"><ele>410.0</ele><time>2026-04-18T15:38:38Z</time></trkpt><trkpt lat="37.11459178226759" lon="14.727385481135311"><ele>410.0</ele><time>2026-04-18T15:38:40Z</time></trkpt><trkpt lat="37.114582795414805" lon="14.727483214159827"><ele>410.0</ele><time>2026-04-18T15:38:42Z</time></trkpt><trkpt lat="37.11454135033776" lon="14.727578575352625"><ele>410.0</ele><time>2026-04-18T15:38:44Z</time></trkpt><trkpt lat="37.114483944439485" lon="14.727645441292005"><ele>410.0</ele><time>2026-04-18T15:38:45Z</time></trkpt><trkpt lat="37.114391381865914" lon="14.727732394656215"><ele>410.0</ele><time>2026-04-18T15:38:46Z</time></trkpt><trkpt lat="37.11429703114544" lon="14.727814560678807"><ele>410.0</ele><time>2026-04-18T15:38:47Z</time></trkpt><trkpt lat="37.11419798657711" lon="14.727900891690688"><ele>407.16666666666663</ele><time>2026-04-18T15:38:48Z</time></trkpt><trkpt lat="37.11410678281032" lon="14.727962446572874"><ele>404.3333333333333</ele><time>2026-04-18T15:38:49Z</time></trkpt><trkpt lat="37.114043766560364" lon="14.728015778942215"><ele>401.5</ele><time>2026-04-18T15:38:50Z</time></trkpt><trkpt lat="37.11394503679802" lon="14.728054132359768"><ele>398.66666666666663</ele><time>2026-04-18T15:38:52Z</time></trkpt><trkpt lat="37.11387623672269" lon="14.728075665026036"><ele>395.8333333333333</ele><time>2026-04-18T15:38:54Z</time></trkpt><trkpt lat="37.11380392744445" lon="14.728114847051822"><ele>393.0</ele><time>2026-04-18T15:38:57Z</time></trkpt><trkpt lat="37.113733157364365" lon="14.72808986528438"><ele>392.8333333333333</ele><time>2026-04-18T15:39:00Z</time></trkpt><trkpt lat="37.11367095860551" lon="14.728045975720473"><ele>392.66666666666663</ele><time>2026-04-18T15:39:03Z</time></trkpt><trkpt lat="37.11360530414734" lon="14.727967081430949"><ele>392.5</ele><time>2026-04-18T15:39:06Z</time></trkpt><trkpt lat="37.11351008451044" lon="14.727908420407823"><ele>392.3333333333333</ele><time>2026-04-18T15:39:09Z</time></trkpt><trkpt lat="37.11346345981758" lon="14.727852816129502"><ele>392.16666666666663</ele><time>2026-04-18T15:39:10Z</time></trkpt><trkpt lat="37.11341541617554" lon="14.7277784328094"><ele>392.0</ele><time>2026-04-18T15:39:11Z</time></trkpt><trkpt lat="37.113361151581636" lon="14.72771723721672"><ele>393.3333333333333</ele><time>2026-04-18T15:39:12Z</time></trkpt><trkpt lat="37.113288671450704" lon="14.72766543283402"><ele>394.66666666666663</ele><time>2026-04-18T15:39:13Z</time></trkpt><trkpt lat="37.11323407304432" lon="14.727587657634349"><ele>396.0</ele><time>2026-04-18T15:39:14Z</time></trkpt><trkpt lat="37.113168260524894" lon="14.727527797315997"><ele>397.33333333333337</ele><time>2026-04-18T15:39:15Z</time></trkpt><trkpt lat="37.11310520671071" lon="14.727472791899203"><ele>398.6666666666667</ele><time>2026-04-18T15:39:16Z</time></trkpt><trkpt lat="37.113041964346905" lon="14.727421373991067"><ele>400.0</ele><time>2026-04-18T15:39:17Z</time></trkpt><trkpt lat="37.11298238324173" lon="14.727380116889014"><ele>400.0</ele><time>2026-04-18T15:39:18Z</time></trkpt><trkpt lat="37.1129213563673" lon="14.727360027077125"><ele>400.0</ele><time>2026-04-18T15:39:19Z</time></trkpt><trkpt lat="37.11278312763094" lon="14.72741814173889"><ele>400.0</ele><time>2026-04-18T15:39:21Z</time></trkpt><trkpt lat="37.1127232278069" lon="14.72749227499312"><ele>400.0</ele><time>2026-04-18T15:39:22Z</time></trkpt><trkpt lat="37.11269913567437" lon="14.7275767192726"><ele>400.0</ele><time>2026-04-18T15:39:23Z</time></trkpt><trkpt lat="37.11267424926239" lon="14.727684937093203"><ele>400.00000000000006</ele><time>2026-04-18T15:39:24Z</time></trkpt><trkpt lat="37.112650218848124" lon="14.727763829671257"><ele>400.0</ele><time>2026-04-18T15:39:25Z</time></trkpt><trkpt lat="37.11255703508422" lon="14.727731782190919"><ele>400.0</ele><time>2026-04-18T15:39:28Z</time></trkpt><trkpt lat="37.11247022456323" lon="14.727710473552332"><ele>400.0</ele><time>2026-04-18T15:39:29Z</time></trkpt><trkpt lat="37.11240178056408" lon="14.727657020920114"><ele>400.00000000000006</ele><time>2026-04-18T15:39:30Z</time></trkpt><trkpt lat="37.11231955084688" lon="14.727602306527455"><ele>400.0</ele><time>2026-04-18T15:39:31Z</time></trkpt><trkpt lat="37.11223059951244" lon="14.727514926338968"><ele>399.75</ele><time>2026-04-18T15:39:32Z</time></trkpt><trkpt lat="37.112127035626635" lon="14.72742834177507"><ele>399.5</ele><time>2026-04-18T15:39:33Z</time></trkpt><trkpt lat="37.11201701291905" lon="14.727354157179013"><ele>399.25</ele><time>2026-04-18T15:39:34Z</time></trkpt><trkpt lat="37.111926439127494" lon="14.727288574623646"><ele>399.0</ele><time>2026-04-18T15:39:35Z</time></trkpt><trkpt lat="37.11183668954022" lon="14.727225967734654"><ele>399.0</ele><time>2026-04-18T15:39:36Z</time></trkpt><trkpt lat="37.1117203282938" lon="14.727173418479238"><ele>399.0</ele><time>2026-04-18T15:39:37Z</time></trkpt><trkpt lat="37.11161823187129" lon="14.727136871538713"><ele>399.0</ele><time>2026-04-18T15:39:38Z</time></trkpt><trkpt lat="37.11151804826327" lon="14.72709762260837"><ele>399.0</ele><time>2026-04-18T15:39:39Z</time></trkpt><trkpt lat="37.1114018331681" lon="14.727058085228633"><ele>399.0</ele><time>2026-04-18T15:39:40Z</time></trkpt><trkpt lat="37.111273470995485" lon="14.726993455679754"><ele>399.0</ele><time>2026-04-18T15:39:41Z</time></trkpt><trkpt lat="37.11112819716147" lon="14.726938484157827"><ele>399.0</ele><time>2026-04-18T15:39:42Z</time></trkpt><trkpt lat="37.1109887916211" lon="14.726905870502948"><ele>399.0</ele><time>2026-04-18T15:39:43Z</time></trkpt><trkpt lat="37.11086302655478" lon="14.726838078285263"><ele>401.4</ele><time>2026-04-18T15:39:44Z</time></trkpt><trkpt lat="37.11074896883518" lon="14.726794890794423"><ele>403.79999999999995</ele><time>2026-04-18T15:39:45Z</time></trkpt><trkpt lat="37.11065171410161" lon="14.726760832833149"><ele>406.20000000000005</ele><time>2026-04-18T15:39:46Z</time></trkpt><trkpt lat="37.11055458540581" lon="14.726748108746516"><ele>408.6</ele><time>2026-04-18T15:39:47Z</time></trkpt><trkpt lat="37.1104437707631" lon="14.726699497175218"><ele>411.0</ele><time>2026-04-18T15:39:48Z</time></trkpt><trkpt lat="37.11036073399322" lon="14.726694032792107"><ele>411.0</ele><time>2026-04-18T15:39:49Z</time></trkpt><trkpt lat="37.11027353435372" lon="14.726682774115096"><ele>411.0</ele><time>2026-04-18T15:39:50Z</time></trkpt><trkpt lat="37.11017597217464" lon="14.726689956970253"><ele>411.0</ele><time>2026-04-18T15:39:51Z</time></trkpt><trkpt lat="37.11008504883785" lon="14.72668550665979"><ele>411.0</ele><time>2026-04-18T15:39:52Z</time></trkpt><trkpt lat="37.10998683909331" lon="14.726658945931735"><ele>411.0</ele><time>2026-04-18T15:39:53Z</time></trkpt><trkpt lat="37.10990135073516" lon="14.726607473981698"><ele>409.8333333333333</ele><time>2026-04-18T15:39:54Z</time></trkpt><trkpt lat="37.109815883291475" lon="14.726575028658024"><ele>408.66666666666663</ele><time>2026-04-18T15:39:55Z</time></trkpt><trkpt lat="37.1097478218119" lon="14.726562835741392"><ele>407.5</ele><time>2026-04-18T15:39:56Z</time></trkpt><trkpt lat="37.10967515999248" lon="14.726560937466013"><ele>406.3333333333333</ele><time>2026-04-18T15:39:57Z</time></trkpt><trkpt lat="37.109609591964244" lon="14.726606355576623"><ele>405.16666666666663</ele><time>2026-04-18T15:39:58Z</time></trkpt><trkpt lat="37.10952944112813" lon="14.726579574172643"><ele>404.0</ele><time>2026-04-18T15:39:59Z</time></trkpt><trkpt lat="37.10946454505912" lon="14.72655337165741"><ele>403.99999999999994</ele><time>2026-04-18T15:40:00Z</time></trkpt><trkpt lat="37.10934691899126" lon="14.72645849679387"><ele>404.0</ele><time>2026-04-18T15:40:02Z</time></trkpt><trkpt lat="37.109267645478084" lon="14.726410213630443"><ele>404.0</ele><time>2026-04-18T15:40:03Z</time></trkpt><trkpt lat="37.109188903388066" lon="14.726396677396856"><ele>404.0</ele><time>2026-04-18T15:40:04Z</time></trkpt><trkpt lat="37.10911994301438" lon="14.726382905565812"><ele>403.99999999999994</ele><time>2026-04-18T15:40:05Z</time></trkpt><trkpt lat="37.10905875924135" lon="14.726363833535085"><ele>404.0</ele><time>2026-04-18T15:40:06Z</time></trkpt><trkpt lat="37.10900489552807" lon="14.72631504846256"><ele>404.3333333333333</ele><time>2026-04-18T15:40:07Z</time></trkpt><trkpt lat="37.10895496656088" lon="14.726252906889824"><ele>404.66666666666663</ele><time>2026-04-18T15:40:08Z</time></trkpt><trkpt lat="37.108925555795864" lon="14.72617944342036"><ele>405.0</ele><time>2026-04-18T15:40:09Z</time></trkpt><trkpt lat="37.108899998930866" lon="14.726078838423206"><ele>405.33333333333337</ele><time>2026-04-18T15:40:10Z</time></trkpt><trkpt lat="37.10888207585816" lon="14.725961183476425"><ele>405.6666666666667</ele><time>2026-04-18T15:40:11Z</time></trkpt><trkpt lat="37.108851346085935" lon="14.72587160795025"><ele>406.0</ele><time>2026-04-18T15:40:12Z</time></trkpt><trkpt lat="37.10879729307678" lon="14.725802592999408"><ele>406.0</ele><time>2026-04-18T15:40:13Z</time></trkpt><trkpt lat="37.10872153657173" lon="14.725771554155076"><ele>406.0</ele><time>2026-04-18T15:40:14Z</time></trkpt><trkpt lat="37.108622252983594" lon="14.725764588367976"><ele>406.0</ele><time>2026-04-18T15:40:15Z</time></trkpt><trkpt lat="37.10848240982175" lon="14.725741489217066"><ele>406.0</ele><time>2026-04-18T15:40:16Z</time></trkpt><trkpt lat="37.10835743484758" lon="14.725703241072607"><ele>406.0</ele><time>2026-04-18T15:40:17Z</time></trkpt><trkpt lat="37.108275833274774" lon="14.725660979347477"><ele>406.1666666666667</ele><time>2026-04-18T15:40:18Z</time></trkpt><trkpt lat="37.10820861859084" lon="14.725678116644527"><ele>406.33333333333337</ele><time>2026-04-18T15:40:19Z</time></trkpt><trkpt lat="37.1081140849434" lon="14.725731857867236"><ele>406.5</ele><time>2026-04-18T15:40:20Z</time></trkpt><trkpt lat="37.108025684817164" lon="14.725775823703685"><ele>406.66666666666663</ele><time>2026-04-18T15:40:21Z</time></trkpt><trkpt lat="37.107958528309" lon="14.725776442791911"><ele>406.8333333333333</ele><time>2026-04-18T15:40:22Z</time></trkpt><trkpt lat="37.1078708462797" lon="14.725761900366024"><ele>407.0</ele><time>2026-04-18T15:40:23Z</time></trkpt><trkpt lat="37.10774090221029" lon="14.725731389031402"><ele>407.0</ele><time>2026-04-18T15:40:24Z</time></trkpt><trkpt lat="37.10759335117783" lon="14.725685998690558"><ele>407.0</ele><time>2026-04-18T15:40:25Z</time></trkpt><trkpt lat="37.107458163961994" lon="14.725645271902877"><ele>407.0</ele><time>2026-04-18T15:40:26Z</time></trkpt><trkpt lat="37.10734391595526" lon="14.725589457246755"><ele>407.0</ele><time>2026-04-18T15:40:27Z</time></trkpt><trkpt lat="37.1072369577155" lon="14.725563034666964"><ele>406.8</ele><time>2026-04-18T15:40:28Z</time></trkpt><trkpt lat="37.10708917151651" lon="14.725519129514836"><ele>406.6</ele><time>2026-04-18T15:40:29Z</time></trkpt><trkpt lat="37.106985149351225" lon="14.72549726164693"><ele>406.40000000000003</ele><time>2026-04-18T15:40:30Z</time></trkpt><trkpt lat="37.10689782158004" lon="14.725493881023475"><ele>406.20000000000005</ele><time>2026-04-18T15:40:31Z</time></trkpt><trkpt lat="37.10681070724996" lon="14.725509436207059"><ele>406.0</ele><time>2026-04-18T15:40:32Z</time></trkpt><trkpt lat="37.10672390591937" lon="14.72551650568888"><ele>406.0</ele><time>2026-04-18T15:40:33Z</time></trkpt><trkpt lat="37.10665245892866" lon="14.725486726511607"><ele>406.0</ele><time>2026-04-18T15:40:34Z</time></trkpt><trkpt lat="37.10654009430792" lon="14.7253992119882"><ele>406.0</ele><time>2026-04-18T15:40:36Z</time></trkpt><trkpt lat="37.10646741820179" lon="14.72531895681134"><ele>406.0</ele><time>2026-04-18T15:40:37Z</time></trkpt><trkpt lat="37.10639225476249" lon="14.72523681396321"><ele>406.0</ele><time>2026-04-18T15:40:38Z</time></trkpt><trkpt lat="37.10633140802461" lon="14.725186106921038"><ele>412.75</ele><time>2026-04-18T15:40:39Z</time></trkpt><trkpt lat="37.106268172202554" lon="14.725170567895193"><ele>419.5</ele><time>2026-04-18T15:40:40Z</time></trkpt><trkpt lat="37.10616726980818" lon="14.725174934148427"><ele>426.25</ele><time>2026-04-18T15:40:41Z</time></trkpt><trkpt lat="37.10602643794937" lon="14.725192719048769"><ele>433.0</ele><time>2026-04-18T15:40:42Z</time></trkpt><trkpt lat="37.10587402149359" lon="14.725204238353054"><ele>433.0</ele><time>2026-04-18T15:40:43Z</time></trkpt><trkpt lat="37.10575741805712" lon="14.725190666980009"><ele>433.0</ele><time>2026-04-18T15:40:44Z</time></trkpt><trkpt lat="37.105653490707894" lon="14.725171791469037"><ele>433.0</ele><time>2026-04-18T15:40:45Z</time></trkpt><trkpt lat="37.1055327315878" lon="14.72512640854754"><ele>433.0</ele><time>2026-04-18T15:40:46Z</time></trkpt><trkpt lat="37.10540521781099" lon="14.725102526719281"><ele>431.4</ele><time>2026-04-18T15:40:47Z</time></trkpt><trkpt lat="37.105292849397046" lon="14.725063957658048"><ele>429.79999999999995</ele><time>2026-04-18T15:40:48Z</time></trkpt><trkpt lat="37.10519678633228" lon="14.725032732850506"><ele>428.2</ele><time>2026-04-18T15:40:49Z</time></trkpt><trkpt lat="37.105099300210796" lon="14.72500777024035"><ele>426.6</ele><time>2026-04-18T15:40:50Z</time></trkpt><trkpt lat="37.10500408308091" lon="14.724951922344545"><ele>425.0</ele><time>2026-04-18T15:40:51Z</time></trkpt><trkpt lat="37.104899285675096" lon="14.724931726969926"><ele>422.2</ele><time>2026-04-18T15:40:52Z</time></trkpt><trkpt lat="37.10480707385952" lon="14.724893843934998"><ele>419.4</ele><time>2026-04-18T15:40:53Z</time></trkpt><trkpt lat="37.10470834063703" lon="14.724865608512395"><ele>416.6</ele><time>2026-04-18T15:40:54Z</time></trkpt><trkpt lat="37.10460478513605" lon="14.724865009182547"><ele>413.8</ele><time>2026-04-18T15:40:55Z</time></trkpt><trkpt lat="37.10449186718276" lon="14.724885207842764"><ele>411.0</ele><time>2026-04-18T15:40:56Z</time></trkpt><trkpt lat="37.104375189716045" lon="14.724867222734334"><ele>411.0</ele><time>2026-04-18T15:40:57Z</time></trkpt><trkpt lat="37.10425283754556" lon="14.72485512298628"><ele>411.0</ele><time>2026-04-18T15:40:58Z</time></trkpt><trkpt lat="37.10412539567701" lon="14.724823912086242"><ele>411.0</ele><time>2026-04-18T15:40:59Z</time></trkpt><trkpt lat="37.103997299383074" lon="14.724800883598116"><ele>411.0</ele><time>2026-04-18T15:41:00Z</time></trkpt><trkpt lat="37.103891142341" lon="14.724754300619995"><ele>409.5</ele><time>2026-04-18T15:41:01Z</time></trkpt><trkpt lat="37.103792049172014" lon="14.72471894711362"><ele>408.0</ele><time>2026-04-18T15:41:02Z</time></trkpt><trkpt lat="37.1036644851088" lon="14.724711284671933"><ele>406.5</ele><time>2026-04-18T15:41:03Z</time></trkpt><trkpt lat="37.10351977657388" lon="14.7247053270414"><ele>405.0</ele><time>2026-04-18T15:41:04Z</time></trkpt><trkpt lat="37.10339479981906" lon="14.724705950913735"><ele>405.0</ele><time>2026-04-18T15:41:05Z</time></trkpt><trkpt lat="37.10328915083808" lon="14.724675453367597"><ele>405.0</ele><time>2026-04-18T15:41:06Z</time></trkpt><trkpt lat="37.10320588500666" lon="14.724640750284873"><ele>405.0</ele><time>2026-04-18T15:41:07Z</time></trkpt><trkpt lat="37.10310433187478" lon="14.724582711526736"><ele>405.0</ele><time>2026-04-18T15:41:08Z</time></trkpt><trkpt lat="37.103015140819224" lon="14.724513145495067"><ele>405.0</ele><time>2026-04-18T15:41:09Z</time></trkpt><trkpt lat="37.102930691997535" lon="14.724451764353772"><ele>404.8</ele><time>2026-04-18T15:41:10Z</time></trkpt><trkpt lat="37.10284208931771" lon="14.724396441820891"><ele>404.6</ele><time>2026-04-18T15:41:11Z</time></trkpt><trkpt lat="37.10274611200254" lon="14.724365814295815"><ele>404.4</ele><time>2026-04-18T15:41:12Z</time></trkpt><trkpt lat="37.10261775187919" lon="14.72433814000122"><ele>404.2</ele><time>2026-04-18T15:41:13Z</time></trkpt><trkpt lat="37.10250798065319" lon="14.724342488539035"><ele>404.0</ele><time>2026-04-18T15:41:14Z</time></trkpt><trkpt lat="37.10238951690929" lon="14.724354274383385"><ele>410.0</ele><time>2026-04-18T15:41:15Z</time></trkpt><trkpt lat="37.10227048718925" lon="14.72434360233884"><ele>416.0</ele><time>2026-04-18T15:41:16Z</time></trkpt><trkpt lat="37.10216993854365" lon="14.72434049537697"><ele>422.0</ele><time>2026-04-18T15:41:17Z</time></trkpt><trkpt lat="37.10207769572901" lon="14.724358534311902"><ele>428.0</ele><time>2026-04-18T15:41:18Z</time></trkpt><trkpt lat="37.101988814415016" lon="14.724368489688079"><ele>434.0</ele><time>2026-04-18T15:41:19Z</time></trkpt><trkpt lat="37.10188172602479" lon="14.724378900935838"><ele>431.0</ele><time>2026-04-18T15:41:20Z</time></trkpt><trkpt lat="37.10179743108112" lon="14.724411486443723"><ele>428.0</ele><time>2026-04-18T15:41:21Z</time></trkpt><trkpt lat="37.10173086429553" lon="14.724449355239113"><ele>425.0</ele><time>2026-04-18T15:41:22Z</time></trkpt><trkpt lat="37.1016096122113" lon="14.724606472341225"><ele>422.0</ele><time>2026-04-18T15:41:24Z</time></trkpt><trkpt lat="37.10149711011824" lon="14.724713036095848"><ele>422.0</ele><time>2026-04-18T15:41:25Z</time></trkpt><trkpt lat="37.101386638134066" lon="14.72480176748173"><ele>422.0</ele><time>2026-04-18T15:41:26Z</time></trkpt><trkpt lat="37.101286399668204" lon="14.724868844861787"><ele>422.0</ele><time>2026-04-18T15:41:27Z</time></trkpt><trkpt lat="37.101197922193094" lon="14.724920593659379"><ele>422.0</ele><time>2026-04-18T15:41:28Z</time></trkpt><trkpt lat="37.10110797817763" lon="14.724967106513077"><ele>422.0</ele><time>2026-04-18T15:41:29Z</time></trkpt><trkpt lat="37.10099967100172" lon="14.725012917471073"><ele>422.0</ele><time>2026-04-18T15:41:30Z</time></trkpt><trkpt lat="37.100888733619804" lon="14.725049135715764"><ele>422.0</ele><time>2026-04-18T15:41:31Z</time></trkpt><trkpt lat="37.1007770042998" lon="14.72507299370705"><ele>422.0</ele><time>2026-04-18T15:41:32Z</time></trkpt><trkpt lat="37.10069084551035" lon="14.725103553320327"><ele>422.0</ele><time>2026-04-18T15:41:33Z</time></trkpt><trkpt lat="37.100609402686" lon="14.72516797976351"><ele>422.0</ele><time>2026-04-18T15:41:34Z</time></trkpt><trkpt lat="37.100529020204995" lon="14.725226640814418"><ele>420.40000000000003</ele><time>2026-04-18T15:41:35Z</time></trkpt><trkpt lat="37.100459375637925" lon="14.72532796470245"><ele>418.8</ele><time>2026-04-18T15:41:36Z</time></trkpt><trkpt lat="37.10041082533347" lon="14.725447659700851"><ele>417.2</ele><time>2026-04-18T15:41:37Z</time></trkpt><trkpt lat="37.100381073006304" lon="14.725567040300376"><ele>415.6</ele><time>2026-04-18T15:41:38Z</time></trkpt><trkpt lat="37.10035487868134" lon="14.725678475383113"><ele>414.0</ele><time>2026-04-18T15:41:39Z</time></trkpt><trkpt lat="37.10033325565668" lon="14.725779545310933"><ele>414.0</ele><time>2026-04-18T15:41:40Z</time></trkpt><trkpt lat="37.100303064656586" lon="14.725876880139674"><ele>414.0</ele><time>2026-04-18T15:41:41Z</time></trkpt><trkpt lat="37.10026651991436" lon="14.72596193267177"><ele>414.0</ele><time>2026-04-18T15:41:42Z</time></trkpt><trkpt lat="37.100226972324904" lon="14.726033745799356"><ele>414.0</ele><time>2026-04-18T15:41:43Z</time></trkpt><trkpt lat="37.100183838945675" lon="14.726092450200502"><ele>414.0</ele><time>2026-04-18T15:41:44Z</time></trkpt><trkpt lat="37.10009218114738" lon="14.726123547807802"><ele>414.0</ele><time>2026-04-18T15:41:46Z</time></trkpt><trkpt lat="37.10002092911701" lon="14.726110456963076"><ele>413.4</ele><time>2026-04-18T15:41:47Z</time></trkpt><trkpt lat="37.09992510927547" lon="14.726093377642888"><ele>412.79999999999995</ele><time>2026-04-18T15:41:48Z</time></trkpt><trkpt lat="37.09983251978042" lon="14.726091953484294"><ele>412.20000000000005</ele><time>2026-04-18T15:41:49Z</time></trkpt><trkpt lat="37.09976862612812" lon="14.726065408266043"><ele>411.6</ele><time>2026-04-18T15:41:50Z</time></trkpt><trkpt lat="37.09969698682124" lon="14.726015697094253"><ele>411.0</ele><time>2026-04-18T15:41:52Z</time></trkpt><trkpt lat="37.09963859464574" lon="14.725881363896756"><ele>412.0</ele><time>2026-04-18T15:41:54Z</time></trkpt><trkpt lat="37.09958000242204" lon="14.725748476125588"><ele>413.0</ele><time>2026-04-18T15:41:56Z</time></trkpt><trkpt lat="37.09947963381386" lon="14.725714268333219"><ele>414.0</ele><time>2026-04-18T15:41:58Z</time></trkpt><trkpt lat="37.09943541786986" lon="14.725779543505153"><ele>415.0</ele><time>2026-04-18T15:41:59Z</time></trkpt><trkpt lat="37.09938245866141" lon="14.725831671150573"><ele>416.0</ele><time>2026-04-18T15:42:00Z</time></trkpt><trkpt lat="37.099296917931355" lon="14.725855362026605"><ele>417.0</ele><time>2026-04-18T15:42:02Z</time></trkpt><trkpt lat="37.09921520330468" lon="14.725854375524513"><ele>417.0</ele><time>2026-04-18T15:42:04Z</time></trkpt><trkpt lat="37.0991004748697" lon="14.725877803328807"><ele>417.0</ele><time>2026-04-18T15:42:06Z</time></trkpt><trkpt lat="37.099003578589965" lon="14.725850398716705"><ele>417.0</ele><time>2026-04-18T15:42:08Z</time></trkpt><trkpt lat="37.098914024031906" lon="14.725830302761757"><ele>417.0</ele><time>2026-04-18T15:42:10Z</time></trkpt><trkpt lat="37.0988172496951" lon="14.725824633003427"><ele>417.0</ele><time>2026-04-18T15:42:12Z</time></trkpt><trkpt lat="37.0987178860281" lon="14.725811098013738"><ele>418.1666666666667</ele><time>2026-04-18T15:42:14Z</time></trkpt><trkpt lat="37.09859693068999" lon="14.725841864949563"><ele>419.33333333333337</ele><time>2026-04-18T15:42:16Z</time></trkpt><trkpt lat="37.098513232122656" lon="14.725845942325654"><ele>420.5</ele><time>2026-04-18T15:42:17Z</time></trkpt><trkpt lat="37.09843903134411" lon="14.72585902697275"><ele>421.6666666666667</ele><time>2026-04-18T15:42:18Z</time></trkpt><trkpt lat="37.09837346459586" lon="14.725864013736198"><ele>422.83333333333337</ele><time>2026-04-18T15:42:19Z</time></trkpt><trkpt lat="37.09830573780011" lon="14.725867592420695"><ele>424.0</ele><time>2026-04-18T15:42:20Z</time></trkpt><trkpt lat="37.09822754172155" lon="14.725895542066288"><ele>424.83333333333337</ele><time>2026-04-18T15:42:21Z</time></trkpt><trkpt lat="37.09814738156464" lon="14.725907303960488"><ele>425.6666666666667</ele><time>2026-04-18T15:42:22Z</time></trkpt><trkpt lat="37.09806839493473" lon="14.725920976367842"><ele>426.5</ele><time>2026-04-18T15:42:23Z</time></trkpt><trkpt lat="37.0979902701765" lon="14.725942703970212"><ele>427.33333333333337</ele><time>2026-04-18T15:42:24Z</time></trkpt><trkpt lat="37.09790323799174" lon="14.725943574270389"><ele>428.1666666666667</ele><time>2026-04-18T15:42:25Z</time></trkpt><trkpt lat="37.09782051772166" lon="14.725962391650624"><ele>429.0</ele><time>2026-04-18T15:42:26Z</time></trkpt><trkpt lat="37.09774245264104" lon="14.725998579947438"><ele>429.0</ele><time>2026-04-18T15:42:27Z</time></trkpt><trkpt lat="37.09766974107365" lon="14.726018488685018"><ele>429.0</ele><time>2026-04-18T15:42:28Z</time></trkpt><trkpt lat="37.09759199148425" lon="14.726043436076717"><ele>429.0</ele><time>2026-04-18T15:42:29Z</time></trkpt><trkpt lat="37.09750279669198" lon="14.72609294467319"><ele>429.0</ele><time>2026-04-18T15:42:30Z</time></trkpt><trkpt lat="37.0974068621883" lon="14.726155706629699"><ele>429.0</ele><time>2026-04-18T15:42:31Z</time></trkpt><trkpt lat="37.09728355109856" lon="14.726225181600274"><ele>426.66666666666663</ele><time>2026-04-18T15:42:32Z</time></trkpt><trkpt lat="37.09716895140557" lon="14.726333120096696"><ele>424.3333333333333</ele><time>2026-04-18T15:42:33Z</time></trkpt><trkpt lat="37.0970414854147" lon="14.726452574566615"><ele>422.0</ele><time>2026-04-18T15:42:34Z</time></trkpt><trkpt lat="37.09691998972247" lon="14.726561305965012"><ele>422.0</ele><time>2026-04-18T15:42:35Z</time></trkpt><trkpt lat="37.09681991687227" lon="14.72664874682238"><ele>422.0</ele><time>2026-04-18T15:42:36Z</time></trkpt><trkpt lat="37.096727929141316" lon="14.72669131943629"><ele>422.0</ele><time>2026-04-18T15:42:37Z</time></trkpt><trkpt lat="37.096620954234275" lon="14.726739681836802"><ele>422.0</ele><time>2026-04-18T15:42:38Z</time></trkpt><trkpt lat="37.09652490272361" lon="14.726762210444088"><ele>422.0</ele><time>2026-04-18T15:42:39Z</time></trkpt><trkpt lat="37.09643763088322" lon="14.726788374686958"><ele>422.66666666666663</ele><time>2026-04-18T15:42:40Z</time></trkpt><trkpt lat="37.09635346889356" lon="14.726786612229386"><ele>423.3333333333333</ele><time>2026-04-18T15:42:41Z</time></trkpt><trkpt lat="37.09627353234948" lon="14.726856096953256"><ele>424.0</ele><time>2026-04-18T15:42:43Z</time></trkpt><trkpt lat="37.09619909565908" lon="14.726939001903162"><ele>424.66666666666663</ele><time>2026-04-18T15:42:45Z</time></trkpt><trkpt lat="37.09614409606116" lon="14.726995126533472"><ele>425.3333333333333</ele><time>2026-04-18T15:42:46Z</time></trkpt><trkpt lat="37.09609602283902" lon="14.727056531802454"><ele>426.0</ele><time>2026-04-18T15:42:47Z</time></trkpt><trkpt lat="37.09603281606332" lon="14.72711058493723"><ele>426.0</ele><time>2026-04-18T15:42:48Z</time></trkpt><trkpt lat="37.09597194810022" lon="14.7271665078444"><ele>426.0</ele><time>2026-04-18T15:42:49Z</time></trkpt><trkpt lat="37.095924936162525" lon="14.727243964910262"><ele>426.0</ele><time>2026-04-18T15:42:50Z</time></trkpt><trkpt lat="37.095875141338006" lon="14.727328466849714"><ele>426.0</ele><time>2026-04-18T15:42:51Z</time></trkpt><trkpt lat="37.09582414997198" lon="14.727424384485676"><ele>426.0</ele><time>2026-04-18T15:42:52Z</time></trkpt><trkpt lat="37.09577448816547" lon="14.72751434449457"><ele>426.0</ele><time>2026-04-18T15:42:53Z</time></trkpt><trkpt lat="37.09570664225584" lon="14.727609718130966"><ele>435.25</ele><time>2026-04-18T15:42:54Z</time></trkpt><trkpt lat="37.09566394259094" lon="14.727730148652755"><ele>444.5</ele><time>2026-04-18T15:42:55Z</time></trkpt><trkpt lat="37.09561521550352" lon="14.727881327622814"><ele>453.75</ele><time>2026-04-18T15:42:56Z</time></trkpt><trkpt lat="37.095574111249036" lon="14.72809160608509"><ele>463.0</ele><time>2026-04-18T15:42:57Z</time></trkpt><trkpt lat="37.09555253453818" lon="14.728303658526952"><ele>463.0</ele><time>2026-04-18T15:42:58Z</time></trkpt><trkpt lat="37.095516817578556" lon="14.728480860480948"><ele>463.0</ele><time>2026-04-18T15:42:59Z</time></trkpt><trkpt lat="37.0954962254675" lon="14.728682301896507"><ele>463.0</ele><time>2026-04-18T15:43:00Z</time></trkpt><trkpt lat="37.09550318988272" lon="14.72888254792404"><ele>460.25</ele><time>2026-04-18T15:43:01Z</time></trkpt><trkpt lat="37.095499798687655" lon="14.72907052990604"><ele>457.5</ele><time>2026-04-18T15:43:02Z</time></trkpt><trkpt lat="37.09548952122338" lon="14.729259906078179"><ele>454.75</ele><time>2026-04-18T15:43:03Z</time></trkpt><trkpt lat="37.095476611906" lon="14.729436981368423"><ele>452.0</ele><time>2026-04-18T15:43:04Z</time></trkpt><trkpt lat="37.09546163326445" lon="14.729574638976127"><ele>450.20000000000005</ele><time>2026-04-18T15:43:05Z</time></trkpt><trkpt lat="37.09544166111049" lon="14.729681425198248"><ele>448.40000000000003</ele><time>2026-04-18T15:43:06Z</time></trkpt><trkpt lat="37.0953808251327" lon="14.729842021735209"><ele>446.59999999999997</ele><time>2026-04-18T15:43:08Z</time></trkpt><trkpt lat="37.09536212890342" lon="14.729941818629294"><ele>444.79999999999995</ele><time>2026-04-18T15:43:09Z</time></trkpt><trkpt lat="37.095359939229" lon="14.730043004841807"><ele>443.0</ele><time>2026-04-18T15:43:10Z</time></trkpt><trkpt lat="37.09539560955082" lon="14.7301694537798"><ele>447.25</ele><time>2026-04-18T15:43:11Z</time></trkpt><trkpt lat="37.09543105071526" lon="14.730290172207617"><ele>451.5</ele><time>2026-04-18T15:43:12Z</time></trkpt><trkpt lat="37.09547142100564" lon="14.730427182124492"><ele>455.75</ele><time>2026-04-18T15:43:13Z</time></trkpt><trkpt lat="37.0955133126325" lon="14.730587572232107"><ele>460.0</ele><time>2026-04-18T15:43:14Z</time></trkpt><trkpt lat="37.09555744149434" lon="14.730773672538433"><ele>460.0</ele><time>2026-04-18T15:43:15Z</time></trkpt><trkpt lat="37.095610879870364" lon="14.730982347548816"><ele>460.0</ele><time>2026-04-18T15:43:16Z</time></trkpt><trkpt lat="37.09568498059981" lon="14.731208623099153"><ele>460.0</ele><time>2026-04-18T15:43:17Z</time></trkpt><trkpt lat="37.09575047054442" lon="14.731430984739037"><ele>453.33333333333337</ele><time>2026-04-18T15:43:18Z</time></trkpt><trkpt lat="37.09580535277989" lon="14.731625562667528"><ele>446.66666666666663</ele><time>2026-04-18T15:43:19Z</time></trkpt><trkpt lat="37.09587055779955" lon="14.73179580216682"><ele>440.0</ele><time>2026-04-18T15:43:20Z</time></trkpt><trkpt lat="37.09593950940193" lon="14.731945086857278"><ele>440.0</ele><time>2026-04-18T15:43:21Z</time></trkpt><trkpt lat="37.096004816296386" lon="14.732080434892644"><ele>440.0</ele><time>2026-04-18T15:43:22Z</time></trkpt><trkpt lat="37.096095908419" lon="14.732211191112135"><ele>440.0</ele><time>2026-04-18T15:43:23Z</time></trkpt><trkpt lat="37.096152395493675" lon="14.73235507227857"><ele>440.0</ele><time>2026-04-18T15:43:24Z</time></trkpt><trkpt lat="37.09620906754091" lon="14.732480203284428"><ele>440.0</ele><time>2026-04-18T15:43:25Z</time></trkpt><trkpt lat="37.09624370964524" lon="14.732578612870302"><ele>440.0</ele><time>2026-04-18T15:43:26Z</time></trkpt><trkpt lat="37.09625956208486" lon="14.732675900419522"><ele>440.0</ele><time>2026-04-18T15:43:27Z</time></trkpt><trkpt lat="37.09626740893326" lon="14.73280266904098"><ele>440.0</ele><time>2026-04-18T15:43:28Z</time></trkpt><trkpt lat="37.096274592733785" lon="14.732940380508875"><ele>440.0</ele><time>2026-04-18T15:43:29Z</time></trkpt><trkpt lat="37.09630183739909" lon="14.733069542410886"><ele>443.0</ele><time>2026-04-18T15:43:30Z</time></trkpt><trkpt lat="37.09633053074839" lon="14.733183424237717"><ele>446.0</ele><time>2026-04-18T15:43:31Z</time></trkpt><trkpt lat="37.096378222861055" lon="14.733278872474017"><ele>449.0</ele><time>2026-04-18T15:43:32Z</time></trkpt><trkpt lat="37.09644087870433" lon="14.733383408784462"><ele>452.0</ele><time>2026-04-18T15:43:33Z</time></trkpt><trkpt lat="37.09649050778553" lon="14.7335010824215"><ele>455.0</ele><time>2026-04-18T15:43:34Z</time></trkpt><trkpt lat="37.09653958323225" lon="14.733618351704521"><ele>450.0</ele><time>2026-04-18T15:43:35Z</time></trkpt><trkpt lat="37.09660562990446" lon="14.73375452476812"><ele>445.0</ele><time>2026-04-18T15:43:36Z</time></trkpt><trkpt lat="37.09669829398798" lon="14.73389644805358"><ele>440.0</ele><time>2026-04-18T15:43:37Z</time></trkpt><trkpt lat="37.09682357371576" lon="14.734016280858905"><ele>435.0</ele><time>2026-04-18T15:43:38Z</time></trkpt><trkpt lat="37.09692803720099" lon="14.734178419631222"><ele>435.0</ele><time>2026-04-18T15:43:39Z</time></trkpt><trkpt lat="37.097051405776455" lon="14.734338377500608"><ele>435.0</ele><time>2026-04-18T15:43:40Z</time></trkpt><trkpt lat="37.097171792531306" lon="14.734471797940317"><ele>435.0</ele><time>2026-04-18T15:43:41Z</time></trkpt><trkpt lat="37.09725384144994" lon="14.734572908390557"><ele>434.2</ele><time>2026-04-18T15:43:42Z</time></trkpt><trkpt lat="37.09730173945556" lon="14.734684512241751"><ele>433.4</ele><time>2026-04-18T15:43:43Z</time></trkpt><trkpt lat="37.097353231408405" lon="14.73479621753936"><ele>432.6</ele><time>2026-04-18T15:43:44Z</time></trkpt><trkpt lat="37.09740210464096" lon="14.734914942832066"><ele>431.8</ele><time>2026-04-18T15:43:45Z</time></trkpt><trkpt lat="37.09745571304884" lon="14.735047146341506"><ele>431.0</ele><time>2026-04-18T15:43:46Z</time></trkpt><trkpt lat="37.09751846871587" lon="14.735201907690017"><ele>435.3333333333333</ele><time>2026-04-18T15:43:47Z</time></trkpt><trkpt lat="37.09759970839813" lon="14.735350681482302"><ele>439.66666666666663</ele><time>2026-04-18T15:43:48Z</time></trkpt><trkpt lat="37.09768791987109" lon="14.735520273891282"><ele>444.0</ele><time>2026-04-18T15:43:49Z</time></trkpt><trkpt lat="37.09776305599269" lon="14.735679344580964"><ele>444.0</ele><time>2026-04-18T15:43:50Z</time></trkpt><trkpt lat="37.09781983497246" lon="14.735820440836436"><ele>444.0</ele><time>2026-04-18T15:43:51Z</time></trkpt><trkpt lat="37.0978842558074" lon="14.735947098988024"><ele>444.0</ele><time>2026-04-18T15:43:52Z</time></trkpt><trkpt lat="37.09795111921864" lon="14.736059966995443"><ele>444.0</ele><time>2026-04-18T15:43:53Z</time></trkpt><trkpt lat="37.09801057129574" lon="14.736181289528718"><ele>449.25</ele><time>2026-04-18T15:43:54Z</time></trkpt><trkpt lat="37.09805910126413" lon="14.736327033854929"><ele>454.5</ele><time>2026-04-18T15:43:55Z</time></trkpt><trkpt lat="37.098119175178276" lon="14.736469789222841"><ele>459.75</ele><time>2026-04-18T15:43:56Z</time></trkpt><trkpt lat="37.0981818760245" lon="14.73661528422691"><ele>465.0</ele><time>2026-04-18T15:43:57Z</time></trkpt><trkpt lat="37.09824934258425" lon="14.73677462706716"><ele>462.5</ele><time>2026-04-18T15:43:58Z</time></trkpt><trkpt lat="37.09830901423893" lon="14.736945013466556"><ele>460.0</ele><time>2026-04-18T15:43:59Z</time></trkpt><trkpt lat="37.09837113000612" lon="14.737132537756288"><ele>457.5</ele><time>2026-04-18T15:44:00Z</time></trkpt><trkpt lat="37.09841766592559" lon="14.737293477059591"><ele>455.0</ele><time>2026-04-18T15:44:01Z</time></trkpt><trkpt lat="37.09845240239549" lon="14.737457598448405"><ele>455.0</ele><time>2026-04-18T15:44:02Z</time></trkpt><trkpt lat="37.09845620548134" lon="14.737633265451883"><ele>455.0</ele><time>2026-04-18T15:44:03Z</time></trkpt><trkpt lat="37.09847996659419" lon="14.737808653167559"><ele>455.0</ele><time>2026-04-18T15:44:04Z</time></trkpt><trkpt lat="37.098500856431805" lon="14.737982236803168"><ele>455.0</ele><time>2026-04-18T15:44:05Z</time></trkpt><trkpt lat="37.098520200168444" lon="14.738162659718597"><ele>455.5</ele><time>2026-04-18T15:44:06Z</time></trkpt><trkpt lat="37.098541129631435" lon="14.73835782078092"><ele>456.0</ele><time>2026-04-18T15:44:07Z</time></trkpt><trkpt lat="37.09856217471485" lon="14.738527586078273"><ele>456.5</ele><time>2026-04-18T15:44:08Z</time></trkpt><trkpt lat="37.098599418323985" lon="14.738701780037042"><ele>457.0</ele><time>2026-04-18T15:44:09Z</time></trkpt><trkpt lat="37.09863762456514" lon="14.738856113060315"><ele>459.0</ele><time>2026-04-18T15:44:10Z</time></trkpt><trkpt lat="37.09866416260651" lon="14.738980544753565"><ele>461.00000000000006</ele><time>2026-04-18T15:44:11Z</time></trkpt><trkpt lat="37.098670133907" lon="14.739092594778795"><ele>463.00000000000006</ele><time>2026-04-18T15:44:12Z</time></trkpt><trkpt lat="37.098664859366636" lon="14.739212415638157"><ele>465.0</ele><time>2026-04-18T15:44:13Z</time></trkpt><trkpt lat="37.09865855213601" lon="14.739360252304953"><ele>467.0</ele><time>2026-04-18T15:44:14Z</time></trkpt><trkpt lat="37.098648833834815" lon="14.739527796131387"><ele>470.3333333333333</ele><time>2026-04-18T15:44:15Z</time></trkpt><trkpt lat="37.09863727142891" lon="14.739721672809843"><ele>473.66666666666663</ele><time>2026-04-18T15:44:16Z</time></trkpt><trkpt lat="37.09863069265454" lon="14.739925907933264"><ele>477.0</ele><time>2026-04-18T15:44:17Z</time></trkpt><trkpt lat="37.09863094689266" lon="14.74011040391323"><ele>478.6</ele><time>2026-04-18T15:44:18Z</time></trkpt><trkpt lat="37.09864047380728" lon="14.74025136441891"><ele>480.20000000000005</ele><time>2026-04-18T15:44:19Z</time></trkpt><trkpt lat="37.09865937948029" lon="14.74035218300712"><ele>481.8</ele><time>2026-04-18T15:44:20Z</time></trkpt><trkpt lat="37.09869042332139" lon="14.740439559047646"><ele>483.4</ele><time>2026-04-18T15:44:21Z</time></trkpt><trkpt lat="37.09874595919923" lon="14.740554671426267"><ele>485.0</ele><time>2026-04-18T15:44:22Z</time></trkpt><trkpt lat="37.098824578341926" lon="14.74070859119076"><ele>485.0</ele><time>2026-04-18T15:44:23Z</time></trkpt><trkpt lat="37.09891296046012" lon="14.740855932952341"><ele>485.0</ele><time>2026-04-18T15:44:24Z</time></trkpt><trkpt lat="37.098982213350496" lon="14.740954807681714"><ele>485.0</ele><time>2026-04-18T15:44:25Z</time></trkpt><trkpt lat="37.0990442827767" lon="14.741033707215065"><ele>485.0</ele><time>2026-04-18T15:44:26Z</time></trkpt><trkpt lat="37.099126873327286" lon="14.741111677313011"><ele>485.0</ele><time>2026-04-18T15:44:27Z</time></trkpt><trkpt lat="37.09921263731451" lon="14.741221227547845"><ele>478.0</ele><time>2026-04-18T15:44:28Z</time></trkpt><trkpt lat="37.09928650757916" lon="14.741362954535358"><ele>471.0</ele><time>2026-04-18T15:44:29Z</time></trkpt><trkpt lat="37.099395044822955" lon="14.74154143756397"><ele>464.0</ele><time>2026-04-18T15:44:30Z</time></trkpt><trkpt lat="37.099510191454755" lon="14.741702924287766"><ele>464.0</ele><time>2026-04-18T15:44:31Z</time></trkpt><trkpt lat="37.099601981338246" lon="14.74185950720203"><ele>464.0</ele><time>2026-04-18T15:44:32Z</time></trkpt><trkpt lat="37.09968241766606" lon="14.742034864779427"><ele>464.0</ele><time>2026-04-18T15:44:33Z</time></trkpt><trkpt lat="37.09977445331436" lon="14.742223487273613"><ele>459.75</ele><time>2026-04-18T15:44:34Z</time></trkpt><trkpt lat="37.099859620256545" lon="14.74240394703702"><ele>455.5</ele><time>2026-04-18T15:44:35Z</time></trkpt><trkpt lat="37.09993488999248" lon="14.742541014343859"><ele>451.25</ele><time>2026-04-18T15:44:36Z</time></trkpt><trkpt lat="37.099963085113224" lon="14.742704977839834"><ele>447.0</ele><time>2026-04-18T15:44:37Z</time></trkpt><trkpt lat="37.10000918845184" lon="14.742851498247733"><ele>447.0</ele><time>2026-04-18T15:44:38Z</time></trkpt><trkpt lat="37.100000420914625" lon="14.743018757922963"><ele>447.0</ele><time>2026-04-18T15:44:39Z</time></trkpt><trkpt lat="37.10000203226313" lon="14.743196575379907"><ele>447.0</ele><time>2026-04-18T15:44:40Z</time></trkpt><trkpt lat="37.09999831142944" lon="14.743368017695142"><ele>447.0</ele><time>2026-04-18T15:44:41Z</time></trkpt><trkpt lat="37.099989437325746" lon="14.7435449828489"><ele>447.66666666666663</ele><time>2026-04-18T15:44:42Z</time></trkpt><trkpt lat="37.09997502435557" lon="14.743751079087458"><ele>448.3333333333333</ele><time>2026-04-18T15:44:43Z</time></trkpt><trkpt lat="37.099954327605026" lon="14.743965787139569"><ele>449.0</ele><time>2026-04-18T15:44:44Z</time></trkpt><trkpt lat="37.09991947017712" lon="14.74417419022544"><ele>464.3333333333333</ele><time>2026-04-18T15:44:45Z</time></trkpt><trkpt lat="37.09987590968378" lon="14.7443567122573"><ele>479.66666666666663</ele><time>2026-04-18T15:44:46Z</time></trkpt><trkpt lat="37.09981438180381" lon="14.744567283549996"><ele>495.0</ele><time>2026-04-18T15:44:47Z</time></trkpt><trkpt lat="37.09975627244747" lon="14.744788648615724"><ele>495.0</ele><time>2026-04-18T15:44:48Z</time></trkpt><trkpt lat="37.099724516595046" lon="14.745010803580188"><ele>495.0</ele><time>2026-04-18T15:44:49Z</time></trkpt><trkpt lat="37.09965638149846" lon="14.745241145203776"><ele>495.0</ele><time>2026-04-18T15:44:50Z</time></trkpt><trkpt lat="37.099591526710626" lon="14.745516994531261"><ele>493.66666666666663</ele><time>2026-04-18T15:44:51Z</time></trkpt><trkpt lat="37.099536919289115" lon="14.745758374630256"><ele>492.3333333333333</ele><time>2026-04-18T15:44:52Z</time></trkpt><trkpt lat="37.09949577885412" lon="14.745951479831117"><ele>491.0</ele><time>2026-04-18T15:44:53Z</time></trkpt><trkpt lat="37.09948200446469" lon="14.746124835791324"><ele>488.75</ele><time>2026-04-18T15:44:54Z</time></trkpt><trkpt lat="37.09946193719208" lon="14.746283508505856"><ele>486.5</ele><time>2026-04-18T15:44:55Z</time></trkpt><trkpt lat="37.09944093144436" lon="14.746441574644482"><ele>484.25</ele><time>2026-04-18T15:44:56Z</time></trkpt><trkpt lat="37.099460762058975" lon="14.746612406565637"><ele>482.0</ele><time>2026-04-18T15:44:57Z</time></trkpt><trkpt lat="37.099494759577176" lon="14.746787253662744"><ele>479.66666666666663</ele><time>2026-04-18T15:44:58Z</time></trkpt><trkpt lat="37.09953951525411" lon="14.746965964031464"><ele>477.33333333333337</ele><time>2026-04-18T15:44:59Z</time></trkpt><trkpt lat="37.09958730352517" lon="14.74715078592169"><ele>475.0</ele><time>2026-04-18T15:45:00Z</time></trkpt><trkpt lat="37.09964358459929" lon="14.7473363099697"><ele>475.0</ele><time>2026-04-18T15:45:01Z</time></trkpt><trkpt lat="37.09969977523756" lon="14.747498140644312"><ele>475.0</ele><time>2026-04-18T15:45:02Z</time></trkpt><trkpt lat="37.09975194495385" lon="14.747647546013592"><ele>475.0</ele><time>2026-04-18T15:45:03Z</time></trkpt><trkpt lat="37.09980816027624" lon="14.747806104359283"><ele>475.0</ele><time>2026-04-18T15:45:04Z</time></trkpt><trkpt lat="37.099873462954385" lon="14.747982862976693"><ele>469.33333333333337</ele><time>2026-04-18T15:45:05Z</time></trkpt><trkpt lat="37.09993371046084" lon="14.748146642576467"><ele>463.66666666666663</ele><time>2026-04-18T15:45:06Z</time></trkpt><trkpt lat="37.100004613116" lon="14.748339924490391"><ele>458.0</ele><time>2026-04-18T15:45:07Z</time></trkpt><trkpt lat="37.10006938968877" lon="14.74851125451416"><ele>459.25</ele><time>2026-04-18T15:45:08Z</time></trkpt><trkpt lat="37.1001235143326" lon="14.748667978697645"><ele>460.5</ele><time>2026-04-18T15:45:09Z</time></trkpt><trkpt lat="37.100154478781384" lon="14.748810222353438"><ele>461.75</ele><time>2026-04-18T15:45:10Z</time></trkpt><trkpt lat="37.10016624471677" lon="14.748944808049961"><ele>463.0</ele><time>2026-04-18T15:45:11Z</time></trkpt><trkpt lat="37.100154974323694" lon="14.749076542468055"><ele>463.0</ele><time>2026-04-18T15:45:12Z</time></trkpt><trkpt lat="37.10015147723163" lon="14.749209251314074"><ele>463.0</ele><time>2026-04-18T15:45:13Z</time></trkpt><trkpt lat="37.10008296937921" lon="14.749332767717995"><ele>463.0</ele><time>2026-04-18T15:45:14Z</time></trkpt><trkpt lat="37.10003327302675" lon="14.74947458380193"><ele>463.0</ele><time>2026-04-18T15:45:15Z</time></trkpt><trkpt lat="37.099970885123" lon="14.749628697830067"><ele>462.6666666666667</ele><time>2026-04-18T15:45:16Z</time></trkpt><trkpt lat="37.099889970628816" lon="14.749812953623742"><ele>462.33333333333337</ele><time>2026-04-18T15:45:17Z</time></trkpt><trkpt lat="37.09978185323857" lon="14.75003992200017"><ele>462.0</ele><time>2026-04-18T15:45:18Z</time></trkpt><trkpt lat="37.09966468522615" lon="14.75030546101517"><ele>462.0</ele><time>2026-04-18T15:45:19Z</time></trkpt><trkpt lat="37.09955487334667" lon="14.750555265831036"><ele>462.0</ele><time>2026-04-18T15:45:20Z</time></trkpt><trkpt lat="37.09945765760077" lon="14.750755622178827"><ele>462.0</ele><time>2026-04-18T15:45:21Z</time></trkpt><trkpt lat="37.0993873939132" lon="14.750973213163055"><ele>464.66666666666663</ele><time>2026-04-18T15:45:22Z</time></trkpt><trkpt lat="37.099341193557635" lon="14.75119788733356"><ele>467.3333333333333</ele><time>2026-04-18T15:45:23Z</time></trkpt><trkpt lat="37.09930788977813" lon="14.75141490741988"><ele>470.0</ele><time>2026-04-18T15:45:24Z</time></trkpt><trkpt lat="37.09928447390896" lon="14.751616507104469"><ele>470.0</ele><time>2026-04-18T15:45:25Z</time></trkpt><trkpt lat="37.099266306924186" lon="14.751807226482336"><ele>470.0</ele><time>2026-04-18T15:45:26Z</time></trkpt><trkpt lat="37.09926767605271" lon="14.751980385383126"><ele>470.0</ele><time>2026-04-18T15:45:27Z</time></trkpt><trkpt lat="37.09924639052301" lon="14.75211721134986"><ele>470.0</ele><time>2026-04-18T15:45:28Z</time></trkpt><trkpt lat="37.099223444153246" lon="14.752225911128518"><ele>472.16666666666663</ele><time>2026-04-18T15:45:29Z</time></trkpt><trkpt lat="37.09919737838355" lon="14.752312286635563"><ele>474.3333333333333</ele><time>2026-04-18T15:45:30Z</time></trkpt><trkpt lat="37.099170219928006" lon="14.752384574922736"><ele>476.5</ele><time>2026-04-18T15:45:31Z</time></trkpt><trkpt lat="37.09914001903417" lon="14.752454816414339"><ele>478.66666666666663</ele><time>2026-04-18T15:45:32Z</time></trkpt><trkpt lat="37.09910661344128" lon="14.752575326664958"><ele>480.8333333333333</ele><time>2026-04-18T15:45:34Z</time></trkpt><trkpt lat="37.09910509738815" lon="14.752701310423003"><ele>483.0</ele><time>2026-04-18T15:45:36Z</time></trkpt><trkpt lat="37.099158399547655" lon="14.752789710015328"><ele>484.3333333333333</ele><time>2026-04-18T15:45:39Z</time></trkpt><trkpt lat="37.09921170429084" lon="14.752838516992792"><ele>485.66666666666663</ele><time>2026-04-18T15:46:12Z</time></trkpt><trkpt lat="37.09926468613139" lon="14.75290622154328"><ele>487.0</ele><time>2026-04-18T15:46:15Z</time></trkpt><trkpt lat="37.09919484100325" lon="14.752984228348664"><ele>488.3333333333333</ele><time>2026-04-18T15:46:16Z</time></trkpt><trkpt lat="37.09914562797971" lon="14.753109273585673"><ele>489.66666666666663</ele><time>2026-04-18T15:46:18Z</time></trkpt><trkpt lat="37.09911194358956" lon="14.753187901313538"><ele>491.0</ele><time>2026-04-18T15:46:19Z</time></trkpt><trkpt lat="37.09906445276142" lon="14.753289816308508"><ele>489.0</ele><time>2026-04-18T15:46:20Z</time></trkpt><trkpt lat="37.09902457212633" lon="14.753405678269518"><ele>487.0</ele><time>2026-04-18T15:46:21Z</time></trkpt><trkpt lat="37.09892737828664" lon="14.753569090964959"><ele>485.0</ele><time>2026-04-18T15:46:22Z</time></trkpt><trkpt lat="37.09880333655111" lon="14.75373681666437"><ele>483.0</ele><time>2026-04-18T15:46:23Z</time></trkpt><trkpt lat="37.098677322181864" lon="14.753920149893837"><ele>483.0</ele><time>2026-04-18T15:46:24Z</time></trkpt><trkpt lat="37.09855803523848" lon="14.754089954365304"><ele>483.0</ele><time>2026-04-18T15:46:25Z</time></trkpt><trkpt lat="37.09845190771933" lon="14.754239396933729"><ele>483.0</ele><time>2026-04-18T15:46:26Z</time></trkpt><trkpt lat="37.09835498372367" lon="14.754375879595832"><ele>482.0</ele><time>2026-04-18T15:46:27Z</time></trkpt><trkpt lat="37.098277855543046" lon="14.754515703118384"><ele>481.0</ele><time>2026-04-18T15:46:28Z</time></trkpt><trkpt lat="37.0981850793793" lon="14.754641264392141"><ele>480.0</ele><time>2026-04-18T15:46:29Z</time></trkpt><trkpt lat="37.09808537966329" lon="14.75478500610617"><ele>479.0</ele><time>2026-04-18T15:46:30Z</time></trkpt><trkpt lat="37.09798877158153" lon="14.754925796548395"><ele>479.0</ele><time>2026-04-18T15:46:31Z</time></trkpt><trkpt lat="37.097895151364106" lon="14.755054895878505"><ele>479.0</ele><time>2026-04-18T15:46:32Z</time></trkpt><trkpt lat="37.09780274259223" lon="14.75518194471457"><ele>479.0</ele><time>2026-04-18T15:46:33Z</time></trkpt><trkpt lat="37.097712658395345" lon="14.755312550338791"><ele>479.0</ele><time>2026-04-18T15:46:34Z</time></trkpt><trkpt lat="37.097632280903234" lon="14.75542621584606"><ele>478.5</ele><time>2026-04-18T15:46:35Z</time></trkpt><trkpt lat="37.09755204281926" lon="14.755533842869413"><ele>478.0</ele><time>2026-04-18T15:46:36Z</time></trkpt><trkpt lat="37.097461335697155" lon="14.755649408725882"><ele>477.5</ele><time>2026-04-18T15:46:37Z</time></trkpt><trkpt lat="37.09736122184226" lon="14.755770197110579"><ele>477.0</ele><time>2026-04-18T15:46:38Z</time></trkpt><trkpt lat="37.09725936863818" lon="14.75587464084902"><ele>477.0</ele><time>2026-04-18T15:46:39Z</time></trkpt><trkpt lat="37.09717286776684" lon="14.755964738248222"><ele>477.0</ele><time>2026-04-18T15:46:40Z</time></trkpt><trkpt lat="37.09708692217522" lon="14.756057971312076"><ele>477.0</ele><time>2026-04-18T15:46:41Z</time></trkpt><trkpt lat="37.096996114535784" lon="14.756159403833571"><ele>477.0</ele><time>2026-04-18T15:46:42Z</time></trkpt><trkpt lat="37.096904768630665" lon="14.75626105762263"><ele>476.5</ele><time>2026-04-18T15:46:43Z</time></trkpt><trkpt lat="37.096812102222245" lon="14.756362949965864"><ele>476.0</ele><time>2026-04-18T15:46:44Z</time></trkpt><trkpt lat="37.09672332538308" lon="14.756467628643493"><ele>475.5</ele><time>2026-04-18T15:46:45Z</time></trkpt><trkpt lat="37.09664309035917" lon="14.756585236493706"><ele>475.0</ele><time>2026-04-18T15:46:46Z</time></trkpt><trkpt lat="37.096576920412936" lon="14.75671821503991"><ele>475.0</ele><time>2026-04-18T15:46:47Z</time></trkpt><trkpt lat="37.096524930523685" lon="14.756863012341428"><ele>475.0</ele><time>2026-04-18T15:46:48Z</time></trkpt><trkpt lat="37.09648470506895" lon="14.757014158459192"><ele>475.0</ele><time>2026-04-18T15:46:49Z</time></trkpt><trkpt lat="37.09643133728652" lon="14.757155235125888"><ele>475.0</ele><time>2026-04-18T15:46:50Z</time></trkpt><trkpt lat="37.096412495455475" lon="14.757330671328935"><ele>477.33333333333337</ele><time>2026-04-18T15:46:51Z</time></trkpt><trkpt lat="37.09646016280075" lon="14.757554960437918"><ele>479.66666666666663</ele><time>2026-04-18T15:46:52Z</time></trkpt><trkpt lat="37.0964878489445" lon="14.757821263783764"><ele>482.0</ele><time>2026-04-18T15:46:53Z</time></trkpt><trkpt lat="37.096528706283685" lon="14.758099542391182"><ele>483.3333333333333</ele><time>2026-04-18T15:46:54Z</time></trkpt><trkpt lat="37.096567929920695" lon="14.758387818470473"><ele>484.66666666666663</ele><time>2026-04-18T15:46:55Z</time></trkpt><trkpt lat="37.096603667800125" lon="14.75864269510535"><ele>486.0</ele><time>2026-04-18T15:46:56Z</time></trkpt><trkpt lat="37.096637486918" lon="14.758862631670999"><ele>493.0</ele><time>2026-04-18T15:46:57Z</time></trkpt><trkpt lat="37.096666314661455" lon="14.759063118211705"><ele>500.0</ele><time>2026-04-18T15:46:58Z</time></trkpt><trkpt lat="37.096679923523176" lon="14.759246306271978"><ele>507.0</ele><time>2026-04-18T15:46:59Z</time></trkpt><trkpt lat="37.09665916380978" lon="14.75943792831055"><ele>511.0</ele><time>2026-04-18T15:47:00Z</time></trkpt><trkpt lat="37.09660776364003" lon="14.759641787264522"><ele>515.0</ele><time>2026-04-18T15:47:01Z</time></trkpt><trkpt lat="37.0965402833781" lon="14.759845756024356"><ele>519.0</ele><time>2026-04-18T15:47:02Z</time></trkpt><trkpt lat="37.09647742998886" lon="14.760047207668785"><ele>513.6666666666666</ele><time>2026-04-18T15:47:03Z</time></trkpt><trkpt lat="37.09635480144576" lon="14.760193692968663"><ele>508.3333333333333</ele><time>2026-04-18T15:47:04Z</time></trkpt><trkpt lat="37.09627509032807" lon="14.760368321955406"><ele>503.0</ele><time>2026-04-18T15:47:05Z</time></trkpt><trkpt lat="37.09619748851763" lon="14.760557725064963"><ele>503.0</ele><time>2026-04-18T15:47:06Z</time></trkpt><trkpt lat="37.096142944068575" lon="14.76073581775503"><ele>503.0</ele><time>2026-04-18T15:47:07Z</time></trkpt><trkpt lat="37.096161815147596" lon="14.760920061935042"><ele>503.0</ele><time>2026-04-18T15:47:08Z</time></trkpt><trkpt lat="37.0962042524738" lon="14.761109671126665"><ele>503.5</ele><time>2026-04-18T15:47:09Z</time></trkpt><trkpt lat="37.09622358654515" lon="14.761308528287943"><ele>504.0</ele><time>2026-04-18T15:47:10Z</time></trkpt><trkpt lat="37.09621343845504" lon="14.76146130206384"><ele>504.5</ele><time>2026-04-18T15:47:11Z</time></trkpt><trkpt lat="37.09617726049489" lon="14.761621782270511"><ele>505.0</ele><time>2026-04-18T15:47:12Z</time></trkpt><trkpt lat="37.09616792304948" lon="14.761820982596614"><ele>506.33333333333337</ele><time>2026-04-18T15:47:13Z</time></trkpt><trkpt lat="37.096220832184315" lon="14.762039647934868"><ele>507.66666666666663</ele><time>2026-04-18T15:47:14Z</time></trkpt><trkpt lat="37.096302414354625" lon="14.762247447351927"><ele>509.0</ele><time>2026-04-18T15:47:15Z</time></trkpt><trkpt lat="37.09636185600122" lon="14.76240468780462"><ele>509.0</ele><time>2026-04-18T15:47:16Z</time></trkpt><trkpt lat="37.096389964465175" lon="14.762510325145028"><ele>509.0</ele><time>2026-04-18T15:47:17Z</time></trkpt><trkpt lat="37.09640244700649" lon="14.762594733387253"><ele>509.0</ele><time>2026-04-18T15:47:18Z</time></trkpt><trkpt lat="37.09634722512808" lon="14.762671399646454"><ele>509.0</ele><time>2026-04-18T15:47:19Z</time></trkpt><trkpt lat="37.09623835928287" lon="14.762734641013568"><ele>509.0</ele><time>2026-04-18T15:47:20Z</time></trkpt><trkpt lat="37.0961360751804" lon="14.762864730035078"><ele>511.3333333333333</ele><time>2026-04-18T15:47:21Z</time></trkpt><trkpt lat="37.096060811168805" lon="14.763025253753653"><ele>513.6666666666666</ele><time>2026-04-18T15:47:22Z</time></trkpt><trkpt lat="37.09602547387315" lon="14.763260143140126"><ele>516.0</ele><time>2026-04-18T15:47:23Z</time></trkpt><trkpt lat="37.096000342633836" lon="14.763542299023438"><ele>519.0</ele><time>2026-04-18T15:47:24Z</time></trkpt><trkpt lat="37.095994456436365" lon="14.763867648696475"><ele>522.0</ele><time>2026-04-18T15:47:25Z</time></trkpt><trkpt lat="37.09601171458327" lon="14.76420942735972"><ele>523.3333333333334</ele><time>2026-04-18T15:47:26Z</time></trkpt><trkpt lat="37.09604638729457" lon="14.764504976680662"><ele>524.6666666666667</ele><time>2026-04-18T15:47:27Z</time></trkpt><trkpt lat="37.096062496571136" lon="14.764734693016417"><ele>526.0</ele><time>2026-04-18T15:47:28Z</time></trkpt><trkpt lat="37.09605654959211" lon="14.764924886069275"><ele>526.0</ele><time>2026-04-18T15:47:29Z</time></trkpt><trkpt lat="37.09600341168986" lon="14.765087987114558"><ele>526.0</ele><time>2026-04-18T15:47:30Z</time></trkpt><trkpt lat="37.09595094536205" lon="14.765297315608173"><ele>526.0</ele><time>2026-04-18T15:47:31Z</time></trkpt><trkpt lat="37.09593383170512" lon="14.765509798430505"><ele>526.3333333333334</ele><time>2026-04-18T15:47:32Z</time></trkpt><trkpt lat="37.09594688626262" lon="14.765756007542654"><ele>526.6666666666666</ele><time>2026-04-18T15:47:33Z</time></trkpt><trkpt lat="37.09598980913212" lon="14.766039454177903"><ele>527.0</ele><time>2026-04-18T15:47:34Z</time></trkpt><trkpt lat="37.09601884925869" lon="14.766321489505376"><ele>527.0</ele><time>2026-04-18T15:47:35Z</time></trkpt><trkpt lat="37.096047995674475" lon="14.766538521090759"><ele>527.0</ele><time>2026-04-18T15:47:36Z</time></trkpt><trkpt lat="37.096070989418884" lon="14.7666984526253"><ele>527.0</ele><time>2026-04-18T15:47:37Z</time></trkpt><trkpt lat="37.09610286247293" lon="14.76681903273857"><ele>527.0</ele><time>2026-04-18T15:47:38Z</time></trkpt><trkpt lat="37.09618847756455" lon="14.766892095295285"><ele>529.3333333333333</ele><time>2026-04-18T15:47:39Z</time></trkpt><trkpt lat="37.09630434847774" lon="14.766966450946276"><ele>531.6666666666666</ele><time>2026-04-18T15:47:40Z</time></trkpt><trkpt lat="37.09646646550492" lon="14.767041904383953"><ele>534.0</ele><time>2026-04-18T15:47:41Z</time></trkpt><trkpt lat="37.0966058729291" lon="14.767126129094729"><ele>536.8333333333334</ele><time>2026-04-18T15:47:42Z</time></trkpt><trkpt lat="37.09669596863184" lon="14.767180742954812"><ele>539.6666666666666</ele><time>2026-04-18T15:47:43Z</time></trkpt><trkpt lat="37.096750530297086" lon="14.767238637452492"><ele>542.5</ele><time>2026-04-18T15:47:44Z</time></trkpt><trkpt lat="37.09674829286292" lon="14.767323684962877"><ele>545.3333333333333</ele><time>2026-04-18T15:47:45Z</time></trkpt><trkpt lat="37.09672166319126" lon="14.767430770510915"><ele>548.1666666666666</ele><time>2026-04-18T15:47:46Z</time></trkpt><trkpt lat="37.096696611428335" lon="14.767551972884926"><ele>551.0</ele><time>2026-04-18T15:47:47Z</time></trkpt><trkpt lat="37.096612009086165" lon="14.767619399303692"><ele>546.75</ele><time>2026-04-18T15:47:48Z</time></trkpt><trkpt lat="37.096505020172984" lon="14.767641227175108"><ele>542.5</ele><time>2026-04-18T15:47:49Z</time></trkpt><trkpt lat="37.09637225970906" lon="14.76763592627954"><ele>538.25</ele><time>2026-04-18T15:47:50Z</time></trkpt><trkpt lat="37.09620447138272" lon="14.767628438021484"><ele>534.0</ele><time>2026-04-18T15:47:51Z</time></trkpt><trkpt lat="37.09603586446223" lon="14.767644185349035"><ele>534.0</ele><time>2026-04-18T15:47:52Z</time></trkpt><trkpt lat="37.095899306042334" lon="14.767692882907005"><ele>534.0</ele><time>2026-04-18T15:47:53Z</time></trkpt><trkpt lat="37.09578122093832" lon="14.76778991484176"><ele>534.0</ele><time>2026-04-18T15:47:54Z</time></trkpt><trkpt lat="37.09568312240055" lon="14.767917871307999"><ele>534.0</ele><time>2026-04-18T15:47:55Z</time></trkpt><trkpt lat="37.095593388664724" lon="14.76809864863818"><ele>534.0</ele><time>2026-04-18T15:47:56Z</time></trkpt><trkpt lat="37.09550281609634" lon="14.768312594923522"><ele>534.0</ele><time>2026-04-18T15:47:57Z</time></trkpt><trkpt lat="37.09542131521913" lon="14.768553971645844"><ele>534.0</ele><time>2026-04-18T15:47:58Z</time></trkpt><trkpt lat="37.095364191566496" lon="14.768815764258195"><ele>538.0</ele><time>2026-04-18T15:47:59Z</time></trkpt><trkpt lat="37.09532049321991" lon="14.769092478962818"><ele>542.0</ele><time>2026-04-18T15:48:00Z</time></trkpt><trkpt lat="37.095276610545646" lon="14.76938854936704"><ele>544.3333333333333</ele><time>2026-04-18T15:48:01Z</time></trkpt><trkpt lat="37.09523732960951" lon="14.769642896353876"><ele>546.6666666666666</ele><time>2026-04-18T15:48:02Z</time></trkpt><trkpt lat="37.09519503008052" lon="14.769874586042146"><ele>549.0</ele><time>2026-04-18T15:48:03Z</time></trkpt><trkpt lat="37.095097852477224" lon="14.770107265813612"><ele>544.5</ele><time>2026-04-18T15:48:04Z</time></trkpt><trkpt lat="37.094976720144146" lon="14.770395631869194"><ele>540.0</ele><time>2026-04-18T15:48:05Z</time></trkpt><trkpt lat="37.09485030247091" lon="14.770725780031208"><ele>540.0</ele><time>2026-04-18T15:48:06Z</time></trkpt><trkpt lat="37.09472549789899" lon="14.771016428616313"><ele>540.0</ele><time>2026-04-18T15:48:07Z</time></trkpt><trkpt lat="37.09462344537192" lon="14.771265549555698"><ele>543.3333333333334</ele><time>2026-04-18T15:48:08Z</time></trkpt><trkpt lat="37.09451234886106" lon="14.771506911024627"><ele>546.6666666666667</ele><time>2026-04-18T15:48:09Z</time></trkpt><trkpt lat="37.094384135394456" lon="14.771728188073123"><ele>550.0</ele><time>2026-04-18T15:48:10Z</time></trkpt><trkpt lat="37.0942441759358" lon="14.77193014319843"><ele>554.5</ele><time>2026-04-18T15:48:11Z</time></trkpt><trkpt lat="37.094087743057756" lon="14.772116708607122"><ele>559.0</ele><time>2026-04-18T15:48:12Z</time></trkpt><trkpt lat="37.093898462915355" lon="14.772295313422555"><ele>559.0</ele><time>2026-04-18T15:48:13Z</time></trkpt><trkpt lat="37.093672164425755" lon="14.772446609051022"><ele>559.0</ele><time>2026-04-18T15:48:14Z</time></trkpt><trkpt lat="37.093438613840256" lon="14.772582120547186"><ele>558.3333333333334</ele><time>2026-04-18T15:48:15Z</time></trkpt><trkpt lat="37.09324840439328" lon="14.772707146431141"><ele>557.6666666666666</ele><time>2026-04-18T15:48:16Z</time></trkpt><trkpt lat="37.093094067169304" lon="14.772827734621062"><ele>557.0</ele><time>2026-04-18T15:48:17Z</time></trkpt><trkpt lat="37.092966674095535" lon="14.772957548918598"><ele>557.0</ele><time>2026-04-18T15:48:18Z</time></trkpt><trkpt lat="37.0928500855433" lon="14.773138369211607"><ele>557.0</ele><time>2026-04-18T15:48:19Z</time></trkpt><trkpt lat="37.09272779750261" lon="14.773387923405828"><ele>557.0</ele><time>2026-04-18T15:48:20Z</time></trkpt><trkpt lat="37.092622995771755" lon="14.77361206437802"><ele>558.0</ele><time>2026-04-18T15:48:21Z</time></trkpt><trkpt lat="37.09255934272773" lon="14.77375464884637"><ele>559.0</ele><time>2026-04-18T15:48:22Z</time></trkpt><trkpt lat="37.092505220956355" lon="14.773847043962657"><ele>560.0</ele><time>2026-04-18T15:48:23Z</time></trkpt><trkpt lat="37.09251129505509" lon="14.77395306049276"><ele>561.0</ele><time>2026-04-18T15:48:24Z</time></trkpt><trkpt lat="37.09257874970618" lon="14.774076952015378"><ele>562.0</ele><time>2026-04-18T15:48:25Z</time></trkpt><trkpt lat="37.092647866732605" lon="14.77427039885583"><ele>564.3333333333334</ele><time>2026-04-18T15:48:26Z</time></trkpt><trkpt lat="37.09273871049527" lon="14.774498789351036"><ele>566.6666666666666</ele><time>2026-04-18T15:48:27Z</time></trkpt><trkpt lat="37.09283512646307" lon="14.774688256575226"><ele>569.0</ele><time>2026-04-18T15:48:28Z</time></trkpt><trkpt lat="37.09291211427729" lon="14.77480751332516"><ele>569.0</ele><time>2026-04-18T15:48:29Z</time></trkpt><trkpt lat="37.09295852293603" lon="14.774898156868842"><ele>569.0</ele><time>2026-04-18T15:48:30Z</time></trkpt><trkpt lat="37.09291930156042" lon="14.775049343570258"><ele>569.0</ele><time>2026-04-18T15:48:32Z</time></trkpt><trkpt lat="37.09286636412859" lon="14.775128690626147"><ele>569.0</ele><time>2026-04-18T15:48:33Z</time></trkpt><trkpt lat="37.09276716018832" lon="14.77513963958988"><ele>569.0</ele><time>2026-04-18T15:48:34Z</time></trkpt><trkpt lat="37.092684380131224" lon="14.775085502317907"><ele>569.0</ele><time>2026-04-18T15:48:35Z</time></trkpt><trkpt lat="37.0926025032295" lon="14.775015101205987"><ele>569.0</ele><time>2026-04-18T15:48:36Z</time></trkpt><trkpt lat="37.09247990855079" lon="14.774862960836321"><ele>569.0</ele><time>2026-04-18T15:48:37Z</time></trkpt><trkpt lat="37.09231700001277" lon="14.7746676521425"><ele>572.0</ele><time>2026-04-18T15:48:38Z</time></trkpt><trkpt lat="37.09214372056354" lon="14.7744765948203"><ele>575.0</ele><time>2026-04-18T15:48:39Z</time></trkpt><trkpt lat="37.09200507336193" lon="14.77430028238291"><ele>578.0</ele><time>2026-04-18T15:48:40Z</time></trkpt><trkpt lat="37.09191848272111" lon="14.774126434287954"><ele>578.0</ele><time>2026-04-18T15:48:41Z</time></trkpt><trkpt lat="37.09186810027779" lon="14.773934559321818"><ele>578.0</ele><time>2026-04-18T15:48:42Z</time></trkpt><trkpt lat="37.09182708318893" lon="14.7738138395241"><ele>578.0</ele><time>2026-04-18T15:48:43Z</time></trkpt><trkpt lat="37.09175051391397" lon="14.77374439302117"><ele>578.0</ele><time>2026-04-18T15:48:44Z</time></trkpt><trkpt lat="37.09164165210025" lon="14.77371983493513"><ele>581.6666666666666</ele><time>2026-04-18T15:48:45Z</time></trkpt><trkpt lat="37.09148390238056" lon="14.773721095522845"><ele>585.3333333333334</ele><time>2026-04-18T15:48:46Z</time></trkpt><trkpt lat="37.0912764312303" lon="14.773739410956724"><ele>589.0</ele><time>2026-04-18T15:48:47Z</time></trkpt><trkpt lat="37.09103572578937" lon="14.773738071310902"><ele>589.0</ele><time>2026-04-18T15:48:48Z</time></trkpt><trkpt lat="37.090816664351" lon="14.77371025498271"><ele>589.0</ele><time>2026-04-18T15:48:49Z</time></trkpt><trkpt lat="37.09065787620514" lon="14.773665218385899"><ele>589.0</ele><time>2026-04-18T15:48:50Z</time></trkpt><trkpt lat="37.09054506535793" lon="14.77362476542211"><ele>589.1666666666667</ele><time>2026-04-18T15:48:51Z</time></trkpt><trkpt lat="37.0904614521209" lon="14.7735746526132"><ele>589.3333333333334</ele><time>2026-04-18T15:48:52Z</time></trkpt><trkpt lat="37.09041705921234" lon="14.773491583189976"><ele>589.5</ele><time>2026-04-18T15:48:53Z</time></trkpt><trkpt lat="37.09041489713415" lon="14.77339834413514"><ele>589.6666666666666</ele><time>2026-04-18T15:48:54Z</time></trkpt><trkpt lat="37.090452887809086" lon="14.773330492375404"><ele>589.8333333333333</ele><time>2026-04-18T15:48:55Z</time></trkpt><trkpt lat="37.0905560108441" lon="14.77329338138171"><ele>590.0</ele><time>2026-04-18T15:48:56Z</time></trkpt><trkpt lat="37.09066557203736" lon="14.773206939578087"><ele>586.0</ele><time>2026-04-18T15:48:57Z</time></trkpt><trkpt lat="37.090772895890275" lon="14.773115299704845"><ele>582.0</ele><time>2026-04-18T15:48:58Z</time></trkpt><trkpt lat="37.09086620387602" lon="14.772998202934042"><ele>578.0</ele><time>2026-04-18T15:48:59Z</time></trkpt><trkpt lat="37.09093833684371" lon="14.772862864149856"><ele>574.0</ele><time>2026-04-18T15:49:00Z</time></trkpt><trkpt lat="37.09099663903585" lon="14.772740026456278"><ele>574.0</ele><time>2026-04-18T15:49:01Z</time></trkpt><trkpt lat="37.09107487648687" lon="14.772675224200514"><ele>574.0</ele><time>2026-04-18T15:49:02Z</time></trkpt><trkpt lat="37.091188784008686" lon="14.772710398774603"><ele>574.0</ele><time>2026-04-18T15:49:03Z</time></trkpt><trkpt lat="37.09135583415624" lon="14.772687528436798"><ele>574.0</ele><time>2026-04-18T15:49:04Z</time></trkpt><trkpt lat="37.09154102414743" lon="14.772639443920799"><ele>577.0</ele><time>2026-04-18T15:49:05Z</time></trkpt><trkpt lat="37.091710954652214" lon="14.772572524450105"><ele>580.0</ele><time>2026-04-18T15:49:06Z</time></trkpt><trkpt lat="37.091859131554486" lon="14.772461702537054"><ele>583.0</ele><time>2026-04-18T15:49:07Z</time></trkpt><trkpt lat="37.09199834188796" lon="14.772324939677326"><ele>583.0</ele><time>2026-04-18T15:49:08Z</time></trkpt><trkpt lat="37.09211698310115" lon="14.772157687658265"><ele>583.0</ele><time>2026-04-18T15:49:09Z</time></trkpt><trkpt lat="37.092226261998874" lon="14.771936278326647"><ele>583.0</ele><time>2026-04-18T15:49:10Z</time></trkpt><trkpt lat="37.09234394712762" lon="14.771682124355308"><ele>582.6666666666667</ele><time>2026-04-18T15:49:11Z</time></trkpt><trkpt lat="37.09248015481332" lon="14.771495834774866"><ele>582.3333333333334</ele><time>2026-04-18T15:49:12Z</time></trkpt><trkpt lat="37.09262319275033" lon="14.771359777988735"><ele>582.0</ele><time>2026-04-18T15:49:13Z</time></trkpt><trkpt lat="37.092750884278274" lon="14.771214737033198"><ele>582.0</ele><time>2026-04-18T15:49:14Z</time></trkpt><trkpt lat="37.09284562552817" lon="14.771068328328154"><ele>582.0</ele><time>2026-04-18T15:49:15Z</time></trkpt><trkpt lat="37.092899814174956" lon="14.77088011145839"><ele>582.0</ele><time>2026-04-18T15:49:16Z</time></trkpt><trkpt lat="37.09292941405791" lon="14.770657404302487"><ele>588.75</ele><time>2026-04-18T15:49:17Z</time></trkpt><trkpt lat="37.092976888057905" lon="14.770472510402064"><ele>595.5</ele><time>2026-04-18T15:49:18Z</time></trkpt><trkpt lat="37.093090740918775" lon="14.770362280400981"><ele>602.25</ele><time>2026-04-18T15:49:19Z</time></trkpt><trkpt lat="37.09316337454515" lon="14.770239162089547"><ele>609.0</ele><time>2026-04-18T15:49:20Z</time></trkpt><trkpt lat="37.09318275279428" lon="14.77011056719793"><ele>613.6666666666666</ele><time>2026-04-18T15:49:21Z</time></trkpt><trkpt lat="37.093141085548936" lon="14.769918349916386"><ele>618.3333333333333</ele><time>2026-04-18T15:49:22Z</time></trkpt><trkpt lat="37.09305686015493" lon="14.769688073314391"><ele>623.0</ele><time>2026-04-18T15:49:23Z</time></trkpt><trkpt lat="37.092937174967396" lon="14.769483394025238"><ele>620.75</ele><time>2026-04-18T15:49:24Z</time></trkpt><trkpt lat="37.09281650815015" lon="14.769348481217945"><ele>618.5</ele><time>2026-04-18T15:49:25Z</time></trkpt><trkpt lat="37.09272392388004" lon="14.769246039920995"><ele>616.25</ele><time>2026-04-18T15:49:26Z</time></trkpt><trkpt lat="37.09267668763411" lon="14.769127218987725"><ele>614.0</ele><time>2026-04-18T15:49:27Z</time></trkpt><trkpt lat="37.092673606718144" lon="14.76898801214436"><ele>614.0</ele><time>2026-04-18T15:49:28Z</time></trkpt><trkpt lat="37.09269972368535" lon="14.768846998791297"><ele>614.0</ele><time>2026-04-18T15:49:29Z</time></trkpt><trkpt lat="37.09275812162977" lon="14.768716964529586"><ele>614.0</ele><time>2026-04-18T15:49:30Z</time></trkpt><trkpt lat="37.0928411737404" lon="14.768607414741295"><ele>614.0</ele><time>2026-04-18T15:49:31Z</time></trkpt><trkpt lat="37.092938557661924" lon="14.768535161540424"><ele>614.0</ele><time>2026-04-18T15:49:32Z</time></trkpt><trkpt lat="37.09305332766173" lon="14.768529662899391"><ele>614.0</ele><time>2026-04-18T15:49:33Z</time></trkpt><trkpt lat="37.09318465057595" lon="14.768509139415036"><ele>614.0</ele><time>2026-04-18T15:49:34Z</time></trkpt><trkpt lat="37.09329328597375" lon="14.768465825502538"><ele>614.0</ele><time>2026-04-18T15:49:35Z</time></trkpt><trkpt lat="37.0933629186804" lon="14.768366783257116"><ele>612.5</ele><time>2026-04-18T15:49:36Z</time></trkpt><trkpt lat="37.0934090161951" lon="14.768265138871564"><ele>611.0</ele><time>2026-04-18T15:49:37Z</time></trkpt><trkpt lat="37.09344652341085" lon="14.768101715192975"><ele>609.5</ele><time>2026-04-18T15:49:38Z</time></trkpt><trkpt lat="37.09349701897113" lon="14.76786679949626"><ele>608.0</ele><time>2026-04-18T15:49:39Z</time></trkpt><trkpt lat="37.09353552127989" lon="14.767668401597241"><ele>608.0</ele><time>2026-04-18T15:49:40Z</time></trkpt><trkpt lat="37.093533293441176" lon="14.76751248282536"><ele>608.0</ele><time>2026-04-18T15:49:41Z</time></trkpt><trkpt lat="37.09348330821175" lon="14.767398609989382"><ele>608.0</ele><time>2026-04-18T15:49:42Z</time></trkpt><trkpt lat="37.09339389656319" lon="14.767308548397548"><ele>608.0</ele><time>2026-04-18T15:49:43Z</time></trkpt><trkpt lat="37.093268739033" lon="14.76723603889527"><ele>617.6666666666666</ele><time>2026-04-18T15:49:44Z</time></trkpt><trkpt lat="37.0931026240255" lon="14.767171213926494"><ele>627.3333333333334</ele><time>2026-04-18T15:49:45Z</time></trkpt><trkpt lat="37.09290551610778" lon="14.767083196969041"><ele>637.0</ele><time>2026-04-18T15:49:46Z</time></trkpt><trkpt lat="37.09268095579085" lon="14.766968380268885"><ele>641.3333333333334</ele><time>2026-04-18T15:49:47Z</time></trkpt><trkpt lat="37.09246942156862" lon="14.766849320345667"><ele>645.6666666666666</ele><time>2026-04-18T15:49:48Z</time></trkpt><trkpt lat="37.092296487906395" lon="14.766733503128647"><ele>650.0</ele><time>2026-04-18T15:49:49Z</time></trkpt><trkpt lat="37.092161713756546" lon="14.766621951543437"><ele>650.0</ele><time>2026-04-18T15:49:50Z</time></trkpt><trkpt lat="37.092058515434765" lon="14.766506701433611"><ele>650.0</ele><time>2026-04-18T15:49:51Z</time></trkpt><trkpt lat="37.091987997340354" lon="14.766367955189493"><ele>650.0</ele><time>2026-04-18T15:49:52Z</time></trkpt><trkpt lat="37.09194099039556" lon="14.766218977190356"><ele>650.0</ele><time>2026-04-18T15:49:53Z</time></trkpt><trkpt lat="37.091912825954545" lon="14.766094701601558"><ele>649.4</ele><time>2026-04-18T15:49:54Z</time></trkpt><trkpt lat="37.0919439038392" lon="14.766005313392952"><ele>648.8</ele><time>2026-04-18T15:49:55Z</time></trkpt><trkpt lat="37.09200918848196" lon="14.765930333899698"><ele>648.2</ele><time>2026-04-18T15:49:56Z</time></trkpt><trkpt lat="37.092106600950075" lon="14.765881720640403"><ele>647.6</ele><time>2026-04-18T15:49:57Z</time></trkpt><trkpt lat="37.09224457339708" lon="14.765842846668754"><ele>647.0</ele><time>2026-04-18T15:49:58Z</time></trkpt><trkpt lat="37.0924360056716" lon="14.765790357568267"><ele>638.0</ele><time>2026-04-18T15:49:59Z</time></trkpt><trkpt lat="37.092640166923694" lon="14.765721138704773"><ele>629.0</ele><time>2026-04-18T15:50:00Z</time></trkpt><trkpt lat="37.09280893887134" lon="14.765643372468372"><ele>620.0</ele><time>2026-04-18T15:50:01Z</time></trkpt><trkpt lat="37.092928483788434" lon="14.76558848202837"><ele>620.0</ele><time>2026-04-18T15:50:02Z</time></trkpt><trkpt lat="37.093013364200225" lon="14.765534751402306"><ele>620.0</ele><time>2026-04-18T15:50:03Z</time></trkpt><trkpt lat="37.093063850553925" lon="14.765451170573682"><ele>620.0</ele><time>2026-04-18T15:50:04Z</time></trkpt><trkpt lat="37.0930692396091" lon="14.765331291483637"><ele>620.0</ele><time>2026-04-18T15:50:05Z</time></trkpt><trkpt lat="37.09303280480097" lon="14.76516822538502"><ele>620.0</ele><time>2026-04-18T15:50:06Z</time></trkpt><trkpt lat="37.092972823753186" lon="14.764957826039199"><ele>626.6666666666666</ele><time>2026-04-18T15:50:07Z</time></trkpt><trkpt lat="37.09292741730149" lon="14.76474226603621"><ele>633.3333333333334</ele><time>2026-04-18T15:50:08Z</time></trkpt><trkpt lat="37.09292310357986" lon="14.76454032529459"><ele>640.0</ele><time>2026-04-18T15:50:09Z</time></trkpt><trkpt lat="37.09297508654751" lon="14.764347289187219"><ele>640.0</ele><time>2026-04-18T15:50:10Z</time></trkpt><trkpt lat="37.09305466669717" lon="14.764155185797533"><ele>640.0</ele><time>2026-04-18T15:50:11Z</time></trkpt><trkpt lat="37.09309318514754" lon="14.764019032689514"><ele>640.0</ele><time>2026-04-18T15:50:12Z</time></trkpt><trkpt lat="37.09305954262424" lon="14.763948362336986"><ele>640.0</ele><time>2026-04-18T15:50:13Z</time></trkpt><trkpt lat="37.09299489988486" lon="14.76389874645206"><ele>640.0</ele><time>2026-04-18T15:50:14Z</time></trkpt><trkpt lat="37.09287906338818" lon="14.763888683572537"><ele>640.0</ele><time>2026-04-18T15:50:15Z</time></trkpt><trkpt lat="37.09273145017048" lon="14.763925659120055"><ele>640.0</ele><time>2026-04-18T15:50:16Z</time></trkpt><trkpt lat="37.09255438223197" lon="14.763984867868913"><ele>640.0</ele><time>2026-04-18T15:50:17Z</time></trkpt><trkpt lat="37.09241114163601" lon="14.76397821043451"><ele>644.75</ele><time>2026-04-18T15:50:18Z</time></trkpt><trkpt lat="37.092300855108" lon="14.763906670001074"><ele>649.5</ele><time>2026-04-18T15:50:19Z</time></trkpt><trkpt lat="37.09220988676036" lon="14.763771852403929"><ele>654.25</ele><time>2026-04-18T15:50:20Z</time></trkpt><trkpt lat="37.0920989467096" lon="14.763609127090996"><ele>659.0</ele><time>2026-04-18T15:50:21Z</time></trkpt><trkpt lat="37.091964206440814" lon="14.763483841448773"><ele>659.0</ele><time>2026-04-18T15:50:22Z</time></trkpt><trkpt lat="37.09184411280841" lon="14.763413087227832"><ele>659.0</ele><time>2026-04-18T15:50:23Z</time></trkpt><trkpt lat="37.091750461516426" lon="14.763327580057442"><ele>659.0</ele><time>2026-04-18T15:50:24Z</time></trkpt><trkpt lat="37.091699417308675" lon="14.763212194155852"><ele>659.0</ele><time>2026-04-18T15:50:25Z</time></trkpt><trkpt lat="37.09168593565131" lon="14.763076452356216"><ele>659.0</ele><time>2026-04-18T15:50:26Z</time></trkpt><trkpt lat="37.09170224545284" lon="14.762947235745498"><ele>659.0</ele><time>2026-04-18T15:50:27Z</time></trkpt><trkpt lat="37.09173950103723" lon="14.762832617853064"><ele>659.0</ele><time>2026-04-18T15:50:28Z</time></trkpt><trkpt lat="37.09180300290015" lon="14.762686960622467"><ele>659.0</ele><time>2026-04-18T15:50:29Z</time></trkpt><trkpt lat="37.09189223295215" lon="14.7625300491736"><ele>660.25</ele><time>2026-04-18T15:50:30Z</time></trkpt><trkpt lat="37.09199236242026" lon="14.762391366338822"><ele>661.5</ele><time>2026-04-18T15:50:31Z</time></trkpt><trkpt lat="37.09208635674881" lon="14.762273144620394"><ele>662.75</ele><time>2026-04-18T15:50:32Z</time></trkpt><trkpt lat="37.09214719951441" lon="14.762133325671208"><ele>664.0</ele><time>2026-04-18T15:50:33Z</time></trkpt><trkpt lat="37.092170137993236" lon="14.76196683847905"><ele>663.25</ele><time>2026-04-18T15:50:34Z</time></trkpt><trkpt lat="37.09215408586111" lon="14.761777571816843"><ele>662.5</ele><time>2026-04-18T15:50:35Z</time></trkpt><trkpt lat="37.09213145861028" lon="14.761585192729575"><ele>661.75</ele><time>2026-04-18T15:50:36Z</time></trkpt><trkpt lat="37.092141820171875" lon="14.761421859529944"><ele>661.0</ele><time>2026-04-18T15:50:37Z</time></trkpt><trkpt lat="37.09218949935573" lon="14.761288924791897"><ele>661.0</ele><time>2026-04-18T15:50:38Z</time></trkpt><trkpt lat="37.0922683729677" lon="14.761185132248848"><ele>661.0</ele><time>2026-04-18T15:50:39Z</time></trkpt><trkpt lat="37.092338793609244" lon="14.761114287705565"><ele>661.0</ele><time>2026-04-18T15:50:40Z</time></trkpt><trkpt lat="37.092418580442" lon="14.76104871608899"><ele>661.0</ele><time>2026-04-18T15:50:42Z</time></trkpt><trkpt lat="37.09247302202127" lon="14.760920463722885"><ele>661.0</ele><time>2026-04-18T15:51:15Z</time></trkpt><trkpt lat="37.09252416412732" lon="14.760838369405324"><ele>660.0</ele><time>2026-04-18T15:51:16Z</time></trkpt><trkpt lat="37.092596057362904" lon="14.760766687324885"><ele>659.0</ele><time>2026-04-18T15:51:17Z</time></trkpt><trkpt lat="37.0926639928809" lon="14.760695268580081"><ele>658.0</ele><time>2026-04-18T15:51:18Z</time></trkpt><trkpt lat="37.0927189533813" lon="14.760608895431522"><ele>657.0</ele><time>2026-04-18T15:51:19Z</time></trkpt><trkpt lat="37.09275213763158" lon="14.760503233212413"><ele>656.0</ele><time>2026-04-18T15:51:20Z</time></trkpt><trkpt lat="37.09277514591832" lon="14.760388763562421"><ele>656.0</ele><time>2026-04-18T15:51:21Z</time></trkpt><trkpt lat="37.092791885356206" lon="14.760269766322285"><ele>656.0</ele><time>2026-04-18T15:51:22Z</time></trkpt><trkpt lat="37.092813439128406" lon="14.760140384898438"><ele>656.0</ele><time>2026-04-18T15:51:23Z</time></trkpt><trkpt lat="37.09284393210195" lon="14.759995209834479"><ele>656.0</ele><time>2026-04-18T15:51:24Z</time></trkpt><trkpt lat="37.09287730537121" lon="14.759845453368523"><ele>656.0</ele><time>2026-04-18T15:51:25Z</time></trkpt><trkpt lat="37.09290459923749" lon="14.759697450812224"><ele>656.4</ele><time>2026-04-18T15:51:26Z</time></trkpt><trkpt lat="37.092901202153364" lon="14.75955411261513"><ele>656.8</ele><time>2026-04-18T15:51:28Z</time></trkpt><trkpt lat="37.09283279331333" lon="14.7594557666864"><ele>657.1999999999999</ele><time>2026-04-18T15:51:30Z</time></trkpt><trkpt lat="37.09273933074468" lon="14.759489656565352"><ele>657.5999999999999</ele><time>2026-04-18T15:51:32Z</time></trkpt><trkpt lat="37.09267031657964" lon="14.759603716821276"><ele>658.0</ele><time>2026-04-18T15:51:34Z</time></trkpt><trkpt lat="37.09263359705005" lon="14.759670105214417"><ele>658.0</ele><time>2026-04-18T15:51:35Z</time></trkpt><trkpt lat="37.0925907623752" lon="14.759753648731648"><ele>658.0</ele><time>2026-04-18T15:51:36Z</time></trkpt><trkpt lat="37.09253445655445" lon="14.759849813768653"><ele>658.0</ele><time>2026-04-18T15:51:37Z</time></trkpt><trkpt lat="37.09247503862802" lon="14.75994827896118"><ele>658.0</ele><time>2026-04-18T15:51:38Z</time></trkpt><trkpt lat="37.09240221846124" lon="14.760047174066493"><ele>658.0</ele><time>2026-04-18T15:51:39Z</time></trkpt><trkpt lat="37.09232386182093" lon="14.760151216969435"><ele>656.8</ele><time>2026-04-18T15:51:40Z</time></trkpt><trkpt lat="37.09225004841214" lon="14.760240404119056"><ele>655.5999999999999</ele><time>2026-04-18T15:51:41Z</time></trkpt><trkpt lat="37.09215744549077" lon="14.760311143280271"><ele>654.4000000000001</ele><time>2026-04-18T15:51:42Z</time></trkpt><trkpt lat="37.092078806054836" lon="14.760393505485634"><ele>653.2</ele><time>2026-04-18T15:51:43Z</time></trkpt><trkpt lat="37.09200246804755" lon="14.760469248304865"><ele>652.0</ele><time>2026-04-18T15:51:44Z</time></trkpt><trkpt lat="37.091938131744286" lon="14.760549014618862"><ele>652.0</ele><time>2026-04-18T15:51:45Z</time></trkpt><trkpt lat="37.09188299942801" lon="14.760629605198462"><ele>652.0</ele><time>2026-04-18T15:51:46Z</time></trkpt><trkpt lat="37.09184038646467" lon="14.760694882026256"><ele>652.0</ele><time>2026-04-18T15:51:47Z</time></trkpt><trkpt lat="37.09177796062493" lon="14.760808718182913"><ele>652.0</ele><time>2026-04-18T15:51:49Z</time></trkpt><trkpt lat="37.09177023196415" lon="14.760901236890819"><ele>652.0</ele><time>2026-04-18T15:51:51Z</time></trkpt><trkpt lat="37.091813533722316" lon="14.760972190644155"><ele>652.0</ele><time>2026-04-18T15:51:53Z</time></trkpt><trkpt lat="37.09192292597827" lon="14.761045505822006"><ele>653.5</ele><time>2026-04-18T15:51:55Z</time></trkpt><trkpt lat="37.091996627487006" lon="14.761110122261071"><ele>655.0</ele><time>2026-04-18T15:51:57Z</time></trkpt><trkpt lat="37.09200761568148" lon="14.761203943724317"><ele>656.5</ele><time>2026-04-18T15:51:59Z</time></trkpt><trkpt lat="37.09196939475735" lon="14.761354982320404"><ele>658.0</ele><time>2026-04-18T15:52:01Z</time></trkpt><trkpt lat="37.09192192051763" lon="14.761419568158527"><ele>659.5</ele><time>2026-04-18T15:52:02Z</time></trkpt><trkpt lat="37.09185643321543" lon="14.76146188946507"><ele>661.0</ele><time>2026-04-18T15:52:03Z</time></trkpt><trkpt lat="37.09179393942965" lon="14.761483245644246"><ele>661.0</ele><time>2026-04-18T15:52:04Z</time></trkpt><trkpt lat="37.091727575960654" lon="14.761465022256965"><ele>661.0</ele><time>2026-04-18T15:52:05Z</time></trkpt><trkpt lat="37.091644928635205" lon="14.761542983233724"><ele>661.0</ele><time>2026-04-18T15:52:07Z</time></trkpt><trkpt lat="37.0916426529707" lon="14.761632998865204"><ele>661.0</ele><time>2026-04-18T15:52:08Z</time></trkpt><trkpt lat="37.09165940030363" lon="14.76171914011708"><ele>661.0</ele><time>2026-04-18T15:52:09Z</time></trkpt><trkpt lat="37.091725742023975" lon="14.761861126106309"><ele>661.0</ele><time>2026-04-18T15:52:11Z</time></trkpt><trkpt lat="37.09174084185468" lon="14.761941484893644"><ele>661.5999999999999</ele><time>2026-04-18T15:52:12Z</time></trkpt><trkpt lat="37.09169504300804" lon="14.762051530635471"><ele>662.2</ele><time>2026-04-18T15:52:14Z</time></trkpt><trkpt lat="37.09160501043045" lon="14.762151755364687"><ele>662.8</ele><time>2026-04-18T15:52:16Z</time></trkpt><trkpt lat="37.09154271977959" lon="14.762215076825004"><ele>663.4000000000001</ele><time>2026-04-18T15:52:17Z</time></trkpt><trkpt lat="37.09147308127583" lon="14.762277546850285"><ele>664.0</ele><time>2026-04-18T15:52:18Z</time></trkpt><trkpt lat="37.09140062180611" lon="14.762340140711986"><ele>665.0</ele><time>2026-04-18T15:52:19Z</time></trkpt><trkpt lat="37.09133694593007" lon="14.7623985107875"><ele>666.0</ele><time>2026-04-18T15:52:20Z</time></trkpt><trkpt lat="37.091281388436656" lon="14.762449970882054"><ele>667.0</ele><time>2026-04-18T15:52:21Z</time></trkpt><trkpt lat="37.091237111944295" lon="14.762512782965741"><ele>668.0</ele><time>2026-04-18T15:52:23Z</time></trkpt><trkpt lat="37.0912633403949" lon="14.762649172917733"><ele>669.0</ele><time>2026-04-18T15:52:25Z</time></trkpt><trkpt lat="37.0912480536601" lon="14.762747440127425"><ele>670.0</ele><time>2026-04-18T15:52:26Z</time></trkpt><trkpt lat="37.09119135243677" lon="14.762846953891199"><ele>674.0</ele><time>2026-04-18T15:52:27Z</time></trkpt><trkpt lat="37.091151652100564" lon="14.762973411033121"><ele>678.0</ele><time>2026-04-18T15:52:28Z</time></trkpt><trkpt lat="37.09111487912753" lon="14.763102251102717"><ele>682.0</ele><time>2026-04-18T15:52:29Z</time></trkpt><trkpt lat="37.09108451625743" lon="14.76322982428187"><ele>686.0</ele><time>2026-04-18T15:52:30Z</time></trkpt><trkpt lat="37.091066461864386" lon="14.763365771389594"><ele>690.0</ele><time>2026-04-18T15:52:31Z</time></trkpt><trkpt lat="37.09105806202221" lon="14.763503868463454"><ele>692.0</ele><time>2026-04-18T15:52:32Z</time></trkpt><trkpt lat="37.09105454622096" lon="14.763636346727463"><ele>694.0</ele><time>2026-04-18T15:52:33Z</time></trkpt><trkpt lat="37.09106844362951" lon="14.7637737122073"><ele>696.0</ele><time>2026-04-18T15:52:34Z</time></trkpt><trkpt lat="37.09110330359777" lon="14.763897577697971"><ele>698.0</ele><time>2026-04-18T15:52:35Z</time></trkpt><trkpt lat="37.09116323480814" lon="14.76399827786351"><ele>700.0</ele><time>2026-04-18T15:52:36Z</time></trkpt><trkpt lat="37.09122586978431" lon="14.764092178060022"><ele>700.0</ele><time>2026-04-18T15:52:37Z</time></trkpt><trkpt lat="37.09128449714372" lon="14.764190401888007"><ele>700.0</ele><time>2026-04-18T15:52:38Z</time></trkpt><trkpt lat="37.09132280088246" lon="14.764292706330059"><ele>700.0</ele><time>2026-04-18T15:52:39Z</time></trkpt><trkpt lat="37.09136100797842" lon="14.764376560545717"><ele>700.0</ele><time>2026-04-18T15:52:40Z</time></trkpt><trkpt lat="37.09136040990998" lon="14.76445987563743"><ele>700.0</ele><time>2026-04-18T15:52:41Z</time></trkpt><trkpt lat="37.09130686391628" lon="14.764613027468524"><ele>699.0</ele><time>2026-04-18T15:52:43Z</time></trkpt><trkpt lat="37.09125339245684" lon="14.76466499531271"><ele>698.0</ele><time>2026-04-18T15:52:44Z</time></trkpt><trkpt lat="37.091201834736324" lon="14.764720522170505"><ele>697.0</ele><time>2026-04-18T15:52:45Z</time></trkpt><trkpt lat="37.09112528602307" lon="14.764765804079369"><ele>696.0</ele><time>2026-04-18T15:52:46Z</time></trkpt><trkpt lat="37.091039959865526" lon="14.764804343010153"><ele>695.0</ele><time>2026-04-18T15:52:47Z</time></trkpt><trkpt lat="37.09096758917414" lon="14.764837940067927"><ele>694.0</ele><time>2026-04-18T15:52:48Z</time></trkpt><trkpt lat="37.09090866989617" lon="14.764876710396862"><ele>694.0</ele><time>2026-04-18T15:52:49Z</time></trkpt><trkpt lat="37.090847006348" lon="14.764946117630192"><ele>694.0</ele><time>2026-04-18T15:52:51Z</time></trkpt><trkpt lat="37.09080495623053" lon="14.76507307364513"><ele>694.0</ele><time>2026-04-18T15:53:38Z</time></trkpt><trkpt lat="37.0907617833312" lon="14.765215964041822"><ele>694.0</ele><time>2026-04-18T15:53:40Z</time></trkpt><trkpt lat="37.09073000648285" lon="14.765287444925063"><ele>694.0</ele><time>2026-04-18T15:53:41Z</time></trkpt><trkpt lat="37.09068400634012" lon="14.765348510215741"><ele>694.0</ele><time>2026-04-18T15:53:42Z</time></trkpt><trkpt lat="37.090633436738926" lon="14.765408906197134"><ele>692.5</ele><time>2026-04-18T15:53:43Z</time></trkpt><trkpt lat="37.09057839848983" lon="14.765482997878152"><ele>691.0</ele><time>2026-04-18T15:53:44Z</time></trkpt><trkpt lat="37.09051699892328" lon="14.765560714622403"><ele>689.5</ele><time>2026-04-18T15:53:45Z</time></trkpt><trkpt lat="37.09044537757055" lon="14.765660703232646"><ele>688.0</ele><time>2026-04-18T15:53:47Z</time></trkpt><trkpt lat="37.09040766756482" lon="14.765724158650022"><ele>686.5</ele><time>2026-04-18T15:53:49Z</time></trkpt><trkpt lat="37.09034653563415" lon="14.765693974248109"><ele>685.0</ele><time>2026-04-18T15:53:52Z</time></trkpt><trkpt lat="37.090331500377296" lon="14.76556185524977"><ele>685.0</ele><time>2026-04-18T15:53:54Z</time></trkpt><trkpt lat="37.09031254665576" lon="14.765448083897928"><ele>685.0</ele><time>2026-04-18T15:53:55Z</time></trkpt><trkpt lat="37.09027282258318" lon="14.765338303728614"><ele>685.0</ele><time>2026-04-18T15:53:56Z</time></trkpt><trkpt lat="37.09021065323497" lon="14.765230679191232"><ele>685.0</ele><time>2026-04-18T15:53:57Z</time></trkpt><trkpt lat="37.090119472016816" lon="14.7651001119011"><ele>685.0</ele><time>2026-04-18T15:53:58Z</time></trkpt><trkpt lat="37.090061820377116" lon="14.7649700763669"><ele>686.0</ele><time>2026-04-18T15:53:59Z</time></trkpt><trkpt lat="37.09001019802084" lon="14.764853818358977"><ele>687.0</ele><time>2026-04-18T15:54:00Z</time></trkpt><trkpt lat="37.089957277279396" lon="14.764734620995156"><ele>688.0</ele><time>2026-04-18T15:54:01Z</time></trkpt><trkpt lat="37.08989546635007" lon="14.764595399544772"><ele>689.0</ele><time>2026-04-18T15:54:02Z</time></trkpt><trkpt lat="37.08984275248222" lon="14.764481972061246"><ele>690.0</ele><time>2026-04-18T15:54:03Z</time></trkpt><trkpt lat="37.089792133997044" lon="14.764383117129228"><ele>690.0</ele><time>2026-04-18T15:54:04Z</time></trkpt><trkpt lat="37.089746809202715" lon="14.764300455050362"><ele>690.0</ele><time>2026-04-18T15:54:05Z</time></trkpt><trkpt lat="37.08967486749658" lon="14.764193725296966"><ele>690.0</ele><time>2026-04-18T15:54:07Z</time></trkpt><trkpt lat="37.08960052546438" lon="14.764108236797995"><ele>690.0</ele><time>2026-04-18T15:54:09Z</time></trkpt><trkpt lat="37.08949664380842" lon="14.764023807194818"><ele>690.0</ele><time>2026-04-18T15:54:11Z</time></trkpt><trkpt lat="37.089433300699994" lon="14.76396304809153"><ele>690.0</ele><time>2026-04-18T15:54:12Z</time></trkpt><trkpt lat="37.08936868674777" lon="14.763912214162781"><ele>690.0</ele><time>2026-04-18T15:54:13Z</time></trkpt><trkpt lat="37.089298719822" lon="14.763859482034931"><ele>690.0</ele><time>2026-04-18T15:54:14Z</time></trkpt><trkpt lat="37.089240213070084" lon="14.763804109340777"><ele>690.0</ele><time>2026-04-18T15:54:15Z</time></trkpt><trkpt lat="37.08917379106717" lon="14.763693168643236"><ele>690.0</ele><time>2026-04-18T15:54:17Z</time></trkpt><trkpt lat="37.08912370196594" lon="14.763547017544283"><ele>689.3333333333334</ele><time>2026-04-18T15:54:19Z</time></trkpt><trkpt lat="37.089128315786205" lon="14.763464629172145"><ele>688.6666666666666</ele><time>2026-04-18T15:54:20Z</time></trkpt><trkpt lat="37.08911559139014" lon="14.763369002550755"><ele>688.0</ele><time>2026-04-18T15:54:21Z</time></trkpt><trkpt lat="37.08909425263514" lon="14.763286967763513"><ele>687.3333333333333</ele><time>2026-04-18T15:54:22Z</time></trkpt><trkpt lat="37.08908627225945" lon="14.763208138300055"><ele>686.6666666666666</ele><time>2026-04-18T15:54:23Z</time></trkpt><trkpt lat="37.08907981619221" lon="14.763069405667132"><ele>686.0</ele><time>2026-04-18T15:54:25Z</time></trkpt><trkpt lat="37.089064480165575" lon="14.762940512209951"><ele>686.0</ele><time>2026-04-18T15:54:27Z</time></trkpt><trkpt lat="37.089056345977" lon="14.762787802811705"><ele>686.0</ele><time>2026-04-18T15:54:29Z</time></trkpt><trkpt lat="37.08903960452735" lon="14.76269740481472"><ele>686.0</ele><time>2026-04-18T15:54:30Z</time></trkpt><trkpt lat="37.08903759876862" lon="14.762568420681019"><ele>686.0</ele><time>2026-04-18T15:54:32Z</time></trkpt><trkpt lat="37.089049150340806" lon="14.762489168369461"><ele>686.0</ele><time>2026-04-18T15:54:34Z</time></trkpt><trkpt lat="37.08901703067363" lon="14.762415934448116"><ele>686.0</ele><time>2026-04-18T16:05:40Z</time></trkpt><trkpt lat="37.08898472372839" lon="14.7623338718636"><ele>686.0</ele><time>2026-04-18T16:05:42Z</time></trkpt><trkpt lat="37.08895052502449" lon="14.762256043840361"><ele>686.0</ele><time>2026-04-18T16:05:45Z</time></trkpt><trkpt lat="37.08887478678703" lon="14.762241476476694"><ele>686.0</ele><time>2026-04-18T16:05:49Z</time></trkpt><trkpt lat="37.088802038661385" lon="14.762231341301225"><ele>686.0</ele><time>2026-04-18T16:05:51Z</time></trkpt><trkpt lat="37.08873908940825" lon="14.762269891662477"><ele>686.0</ele><time>2026-04-18T16:05:53Z</time></trkpt><trkpt lat="37.08866692186807" lon="14.762317440929065"><ele>686.0</ele><time>2026-04-18T16:05:55Z</time></trkpt><trkpt lat="37.08857712053921" lon="14.762406285880159"><ele>686.0</ele><time>2026-04-18T16:05:57Z</time></trkpt><trkpt lat="37.08852637159225" lon="14.76245860053285"><ele>686.0</ele><time>2026-04-18T16:05:58Z</time></trkpt><trkpt lat="37.08847753230485" lon="14.762510534242262"><ele>686.0</ele><time>2026-04-18T16:05:59Z</time></trkpt><trkpt lat="37.088389455282616" lon="14.762615863265909"><ele>686.0</ele><time>2026-04-18T16:06:01Z</time></trkpt><trkpt lat="37.0883078068048" lon="14.762728449008204"><ele>686.0</ele><time>2026-04-18T16:06:03Z</time></trkpt><trkpt lat="37.0882217297264" lon="14.762838110773112"><ele>683.8333333333333</ele><time>2026-04-18T16:06:05Z</time></trkpt><trkpt lat="37.08813345100334" lon="14.762911995732521"><ele>681.6666666666666</ele><time>2026-04-18T16:06:07Z</time></trkpt><trkpt lat="37.088075243401335" lon="14.76295404550077"><ele>679.5</ele><time>2026-04-18T16:06:08Z</time></trkpt><trkpt lat="37.088015187642156" lon="14.762982284845277"><ele>677.3333333333334</ele><time>2026-04-18T16:06:09Z</time></trkpt><trkpt lat="37.08792902031586" lon="14.763020044495876"><ele>675.1666666666667</ele><time>2026-04-18T16:06:10Z</time></trkpt><trkpt lat="37.08783215815507" lon="14.763059779559018"><ele>673.0</ele><time>2026-04-18T16:06:11Z</time></trkpt><trkpt lat="37.087708229102425" lon="14.763110618078008"><ele>673.0</ele><time>2026-04-18T16:06:13Z</time></trkpt><trkpt lat="37.087583168284986" lon="14.763171229844996"><ele>673.0</ele><time>2026-04-18T16:06:15Z</time></trkpt><trkpt lat="37.08749887597875" lon="14.763172480359149"><ele>673.0</ele><time>2026-04-18T16:06:16Z</time></trkpt><trkpt lat="37.087370796502995" lon="14.76318413022899"><ele>673.0</ele><time>2026-04-18T16:06:18Z</time></trkpt><trkpt lat="37.08728580735376" lon="14.763205108288386"><ele>673.0</ele><time>2026-04-18T16:06:19Z</time></trkpt><trkpt lat="37.08720952483264" lon="14.763205169085484"><ele>671.2</ele><time>2026-04-18T16:06:20Z</time></trkpt><trkpt lat="37.08710064177179" lon="14.763201824750038"><ele>669.4</ele><time>2026-04-18T16:06:22Z</time></trkpt><trkpt lat="37.08703389505128" lon="14.763199200731384"><ele>667.6</ele><time>2026-04-18T16:06:24Z</time></trkpt><trkpt lat="37.08695264906665" lon="14.763201035993935"><ele>665.8000000000001</ele><time>2026-04-18T16:06:27Z</time></trkpt><trkpt lat="37.08686495182723" lon="14.763339623351149"><ele>664.0</ele><time>2026-04-18T16:06:29Z</time></trkpt><trkpt lat="37.08684595160792" lon="14.763454461658979"><ele>663.0</ele><time>2026-04-18T16:06:30Z</time></trkpt><trkpt lat="37.086838197909394" lon="14.763582505187163"><ele>662.0</ele><time>2026-04-18T16:06:31Z</time></trkpt><trkpt lat="37.08684451090654" lon="14.763721579118641"><ele>661.0</ele><time>2026-04-18T16:06:32Z</time></trkpt><trkpt lat="37.08687177513016" lon="14.7638522436539"><ele>660.0</ele><time>2026-04-18T16:06:33Z</time></trkpt><trkpt lat="37.08690895778961" lon="14.763960646891759"><ele>659.0</ele><time>2026-04-18T16:06:34Z</time></trkpt><trkpt lat="37.08696222565123" lon="14.764052189821461"><ele>659.0</ele><time>2026-04-18T16:06:35Z</time></trkpt><trkpt lat="37.087026531681275" lon="14.764130714068749"><ele>659.0</ele><time>2026-04-18T16:06:36Z</time></trkpt><trkpt lat="37.087109368482935" lon="14.76420948142185"><ele>659.0</ele><time>2026-04-18T16:06:37Z</time></trkpt><trkpt lat="37.087204723639275" lon="14.764273220270898"><ele>659.0</ele><time>2026-04-18T16:06:38Z</time></trkpt><trkpt lat="37.087314772677885" lon="14.764315676224365"><ele>659.0</ele><time>2026-04-18T16:06:39Z</time></trkpt><trkpt lat="37.08741853744325" lon="14.764345768073278"><ele>657.8000000000001</ele><time>2026-04-18T16:06:40Z</time></trkpt><trkpt lat="37.08751384029706" lon="14.76436922111668"><ele>656.6</ele><time>2026-04-18T16:06:41Z</time></trkpt><trkpt lat="37.08761239752307" lon="14.764391544162075"><ele>655.4</ele><time>2026-04-18T16:06:42Z</time></trkpt><trkpt lat="37.087705085878525" lon="14.76441242825033"><ele>654.2</ele><time>2026-04-18T16:06:43Z</time></trkpt><trkpt lat="37.08779909992659" lon="14.764432184232442"><ele>653.0</ele><time>2026-04-18T16:06:44Z</time></trkpt><trkpt lat="37.087894354239914" lon="14.764452068969101"><ele>653.0</ele><time>2026-04-18T16:06:45Z</time></trkpt><trkpt lat="37.087985219094456" lon="14.764471219645099"><ele>653.0</ele><time>2026-04-18T16:06:46Z</time></trkpt><trkpt lat="37.0880776023584" lon="14.764496161138283"><ele>653.0</ele><time>2026-04-18T16:06:47Z</time></trkpt><trkpt lat="37.08815721275948" lon="14.764522495694616"><ele>653.0</ele><time>2026-04-18T16:06:48Z</time></trkpt><trkpt lat="37.088234168462684" lon="14.764556646280434"><ele>653.0</ele><time>2026-04-18T16:06:49Z</time></trkpt><trkpt lat="37.08832252709818" lon="14.764601578528254"><ele>653.0</ele><time>2026-04-18T16:06:50Z</time></trkpt><trkpt lat="37.08840748297998" lon="14.764645224001312"><ele>654.2</ele><time>2026-04-18T16:06:51Z</time></trkpt><trkpt lat="37.088496730083826" lon="14.764692817711465"><ele>655.4</ele><time>2026-04-18T16:06:52Z</time></trkpt><trkpt lat="37.088589351349036" lon="14.76474618397601"><ele>656.6</ele><time>2026-04-18T16:06:53Z</time></trkpt><trkpt lat="37.08868700426976" lon="14.764803555555304"><ele>657.8000000000001</ele><time>2026-04-18T16:06:54Z</time></trkpt><trkpt lat="37.088788988261676" lon="14.764864453249654"><ele>659.0</ele><time>2026-04-18T16:06:55Z</time></trkpt><trkpt lat="37.08889856018133" lon="14.764929881976173"><ele>659.0</ele><time>2026-04-18T16:06:56Z</time></trkpt><trkpt lat="37.089029531609064" lon="14.765008821071142"><ele>659.0</ele><time>2026-04-18T16:06:57Z</time></trkpt><trkpt lat="37.089166087660765" lon="14.765090970391164"><ele>659.0</ele><time>2026-04-18T16:06:58Z</time></trkpt><trkpt lat="37.089287037571246" lon="14.765158270610051"><ele>659.0</ele><time>2026-04-18T16:06:59Z</time></trkpt><trkpt lat="37.08938055623442" lon="14.76521225342886"><ele>661.0</ele><time>2026-04-18T16:07:00Z</time></trkpt><trkpt lat="37.08944909129497" lon="14.76527492672137"><ele>663.0</ele><time>2026-04-18T16:07:01Z</time></trkpt><trkpt lat="37.089503749274094" lon="14.765347545371878"><ele>665.0</ele><time>2026-04-18T16:07:02Z</time></trkpt><trkpt lat="37.089530343474046" lon="14.765434727909636"><ele>667.0</ele><time>2026-04-18T16:07:03Z</time></trkpt><trkpt lat="37.08954553335475" lon="14.765528744534514"><ele>669.0</ele><time>2026-04-18T16:07:04Z</time></trkpt><trkpt lat="37.08954286611022" lon="14.765632322722995"><ele>671.0</ele><time>2026-04-18T16:07:05Z</time></trkpt><trkpt lat="37.08950558120877" lon="14.765718353762875"><ele>671.0</ele><time>2026-04-18T16:07:06Z</time></trkpt><trkpt lat="37.089449406857504" lon="14.765794301682384"><ele>671.0</ele><time>2026-04-18T16:07:07Z</time></trkpt><trkpt lat="37.08938433935083" lon="14.765864452371137"><ele>671.0</ele><time>2026-04-18T16:07:08Z</time></trkpt><trkpt lat="37.08929631197728" lon="14.765956361957976"><ele>671.0</ele><time>2026-04-18T16:07:09Z</time></trkpt><trkpt lat="37.089203353410944" lon="14.766054608416432"><ele>671.0</ele><time>2026-04-18T16:07:10Z</time></trkpt><trkpt lat="37.089101239000215" lon="14.766100864122066"><ele>674.25</ele><time>2026-04-18T16:07:11Z</time></trkpt><trkpt lat="37.08899686086499" lon="14.766130676137536"><ele>677.5</ele><time>2026-04-18T16:07:12Z</time></trkpt><trkpt lat="37.08888020565937" lon="14.766125237144843"><ele>680.75</ele><time>2026-04-18T16:07:13Z</time></trkpt><trkpt lat="37.08876522213856" lon="14.766130900106338"><ele>684.0</ele><time>2026-04-18T16:07:14Z</time></trkpt><trkpt lat="37.08862167690309" lon="14.766156309013333"><ele>684.0</ele><time>2026-04-18T16:07:15Z</time></trkpt><trkpt lat="37.088463395370844" lon="14.76617347291942"><ele>684.0</ele><time>2026-04-18T16:07:16Z</time></trkpt><trkpt lat="37.088325236426186" lon="14.76619626226601"><ele>684.0</ele><time>2026-04-18T16:07:17Z</time></trkpt><trkpt lat="37.08819220385311" lon="14.766226799987567"><ele>684.0</ele><time>2026-04-18T16:07:18Z</time></trkpt><trkpt lat="37.08806272897269" lon="14.766261319327915"><ele>681.5</ele><time>2026-04-18T16:07:19Z</time></trkpt><trkpt lat="37.08792909911977" lon="14.766309074794346"><ele>679.0</ele><time>2026-04-18T16:07:20Z</time></trkpt><trkpt lat="37.08779900017756" lon="14.766365027935782"><ele>676.5</ele><time>2026-04-18T16:07:21Z</time></trkpt><trkpt lat="37.08767715772477" lon="14.766429326416427"><ele>674.0</ele><time>2026-04-18T16:07:22Z</time></trkpt><trkpt lat="37.08755720309822" lon="14.76650019701951"><ele>674.0</ele><time>2026-04-18T16:07:23Z</time></trkpt><trkpt lat="37.087436896933205" lon="14.76657794151853"><ele>674.0</ele><time>2026-04-18T16:07:24Z</time></trkpt><trkpt lat="37.0873074926356" lon="14.766655001190557"><ele>674.0</ele><time>2026-04-18T16:07:25Z</time></trkpt><trkpt lat="37.08718239347987" lon="14.766730679226479"><ele>674.0</ele><time>2026-04-18T16:07:26Z</time></trkpt><trkpt lat="37.08707278568475" lon="14.766798110126228"><ele>673.6</ele><time>2026-04-18T16:07:27Z</time></trkpt><trkpt lat="37.0869753540531" lon="14.766854080335907"><ele>673.2</ele><time>2026-04-18T16:07:28Z</time></trkpt><trkpt lat="37.086889068299634" lon="14.766912572377052"><ele>672.8000000000001</ele><time>2026-04-18T16:07:29Z</time></trkpt><trkpt lat="37.08681589858175" lon="14.766984099945418"><ele>672.4000000000001</ele><time>2026-04-18T16:07:30Z</time></trkpt><trkpt lat="37.08676436454944" lon="14.767066886645466"><ele>672.0</ele><time>2026-04-18T16:07:31Z</time></trkpt><trkpt lat="37.08673464633873" lon="14.767161861334198"><ele>672.0</ele><time>2026-04-18T16:07:32Z</time></trkpt><trkpt lat="37.08670160169316" lon="14.767256653578645"><ele>672.0</ele><time>2026-04-18T16:07:33Z</time></trkpt><trkpt lat="37.08669443708113" lon="14.767354140112225"><ele>672.0</ele><time>2026-04-18T16:07:34Z</time></trkpt><trkpt lat="37.08669948672756" lon="14.7674496536087"><ele>672.0</ele><time>2026-04-18T16:07:35Z</time></trkpt><trkpt lat="37.086721556918334" lon="14.767553912344749"><ele>672.0</ele><time>2026-04-18T16:07:36Z</time></trkpt><trkpt lat="37.08678125300508" lon="14.7676527812213"><ele>672.0</ele><time>2026-04-18T16:07:37Z</time></trkpt><trkpt lat="37.08685619209053" lon="14.767755174003424"><ele>669.75</ele><time>2026-04-18T16:07:38Z</time></trkpt><trkpt lat="37.08694637382071" lon="14.76788691285697"><ele>667.5</ele><time>2026-04-18T16:07:39Z</time></trkpt><trkpt lat="37.0870268021519" lon="14.768014032714962"><ele>665.25</ele><time>2026-04-18T16:07:40Z</time></trkpt><trkpt lat="37.08707595871761" lon="14.768132536961991"><ele>663.0</ele><time>2026-04-18T16:07:41Z</time></trkpt><trkpt lat="37.08710523183876" lon="14.768244964649258"><ele>663.0</ele><time>2026-04-18T16:07:42Z</time></trkpt><trkpt lat="37.08712200676947" lon="14.768402960961089"><ele>663.0</ele><time>2026-04-18T16:07:43Z</time></trkpt><trkpt lat="37.087143222937804" lon="14.768620486062941"><ele>663.0</ele><time>2026-04-18T16:07:44Z</time></trkpt><trkpt lat="37.08716668096161" lon="14.768895312601817"><ele>658.0</ele><time>2026-04-18T16:07:45Z</time></trkpt><trkpt lat="37.08719205332855" lon="14.769204802018207"><ele>653.0</ele><time>2026-04-18T16:07:46Z</time></trkpt><trkpt lat="37.08721864147657" lon="14.76953326655465"><ele>653.0</ele><time>2026-04-18T16:07:47Z</time></trkpt><trkpt lat="37.08724285834258" lon="14.76984493645795"><ele>653.0</ele><time>2026-04-18T16:07:48Z</time></trkpt><trkpt lat="37.087264589451756" lon="14.77012461477288"><ele>655.0</ele><time>2026-04-18T16:07:49Z</time></trkpt><trkpt lat="37.08728249778788" lon="14.7703550941013"><ele>657.0</ele><time>2026-04-18T16:07:50Z</time></trkpt><trkpt lat="37.08729726721871" lon="14.770552152909145"><ele>659.0</ele><time>2026-04-18T16:07:51Z</time></trkpt><trkpt lat="37.08730913136067" lon="14.770717082901033"><ele>659.0</ele><time>2026-04-18T16:07:52Z</time></trkpt><trkpt lat="37.0873163257149" lon="14.77084607719027"><ele>659.0</ele><time>2026-04-18T16:07:53Z</time></trkpt><trkpt lat="37.0873219556265" lon="14.770949278744453"><ele>659.0</ele><time>2026-04-18T16:07:54Z</time></trkpt><trkpt lat="37.08732689356514" lon="14.771031315885118"><ele>659.0</ele><time>2026-04-18T16:07:55Z</time></trkpt><trkpt lat="37.08729406878229" lon="14.771115865622981"><ele>659.0</ele><time>2026-04-18T16:07:56Z</time></trkpt><trkpt lat="37.08728379537925" lon="14.771226079183059"><ele>659.0</ele><time>2026-04-18T16:07:58Z</time></trkpt><trkpt lat="37.0871076068807" lon="14.771276868623326"><ele>659.0</ele><time>2026-04-18T16:07:59Z</time></trkpt><trkpt lat="37.08700865648143" lon="14.77131511162496"><ele>659.0</ele><time>2026-04-18T16:08:00Z</time></trkpt><trkpt lat="37.08691106780642" lon="14.771355664460055"><ele>659.0</ele><time>2026-04-18T16:08:01Z</time></trkpt><trkpt lat="37.08682961464098" lon="14.771426635848544"><ele>659.0</ele><time>2026-04-18T16:08:02Z</time></trkpt><trkpt lat="37.08677735686535" lon="14.771532568139019"><ele>659.0</ele><time>2026-04-18T16:08:03Z</time></trkpt><trkpt lat="37.08673249060519" lon="14.7716911207848"><ele>656.6666666666666</ele><time>2026-04-18T16:08:04Z</time></trkpt><trkpt lat="37.08669313141189" lon="14.771914208281148"><ele>654.3333333333334</ele><time>2026-04-18T16:08:05Z</time></trkpt><trkpt lat="37.08661570529136" lon="14.772154055616602"><ele>652.0</ele><time>2026-04-18T16:08:06Z</time></trkpt><trkpt lat="37.08654732341637" lon="14.772430417641658"><ele>651.6666666666667</ele><time>2026-04-18T16:08:07Z</time></trkpt><trkpt lat="37.0864845553805" lon="14.772685900462795"><ele>651.3333333333334</ele><time>2026-04-18T16:08:08Z</time></trkpt><trkpt lat="37.08646163622125" lon="14.77292692205791"><ele>651.0</ele><time>2026-04-18T16:08:09Z</time></trkpt><trkpt lat="37.08640180733592" lon="14.773137288522237"><ele>651.0</ele><time>2026-04-18T16:08:10Z</time></trkpt><trkpt lat="37.086338503684054" lon="14.773351268326682"><ele>651.0</ele><time>2026-04-18T16:08:11Z</time></trkpt><trkpt lat="37.0862819249594" lon="14.773558026248296"><ele>651.0</ele><time>2026-04-18T16:08:12Z</time></trkpt><trkpt lat="37.08621991630522" lon="14.773730532870225"><ele>653.0</ele><time>2026-04-18T16:08:13Z</time></trkpt><trkpt lat="37.08618893374964" lon="14.773851051423394"><ele>655.0</ele><time>2026-04-18T16:08:14Z</time></trkpt><trkpt lat="37.086171111791735" lon="14.773984105183073"><ele>657.0</ele><time>2026-04-18T16:08:16Z</time></trkpt><trkpt lat="37.08609619828146" lon="14.774053670353407"><ele>659.0</ele><time>2026-04-18T16:08:18Z</time></trkpt><trkpt lat="37.08603025165954" lon="14.774118540304043"><ele>661.0</ele><time>2026-04-18T16:08:20Z</time></trkpt><trkpt lat="37.085993464466306" lon="14.774209035816444"><ele>662.0</ele><time>2026-04-18T16:08:23Z</time></trkpt><trkpt lat="37.08594348421716" lon="14.774395889911418"><ele>663.0</ele><time>2026-04-18T16:11:11Z</time></trkpt><trkpt lat="37.08595606288879" lon="14.774478573680204"><ele>664.0</ele><time>2026-04-18T16:11:13Z</time></trkpt><trkpt lat="37.08599123659624" lon="14.77455567217485"><ele>665.0</ele><time>2026-04-18T16:11:16Z</time></trkpt><trkpt lat="37.08598131988605" lon="14.774706700376745"><ele>666.0</ele><time>2026-04-18T16:11:18Z</time></trkpt><trkpt lat="37.08595180862718" lon="14.774817173449634"><ele>666.0</ele><time>2026-04-18T16:11:19Z</time></trkpt><trkpt lat="37.085922536397376" lon="14.774925193865775"><ele>666.0</ele><time>2026-04-18T16:11:20Z</time></trkpt><trkpt lat="37.0858886509783" lon="14.775064303183374"><ele>666.0</ele><time>2026-04-18T16:11:21Z</time></trkpt><trkpt lat="37.085848111891174" lon="14.775205559206505"><ele>666.0</ele><time>2026-04-18T16:11:22Z</time></trkpt><trkpt lat="37.085809876283655" lon="14.775356828172272"><ele>664.75</ele><time>2026-04-18T16:11:23Z</time></trkpt><trkpt lat="37.08576532152802" lon="14.775519296731666"><ele>663.5</ele><time>2026-04-18T16:11:24Z</time></trkpt><trkpt lat="37.085712140323416" lon="14.775672575948265"><ele>662.25</ele><time>2026-04-18T16:11:25Z</time></trkpt><trkpt lat="37.085657817154335" lon="14.775802142947187"><ele>661.0</ele><time>2026-04-18T16:11:26Z</time></trkpt><trkpt lat="37.08557632788206" lon="14.775884913297666"><ele>662.25</ele><time>2026-04-18T16:11:27Z</time></trkpt><trkpt lat="37.08548232225551" lon="14.775988874803357"><ele>663.5</ele><time>2026-04-18T16:11:28Z</time></trkpt><trkpt lat="37.08536165975939" lon="14.776077668210382"><ele>664.75</ele><time>2026-04-18T16:11:29Z</time></trkpt><trkpt lat="37.08524920173508" lon="14.776156030383136"><ele>666.0</ele><time>2026-04-18T16:11:30Z</time></trkpt><trkpt lat="37.085088273383235" lon="14.77629085361076"><ele>667.3333333333334</ele><time>2026-04-18T16:11:31Z</time></trkpt><trkpt lat="37.08491838887643" lon="14.776403162307764"><ele>668.6666666666667</ele><time>2026-04-18T16:11:32Z</time></trkpt><trkpt lat="37.08476913110207" lon="14.776503380545947"><ele>670.0</ele><time>2026-04-18T16:11:33Z</time></trkpt><trkpt lat="37.08464357825244" lon="14.776594167718999"><ele>670.0</ele><time>2026-04-18T16:11:34Z</time></trkpt><trkpt lat="37.08452201958833" lon="14.77667816893077"><ele>670.0</ele><time>2026-04-18T16:11:35Z</time></trkpt><trkpt lat="37.08443047869473" lon="14.776733118907"><ele>670.0</ele><time>2026-04-18T16:11:36Z</time></trkpt><trkpt lat="37.08434003400024" lon="14.776774352124404"><ele>670.0</ele><time>2026-04-18T16:11:37Z</time></trkpt><trkpt lat="37.08425198420778" lon="14.776793795750587"><ele>670.0</ele><time>2026-04-18T16:11:38Z</time></trkpt><trkpt lat="37.084170034642476" lon="14.776789583545668"><ele>671.25</ele><time>2026-04-18T16:11:39Z</time></trkpt><trkpt lat="37.08408581400999" lon="14.776949854972983"><ele>672.5</ele><time>2026-04-18T16:11:41Z</time></trkpt><trkpt lat="37.084065050527" lon="14.777087991002205"><ele>673.75</ele><time>2026-04-18T16:11:42Z</time></trkpt><trkpt lat="37.08406059754951" lon="14.777266555650849"><ele>675.0</ele><time>2026-04-18T16:11:43Z</time></trkpt><trkpt lat="37.08405339202797" lon="14.77743191995239"><ele>675.5</ele><time>2026-04-18T16:11:44Z</time></trkpt><trkpt lat="37.08409865976339" lon="14.777564037674003"><ele>676.0</ele><time>2026-04-18T16:11:45Z</time></trkpt><trkpt lat="37.084155300948524" lon="14.777681593643804"><ele>676.5</ele><time>2026-04-18T16:11:46Z</time></trkpt><trkpt lat="37.08423473280084" lon="14.777803881835295"><ele>677.0</ele><time>2026-04-18T16:11:47Z</time></trkpt><trkpt lat="37.084326887507444" lon="14.777939574825448"><ele>677.0</ele><time>2026-04-18T16:11:48Z</time></trkpt><trkpt lat="37.08442127925419" lon="14.778121127809484"><ele>677.0</ele><time>2026-04-18T16:11:49Z</time></trkpt><trkpt lat="37.084532776472855" lon="14.778304624958606"><ele>677.0</ele><time>2026-04-18T16:11:50Z</time></trkpt><trkpt lat="37.08462587703122" lon="14.778466800277489"><ele>677.5</ele><time>2026-04-18T16:11:51Z</time></trkpt><trkpt lat="37.0847292256092" lon="14.778588237724849"><ele>678.0</ele><time>2026-04-18T16:11:52Z</time></trkpt><trkpt lat="37.08483344097589" lon="14.778705894371198"><ele>678.5</ele><time>2026-04-18T16:11:53Z</time></trkpt><trkpt lat="37.08496982580934" lon="14.778800882145244"><ele>679.0</ele><time>2026-04-18T16:11:54Z</time></trkpt><trkpt lat="37.085145665163935" lon="14.778875426125254"><ele>679.0</ele><time>2026-04-18T16:11:55Z</time></trkpt><trkpt lat="37.08535873184448" lon="14.778928961568049"><ele>679.0</ele><time>2026-04-18T16:11:56Z</time></trkpt><trkpt lat="37.085564214040176" lon="14.77898187733391"><ele>679.0</ele><time>2026-04-18T16:11:57Z</time></trkpt><trkpt lat="37.08574668114588" lon="14.779054345814439"><ele>678.6666666666667</ele><time>2026-04-18T16:11:58Z</time></trkpt><trkpt lat="37.08592644341342" lon="14.779111617049496"><ele>678.3333333333334</ele><time>2026-04-18T16:11:59Z</time></trkpt><trkpt lat="37.086105270614944" lon="14.779168590378237"><ele>678.0</ele><time>2026-04-18T16:12:00Z</time></trkpt><trkpt lat="37.086282319331225" lon="14.779225770035803"><ele>678.0</ele><time>2026-04-18T16:12:01Z</time></trkpt><trkpt lat="37.086473956143465" lon="14.779287812755513"><ele>678.0</ele><time>2026-04-18T16:12:02Z</time></trkpt><trkpt lat="37.086669470621025" lon="14.779351110897153"><ele>678.0</ele><time>2026-04-18T16:12:03Z</time></trkpt><trkpt lat="37.08686883368507" lon="14.779416153650626"><ele>680.0</ele><time>2026-04-18T16:12:04Z</time></trkpt><trkpt lat="37.08707116003848" lon="14.779481805356665"><ele>682.0</ele><time>2026-04-18T16:12:05Z</time></trkpt><trkpt lat="37.087284445054706" lon="14.779525270269604"><ele>684.0</ele><time>2026-04-18T16:12:06Z</time></trkpt><trkpt lat="37.08749714831062" lon="14.779586402704338"><ele>685.0</ele><time>2026-04-18T16:12:07Z</time></trkpt><trkpt lat="37.08772269721554" lon="14.779641639426057"><ele>686.0</ele><time>2026-04-18T16:12:08Z</time></trkpt><trkpt lat="37.08795680801278" lon="14.77968268502681"><ele>686.0</ele><time>2026-04-18T16:12:09Z</time></trkpt><trkpt lat="37.08818062272479" lon="14.779721354115058"><ele>686.0</ele><time>2026-04-18T16:12:10Z</time></trkpt><trkpt lat="37.08837935369206" lon="14.779781051742274"><ele>686.0</ele><time>2026-04-18T16:12:11Z</time></trkpt><trkpt lat="37.088581132708796" lon="14.779814685871292"><ele>686.3333333333333</ele><time>2026-04-18T16:12:12Z</time></trkpt><trkpt lat="37.088782197003134" lon="14.779815232314686"><ele>686.6666666666666</ele><time>2026-04-18T16:12:13Z</time></trkpt><trkpt lat="37.0889881749726" lon="14.779816286882118"><ele>687.0</ele><time>2026-04-18T16:12:14Z</time></trkpt><trkpt lat="37.08919377860826" lon="14.779810045919175"><ele>686.25</ele><time>2026-04-18T16:12:15Z</time></trkpt><trkpt lat="37.089367432370366" lon="14.779832137232319"><ele>685.5</ele><time>2026-04-18T16:12:16Z</time></trkpt><trkpt lat="37.089504702442795" lon="14.779851375712338"><ele>684.75</ele><time>2026-04-18T16:12:17Z</time></trkpt><trkpt lat="37.08961944228263" lon="14.779886936829747"><ele>684.0</ele><time>2026-04-18T16:12:18Z</time></trkpt><trkpt lat="37.08974725007863" lon="14.779949138288895"><ele>684.0</ele><time>2026-04-18T16:12:19Z</time></trkpt><trkpt lat="37.08986272503325" lon="14.78002943486896"><ele>684.0</ele><time>2026-04-18T16:12:20Z</time></trkpt><trkpt lat="37.089974076863896" lon="14.780134184212713"><ele>684.0</ele><time>2026-04-18T16:12:21Z</time></trkpt><trkpt lat="37.090085621349566" lon="14.780270844646507"><ele>684.0</ele><time>2026-04-18T16:12:22Z</time></trkpt><trkpt lat="37.09017780823362" lon="14.780435525482133"><ele>685.3333333333334</ele><time>2026-04-18T16:12:23Z</time></trkpt><trkpt lat="37.09026421915111" lon="14.780627290684256"><ele>686.6666666666667</ele><time>2026-04-18T16:12:24Z</time></trkpt><trkpt lat="37.090358744642835" lon="14.780849446531699"><ele>688.0</ele><time>2026-04-18T16:12:25Z</time></trkpt><trkpt lat="37.09046016779048" lon="14.781088813280506"><ele>690.0</ele><time>2026-04-18T16:12:26Z</time></trkpt><trkpt lat="37.09055715567691" lon="14.78131771231085"><ele>692.0</ele><time>2026-04-18T16:12:27Z</time></trkpt><trkpt lat="37.09064482693324" lon="14.781524623379452"><ele>694.0</ele><time>2026-04-18T16:12:28Z</time></trkpt><trkpt lat="37.09072334174567" lon="14.781713755445804"><ele>692.6666666666667</ele><time>2026-04-18T16:12:29Z</time></trkpt><trkpt lat="37.09078612066647" lon="14.781899771605467"><ele>691.3333333333334</ele><time>2026-04-18T16:12:30Z</time></trkpt><trkpt lat="37.09082563177659" lon="14.782091366529706"><ele>690.0</ele><time>2026-04-18T16:12:31Z</time></trkpt><trkpt lat="37.090845678511734" lon="14.782295630124242"><ele>690.0</ele><time>2026-04-18T16:12:32Z</time></trkpt><trkpt lat="37.09086714632227" lon="14.78251646949213"><ele>690.0</ele><time>2026-04-18T16:12:33Z</time></trkpt><trkpt lat="37.090888649713314" lon="14.782715536404831"><ele>690.0</ele><time>2026-04-18T16:12:34Z</time></trkpt><trkpt lat="37.090919453471" lon="14.782897783829625"><ele>690.25</ele><time>2026-04-18T16:12:35Z</time></trkpt><trkpt lat="37.090967810104765" lon="14.783060328299662"><ele>690.5</ele><time>2026-04-18T16:12:36Z</time></trkpt><trkpt lat="37.09103683852655" lon="14.783212970808691"><ele>690.75</ele><time>2026-04-18T16:12:37Z</time></trkpt><trkpt lat="37.09113663262071" lon="14.783354086130453"><ele>691.0</ele><time>2026-04-18T16:12:38Z</time></trkpt><trkpt lat="37.09125569358143" lon="14.78345234943285"><ele>691.6666666666667</ele><time>2026-04-18T16:12:39Z</time></trkpt><trkpt lat="37.091370194708475" lon="14.783563739507063"><ele>692.3333333333334</ele><time>2026-04-18T16:12:40Z</time></trkpt><trkpt lat="37.091513776309604" lon="14.783634396843281"><ele>693.0</ele><time>2026-04-18T16:12:41Z</time></trkpt><trkpt lat="37.09167209114488" lon="14.783652366645088"><ele>693.0</ele><time>2026-04-18T16:12:42Z</time></trkpt><trkpt lat="37.09185194286247" lon="14.78366610345025"><ele>693.0</ele><time>2026-04-18T16:12:43Z</time></trkpt><trkpt lat="37.0920395827827" lon="14.783644938679807"><ele>693.0</ele><time>2026-04-18T16:12:44Z</time></trkpt><trkpt lat="37.092256818313274" lon="14.783607141990206"><ele>696.5</ele><time>2026-04-18T16:12:45Z</time></trkpt><trkpt lat="37.092496450284905" lon="14.783595597376674"><ele>700.0</ele><time>2026-04-18T16:12:46Z</time></trkpt><trkpt lat="37.0927379869811" lon="14.783570242691937"><ele>700.0</ele><time>2026-04-18T16:12:47Z</time></trkpt><trkpt lat="37.092956596433524" lon="14.783549188559352"><ele>700.0</ele><time>2026-04-18T16:12:48Z</time></trkpt><trkpt lat="37.09315128815181" lon="14.78353064443587"><ele>700.0</ele><time>2026-04-18T16:12:49Z</time></trkpt><trkpt lat="37.093326604353926" lon="14.783493348769552"><ele>696.3333333333334</ele><time>2026-04-18T16:12:50Z</time></trkpt><trkpt lat="37.093495618740384" lon="14.783474552276775"><ele>692.6666666666666</ele><time>2026-04-18T16:12:51Z</time></trkpt><trkpt lat="37.09365888889033" lon="14.783478291249635"><ele>689.0</ele><time>2026-04-18T16:12:52Z</time></trkpt><trkpt lat="37.09382217652661" lon="14.783469905997146"><ele>689.0</ele><time>2026-04-18T16:12:53Z</time></trkpt><trkpt lat="37.09396682728716" lon="14.783488601039776"><ele>689.0</ele><time>2026-04-18T16:12:54Z</time></trkpt><trkpt lat="37.09409083343708" lon="14.78353927905036"><ele>689.0</ele><time>2026-04-18T16:12:55Z</time></trkpt><trkpt lat="37.09423166054296" lon="14.783618594847924"><ele>689.0</ele><time>2026-04-18T16:12:56Z</time></trkpt><trkpt lat="37.09440193315395" lon="14.783716814900206"><ele>693.6666666666666</ele><time>2026-04-18T16:12:57Z</time></trkpt><trkpt lat="37.09458192416129" lon="14.783809803784077"><ele>698.3333333333334</ele><time>2026-04-18T16:12:58Z</time></trkpt><trkpt lat="37.09476225529185" lon="14.783876749569057"><ele>703.0</ele><time>2026-04-18T16:12:59Z</time></trkpt><trkpt lat="37.094958283143285" lon="14.783917299469449"><ele>703.0</ele><time>2026-04-18T16:13:00Z</time></trkpt><trkpt lat="37.0951772518263" lon="14.783955001105129"><ele>703.0</ele><time>2026-04-18T16:13:01Z</time></trkpt><trkpt lat="37.09538179974149" lon="14.78399136193826"><ele>703.0</ele><time>2026-04-18T16:13:02Z</time></trkpt><trkpt lat="37.09555006389486" lon="14.784019443401931"><ele>703.0</ele><time>2026-04-18T16:13:03Z</time></trkpt><trkpt lat="37.0956828684508" lon="14.784034931935023"><ele>703.0</ele><time>2026-04-18T16:13:04Z</time></trkpt><trkpt lat="37.095799838414955" lon="14.78402624175655"><ele>703.0</ele><time>2026-04-18T16:13:05Z</time></trkpt><trkpt lat="37.09590456302669" lon="14.783970344329733"><ele>703.0</ele><time>2026-04-18T16:13:06Z</time></trkpt><trkpt lat="37.096000072831686" lon="14.783920677815944"><ele>703.0</ele><time>2026-04-18T16:13:07Z</time></trkpt><trkpt lat="37.0960770374217" lon="14.783856282835174"><ele>703.0</ele><time>2026-04-18T16:13:08Z</time></trkpt><trkpt lat="37.09615032305826" lon="14.783784795926978"><ele>703.0</ele><time>2026-04-18T16:13:09Z</time></trkpt><trkpt lat="37.09620740669854" lon="14.783692351040285"><ele>703.0</ele><time>2026-04-18T16:13:10Z</time></trkpt><trkpt lat="37.0962581485905" lon="14.78357863873718"><ele>703.0</ele><time>2026-04-18T16:13:11Z</time></trkpt><trkpt lat="37.09630481975882" lon="14.783442940308925"><ele>700.0</ele><time>2026-04-18T16:13:12Z</time></trkpt><trkpt lat="37.096343393159636" lon="14.783286268157905"><ele>697.0</ele><time>2026-04-18T16:13:13Z</time></trkpt><trkpt lat="37.09637318341677" lon="14.783108214292438"><ele>694.0</ele><time>2026-04-18T16:13:14Z</time></trkpt><trkpt lat="37.096402172024284" lon="14.782899406807338"><ele>691.0</ele><time>2026-04-18T16:13:15Z</time></trkpt><trkpt lat="37.096427599279316" lon="14.782690454477054"><ele>687.3333333333334</ele><time>2026-04-18T16:13:16Z</time></trkpt><trkpt lat="37.09645740959462" lon="14.782480417540219"><ele>683.6666666666666</ele><time>2026-04-18T16:13:17Z</time></trkpt><trkpt lat="37.09648907898792" lon="14.782279843795894"><ele>680.0</ele><time>2026-04-18T16:13:18Z</time></trkpt><trkpt lat="37.0965264057208" lon="14.782103023892432"><ele>680.0</ele><time>2026-04-18T16:13:19Z</time></trkpt><trkpt lat="37.09657904647095" lon="14.781941482061848"><ele>680.0</ele><time>2026-04-18T16:13:20Z</time></trkpt><trkpt lat="37.096656516850686" lon="14.781789338688133"><ele>680.0</ele><time>2026-04-18T16:13:21Z</time></trkpt><trkpt lat="37.09674591000378" lon="14.781655742206484"><ele>680.0</ele><time>2026-04-18T16:13:22Z</time></trkpt><trkpt lat="37.096849691980026" lon="14.781534501627046"><ele>686.3333333333333</ele><time>2026-04-18T16:13:23Z</time></trkpt><trkpt lat="37.09697719726892" lon="14.781418090076281"><ele>692.6666666666666</ele><time>2026-04-18T16:13:24Z</time></trkpt><trkpt lat="37.097130213424435" lon="14.781297741698438"><ele>699.0</ele><time>2026-04-18T16:13:25Z</time></trkpt><trkpt lat="37.09728853699009" lon="14.78118012065784"><ele>700.0</ele><time>2026-04-18T16:13:26Z</time></trkpt><trkpt lat="37.09744906028027" lon="14.781066983668333"><ele>701.0</ele><time>2026-04-18T16:13:27Z</time></trkpt><trkpt lat="37.09759594222602" lon="14.78096239911178"><ele>702.0</ele><time>2026-04-18T16:13:28Z</time></trkpt><trkpt lat="37.0977312693887" lon="14.780877296171903"><ele>702.0</ele><time>2026-04-18T16:13:29Z</time></trkpt><trkpt lat="37.09788545488905" lon="14.780822828066489"><ele>702.0</ele><time>2026-04-18T16:13:30Z</time></trkpt><trkpt lat="37.098040126460205" lon="14.78077650727968"><ele>702.0</ele><time>2026-04-18T16:13:31Z</time></trkpt><trkpt lat="37.098206044633706" lon="14.780713440170834"><ele>705.0</ele><time>2026-04-18T16:13:32Z</time></trkpt><trkpt lat="37.09837757772493" lon="14.780667338141486"><ele>708.0</ele><time>2026-04-18T16:13:33Z</time></trkpt><trkpt lat="37.09853486075413" lon="14.780610043236639"><ele>711.0</ele><time>2026-04-18T16:13:34Z</time></trkpt><trkpt lat="37.09867201900966" lon="14.780553181411795"><ele>711.0</ele><time>2026-04-18T16:13:35Z</time></trkpt><trkpt lat="37.09879223906465" lon="14.780472966736124"><ele>711.0</ele><time>2026-04-18T16:13:36Z</time></trkpt><trkpt lat="37.0989223222063" lon="14.780349568145272"><ele>711.0</ele><time>2026-04-18T16:13:37Z</time></trkpt><trkpt lat="37.099059642258005" lon="14.780194477918382"><ele>710.3333333333334</ele><time>2026-04-18T16:13:38Z</time></trkpt><trkpt lat="37.09920426124264" lon="14.780036206683658"><ele>709.6666666666667</ele><time>2026-04-18T16:13:39Z</time></trkpt><trkpt lat="37.09935733582901" lon="14.779876859789287"><ele>709.0</ele><time>2026-04-18T16:13:40Z</time></trkpt><trkpt lat="37.09951015873058" lon="14.779730338263352"><ele>709.0</ele><time>2026-04-18T16:13:41Z</time></trkpt><trkpt lat="37.09964446735589" lon="14.779607938979797"><ele>709.0</ele><time>2026-04-18T16:13:42Z</time></trkpt><trkpt lat="37.09975203399837" lon="14.779519823892892"><ele>709.0</ele><time>2026-04-18T16:13:43Z</time></trkpt><trkpt lat="37.099849603670066" lon="14.779452951325913"><ele>709.0</ele><time>2026-04-18T16:13:44Z</time></trkpt><trkpt lat="37.09996892143509" lon="14.779386028518518"><ele>709.0</ele><time>2026-04-18T16:13:45Z</time></trkpt><trkpt lat="37.10010544400756" lon="14.779358943039629"><ele>709.0</ele><time>2026-04-18T16:13:46Z</time></trkpt><trkpt lat="37.10022372044682" lon="14.779332587315006"><ele>709.0</ele><time>2026-04-18T16:13:47Z</time></trkpt><trkpt lat="37.10033832436936" lon="14.779318214802343"><ele>709.0</ele><time>2026-04-18T16:13:48Z</time></trkpt><trkpt lat="37.100480447818015" lon="14.779324497308084"><ele>711.6666666666667</ele><time>2026-04-18T16:13:49Z</time></trkpt><trkpt lat="37.10063790766941" lon="14.779352571129122"><ele>714.3333333333334</ele><time>2026-04-18T16:13:50Z</time></trkpt><trkpt lat="37.10080552700613" lon="14.779393567820055"><ele>717.0</ele><time>2026-04-18T16:13:51Z</time></trkpt><trkpt lat="37.10098439376757" lon="14.779439108917646"><ele>719.0</ele><time>2026-04-18T16:13:52Z</time></trkpt><trkpt lat="37.10118513376602" lon="14.779490219177132"><ele>721.0</ele><time>2026-04-18T16:13:53Z</time></trkpt><trkpt lat="37.10138957301496" lon="14.779544410483732"><ele>723.0</ele><time>2026-04-18T16:13:54Z</time></trkpt><trkpt lat="37.10157704713471" lon="14.779595068236633"><ele>723.3333333333334</ele><time>2026-04-18T16:13:55Z</time></trkpt><trkpt lat="37.101748816794164" lon="14.77963818774788"><ele>723.6666666666667</ele><time>2026-04-18T16:13:56Z</time></trkpt><trkpt lat="37.101902284736234" lon="14.779675577729002"><ele>724.0</ele><time>2026-04-18T16:13:57Z</time></trkpt><trkpt lat="37.102043071409454" lon="14.779686958478292"><ele>724.0</ele><time>2026-04-18T16:13:58Z</time></trkpt><trkpt lat="37.102178745223554" lon="14.779673835513488"><ele>724.0</ele><time>2026-04-18T16:13:59Z</time></trkpt><trkpt lat="37.1022938922292" lon="14.779620660528375"><ele>724.0</ele><time>2026-04-18T16:14:00Z</time></trkpt><trkpt lat="37.10240662635413" lon="14.779566291167026"><ele>724.0</ele><time>2026-04-18T16:14:01Z</time></trkpt><trkpt lat="37.10252333683954" lon="14.779489740575029"><ele>723.0</ele><time>2026-04-18T16:14:02Z</time></trkpt><trkpt lat="37.10264014370719" lon="14.779401071047381"><ele>722.0</ele><time>2026-04-18T16:14:03Z</time></trkpt><trkpt lat="37.10273343868937" lon="14.77930817226531"><ele>721.0</ele><time>2026-04-18T16:14:04Z</time></trkpt><trkpt lat="37.10280389406564" lon="14.779199065806287"><ele>720.0</ele><time>2026-04-18T16:14:05Z</time></trkpt><trkpt lat="37.10285392559547" lon="14.779079018841484"><ele>720.0</ele><time>2026-04-18T16:14:06Z</time></trkpt><trkpt lat="37.10289151416688" lon="14.778934354582704"><ele>720.0</ele><time>2026-04-18T16:14:07Z</time></trkpt><trkpt lat="37.102944470604186" lon="14.778738029579293"><ele>720.0</ele><time>2026-04-18T16:14:08Z</time></trkpt><trkpt lat="37.10300820791161" lon="14.778511436118366"><ele>718.0</ele><time>2026-04-18T16:14:09Z</time></trkpt><trkpt lat="37.10308139984033" lon="14.77827911036875"><ele>716.0</ele><time>2026-04-18T16:14:10Z</time></trkpt><trkpt lat="37.10314686989163" lon="14.77808210784016"><ele>714.0</ele><time>2026-04-18T16:14:11Z</time></trkpt><trkpt lat="37.103211339171274" lon="14.777894760421326"><ele>717.0</ele><time>2026-04-18T16:14:12Z</time></trkpt><trkpt lat="37.103282079105554" lon="14.777723298083478"><ele>720.0</ele><time>2026-04-18T16:14:13Z</time></trkpt><trkpt lat="37.10336182993069" lon="14.777580688836233"><ele>723.0</ele><time>2026-04-18T16:14:14Z</time></trkpt><trkpt lat="37.10344858039018" lon="14.777468647656955"><ele>726.0</ele><time>2026-04-18T16:14:15Z</time></trkpt><trkpt lat="37.103544662127" lon="14.777380067560767"><ele>726.0</ele><time>2026-04-18T16:14:16Z</time></trkpt><trkpt lat="37.10364432497638" lon="14.777307173045266"><ele>726.0</ele><time>2026-04-18T16:14:17Z</time></trkpt><trkpt lat="37.10376684323221" lon="14.777266834869884"><ele>726.0</ele><time>2026-04-18T16:14:18Z</time></trkpt><trkpt lat="37.103905964133304" lon="14.77721545651036"><ele>726.0</ele><time>2026-04-18T16:14:19Z</time></trkpt><trkpt lat="37.10408469156409" lon="14.777160280481887"><ele>728.3333333333334</ele><time>2026-04-18T16:14:20Z</time></trkpt><trkpt lat="37.10428123274406" lon="14.777084738367563"><ele>730.6666666666667</ele><time>2026-04-18T16:14:21Z</time></trkpt><trkpt lat="37.10450219919039" lon="14.777021695503315"><ele>733.0</ele><time>2026-04-18T16:14:22Z</time></trkpt><trkpt lat="37.104699436779505" lon="14.77696017915593"><ele>733.0</ele><time>2026-04-18T16:14:23Z</time></trkpt><trkpt lat="37.104870723329945" lon="14.77694477826051"><ele>733.0</ele><time>2026-04-18T16:14:24Z</time></trkpt><trkpt lat="37.105029482883" lon="14.776946873715552"><ele>733.0</ele><time>2026-04-18T16:14:25Z</time></trkpt><trkpt lat="37.10522325140816" lon="14.776967971162462"><ele>734.6666666666667</ele><time>2026-04-18T16:14:26Z</time></trkpt><trkpt lat="37.105426677301764" lon="14.776995240100607"><ele>736.3333333333334</ele><time>2026-04-18T16:14:27Z</time></trkpt><trkpt lat="37.10561357032089" lon="14.777021931986356"><ele>738.0</ele><time>2026-04-18T16:14:28Z</time></trkpt><trkpt lat="37.10579256009457" lon="14.777046837539563"><ele>739.0</ele><time>2026-04-18T16:14:29Z</time></trkpt><trkpt lat="37.10602502292201" lon="14.777076105574274"><ele>740.0</ele><time>2026-04-18T16:14:30Z</time></trkpt><trkpt lat="37.106233935289126" lon="14.777103407886303"><ele>741.0</ele><time>2026-04-18T16:14:31Z</time></trkpt><trkpt lat="37.106411063422144" lon="14.777127266430746"><ele>741.0</ele><time>2026-04-18T16:14:32Z</time></trkpt><trkpt lat="37.1065708105801" lon="14.777149136875996"><ele>741.0</ele><time>2026-04-18T16:14:33Z</time></trkpt><trkpt lat="37.10671429147769" lon="14.777168818708622"><ele>741.0</ele><time>2026-04-18T16:14:34Z</time></trkpt><trkpt lat="37.10683830820581" lon="14.777185830582432"><ele>741.0</ele><time>2026-04-18T16:14:35Z</time></trkpt><trkpt lat="37.10693876528486" lon="14.777201684759673"><ele>741.0</ele><time>2026-04-18T16:14:36Z</time></trkpt><trkpt lat="37.10703495458479" lon="14.777222026191838"><ele>741.0</ele><time>2026-04-18T16:14:37Z</time></trkpt><trkpt lat="37.10711820827849" lon="14.777252869188278"><ele>741.0</ele><time>2026-04-18T16:14:38Z</time></trkpt><trkpt lat="37.107204494292574" lon="14.777297421641633"><ele>741.0</ele><time>2026-04-18T16:14:39Z</time></trkpt><trkpt lat="37.10730954976189" lon="14.777358839020742"><ele>741.0</ele><time>2026-04-18T16:14:40Z</time></trkpt><trkpt lat="37.10743240309228" lon="14.777430408443989"><ele>740.25</ele><time>2026-04-18T16:14:41Z</time></trkpt><trkpt lat="37.10753890994926" lon="14.777492446332074"><ele>739.5</ele><time>2026-04-18T16:14:42Z</time></trkpt><trkpt lat="37.1076513890975" lon="14.777557945554648"><ele>738.75</ele><time>2026-04-18T16:14:43Z</time></trkpt><trkpt lat="37.10777892395383" lon="14.777632518701559"><ele>738.0</ele><time>2026-04-18T16:14:44Z</time></trkpt><trkpt lat="37.107909229439926" lon="14.777710306263433"><ele>740.6666666666666</ele><time>2026-04-18T16:14:45Z</time></trkpt><trkpt lat="37.1080265795737" lon="14.777780360004076"><ele>743.3333333333333</ele><time>2026-04-18T16:14:46Z</time></trkpt><trkpt lat="37.10820698561103" lon="14.777888026854502"><ele>746.0</ele><time>2026-04-18T16:14:47Z</time></trkpt><trkpt lat="37.108338816559" lon="14.777966701190959"><ele>746.0</ele><time>2026-04-18T16:14:48Z</time></trkpt><trkpt lat="37.10846464645466" lon="14.778041794219002"><ele>746.0</ele><time>2026-04-18T16:14:49Z</time></trkpt><trkpt lat="37.10859620229648" lon="14.77811648080484"><ele>746.0</ele><time>2026-04-18T16:14:50Z</time></trkpt><trkpt lat="37.10872760594209" lon="14.77815686945709"><ele>746.0</ele><time>2026-04-18T16:14:51Z</time></trkpt><trkpt lat="37.10885522154504" lon="14.778191797412882"><ele>746.0</ele><time>2026-04-18T16:14:52Z</time></trkpt><trkpt lat="37.10898701708002" lon="14.77818714874696"><ele>746.0</ele><time>2026-04-18T16:14:53Z</time></trkpt><trkpt lat="37.10911778152497" lon="14.778153404024925"><ele>746.0</ele><time>2026-04-18T16:14:54Z</time></trkpt><trkpt lat="37.10923052954746" lon="14.778097263796708"><ele>746.0</ele><time>2026-04-18T16:14:55Z</time></trkpt><trkpt lat="37.10934554554061" lon="14.778008243655194"><ele>745.0</ele><time>2026-04-18T16:14:56Z</time></trkpt><trkpt lat="37.1094713564589" lon="14.77790299288644"><ele>744.0</ele><time>2026-04-18T16:14:57Z</time></trkpt><trkpt lat="37.10962989398281" lon="14.777769973563778"><ele>743.0</ele><time>2026-04-18T16:14:58Z</time></trkpt><trkpt lat="37.109772680262594" lon="14.777655855806936"><ele>743.25</ele><time>2026-04-18T16:14:59Z</time></trkpt><trkpt lat="37.10990042583068" lon="14.777564154502343"><ele>743.5</ele><time>2026-04-18T16:15:00Z</time></trkpt><trkpt lat="37.11003036131154" lon="14.777543182145815"><ele>743.75</ele><time>2026-04-18T16:15:01Z</time></trkpt><trkpt lat="37.11015124603092" lon="14.777529604648754"><ele>744.0</ele><time>2026-04-18T16:15:02Z</time></trkpt><trkpt lat="37.11026567200027" lon="14.777536881241181"><ele>744.0</ele><time>2026-04-18T16:15:03Z</time></trkpt><trkpt lat="37.11036535005824" lon="14.777563733602195"><ele>744.0</ele><time>2026-04-18T16:15:04Z</time></trkpt><trkpt lat="37.11045008180828" lon="14.777595598685004"><ele>744.0</ele><time>2026-04-18T16:15:05Z</time></trkpt><trkpt lat="37.11052422484382" lon="14.777631676734545"><ele>744.0</ele><time>2026-04-18T16:15:06Z</time></trkpt><trkpt lat="37.11058256729444" lon="14.777670797502378"><ele>744.0</ele><time>2026-04-18T16:15:07Z</time></trkpt><trkpt lat="37.11064714861195" lon="14.777720771651701"><ele>744.0</ele><time>2026-04-18T16:15:08Z</time></trkpt><trkpt lat="37.11072022268953" lon="14.77779415993583"><ele>744.5</ele><time>2026-04-18T16:15:09Z</time></trkpt><trkpt lat="37.1108146884634" lon="14.777900818219946"><ele>745.0</ele><time>2026-04-18T16:15:10Z</time></trkpt><trkpt lat="37.11090923688486" lon="14.778022425228077"><ele>745.5</ele><time>2026-04-18T16:15:11Z</time></trkpt><trkpt lat="37.11100460131881" lon="14.778149334166825"><ele>746.0</ele><time>2026-04-18T16:15:12Z</time></trkpt><trkpt lat="37.1110903225272" lon="14.778261755500829"><ele>746.0</ele><time>2026-04-18T16:15:13Z</time></trkpt><trkpt lat="37.111187249441635" lon="14.778387139835896"><ele>746.0</ele><time>2026-04-18T16:15:14Z</time></trkpt><trkpt lat="37.111317914872224" lon="14.778536480967007"><ele>746.0</ele><time>2026-04-18T16:15:15Z</time></trkpt><trkpt lat="37.11146930779281" lon="14.77865207803762"><ele>747.3333333333333</ele><time>2026-04-18T16:15:16Z</time></trkpt><trkpt lat="37.11160702983191" lon="14.778792926721744"><ele>748.6666666666666</ele><time>2026-04-18T16:15:17Z</time></trkpt><trkpt lat="37.1117646608659" lon="14.77891398159516"><ele>750.0</ele><time>2026-04-18T16:15:18Z</time></trkpt><trkpt lat="37.11191408819014" lon="14.779023255090923"><ele>750.0</ele><time>2026-04-18T16:15:19Z</time></trkpt><trkpt lat="37.11204440783284" lon="14.779122967522747"><ele>750.0</ele><time>2026-04-18T16:15:20Z</time></trkpt><trkpt lat="37.11215713200039" lon="14.779217280786932"><ele>750.0</ele><time>2026-04-18T16:15:21Z</time></trkpt><trkpt lat="37.11225689254686" lon="14.77930429342152"><ele>750.0</ele><time>2026-04-18T16:15:22Z</time></trkpt><trkpt lat="37.11234517360132" lon="14.779391831015541"><ele>751.0</ele><time>2026-04-18T16:15:23Z</time></trkpt><trkpt lat="37.112418407157186" lon="14.77948082249273"><ele>752.0</ele><time>2026-04-18T16:15:24Z</time></trkpt><trkpt lat="37.11249455589133" lon="14.779580285370033"><ele>753.0</ele><time>2026-04-18T16:15:25Z</time></trkpt><trkpt lat="37.11257098693167" lon="14.779682348980316"><ele>754.0</ele><time>2026-04-18T16:15:26Z</time></trkpt><trkpt lat="37.11266635771303" lon="14.77980385377783"><ele>754.0</ele><time>2026-04-18T16:15:27Z</time></trkpt><trkpt lat="37.11275152481156" lon="14.779910641337962"><ele>754.0</ele><time>2026-04-18T16:15:28Z</time></trkpt><trkpt lat="37.112867048551344" lon="14.780034873486546"><ele>754.0</ele><time>2026-04-18T16:15:29Z</time></trkpt><trkpt lat="37.11298188855015" lon="14.780118035216091"><ele>754.0</ele><time>2026-04-18T16:15:30Z</time></trkpt><trkpt lat="37.11309649845143" lon="14.780190396777494"><ele>756.0</ele><time>2026-04-18T16:15:31Z</time></trkpt><trkpt lat="37.113218272263516" lon="14.780239413694245"><ele>758.0</ele><time>2026-04-18T16:15:32Z</time></trkpt><trkpt lat="37.11333185069105" lon="14.780315837929185"><ele>760.0</ele><time>2026-04-18T16:15:33Z</time></trkpt><trkpt lat="37.11346504718636" lon="14.78038494097967"><ele>762.0</ele><time>2026-04-18T16:15:34Z</time></trkpt><trkpt lat="37.11359361197861" lon="14.780451641150021"><ele>762.0</ele><time>2026-04-18T16:15:35Z</time></trkpt><trkpt lat="37.11374015087441" lon="14.780527666368975"><ele>762.0</ele><time>2026-04-18T16:15:36Z</time></trkpt><trkpt lat="37.113867224671914" lon="14.780593593007227"><ele>762.0</ele><time>2026-04-18T16:15:37Z</time></trkpt><trkpt lat="37.114002661265765" lon="14.780663858300954"><ele>762.0</ele><time>2026-04-18T16:15:38Z</time></trkpt><trkpt lat="37.11414035473864" lon="14.780736262971645"><ele>762.75</ele><time>2026-04-18T16:15:39Z</time></trkpt><trkpt lat="37.11426325543918" lon="14.78080826933167"><ele>763.5</ele><time>2026-04-18T16:15:40Z</time></trkpt><trkpt lat="37.11437273108874" lon="14.780887928188697"><ele>764.25</ele><time>2026-04-18T16:15:41Z</time></trkpt><trkpt lat="37.114493361759244" lon="14.780997014977844"><ele>765.0</ele><time>2026-04-18T16:15:42Z</time></trkpt><trkpt lat="37.11462504091443" lon="14.781131006687147"><ele>765.0</ele><time>2026-04-18T16:15:43Z</time></trkpt><trkpt lat="37.114767657597916" lon="14.781290097353605"><ele>765.0</ele><time>2026-04-18T16:15:44Z</time></trkpt><trkpt lat="37.114904327614" lon="14.78142867633269"><ele>765.0</ele><time>2026-04-18T16:15:45Z</time></trkpt><trkpt lat="37.11502241960058" lon="14.781546496384054"><ele>766.6666666666667</ele><time>2026-04-18T16:15:46Z</time></trkpt><trkpt lat="37.11513226380961" lon="14.781656577982636"><ele>768.3333333333334</ele><time>2026-04-18T16:15:47Z</time></trkpt><trkpt lat="37.11525470098088" lon="14.781785697098499"><ele>770.0</ele><time>2026-04-18T16:15:48Z</time></trkpt><trkpt lat="37.11538569988274" lon="14.781931596571944"><ele>770.0</ele><time>2026-04-18T16:15:49Z</time></trkpt><trkpt lat="37.115516075026996" lon="14.782070755668316"><ele>770.0</ele><time>2026-04-18T16:15:50Z</time></trkpt><trkpt lat="37.1156409898483" lon="14.782193355826648"><ele>770.0</ele><time>2026-04-18T16:15:51Z</time></trkpt><trkpt lat="37.1157525292897" lon="14.782313202011725"><ele>770.3333333333334</ele><time>2026-04-18T16:15:52Z</time></trkpt><trkpt lat="37.1158546863107" lon="14.782446124605631"><ele>770.6666666666667</ele><time>2026-04-18T16:15:53Z</time></trkpt><trkpt lat="37.11595141066534" lon="14.782595991915475"><ele>771.0</ele><time>2026-04-18T16:15:54Z</time></trkpt><trkpt lat="37.1160515045437" lon="14.782764309262294"><ele>771.0</ele><time>2026-04-18T16:15:55Z</time></trkpt><trkpt lat="37.11615837772245" lon="14.78294900451239"><ele>771.0</ele><time>2026-04-18T16:15:56Z</time></trkpt><trkpt lat="37.11626858885305" lon="14.783143115977001"><ele>771.0</ele><time>2026-04-18T16:15:57Z</time></trkpt><trkpt lat="37.11638900204335" lon="14.78334739667223"><ele>769.6666666666666</ele><time>2026-04-18T16:15:58Z</time></trkpt><trkpt lat="37.11651976415562" lon="14.783558228013133"><ele>768.3333333333333</ele><time>2026-04-18T16:15:59Z</time></trkpt><trkpt lat="37.1166378013936" lon="14.78375737379037"><ele>767.0</ele><time>2026-04-18T16:16:00Z</time></trkpt><trkpt lat="37.11675398845265" lon="14.783955701576877"><ele>767.0</ele><time>2026-04-18T16:16:01Z</time></trkpt><trkpt lat="37.11685781244116" lon="14.78412725794207"><ele>767.0</ele><time>2026-04-18T16:16:02Z</time></trkpt><trkpt lat="37.116961341105444" lon="14.78429687831535"><ele>767.0</ele><time>2026-04-18T16:16:03Z</time></trkpt><trkpt lat="37.117051306452936" lon="14.784473221341567"><ele>769.0</ele><time>2026-04-18T16:16:04Z</time></trkpt><trkpt lat="37.11711707209439" lon="14.784643726213051"><ele>771.0</ele><time>2026-04-18T16:16:05Z</time></trkpt><trkpt lat="37.1171872586412" lon="14.784839677528032"><ele>773.0</ele><time>2026-04-18T16:16:06Z</time></trkpt><trkpt lat="37.11726162751112" lon="14.785047305289357"><ele>772.0</ele><time>2026-04-18T16:16:07Z</time></trkpt><trkpt lat="37.11732930793495" lon="14.785235615803895"><ele>771.0</ele><time>2026-04-18T16:16:08Z</time></trkpt><trkpt lat="37.117391918887556" lon="14.785409165238564"><ele>770.0</ele><time>2026-04-18T16:16:09Z</time></trkpt><trkpt lat="37.11745256385013" lon="14.78558421427706"><ele>770.0</ele><time>2026-04-18T16:16:10Z</time></trkpt><trkpt lat="37.117508595528996" lon="14.785747405294217"><ele>770.0</ele><time>2026-04-18T16:16:11Z</time></trkpt><trkpt lat="37.11757361643497" lon="14.78589398823347"><ele>770.0</ele><time>2026-04-18T16:16:12Z</time></trkpt><trkpt lat="37.11765604423995" lon="14.786022945709695"><ele>770.0</ele><time>2026-04-18T16:16:13Z</time></trkpt><trkpt lat="37.11776043571723" lon="14.786127809831356"><ele>773.0</ele><time>2026-04-18T16:16:14Z</time></trkpt><trkpt lat="37.1179017910256" lon="14.786221083253182"><ele>776.0</ele><time>2026-04-18T16:16:15Z</time></trkpt><trkpt lat="37.11804828291317" lon="14.786352356547576"><ele>779.0</ele><time>2026-04-18T16:16:16Z</time></trkpt><trkpt lat="37.11819162563856" lon="14.78647319740116"><ele>776.3333333333334</ele><time>2026-04-18T16:16:17Z</time></trkpt><trkpt lat="37.118322282395575" lon="14.78658144751924"><ele>773.6666666666667</ele><time>2026-04-18T16:16:18Z</time></trkpt><trkpt lat="37.1184583600299" lon="14.786685831507183"><ele>771.0</ele><time>2026-04-18T16:16:19Z</time></trkpt><trkpt lat="37.11858801238512" lon="14.786790905091806"><ele>774.3333333333333</ele><time>2026-04-18T16:16:20Z</time></trkpt><trkpt lat="37.11872192511749" lon="14.786915715994816"><ele>777.6666666666666</ele><time>2026-04-18T16:16:21Z</time></trkpt><trkpt lat="37.118849777798594" lon="14.787049498296037"><ele>781.0</ele><time>2026-04-18T16:16:22Z</time></trkpt><trkpt lat="37.1189854728996" lon="14.787189484550577"><ele>779.0</ele><time>2026-04-18T16:16:23Z</time></trkpt><trkpt lat="37.1191329157403" lon="14.787341667172056"><ele>777.0</ele><time>2026-04-18T16:16:24Z</time></trkpt><trkpt lat="37.11927186471616" lon="14.787491036363374"><ele>775.0</ele><time>2026-04-18T16:16:25Z</time></trkpt><trkpt lat="37.11940158153633" lon="14.787625253469878"><ele>776.5</ele><time>2026-04-18T16:16:26Z</time></trkpt><trkpt lat="37.11951881719743" lon="14.787753532150832"><ele>778.0</ele><time>2026-04-18T16:16:27Z</time></trkpt><trkpt lat="37.119617996013304" lon="14.78788603865894"><ele>779.5</ele><time>2026-04-18T16:16:28Z</time></trkpt><trkpt lat="37.119706921640265" lon="14.7880335361715"><ele>781.0</ele><time>2026-04-18T16:16:29Z</time></trkpt><trkpt lat="37.11977709124659" lon="14.788182316437545"><ele>781.0</ele><time>2026-04-18T16:16:30Z</time></trkpt><trkpt lat="37.11983773539223" lon="14.78833692705717"><ele>781.0</ele><time>2026-04-18T16:16:31Z</time></trkpt><trkpt lat="37.11988111089219" lon="14.788508536136417"><ele>781.0</ele><time>2026-04-18T16:16:32Z</time></trkpt><trkpt lat="37.11991411515108" lon="14.788691749074967"><ele>781.0</ele><time>2026-04-18T16:16:33Z</time></trkpt><trkpt lat="37.11992674347941" lon="14.788878782513493"><ele>782.6666666666666</ele><time>2026-04-18T16:16:34Z</time></trkpt><trkpt lat="37.11992477653197" lon="14.789073634745812"><ele>784.3333333333333</ele><time>2026-04-18T16:16:35Z</time></trkpt><trkpt lat="37.11990814841029" lon="14.789276664645572"><ele>786.0</ele><time>2026-04-18T16:16:36Z</time></trkpt><trkpt lat="37.11987994858934" lon="14.789487213486824"><ele>786.0</ele><time>2026-04-18T16:16:37Z</time></trkpt><trkpt lat="37.11984939422311" lon="14.789696554191075"><ele>786.0</ele><time>2026-04-18T16:16:38Z</time></trkpt><trkpt lat="37.11981897265303" lon="14.789901911454914"><ele>786.0</ele><time>2026-04-18T16:16:39Z</time></trkpt><trkpt lat="37.11978990117543" lon="14.790094077976095"><ele>786.0</ele><time>2026-04-18T16:16:40Z</time></trkpt><trkpt lat="37.11976351567061" lon="14.790268490022704"><ele>786.0</ele><time>2026-04-18T16:16:41Z</time></trkpt><trkpt lat="37.119738424606794" lon="14.790434345581575"><ele>786.0</ele><time>2026-04-18T16:16:42Z</time></trkpt><trkpt lat="37.119710956479686" lon="14.790615913643235"><ele>786.0</ele><time>2026-04-18T16:16:43Z</time></trkpt><trkpt lat="37.119685068950666" lon="14.790804201562777"><ele>786.0</ele><time>2026-04-18T16:16:44Z</time></trkpt><trkpt lat="37.11967036137202" lon="14.79099383271274"><ele>786.0</ele><time>2026-04-18T16:16:45Z</time></trkpt><trkpt lat="37.11967890943672" lon="14.791178744355259"><ele>786.0</ele><time>2026-04-18T16:16:46Z</time></trkpt><trkpt lat="37.11971287081348" lon="14.79134702395743"><ele>786.0</ele><time>2026-04-18T16:16:47Z</time></trkpt><trkpt lat="37.11975252055344" lon="14.791504749811514"><ele>786.3333333333333</ele><time>2026-04-18T16:16:48Z</time></trkpt><trkpt lat="37.11980524391759" lon="14.791692585379346"><ele>786.6666666666666</ele><time>2026-04-18T16:16:49Z</time></trkpt><trkpt lat="37.119861429048754" lon="14.791895501544625"><ele>787.0</ele><time>2026-04-18T16:16:50Z</time></trkpt><trkpt lat="37.11991845921573" lon="14.792101928225076"><ele>784.0</ele><time>2026-04-18T16:16:51Z</time></trkpt><trkpt lat="37.11998156601313" lon="14.792291545740834"><ele>781.0</ele><time>2026-04-18T16:16:52Z</time></trkpt><trkpt lat="37.120025357710226" lon="14.792464325866286"><ele>778.0</ele><time>2026-04-18T16:16:53Z</time></trkpt><trkpt lat="37.120045820020195" lon="14.792628500463561"><ele>775.0</ele><time>2026-04-18T16:16:54Z</time></trkpt><trkpt lat="37.12004254187279" lon="14.792793933572545"><ele>775.0</ele><time>2026-04-18T16:16:55Z</time></trkpt><trkpt lat="37.120016239770955" lon="14.792961437332249"><ele>775.0</ele><time>2026-04-18T16:16:56Z</time></trkpt><trkpt lat="37.11997427230632" lon="14.79314911577921"><ele>775.0</ele><time>2026-04-18T16:16:57Z</time></trkpt><trkpt lat="37.11992996566738" lon="14.793321866065588"><ele>775.0</ele><time>2026-04-18T16:16:58Z</time></trkpt><trkpt lat="37.119837360314555" lon="14.793448345432466"><ele>775.0</ele><time>2026-04-18T16:16:59Z</time></trkpt><trkpt lat="37.11975076095297" lon="14.793590531571574"><ele>775.0</ele><time>2026-04-18T16:17:00Z</time></trkpt><trkpt lat="37.119626481389275" lon="14.793729778446485"><ele>775.0</ele><time>2026-04-18T16:17:01Z</time></trkpt><trkpt lat="37.11950036759473" lon="14.793864361447401"><ele>775.0</ele><time>2026-04-18T16:17:02Z</time></trkpt><trkpt lat="37.11938663663871" lon="14.79399238257832"><ele>775.0</ele><time>2026-04-18T16:17:03Z</time></trkpt><trkpt lat="37.11927012228259" lon="14.794127151255799"><ele>775.0</ele><time>2026-04-18T16:17:04Z</time></trkpt><trkpt lat="37.119144949159335" lon="14.794273175096148"><ele>776.0</ele><time>2026-04-18T16:17:05Z</time></trkpt><trkpt lat="37.119009479236205" lon="14.794430954022395"><ele>777.0</ele><time>2026-04-18T16:17:06Z</time></trkpt><trkpt lat="37.11886795532044" lon="14.794590879769414"><ele>778.0</ele><time>2026-04-18T16:17:07Z</time></trkpt><trkpt lat="37.11872556649048" lon="14.794752375603386"><ele>778.0</ele><time>2026-04-18T16:17:08Z</time></trkpt><trkpt lat="37.11858147472567" lon="14.794918124138858"><ele>778.0</ele><time>2026-04-18T16:17:09Z</time></trkpt><trkpt lat="37.118450156951425" lon="14.795071059473017"><ele>778.0</ele><time>2026-04-18T16:17:10Z</time></trkpt><trkpt lat="37.11832672750421" lon="14.79521659535865"><ele>778.75</ele><time>2026-04-18T16:17:11Z</time></trkpt><trkpt lat="37.11821505560214" lon="14.79532334627506"><ele>779.5</ele><time>2026-04-18T16:17:12Z</time></trkpt><trkpt lat="37.11813782302284" lon="14.795459283822364"><ele>780.25</ele><time>2026-04-18T16:17:13Z</time></trkpt><trkpt lat="37.1180579856547" lon="14.795567314579294"><ele>781.0</ele><time>2026-04-18T16:17:14Z</time></trkpt><trkpt lat="37.118003891328016" lon="14.795712784754098"><ele>781.0</ele><time>2026-04-18T16:17:15Z</time></trkpt><trkpt lat="37.11795832422949" lon="14.795880745712836"><ele>781.0</ele><time>2026-04-18T16:17:16Z</time></trkpt><trkpt lat="37.11794174878929" lon="14.796060586208789"><ele>781.0</ele><time>2026-04-18T16:17:17Z</time></trkpt><trkpt lat="37.11794589642299" lon="14.796231797888314"><ele>781.0</ele><time>2026-04-18T16:17:18Z</time></trkpt><trkpt lat="37.11797495705906" lon="14.79641762998992"><ele>781.0</ele><time>2026-04-18T16:17:19Z</time></trkpt><trkpt lat="37.118024616834184" lon="14.796628598657755"><ele>781.0</ele><time>2026-04-18T16:17:20Z</time></trkpt><trkpt lat="37.1180778557853" lon="14.796841088199365"><ele>781.0</ele><time>2026-04-18T16:17:21Z</time></trkpt><trkpt lat="37.118108443172304" lon="14.797055029971638"><ele>781.3333333333333</ele><time>2026-04-18T16:17:22Z</time></trkpt><trkpt lat="37.11811674178511" lon="14.79726543077328"><ele>781.6666666666667</ele><time>2026-04-18T16:17:23Z</time></trkpt><trkpt lat="37.11811104438032" lon="14.797471065862597"><ele>782.0</ele><time>2026-04-18T16:17:24Z</time></trkpt><trkpt lat="37.118102960488365" lon="14.797685130135148"><ele>781.0</ele><time>2026-04-18T16:17:25Z</time></trkpt><trkpt lat="37.118094437627114" lon="14.797884401157054"><ele>780.0</ele><time>2026-04-18T16:17:26Z</time></trkpt><trkpt lat="37.1180869086557" lon="14.798053363500994"><ele>779.0</ele><time>2026-04-18T16:17:27Z</time></trkpt><trkpt lat="37.11808725857159" lon="14.798204581602672"><ele>778.0</ele><time>2026-04-18T16:17:28Z</time></trkpt><trkpt lat="37.11809924525918" lon="14.798365554565027"><ele>778.25</ele><time>2026-04-18T16:17:29Z</time></trkpt><trkpt lat="37.1181284397639" lon="14.798519124209491"><ele>778.5</ele><time>2026-04-18T16:17:30Z</time></trkpt><trkpt lat="37.1181697239759" lon="14.798691807343332"><ele>778.75</ele><time>2026-04-18T16:17:31Z</time></trkpt><trkpt lat="37.11821101291344" lon="14.798886696500311"><ele>779.0</ele><time>2026-04-18T16:17:32Z</time></trkpt><trkpt lat="37.1182382930767" lon="14.799075130515794"><ele>779.25</ele><time>2026-04-18T16:17:33Z</time></trkpt><trkpt lat="37.11824213233929" lon="14.799227744940731"><ele>779.5</ele><time>2026-04-18T16:17:34Z</time></trkpt><trkpt lat="37.11823375301964" lon="14.799401448720753"><ele>779.75</ele><time>2026-04-18T16:17:35Z</time></trkpt><trkpt lat="37.11820566772319" lon="14.799570537569059"><ele>780.0</ele><time>2026-04-18T16:17:36Z</time></trkpt><trkpt lat="37.11816215859428" lon="14.799733932916192"><ele>780.0</ele><time>2026-04-18T16:17:37Z</time></trkpt><trkpt lat="37.11808869301924" lon="14.799900932341115"><ele>780.0</ele><time>2026-04-18T16:17:38Z</time></trkpt><trkpt lat="37.11799402441864" lon="14.800078276243848"><ele>780.0</ele><time>2026-04-18T16:17:39Z</time></trkpt><trkpt lat="37.11790916150644" lon="14.800236991735044"><ele>779.25</ele><time>2026-04-18T16:17:40Z</time></trkpt><trkpt lat="37.11783652681531" lon="14.800379851987682"><ele>778.5</ele><time>2026-04-18T16:17:41Z</time></trkpt><trkpt lat="37.117778421148735" lon="14.800522920118759"><ele>777.75</ele><time>2026-04-18T16:17:42Z</time></trkpt><trkpt lat="37.11773676394319" lon="14.80065893776773"><ele>777.0</ele><time>2026-04-18T16:17:43Z</time></trkpt><trkpt lat="37.11771215577015" lon="14.800785337146374"><ele>777.0</ele><time>2026-04-18T16:17:44Z</time></trkpt><trkpt lat="37.11770648774129" lon="14.800917412558658"><ele>777.0</ele><time>2026-04-18T16:17:45Z</time></trkpt><trkpt lat="37.11772511466572" lon="14.801072604409875"><ele>777.0</ele><time>2026-04-18T16:17:46Z</time></trkpt><trkpt lat="37.11776936725443" lon="14.801222315415082"><ele>777.0</ele><time>2026-04-18T16:17:47Z</time></trkpt><trkpt lat="37.11783467333339" lon="14.801401245564078"><ele>779.0</ele><time>2026-04-18T16:17:48Z</time></trkpt><trkpt lat="37.11792034228422" lon="14.801587415363317"><ele>781.0</ele><time>2026-04-18T16:17:49Z</time></trkpt><trkpt lat="37.11800108630047" lon="14.80175825142207"><ele>783.0</ele><time>2026-04-18T16:17:50Z</time></trkpt><trkpt lat="37.118074996357606" lon="14.801914628382342"><ele>784.3333333333333</ele><time>2026-04-18T16:17:51Z</time></trkpt><trkpt lat="37.11816430836699" lon="14.802091098591887"><ele>785.6666666666666</ele><time>2026-04-18T16:17:52Z</time></trkpt><trkpt lat="37.11827524319967" lon="14.802303955207378"><ele>787.0</ele><time>2026-04-18T16:17:53Z</time></trkpt><trkpt lat="37.118374483201414" lon="14.802505708875353"><ele>784.3333333333333</ele><time>2026-04-18T16:17:54Z</time></trkpt><trkpt lat="37.118452794518426" lon="14.802695098026318"><ele>781.6666666666667</ele><time>2026-04-18T16:17:55Z</time></trkpt><trkpt lat="37.11852625946353" lon="14.802899721535718"><ele>779.0</ele><time>2026-04-18T16:17:56Z</time></trkpt><trkpt lat="37.11859375793643" lon="14.803097274653505"><ele>779.0</ele><time>2026-04-18T16:17:57Z</time></trkpt><trkpt lat="37.11865908115242" lon="14.803288817440725"><ele>779.0</ele><time>2026-04-18T16:17:58Z</time></trkpt><trkpt lat="37.1187304343195" lon="14.803495098384506"><ele>779.0</ele><time>2026-04-18T16:17:59Z</time></trkpt><trkpt lat="37.118812021660084" lon="14.80373096621115"><ele>779.6666666666667</ele><time>2026-04-18T16:18:00Z</time></trkpt><trkpt lat="37.118893380926735" lon="14.803966174649668"><ele>780.3333333333333</ele><time>2026-04-18T16:18:01Z</time></trkpt><trkpt lat="37.11897046435617" lon="14.804192593178417"><ele>781.0</ele><time>2026-04-18T16:18:02Z</time></trkpt><trkpt lat="37.119050693624374" lon="14.80441872347038"><ele>779.3333333333333</ele><time>2026-04-18T16:18:03Z</time></trkpt><trkpt lat="37.1191262949402" lon="14.804646466855466"><ele>777.6666666666667</ele><time>2026-04-18T16:18:04Z</time></trkpt><trkpt lat="37.11920211419303" lon="14.804877661699292"><ele>776.0</ele><time>2026-04-18T16:18:05Z</time></trkpt><trkpt lat="37.11928262958535" lon="14.805103602433096"><ele>776.3333333333334</ele><time>2026-04-18T16:18:06Z</time></trkpt><trkpt lat="37.119354266165715" lon="14.805309837991294"><ele>776.6666666666667</ele><time>2026-04-18T16:18:07Z</time></trkpt><trkpt lat="37.11941938583581" lon="14.805491664308235"><ele>777.0</ele><time>2026-04-18T16:18:08Z</time></trkpt><trkpt lat="37.11948564526664" lon="14.80565918967143"><ele>777.0</ele><time>2026-04-18T16:18:09Z</time></trkpt><trkpt lat="37.11956519495088" lon="14.805817100479292"><ele>777.0</ele><time>2026-04-18T16:18:10Z</time></trkpt><trkpt lat="37.11967932766305" lon="14.805954805344824"><ele>777.0</ele><time>2026-04-18T16:18:11Z</time></trkpt><trkpt lat="37.11979443211417" lon="14.806075036555944"><ele>777.6666666666667</ele><time>2026-04-18T16:18:12Z</time></trkpt><trkpt lat="37.119917480212536" lon="14.80620184471304"><ele>778.3333333333334</ele><time>2026-04-18T16:18:13Z</time></trkpt><trkpt lat="37.120050775584424" lon="14.80632830080093"><ele>779.0</ele><time>2026-04-18T16:18:14Z</time></trkpt><trkpt lat="37.12017980688766" lon="14.806435251871383"><ele>779.0</ele><time>2026-04-18T16:18:15Z</time></trkpt><trkpt lat="37.12033431170437" lon="14.806519704759408"><ele>779.0</ele><time>2026-04-18T16:18:16Z</time></trkpt><trkpt lat="37.12052242589246" lon="14.806597504780138"><ele>779.0</ele><time>2026-04-18T16:18:17Z</time></trkpt><trkpt lat="37.12073235812925" lon="14.80668435872716"><ele>779.3333333333334</ele><time>2026-04-18T16:18:18Z</time></trkpt><trkpt lat="37.1209518435975" lon="14.806777631320577"><ele>779.6666666666667</ele><time>2026-04-18T16:18:19Z</time></trkpt><trkpt lat="37.12114715060354" lon="14.806863348909477"><ele>780.0</ele><time>2026-04-18T16:18:20Z</time></trkpt><trkpt lat="37.12131567359612" lon="14.806938338958837"><ele>780.0</ele><time>2026-04-18T16:18:21Z</time></trkpt><trkpt lat="37.12146730166339" lon="14.807025762038169"><ele>780.0</ele><time>2026-04-18T16:18:22Z</time></trkpt><trkpt lat="37.121584628751705" lon="14.807127754910725"><ele>780.0</ele><time>2026-04-18T16:18:23Z</time></trkpt><trkpt lat="37.121682787757905" lon="14.807251752578521"><ele>780.0</ele><time>2026-04-18T16:18:24Z</time></trkpt><trkpt lat="37.1217643524814" lon="14.807377874889436"><ele>779.5</ele><time>2026-04-18T16:18:25Z</time></trkpt><trkpt lat="37.121837367439454" lon="14.807541255894106"><ele>779.0</ele><time>2026-04-18T16:18:26Z</time></trkpt><trkpt lat="37.12188710440743" lon="14.807721353056635"><ele>778.5</ele><time>2026-04-18T16:18:27Z</time></trkpt><trkpt lat="37.12191397341541" lon="14.807902057119039"><ele>778.0</ele><time>2026-04-18T16:18:28Z</time></trkpt><trkpt lat="37.121910578430565" lon="14.808086038386586"><ele>778.0</ele><time>2026-04-18T16:18:29Z</time></trkpt><trkpt lat="37.12188653188654" lon="14.808273315139578"><ele>778.0</ele><time>2026-04-18T16:18:30Z</time></trkpt><trkpt lat="37.121840508825315" lon="14.808446727198891"><ele>778.0</ele><time>2026-04-18T16:18:31Z</time></trkpt><trkpt lat="37.121779254113164" lon="14.808597497547836"><ele>778.0</ele><time>2026-04-18T16:18:32Z</time></trkpt><trkpt lat="37.12170010245082" lon="14.808734137204153"><ele>778.0</ele><time>2026-04-18T16:18:33Z</time></trkpt><trkpt lat="37.12160914339274" lon="14.808889189840007"><ele>778.0</ele><time>2026-04-18T16:18:34Z</time></trkpt><trkpt lat="37.12151538235493" lon="14.80904599950651"><ele>778.0</ele><time>2026-04-18T16:18:35Z</time></trkpt><trkpt lat="37.1214195444575" lon="14.80921045840951"><ele>777.75</ele><time>2026-04-18T16:18:36Z</time></trkpt><trkpt lat="37.12134941970419" lon="14.809381492134179"><ele>777.5</ele><time>2026-04-18T16:18:37Z</time></trkpt><trkpt lat="37.121265391932376" lon="14.80953360714367"><ele>777.25</ele><time>2026-04-18T16:18:38Z</time></trkpt><trkpt lat="37.12123224316292" lon="14.809712486847326"><ele>777.0</ele><time>2026-04-18T16:18:39Z</time></trkpt><trkpt lat="37.121220732341875" lon="14.809910388863202"><ele>777.0</ele><time>2026-04-18T16:18:40Z</time></trkpt><trkpt lat="37.121232632574944" lon="14.810095356508326"><ele>777.0</ele><time>2026-04-18T16:18:41Z</time></trkpt><trkpt lat="37.12126610128899" lon="14.810272935920613"><ele>777.0</ele><time>2026-04-18T16:18:42Z</time></trkpt><trkpt lat="37.12132962775332" lon="14.810454158999875"><ele>777.0</ele><time>2026-04-18T16:18:43Z</time></trkpt><trkpt lat="37.12141379174639" lon="14.810643985201606"><ele>777.0</ele><time>2026-04-18T16:18:44Z</time></trkpt><trkpt lat="37.12150871740095" lon="14.810857825612755"><ele>777.0</ele><time>2026-04-18T16:18:45Z</time></trkpt><trkpt lat="37.12160290456106" lon="14.811068476774949"><ele>777.0</ele><time>2026-04-18T16:18:46Z</time></trkpt><trkpt lat="37.12168763515513" lon="14.81125901853945"><ele>777.0</ele><time>2026-04-18T16:18:47Z</time></trkpt><trkpt lat="37.12176315437513" lon="14.81143021233736"><ele>777.0</ele><time>2026-04-18T16:18:48Z</time></trkpt><trkpt lat="37.1218421621671" lon="14.811599787685424"><ele>777.0</ele><time>2026-04-18T16:18:49Z</time></trkpt><trkpt lat="37.1219477911173" lon="14.811771030699237"><ele>777.0</ele><time>2026-04-18T16:18:50Z</time></trkpt><trkpt lat="37.122068682707614" lon="14.811919115196018"><ele>777.0</ele><time>2026-04-18T16:18:51Z</time></trkpt><trkpt lat="37.12220563195396" lon="14.812062954336952"><ele>776.6666666666667</ele><time>2026-04-18T16:18:52Z</time></trkpt><trkpt lat="37.12236568415097" lon="14.812188404740692"><ele>776.3333333333334</ele><time>2026-04-18T16:18:53Z</time></trkpt><trkpt lat="37.1225533777269" lon="14.812305113282124"><ele>776.0</ele><time>2026-04-18T16:18:54Z</time></trkpt><trkpt lat="37.12276048763788" lon="14.812422278187132"><ele>776.0</ele><time>2026-04-18T16:18:55Z</time></trkpt><trkpt lat="37.1229482896875" lon="14.812524709176975"><ele>776.0</ele><time>2026-04-18T16:18:56Z</time></trkpt><trkpt lat="37.12312360643989" lon="14.812623957626162"><ele>776.0</ele><time>2026-04-18T16:18:57Z</time></trkpt><trkpt lat="37.12330130074684" lon="14.812725656549121"><ele>779.5</ele><time>2026-04-18T16:18:58Z</time></trkpt><trkpt lat="37.123505452236394" lon="14.812829174168375"><ele>783.0</ele><time>2026-04-18T16:18:59Z</time></trkpt><trkpt lat="37.12372881734066" lon="14.812906310143784"><ele>783.0</ele><time>2026-04-18T16:19:00Z</time></trkpt><trkpt lat="37.12391563304161" lon="14.812953258980743"><ele>783.0</ele><time>2026-04-18T16:19:01Z</time></trkpt><trkpt lat="37.124087846992396" lon="14.812993868987189"><ele>783.0</ele><time>2026-04-18T16:19:02Z</time></trkpt><trkpt lat="37.12426728891909" lon="14.813023336224301"><ele>781.3333333333333</ele><time>2026-04-18T16:19:03Z</time></trkpt><trkpt lat="37.12443274354155" lon="14.813020805805003"><ele>779.6666666666666</ele><time>2026-04-18T16:19:04Z</time></trkpt><trkpt lat="37.1246134767607" lon="14.813015957568524"><ele>778.0</ele><time>2026-04-18T16:19:05Z</time></trkpt><trkpt lat="37.12481641778621" lon="14.812978739009107"><ele>777.0</ele><time>2026-04-18T16:19:06Z</time></trkpt><trkpt lat="37.125031249640465" lon="14.812959040959855"><ele>776.0</ele><time>2026-04-18T16:19:07Z</time></trkpt><trkpt lat="37.12521580331526" lon="14.81292617815415"><ele>775.0</ele><time>2026-04-18T16:19:08Z</time></trkpt><trkpt lat="37.12539266008153" lon="14.812896886588343"><ele>775.0</ele><time>2026-04-18T16:19:09Z</time></trkpt><trkpt lat="37.12555686775266" lon="14.812871116588886"><ele>775.0</ele><time>2026-04-18T16:19:10Z</time></trkpt><trkpt lat="37.12571664569064" lon="14.812827821314794"><ele>775.0</ele><time>2026-04-18T16:19:11Z</time></trkpt><trkpt lat="37.12587501862504" lon="14.812804993644379"><ele>774.5</ele><time>2026-04-18T16:19:12Z</time></trkpt><trkpt lat="37.12602766035363" lon="14.812797232519294"><ele>774.0</ele><time>2026-04-18T16:19:13Z</time></trkpt><trkpt lat="37.12616267998126" lon="14.812783650329221"><ele>773.5</ele><time>2026-04-18T16:19:14Z</time></trkpt><trkpt lat="37.12629006378627" lon="14.81279594225496"><ele>773.0</ele><time>2026-04-18T16:19:15Z</time></trkpt><trkpt lat="37.1264115472762" lon="14.812834343014988"><ele>773.0</ele><time>2026-04-18T16:19:16Z</time></trkpt><trkpt lat="37.126543160574" lon="14.812905303887954"><ele>773.0</ele><time>2026-04-18T16:19:17Z</time></trkpt><trkpt lat="37.12667284153294" lon="14.813005448897254"><ele>773.0</ele><time>2026-04-18T16:19:18Z</time></trkpt><trkpt lat="37.12679596388839" lon="14.81312013338901"><ele>773.0</ele><time>2026-04-18T16:19:19Z</time></trkpt><trkpt lat="37.12691292565788" lon="14.813252041538309"><ele>773.0</ele><time>2026-04-18T16:19:20Z</time></trkpt><trkpt lat="37.12702168399873" lon="14.813376457876046"><ele>773.0</ele><time>2026-04-18T16:19:21Z</time></trkpt><trkpt lat="37.12713314193786" lon="14.813490454982169"><ele>773.0</ele><time>2026-04-18T16:19:22Z</time></trkpt><trkpt lat="37.12726365278009" lon="14.813601921359217"><ele>773.0</ele><time>2026-04-18T16:19:23Z</time></trkpt><trkpt lat="37.12739488363915" lon="14.813706826482496"><ele>773.0</ele><time>2026-04-18T16:19:24Z</time></trkpt><trkpt lat="37.12752572546452" lon="14.813806050783446"><ele>773.0</ele><time>2026-04-18T16:19:25Z</time></trkpt><trkpt lat="37.12765103171543" lon="14.81386287370648"><ele>773.0</ele><time>2026-04-18T16:19:26Z</time></trkpt><trkpt lat="37.12775665015267" lon="14.813898599181393"><ele>773.0</ele><time>2026-04-18T16:19:27Z</time></trkpt><trkpt lat="37.127883376973436" lon="14.813894618144268"><ele>773.0</ele><time>2026-04-18T16:19:28Z</time></trkpt><trkpt lat="37.12805243117908" lon="14.813853939302458"><ele>773.0</ele><time>2026-04-18T16:19:29Z</time></trkpt><trkpt lat="37.12823288518579" lon="14.813787564062125"><ele>773.0</ele><time>2026-04-18T16:19:30Z</time></trkpt><trkpt lat="37.12839691203953" lon="14.813734845511332"><ele>772.25</ele><time>2026-04-18T16:19:31Z</time></trkpt><trkpt lat="37.128544164253626" lon="14.813705974725075"><ele>771.5</ele><time>2026-04-18T16:19:32Z</time></trkpt><trkpt lat="37.12866907103615" lon="14.813695478577827"><ele>770.75</ele><time>2026-04-18T16:19:33Z</time></trkpt><trkpt lat="37.12878303756212" lon="14.81370733545979"><ele>770.0</ele><time>2026-04-18T16:19:34Z</time></trkpt><trkpt lat="37.12889620499367" lon="14.813744792021131"><ele>770.0</ele><time>2026-04-18T16:19:35Z</time></trkpt><trkpt lat="37.129015236871275" lon="14.813829759996626"><ele>770.0</ele><time>2026-04-18T16:19:36Z</time></trkpt><trkpt lat="37.129124154350485" lon="14.813919080347317"><ele>770.0</ele><time>2026-04-18T16:19:37Z</time></trkpt><trkpt lat="37.129212818215606" lon="14.814035646293663"><ele>770.0</ele><time>2026-04-18T16:19:38Z</time></trkpt><trkpt lat="37.129304306047786" lon="14.814170613845524"><ele>770.5</ele><time>2026-04-18T16:19:39Z</time></trkpt><trkpt lat="37.129381544286936" lon="14.814309650900553"><ele>771.0</ele><time>2026-04-18T16:19:40Z</time></trkpt><trkpt lat="37.12943124960497" lon="14.814445870978222"><ele>771.5</ele><time>2026-04-18T16:19:41Z</time></trkpt><trkpt lat="37.12945401113642" lon="14.814600904317846"><ele>772.0</ele><time>2026-04-18T16:19:42Z</time></trkpt><trkpt lat="37.12946381641042" lon="14.814768100040556"><ele>772.0</ele><time>2026-04-18T16:19:43Z</time></trkpt><trkpt lat="37.129462020384366" lon="14.814934649892312"><ele>772.0</ele><time>2026-04-18T16:19:44Z</time></trkpt><trkpt lat="37.12947833574054" lon="14.815111907471096"><ele>772.0</ele><time>2026-04-18T16:19:45Z</time></trkpt><trkpt lat="37.12947474048211" lon="14.815284024545445"><ele>772.0</ele><time>2026-04-18T16:19:46Z</time></trkpt><trkpt lat="37.12947099041914" lon="14.815449895850197"><ele>773.0</ele><time>2026-04-18T16:19:47Z</time></trkpt><trkpt lat="37.12950466886259" lon="14.815612573310398"><ele>774.0</ele><time>2026-04-18T16:19:48Z</time></trkpt><trkpt lat="37.129540623237716" lon="14.815771281827274"><ele>775.0</ele><time>2026-04-18T16:19:49Z</time></trkpt><trkpt lat="37.129606213026754" lon="14.815913424419445"><ele>776.0</ele><time>2026-04-18T16:19:50Z</time></trkpt><trkpt lat="37.12969322210795" lon="14.81604953287866"><ele>774.0</ele><time>2026-04-18T16:19:51Z</time></trkpt><trkpt lat="37.12975989751766" lon="14.816189873290803"><ele>772.0</ele><time>2026-04-18T16:19:52Z</time></trkpt><trkpt lat="37.12985482483768" lon="14.816296623123428"><ele>770.0</ele><time>2026-04-18T16:19:53Z</time></trkpt><trkpt lat="37.129967987991044" lon="14.816380337528146"><ele>768.0</ele><time>2026-04-18T16:19:54Z</time></trkpt><trkpt lat="37.13010107513616" lon="14.816446757677646"><ele>768.0</ele><time>2026-04-18T16:19:55Z</time></trkpt><trkpt lat="37.130258411309164" lon="14.816455214444765"><ele>768.0</ele><time>2026-04-18T16:19:56Z</time></trkpt><trkpt lat="37.13042137924527" lon="14.816476631458116"><ele>768.0</ele><time>2026-04-18T16:19:57Z</time></trkpt><trkpt lat="37.13058543146135" lon="14.816516766847034"><ele>765.75</ele><time>2026-04-18T16:19:58Z</time></trkpt><trkpt lat="37.13074001994153" lon="14.816537445798456"><ele>763.5</ele><time>2026-04-18T16:19:59Z</time></trkpt><trkpt lat="37.13088317662121" lon="14.816561086382258"><ele>761.25</ele><time>2026-04-18T16:20:00Z</time></trkpt><trkpt lat="37.13101131061364" lon="14.81660941893997"><ele>759.0</ele><time>2026-04-18T16:20:01Z</time></trkpt><trkpt lat="37.13111122563937" lon="14.816690244020752"><ele>759.0</ele><time>2026-04-18T16:20:02Z</time></trkpt><trkpt lat="37.13121206626851" lon="14.81680013443639"><ele>759.0</ele><time>2026-04-18T16:20:03Z</time></trkpt><trkpt lat="37.13131116347855" lon="14.816951657451597"><ele>759.0</ele><time>2026-04-18T16:20:04Z</time></trkpt><trkpt lat="37.131412965349824" lon="14.817099165235739"><ele>759.0</ele><time>2026-04-18T16:20:05Z</time></trkpt><trkpt lat="37.13150944878065" lon="14.817234106287728"><ele>758.75</ele><time>2026-04-18T16:20:06Z</time></trkpt><trkpt lat="37.131600360846384" lon="14.817354548405635"><ele>758.5</ele><time>2026-04-18T16:20:07Z</time></trkpt><trkpt lat="37.1317153328585" lon="14.81744521084027"><ele>758.25</ele><time>2026-04-18T16:20:08Z</time></trkpt><trkpt lat="37.13182511311888" lon="14.81753447934849"><ele>758.0</ele><time>2026-04-18T16:20:09Z</time></trkpt><trkpt lat="37.131972567924386" lon="14.817593634827702"><ele>758.0</ele><time>2026-04-18T16:20:10Z</time></trkpt><trkpt lat="37.13214565255034" lon="14.817638485572186"><ele>758.0</ele><time>2026-04-18T16:20:11Z</time></trkpt><trkpt lat="37.132300052265535" lon="14.817676784742387"><ele>758.0</ele><time>2026-04-18T16:20:12Z</time></trkpt><trkpt lat="37.13248657675977" lon="14.81771881822586"><ele>760.6666666666666</ele><time>2026-04-18T16:20:13Z</time></trkpt><trkpt lat="37.132632375875815" lon="14.817798390903281"><ele>763.3333333333334</ele><time>2026-04-18T16:20:14Z</time></trkpt><trkpt lat="37.13278785299239" lon="14.81787313587494"><ele>766.0</ele><time>2026-04-18T16:20:15Z</time></trkpt><trkpt lat="37.132937535768605" lon="14.817947844070835"><ele>766.0</ele><time>2026-04-18T16:20:16Z</time></trkpt><trkpt lat="37.13308943062242" lon="14.818005192067304"><ele>766.0</ele><time>2026-04-18T16:20:17Z</time></trkpt><trkpt lat="37.13323382083218" lon="14.818095722961148"><ele>766.0</ele><time>2026-04-18T16:20:18Z</time></trkpt><trkpt lat="37.133373535454155" lon="14.818165455953462"><ele>765.75</ele><time>2026-04-18T16:20:19Z</time></trkpt><trkpt lat="37.13350021650895" lon="14.818227236735657"><ele>765.5</ele><time>2026-04-18T16:20:20Z</time></trkpt><trkpt lat="37.13360957590512" lon="14.818300293216598"><ele>765.25</ele><time>2026-04-18T16:20:21Z</time></trkpt><trkpt lat="37.13369482685437" lon="14.818394583615072"><ele>765.0</ele><time>2026-04-18T16:20:22Z</time></trkpt><trkpt lat="37.13376989730451" lon="14.818524567537649"><ele>765.0</ele><time>2026-04-18T16:20:23Z</time></trkpt><trkpt lat="37.133829548291494" lon="14.8186979589542"><ele>765.0</ele><time>2026-04-18T16:20:24Z</time></trkpt><trkpt lat="37.13389419731362" lon="14.818900751148284"><ele>765.0</ele><time>2026-04-18T16:20:25Z</time></trkpt><trkpt lat="37.133948615405224" lon="14.819073915026612"><ele>765.0</ele><time>2026-04-18T16:20:26Z</time></trkpt><trkpt lat="37.13399756677754" lon="14.819249101335787"><ele>765.0</ele><time>2026-04-18T16:20:27Z</time></trkpt><trkpt lat="37.1340369648369" lon="14.81943064631799"><ele>765.0</ele><time>2026-04-18T16:20:28Z</time></trkpt><trkpt lat="37.13406240018904" lon="14.819614239569178"><ele>765.0</ele><time>2026-04-18T16:20:29Z</time></trkpt><trkpt lat="37.13407329209753" lon="14.819804819100812"><ele>761.5</ele><time>2026-04-18T16:20:30Z</time></trkpt><trkpt lat="37.13407926592909" lon="14.819986434505003"><ele>758.0</ele><time>2026-04-18T16:20:31Z</time></trkpt><trkpt lat="37.13408561744114" lon="14.820172127726345"><ele>754.5</ele><time>2026-04-18T16:20:32Z</time></trkpt><trkpt lat="37.1341186369691" lon="14.820338673308854"><ele>751.0</ele><time>2026-04-18T16:20:33Z</time></trkpt><trkpt lat="37.13414081975358" lon="14.820484519581294"><ele>751.0</ele><time>2026-04-18T16:20:34Z</time></trkpt><trkpt lat="37.13418415802572" lon="14.82062154908676"><ele>751.0</ele><time>2026-04-18T16:20:35Z</time></trkpt><trkpt lat="37.134264547647085" lon="14.82076407904157"><ele>751.0</ele><time>2026-04-18T16:20:36Z</time></trkpt><trkpt lat="37.134364354566515" lon="14.820910730468702"><ele>751.0</ele><time>2026-04-18T16:20:37Z</time></trkpt><trkpt lat="37.134473318083984" lon="14.821086918202345"><ele>753.6666666666667</ele><time>2026-04-18T16:20:38Z</time></trkpt><trkpt lat="37.13458227364009" lon="14.82125771143557"><ele>756.3333333333334</ele><time>2026-04-18T16:20:39Z</time></trkpt><trkpt lat="37.13469191127977" lon="14.821435173612754"><ele>759.0</ele><time>2026-04-18T16:20:40Z</time></trkpt><trkpt lat="37.1347941245338" lon="14.821617951010047"><ele>759.0</ele><time>2026-04-18T16:20:41Z</time></trkpt><trkpt lat="37.134884307838234" lon="14.821784904455722"><ele>759.0</ele><time>2026-04-18T16:20:42Z</time></trkpt><trkpt lat="37.13496894810782" lon="14.821946631644936"><ele>759.0</ele><time>2026-04-18T16:20:43Z</time></trkpt><trkpt lat="37.13505333248335" lon="14.822111692018101"><ele>757.0</ele><time>2026-04-18T16:20:44Z</time></trkpt><trkpt lat="37.13513683230112" lon="14.822261889854383"><ele>755.0</ele><time>2026-04-18T16:20:45Z</time></trkpt><trkpt lat="37.1352066426041" lon="14.82240180129609"><ele>753.0</ele><time>2026-04-18T16:20:46Z</time></trkpt><trkpt lat="37.13528485644926" lon="14.82251780806296"><ele>751.0</ele><time>2026-04-18T16:20:47Z</time></trkpt><trkpt lat="37.13536905941487" lon="14.822602419321997"><ele>752.75</ele><time>2026-04-18T16:20:48Z</time></trkpt><trkpt lat="37.13546924391036" lon="14.8226549146314"><ele>754.5</ele><time>2026-04-18T16:20:49Z</time></trkpt><trkpt lat="37.135573727756224" lon="14.822711313644222"><ele>756.25</ele><time>2026-04-18T16:20:50Z</time></trkpt><trkpt lat="37.13570165985347" lon="14.822764353225416"><ele>758.0</ele><time>2026-04-18T16:20:51Z</time></trkpt><trkpt lat="37.135843756158316" lon="14.82278906420585"><ele>758.0</ele><time>2026-04-18T16:20:52Z</time></trkpt><trkpt lat="37.13600188302707" lon="14.82280374312593"><ele>758.0</ele><time>2026-04-18T16:20:53Z</time></trkpt><trkpt lat="37.136166439649806" lon="14.822797984125328"><ele>758.0</ele><time>2026-04-18T16:20:54Z</time></trkpt><trkpt lat="37.13632112417158" lon="14.822803290494956"><ele>758.0</ele><time>2026-04-18T16:20:55Z</time></trkpt><trkpt lat="37.13647027776672" lon="14.82282374810351"><ele>758.0</ele><time>2026-04-18T16:20:56Z</time></trkpt><trkpt lat="37.13661717431728" lon="14.82283593582493"><ele>758.0</ele><time>2026-04-18T16:20:57Z</time></trkpt><trkpt lat="37.13675074536508" lon="14.822853384016518"><ele>758.0</ele><time>2026-04-18T16:20:58Z</time></trkpt><trkpt lat="37.13686938562345" lon="14.822882862112857"><ele>757.75</ele><time>2026-04-18T16:20:59Z</time></trkpt><trkpt lat="37.13700315370186" lon="14.822922999868394"><ele>757.5</ele><time>2026-04-18T16:21:00Z</time></trkpt><trkpt lat="37.137147662843674" lon="14.822972359562739"><ele>757.25</ele><time>2026-04-18T16:21:01Z</time></trkpt><trkpt lat="37.13728259050863" lon="14.823018446529549"><ele>757.0</ele><time>2026-04-18T16:21:02Z</time></trkpt><trkpt lat="37.13741676639123" lon="14.823061704976618"><ele>755.5</ele><time>2026-04-18T16:21:03Z</time></trkpt><trkpt lat="37.13754405176022" lon="14.823080020214432"><ele>754.0</ele><time>2026-04-18T16:21:04Z</time></trkpt><trkpt lat="37.13767305109396" lon="14.823080307690772"><ele>752.5</ele><time>2026-04-18T16:21:05Z</time></trkpt><trkpt lat="37.137804260776576" lon="14.823064327433523"><ele>751.0</ele><time>2026-04-18T16:21:06Z</time></trkpt><trkpt lat="37.13791527672329" lon="14.823014260883328"><ele>751.0</ele><time>2026-04-18T16:21:07Z</time></trkpt><trkpt lat="37.13801916463609" lon="14.822962441640366"><ele>751.0</ele><time>2026-04-18T16:21:08Z</time></trkpt><trkpt lat="37.13813693279694" lon="14.822887770919854"><ele>751.0</ele><time>2026-04-18T16:21:09Z</time></trkpt><trkpt lat="37.1382608514757" lon="14.822788791200775"><ele>751.0</ele><time>2026-04-18T16:21:10Z</time></trkpt><trkpt lat="37.138388909788176" lon="14.82266271720222"><ele>746.0</ele><time>2026-04-18T16:21:11Z</time></trkpt><trkpt lat="37.138530202868964" lon="14.822542648210487"><ele>741.0</ele><time>2026-04-18T16:21:12Z</time></trkpt><trkpt lat="37.13865705368645" lon="14.822425424665791"><ele>736.0</ele><time>2026-04-18T16:21:13Z</time></trkpt><trkpt lat="37.13880442356926" lon="14.822342576072026"><ele>736.0</ele><time>2026-04-18T16:21:14Z</time></trkpt><trkpt lat="37.1389497651965" lon="14.82228611289303"><ele>736.0</ele><time>2026-04-18T16:21:15Z</time></trkpt><trkpt lat="37.13909509364181" lon="14.822258548697016"><ele>736.0</ele><time>2026-04-18T16:21:16Z</time></trkpt><trkpt lat="37.13929160986417" lon="14.822262594096319"><ele>737.0</ele><time>2026-04-18T16:21:17Z</time></trkpt><trkpt lat="37.13946464216331" lon="14.822295905391659"><ele>738.0</ele><time>2026-04-18T16:21:18Z</time></trkpt><trkpt lat="37.13961224074279" lon="14.822354105266726"><ele>739.0</ele><time>2026-04-18T16:21:19Z</time></trkpt><trkpt lat="37.139730212906045" lon="14.822441593534542"><ele>739.0</ele><time>2026-04-18T16:21:20Z</time></trkpt><trkpt lat="37.13985750724762" lon="14.822574152004135"><ele>739.0</ele><time>2026-04-18T16:21:21Z</time></trkpt><trkpt lat="37.140002087958976" lon="14.822737363571504"><ele>739.0</ele><time>2026-04-18T16:21:22Z</time></trkpt><trkpt lat="37.14015808034962" lon="14.822911531495595"><ele>739.3333333333334</ele><time>2026-04-18T16:21:23Z</time></trkpt><trkpt lat="37.140319787628314" lon="14.823071100208995"><ele>739.6666666666666</ele><time>2026-04-18T16:21:24Z</time></trkpt><trkpt lat="37.140465657573536" lon="14.823239348545496"><ele>740.0</ele><time>2026-04-18T16:21:25Z</time></trkpt><trkpt lat="37.140608970103095" lon="14.823396408104264"><ele>739.6666666666666</ele><time>2026-04-18T16:21:26Z</time></trkpt><trkpt lat="37.14074257973384" lon="14.82356739852735"><ele>739.3333333333334</ele><time>2026-04-18T16:21:27Z</time></trkpt><trkpt lat="37.14089606332809" lon="14.823712232295922"><ele>739.0</ele><time>2026-04-18T16:21:28Z</time></trkpt><trkpt lat="37.14105810991303" lon="14.823849547443666"><ele>739.0</ele><time>2026-04-18T16:21:29Z</time></trkpt><trkpt lat="37.14121708593352" lon="14.82397891984681"><ele>739.0</ele><time>2026-04-18T16:21:30Z</time></trkpt><trkpt lat="37.14137349338128" lon="14.824103302600834"><ele>739.0</ele><time>2026-04-18T16:21:31Z</time></trkpt><trkpt lat="37.14150693279927" lon="14.824238536912409"><ele>739.0</ele><time>2026-04-18T16:21:32Z</time></trkpt><trkpt lat="37.141630061985545" lon="14.82439302596063"><ele>739.0</ele><time>2026-04-18T16:21:33Z</time></trkpt><trkpt lat="37.141744083834084" lon="14.824559521163263"><ele>739.0</ele><time>2026-04-18T16:21:34Z</time></trkpt><trkpt lat="37.141864990030165" lon="14.824742061806857"><ele>739.0</ele><time>2026-04-18T16:21:35Z</time></trkpt><trkpt lat="37.141991957176366" lon="14.82491524971457"><ele>739.0</ele><time>2026-04-18T16:21:36Z</time></trkpt><trkpt lat="37.14213013301139" lon="14.82507126217543"><ele>739.0</ele><time>2026-04-18T16:21:37Z</time></trkpt><trkpt lat="37.14224418765249" lon="14.825255830973884"><ele>739.6666666666667</ele><time>2026-04-18T16:21:38Z</time></trkpt><trkpt lat="37.14239654182571" lon="14.825389145732576"><ele>740.3333333333334</ele><time>2026-04-18T16:21:39Z</time></trkpt><trkpt lat="37.142554495202674" lon="14.82551551944415"><ele>741.0</ele><time>2026-04-18T16:21:40Z</time></trkpt><trkpt lat="37.142703788437416" lon="14.825612361422912"><ele>741.0</ele><time>2026-04-18T16:21:41Z</time></trkpt><trkpt lat="37.14282127830516" lon="14.825753015538995"><ele>741.0</ele><time>2026-04-18T16:21:42Z</time></trkpt><trkpt lat="37.14291914390401" lon="14.825902926406878"><ele>741.0</ele><time>2026-04-18T16:21:43Z</time></trkpt><trkpt lat="37.14298899150949" lon="14.82608094675306"><ele>745.0</ele><time>2026-04-18T16:21:44Z</time></trkpt><trkpt lat="37.14303894210289" lon="14.826294203213433"><ele>749.0</ele><time>2026-04-18T16:21:45Z</time></trkpt><trkpt lat="37.14308130512454" lon="14.826526111404394"><ele>753.0</ele><time>2026-04-18T16:21:46Z</time></trkpt><trkpt lat="37.1431348173453" lon="14.826757942041873"><ele>755.0</ele><time>2026-04-18T16:21:47Z</time></trkpt><trkpt lat="37.14318021026024" lon="14.82699137057989"><ele>757.0</ele><time>2026-04-18T16:21:48Z</time></trkpt><trkpt lat="37.143235574566454" lon="14.827224767708246"><ele>759.0</ele><time>2026-04-18T16:21:49Z</time></trkpt><trkpt lat="37.14329847997401" lon="14.827443334217044"><ele>757.6666666666666</ele><time>2026-04-18T16:21:50Z</time></trkpt><trkpt lat="37.143364336506416" lon="14.827654070781433"><ele>756.3333333333333</ele><time>2026-04-18T16:21:51Z</time></trkpt><trkpt lat="37.14342841748681" lon="14.827858237063868"><ele>755.0</ele><time>2026-04-18T16:21:52Z</time></trkpt><trkpt lat="37.14348892002315" lon="14.828061633551119"><ele>755.0</ele><time>2026-04-18T16:21:53Z</time></trkpt><trkpt lat="37.143550864389404" lon="14.828264455127476"><ele>755.0</ele><time>2026-04-18T16:21:54Z</time></trkpt><trkpt lat="37.14361330274768" lon="14.828459180600872"><ele>755.0</ele><time>2026-04-18T16:21:55Z</time></trkpt><trkpt lat="37.14366039683446" lon="14.828674787683148"><ele>757.6666666666666</ele><time>2026-04-18T16:21:56Z</time></trkpt><trkpt lat="37.14372381329595" lon="14.828887012565088"><ele>760.3333333333334</ele><time>2026-04-18T16:21:57Z</time></trkpt><trkpt lat="37.14379006509099" lon="14.82910872601934"><ele>763.0</ele><time>2026-04-18T16:21:58Z</time></trkpt><trkpt lat="37.143870249219425" lon="14.82932472443516"><ele>762.3333333333334</ele><time>2026-04-18T16:21:59Z</time></trkpt><trkpt lat="37.14393463281462" lon="14.829551779707844"><ele>761.6666666666666</ele><time>2026-04-18T16:22:00Z</time></trkpt><trkpt lat="37.143995094637745" lon="14.829777520434382"><ele>761.0</ele><time>2026-04-18T16:22:01Z</time></trkpt><trkpt lat="37.144061361141176" lon="14.829989123360798"><ele>763.3333333333333</ele><time>2026-04-18T16:22:02Z</time></trkpt><trkpt lat="37.14414119799877" lon="14.830183033050437"><ele>765.6666666666666</ele><time>2026-04-18T16:22:03Z</time></trkpt><trkpt lat="37.144248697335485" lon="14.830382246410084"><ele>768.0</ele><time>2026-04-18T16:22:04Z</time></trkpt><trkpt lat="37.14437526451367" lon="14.830568289383823"><ele>768.0</ele><time>2026-04-18T16:22:05Z</time></trkpt><trkpt lat="37.14448804554032" lon="14.830769275723974"><ele>768.0</ele><time>2026-04-18T16:22:06Z</time></trkpt><trkpt lat="37.14459614809862" lon="14.830932416272619"><ele>768.0</ele><time>2026-04-18T16:22:07Z</time></trkpt><trkpt lat="37.144694790518756" lon="14.831081280206433"><ele>768.5</ele><time>2026-04-18T16:22:08Z</time></trkpt><trkpt lat="37.14478656143766" lon="14.831219774203774"><ele>769.0</ele><time>2026-04-18T16:22:09Z</time></trkpt><trkpt lat="37.14486892314607" lon="14.831344071638377"><ele>769.5</ele><time>2026-04-18T16:22:10Z</time></trkpt><trkpt lat="37.14494415279726" lon="14.831456228283004"><ele>770.0</ele><time>2026-04-18T16:22:11Z</time></trkpt><trkpt lat="37.145019196070905" lon="14.831544425720324"><ele>770.0000000000001</ele><time>2026-04-18T16:22:12Z</time></trkpt><trkpt lat="37.145076050490594" lon="14.83163170121285"><ele>770.0</ele><time>2026-04-18T16:22:13Z</time></trkpt><trkpt lat="37.145107520176644" lon="14.831718739769242"><ele>770.0</ele><time>2026-04-18T16:22:14Z</time></trkpt><trkpt lat="37.145146923021095" lon="14.831794195076576"><ele>770.0</ele><time>2026-04-18T16:22:15Z</time></trkpt><trkpt lat="37.1451881638805" lon="14.831872889041364"><ele>770.0000000000001</ele><time>2026-04-18T16:22:16Z</time></trkpt><trkpt lat="37.14519191489526" lon="14.831972626829259"><ele>770.0</ele><time>2026-04-18T16:22:17Z</time></trkpt><trkpt lat="37.14521233398142" lon="14.832060603490437"><ele>771.2</ele><time>2026-04-18T16:22:18Z</time></trkpt><trkpt lat="37.14512321162042" lon="14.832141653321393"><ele>772.4</ele><time>2026-04-18T16:22:19Z</time></trkpt><trkpt lat="37.145055398398554" lon="14.83220381253967"><ele>773.5999999999999</ele><time>2026-04-18T16:22:20Z</time></trkpt><trkpt lat="37.14496226024746" lon="14.832248407783215"><ele>774.8</ele><time>2026-04-18T16:22:21Z</time></trkpt><trkpt lat="37.144848530845486" lon="14.832268134567878"><ele>776.0</ele><time>2026-04-18T16:22:22Z</time></trkpt><trkpt lat="37.144724815859995" lon="14.832267315906762"><ele>777.5</ele><time>2026-04-18T16:22:23Z</time></trkpt><trkpt lat="37.14459095228464" lon="14.832250163243357"><ele>779.0</ele><time>2026-04-18T16:22:24Z</time></trkpt><trkpt lat="37.14446250734816" lon="14.832209638999663"><ele>780.5</ele><time>2026-04-18T16:22:25Z</time></trkpt><trkpt lat="37.14434250934276" lon="14.832159414566108"><ele>782.0</ele><time>2026-04-18T16:22:26Z</time></trkpt><trkpt lat="37.14421472503484" lon="14.832116905026748"><ele>782.0</ele><time>2026-04-18T16:22:27Z</time></trkpt><trkpt lat="37.14408861458764" lon="14.832085698093083"><ele>782.0</ele><time>2026-04-18T16:22:28Z</time></trkpt><trkpt lat="37.14398006494656" lon="14.83209227998609"><ele>782.0</ele><time>2026-04-18T16:22:29Z</time></trkpt><trkpt lat="37.14390163863728" lon="14.832164923483019"><ele>782.0</ele><time>2026-04-18T16:22:30Z</time></trkpt><trkpt lat="37.1438317984044" lon="14.83229246914363"><ele>783.0</ele><time>2026-04-18T16:22:31Z</time></trkpt><trkpt lat="37.14376412387166" lon="14.832441403737489"><ele>784.0</ele><time>2026-04-18T16:22:32Z</time></trkpt><trkpt lat="37.14367910021144" lon="14.832598366183806"><ele>785.0</ele><time>2026-04-18T16:22:33Z</time></trkpt><trkpt lat="37.14358044402476" lon="14.832751153294224"><ele>786.0</ele><time>2026-04-18T16:22:34Z</time></trkpt><trkpt lat="37.14347307046587" lon="14.832866886984162"><ele>786.0</ele><time>2026-04-18T16:22:35Z</time></trkpt><trkpt lat="37.14339944604226" lon="14.832994998067035"><ele>786.0</ele><time>2026-04-18T16:22:36Z</time></trkpt><trkpt lat="37.143321306341086" lon="14.833101348928002"><ele>786.0</ele><time>2026-04-18T16:22:37Z</time></trkpt><trkpt lat="37.14324927339347" lon="14.833205830835684"><ele>786.0</ele><time>2026-04-18T16:22:38Z</time></trkpt><trkpt lat="37.14317888495192" lon="14.833325316280336"><ele>788.25</ele><time>2026-04-18T16:22:39Z</time></trkpt><trkpt lat="37.143113069273234" lon="14.833467748243027"><ele>790.5</ele><time>2026-04-18T16:22:40Z</time></trkpt><trkpt lat="37.143055429912245" lon="14.833627646716325"><ele>792.75</ele><time>2026-04-18T16:22:41Z</time></trkpt><trkpt lat="37.143007701959554" lon="14.833803971851486"><ele>795.0</ele><time>2026-04-18T16:22:42Z</time></trkpt><trkpt lat="37.14296446594264" lon="14.833970254130394"><ele>795.0</ele><time>2026-04-18T16:22:43Z</time></trkpt><trkpt lat="37.14290701163266" lon="14.834091764469898"><ele>795.0</ele><time>2026-04-18T16:22:44Z</time></trkpt><trkpt lat="37.14288820788459" lon="14.834200863416362"><ele>795.0</ele><time>2026-04-18T16:22:45Z</time></trkpt><trkpt lat="37.14285731106656" lon="14.834273998225802"><ele>795.0</ele><time>2026-04-18T16:22:46Z</time></trkpt><trkpt lat="37.14281194798049" lon="14.83433659285217"><ele>795.0</ele><time>2026-04-18T16:22:48Z</time></trkpt><trkpt lat="37.14259739806472" lon="14.834336689214137"><ele>795.0</ele><time>2026-04-18T16:22:51Z</time></trkpt><trkpt lat="37.14250102838602" lon="14.834236639377076"><ele>795.0</ele><time>2026-04-18T16:22:53Z</time></trkpt><trkpt lat="37.142471385107456" lon="14.834150092747466"><ele>795.0</ele><time>2026-04-18T16:22:54Z</time></trkpt><trkpt lat="37.14245485550508" lon="14.83403125930316"><ele>795.0</ele><time>2026-04-18T16:22:55Z</time></trkpt><trkpt lat="37.14245976155315" lon="14.833900844257675"><ele>795.0</ele><time>2026-04-18T16:22:56Z</time></trkpt><trkpt lat="37.14247256901731" lon="14.833753217697472"><ele>795.0</ele><time>2026-04-18T16:22:57Z</time></trkpt><trkpt lat="37.14248247159001" lon="14.833595359813676"><ele>795.0</ele><time>2026-04-18T16:22:58Z</time></trkpt><trkpt lat="37.14247834890348" lon="14.833449081316823"><ele>795.0</ele><time>2026-04-18T16:22:59Z</time></trkpt><trkpt lat="37.14246326589735" lon="14.833282992902234"><ele>795.0</ele><time>2026-04-18T16:23:00Z</time></trkpt><trkpt lat="37.142449965704195" lon="14.833087198749588"><ele>795.5</ele><time>2026-04-18T16:23:01Z</time></trkpt><trkpt lat="37.14243200364075" lon="14.832886458984586"><ele>796.0</ele><time>2026-04-18T16:23:02Z</time></trkpt><trkpt lat="37.14241393292661" lon="14.832705979347821"><ele>796.5</ele><time>2026-04-18T16:23:03Z</time></trkpt><trkpt lat="37.14238900547184" lon="14.832537281120297"><ele>797.0</ele><time>2026-04-18T16:23:04Z</time></trkpt><trkpt lat="37.14236459426892" lon="14.832402455117181"><ele>799.4000000000001</ele><time>2026-04-18T16:23:05Z</time></trkpt><trkpt lat="37.14233992641625" lon="14.832302337957604"><ele>801.8000000000001</ele><time>2026-04-18T16:23:06Z</time></trkpt><trkpt lat="37.1423027271437" lon="14.832223573666129"><ele>804.2</ele><time>2026-04-18T16:23:07Z</time></trkpt><trkpt lat="37.14217607215587" lon="14.832147213594565"><ele>806.6</ele><time>2026-04-18T16:23:09Z</time></trkpt><trkpt lat="37.14206056237601" lon="14.832106524346989"><ele>809.0</ele><time>2026-04-18T16:23:10Z</time></trkpt><trkpt lat="37.14191975371201" lon="14.832064362581583"><ele>809.0</ele><time>2026-04-18T16:23:11Z</time></trkpt><trkpt lat="37.1417877213916" lon="14.832013471500959"><ele>809.0</ele><time>2026-04-18T16:23:12Z</time></trkpt><trkpt lat="37.141681750313914" lon="14.831970275788928"><ele>809.0</ele><time>2026-04-18T16:23:13Z</time></trkpt><trkpt lat="37.14154344122331" lon="14.831854149839083"><ele>809.0</ele><time>2026-04-18T16:23:14Z</time></trkpt><trkpt lat="37.14139298017344" lon="14.83177205166004"><ele>811.75</ele><time>2026-04-18T16:23:15Z</time></trkpt><trkpt lat="37.14127308309664" lon="14.831698688972786"><ele>814.5</ele><time>2026-04-18T16:23:16Z</time></trkpt><trkpt lat="37.141175646637485" lon="14.831630164886569"><ele>817.25</ele><time>2026-04-18T16:23:17Z</time></trkpt><trkpt lat="37.14109236924772" lon="14.831564811845372"><ele>820.0</ele><time>2026-04-18T16:23:18Z</time></trkpt><trkpt lat="37.14098125036167" lon="14.831483090778777"><ele>820.0</ele><time>2026-04-18T16:23:19Z</time></trkpt><trkpt lat="37.14083446089057" lon="14.83137624962237"><ele>820.0</ele><time>2026-04-18T16:23:20Z</time></trkpt><trkpt lat="37.14067473381966" lon="14.831255769604757"><ele>820.0</ele><time>2026-04-18T16:23:21Z</time></trkpt><trkpt lat="37.14052332323144" lon="14.831132717794931"><ele>820.0</ele><time>2026-04-18T16:23:22Z</time></trkpt><trkpt lat="37.14036643630323" lon="14.831004040908448"><ele>820.0</ele><time>2026-04-18T16:23:23Z</time></trkpt><trkpt lat="37.14024122368724" lon="14.830900861296332"><ele>820.0</ele><time>2026-04-18T16:23:24Z</time></trkpt><trkpt lat="37.14014297024194" lon="14.830810989652711"><ele>822.0</ele><time>2026-04-18T16:23:25Z</time></trkpt><trkpt lat="37.14003079376417" lon="14.830712722096527"><ele>824.0</ele><time>2026-04-18T16:23:26Z</time></trkpt><trkpt lat="37.139888623255864" lon="14.830588335970623"><ele>826.0</ele><time>2026-04-18T16:23:27Z</time></trkpt><trkpt lat="37.13976788426412" lon="14.830478354477714"><ele>826.0</ele><time>2026-04-18T16:23:28Z</time></trkpt><trkpt lat="37.139688847825155" lon="14.830396448040295"><ele>826.0</ele><time>2026-04-18T16:23:29Z</time></trkpt><trkpt lat="37.13962526413467" lon="14.830296411556839"><ele>826.0</ele><time>2026-04-18T16:23:30Z</time></trkpt><trkpt lat="37.13957907030604" lon="14.830190499374492"><ele>826.0</ele><time>2026-04-18T16:23:31Z</time></trkpt><trkpt lat="37.13951699940423" lon="14.83008145288231"><ele>826.0</ele><time>2026-04-18T16:23:32Z</time></trkpt><trkpt lat="37.13944123928342" lon="14.829974740069737"><ele>829.0</ele><time>2026-04-18T16:23:33Z</time></trkpt><trkpt lat="37.139324382048194" lon="14.829898488763236"><ele>832.0</ele><time>2026-04-18T16:23:34Z</time></trkpt><trkpt lat="37.13918948312157" lon="14.829817480747423"><ele>835.0</ele><time>2026-04-18T16:23:35Z</time></trkpt><trkpt lat="37.1390228386809" lon="14.82969634726831"><ele>835.0</ele><time>2026-04-18T16:23:36Z</time></trkpt><trkpt lat="37.13886009534947" lon="14.829541083626367"><ele>835.0</ele><time>2026-04-18T16:23:37Z</time></trkpt><trkpt lat="37.13869888012648" lon="14.829371748886949"><ele>835.0</ele><time>2026-04-18T16:23:38Z</time></trkpt><trkpt lat="37.13854051868017" lon="14.829212324528308"><ele>840.6666666666666</ele><time>2026-04-18T16:23:39Z</time></trkpt><trkpt lat="37.13839586058711" lon="14.82907160623911"><ele>846.3333333333333</ele><time>2026-04-18T16:23:40Z</time></trkpt><trkpt lat="37.13826508381373" lon="14.828954980134494"><ele>852.0</ele><time>2026-04-18T16:23:41Z</time></trkpt><trkpt lat="37.13812652383002" lon="14.82884927234602"><ele>852.0</ele><time>2026-04-18T16:23:42Z</time></trkpt><trkpt lat="37.13799351368422" lon="14.828763033309224"><ele>852.0</ele><time>2026-04-18T16:23:43Z</time></trkpt><trkpt lat="37.13788220559905" lon="14.828714198690095"><ele>852.0</ele><time>2026-04-18T16:23:44Z</time></trkpt><trkpt lat="37.13778134912155" lon="14.828693786053242"><ele>852.0</ele><time>2026-04-18T16:23:45Z</time></trkpt><trkpt lat="37.137699164734386" lon="14.828696289859163"><ele>852.0</ele><time>2026-04-18T16:23:46Z</time></trkpt><trkpt lat="37.13760788865362" lon="14.828716526031474"><ele>852.0</ele><time>2026-04-18T16:23:47Z</time></trkpt><trkpt lat="37.137498444378664" lon="14.828761615505893"><ele>852.0</ele><time>2026-04-18T16:23:48Z</time></trkpt><trkpt lat="37.137355324598325" lon="14.828808313145029"><ele>852.0</ele><time>2026-04-18T16:23:49Z</time></trkpt><trkpt lat="37.13723259536789" lon="14.828836968589723"><ele>851.6</ele><time>2026-04-18T16:23:50Z</time></trkpt><trkpt lat="37.13715068379004" lon="14.82885136128499"><ele>851.2</ele><time>2026-04-18T16:23:51Z</time></trkpt><trkpt lat="37.13708583676065" lon="14.828866650263244"><ele>850.8</ele><time>2026-04-18T16:23:52Z</time></trkpt><trkpt lat="37.1369733116534" lon="14.828888803791285"><ele>850.4</ele><time>2026-04-18T16:23:53Z</time></trkpt><trkpt lat="37.13684277745081" lon="14.828911348872897"><ele>850.0</ele><time>2026-04-18T16:23:54Z</time></trkpt><trkpt lat="37.13672307325103" lon="14.828925438531916"><ele>850.0</ele><time>2026-04-18T16:23:55Z</time></trkpt><trkpt lat="37.13659555319769" lon="14.828943987858612"><ele>850.0</ele><time>2026-04-18T16:23:56Z</time></trkpt><trkpt lat="37.13644847422118" lon="14.828939269361811"><ele>850.0</ele><time>2026-04-18T16:23:57Z</time></trkpt><trkpt lat="37.13630849572801" lon="14.828942988282245"><ele>850.0</ele><time>2026-04-18T16:23:58Z</time></trkpt><trkpt lat="37.136190777740445" lon="14.828941473925699"><ele>849.75</ele><time>2026-04-18T16:23:59Z</time></trkpt><trkpt lat="37.136070653561994" lon="14.828932131834584"><ele>849.5</ele><time>2026-04-18T16:24:00Z</time></trkpt><trkpt lat="37.13593552537709" lon="14.82892121225158"><ele>849.25</ele><time>2026-04-18T16:24:01Z</time></trkpt><trkpt lat="37.13579092622263" lon="14.828906455291008"><ele>849.0</ele><time>2026-04-18T16:24:02Z</time></trkpt><trkpt lat="37.13564699058154" lon="14.828889162941218"><ele>848.25</ele><time>2026-04-18T16:24:03Z</time></trkpt><trkpt lat="37.13551320678948" lon="14.828866974443164"><ele>847.5</ele><time>2026-04-18T16:24:04Z</time></trkpt><trkpt lat="37.135437071189074" lon="14.828801086966928"><ele>846.75</ele><time>2026-04-18T16:24:05Z</time></trkpt><trkpt lat="37.13531596149411" lon="14.828728481943433"><ele>846.0</ele><time>2026-04-18T16:24:06Z</time></trkpt><trkpt lat="37.13516412394572" lon="14.82863653150918"><ele>846.0</ele><time>2026-04-18T16:24:07Z</time></trkpt><trkpt lat="37.13504920250176" lon="14.828560603878255"><ele>846.0</ele><time>2026-04-18T16:24:08Z</time></trkpt><trkpt lat="37.134950778492914" lon="14.828500328269813"><ele>846.0</ele><time>2026-04-18T16:24:09Z</time></trkpt><trkpt lat="37.13484692465333" lon="14.828419392204761"><ele>846.0</ele><time>2026-04-18T16:24:10Z</time></trkpt><trkpt lat="37.13475332291273" lon="14.828321114638944"><ele>848.3333333333334</ele><time>2026-04-18T16:24:11Z</time></trkpt><trkpt lat="37.13469358197239" lon="14.828239713116334"><ele>850.6666666666667</ele><time>2026-04-18T16:24:12Z</time></trkpt><trkpt lat="37.134673452613654" lon="14.828137564649852"><ele>853.0</ele><time>2026-04-18T16:24:14Z</time></trkpt><trkpt lat="37.134630685257044" lon="14.828076167445037"><ele>855.3333333333334</ele><time>2026-04-18T16:24:44Z</time></trkpt><trkpt lat="37.13454543369393" lon="14.828020622625065"><ele>857.6666666666667</ele><time>2026-04-18T16:24:46Z</time></trkpt><trkpt lat="37.13448451213961" lon="14.827983006696023"><ele>860.0</ele><time>2026-04-18T16:24:47Z</time></trkpt><trkpt lat="37.13442083955144" lon="14.827944718537688"><ele>860.0</ele><time>2026-04-18T16:24:48Z</time></trkpt><trkpt lat="37.13434826087438" lon="14.827910079197721"><ele>860.0</ele><time>2026-04-18T16:24:49Z</time></trkpt><trkpt lat="37.13424807294316" lon="14.827880434491403"><ele>860.0</ele><time>2026-04-18T16:24:50Z</time></trkpt><trkpt lat="37.1341273567441" lon="14.82784510996157"><ele>860.0</ele><time>2026-04-18T16:24:51Z</time></trkpt><trkpt lat="37.13400835339058" lon="14.827806182738156"><ele>860.0</ele><time>2026-04-18T16:24:52Z</time></trkpt><trkpt lat="37.13390572223764" lon="14.82775310521299"><ele>861.5</ele><time>2026-04-18T16:24:53Z</time></trkpt><trkpt lat="37.13379824174046" lon="14.827686079225755"><ele>863.0</ele><time>2026-04-18T16:24:54Z</time></trkpt><trkpt lat="37.133701857319245" lon="14.827623316844017"><ele>864.5</ele><time>2026-04-18T16:24:55Z</time></trkpt><trkpt lat="37.13359485576949" lon="14.827591858513214"><ele>866.0</ele><time>2026-04-18T16:24:56Z</time></trkpt><trkpt lat="37.13348380131168" lon="14.82757661511366"><ele>868.8</ele><time>2026-04-18T16:24:57Z</time></trkpt><trkpt lat="37.13337250370991" lon="14.827581386718423"><ele>871.5999999999999</ele><time>2026-04-18T16:24:58Z</time></trkpt><trkpt lat="37.13327798919926" lon="14.827582655540455"><ele>874.4</ele><time>2026-04-18T16:24:59Z</time></trkpt><trkpt lat="37.1331972414346" lon="14.827584554377141"><ele>877.2</ele><time>2026-04-18T16:25:00Z</time></trkpt><trkpt lat="37.1330835795179" lon="14.827523141530667"><ele>880.0</ele><time>2026-04-18T16:25:02Z</time></trkpt><trkpt lat="37.13303947212594" lon="14.827466013118388"><ele>882.3333333333333</ele><time>2026-04-18T16:25:03Z</time></trkpt><trkpt lat="37.133017411497036" lon="14.827385559883378"><ele>884.6666666666666</ele><time>2026-04-18T16:25:04Z</time></trkpt><trkpt lat="37.132994422414896" lon="14.827285880878621"><ele>887.0</ele><time>2026-04-18T16:25:05Z</time></trkpt><trkpt lat="37.13299230100994" lon="14.827201701696811"><ele>889.3333333333333</ele><time>2026-04-18T16:25:06Z</time></trkpt><trkpt lat="37.13306826617583" lon="14.827182712447613"><ele>891.6666666666666</ele><time>2026-04-18T16:25:09Z</time></trkpt><trkpt lat="37.133121811403576" lon="14.827232658136639"><ele>894.0</ele><time>2026-04-18T16:25:11Z</time></trkpt><trkpt lat="37.13313692518596" lon="14.827352038715079"><ele>894.0</ele><time>2026-04-18T16:25:13Z</time></trkpt><trkpt lat="37.133176201687334" lon="14.82728255987036"><ele>894.0</ele><time>2026-04-18T16:25:19Z</time></trkpt><trkpt lat="37.13310166289694" lon="14.827233833788018"><ele>894.0</ele><time>2026-04-18T16:34:09Z</time></trkpt><trkpt lat="37.13318272862018" lon="14.827289751155002"><ele>894.0</ele><time>2026-04-18T16:55:52Z</time></trkpt><trkpt lat="37.13311958245985" lon="14.827329739904116"><ele>894.0</ele><time>2026-04-18T16:55:55Z</time></trkpt><trkpt lat="37.13306140371132" lon="14.827366405356527"><ele>894.0</ele><time>2026-04-18T16:55:57Z</time></trkpt><trkpt lat="37.13306126242655" lon="14.827469896344624"><ele>894.0</ele><time>2026-04-18T16:56:01Z</time></trkpt><trkpt lat="37.133137953107315" lon="14.827564350116788"><ele>894.0000000000001</ele><time>2026-04-18T16:56:03Z</time></trkpt><trkpt lat="37.13324040076425" lon="14.82759952649617"><ele>894.0000000000001</ele><time>2026-04-18T16:56:05Z</time></trkpt><trkpt lat="37.13335778883715" lon="14.827602840146731"><ele>894.0</ele><time>2026-04-18T16:56:07Z</time></trkpt><trkpt lat="37.13347508584441" lon="14.827605492411738"><ele>894.0</ele><time>2026-04-18T16:56:09Z</time></trkpt><trkpt lat="37.13354089214187" lon="14.827602789550024"><ele>891.2</ele><time>2026-04-18T16:56:10Z</time></trkpt><trkpt lat="37.133607755054214" lon="14.827606576887804"><ele>888.4000000000001</ele><time>2026-04-18T16:56:11Z</time></trkpt><trkpt lat="37.13367125056392" lon="14.82760911017405"><ele>885.6</ele><time>2026-04-18T16:56:12Z</time></trkpt><trkpt lat="37.133746606576445" lon="14.827622445718596"><ele>882.8</ele><time>2026-04-18T16:56:13Z</time></trkpt><trkpt lat="37.13388584585856" lon="14.82770431952445"><ele>880.0</ele><time>2026-04-18T16:56:15Z</time></trkpt><trkpt lat="37.133979746644826" lon="14.82775688003343"><ele>876.0</ele><time>2026-04-18T16:56:16Z</time></trkpt><trkpt lat="37.13406976955464" lon="14.8278099617787"><ele>872.0</ele><time>2026-04-18T16:56:17Z</time></trkpt><trkpt lat="37.13420530719976" lon="14.827859631696013"><ele>868.0</ele><time>2026-04-18T16:56:19Z</time></trkpt><trkpt lat="37.13430184077092" lon="14.827879280101007"><ele>864.0</ele><time>2026-04-18T16:56:20Z</time></trkpt><trkpt lat="37.13438801776335" lon="14.827907893070039"><ele>860.0</ele><time>2026-04-18T16:56:21Z</time></trkpt><trkpt lat="37.13445968699459" lon="14.82793842491059"><ele>860.0000000000001</ele><time>2026-04-18T16:56:22Z</time></trkpt><trkpt lat="37.13452353981775" lon="14.827973369378709"><ele>860.0</ele><time>2026-04-18T16:56:23Z</time></trkpt><trkpt lat="37.134619265162186" lon="14.828060939875552"><ele>860.0</ele><time>2026-04-18T16:56:25Z</time></trkpt><trkpt lat="37.13467690504758" lon="14.828130887768646"><ele>860.0</ele><time>2026-04-18T16:56:28Z</time></trkpt><trkpt lat="37.134706817447714" lon="14.82821912772513"><ele>860.0000000000001</ele><time>2026-04-18T16:57:00Z</time></trkpt><trkpt lat="37.13474705822302" lon="14.828306378178997"><ele>860.0</ele><time>2026-04-18T16:57:02Z</time></trkpt><trkpt lat="37.13481108548269" lon="14.828375183611914"><ele>860.0</ele><time>2026-04-18T16:57:04Z</time></trkpt><trkpt lat="37.134867412498004" lon="14.828428612091889"><ele>860.0</ele><time>2026-04-18T16:57:05Z</time></trkpt><trkpt lat="37.1349299677198" lon="14.828482378065074"><ele>860.0</ele><time>2026-04-18T16:57:06Z</time></trkpt><trkpt lat="37.13501202831188" lon="14.828538253834003"><ele>860.0</ele><time>2026-04-18T16:57:07Z</time></trkpt><trkpt lat="37.13510573298625" lon="14.828597686501189"><ele>860.0</ele><time>2026-04-18T16:57:08Z</time></trkpt><trkpt lat="37.13522261738899" lon="14.82866994505168"><ele>857.8</ele><time>2026-04-18T16:57:09Z</time></trkpt><trkpt lat="37.13534253894269" lon="14.828735667556165"><ele>855.6</ele><time>2026-04-18T16:57:10Z</time></trkpt><trkpt lat="37.13543688246368" lon="14.828782600724052"><ele>853.4000000000001</ele><time>2026-04-18T16:57:11Z</time></trkpt><trkpt lat="37.135537728592986" lon="14.828835360596393"><ele>851.2</ele><time>2026-04-18T16:57:12Z</time></trkpt><trkpt lat="37.13564020923616" lon="14.828872373174566"><ele>849.0</ele><time>2026-04-18T16:57:13Z</time></trkpt><trkpt lat="37.13575132112691" lon="14.828899004029363"><ele>849.0</ele><time>2026-04-18T16:57:14Z</time></trkpt><trkpt lat="37.13590243415123" lon="14.82891492042547"><ele>849.0</ele><time>2026-04-18T16:57:15Z</time></trkpt><trkpt lat="37.136061610017556" lon="14.82892169142751"><ele>849.0</ele><time>2026-04-18T16:57:16Z</time></trkpt><trkpt lat="37.13620602853435" lon="14.828924177106984"><ele>849.0</ele><time>2026-04-18T16:57:17Z</time></trkpt><trkpt lat="37.13634543019173" lon="14.828938139578323"><ele>849.0</ele><time>2026-04-18T16:57:18Z</time></trkpt><trkpt lat="37.1364793831194" lon="14.828928927029914"><ele>849.0</ele><time>2026-04-18T16:57:19Z</time></trkpt><trkpt lat="37.13663131967297" lon="14.828920436617226"><ele>849.0</ele><time>2026-04-18T16:57:20Z</time></trkpt><trkpt lat="37.136770159375494" lon="14.828913424421405"><ele>849.25</ele><time>2026-04-18T16:57:21Z</time></trkpt><trkpt lat="37.136903995155166" lon="14.828894103031288"><ele>849.5</ele><time>2026-04-18T16:57:22Z</time></trkpt><trkpt lat="37.1370507941328" lon="14.828866244656437"><ele>849.75</ele><time>2026-04-18T16:57:23Z</time></trkpt><trkpt lat="37.13717697956735" lon="14.828838246780187"><ele>850.0</ele><time>2026-04-18T16:57:24Z</time></trkpt><trkpt lat="37.137281058422964" lon="14.82881251957847"><ele>850.4</ele><time>2026-04-18T16:57:25Z</time></trkpt><trkpt lat="37.13741041647388" lon="14.828779710874349"><ele>850.8</ele><time>2026-04-18T16:57:26Z</time></trkpt><trkpt lat="37.13752358827078" lon="14.82875731371773"><ele>851.2</ele><time>2026-04-18T16:57:27Z</time></trkpt><trkpt lat="37.137615755216785" lon="14.82873326361162"><ele>851.6</ele><time>2026-04-18T16:57:28Z</time></trkpt><trkpt lat="37.137706467521134" lon="14.828709553646336"><ele>852.0</ele><time>2026-04-18T16:57:29Z</time></trkpt><trkpt lat="37.137788482187204" lon="14.828696042329671"><ele>852.0</ele><time>2026-04-18T16:57:30Z</time></trkpt><trkpt lat="37.137883759576106" lon="14.828700828031213"><ele>852.0</ele><time>2026-04-18T16:57:31Z</time></trkpt><trkpt lat="37.13796486611803" lon="14.828725139683046"><ele>852.0</ele><time>2026-04-18T16:57:32Z</time></trkpt><trkpt lat="37.13803753508745" lon="14.828773816572223"><ele>852.0</ele><time>2026-04-18T16:57:33Z</time></trkpt><trkpt lat="37.13812692657615" lon="14.828838203749344"><ele>852.0</ele><time>2026-04-18T16:57:34Z</time></trkpt><trkpt lat="37.13825672414599" lon="14.828935135730264"><ele>852.3333333333333</ele><time>2026-04-18T16:57:35Z</time></trkpt><trkpt lat="37.13839160455006" lon="14.829054182174557"><ele>852.6666666666666</ele><time>2026-04-18T16:57:36Z</time></trkpt><trkpt lat="37.138526551409676" lon="14.829181597918161"><ele>853.0</ele><time>2026-04-18T16:57:37Z</time></trkpt><trkpt lat="37.13863975170952" lon="14.829291616977487"><ele>848.5</ele><time>2026-04-18T16:57:38Z</time></trkpt><trkpt lat="37.138749309459655" lon="14.829399031974141"><ele>844.0</ele><time>2026-04-18T16:57:39Z</time></trkpt><trkpt lat="37.13884986217198" lon="14.829505004168853"><ele>839.5</ele><time>2026-04-18T16:57:40Z</time></trkpt><trkpt lat="37.13894057299921" lon="14.829590885503999"><ele>835.0</ele><time>2026-04-18T16:57:41Z</time></trkpt><trkpt lat="37.13902660173234" lon="14.82967948916291"><ele>836.75</ele><time>2026-04-18T16:57:42Z</time></trkpt><trkpt lat="37.13910626767711" lon="14.829759691395033"><ele>838.5</ele><time>2026-04-18T16:57:43Z</time></trkpt><trkpt lat="37.139182351106655" lon="14.829827002091825"><ele>840.25</ele><time>2026-04-18T16:57:44Z</time></trkpt><trkpt lat="37.1392969063696" lon="14.829912122232065"><ele>842.0</ele><time>2026-04-18T16:57:45Z</time></trkpt><trkpt lat="37.139415101503836" lon="14.829989592221885"><ele>842.0</ele><time>2026-04-18T16:57:46Z</time></trkpt><trkpt lat="37.139500097764476" lon="14.830052057671079"><ele>842.0</ele><time>2026-04-18T16:57:47Z</time></trkpt><trkpt lat="37.13955614066422" lon="14.830116814466157"><ele>842.0</ele><time>2026-04-18T16:57:48Z</time></trkpt><trkpt lat="37.13963991771124" lon="14.830264336254691"><ele>842.0</ele><time>2026-04-18T16:57:50Z</time></trkpt><trkpt lat="37.13968118111875" lon="14.830351044134042"><ele>842.0</ele><time>2026-04-18T16:57:51Z</time></trkpt><trkpt lat="37.139731330926494" lon="14.830429128458276"><ele>839.8</ele><time>2026-04-18T16:57:52Z</time></trkpt><trkpt lat="37.13978592020255" lon="14.830481769427301"><ele>837.6</ele><time>2026-04-18T16:57:53Z</time></trkpt><trkpt lat="37.13988353478061" lon="14.830580058564495"><ele>835.4</ele><time>2026-04-18T16:57:55Z</time></trkpt><trkpt lat="37.13998701250661" lon="14.830640068191963"><ele>833.1999999999999</ele><time>2026-04-18T16:57:56Z</time></trkpt><trkpt lat="37.140060973085184" lon="14.830712793368294"><ele>831.0</ele><time>2026-04-18T16:57:57Z</time></trkpt><trkpt lat="37.14013269710957" lon="14.830775217966314"><ele>831.0</ele><time>2026-04-18T16:57:58Z</time></trkpt><trkpt lat="37.140195398295404" lon="14.830840649093105"><ele>831.0</ele><time>2026-04-18T16:57:59Z</time></trkpt><trkpt lat="37.14027915977357" lon="14.830922174585277"><ele>831.0</ele><time>2026-04-18T16:58:00Z</time></trkpt><trkpt lat="37.14036675200327" lon="14.830981859684034"><ele>831.0</ele><time>2026-04-18T16:58:01Z</time></trkpt><trkpt lat="37.140449645992184" lon="14.831041835217995"><ele>831.0</ele><time>2026-04-18T16:58:02Z</time></trkpt><trkpt lat="37.14052536987026" lon="14.831107466270758"><ele>829.1666666666666</ele><time>2026-04-18T16:58:03Z</time></trkpt><trkpt lat="37.140607318605426" lon="14.831178966651718"><ele>827.3333333333333</ele><time>2026-04-18T16:58:04Z</time></trkpt><trkpt lat="37.140685115323905" lon="14.831250507397833"><ele>825.5</ele><time>2026-04-18T16:58:05Z</time></trkpt><trkpt lat="37.140750142561366" lon="14.831305225469587"><ele>823.6666666666666</ele><time>2026-04-18T16:58:06Z</time></trkpt><trkpt lat="37.140827862780334" lon="14.831347053242656"><ele>821.8333333333333</ele><time>2026-04-18T16:58:07Z</time></trkpt><trkpt lat="37.14089911469846" lon="14.831403783930215"><ele>820.0</ele><time>2026-04-18T16:58:08Z</time></trkpt><trkpt lat="37.14096297744374" lon="14.831462913215686"><ele>820.0</ele><time>2026-04-18T16:58:09Z</time></trkpt><trkpt lat="37.14104240247996" lon="14.831524612708293"><ele>820.0</ele><time>2026-04-18T16:58:10Z</time></trkpt><trkpt lat="37.14112681589371" lon="14.831577831074085"><ele>820.0</ele><time>2026-04-18T16:58:11Z</time></trkpt><trkpt lat="37.14119222167884" lon="14.831627650310681"><ele>820.0</ele><time>2026-04-18T16:58:12Z</time></trkpt><trkpt lat="37.14126430270047" lon="14.831678808698008"><ele>820.0</ele><time>2026-04-18T16:58:13Z</time></trkpt><trkpt lat="37.141362297124104" lon="14.83171857130338"><ele>820.0</ele><time>2026-04-18T16:58:14Z</time></trkpt><trkpt lat="37.141463554970805" lon="14.831781274851421"><ele>820.0</ele><time>2026-04-18T16:58:15Z</time></trkpt><trkpt lat="37.14155971966411" lon="14.831831020340974"><ele>820.0</ele><time>2026-04-18T16:58:16Z</time></trkpt><trkpt lat="37.14165507320433" lon="14.831882953577354"><ele>820.0</ele><time>2026-04-18T16:58:17Z</time></trkpt><trkpt lat="37.14174293941771" lon="14.831945523100513"><ele>820.0</ele><time>2026-04-18T16:58:18Z</time></trkpt><trkpt lat="37.141856515688495" lon="14.832003426507985"><ele>817.8</ele><time>2026-04-18T16:58:19Z</time></trkpt><trkpt lat="37.14197513506405" lon="14.832062700352443"><ele>815.6</ele><time>2026-04-18T16:58:20Z</time></trkpt><trkpt lat="37.142082200779384" lon="14.832111803676018"><ele>813.4000000000001</ele><time>2026-04-18T16:58:21Z</time></trkpt><trkpt lat="37.14217252740247" lon="14.832154822693637"><ele>811.2</ele><time>2026-04-18T16:58:22Z</time></trkpt><trkpt lat="37.14224600457496" lon="14.832199375206507"><ele>809.0</ele><time>2026-04-18T16:58:23Z</time></trkpt><trkpt lat="37.14231047646262" lon="14.832243410105102"><ele>806.8000000000001</ele><time>2026-04-18T16:58:24Z</time></trkpt><trkpt lat="37.142405674460335" lon="14.832167869301252"><ele>804.6</ele><time>2026-04-18T16:58:25Z</time></trkpt><trkpt lat="37.14247457234288" lon="14.832242416924677"><ele>802.4</ele><time>2026-04-18T16:58:27Z</time></trkpt><trkpt lat="37.14257775486445" lon="14.83229209811809"><ele>800.2</ele><time>2026-04-18T16:58:29Z</time></trkpt><trkpt lat="37.142670290006166" lon="14.832394222716388"><ele>798.0</ele><time>2026-04-18T16:58:30Z</time></trkpt><trkpt lat="37.14242051094803" lon="14.832958447621658"><ele>797.75</ele><time>2026-04-18T16:58:31Z</time></trkpt><trkpt lat="37.1424369513891" lon="14.833119155221327"><ele>797.5</ele><time>2026-04-18T16:58:32Z</time></trkpt><trkpt lat="37.14244463586742" lon="14.833277597491461"><ele>797.25</ele><time>2026-04-18T16:58:33Z</time></trkpt><trkpt lat="37.14245603228714" lon="14.833415447308752"><ele>797.0</ele><time>2026-04-18T16:58:34Z</time></trkpt><trkpt lat="37.14246365558325" lon="14.83355003822533"><ele>796.6</ele><time>2026-04-18T16:58:35Z</time></trkpt><trkpt lat="37.142465481173176" lon="14.833672788713876"><ele>796.2</ele><time>2026-04-18T16:58:36Z</time></trkpt><trkpt lat="37.142466377822004" lon="14.833808376802352"><ele>795.8</ele><time>2026-04-18T16:58:37Z</time></trkpt><trkpt lat="37.142464939357545" lon="14.83392590031362"><ele>795.4</ele><time>2026-04-18T16:58:38Z</time></trkpt><trkpt lat="37.14245987691715" lon="14.834022293143885"><ele>795.0</ele><time>2026-04-18T16:58:39Z</time></trkpt><trkpt lat="37.14246569690403" lon="14.834126576557825"><ele>795.0</ele><time>2026-04-18T16:58:40Z</time></trkpt><trkpt lat="37.14249329615159" lon="14.83422765366111"><ele>795.0</ele><time>2026-04-18T16:58:41Z</time></trkpt><trkpt lat="37.142543594208895" lon="14.83430216547672"><ele>795.0</ele><time>2026-04-18T16:58:42Z</time></trkpt><trkpt lat="37.142607025207425" lon="14.83434655238195"><ele>795.0</ele><time>2026-04-18T16:58:43Z</time></trkpt><trkpt lat="37.142717611951205" lon="14.834340902848153"><ele>795.0</ele><time>2026-04-18T16:58:45Z</time></trkpt><trkpt lat="37.14279376873823" lon="14.834300990381408"><ele>795.0</ele><time>2026-04-18T16:58:47Z</time></trkpt><trkpt lat="37.142881799087725" lon="14.834204535325625"><ele>795.0</ele><time>2026-04-18T16:58:49Z</time></trkpt><trkpt lat="37.142921040187794" lon="14.834115448927834"><ele>795.0</ele><time>2026-04-18T16:58:50Z</time></trkpt><trkpt lat="37.14295202268568" lon="14.833998039765776"><ele>795.0</ele><time>2026-04-18T16:58:51Z</time></trkpt><trkpt lat="37.14299120632999" lon="14.8338625982515"><ele>795.0</ele><time>2026-04-18T16:58:52Z</time></trkpt><trkpt lat="37.14304103664429" lon="14.83373334006082"><ele>795.0</ele><time>2026-04-18T16:58:53Z</time></trkpt><trkpt lat="37.14308355267232" lon="14.833614215831279"><ele>795.0</ele><time>2026-04-18T16:58:54Z</time></trkpt><trkpt lat="37.14311986222856" lon="14.83350283069394"><ele>795.0</ele><time>2026-04-18T16:58:55Z</time></trkpt><trkpt lat="37.14315751013968" lon="14.833398430520432"><ele>795.0</ele><time>2026-04-18T16:58:56Z</time></trkpt><trkpt lat="37.14321583456012" lon="14.833307972390184"><ele>795.0</ele><time>2026-04-18T16:58:57Z</time></trkpt><trkpt lat="37.14326914270033" lon="14.833216600088692"><ele>795.0</ele><time>2026-04-18T16:58:58Z</time></trkpt><trkpt lat="37.14332803939127" lon="14.833125701226955"><ele>795.4</ele><time>2026-04-18T16:58:59Z</time></trkpt><trkpt lat="37.14338667303772" lon="14.833044593969133"><ele>795.8</ele><time>2026-04-18T16:59:00Z</time></trkpt><trkpt lat="37.14343075909657" lon="14.832985562674187"><ele>796.2</ele><time>2026-04-18T16:59:01Z</time></trkpt><trkpt lat="37.143367579235196" lon="14.832835961958338"><ele>796.6</ele><time>2026-04-18T16:59:03Z</time></trkpt><trkpt lat="37.14327101127936" lon="14.832736990296953"><ele>797.0</ele><time>2026-04-18T16:59:05Z</time></trkpt><trkpt lat="37.14320347208963" lon="14.832685710120787"><ele>797.25</ele><time>2026-04-18T16:59:06Z</time></trkpt><trkpt lat="37.14311923267619" lon="14.832615077753562"><ele>797.5</ele><time>2026-04-18T16:59:07Z</time></trkpt><trkpt lat="37.14303204386887" lon="14.832531032890067"><ele>797.75</ele><time>2026-04-18T16:59:08Z</time></trkpt><trkpt lat="37.14294019447012" lon="14.832431866961514"><ele>798.0</ele><time>2026-04-18T16:59:09Z</time></trkpt><trkpt lat="37.14281577767802" lon="14.83231240351803"><ele>798.0</ele><time>2026-04-18T16:59:10Z</time></trkpt><trkpt lat="37.1426954820793" lon="14.83219837025217"><ele>798.0</ele><time>2026-04-18T16:59:11Z</time></trkpt><trkpt lat="37.14260338021729" lon="14.832127689772655"><ele>798.0</ele><time>2026-04-18T16:59:12Z</time></trkpt><trkpt lat="37.14250454511912" lon="14.832063816477046"><ele>798.0</ele><time>2026-04-18T16:59:13Z</time></trkpt><trkpt lat="37.14241156617217" lon="14.831971184952684"><ele>801.6666666666667</ele><time>2026-04-18T16:59:14Z</time></trkpt><trkpt lat="37.14234080676558" lon="14.831843363372355"><ele>805.3333333333334</ele><time>2026-04-18T16:59:15Z</time></trkpt><trkpt lat="37.142261462712284" lon="14.83168817247347"><ele>809.0</ele><time>2026-04-18T16:59:16Z</time></trkpt><trkpt lat="37.14215559620354" lon="14.831503089248386"><ele>810.0</ele><time>2026-04-18T16:59:17Z</time></trkpt><trkpt lat="37.14201758679377" lon="14.831268650948168"><ele>811.0</ele><time>2026-04-18T16:59:18Z</time></trkpt><trkpt lat="37.1418620301505" lon="14.831005162755062"><ele>810.5</ele><time>2026-04-18T16:59:19Z</time></trkpt><trkpt lat="37.1417003101268" lon="14.830716121944002"><ele>810.0</ele><time>2026-04-18T16:59:20Z</time></trkpt><trkpt lat="37.14154901584601" lon="14.830452526537304"><ele>816.5</ele><time>2026-04-18T16:59:21Z</time></trkpt><trkpt lat="37.141400867423485" lon="14.830194119345188"><ele>823.0</ele><time>2026-04-18T16:59:22Z</time></trkpt><trkpt lat="37.14126920278823" lon="14.829959083141512"><ele>823.0</ele><time>2026-04-18T16:59:23Z</time></trkpt><trkpt lat="37.141151568315784" lon="14.829749702259639"><ele>823.0</ele><time>2026-04-18T16:59:24Z</time></trkpt><trkpt lat="37.14104347325801" lon="14.829567907043652"><ele>823.0</ele><time>2026-04-18T16:59:25Z</time></trkpt><trkpt lat="37.140927394609776" lon="14.829394952891077"><ele>822.0</ele><time>2026-04-18T16:59:26Z</time></trkpt><trkpt lat="37.140799637837944" lon="14.829229650769243"><ele>821.0</ele><time>2026-04-18T16:59:27Z</time></trkpt><trkpt lat="37.140661785989565" lon="14.829073957315636"><ele>820.0</ele><time>2026-04-18T16:59:28Z</time></trkpt><trkpt lat="37.140520830698414" lon="14.82892528955894"><ele>826.6666666666666</ele><time>2026-04-18T16:59:29Z</time></trkpt><trkpt lat="37.1403714197056" lon="14.828781328692088"><ele>833.3333333333333</ele><time>2026-04-18T16:59:30Z</time></trkpt><trkpt lat="37.14021646703347" lon="14.828652217837247"><ele>840.0</ele><time>2026-04-18T16:59:31Z</time></trkpt><trkpt lat="37.14005675136816" lon="14.828530575668738"><ele>839.0</ele><time>2026-04-18T16:59:32Z</time></trkpt><trkpt lat="37.13989396766756" lon="14.828405128326267"><ele>838.0</ele><time>2026-04-18T16:59:33Z</time></trkpt><trkpt lat="37.13973362414964" lon="14.828285350250228"><ele>837.0</ele><time>2026-04-18T16:59:34Z</time></trkpt><trkpt lat="37.139493347583716" lon="14.828172833652467"><ele>837.0</ele><time>2026-04-18T16:59:35Z</time></trkpt><trkpt lat="37.13927804101502" lon="14.828102484317156"><ele>837.0</ele><time>2026-04-18T16:59:36Z</time></trkpt><trkpt lat="37.139018464844455" lon="14.82802171433338"><ele>839.5</ele><time>2026-04-18T16:59:37Z</time></trkpt><trkpt lat="37.13877722773409" lon="14.828001689593853"><ele>842.0</ele><time>2026-04-18T16:59:38Z</time></trkpt><trkpt lat="37.13854692298357" lon="14.82795442915512"><ele>842.0</ele><time>2026-04-18T16:59:39Z</time></trkpt><trkpt lat="37.13832479851613" lon="14.82790066813808"><ele>842.0</ele><time>2026-04-18T16:59:40Z</time></trkpt><trkpt lat="37.1381059205386" lon="14.827835494393936"><ele>845.0</ele><time>2026-04-18T16:59:41Z</time></trkpt><trkpt lat="37.13788287754967" lon="14.827771213322611"><ele>848.0</ele><time>2026-04-18T16:59:42Z</time></trkpt><trkpt lat="37.137662664337086" lon="14.827719892856882"><ele>848.0</ele><time>2026-04-18T16:59:43Z</time></trkpt><trkpt lat="37.13744724223142" lon="14.827661221591383"><ele>848.0</ele><time>2026-04-18T16:59:44Z</time></trkpt><trkpt lat="37.1372384906964" lon="14.827602795147024"><ele>848.0</ele><time>2026-04-18T16:59:45Z</time></trkpt><trkpt lat="37.13703177852824" lon="14.827542196555068"><ele>846.6666666666667</ele><time>2026-04-18T16:59:46Z</time></trkpt><trkpt lat="37.13682225276133" lon="14.827487541668091"><ele>845.3333333333333</ele><time>2026-04-18T16:59:47Z</time></trkpt><trkpt lat="37.13661251845359" lon="14.827430617739026"><ele>844.0</ele><time>2026-04-18T16:59:48Z</time></trkpt><trkpt lat="37.13640224404915" lon="14.82737082233962"><ele>844.0</ele><time>2026-04-18T16:59:49Z</time></trkpt><trkpt lat="37.1361932915814" lon="14.827308992495158"><ele>844.0</ele><time>2026-04-18T16:59:50Z</time></trkpt><trkpt lat="37.13598504511338" lon="14.82724974321489"><ele>844.0</ele><time>2026-04-18T16:59:51Z</time></trkpt><trkpt lat="37.13577794589496" lon="14.827190769807281"><ele>848.0</ele><time>2026-04-18T16:59:52Z</time></trkpt><trkpt lat="37.13557161393231" lon="14.827131062776193"><ele>852.0</ele><time>2026-04-18T16:59:53Z</time></trkpt><trkpt lat="37.13536948912258" lon="14.827070247223315"><ele>856.0</ele><time>2026-04-18T16:59:54Z</time></trkpt><trkpt lat="37.1351689082402" lon="14.827014290877592"><ele>856.0</ele><time>2026-04-18T16:59:55Z</time></trkpt><trkpt lat="37.13497001226607" lon="14.826959826042124"><ele>856.0</ele><time>2026-04-18T16:59:56Z</time></trkpt><trkpt lat="37.134765503553275" lon="14.826900077901376"><ele>856.0</ele><time>2026-04-18T16:59:57Z</time></trkpt><trkpt lat="37.134563786593624" lon="14.826840406344198"><ele>855.6666666666666</ele><time>2026-04-18T16:59:58Z</time></trkpt><trkpt lat="37.13436206149722" lon="14.826776025261037"><ele>855.3333333333333</ele><time>2026-04-18T16:59:59Z</time></trkpt><trkpt lat="37.134159860144855" lon="14.82670666403542"><ele>855.0</ele><time>2026-04-18T17:00:00Z</time></trkpt><trkpt lat="37.13395996684252" lon="14.826635649196678"><ele>859.0</ele><time>2026-04-18T17:00:01Z</time></trkpt><trkpt lat="37.13375714395544" lon="14.826566644273417"><ele>863.0</ele><time>2026-04-18T17:00:02Z</time></trkpt><trkpt lat="37.13355499608639" lon="14.82649621625484"><ele>867.0</ele><time>2026-04-18T17:00:03Z</time></trkpt><trkpt lat="37.13335286087188" lon="14.826426698442864"><ele>871.6666666666667</ele><time>2026-04-18T17:00:04Z</time></trkpt><trkpt lat="37.13315104853235" lon="14.826355376782994"><ele>876.3333333333334</ele><time>2026-04-18T17:00:05Z</time></trkpt><trkpt lat="37.13295065425653" lon="14.826285604401308"><ele>881.0</ele><time>2026-04-18T17:00:06Z</time></trkpt><trkpt lat="37.13274819935367" lon="14.826219919984146"><ele>881.0</ele><time>2026-04-18T17:00:07Z</time></trkpt><trkpt lat="37.132546198504386" lon="14.826152441162737"><ele>881.0</ele><time>2026-04-18T17:00:08Z</time></trkpt><trkpt lat="37.13234645176582" lon="14.82608248382941"><ele>881.0</ele><time>2026-04-18T17:00:09Z</time></trkpt><trkpt lat="37.13214421385665" lon="14.826014290322325"><ele>879.3333333333334</ele><time>2026-04-18T17:00:10Z</time></trkpt><trkpt lat="37.13194533557025" lon="14.825944202815952"><ele>877.6666666666667</ele><time>2026-04-18T17:00:11Z</time></trkpt><trkpt lat="37.131744309609864" lon="14.825874947696217"><ele>876.0</ele><time>2026-04-18T17:00:12Z</time></trkpt><trkpt lat="37.13154248181159" lon="14.825806893472697"><ele>876.0</ele><time>2026-04-18T17:00:13Z</time></trkpt><trkpt lat="37.13133586173442" lon="14.825737251989347"><ele>876.0</ele><time>2026-04-18T17:00:14Z</time></trkpt><trkpt lat="37.13112412882665" lon="14.825665376680714"><ele>876.0</ele><time>2026-04-18T17:00:15Z</time></trkpt><trkpt lat="37.13091124926759" lon="14.825593268769957"><ele>885.5</ele><time>2026-04-18T17:00:16Z</time></trkpt><trkpt lat="37.130691121483345" lon="14.825518279064921"><ele>895.0</ele><time>2026-04-18T17:00:17Z</time></trkpt><trkpt lat="37.130470136373376" lon="14.825441695802573"><ele>895.0</ele><time>2026-04-18T17:00:18Z</time></trkpt><trkpt lat="37.13024437139849" lon="14.825363290743683"><ele>895.0</ele><time>2026-04-18T17:00:19Z</time></trkpt><trkpt lat="37.13001719001817" lon="14.82528355373491"><ele>892.0</ele><time>2026-04-18T17:00:20Z</time></trkpt><trkpt lat="37.12979244636872" lon="14.825206903633259"><ele>889.0</ele><time>2026-04-18T17:00:21Z</time></trkpt><trkpt lat="37.12957056563928" lon="14.82512878033228"><ele>889.0</ele><time>2026-04-18T17:00:22Z</time></trkpt><trkpt lat="37.12935079063547" lon="14.825051247671581"><ele>889.0</ele><time>2026-04-18T17:00:23Z</time></trkpt><trkpt lat="37.12912872842683" lon="14.824973113384598"><ele>892.5</ele><time>2026-04-18T17:00:24Z</time></trkpt><trkpt lat="37.12890513732849" lon="14.82489378820045"><ele>896.0</ele><time>2026-04-18T17:00:25Z</time></trkpt><trkpt lat="37.12867900133795" lon="14.824813766682112"><ele>896.0</ele><time>2026-04-18T17:00:26Z</time></trkpt><trkpt lat="37.12844951568115" lon="14.824733179498633"><ele>896.0</ele><time>2026-04-18T17:00:27Z</time></trkpt><trkpt lat="37.128217269105335" lon="14.824653578413113"><ele>900.5</ele><time>2026-04-18T17:00:28Z</time></trkpt><trkpt lat="37.12798831095829" lon="14.824574593319243"><ele>905.0</ele><time>2026-04-18T17:00:29Z</time></trkpt><trkpt lat="37.127758843925704" lon="14.824495970474834"><ele>905.0</ele><time>2026-04-18T17:00:30Z</time></trkpt><trkpt lat="37.127530969844656" lon="14.824417056804233"><ele>905.0</ele><time>2026-04-18T17:00:31Z</time></trkpt><trkpt lat="37.12730077243464" lon="14.82433849883964"><ele>906.0</ele><time>2026-04-18T17:00:32Z</time></trkpt><trkpt lat="37.12706588799957" lon="14.824259640393754"><ele>907.0</ele><time>2026-04-18T17:00:33Z</time></trkpt><trkpt lat="37.12683366689116" lon="14.824182987699183"><ele>907.0</ele><time>2026-04-18T17:00:34Z</time></trkpt><trkpt lat="37.126600318957216" lon="14.824107280966555"><ele>907.0</ele><time>2026-04-18T17:00:35Z</time></trkpt><trkpt lat="37.12637123519667" lon="14.824029939389035"><ele>909.0</ele><time>2026-04-18T17:00:36Z</time></trkpt><trkpt lat="37.126143750948074" lon="14.823951052314447"><ele>911.0</ele><time>2026-04-18T17:00:37Z</time></trkpt><trkpt lat="37.125915452251114" lon="14.823869520485086"><ele>912.5</ele><time>2026-04-18T17:00:38Z</time></trkpt><trkpt lat="37.1256897171438" lon="14.823789229697823"><ele>914.0</ele><time>2026-04-18T17:00:39Z</time></trkpt><trkpt lat="37.12546654797908" lon="14.823707669538692"><ele>914.0</ele><time>2026-04-18T17:00:40Z</time></trkpt><trkpt lat="37.12524063013278" lon="14.823625830028814"><ele>914.0</ele><time>2026-04-18T17:00:41Z</time></trkpt><trkpt lat="37.12501451638163" lon="14.823540320986028"><ele>916.5</ele><time>2026-04-18T17:00:42Z</time></trkpt><trkpt lat="37.12478902346279" lon="14.823446066767982"><ele>919.0</ele><time>2026-04-18T17:00:43Z</time></trkpt><trkpt lat="37.124563902584256" lon="14.823339280060175"><ele>919.0</ele><time>2026-04-18T17:00:44Z</time></trkpt><trkpt lat="37.124337637101085" lon="14.823217973900126"><ele>919.0</ele><time>2026-04-18T17:00:45Z</time></trkpt><trkpt lat="37.12411655917848" lon="14.823086038248704"><ele>920.0</ele><time>2026-04-18T17:00:46Z</time></trkpt><trkpt lat="37.12388378124682" lon="14.822945558408183"><ele>921.0</ele><time>2026-04-18T17:00:47Z</time></trkpt><trkpt lat="37.12370294113189" lon="14.822822306204348"><ele>921.0</ele><time>2026-04-18T17:00:48Z</time></trkpt><trkpt lat="37.12349695256779" lon="14.822662634593986"><ele>921.0</ele><time>2026-04-18T17:00:49Z</time></trkpt><trkpt lat="37.12329562631654" lon="14.822499304383332"><ele>924.0</ele><time>2026-04-18T17:00:50Z</time></trkpt><trkpt lat="37.12309554962676" lon="14.822324262711772"><ele>927.0</ele><time>2026-04-18T17:00:51Z</time></trkpt><trkpt lat="37.1229009344329" lon="14.822133950006117"><ele>927.0</ele><time>2026-04-18T17:00:52Z</time></trkpt><trkpt lat="37.12270609899347" lon="14.821941917413966"><ele>927.0</ele><time>2026-04-18T17:00:53Z</time></trkpt><trkpt lat="37.1225118355767" lon="14.821740119524307"><ele>932.0</ele><time>2026-04-18T17:00:54Z</time></trkpt><trkpt lat="37.12231572788111" lon="14.821536108155241"><ele>937.0</ele><time>2026-04-18T17:00:55Z</time></trkpt><trkpt lat="37.1221157944983" lon="14.821335494575212"><ele>937.0</ele><time>2026-04-18T17:00:56Z</time></trkpt><trkpt lat="37.12191521461613" lon="14.821141949192716"><ele>937.0</ele><time>2026-04-18T17:00:57Z</time></trkpt><trkpt lat="37.1217105011895" lon="14.820949531542771"><ele>939.0</ele><time>2026-04-18T17:00:58Z</time></trkpt><trkpt lat="37.12149984667749" lon="14.820750225087236"><ele>941.0</ele><time>2026-04-18T17:00:59Z</time></trkpt><trkpt lat="37.12129525113799" lon="14.820546876153202"><ele>941.0</ele><time>2026-04-18T17:01:00Z</time></trkpt><trkpt lat="37.12108697248715" lon="14.820338344249315"><ele>941.0</ele><time>2026-04-18T17:01:01Z</time></trkpt><trkpt lat="37.12088540821731" lon="14.820115228816697"><ele>942.5</ele><time>2026-04-18T17:01:02Z</time></trkpt><trkpt lat="37.12067623685772" lon="14.81989923442179"><ele>944.0</ele><time>2026-04-18T17:01:03Z</time></trkpt><trkpt lat="37.12046993771504" lon="14.819690049956705"><ele>944.0</ele><time>2026-04-18T17:01:04Z</time></trkpt><trkpt lat="37.12026225115588" lon="14.81948071879788"><ele>944.0</ele><time>2026-04-18T17:01:05Z</time></trkpt><trkpt lat="37.120059825345514" lon="14.819280409782747"><ele>945.5</ele><time>2026-04-18T17:01:06Z</time></trkpt><trkpt lat="37.11985796919414" lon="14.81907404200927"><ele>947.0</ele><time>2026-04-18T17:01:07Z</time></trkpt><trkpt lat="37.11965802728585" lon="14.81887557864404"><ele>947.0</ele><time>2026-04-18T17:01:08Z</time></trkpt><trkpt lat="37.11946700034522" lon="14.818683823677288"><ele>947.0</ele><time>2026-04-18T17:01:09Z</time></trkpt><trkpt lat="37.11927984424427" lon="14.818498004304134"><ele>948.0</ele><time>2026-04-18T17:01:10Z</time></trkpt><trkpt lat="37.11909193522389" lon="14.818317631886694"><ele>949.0</ele><time>2026-04-18T17:01:11Z</time></trkpt><trkpt lat="37.11890948746012" lon="14.81814728117621"><ele>949.0</ele><time>2026-04-18T17:01:12Z</time></trkpt><trkpt lat="37.11868153502132" lon="14.817958524476248"><ele>949.0</ele><time>2026-04-18T17:01:13Z</time></trkpt><trkpt lat="37.11846743184813" lon="14.817829756890863"><ele>949.0</ele><time>2026-04-18T17:01:14Z</time></trkpt><trkpt lat="37.11823581907348" lon="14.817731721525739"><ele>949.0</ele><time>2026-04-18T17:01:15Z</time></trkpt><trkpt lat="37.1179964704149" lon="14.817657469234057"><ele>948.0</ele><time>2026-04-18T17:01:16Z</time></trkpt><trkpt lat="37.11775518581091" lon="14.817609256579424"><ele>947.0</ele><time>2026-04-18T17:01:17Z</time></trkpt><trkpt lat="37.11750347602138" lon="14.81759561312539"><ele>952.5</ele><time>2026-04-18T17:01:18Z</time></trkpt><trkpt lat="37.11724703517992" lon="14.81761209045759"><ele>958.0</ele><time>2026-04-18T17:01:19Z</time></trkpt><trkpt lat="37.11699197469903" lon="14.817656897120225"><ele>963.5</ele><time>2026-04-18T17:01:20Z</time></trkpt><trkpt lat="37.116745267364514" lon="14.817719374941694"><ele>969.0</ele><time>2026-04-18T17:01:21Z</time></trkpt><trkpt lat="37.11651179324393" lon="14.817816804314942"><ele>969.0</ele><time>2026-04-18T17:01:22Z</time></trkpt><trkpt lat="37.11628554044849" lon="14.817926820783976"><ele>969.0</ele><time>2026-04-18T17:01:23Z</time></trkpt><trkpt lat="37.11607499047915" lon="14.818066796290857"><ele>969.0</ele><time>2026-04-18T17:01:24Z</time></trkpt><trkpt lat="37.115869206457496" lon="14.818233500714522"><ele>969.0</ele><time>2026-04-18T17:01:25Z</time></trkpt><trkpt lat="37.11567638847721" lon="14.81840774685846"><ele>971.0</ele><time>2026-04-18T17:01:26Z</time></trkpt><trkpt lat="37.11549835725249" lon="14.81861406002671"><ele>973.0</ele><time>2026-04-18T17:01:27Z</time></trkpt><trkpt lat="37.11532841502598" lon="14.818849247469295"><ele>973.0</ele><time>2026-04-18T17:01:28Z</time></trkpt><trkpt lat="37.11518022671093" lon="14.819095471090405"><ele>973.0</ele><time>2026-04-18T17:01:29Z</time></trkpt><trkpt lat="37.11505226455528" lon="14.819352247804556"><ele>974.5</ele><time>2026-04-18T17:01:30Z</time></trkpt><trkpt lat="37.11494190702638" lon="14.819624036740594"><ele>976.0</ele><time>2026-04-18T17:01:31Z</time></trkpt><trkpt lat="37.114846976451254" lon="14.81993160533637"><ele>978.0</ele><time>2026-04-18T17:01:32Z</time></trkpt><trkpt lat="37.114778227417276" lon="14.820244127840263"><ele>980.0</ele><time>2026-04-18T17:01:33Z</time></trkpt><trkpt lat="37.114721638204266" lon="14.820568527375826"><ele>980.0</ele><time>2026-04-18T17:01:34Z</time></trkpt><trkpt lat="37.114695052824274" lon="14.82089612544899"><ele>980.0</ele><time>2026-04-18T17:01:35Z</time></trkpt><trkpt lat="37.1146989832632" lon="14.82123204352161"><ele>980.5</ele><time>2026-04-18T17:01:36Z</time></trkpt><trkpt lat="37.11472200279407" lon="14.821579817675344"><ele>981.0</ele><time>2026-04-18T17:01:37Z</time></trkpt><trkpt lat="37.11476349919643" lon="14.821942841459043"><ele>981.0</ele><time>2026-04-18T17:01:38Z</time></trkpt><trkpt lat="37.11480823567177" lon="14.822328609467807"><ele>981.0</ele><time>2026-04-18T17:01:39Z</time></trkpt><trkpt lat="37.11484696297916" lon="14.822718316561161"><ele>978.5</ele><time>2026-04-18T17:01:40Z</time></trkpt><trkpt lat="37.11488692666418" lon="14.823111531763209"><ele>976.0</ele><time>2026-04-18T17:01:41Z</time></trkpt><trkpt lat="37.11492230350822" lon="14.823493694201849"><ele>972.0</ele><time>2026-04-18T17:01:42Z</time></trkpt><trkpt lat="37.11495405054173" lon="14.823853364584712"><ele>968.0</ele><time>2026-04-18T17:01:43Z</time></trkpt><trkpt lat="37.11498903505961" lon="14.824219322467643"><ele>968.0</ele><time>2026-04-18T17:01:44Z</time></trkpt><trkpt lat="37.11501884458913" lon="14.82457536577349"><ele>968.0</ele><time>2026-04-18T17:01:45Z</time></trkpt><trkpt lat="37.11504496340141" lon="14.824909231835841"><ele>967.0</ele><time>2026-04-18T17:01:46Z</time></trkpt><trkpt lat="37.11507878169967" lon="14.825222138883417"><ele>966.0</ele><time>2026-04-18T17:01:47Z</time></trkpt><trkpt lat="37.1150991928334" lon="14.825529365771697"><ele>966.0</ele><time>2026-04-18T17:01:48Z</time></trkpt><trkpt lat="37.11511762987428" lon="14.825826322251759"><ele>966.0</ele><time>2026-04-18T17:01:49Z</time></trkpt><trkpt lat="37.11514228890067" lon="14.826094698583331"><ele>966.5</ele><time>2026-04-18T17:01:50Z</time></trkpt><trkpt lat="37.115158806827516" lon="14.82639254119958"><ele>967.0</ele><time>2026-04-18T17:01:51Z</time></trkpt><trkpt lat="37.11518243621153" lon="14.826688340968246"><ele>966.0</ele><time>2026-04-18T17:01:52Z</time></trkpt><trkpt lat="37.11513086538193" lon="14.82704019248931"><ele>965.0</ele><time>2026-04-18T17:01:53Z</time></trkpt><trkpt lat="37.11509393047991" lon="14.827347891841374"><ele>964.0</ele><time>2026-04-18T17:01:54Z</time></trkpt><trkpt lat="37.11504327061135" lon="14.827645179212235"><ele>963.0</ele><time>2026-04-18T17:01:55Z</time></trkpt><trkpt lat="37.1149725139713" lon="14.827948382240626"><ele>964.0</ele><time>2026-04-18T17:01:56Z</time></trkpt><trkpt lat="37.11488469548195" lon="14.828234332080338"><ele>965.0</ele><time>2026-04-18T17:01:57Z</time></trkpt><trkpt lat="37.114777090576176" lon="14.828520863916868"><ele>962.5</ele><time>2026-04-18T17:01:58Z</time></trkpt><trkpt lat="37.11465086224827" lon="14.82880033227881"><ele>960.0</ele><time>2026-04-18T17:01:59Z</time></trkpt><trkpt lat="37.11451365107141" lon="14.829083175226188"><ele>958.0</ele><time>2026-04-18T17:02:00Z</time></trkpt><trkpt lat="37.11438021458309" lon="14.829370870805588"><ele>956.0</ele><time>2026-04-18T17:02:01Z</time></trkpt><trkpt lat="37.11424871026702" lon="14.82966215214802"><ele>956.0</ele><time>2026-04-18T17:02:02Z</time></trkpt><trkpt lat="37.11412154971877" lon="14.829953055342184"><ele>956.0</ele><time>2026-04-18T17:02:03Z</time></trkpt><trkpt lat="37.11399275567651" lon="14.830244455967886"><ele>952.5</ele><time>2026-04-18T17:02:04Z</time></trkpt><trkpt lat="37.113867669313834" lon="14.830526639095423"><ele>949.0</ele><time>2026-04-18T17:02:05Z</time></trkpt><trkpt lat="37.11375092271166" lon="14.830805871110584"><ele>947.0</ele><time>2026-04-18T17:02:06Z</time></trkpt><trkpt lat="37.11363341999013" lon="14.831086397824123"><ele>945.0</ele><time>2026-04-18T17:02:07Z</time></trkpt><trkpt lat="37.11351725987623" lon="14.831362358438227"><ele>945.0</ele><time>2026-04-18T17:02:08Z</time></trkpt><trkpt lat="37.11340540490797" lon="14.831638698487483"><ele>945.0</ele><time>2026-04-18T17:02:09Z</time></trkpt><trkpt lat="37.11329725848457" lon="14.831918012851084"><ele>945.5</ele><time>2026-04-18T17:02:10Z</time></trkpt><trkpt lat="37.11320388528956" lon="14.832199700975227"><ele>946.0</ele><time>2026-04-18T17:02:11Z</time></trkpt><trkpt lat="37.11311854037521" lon="14.83248030777295"><ele>946.0</ele><time>2026-04-18T17:02:12Z</time></trkpt><trkpt lat="37.11304092660256" lon="14.832762684315327"><ele>946.0</ele><time>2026-04-18T17:02:13Z</time></trkpt><trkpt lat="37.112974582104734" lon="14.83305049441573"><ele>946.0</ele><time>2026-04-18T17:02:14Z</time></trkpt><trkpt lat="37.11292766617515" lon="14.833335576256692"><ele>946.0</ele><time>2026-04-18T17:02:15Z</time></trkpt><trkpt lat="37.11287168050501" lon="14.833647227032607"><ele>947.0</ele><time>2026-04-18T17:02:16Z</time></trkpt><trkpt lat="37.112824192758346" lon="14.833960761155268"><ele>948.0</ele><time>2026-04-18T17:02:17Z</time></trkpt><trkpt lat="37.11278402381303" lon="14.83427809248846"><ele>949.5</ele><time>2026-04-18T17:02:18Z</time></trkpt><trkpt lat="37.11275525619413" lon="14.834592814842823"><ele>951.0</ele><time>2026-04-18T17:02:19Z</time></trkpt><trkpt lat="37.112734470209" lon="14.834905117146011"><ele>951.5</ele><time>2026-04-18T17:02:20Z</time></trkpt><trkpt lat="37.11271652831952" lon="14.83521366368164"><ele>952.0</ele><time>2026-04-18T17:02:21Z</time></trkpt><trkpt lat="37.11270471002761" lon="14.835523876718057"><ele>952.0</ele><time>2026-04-18T17:02:22Z</time></trkpt><trkpt lat="37.112707604144745" lon="14.835832331020653"><ele>952.0</ele><time>2026-04-18T17:02:23Z</time></trkpt><trkpt lat="37.11272061476198" lon="14.83613785426547"><ele>950.5</ele><time>2026-04-18T17:02:24Z</time></trkpt><trkpt lat="37.11273608239056" lon="14.836433914051192"><ele>949.0</ele><time>2026-04-18T17:02:25Z</time></trkpt><trkpt lat="37.11275181418754" lon="14.836728434456642"><ele>948.0</ele><time>2026-04-18T17:02:26Z</time></trkpt><trkpt lat="37.11275467047061" lon="14.837009890489265"><ele>947.0</ele><time>2026-04-18T17:02:27Z</time></trkpt><trkpt lat="37.112789202111195" lon="14.837247481561386"><ele>946.0</ele><time>2026-04-18T17:02:28Z</time></trkpt><trkpt lat="37.11285465399735" lon="14.837480989619475"><ele>945.0</ele><time>2026-04-18T17:02:29Z</time></trkpt><trkpt lat="37.112918852836586" lon="14.837704120605572"><ele>944.0</ele><time>2026-04-18T17:02:30Z</time></trkpt><trkpt lat="37.112973319407445" lon="14.837957300195344"><ele>943.0</ele><time>2026-04-18T17:02:31Z</time></trkpt><trkpt lat="37.1130357234777" lon="14.83821919665089"><ele>941.6666666666666</ele><time>2026-04-18T17:02:32Z</time></trkpt><trkpt lat="37.113100445369795" lon="14.83848274089853"><ele>940.3333333333333</ele><time>2026-04-18T17:02:33Z</time></trkpt><trkpt lat="37.11317654515992" lon="14.838747952444846"><ele>939.0</ele><time>2026-04-18T17:02:34Z</time></trkpt><trkpt lat="37.11326644746431" lon="14.839024582567582"><ele>939.0</ele><time>2026-04-18T17:02:35Z</time></trkpt><trkpt lat="37.113363326487615" lon="14.839295460188348"><ele>939.0</ele><time>2026-04-18T17:02:36Z</time></trkpt><trkpt lat="37.113469481964174" lon="14.839566297745417"><ele>936.5</ele><time>2026-04-18T17:02:37Z</time></trkpt><trkpt lat="37.11358738238391" lon="14.839847995595186"><ele>934.0</ele><time>2026-04-18T17:02:38Z</time></trkpt><trkpt lat="37.1137123902327" lon="14.840150444588152"><ele>932.5</ele><time>2026-04-18T17:02:39Z</time></trkpt><trkpt lat="37.11384160635939" lon="14.840386627004076"><ele>931.0</ele><time>2026-04-18T17:02:40Z</time></trkpt><trkpt lat="37.113976807153946" lon="14.840666210769506"><ele>929.5</ele><time>2026-04-18T17:02:41Z</time></trkpt><trkpt lat="37.114109455752875" lon="14.84094330505947"><ele>928.0</ele><time>2026-04-18T17:02:42Z</time></trkpt><trkpt lat="37.114250161375985" lon="14.841222815947235"><ele>928.0</ele><time>2026-04-18T17:02:43Z</time></trkpt><trkpt lat="37.114382343052796" lon="14.841506429971545"><ele>928.0</ele><time>2026-04-18T17:02:44Z</time></trkpt><trkpt lat="37.114515063270005" lon="14.841797215197023"><ele>927.5</ele><time>2026-04-18T17:02:45Z</time></trkpt><trkpt lat="37.1146454116194" lon="14.842087716151978"><ele>927.0</ele><time>2026-04-18T17:02:46Z</time></trkpt><trkpt lat="37.114771054935154" lon="14.842373333338717"><ele>927.0</ele><time>2026-04-18T17:02:47Z</time></trkpt><trkpt lat="37.11489939245774" lon="14.842662773383843"><ele>927.0</ele><time>2026-04-18T17:02:48Z</time></trkpt><trkpt lat="37.115028030176966" lon="14.842929419884788"><ele>927.0</ele><time>2026-04-18T17:02:49Z</time></trkpt><trkpt lat="37.11516076305867" lon="14.84320111574407"><ele>927.0</ele><time>2026-04-18T17:02:50Z</time></trkpt><trkpt lat="37.11528839537697" lon="14.843487892147378"><ele>927.5</ele><time>2026-04-18T17:02:51Z</time></trkpt><trkpt lat="37.11541852029776" lon="14.843774118401758"><ele>928.0</ele><time>2026-04-18T17:02:52Z</time></trkpt><trkpt lat="37.115547394551285" lon="14.844062829712355"><ele>927.0</ele><time>2026-04-18T17:02:53Z</time></trkpt><trkpt lat="37.11567598322023" lon="14.844346304414714"><ele>926.0</ele><time>2026-04-18T17:02:54Z</time></trkpt><trkpt lat="37.11580284400955" lon="14.844627496294745"><ele>926.0</ele><time>2026-04-18T17:02:55Z</time></trkpt><trkpt lat="37.11592993681475" lon="14.84490193417156"><ele>926.0</ele><time>2026-04-18T17:02:56Z</time></trkpt><trkpt lat="37.11605691822776" lon="14.84517702738164"><ele>927.5</ele><time>2026-04-18T17:02:57Z</time></trkpt><trkpt lat="37.11618370492275" lon="14.845455376480258"><ele>929.0</ele><time>2026-04-18T17:02:58Z</time></trkpt><trkpt lat="37.11630855766438" lon="14.845735750459273"><ele>930.5</ele><time>2026-04-18T17:02:59Z</time></trkpt><trkpt lat="37.116439701182706" lon="14.846012945810442"><ele>932.0</ele><time>2026-04-18T17:03:00Z</time></trkpt><trkpt lat="37.11658253803003" lon="14.846278809753512"><ele>927.5</ele><time>2026-04-18T17:03:01Z</time></trkpt><trkpt lat="37.11673753333399" lon="14.846539102727117"><ele>923.0</ele><time>2026-04-18T17:03:02Z</time></trkpt><trkpt lat="37.11689156597899" lon="14.84680182843399"><ele>923.0</ele><time>2026-04-18T17:03:03Z</time></trkpt><trkpt lat="37.11704349230226" lon="14.847063161327865"><ele>923.0</ele><time>2026-04-18T17:03:04Z</time></trkpt><trkpt lat="37.11719523072242" lon="14.847327719473139"><ele>923.0</ele><time>2026-04-18T17:03:05Z</time></trkpt><trkpt lat="37.1173443878098" lon="14.847588420192475"><ele>923.0</ele><time>2026-04-18T17:03:06Z</time></trkpt><trkpt lat="37.11749833561668" lon="14.847856698012192"><ele>922.0</ele><time>2026-04-18T17:03:07Z</time></trkpt><trkpt lat="37.11764778051723" lon="14.848122264814178"><ele>921.0</ele><time>2026-04-18T17:03:08Z</time></trkpt><trkpt lat="37.117799312787554" lon="14.84839149235485"><ele>920.5</ele><time>2026-04-18T17:03:09Z</time></trkpt><trkpt lat="37.117951971630035" lon="14.848653632645004"><ele>920.0</ele><time>2026-04-18T17:03:10Z</time></trkpt><trkpt lat="37.118104248838826" lon="14.848919995225497"><ele>918.5</ele><time>2026-04-18T17:03:11Z</time></trkpt><trkpt lat="37.118255696183205" lon="14.849187477705309"><ele>917.0</ele><time>2026-04-18T17:03:12Z</time></trkpt><trkpt lat="37.11840531132063" lon="14.849462036982281"><ele>914.5</ele><time>2026-04-18T17:03:13Z</time></trkpt><trkpt lat="37.11855048451054" lon="14.849740477176747"><ele>912.0</ele><time>2026-04-18T17:03:14Z</time></trkpt><trkpt lat="37.11868561862042" lon="14.850028416569216"><ele>911.0</ele><time>2026-04-18T17:03:15Z</time></trkpt><trkpt lat="37.11880722278729" lon="14.85031892331815"><ele>910.0</ele><time>2026-04-18T17:03:16Z</time></trkpt><trkpt lat="37.11892267833773" lon="14.850620926801033"><ele>910.0</ele><time>2026-04-18T17:03:17Z</time></trkpt><trkpt lat="37.11902815336274" lon="14.85092337637904"><ele>910.0</ele><time>2026-04-18T17:03:18Z</time></trkpt><trkpt lat="37.119130836251955" lon="14.851235979106342"><ele>907.5</ele><time>2026-04-18T17:03:19Z</time></trkpt><trkpt lat="37.11922322797811" lon="14.851539385799288"><ele>905.0</ele><time>2026-04-18T17:03:20Z</time></trkpt><trkpt lat="37.11930770694618" lon="14.851852322074286"><ele>903.5</ele><time>2026-04-18T17:03:21Z</time></trkpt><trkpt lat="37.11938510305926" lon="14.852171781247657"><ele>902.0</ele><time>2026-04-18T17:03:22Z</time></trkpt><trkpt lat="37.11946116760179" lon="14.85249172802887"><ele>900.5</ele><time>2026-04-18T17:03:23Z</time></trkpt><trkpt lat="37.119538608125225" lon="14.852813275898082"><ele>899.0</ele><time>2026-04-18T17:03:24Z</time></trkpt><trkpt lat="37.11962116244728" lon="14.853143939855991"><ele>898.5</ele><time>2026-04-18T17:03:25Z</time></trkpt><trkpt lat="37.11970398209982" lon="14.853475050673083"><ele>898.0</ele><time>2026-04-18T17:03:26Z</time></trkpt><trkpt lat="37.11978377545633" lon="14.853801225467919"><ele>898.0</ele><time>2026-04-18T17:03:27Z</time></trkpt><trkpt lat="37.119862428957944" lon="14.854129624778826"><ele>898.0</ele><time>2026-04-18T17:03:28Z</time></trkpt><trkpt lat="37.1199439849496" lon="14.854459458336969"><ele>898.0</ele><time>2026-04-18T17:03:29Z</time></trkpt><trkpt lat="37.12002507319012" lon="14.854786873487313"><ele>898.0</ele><time>2026-04-18T17:03:30Z</time></trkpt><trkpt lat="37.120103784896656" lon="14.855113221095323"><ele>898.0</ele><time>2026-04-18T17:03:31Z</time></trkpt><trkpt lat="37.12018165637853" lon="14.855443792075059"><ele>898.0</ele><time>2026-04-18T17:03:32Z</time></trkpt><trkpt lat="37.12025899120853" lon="14.855769034052482"><ele>897.0</ele><time>2026-04-18T17:03:33Z</time></trkpt><trkpt lat="37.12033910644123" lon="14.85609601977801"><ele>896.0</ele><time>2026-04-18T17:03:34Z</time></trkpt><trkpt lat="37.12042043412837" lon="14.85642906228361"><ele>896.0</ele><time>2026-04-18T17:03:35Z</time></trkpt><trkpt lat="37.12050110620056" lon="14.856754536713746"><ele>896.0</ele><time>2026-04-18T17:03:36Z</time></trkpt><trkpt lat="37.12058073721008" lon="14.857075476031545"><ele>894.5</ele><time>2026-04-18T17:03:37Z</time></trkpt><trkpt lat="37.12066121676744" lon="14.857393454411227"><ele>893.0</ele><time>2026-04-18T17:03:38Z</time></trkpt><trkpt lat="37.12073720394553" lon="14.85770159249066"><ele>892.0</ele><time>2026-04-18T17:03:39Z</time></trkpt><trkpt lat="37.12081255566188" lon="14.858007088347417"><ele>891.0</ele><time>2026-04-18T17:03:40Z</time></trkpt><trkpt lat="37.12088568777595" lon="14.858310909388633"><ele>891.0</ele><time>2026-04-18T17:03:41Z</time></trkpt><trkpt lat="37.12095776840221" lon="14.858615408447493"><ele>891.0</ele><time>2026-04-18T17:03:42Z</time></trkpt><trkpt lat="37.1210174730848" lon="14.85892425958013"><ele>891.0</ele><time>2026-04-18T17:03:43Z</time></trkpt><trkpt lat="37.12105348492456" lon="14.859240480859242"><ele>891.0</ele><time>2026-04-18T17:03:44Z</time></trkpt><trkpt lat="37.121057193705134" lon="14.859566650800204"><ele>891.0</ele><time>2026-04-18T17:03:45Z</time></trkpt><trkpt lat="37.1210360804528" lon="14.859891797596966"><ele>891.0</ele><time>2026-04-18T17:03:46Z</time></trkpt><trkpt lat="37.120995212397816" lon="14.860209133288892"><ele>890.5</ele><time>2026-04-18T17:03:47Z</time></trkpt><trkpt lat="37.12093125423218" lon="14.860504555780874"><ele>890.0</ele><time>2026-04-18T17:03:48Z</time></trkpt><trkpt lat="37.12084034662482" lon="14.86079425975237"><ele>889.0</ele><time>2026-04-18T17:03:49Z</time></trkpt><trkpt lat="37.12073182244912" lon="14.861074458537097"><ele>888.0</ele><time>2026-04-18T17:03:50Z</time></trkpt><trkpt lat="37.120598364311945" lon="14.861347691293041"><ele>888.0</ele><time>2026-04-18T17:03:51Z</time></trkpt><trkpt lat="37.1204416536113" lon="14.861613652455253"><ele>888.0</ele><time>2026-04-18T17:03:52Z</time></trkpt><trkpt lat="37.12026934979939" lon="14.861859108058507"><ele>887.0</ele><time>2026-04-18T17:03:53Z</time></trkpt><trkpt lat="37.120079147451676" lon="14.862077183562464"><ele>886.0</ele><time>2026-04-18T17:03:54Z</time></trkpt><trkpt lat="37.11986407453855" lon="14.862270979893928"><ele>886.0</ele><time>2026-04-18T17:03:55Z</time></trkpt><trkpt lat="37.11962822787328" lon="14.862453686498746"><ele>886.0</ele><time>2026-04-18T17:03:56Z</time></trkpt><trkpt lat="37.11939178476362" lon="14.862630297582278"><ele>886.5</ele><time>2026-04-18T17:03:57Z</time></trkpt><trkpt lat="37.11916368922146" lon="14.862806434143875"><ele>887.0</ele><time>2026-04-18T17:03:58Z</time></trkpt><trkpt lat="37.11893198952012" lon="14.86298854645907"><ele>887.0</ele><time>2026-04-18T17:03:59Z</time></trkpt><trkpt lat="37.1187012717209" lon="14.863175266232997"><ele>887.0</ele><time>2026-04-18T17:04:00Z</time></trkpt><trkpt lat="37.118469052164656" lon="14.86336217080863"><ele>888.0</ele><time>2026-04-18T17:04:01Z</time></trkpt><trkpt lat="37.11823439286258" lon="14.863550133673169"><ele>889.0</ele><time>2026-04-18T17:04:02Z</time></trkpt><trkpt lat="37.118008527646275" lon="14.863732352192526"><ele>889.0</ele><time>2026-04-18T17:04:03Z</time></trkpt><trkpt lat="37.117787306538574" lon="14.863906759159187"><ele>889.0</ele><time>2026-04-18T17:04:04Z</time></trkpt><trkpt lat="37.11756604699569" lon="14.86408244256808"><ele>890.0</ele><time>2026-04-18T17:04:05Z</time></trkpt><trkpt lat="37.117349808742155" lon="14.864249472209535"><ele>891.0</ele><time>2026-04-18T17:04:06Z</time></trkpt><trkpt lat="37.11712706109836" lon="14.864403525657846"><ele>888.5</ele><time>2026-04-18T17:04:07Z</time></trkpt><trkpt lat="37.11689381948031" lon="14.864539555530726"><ele>886.0</ele><time>2026-04-18T17:04:08Z</time></trkpt><trkpt lat="37.11665285455043" lon="14.864657868899378"><ele>884.5</ele><time>2026-04-18T17:04:09Z</time></trkpt><trkpt lat="37.11640441401847" lon="14.86475746507097"><ele>883.0</ele><time>2026-04-18T17:04:10Z</time></trkpt><trkpt lat="37.11615099351657" lon="14.864841355475278"><ele>883.0</ele><time>2026-04-18T17:04:11Z</time></trkpt><trkpt lat="37.115889194947066" lon="14.864911280083206"><ele>883.0</ele><time>2026-04-18T17:04:12Z</time></trkpt><trkpt lat="37.115627290332064" lon="14.86497547308623"><ele>882.0</ele><time>2026-04-18T17:04:13Z</time></trkpt><trkpt lat="37.1153611942114" lon="14.865039638433322"><ele>881.0</ele><time>2026-04-18T17:04:14Z</time></trkpt><trkpt lat="37.115101910510504" lon="14.865103402443982"><ele>877.0</ele><time>2026-04-18T17:04:15Z</time></trkpt><trkpt lat="37.11484690707753" lon="14.865167262566226"><ele>873.0</ele><time>2026-04-18T17:04:16Z</time></trkpt><trkpt lat="37.11460568318333" lon="14.865231926577849"><ele>873.0</ele><time>2026-04-18T17:04:17Z</time></trkpt><trkpt lat="37.114364387656885" lon="14.865308683391339"><ele>873.0</ele><time>2026-04-18T17:04:18Z</time></trkpt><trkpt lat="37.11412629368609" lon="14.865405997139463"><ele>871.0</ele><time>2026-04-18T17:04:19Z</time></trkpt><trkpt lat="37.113894799999414" lon="14.86553092663729"><ele>869.0</ele><time>2026-04-18T17:04:20Z</time></trkpt><trkpt lat="37.11367227125556" lon="14.865676997755731"><ele>869.0</ele><time>2026-04-18T17:04:21Z</time></trkpt><trkpt lat="37.11345781432989" lon="14.865842941465115"><ele>869.0</ele><time>2026-04-18T17:04:22Z</time></trkpt><trkpt lat="37.11325733479114" lon="14.866026080191201"><ele>870.0</ele><time>2026-04-18T17:04:23Z</time></trkpt><trkpt lat="37.113066460174885" lon="14.866225098054619"><ele>871.0</ele><time>2026-04-18T17:04:24Z</time></trkpt><trkpt lat="37.112885653543565" lon="14.86644441550297"><ele>871.0</ele><time>2026-04-18T17:04:25Z</time></trkpt><trkpt lat="37.11271464791125" lon="14.866682290834298"><ele>871.0</ele><time>2026-04-18T17:04:26Z</time></trkpt><trkpt lat="37.11256418420771" lon="14.866927060006946"><ele>869.0</ele><time>2026-04-18T17:04:27Z</time></trkpt><trkpt lat="37.112442583414115" lon="14.867152228828013"><ele>867.0</ele><time>2026-04-18T17:04:28Z</time></trkpt><trkpt lat="37.1123430925086" lon="14.867341113365603"><ele>865.0</ele><time>2026-04-18T17:04:29Z</time></trkpt><trkpt lat="37.112257628074126" lon="14.867505358107396"><ele>865.25</ele><time>2026-04-18T17:04:30Z</time></trkpt><trkpt lat="37.112182393309375" lon="14.867659441025362"><ele>865.5</ele><time>2026-04-18T17:04:31Z</time></trkpt><trkpt lat="37.11211942999881" lon="14.867808002847523"><ele>865.75</ele><time>2026-04-18T17:04:32Z</time></trkpt><trkpt lat="37.11207498640206" lon="14.867942975740316"><ele>866.0</ele><time>2026-04-18T17:04:33Z</time></trkpt><trkpt lat="37.112050279020956" lon="14.868073019342742"><ele>866.0</ele><time>2026-04-18T17:04:34Z</time></trkpt><trkpt lat="37.11202763832313" lon="14.868203925038669"><ele>866.0</ele><time>2026-04-18T17:04:35Z</time></trkpt><trkpt lat="37.11197735152597" lon="14.868339942671117"><ele>866.0</ele><time>2026-04-18T17:04:36Z</time></trkpt><trkpt lat="37.111883039336185" lon="14.868491594621256"><ele>866.0</ele><time>2026-04-18T17:04:37Z</time></trkpt><trkpt lat="37.11175431736718" lon="14.868664183582737"><ele>865.0</ele><time>2026-04-18T17:04:38Z</time></trkpt><trkpt lat="37.111603189033545" lon="14.868859338076449"><ele>864.0</ele><time>2026-04-18T17:04:39Z</time></trkpt><trkpt lat="37.11143904282995" lon="14.869070113262778"><ele>859.5</ele><time>2026-04-18T17:04:40Z</time></trkpt><trkpt lat="37.111268319526225" lon="14.869292749524673"><ele>855.0</ele><time>2026-04-18T17:04:41Z</time></trkpt><trkpt lat="37.11110204080966" lon="14.869521602833006"><ele>855.0</ele><time>2026-04-18T17:04:42Z</time></trkpt><trkpt lat="37.11094097668072" lon="14.869749448950774"><ele>855.0</ele><time>2026-04-18T17:04:43Z</time></trkpt><trkpt lat="37.1107897159178" lon="14.869964984382499"><ele>851.5</ele><time>2026-04-18T17:04:44Z</time></trkpt><trkpt lat="37.11061618903678" lon="14.870242127749943"><ele>848.0</ele><time>2026-04-18T17:04:45Z</time></trkpt><trkpt lat="37.11044170794368" lon="14.870489774466119"><ele>848.0</ele><time>2026-04-18T17:04:46Z</time></trkpt><trkpt lat="37.110269243716736" lon="14.870736333133905"><ele>848.0</ele><time>2026-04-18T17:04:47Z</time></trkpt><trkpt lat="37.11008780917516" lon="14.870980497108055"><ele>847.0</ele><time>2026-04-18T17:04:48Z</time></trkpt><trkpt lat="37.10991360001699" lon="14.871220302341094"><ele>846.0</ele><time>2026-04-18T17:04:49Z</time></trkpt><trkpt lat="37.109743719158736" lon="14.871454289333876"><ele>846.0</ele><time>2026-04-18T17:04:50Z</time></trkpt><trkpt lat="37.109571004556685" lon="14.871689405891997"><ele>846.0</ele><time>2026-04-18T17:04:51Z</time></trkpt><trkpt lat="37.109400885780865" lon="14.871919350145662"><ele>844.0</ele><time>2026-04-18T17:04:52Z</time></trkpt><trkpt lat="37.109235370430206" lon="14.872145629307202"><ele>842.0</ele><time>2026-04-18T17:04:53Z</time></trkpt><trkpt lat="37.10907982148402" lon="14.87235856145276"><ele>842.3333333333334</ele><time>2026-04-18T17:04:54Z</time></trkpt><trkpt lat="37.10893943496716" lon="14.872550313601"><ele>842.6666666666667</ele><time>2026-04-18T17:04:55Z</time></trkpt><trkpt lat="37.10881615359644" lon="14.872726396497676"><ele>843.0</ele><time>2026-04-18T17:04:56Z</time></trkpt><trkpt lat="37.10871328718256" lon="14.872873850607471"><ele>841.5</ele><time>2026-04-18T17:04:57Z</time></trkpt><trkpt lat="37.10863192652697" lon="14.873015328907906"><ele>840.0</ele><time>2026-04-18T17:04:58Z</time></trkpt><trkpt lat="37.10857224570873" lon="14.873167032693232"><ele>838.5</ele><time>2026-04-18T17:04:59Z</time></trkpt><trkpt lat="37.108536897863154" lon="14.87329716498343"><ele>837.0</ele><time>2026-04-18T17:05:00Z</time></trkpt><trkpt lat="37.10850347721904" lon="14.87340284352056"><ele>837.0</ele><time>2026-04-18T17:05:01Z</time></trkpt><trkpt lat="37.10841467811563" lon="14.873442881043838"><ele>837.0</ele><time>2026-04-18T17:05:02Z</time></trkpt><trkpt lat="37.10832775841137" lon="14.87346521083339"><ele>837.0</ele><time>2026-04-18T17:05:03Z</time></trkpt><trkpt lat="37.10824472950196" lon="14.873431101326892"><ele>837.0</ele><time>2026-04-18T17:05:04Z</time></trkpt><trkpt lat="37.108160630288246" lon="14.873372591721463"><ele>837.0</ele><time>2026-04-18T17:05:05Z</time></trkpt><trkpt lat="37.10809032863041" lon="14.873303238544286"><ele>835.0</ele><time>2026-04-18T17:05:06Z</time></trkpt><trkpt lat="37.10804488678386" lon="14.873063396783595"><ele>833.0</ele><time>2026-04-18T17:05:07Z</time></trkpt><trkpt lat="37.10796233388872" lon="14.872838313524909"><ele>831.0</ele><time>2026-04-18T17:05:08Z</time></trkpt><trkpt lat="37.1079044312475" lon="14.872668316124184"><ele>831.5</ele><time>2026-04-18T17:05:09Z</time></trkpt><trkpt lat="37.10785715342095" lon="14.872504099421764"><ele>832.0</ele><time>2026-04-18T17:05:10Z</time></trkpt><trkpt lat="37.107799210221174" lon="14.872326359409826"><ele>832.5</ele><time>2026-04-18T17:05:11Z</time></trkpt><trkpt lat="37.1077135265488" lon="14.872172176045993"><ele>833.0</ele><time>2026-04-18T17:05:12Z</time></trkpt><trkpt lat="37.10761024563257" lon="14.872019743627387"><ele>833.0</ele><time>2026-04-18T17:05:13Z</time></trkpt><trkpt lat="37.10750622163157" lon="14.871889453510297"><ele>833.0</ele><time>2026-04-18T17:05:14Z</time></trkpt><trkpt lat="37.107387208530014" lon="14.87178754628049"><ele>833.0</ele><time>2026-04-18T17:05:15Z</time></trkpt><trkpt lat="37.107286018821405" lon="14.871686843021203"><ele>833.0</ele><time>2026-04-18T17:05:16Z</time></trkpt><trkpt lat="37.10724443978932" lon="14.87152450983158"><ele>832.0</ele><time>2026-04-18T17:05:17Z</time></trkpt><trkpt lat="37.10721303983454" lon="14.871343110514479"><ele>831.0</ele><time>2026-04-18T17:05:18Z</time></trkpt><trkpt lat="37.10720019193503" lon="14.871120832803673"><ele>830.0</ele><time>2026-04-18T17:05:19Z</time></trkpt><trkpt lat="37.10718164763502" lon="14.870911476743455"><ele>830.0</ele><time>2026-04-18T17:05:20Z</time></trkpt><trkpt lat="37.10715399106183" lon="14.870697686694465"><ele>830.0</ele><time>2026-04-18T17:05:21Z</time></trkpt><trkpt lat="37.10713000211074" lon="14.87051909831512"><ele>830.0</ele><time>2026-04-18T17:05:22Z</time></trkpt><trkpt lat="37.10710917454581" lon="14.870347260894201"><ele>830.0</ele><time>2026-04-18T17:05:23Z</time></trkpt><trkpt lat="37.10709197385411" lon="14.8702274694243"><ele>830.0</ele><time>2026-04-18T17:05:24Z</time></trkpt><trkpt lat="37.10704961928038" lon="14.870130089728164"><ele>830.0</ele><time>2026-04-18T17:05:25Z</time></trkpt><trkpt lat="37.106997963513145" lon="14.87005298346154"><ele>830.0</ele><time>2026-04-18T17:05:26Z</time></trkpt><trkpt lat="37.106894294626514" lon="14.870023318885824"><ele>830.0</ele><time>2026-04-18T17:05:27Z</time></trkpt><trkpt lat="37.10678296645133" lon="14.870057496058783"><ele>830.0</ele><time>2026-04-18T17:05:28Z</time></trkpt><trkpt lat="37.10666001166841" lon="14.870167157203142"><ele>830.0</ele><time>2026-04-18T17:05:29Z</time></trkpt><trkpt lat="37.10651640786863" lon="14.870314053812328"><ele>830.0</ele><time>2026-04-18T17:05:30Z</time></trkpt><trkpt lat="37.10635692335291" lon="14.87048906380152"><ele>830.3333333333334</ele><time>2026-04-18T17:05:31Z</time></trkpt><trkpt lat="37.10619895055146" lon="14.870647082659557"><ele>830.6666666666667</ele><time>2026-04-18T17:05:32Z</time></trkpt><trkpt lat="37.10604806355262" lon="14.87078842197785"><ele>831.0</ele><time>2026-04-18T17:05:33Z</time></trkpt><trkpt lat="37.1059118911834" lon="14.870920981181628"><ele>830.25</ele><time>2026-04-18T17:05:34Z</time></trkpt><trkpt lat="37.10579553154595" lon="14.871038938198788"><ele>829.5</ele><time>2026-04-18T17:05:35Z</time></trkpt><trkpt lat="37.10570730147338" lon="14.871180370304383"><ele>828.75</ele><time>2026-04-18T17:05:36Z</time></trkpt><trkpt lat="37.105667267746384" lon="14.871360058811655"><ele>828.0</ele><time>2026-04-18T17:05:37Z</time></trkpt><trkpt lat="37.105669137612956" lon="14.871558488548374"><ele>828.0</ele><time>2026-04-18T17:05:38Z</time></trkpt><trkpt lat="37.105712734539935" lon="14.871759119015465"><ele>828.0</ele><time>2026-04-18T17:05:39Z</time></trkpt><trkpt lat="37.105788397174194" lon="14.871966554512719"><ele>828.0</ele><time>2026-04-18T17:05:40Z</time></trkpt><trkpt lat="37.105875038784006" lon="14.87214639224121"><ele>827.5</ele><time>2026-04-18T17:05:41Z</time></trkpt><trkpt lat="37.10593933843799" lon="14.872278914252954"><ele>827.0</ele><time>2026-04-18T17:05:42Z</time></trkpt><trkpt lat="37.105954856306596" lon="14.872429450265352"><ele>826.5</ele><time>2026-04-18T17:05:43Z</time></trkpt><trkpt lat="37.10588114148535" lon="14.872579221143237"><ele>826.0</ele><time>2026-04-18T17:05:44Z</time></trkpt><trkpt lat="37.10578737362872" lon="14.872756997951166"><ele>825.0</ele><time>2026-04-18T17:05:45Z</time></trkpt><trkpt lat="37.10568548943827" lon="14.872961155141944"><ele>824.0</ele><time>2026-04-18T17:05:46Z</time></trkpt><trkpt lat="37.10558746622266" lon="14.873161292232663"><ele>823.0</ele><time>2026-04-18T17:05:47Z</time></trkpt><trkpt lat="37.10548780992366" lon="14.873363977245697"><ele>820.3333333333333</ele><time>2026-04-18T17:05:48Z</time></trkpt><trkpt lat="37.10537639603145" lon="14.87353444394092"><ele>817.6666666666667</ele><time>2026-04-18T17:05:49Z</time></trkpt><trkpt lat="37.10525166086386" lon="14.873715105008584"><ele>815.0</ele><time>2026-04-18T17:05:50Z</time></trkpt><trkpt lat="37.105123693581085" lon="14.873899858569038"><ele>815.0</ele><time>2026-04-18T17:05:51Z</time></trkpt><trkpt lat="37.104994606280016" lon="14.874084541317387"><ele>815.0</ele><time>2026-04-18T17:05:52Z</time></trkpt><trkpt lat="37.10487226987379" lon="14.874261616518982"><ele>815.0</ele><time>2026-04-18T17:05:53Z</time></trkpt><trkpt lat="37.10475901168356" lon="14.874425552932177"><ele>811.6666666666667</ele><time>2026-04-18T17:05:54Z</time></trkpt><trkpt lat="37.10467162221382" lon="14.874586810304912"><ele>808.3333333333333</ele><time>2026-04-18T17:05:55Z</time></trkpt><trkpt lat="37.10457486614482" lon="14.87474627679406"><ele>805.0</ele><time>2026-04-18T17:05:56Z</time></trkpt><trkpt lat="37.10450098924543" lon="14.874907372570428"><ele>805.0</ele><time>2026-04-18T17:05:57Z</time></trkpt><trkpt lat="37.10441608857025" lon="14.875064171833989"><ele>805.0</ele><time>2026-04-18T17:05:58Z</time></trkpt><trkpt lat="37.104293382226146" lon="14.875231682516999"><ele>805.0</ele><time>2026-04-18T17:05:59Z</time></trkpt><trkpt lat="37.10413979756652" lon="14.875385745231146"><ele>807.3333333333333</ele><time>2026-04-18T17:06:00Z</time></trkpt><trkpt lat="37.103975768999234" lon="14.875510713310785"><ele>809.6666666666667</ele><time>2026-04-18T17:06:01Z</time></trkpt><trkpt lat="37.103803931991116" lon="14.87560807842845"><ele>812.0</ele><time>2026-04-18T17:06:02Z</time></trkpt><trkpt lat="37.10361582512318" lon="14.87567853277863"><ele>812.0</ele><time>2026-04-18T17:06:03Z</time></trkpt><trkpt lat="37.103409694952234" lon="14.875714721292175"><ele>812.0</ele><time>2026-04-18T17:06:04Z</time></trkpt><trkpt lat="37.10317971445856" lon="14.87571303704046"><ele>812.0</ele><time>2026-04-18T17:06:05Z</time></trkpt><trkpt lat="37.10294207960256" lon="14.875691467306277"><ele>813.0</ele><time>2026-04-18T17:06:06Z</time></trkpt><trkpt lat="37.102706843930996" lon="14.875663400588948"><ele>814.0</ele><time>2026-04-18T17:06:07Z</time></trkpt><trkpt lat="37.10247876751396" lon="14.875637600287599"><ele>813.3333333333333</ele><time>2026-04-18T17:06:08Z</time></trkpt><trkpt lat="37.1022545050723" lon="14.875592325181765"><ele>812.6666666666667</ele><time>2026-04-18T17:06:09Z</time></trkpt><trkpt lat="37.10204497122629" lon="14.875520967062862"><ele>812.0</ele><time>2026-04-18T17:06:10Z</time></trkpt><trkpt lat="37.10184647518434" lon="14.875422281584628"><ele>812.0</ele><time>2026-04-18T17:06:11Z</time></trkpt><trkpt lat="37.1016487310211" lon="14.875313947769941"><ele>812.0</ele><time>2026-04-18T17:06:12Z</time></trkpt><trkpt lat="37.101452974455604" lon="14.875209997076935"><ele>812.0</ele><time>2026-04-18T17:06:13Z</time></trkpt><trkpt lat="37.10125876270457" lon="14.875135004429303"><ele>809.6666666666667</ele><time>2026-04-18T17:06:14Z</time></trkpt><trkpt lat="37.10106367827789" lon="14.875102081183496"><ele>807.3333333333333</ele><time>2026-04-18T17:06:15Z</time></trkpt><trkpt lat="37.10086313662076" lon="14.875113337916146"><ele>805.0</ele><time>2026-04-18T17:06:16Z</time></trkpt><trkpt lat="37.100669925691314" lon="14.87517057428801"><ele>798.3333333333333</ele><time>2026-04-18T17:06:17Z</time></trkpt><trkpt lat="37.10048115315408" lon="14.87527456354863"><ele>791.6666666666667</ele><time>2026-04-18T17:06:18Z</time></trkpt><trkpt lat="37.10029369830388" lon="14.875431826978563"><ele>785.0</ele><time>2026-04-18T17:06:19Z</time></trkpt><trkpt lat="37.10010544726841" lon="14.875642350798348"><ele>785.0</ele><time>2026-04-18T17:06:20Z</time></trkpt><trkpt lat="37.09991918834108" lon="14.875882394416942"><ele>785.0</ele><time>2026-04-18T17:06:21Z</time></trkpt><trkpt lat="37.09974178287454" lon="14.876117595056042"><ele>780.5</ele><time>2026-04-18T17:06:22Z</time></trkpt><trkpt lat="37.09957133779754" lon="14.876338772290003"><ele>776.0</ele><time>2026-04-18T17:06:23Z</time></trkpt><trkpt lat="37.09940321443084" lon="14.876552759816612"><ele>773.5</ele><time>2026-04-18T17:06:24Z</time></trkpt><trkpt lat="37.09922718344423" lon="14.876774661186724"><ele>771.0</ele><time>2026-04-18T17:06:25Z</time></trkpt><trkpt lat="37.099064968285575" lon="14.87697085797674"><ele>769.3333333333334</ele><time>2026-04-18T17:06:26Z</time></trkpt><trkpt lat="37.09892026714848" lon="14.877154073396104"><ele>767.6666666666667</ele><time>2026-04-18T17:06:27Z</time></trkpt><trkpt lat="37.098795775024634" lon="14.877318184650035"><ele>766.0</ele><time>2026-04-18T17:06:28Z</time></trkpt><trkpt lat="37.098686805065235" lon="14.877488051695794"><ele>765.6666666666667</ele><time>2026-04-18T17:06:29Z</time></trkpt><trkpt lat="37.09860511488982" lon="14.87769202965851"><ele>765.3333333333334</ele><time>2026-04-18T17:06:30Z</time></trkpt><trkpt lat="37.098560452293746" lon="14.877942190187563"><ele>765.0</ele><time>2026-04-18T17:06:31Z</time></trkpt><trkpt lat="37.098551139980636" lon="14.87821836432526"><ele>767.0</ele><time>2026-04-18T17:06:32Z</time></trkpt><trkpt lat="37.09856793053817" lon="14.878504323893157"><ele>769.0</ele><time>2026-04-18T17:06:33Z</time></trkpt><trkpt lat="37.09859954906467" lon="14.878781019725865"><ele>769.0</ele><time>2026-04-18T17:06:34Z</time></trkpt><trkpt lat="37.09862315018728" lon="14.879026269595993"><ele>769.0</ele><time>2026-04-18T17:06:35Z</time></trkpt><trkpt lat="37.09861333169325" lon="14.879268095433396"><ele>769.0</ele><time>2026-04-18T17:06:36Z</time></trkpt><trkpt lat="37.09857293025402" lon="14.879503431267125"><ele>765.6666666666666</ele><time>2026-04-18T17:06:37Z</time></trkpt><trkpt lat="37.098511216530916" lon="14.879730322792756"><ele>762.3333333333333</ele><time>2026-04-18T17:06:38Z</time></trkpt><trkpt lat="37.0984055500954" lon="14.879920999317017"><ele>759.0</ele><time>2026-04-18T17:06:39Z</time></trkpt><trkpt lat="37.098327042049476" lon="14.880132042100565"><ele>756.0</ele><time>2026-04-18T17:06:40Z</time></trkpt><trkpt lat="37.09824836869362" lon="14.880363943872608"><ele>753.0</ele><time>2026-04-18T17:06:41Z</time></trkpt><trkpt lat="37.098223766617906" lon="14.880620111147348"><ele>750.0</ele><time>2026-04-18T17:06:42Z</time></trkpt><trkpt lat="37.09824300621378" lon="14.880870744714413"><ele>748.3333333333334</ele><time>2026-04-18T17:06:43Z</time></trkpt><trkpt lat="37.09826022789462" lon="14.88111259064354"><ele>746.6666666666667</ele><time>2026-04-18T17:06:44Z</time></trkpt><trkpt lat="37.098284043717214" lon="14.881330088895895"><ele>745.0</ele><time>2026-04-18T17:06:45Z</time></trkpt><trkpt lat="37.09829091173512" lon="14.881511061333278"><ele>745.0</ele><time>2026-04-18T17:06:46Z</time></trkpt><trkpt lat="37.09827237109989" lon="14.881676940161306"><ele>745.0</ele><time>2026-04-18T17:06:47Z</time></trkpt><trkpt lat="37.098228079640926" lon="14.881828682985667"><ele>745.0</ele><time>2026-04-18T17:06:48Z</time></trkpt><trkpt lat="37.09812162664746" lon="14.88194525781527"><ele>745.0</ele><time>2026-04-18T17:06:49Z</time></trkpt><trkpt lat="37.09798194026426" lon="14.882020132122376"><ele>737.3333333333334</ele><time>2026-04-18T17:06:50Z</time></trkpt><trkpt lat="37.09783436252173" lon="14.882034490581423"><ele>729.6666666666666</ele><time>2026-04-18T17:06:51Z</time></trkpt><trkpt lat="37.097684319211616" lon="14.881985320618154"><ele>722.0</ele><time>2026-04-18T17:06:52Z</time></trkpt><trkpt lat="37.09754850290416" lon="14.881880782133704"><ele>716.3333333333333</ele><time>2026-04-18T17:06:53Z</time></trkpt><trkpt lat="37.097417276627304" lon="14.881730892334225"><ele>710.6666666666666</ele><time>2026-04-18T17:06:54Z</time></trkpt><trkpt lat="37.09728032686001" lon="14.881560339762844"><ele>705.0</ele><time>2026-04-18T17:06:55Z</time></trkpt><trkpt lat="37.0971353762379" lon="14.881386054128146"><ele>705.0</ele><time>2026-04-18T17:06:56Z</time></trkpt><trkpt lat="37.09698700038344" lon="14.881214213538422"><ele>705.0</ele><time>2026-04-18T17:06:57Z</time></trkpt><trkpt lat="37.09685093426316" lon="14.881049983469923"><ele>705.0</ele><time>2026-04-18T17:06:58Z</time></trkpt><trkpt lat="37.09671951635531" lon="14.880863965753187"><ele>702.0</ele><time>2026-04-18T17:06:59Z</time></trkpt><trkpt lat="37.09660282174384" lon="14.88064840836849"><ele>699.0</ele><time>2026-04-18T17:07:00Z</time></trkpt><trkpt lat="37.09651113938263" lon="14.88040761188266"><ele>696.0</ele><time>2026-04-18T17:07:01Z</time></trkpt><trkpt lat="37.09643476192236" lon="14.880142327212525"><ele>698.3333333333334</ele><time>2026-04-18T17:07:02Z</time></trkpt><trkpt lat="37.09636480572143" lon="14.879878805160333"><ele>700.6666666666667</ele><time>2026-04-18T17:07:03Z</time></trkpt><trkpt lat="37.09629091647446" lon="14.879610119032737"><ele>703.0</ele><time>2026-04-18T17:07:04Z</time></trkpt><trkpt lat="37.09622081157882" lon="14.879356650983478"><ele>705.6666666666667</ele><time>2026-04-18T17:07:05Z</time></trkpt><trkpt lat="37.09615158337032" lon="14.879113876386555"><ele>708.3333333333334</ele><time>2026-04-18T17:07:06Z</time></trkpt><trkpt lat="37.09609024643274" lon="14.878881910756727"><ele>711.0</ele><time>2026-04-18T17:07:07Z</time></trkpt><trkpt lat="37.096056063375016" lon="14.878653328172343"><ele>712.0</ele><time>2026-04-18T17:07:08Z</time></trkpt><trkpt lat="37.09605650157705" lon="14.878426549735968"><ele>713.0</ele><time>2026-04-18T17:07:09Z</time></trkpt><trkpt lat="37.096075706267605" lon="14.878204566829764"><ele>714.0</ele><time>2026-04-18T17:07:10Z</time></trkpt><trkpt lat="37.0960823412975" lon="14.877976607561559"><ele>714.0</ele><time>2026-04-18T17:07:11Z</time></trkpt><trkpt lat="37.09606746133602" lon="14.87775738624993"><ele>714.0</ele><time>2026-04-18T17:07:12Z</time></trkpt><trkpt lat="37.09602193950858" lon="14.877543993465302"><ele>714.0</ele><time>2026-04-18T17:07:13Z</time></trkpt><trkpt lat="37.09594447860679" lon="14.877332132976052"><ele>714.3333333333334</ele><time>2026-04-18T17:07:14Z</time></trkpt><trkpt lat="37.095835750164106" lon="14.87713538761892"><ele>714.6666666666667</ele><time>2026-04-18T17:07:15Z</time></trkpt><trkpt lat="37.09569547469793" lon="14.876947618534919"><ele>715.0</ele><time>2026-04-18T17:07:16Z</time></trkpt><trkpt lat="37.095516809641104" lon="14.876764453180895"><ele>713.0</ele><time>2026-04-18T17:07:17Z</time></trkpt><trkpt lat="37.095307354393945" lon="14.876594190249277"><ele>711.0</ele><time>2026-04-18T17:07:18Z</time></trkpt><trkpt lat="37.09508252237645" lon="14.876428690048934"><ele>721.0</ele><time>2026-04-18T17:07:19Z</time></trkpt><trkpt lat="37.09487240294472" lon="14.876264969684536"><ele>731.0</ele><time>2026-04-18T17:07:20Z</time></trkpt><trkpt lat="37.09467077039521" lon="14.876096114570592"><ele>719.0</ele><time>2026-04-18T17:07:21Z</time></trkpt><trkpt lat="37.09445391034531" lon="14.875918848134855"><ele>707.0</ele><time>2026-04-18T17:07:22Z</time></trkpt><trkpt lat="37.09426414774417" lon="14.87577021830039"><ele>708.3333333333333</ele><time>2026-04-18T17:07:23Z</time></trkpt><trkpt lat="37.09406707076307" lon="14.87562121532988"><ele>709.6666666666666</ele><time>2026-04-18T17:07:24Z</time></trkpt><trkpt lat="37.093876522897425" lon="14.875527745897298"><ele>711.0</ele><time>2026-04-18T17:07:25Z</time></trkpt><trkpt lat="37.093680848112704" lon="14.875460578999522"><ele>711.0</ele><time>2026-04-18T17:07:26Z</time></trkpt><trkpt lat="37.09344998678193" lon="14.875429396951183"><ele>711.0</ele><time>2026-04-18T17:07:27Z</time></trkpt><trkpt lat="37.093238811860715" lon="14.875433110169364"><ele>711.0</ele><time>2026-04-18T17:07:28Z</time></trkpt><trkpt lat="37.09302586250459" lon="14.875447638455304"><ele>708.6666666666666</ele><time>2026-04-18T17:07:29Z</time></trkpt><trkpt lat="37.09283251672363" lon="14.875489695007095"><ele>706.3333333333333</ele><time>2026-04-18T17:07:30Z</time></trkpt><trkpt lat="37.092641890735415" lon="14.875550633213368"><ele>704.0</ele><time>2026-04-18T17:07:31Z</time></trkpt><trkpt lat="37.09245554413748" lon="14.87561027263411"><ele>703.0</ele><time>2026-04-18T17:07:32Z</time></trkpt><trkpt lat="37.09227448846604" lon="14.87562899791336"><ele>702.0</ele><time>2026-04-18T17:07:33Z</time></trkpt><trkpt lat="37.09207626944844" lon="14.875604248267207"><ele>701.0</ele><time>2026-04-18T17:07:34Z</time></trkpt><trkpt lat="37.09187793593354" lon="14.87553730138611"><ele>701.0</ele><time>2026-04-18T17:07:35Z</time></trkpt><trkpt lat="37.09168957644303" lon="14.875433646792201"><ele>701.0</ele><time>2026-04-18T17:07:36Z</time></trkpt><trkpt lat="37.091512282038465" lon="14.87530312697749"><ele>701.0</ele><time>2026-04-18T17:07:37Z</time></trkpt><trkpt lat="37.09136379645143" lon="14.875213340601421"><ele>701.6666666666666</ele><time>2026-04-18T17:07:38Z</time></trkpt><trkpt lat="37.091200011275234" lon="14.875138571195818"><ele>702.3333333333334</ele><time>2026-04-18T17:07:39Z</time></trkpt><trkpt lat="37.09104241540834" lon="14.87504637777625"><ele>703.0</ele><time>2026-04-18T17:07:40Z</time></trkpt><trkpt lat="37.090823218325745" lon="14.875106267460962"><ele>700.0</ele><time>2026-04-18T17:07:41Z</time></trkpt><trkpt lat="37.09062777926114" lon="14.87514880125886"><ele>697.0</ele><time>2026-04-18T17:07:42Z</time></trkpt><trkpt lat="37.09044021717412" lon="14.875229996048217"><ele>694.0</ele><time>2026-04-18T17:07:43Z</time></trkpt><trkpt lat="37.090257967052885" lon="14.875330176264605"><ele>694.0</ele><time>2026-04-18T17:07:44Z</time></trkpt><trkpt lat="37.090077678389044" lon="14.875455595255817"><ele>694.0</ele><time>2026-04-18T17:07:45Z</time></trkpt><trkpt lat="37.08989860808749" lon="14.875519396124185"><ele>694.0</ele><time>2026-04-18T17:07:46Z</time></trkpt><trkpt lat="37.08971772874048" lon="14.875551952002533"><ele>691.3333333333334</ele><time>2026-04-18T17:07:47Z</time></trkpt><trkpt lat="37.08952862924571" lon="14.875570305485295"><ele>688.6666666666666</ele><time>2026-04-18T17:07:48Z</time></trkpt><trkpt lat="37.089326843476115" lon="14.875581245875491"><ele>686.0</ele><time>2026-04-18T17:07:49Z</time></trkpt><trkpt lat="37.08910530134212" lon="14.875596766576193"><ele>680.5</ele><time>2026-04-18T17:07:50Z</time></trkpt><trkpt lat="37.088869722515156" lon="14.875616424564779"><ele>675.0</ele><time>2026-04-18T17:07:51Z</time></trkpt><trkpt lat="37.088630610561005" lon="14.875634113969536"><ele>675.0</ele><time>2026-04-18T17:07:52Z</time></trkpt><trkpt lat="37.088398618956504" lon="14.875644217377095"><ele>675.0</ele><time>2026-04-18T17:07:53Z</time></trkpt><trkpt lat="37.088176915119824" lon="14.875650172873472"><ele>673.6666666666666</ele><time>2026-04-18T17:07:54Z</time></trkpt><trkpt lat="37.087963648862846" lon="14.875679416711142"><ele>672.3333333333333</ele><time>2026-04-18T17:07:55Z</time></trkpt><trkpt lat="37.08775038338346" lon="14.875754471769142"><ele>671.0</ele><time>2026-04-18T17:07:56Z</time></trkpt><trkpt lat="37.08753654066375" lon="14.875874506876452"><ele>670.5</ele><time>2026-04-18T17:07:57Z</time></trkpt><trkpt lat="37.087338545968684" lon="14.876028408602098"><ele>670.0</ele><time>2026-04-18T17:07:58Z</time></trkpt><trkpt lat="37.08715415936985" lon="14.87620240514184"><ele>670.0</ele><time>2026-04-18T17:07:59Z</time></trkpt><trkpt lat="37.086964227627334" lon="14.876363764631508"><ele>670.0</ele><time>2026-04-18T17:08:00Z</time></trkpt><trkpt lat="37.08675576407021" lon="14.876496600322492"><ele>663.0</ele><time>2026-04-18T17:08:01Z</time></trkpt><trkpt lat="37.08652362996426" lon="14.876594823247645"><ele>656.0</ele><time>2026-04-18T17:08:02Z</time></trkpt><trkpt lat="37.08629199044201" lon="14.876668378383926"><ele>656.0</ele><time>2026-04-18T17:08:03Z</time></trkpt><trkpt lat="37.0860751791308" lon="14.876738197992124"><ele>656.0</ele><time>2026-04-18T17:08:04Z</time></trkpt><trkpt lat="37.08586916722934" lon="14.876822783858067"><ele>656.0</ele><time>2026-04-18T17:08:05Z</time></trkpt><trkpt lat="37.08566066166499" lon="14.87694209062011"><ele>658.0</ele><time>2026-04-18T17:08:06Z</time></trkpt><trkpt lat="37.085453042629176" lon="14.877087806066294"><ele>660.0</ele><time>2026-04-18T17:08:07Z</time></trkpt><trkpt lat="37.08523966278444" lon="14.87725800435091"><ele>660.0</ele><time>2026-04-18T17:08:08Z</time></trkpt><trkpt lat="37.085015691468726" lon="14.877439499760946"><ele>660.0</ele><time>2026-04-18T17:08:09Z</time></trkpt><trkpt lat="37.084792638781245" lon="14.877612829135833"><ele>659.5</ele><time>2026-04-18T17:08:10Z</time></trkpt><trkpt lat="37.08458375837339" lon="14.877776016045695"><ele>659.0</ele><time>2026-04-18T17:08:11Z</time></trkpt><trkpt lat="37.08438352702119" lon="14.877929012920168"><ele>659.0</ele><time>2026-04-18T17:08:12Z</time></trkpt><trkpt lat="37.084183055148536" lon="14.878085756871087"><ele>659.0</ele><time>2026-04-18T17:08:13Z</time></trkpt><trkpt lat="37.083983770239854" lon="14.878246419169981"><ele>655.0</ele><time>2026-04-18T17:08:14Z</time></trkpt><trkpt lat="37.083787114956834" lon="14.878411020414102"><ele>651.0</ele><time>2026-04-18T17:08:15Z</time></trkpt><trkpt lat="37.08360042264683" lon="14.878594313701429"><ele>651.0</ele><time>2026-04-18T17:08:16Z</time></trkpt><trkpt lat="37.083429463000186" lon="14.878805134914618"><ele>651.0</ele><time>2026-04-18T17:08:17Z</time></trkpt><trkpt lat="37.08327600637742" lon="14.879030921181194"><ele>648.5</ele><time>2026-04-18T17:08:18Z</time></trkpt><trkpt lat="37.08312280382166" lon="14.879260192174597"><ele>646.0</ele><time>2026-04-18T17:08:19Z</time></trkpt><trkpt lat="37.08296003708368" lon="14.879477407751832"><ele>646.0</ele><time>2026-04-18T17:08:20Z</time></trkpt><trkpt lat="37.08277554114679" lon="14.879679871712028"><ele>646.0</ele><time>2026-04-18T17:08:21Z</time></trkpt><trkpt lat="37.08256563112046" lon="14.879866190403115"><ele>644.0</ele><time>2026-04-18T17:08:22Z</time></trkpt><trkpt lat="37.082329469572244" lon="14.88003113875404"><ele>642.0</ele><time>2026-04-18T17:08:23Z</time></trkpt><trkpt lat="37.08208524960812" lon="14.88019410203741"><ele>642.0</ele><time>2026-04-18T17:08:24Z</time></trkpt><trkpt lat="37.08184378560995" lon="14.880361858539354"><ele>642.0</ele><time>2026-04-18T17:08:25Z</time></trkpt><trkpt lat="37.08161859713375" lon="14.88052142584978"><ele>633.5</ele><time>2026-04-18T17:08:26Z</time></trkpt><trkpt lat="37.08140387151454" lon="14.88067651296561"><ele>625.0</ele><time>2026-04-18T17:08:27Z</time></trkpt><trkpt lat="37.08119585457514" lon="14.880824982155783"><ele>635.0</ele><time>2026-04-18T17:08:28Z</time></trkpt><trkpt lat="37.080992638386604" lon="14.88097002881392"><ele>645.0</ele><time>2026-04-18T17:08:29Z</time></trkpt><trkpt lat="37.08079938263433" lon="14.881111186712921"><ele>637.3333333333334</ele><time>2026-04-18T17:08:30Z</time></trkpt><trkpt lat="37.08062163249488" lon="14.881246734957223"><ele>629.6666666666667</ele><time>2026-04-18T17:08:31Z</time></trkpt><trkpt lat="37.080466562840876" lon="14.88139717673009"><ele>622.0</ele><time>2026-04-18T17:08:32Z</time></trkpt><trkpt lat="37.08032565137712" lon="14.881589485281872"><ele>626.0</ele><time>2026-04-18T17:08:33Z</time></trkpt><trkpt lat="37.08021290096998" lon="14.88183257710237"><ele>630.0</ele><time>2026-04-18T17:08:34Z</time></trkpt><trkpt lat="37.080118395892235" lon="14.882110709111151"><ele>630.0</ele><time>2026-04-18T17:08:35Z</time></trkpt><trkpt lat="37.080042588628274" lon="14.882377401577394"><ele>630.0</ele><time>2026-04-18T17:08:36Z</time></trkpt><trkpt lat="37.07995924216441" lon="14.88261355340815"><ele>630.0</ele><time>2026-04-18T17:08:37Z</time></trkpt><trkpt lat="37.079847978537394" lon="14.88281583347955"><ele>630.0</ele><time>2026-04-18T17:08:38Z</time></trkpt><trkpt lat="37.079698742774156" lon="14.88298498682085"><ele>630.0</ele><time>2026-04-18T17:08:39Z</time></trkpt><trkpt lat="37.07951854646509" lon="14.883091226469986"><ele>630.0</ele><time>2026-04-18T17:08:40Z</time></trkpt><trkpt lat="37.07933837163961" lon="14.883151385297388"><ele>630.0</ele><time>2026-04-18T17:08:41Z</time></trkpt><trkpt lat="37.07916025108293" lon="14.88314431705946"><ele>630.0</ele><time>2026-04-18T17:08:42Z</time></trkpt><trkpt lat="37.07895309651642" lon="14.883085791254606"><ele>630.0</ele><time>2026-04-18T17:08:43Z</time></trkpt><trkpt lat="37.0787115404419" lon="14.883018295363946"><ele>629.0</ele><time>2026-04-18T17:08:44Z</time></trkpt><trkpt lat="37.07845552676893" lon="14.88294649697126"><ele>628.0</ele><time>2026-04-18T17:08:45Z</time></trkpt><trkpt lat="37.07820696166158" lon="14.882885870703152"><ele>622.0</ele><time>2026-04-18T17:08:46Z</time></trkpt><trkpt lat="37.07796668241869" lon="14.882835859396836"><ele>616.0</ele><time>2026-04-18T17:08:47Z</time></trkpt><trkpt lat="37.07773868953699" lon="14.882785748472857"><ele>616.0</ele><time>2026-04-18T17:08:48Z</time></trkpt><trkpt lat="37.07751620621898" lon="14.88273699858603"><ele>616.0</ele><time>2026-04-18T17:08:49Z</time></trkpt><trkpt lat="37.07729313800759" lon="14.882688476976325"><ele>613.6666666666667</ele><time>2026-04-18T17:08:50Z</time></trkpt><trkpt lat="37.07707952967541" lon="14.882642218506136"><ele>611.3333333333334</ele><time>2026-04-18T17:08:51Z</time></trkpt><trkpt lat="37.076867556939014" lon="14.88259281304089"><ele>609.0</ele><time>2026-04-18T17:08:52Z</time></trkpt><trkpt lat="37.07665726515657" lon="14.882545681692433"><ele>605.3333333333334</ele><time>2026-04-18T17:08:53Z</time></trkpt><trkpt lat="37.076448886855175" lon="14.882505619465539"><ele>601.6666666666667</ele><time>2026-04-18T17:08:54Z</time></trkpt><trkpt lat="37.07624210633808" lon="14.882488783060616"><ele>598.0</ele><time>2026-04-18T17:08:55Z</time></trkpt><trkpt lat="37.07604066140048" lon="14.882508235413901"><ele>598.0</ele><time>2026-04-18T17:08:56Z</time></trkpt><trkpt lat="37.075843538858" lon="14.882566906862603"><ele>598.0</ele><time>2026-04-18T17:08:57Z</time></trkpt><trkpt lat="37.07565081168863" lon="14.882640380796857"><ele>598.0</ele><time>2026-04-18T17:08:58Z</time></trkpt><trkpt lat="37.07547608953587" lon="14.882741156746565"><ele>596.3333333333334</ele><time>2026-04-18T17:08:59Z</time></trkpt><trkpt lat="37.07530442755258" lon="14.882858645581429"><ele>594.6666666666666</ele><time>2026-04-18T17:09:00Z</time></trkpt><trkpt lat="37.07514419281946" lon="14.882987990372971"><ele>593.0</ele><time>2026-04-18T17:09:01Z</time></trkpt><trkpt lat="37.07498673879099" lon="14.883133933548395"><ele>587.3333333333333</ele><time>2026-04-18T17:09:02Z</time></trkpt><trkpt lat="37.074836511173764" lon="14.88328727574886"><ele>581.6666666666666</ele><time>2026-04-18T17:09:03Z</time></trkpt><trkpt lat="37.07470354649322" lon="14.883456835347687"><ele>576.0</ele><time>2026-04-18T17:09:04Z</time></trkpt><trkpt lat="37.07459839193761" lon="14.88364812690794"><ele>576.0</ele><time>2026-04-18T17:09:05Z</time></trkpt><trkpt lat="37.07451721713937" lon="14.883848697857417"><ele>576.0</ele><time>2026-04-18T17:09:06Z</time></trkpt><trkpt lat="37.0744614479603" lon="14.8840604125859"><ele>576.0</ele><time>2026-04-18T17:09:07Z</time></trkpt><trkpt lat="37.07442082334176" lon="14.884281227449573"><ele>576.0</ele><time>2026-04-18T17:09:08Z</time></trkpt><trkpt lat="37.07440694416959" lon="14.88453230791417"><ele>576.0</ele><time>2026-04-18T17:09:09Z</time></trkpt><trkpt lat="37.07442007414651" lon="14.884816643227753"><ele>576.0</ele><time>2026-04-18T17:09:10Z</time></trkpt><trkpt lat="37.07441943065487" lon="14.885126040742364"><ele>573.5</ele><time>2026-04-18T17:09:11Z</time></trkpt><trkpt lat="37.0744332941878" lon="14.885434508045076"><ele>571.0</ele><time>2026-04-18T17:09:12Z</time></trkpt><trkpt lat="37.07444749681734" lon="14.885734798596623"><ele>567.5</ele><time>2026-04-18T17:09:13Z</time></trkpt><trkpt lat="37.07446207343432" lon="14.886042179133613"><ele>564.0</ele><time>2026-04-18T17:09:14Z</time></trkpt><trkpt lat="37.07447754487102" lon="14.886360340791626"><ele>564.0</ele><time>2026-04-18T17:09:15Z</time></trkpt><trkpt lat="37.07449340306493" lon="14.886680454898029"><ele>564.0</ele><time>2026-04-18T17:09:16Z</time></trkpt><trkpt lat="37.07450894416659" lon="14.886981712066662"><ele>562.5</ele><time>2026-04-18T17:09:17Z</time></trkpt><trkpt lat="37.07452403684571" lon="14.887271513248784"><ele>561.0</ele><time>2026-04-18T17:09:18Z</time></trkpt><trkpt lat="37.07453581853202" lon="14.887557204752571"><ele>560.6666666666666</ele><time>2026-04-18T17:09:19Z</time></trkpt><trkpt lat="37.07453930906628" lon="14.88783804676398"><ele>560.3333333333333</ele><time>2026-04-18T17:09:20Z</time></trkpt><trkpt lat="37.074533201821545" lon="14.888106503831326"><ele>560.0</ele><time>2026-04-18T17:09:21Z</time></trkpt><trkpt lat="37.07451353420784" lon="14.888364644993402"><ele>560.3333333333333</ele><time>2026-04-18T17:09:22Z</time></trkpt><trkpt lat="37.074484704620396" lon="14.888627166678956"><ele>560.6666666666666</ele><time>2026-04-18T17:09:23Z</time></trkpt><trkpt lat="37.07445274697733" lon="14.888877248441066"><ele>561.0</ele><time>2026-04-18T17:09:24Z</time></trkpt><trkpt lat="37.07441725452886" lon="14.889111551614453"><ele>560.6666666666666</ele><time>2026-04-18T17:09:25Z</time></trkpt><trkpt lat="37.07438480745529" lon="14.889323133924734"><ele>560.3333333333333</ele><time>2026-04-18T17:09:26Z</time></trkpt><trkpt lat="37.07435758516495" lon="14.88950591960572"><ele>560.0</ele><time>2026-04-18T17:09:27Z</time></trkpt><trkpt lat="37.07433245172488" lon="14.889672737745434"><ele>560.0</ele><time>2026-04-18T17:09:28Z</time></trkpt><trkpt lat="37.074305764449406" lon="14.88980810035357"><ele>560.0</ele><time>2026-04-18T17:09:29Z</time></trkpt><trkpt lat="37.07427402924343" lon="14.889912283264326"><ele>560.0</ele><time>2026-04-18T17:09:30Z</time></trkpt><trkpt lat="37.07424160300736" lon="14.890016498092413"><ele>560.0</ele><time>2026-04-18T17:09:31Z</time></trkpt><trkpt lat="37.07414753014656" lon="14.890075040547279"><ele>560.0</ele><time>2026-04-18T17:09:32Z</time></trkpt><trkpt lat="37.074035893674726" lon="14.890096608536538"><ele>555.8</ele><time>2026-04-18T17:09:33Z</time></trkpt><trkpt lat="37.07392605964767" lon="14.890069568754678"><ele>551.6</ele><time>2026-04-18T17:09:34Z</time></trkpt><trkpt lat="37.07383347596704" lon="14.889999800218552"><ele>547.4</ele><time>2026-04-18T17:09:35Z</time></trkpt><trkpt lat="37.07376193816061" lon="14.889895250509126"><ele>543.2</ele><time>2026-04-18T17:09:36Z</time></trkpt><trkpt lat="37.07372408178296" lon="14.889770239059592"><ele>539.0</ele><time>2026-04-18T17:09:37Z</time></trkpt><trkpt lat="37.073724214571214" lon="14.889630946893426"><ele>539.0</ele><time>2026-04-18T17:09:38Z</time></trkpt><trkpt lat="37.07374640796565" lon="14.889442985517265"><ele>539.0</ele><time>2026-04-18T17:09:39Z</time></trkpt><trkpt lat="37.073776231142226" lon="14.889235930944439"><ele>539.0</ele><time>2026-04-18T17:09:40Z</time></trkpt><trkpt lat="37.07379066735555" lon="14.888986445330223"><ele>539.0</ele><time>2026-04-18T17:09:41Z</time></trkpt><trkpt lat="37.07380301358177" lon="14.888688753829305"><ele>539.0</ele><time>2026-04-18T17:09:42Z</time></trkpt><trkpt lat="37.07382673390872" lon="14.888378885622771"><ele>538.6666666666666</ele><time>2026-04-18T17:09:43Z</time></trkpt><trkpt lat="37.073861192760525" lon="14.888102409438552"><ele>538.3333333333334</ele><time>2026-04-18T17:09:44Z</time></trkpt><trkpt lat="37.07389466073294" lon="14.88785345517042"><ele>538.0</ele><time>2026-04-18T17:09:45Z</time></trkpt><trkpt lat="37.07390999956338" lon="14.88762963995835"><ele>538.6666666666667</ele><time>2026-04-18T17:09:46Z</time></trkpt><trkpt lat="37.073895545906865" lon="14.88742811615443"><ele>539.3333333333334</ele><time>2026-04-18T17:09:47Z</time></trkpt><trkpt lat="37.0738437633914" lon="14.887235986335998"><ele>540.0</ele><time>2026-04-18T17:09:48Z</time></trkpt><trkpt lat="37.073752937725814" lon="14.88706534362751"><ele>540.0</ele><time>2026-04-18T17:09:49Z</time></trkpt><trkpt lat="37.07362021057557" lon="14.886925954547387"><ele>540.0</ele><time>2026-04-18T17:09:50Z</time></trkpt><trkpt lat="37.073455559944364" lon="14.886822684378458"><ele>540.0</ele><time>2026-04-18T17:09:51Z</time></trkpt><trkpt lat="37.07327440204358" lon="14.886765417081412"><ele>540.0</ele><time>2026-04-18T17:09:52Z</time></trkpt><trkpt lat="37.07308760503236" lon="14.886744254237897"><ele>540.0</ele><time>2026-04-18T17:09:53Z</time></trkpt><trkpt lat="37.0729127566562" lon="14.886716090628704"><ele>540.0</ele><time>2026-04-18T17:09:54Z</time></trkpt><trkpt lat="37.07273949769059" lon="14.886645590691181"><ele>540.0</ele><time>2026-04-18T17:09:55Z</time></trkpt><trkpt lat="37.07256616008962" lon="14.886520637786932"><ele>540.0</ele><time>2026-04-18T17:09:56Z</time></trkpt><trkpt lat="37.072391379883605" lon="14.88637232607856"><ele>540.0</ele><time>2026-04-18T17:09:57Z</time></trkpt><trkpt lat="37.07223320492492" lon="14.886193222217875"><ele>536.6666666666666</ele><time>2026-04-18T17:09:58Z</time></trkpt><trkpt lat="37.07209591940392" lon="14.88597769935121"><ele>533.3333333333333</ele><time>2026-04-18T17:09:59Z</time></trkpt><trkpt lat="37.07198473797599" lon="14.885730740326125"><ele>530.0</ele><time>2026-04-18T17:10:00Z</time></trkpt><trkpt lat="37.071893606340346" lon="14.885461378512383"><ele>530.0</ele><time>2026-04-18T17:10:01Z</time></trkpt><trkpt lat="37.07182004113461" lon="14.885169337405703"><ele>530.0</ele><time>2026-04-18T17:10:02Z</time></trkpt><trkpt lat="37.07174054435298" lon="14.884846127492596"><ele>533.5</ele><time>2026-04-18T17:10:03Z</time></trkpt><trkpt lat="37.07164661483009" lon="14.884514505151701"><ele>537.0</ele><time>2026-04-18T17:10:04Z</time></trkpt><trkpt lat="37.071546311125296" lon="14.884178743089091"><ele>525.5</ele><time>2026-04-18T17:10:05Z</time></trkpt><trkpt lat="37.07145496294316" lon="14.883859457466325"><ele>514.0</ele><time>2026-04-18T17:10:06Z</time></trkpt><trkpt lat="37.07137108551718" lon="14.883562474866661"><ele>514.5</ele><time>2026-04-18T17:10:07Z</time></trkpt><trkpt lat="37.07128776378192" lon="14.883278070551768"><ele>515.0</ele><time>2026-04-18T17:10:08Z</time></trkpt><trkpt lat="37.07121039327347" lon="14.882990256034656"><ele>515.0</ele><time>2026-04-18T17:10:09Z</time></trkpt><trkpt lat="37.07114825402961" lon="14.8827059783301"><ele>515.0</ele><time>2026-04-18T17:10:10Z</time></trkpt><trkpt lat="37.0711084540123" lon="14.88240660321535"><ele>516.5</ele><time>2026-04-18T17:10:11Z</time></trkpt><trkpt lat="37.07109176451895" lon="14.882088193871935"><ele>518.0</ele><time>2026-04-18T17:10:12Z</time></trkpt><trkpt lat="37.07108504502258" lon="14.881769190718334"><ele>519.5</ele><time>2026-04-18T17:10:13Z</time></trkpt><trkpt lat="37.071076020315594" lon="14.881448601621857"><ele>521.0</ele><time>2026-04-18T17:10:14Z</time></trkpt><trkpt lat="37.071056996908354" lon="14.881126546356636"><ele>519.0</ele><time>2026-04-18T17:10:15Z</time></trkpt><trkpt lat="37.071028411437204" lon="14.880789145227505"><ele>517.0</ele><time>2026-04-18T17:10:16Z</time></trkpt><trkpt lat="37.07098986572637" lon="14.880447107659647"><ele>517.0</ele><time>2026-04-18T17:10:17Z</time></trkpt><trkpt lat="37.070952029873766" lon="14.880122066877345"><ele>517.0</ele><time>2026-04-18T17:10:18Z</time></trkpt><trkpt lat="37.07090609061296" lon="14.879815245545123"><ele>515.5</ele><time>2026-04-18T17:10:19Z</time></trkpt><trkpt lat="37.07084761188354" lon="14.879519757076139"><ele>514.0</ele><time>2026-04-18T17:10:20Z</time></trkpt><trkpt lat="37.07077747851649" lon="14.87922287797525"><ele>508.0</ele><time>2026-04-18T17:10:21Z</time></trkpt><trkpt lat="37.07068914437532" lon="14.87892050339182"><ele>502.0</ele><time>2026-04-18T17:10:22Z</time></trkpt><trkpt lat="37.07058501385617" lon="14.878617021836453"><ele>504.5</ele><time>2026-04-18T17:10:23Z</time></trkpt><trkpt lat="37.0704583720337" lon="14.878313323095814"><ele>507.0</ele><time>2026-04-18T17:10:24Z</time></trkpt><trkpt lat="37.070312693291555" lon="14.87802574347733"><ele>507.0</ele><time>2026-04-18T17:10:25Z</time></trkpt><trkpt lat="37.07014810727938" lon="14.877759655291799"><ele>507.0</ele><time>2026-04-18T17:10:26Z</time></trkpt><trkpt lat="37.069961992867654" lon="14.87751714211657"><ele>510.5</ele><time>2026-04-18T17:10:27Z</time></trkpt><trkpt lat="37.0697624089113" lon="14.877306718233541"><ele>514.0</ele><time>2026-04-18T17:10:28Z</time></trkpt><trkpt lat="37.069556601735535" lon="14.87712621417018"><ele>514.0</ele><time>2026-04-18T17:10:29Z</time></trkpt><trkpt lat="37.069341122150306" lon="14.876968180449392"><ele>514.0</ele><time>2026-04-18T17:10:30Z</time></trkpt><trkpt lat="37.06910666015543" lon="14.876832073619058"><ele>520.0</ele><time>2026-04-18T17:10:31Z</time></trkpt><trkpt lat="37.06885901250002" lon="14.87672724038246"><ele>526.0</ele><time>2026-04-18T17:10:32Z</time></trkpt><trkpt lat="37.06860283031746" lon="14.876651103323876"><ele>526.0</ele><time>2026-04-18T17:10:33Z</time></trkpt><trkpt lat="37.06834734280892" lon="14.876600782363075"><ele>526.0</ele><time>2026-04-18T17:10:34Z</time></trkpt><trkpt lat="37.068093267138515" lon="14.87658011505529"><ele>525.0</ele><time>2026-04-18T17:10:35Z</time></trkpt><trkpt lat="37.06782308221048" lon="14.876592909817793"><ele>524.0</ele><time>2026-04-18T17:10:36Z</time></trkpt><trkpt lat="37.067554036323436" lon="14.876646224617163"><ele>525.0</ele><time>2026-04-18T17:10:37Z</time></trkpt><trkpt lat="37.06728751243538" lon="14.876730412859473"><ele>526.0</ele><time>2026-04-18T17:10:38Z</time></trkpt><trkpt lat="37.067020027753664" lon="14.876766256060536"><ele>531.0</ele><time>2026-04-18T17:10:39Z</time></trkpt><trkpt lat="37.06677788179153" lon="14.876989013472418"><ele>536.0</ele><time>2026-04-18T17:10:40Z</time></trkpt><trkpt lat="37.06652759123483" lon="14.877176507251473"><ele>538.5</ele><time>2026-04-18T17:10:41Z</time></trkpt><trkpt lat="37.06629806591214" lon="14.877394639375455"><ele>541.0</ele><time>2026-04-18T17:10:42Z</time></trkpt><trkpt lat="37.06608553931756" lon="14.877633572447639"><ele>541.5</ele><time>2026-04-18T17:10:43Z</time></trkpt><trkpt lat="37.065897019694255" lon="14.877883417808375"><ele>542.0</ele><time>2026-04-18T17:10:44Z</time></trkpt><trkpt lat="37.06571886988107" lon="14.87814679236503"><ele>544.5</ele><time>2026-04-18T17:10:45Z</time></trkpt><trkpt lat="37.06555050606828" lon="14.87842238291389"><ele>547.0</ele><time>2026-04-18T17:10:46Z</time></trkpt><trkpt lat="37.06538989653085" lon="14.878714231717023"><ele>547.0</ele><time>2026-04-18T17:10:47Z</time></trkpt><trkpt lat="37.0652320170872" lon="14.879025234394724"><ele>547.0</ele><time>2026-04-18T17:10:48Z</time></trkpt><trkpt lat="37.065079695495314" lon="14.87934334071028"><ele>550.0</ele><time>2026-04-18T17:10:49Z</time></trkpt><trkpt lat="37.06492405869813" lon="14.879666343083386"><ele>553.0</ele><time>2026-04-18T17:10:50Z</time></trkpt><trkpt lat="37.06476490335508" lon="14.879994531203993"><ele>555.0</ele><time>2026-04-18T17:10:51Z</time></trkpt><trkpt lat="37.064600219876915" lon="14.880329761501407"><ele>557.0</ele><time>2026-04-18T17:10:52Z</time></trkpt><trkpt lat="37.06443379601392" lon="14.880666822352072"><ele>556.5</ele><time>2026-04-18T17:10:53Z</time></trkpt><trkpt lat="37.064270418936786" lon="14.880998150899448"><ele>556.0</ele><time>2026-04-18T17:10:54Z</time></trkpt><trkpt lat="37.064106809140206" lon="14.881316245204271"><ele>562.5</ele><time>2026-04-18T17:10:55Z</time></trkpt><trkpt lat="37.06395276290268" lon="14.881601754197494"><ele>569.0</ele><time>2026-04-18T17:10:56Z</time></trkpt><trkpt lat="37.06381201007436" lon="14.881861230283613"><ele>569.0</ele><time>2026-04-18T17:10:57Z</time></trkpt><trkpt lat="37.06368077771629" lon="14.882102607195634"><ele>569.0</ele><time>2026-04-18T17:10:58Z</time></trkpt><trkpt lat="37.063558304953546" lon="14.882332750326423"><ele>569.0</ele><time>2026-04-18T17:10:59Z</time></trkpt><trkpt lat="37.063438724794366" lon="14.88256491134295"><ele>569.0</ele><time>2026-04-18T17:11:00Z</time></trkpt><trkpt lat="37.06331788044745" lon="14.88279090630166"><ele>569.0</ele><time>2026-04-18T17:11:01Z</time></trkpt><trkpt lat="37.06320316974677" lon="14.883015784490349"><ele>572.3333333333333</ele><time>2026-04-18T17:11:02Z</time></trkpt><trkpt lat="37.06308536990529" lon="14.883233157860001"><ele>575.6666666666666</ele><time>2026-04-18T17:11:03Z</time></trkpt><trkpt lat="37.0629756688352" lon="14.883447704758293"><ele>579.0</ele><time>2026-04-18T17:11:04Z</time></trkpt><trkpt lat="37.0628765905543" lon="14.883670486908958"><ele>579.0</ele><time>2026-04-18T17:11:05Z</time></trkpt><trkpt lat="37.06280930497246" lon="14.883895169271522"><ele>579.0</ele><time>2026-04-18T17:11:06Z</time></trkpt><trkpt lat="37.06278054709643" lon="14.884128278143459"><ele>579.0</ele><time>2026-04-18T17:11:07Z</time></trkpt><trkpt lat="37.06279422682578" lon="14.884370722443412"><ele>581.5</ele><time>2026-04-18T17:11:08Z</time></trkpt><trkpt lat="37.062852544407235" lon="14.884627848268813"><ele>584.0</ele><time>2026-04-18T17:11:09Z</time></trkpt><trkpt lat="37.0629421367149" lon="14.884903982590247"><ele>587.5</ele><time>2026-04-18T17:11:10Z</time></trkpt><trkpt lat="37.06305706485093" lon="14.885179238250862"><ele>591.0</ele><time>2026-04-18T17:11:11Z</time></trkpt><trkpt lat="37.0631745825971" lon="14.885460053646492"><ele>591.0</ele><time>2026-04-18T17:11:12Z</time></trkpt><trkpt lat="37.06329090696316" lon="14.885757255151258"><ele>591.0</ele><time>2026-04-18T17:11:13Z</time></trkpt><trkpt lat="37.06340461784019" lon="14.886064185334387"><ele>591.0</ele><time>2026-04-18T17:11:14Z</time></trkpt><trkpt lat="37.06352170268634" lon="14.88637552387834"><ele>591.0</ele><time>2026-04-18T17:11:15Z</time></trkpt><trkpt lat="37.063641616981926" lon="14.886689496185971"><ele>594.0</ele><time>2026-04-18T17:11:16Z</time></trkpt><trkpt lat="37.06375704986115" lon="14.886998480956684"><ele>597.0</ele><time>2026-04-18T17:11:17Z</time></trkpt><trkpt lat="37.06386172571026" lon="14.88728257084311"><ele>597.0</ele><time>2026-04-18T17:11:18Z</time></trkpt><trkpt lat="37.06396647452775" lon="14.887549143197022"><ele>597.0</ele><time>2026-04-18T17:11:19Z</time></trkpt><trkpt lat="37.064082953969965" lon="14.887801208617782"><ele>594.5</ele><time>2026-04-18T17:11:20Z</time></trkpt><trkpt lat="37.06421880964489" lon="14.888043709721687"><ele>592.0</ele><time>2026-04-18T17:11:21Z</time></trkpt><trkpt lat="37.06437882322446" lon="14.888266465243571"><ele>603.5</ele><time>2026-04-18T17:11:22Z</time></trkpt><trkpt lat="37.06455697771178" lon="14.888489177584725"><ele>615.0</ele><time>2026-04-18T17:11:23Z</time></trkpt><trkpt lat="37.064740523747" lon="14.888707856595692"><ele>615.0</ele><time>2026-04-18T17:11:24Z</time></trkpt><trkpt lat="37.064916434336645" lon="14.88892803279992"><ele>615.0</ele><time>2026-04-18T17:11:25Z</time></trkpt><trkpt lat="37.065086943427026" lon="14.889141533127095"><ele>617.5</ele><time>2026-04-18T17:11:26Z</time></trkpt><trkpt lat="37.065261371679654" lon="14.889339888913357"><ele>620.0</ele><time>2026-04-18T17:11:27Z</time></trkpt><trkpt lat="37.06546118013089" lon="14.889514084014554"><ele>620.0</ele><time>2026-04-18T17:11:28Z</time></trkpt><trkpt lat="37.06567424826572" lon="14.889647569045815"><ele>620.0</ele><time>2026-04-18T17:11:29Z</time></trkpt><trkpt lat="37.06589029010365" lon="14.889750103423372"><ele>614.0</ele><time>2026-04-18T17:11:30Z</time></trkpt><trkpt lat="37.06611260089549" lon="14.88983693644706"><ele>608.0</ele><time>2026-04-18T17:11:31Z</time></trkpt><trkpt lat="37.06631370809746" lon="14.889921785391275"><ele>602.0</ele><time>2026-04-18T17:11:32Z</time></trkpt><trkpt lat="37.066482696164755" lon="14.890018361601356"><ele>602.0</ele><time>2026-04-18T17:11:33Z</time></trkpt><trkpt lat="37.0666144903492" lon="14.890140868865123"><ele>602.0</ele><time>2026-04-18T17:11:34Z</time></trkpt><trkpt lat="37.06672055685887" lon="14.890304470530035"><ele>602.0</ele><time>2026-04-18T17:11:35Z</time></trkpt><trkpt lat="37.0667963180111" lon="14.890502452815003"><ele>602.0</ele><time>2026-04-18T17:11:36Z</time></trkpt><trkpt lat="37.06683921442512" lon="14.890729278873636"><ele>602.0</ele><time>2026-04-18T17:11:37Z</time></trkpt><trkpt lat="37.06683816124677" lon="14.890939902816687"><ele>602.0</ele><time>2026-04-18T17:11:38Z</time></trkpt><trkpt lat="37.06680373464736" lon="14.891138100085646"><ele>602.3333333333333</ele><time>2026-04-18T17:11:39Z</time></trkpt><trkpt lat="37.06673211062863" lon="14.891328563329655"><ele>602.6666666666666</ele><time>2026-04-18T17:11:40Z</time></trkpt><trkpt lat="37.06661948385227" lon="14.89150745195553"><ele>603.0</ele><time>2026-04-18T17:11:41Z</time></trkpt><trkpt lat="37.06647866796334" lon="14.891649789609378"><ele>603.0</ele><time>2026-04-18T17:11:42Z</time></trkpt><trkpt lat="37.06632051814696" lon="14.891738834831838"><ele>603.0</ele><time>2026-04-18T17:11:43Z</time></trkpt><trkpt lat="37.06615350611919" lon="14.891775632000586"><ele>603.0</ele><time>2026-04-18T17:11:44Z</time></trkpt><trkpt lat="37.06597643260742" lon="14.891765609725631"><ele>603.0</ele><time>2026-04-18T17:11:45Z</time></trkpt><trkpt lat="37.06579686891125" lon="14.891709747321624"><ele>603.0</ele><time>2026-04-18T17:11:46Z</time></trkpt><trkpt lat="37.06563473877035" lon="14.891617871965856"><ele>603.0</ele><time>2026-04-18T17:11:47Z</time></trkpt><trkpt lat="37.065493932388776" lon="14.891527255497905"><ele>604.6666666666666</ele><time>2026-04-18T17:11:48Z</time></trkpt><trkpt lat="37.065349998644024" lon="14.891480320696017"><ele>606.3333333333333</ele><time>2026-04-18T17:11:49Z</time></trkpt><trkpt lat="37.0651999445249" lon="14.891484611595693"><ele>608.0</ele><time>2026-04-18T17:11:50Z</time></trkpt><trkpt lat="37.06505037671705" lon="14.89155001675055"><ele>614.3333333333333</ele><time>2026-04-18T17:11:51Z</time></trkpt><trkpt lat="37.06492557533684" lon="14.89167221912447"><ele>620.6666666666666</ele><time>2026-04-18T17:11:52Z</time></trkpt><trkpt lat="37.064835679338096" lon="14.891836249293029"><ele>627.0</ele><time>2026-04-18T17:11:53Z</time></trkpt><trkpt lat="37.064784373415364" lon="14.892035875330471"><ele>628.6666666666666</ele><time>2026-04-18T17:11:54Z</time></trkpt><trkpt lat="37.06476690133778" lon="14.892275604844958"><ele>630.3333333333333</ele><time>2026-04-18T17:11:55Z</time></trkpt><trkpt lat="37.064755510299776" lon="14.892544064292494"><ele>632.0</ele><time>2026-04-18T17:11:56Z</time></trkpt><trkpt lat="37.06474184071737" lon="14.89283354932563"><ele>633.5</ele><time>2026-04-18T17:11:57Z</time></trkpt><trkpt lat="37.06467257123684" lon="14.89314064654192"><ele>635.0</ele><time>2026-04-18T17:11:58Z</time></trkpt><trkpt lat="37.06458133753428" lon="14.893427260748524"><ele>635.0</ele><time>2026-04-18T17:11:59Z</time></trkpt><trkpt lat="37.064530844139384" lon="14.8937241266415"><ele>635.0</ele><time>2026-04-18T17:12:00Z</time></trkpt><trkpt lat="37.06452306748967" lon="14.89401016026124"><ele>632.0</ele><time>2026-04-18T17:12:01Z</time></trkpt><trkpt lat="37.06451757220904" lon="14.89425585054087"><ele>629.0</ele><time>2026-04-18T17:12:02Z</time></trkpt><trkpt lat="37.064509410667" lon="14.894488974492594"><ele>626.0</ele><time>2026-04-18T17:12:03Z</time></trkpt><trkpt lat="37.06449658274881" lon="14.894681205912352"><ele>626.0</ele><time>2026-04-18T17:12:04Z</time></trkpt><trkpt lat="37.06446249239351" lon="14.894839138352323"><ele>626.0</ele><time>2026-04-18T17:12:05Z</time></trkpt><trkpt lat="37.06439391849094" lon="14.894965822583309"><ele>626.0</ele><time>2026-04-18T17:12:06Z</time></trkpt><trkpt lat="37.06429505305708" lon="14.895078594231041"><ele>626.0</ele><time>2026-04-18T17:12:07Z</time></trkpt><trkpt lat="37.0641685743192" lon="14.895151624566983"><ele>620.3333333333333</ele><time>2026-04-18T17:12:08Z</time></trkpt><trkpt lat="37.0640276704111" lon="14.895191498186447"><ele>614.6666666666666</ele><time>2026-04-18T17:12:09Z</time></trkpt><trkpt lat="37.06387749767715" lon="14.895191062256824"><ele>609.0</ele><time>2026-04-18T17:12:10Z</time></trkpt><trkpt lat="37.06370840729492" lon="14.89516364613566"><ele>609.0</ele><time>2026-04-18T17:12:11Z</time></trkpt><trkpt lat="37.06354967309072" lon="14.895094681774934"><ele>609.0</ele><time>2026-04-18T17:12:12Z</time></trkpt><trkpt lat="37.063390527426435" lon="14.895052756189195"><ele>609.0</ele><time>2026-04-18T17:12:13Z</time></trkpt><trkpt lat="37.063234988179545" lon="14.895055303568599"><ele>618.0</ele><time>2026-04-18T17:12:14Z</time></trkpt><trkpt lat="37.063080808043274" lon="14.89510886731072"><ele>627.0</ele><time>2026-04-18T17:12:15Z</time></trkpt><trkpt lat="37.06294166407794" lon="14.89521556312795"><ele>636.0</ele><time>2026-04-18T17:12:16Z</time></trkpt><trkpt lat="37.06281386665113" lon="14.895368622339046"><ele>636.0</ele><time>2026-04-18T17:12:17Z</time></trkpt><trkpt lat="37.062689542243234" lon="14.895572714693161"><ele>636.0</ele><time>2026-04-18T17:12:18Z</time></trkpt><trkpt lat="37.06255119973778" lon="14.895789178178752"><ele>636.0</ele><time>2026-04-18T17:12:19Z</time></trkpt><trkpt lat="37.062408966894836" lon="14.895974137835143"><ele>644.0</ele><time>2026-04-18T17:12:20Z</time></trkpt><trkpt lat="37.06226655477637" lon="14.896140161734634"><ele>652.0</ele><time>2026-04-18T17:12:21Z</time></trkpt><trkpt lat="37.06213537150657" lon="14.896306881627192"><ele>660.0</ele><time>2026-04-18T17:12:22Z</time></trkpt><trkpt lat="37.06201847144437" lon="14.896459125559456"><ele>660.0</ele><time>2026-04-18T17:12:23Z</time></trkpt><trkpt lat="37.06192373957544" lon="14.896647657159244"><ele>660.0</ele><time>2026-04-18T17:12:24Z</time></trkpt><trkpt lat="37.061856597573545" lon="14.89685079529374"><ele>660.0</ele><time>2026-04-18T17:12:25Z</time></trkpt><trkpt lat="37.061850639417365" lon="14.897099236128925"><ele>660.6666666666666</ele><time>2026-04-18T17:12:26Z</time></trkpt><trkpt lat="37.061876554852695" lon="14.897347768847567"><ele>661.3333333333333</ele><time>2026-04-18T17:12:27Z</time></trkpt><trkpt lat="37.06198133369033" lon="14.897603052872615"><ele>662.0</ele><time>2026-04-18T17:12:28Z</time></trkpt><trkpt lat="37.0620748351996" lon="14.897868703684864"><ele>672.0</ele><time>2026-04-18T17:12:29Z</time></trkpt><trkpt lat="37.06221133149422" lon="14.898145196500607"><ele>682.0</ele><time>2026-04-18T17:12:30Z</time></trkpt><trkpt lat="37.062349505415476" lon="14.898409962388573"><ele>676.6666666666667</ele><time>2026-04-18T17:12:31Z</time></trkpt><trkpt lat="37.062454350766366" lon="14.89869216013192"><ele>671.3333333333334</ele><time>2026-04-18T17:12:32Z</time></trkpt><trkpt lat="37.06253074207138" lon="14.898882391558134"><ele>666.0</ele><time>2026-04-18T17:12:33Z</time></trkpt><trkpt lat="37.062655870830696" lon="14.899082146321245"><ele>674.0</ele><time>2026-04-18T17:12:34Z</time></trkpt><trkpt lat="37.0628057585167" lon="14.899256150079827"><ele>682.0</ele><time>2026-04-18T17:12:35Z</time></trkpt><trkpt lat="37.06295024238549" lon="14.899372547202725"><ele>690.0</ele><time>2026-04-18T17:12:36Z</time></trkpt><trkpt lat="37.06305047056586" lon="14.899410224499558"><ele>690.0</ele><time>2026-04-18T17:12:37Z</time></trkpt><trkpt lat="37.06314470769215" lon="14.899488899750429"><ele>690.0</ele><time>2026-04-18T17:12:38Z</time></trkpt><trkpt lat="37.06319019244829" lon="14.899545901020707"><ele>690.0</ele><time>2026-04-18T17:12:39Z</time></trkpt><trkpt lat="37.06325001157155" lon="14.899634924075508"><ele>690.0</ele><time>2026-04-18T17:12:40Z</time></trkpt><trkpt lat="37.063376743893855" lon="14.899690102941577"><ele>690.0</ele><time>2026-04-18T17:12:41Z</time></trkpt><trkpt lat="37.063468912282495" lon="14.899785633462878"><ele>685.0</ele><time>2026-04-18T17:12:42Z</time></trkpt><trkpt lat="37.06354579152836" lon="14.899917794670532"><ele>680.0</ele><time>2026-04-18T17:12:43Z</time></trkpt><trkpt lat="37.06364260793089" lon="14.900140460575999"><ele>675.0</ele><time>2026-04-18T17:12:44Z</time></trkpt><trkpt lat="37.06373605511516" lon="14.900350842866162"><ele>675.0</ele><time>2026-04-18T17:12:45Z</time></trkpt><trkpt lat="37.06384811056236" lon="14.900484019036295"><ele>675.0</ele><time>2026-04-18T17:12:46Z</time></trkpt><trkpt lat="37.06398919896375" lon="14.900600310329553"><ele>675.0</ele><time>2026-04-18T17:12:47Z</time></trkpt><trkpt lat="37.06417425132282" lon="14.900715922806"><ele>665.6666666666666</ele><time>2026-04-18T17:12:48Z</time></trkpt><trkpt lat="37.06434223283191" lon="14.900773512773114"><ele>656.3333333333333</ele><time>2026-04-18T17:12:49Z</time></trkpt><trkpt lat="37.06453468592251" lon="14.90078550484228"><ele>647.0</ele><time>2026-04-18T17:12:50Z</time></trkpt><trkpt lat="37.064727106238664" lon="14.900769751729857"><ele>647.0</ele><time>2026-04-18T17:12:51Z</time></trkpt><trkpt lat="37.064895603496836" lon="14.900769829546377"><ele>647.0</ele><time>2026-04-18T17:12:52Z</time></trkpt><trkpt lat="37.0650322475442" lon="14.900820459322082"><ele>647.0</ele><time>2026-04-18T17:12:53Z</time></trkpt><trkpt lat="37.06515214903165" lon="14.900943296246739"><ele>651.3333333333333</ele><time>2026-04-18T17:12:54Z</time></trkpt><trkpt lat="37.065262957633095" lon="14.901056394446305"><ele>655.6666666666666</ele><time>2026-04-18T17:12:55Z</time></trkpt><trkpt lat="37.065405511322616" lon="14.90119527329057"><ele>660.0</ele><time>2026-04-18T17:12:56Z</time></trkpt><trkpt lat="37.065580414693486" lon="14.901406005805029"><ele>660.0</ele><time>2026-04-18T17:12:57Z</time></trkpt><trkpt lat="37.06570138131292" lon="14.901605645510843"><ele>660.0</ele><time>2026-04-18T17:12:58Z</time></trkpt><trkpt lat="37.06581195112232" lon="14.90176463966827"><ele>660.0</ele><time>2026-04-18T17:12:59Z</time></trkpt><trkpt lat="37.065893408386536" lon="14.901967888507281"><ele>658.0</ele><time>2026-04-18T17:13:00Z</time></trkpt><trkpt lat="37.065976734731805" lon="14.902238240064484"><ele>656.0</ele><time>2026-04-18T17:13:01Z</time></trkpt><trkpt lat="37.06604211948218" lon="14.902523330373246"><ele>656.0</ele><time>2026-04-18T17:13:02Z</time></trkpt><trkpt lat="37.06611531286183" lon="14.902810810430644"><ele>656.0</ele><time>2026-04-18T17:13:03Z</time></trkpt><trkpt lat="37.06619493633142" lon="14.903133799189112"><ele>656.0</ele><time>2026-04-18T17:13:04Z</time></trkpt><trkpt lat="37.06625825807503" lon="14.903391041129693"><ele>656.0</ele><time>2026-04-18T17:13:05Z</time></trkpt><trkpt lat="37.0663369555726" lon="14.903645301713308"><ele>656.0</ele><time>2026-04-18T17:13:06Z</time></trkpt><trkpt lat="37.066402121872095" lon="14.903903780249205"><ele>654.3333333333333</ele><time>2026-04-18T17:13:07Z</time></trkpt><trkpt lat="37.06649448033973" lon="14.9041541465675"><ele>652.6666666666666</ele><time>2026-04-18T17:13:08Z</time></trkpt><trkpt lat="37.06661730529425" lon="14.904351739610144"><ele>651.0</ele><time>2026-04-18T17:13:09Z</time></trkpt><trkpt lat="37.06676391653939" lon="14.904529605199997"><ele>650.25</ele><time>2026-04-18T17:13:10Z</time></trkpt><trkpt lat="37.066864498570126" lon="14.904679424400317"><ele>649.5</ele><time>2026-04-18T17:13:11Z</time></trkpt><trkpt lat="37.0669691424316" lon="14.904798067564597"><ele>648.75</ele><time>2026-04-18T17:13:12Z</time></trkpt><trkpt lat="37.067051268739476" lon="14.904909252740724"><ele>648.0</ele><time>2026-04-18T17:13:13Z</time></trkpt><trkpt lat="37.06710282649506" lon="14.905027552909944"><ele>647.5999999999999</ele><time>2026-04-18T17:13:14Z</time></trkpt><trkpt lat="37.06714707892852" lon="14.905143855595023"><ele>647.1999999999999</ele><time>2026-04-18T17:13:15Z</time></trkpt><trkpt lat="37.06719772017353" lon="14.905277282706386"><ele>646.8</ele><time>2026-04-18T17:13:16Z</time></trkpt><trkpt lat="37.06723473876777" lon="14.905398451373784"><ele>646.4</ele><time>2026-04-18T17:13:17Z</time></trkpt><trkpt lat="37.06724819636133" lon="14.905494521157483"><ele>646.0</ele><time>2026-04-18T17:13:18Z</time></trkpt><trkpt lat="37.067216236314856" lon="14.905624435057659"><ele>646.0</ele><time>2026-04-18T17:13:19Z</time></trkpt><trkpt lat="37.067332455177855" lon="14.905773221188662"><ele>646.0</ele><time>2026-04-18T17:13:20Z</time></trkpt><trkpt lat="37.067441034857815" lon="14.905957952774509"><ele>646.0</ele><time>2026-04-18T17:13:21Z</time></trkpt><trkpt lat="37.067516991408766" lon="14.906204796414361"><ele>644.0</ele><time>2026-04-18T17:13:22Z</time></trkpt><trkpt lat="37.06760429758202" lon="14.906437220723891"><ele>642.0</ele><time>2026-04-18T17:13:23Z</time></trkpt><trkpt lat="37.06767538188147" lon="14.90666124844646"><ele>640.0</ele><time>2026-04-18T17:13:24Z</time></trkpt><trkpt lat="37.06773673900896" lon="14.906864262455205"><ele>639.6666666666667</ele><time>2026-04-18T17:13:25Z</time></trkpt><trkpt lat="37.06779244597761" lon="14.907053264962707"><ele>639.3333333333334</ele><time>2026-04-18T17:13:26Z</time></trkpt><trkpt lat="37.06784318714709" lon="14.90723174365881"><ele>639.0</ele><time>2026-04-18T17:13:27Z</time></trkpt><trkpt lat="37.067887761775616" lon="14.90742502260051"><ele>638.0</ele><time>2026-04-18T17:13:28Z</time></trkpt><trkpt lat="37.067915083215674" lon="14.907619916896087"><ele>637.0</ele><time>2026-04-18T17:13:29Z</time></trkpt><trkpt lat="37.0679242300957" lon="14.90780234824044"><ele>636.0</ele><time>2026-04-18T17:13:30Z</time></trkpt><trkpt lat="37.06792270715915" lon="14.907993614074568"><ele>636.0</ele><time>2026-04-18T17:13:31Z</time></trkpt><trkpt lat="37.067907366042945" lon="14.908202579082907"><ele>636.0</ele><time>2026-04-18T17:13:32Z</time></trkpt><trkpt lat="37.067869623986375" lon="14.908416540576674"><ele>636.0</ele><time>2026-04-18T17:13:33Z</time></trkpt><trkpt lat="37.06781431977934" lon="14.908622210005369"><ele>634.3333333333334</ele><time>2026-04-18T17:13:34Z</time></trkpt><trkpt lat="37.06774094991733" lon="14.908819492391231"><ele>632.6666666666667</ele><time>2026-04-18T17:13:35Z</time></trkpt><trkpt lat="37.06765330490848" lon="14.908991584375045"><ele>631.0</ele><time>2026-04-18T17:13:36Z</time></trkpt><trkpt lat="37.06754699343659" lon="14.909158138442203"><ele>630.0</ele><time>2026-04-18T17:13:37Z</time></trkpt><trkpt lat="37.067426096172554" lon="14.90930955831874"><ele>629.0</ele><time>2026-04-18T17:13:38Z</time></trkpt><trkpt lat="37.06729499862181" lon="14.90944528061037"><ele>628.0</ele><time>2026-04-18T17:13:39Z</time></trkpt><trkpt lat="37.0671622780967" lon="14.909550637839711"><ele>628.0</ele><time>2026-04-18T17:13:40Z</time></trkpt><trkpt lat="37.067047414850414" lon="14.909634867089219"><ele>628.0</ele><time>2026-04-18T17:13:41Z</time></trkpt><trkpt lat="37.066956292743306" lon="14.90970435590901"><ele>628.0</ele><time>2026-04-18T17:13:42Z</time></trkpt><trkpt lat="37.066878087581586" lon="14.909760986058965"><ele>628.0</ele><time>2026-04-18T17:13:43Z</time></trkpt><trkpt lat="37.066800215253586" lon="14.909801512241325"><ele>628.0</ele><time>2026-04-18T17:13:44Z</time></trkpt><trkpt lat="37.066718960510904" lon="14.909828827518815"><ele>628.0</ele><time>2026-04-18T17:13:45Z</time></trkpt><trkpt lat="37.066620755628634" lon="14.909898743092679"><ele>628.0</ele><time>2026-04-18T17:13:46Z</time></trkpt><trkpt lat="37.06649977202343" lon="14.910038390128284"><ele>628.0</ele><time>2026-04-18T17:13:47Z</time></trkpt><trkpt lat="37.06638632968193" lon="14.910161360507757"><ele>628.0</ele><time>2026-04-18T17:13:48Z</time></trkpt><trkpt lat="37.06630221989524" lon="14.91023486198215"><ele>627.5</ele><time>2026-04-18T17:13:49Z</time></trkpt><trkpt lat="37.0662228583385" lon="14.910295699916713"><ele>627.0</ele><time>2026-04-18T17:13:50Z</time></trkpt><trkpt lat="37.06613659956946" lon="14.910356400441822"><ele>626.5</ele><time>2026-04-18T17:13:51Z</time></trkpt><trkpt lat="37.066036789685796" lon="14.910428076483624"><ele>626.0</ele><time>2026-04-18T17:13:52Z</time></trkpt><trkpt lat="37.06591450161238" lon="14.910524520360218"><ele>626.0</ele><time>2026-04-18T17:13:53Z</time></trkpt><trkpt lat="37.06578353529123" lon="14.910626649732764"><ele>626.0</ele><time>2026-04-18T17:13:54Z</time></trkpt><trkpt lat="37.065645714435135" lon="14.910731509418348"><ele>626.0</ele><time>2026-04-18T17:13:55Z</time></trkpt><trkpt lat="37.06550021168651" lon="14.910839155555479"><ele>626.6666666666666</ele><time>2026-04-18T17:13:56Z</time></trkpt><trkpt lat="37.06533200153391" lon="14.910931504299564"><ele>627.3333333333334</ele><time>2026-04-18T17:13:57Z</time></trkpt><trkpt lat="37.06514730718139" lon="14.91098881937212"><ele>628.0</ele><time>2026-04-18T17:13:58Z</time></trkpt><trkpt lat="37.06493853240896" lon="14.911035030328497"><ele>625.5</ele><time>2026-04-18T17:13:59Z</time></trkpt><trkpt lat="37.064711946618104" lon="14.911076681086"><ele>623.0</ele><time>2026-04-18T17:14:00Z</time></trkpt><trkpt lat="37.0644672111109" lon="14.911128836957474"><ele>623.0</ele><time>2026-04-18T17:14:01Z</time></trkpt><trkpt lat="37.064208520424025" lon="14.911183712420602"><ele>623.0</ele><time>2026-04-18T17:14:02Z</time></trkpt><trkpt lat="37.063940099404824" lon="14.911246418987265"><ele>615.5</ele><time>2026-04-18T17:14:03Z</time></trkpt><trkpt lat="37.06368088416573" lon="14.911305238453973"><ele>608.0</ele><time>2026-04-18T17:14:04Z</time></trkpt><trkpt lat="37.06343190699801" lon="14.911358358267796"><ele>605.5</ele><time>2026-04-18T17:14:05Z</time></trkpt><trkpt lat="37.063184270697825" lon="14.911413194676575"><ele>603.0</ele><time>2026-04-18T17:14:06Z</time></trkpt><trkpt lat="37.06293585364519" lon="14.911472574323396"><ele>603.0</ele><time>2026-04-18T17:14:07Z</time></trkpt><trkpt lat="37.06268535865918" lon="14.911525151202031"><ele>603.0</ele><time>2026-04-18T17:14:08Z</time></trkpt><trkpt lat="37.06244621774402" lon="14.91156989535301"><ele>611.0</ele><time>2026-04-18T17:14:09Z</time></trkpt><trkpt lat="37.0622225608091" lon="14.911616851309933"><ele>619.0</ele><time>2026-04-18T17:14:10Z</time></trkpt><trkpt lat="37.06201194227201" lon="14.911661626644776"><ele>627.0</ele><time>2026-04-18T17:14:11Z</time></trkpt><trkpt lat="37.06180772726647" lon="14.911712908767674"><ele>628.6666666666666</ele><time>2026-04-18T17:14:12Z</time></trkpt><trkpt lat="37.06163779994761" lon="14.911784902768016"><ele>630.3333333333333</ele><time>2026-04-18T17:14:13Z</time></trkpt><trkpt lat="37.06146309512891" lon="14.911906685009882"><ele>632.0</ele><time>2026-04-18T17:14:14Z</time></trkpt><trkpt lat="37.06130502352621" lon="14.912065664719615"><ele>632.0</ele><time>2026-04-18T17:14:15Z</time></trkpt><trkpt lat="37.06115472661764" lon="14.912264093140855"><ele>632.0</ele><time>2026-04-18T17:14:16Z</time></trkpt><trkpt lat="37.061001828113376" lon="14.912493393672513"><ele>635.0</ele><time>2026-04-18T17:14:17Z</time></trkpt><trkpt lat="37.060843946493826" lon="14.912684466353744"><ele>638.0</ele><time>2026-04-18T17:14:18Z</time></trkpt><trkpt lat="37.06069146797224" lon="14.912887276920078"><ele>641.0</ele><time>2026-04-18T17:14:19Z</time></trkpt><trkpt lat="37.06054028523587" lon="14.913087158319685"><ele>641.0</ele><time>2026-04-18T17:14:20Z</time></trkpt><trkpt lat="37.06038733815022" lon="14.913289137265588"><ele>641.0</ele><time>2026-04-18T17:14:21Z</time></trkpt><trkpt lat="37.060237765295675" lon="14.913500730258015"><ele>641.0</ele><time>2026-04-18T17:14:22Z</time></trkpt><trkpt lat="37.06008428429983" lon="14.913703791809857"><ele>638.5</ele><time>2026-04-18T17:14:23Z</time></trkpt><trkpt lat="37.0599245126876" lon="14.91390419346848"><ele>636.0</ele><time>2026-04-18T17:14:24Z</time></trkpt><trkpt lat="37.059765041124685" lon="14.914110185778034"><ele>633.5</ele><time>2026-04-18T17:14:25Z</time></trkpt><trkpt lat="37.05959620315974" lon="14.914317358900798"><ele>631.0</ele><time>2026-04-18T17:14:26Z</time></trkpt><trkpt lat="37.059416442778186" lon="14.914510681422096"><ele>631.0</ele><time>2026-04-18T17:14:27Z</time></trkpt><trkpt lat="37.05922158852506" lon="14.91469581444572"><ele>631.0</ele><time>2026-04-18T17:14:28Z</time></trkpt><trkpt lat="37.05901918802298" lon="14.914871190910006"><ele>630.0</ele><time>2026-04-18T17:14:29Z</time></trkpt><trkpt lat="37.05880586747103" lon="14.915037749326725"><ele>629.0</ele><time>2026-04-18T17:14:30Z</time></trkpt><trkpt lat="37.0585908213576" lon="14.915176886664968"><ele>624.3333333333333</ele><time>2026-04-18T17:14:31Z</time></trkpt><trkpt lat="37.05839072794409" lon="14.915283676143808"><ele>619.6666666666666</ele><time>2026-04-18T17:14:32Z</time></trkpt><trkpt lat="37.058190821992895" lon="14.9153708622072"><ele>615.0</ele><time>2026-04-18T17:14:33Z</time></trkpt><trkpt lat="37.05797808443532" lon="14.915447790330932"><ele>607.0</ele><time>2026-04-18T17:14:34Z</time></trkpt><trkpt lat="37.0577388178945" lon="14.915528225018193"><ele>599.0</ele><time>2026-04-18T17:14:35Z</time></trkpt><trkpt lat="37.05748515176988" lon="14.915606653011265"><ele>597.0</ele><time>2026-04-18T17:14:36Z</time></trkpt><trkpt lat="37.057224517277454" lon="14.915679661575728"><ele>595.0</ele><time>2026-04-18T17:14:37Z</time></trkpt><trkpt lat="37.0569558074268" lon="14.915740659778532"><ele>595.0</ele><time>2026-04-18T17:14:38Z</time></trkpt><trkpt lat="37.05667466498909" lon="14.915795720379524"><ele>595.0</ele><time>2026-04-18T17:14:39Z</time></trkpt><trkpt lat="37.056388833063394" lon="14.915853172041723"><ele>603.0</ele><time>2026-04-18T17:14:40Z</time></trkpt><trkpt lat="37.05610738437839" lon="14.915908675005802"><ele>611.0</ele><time>2026-04-18T17:14:41Z</time></trkpt><trkpt lat="37.05582858742393" lon="14.915963901269272"><ele>616.5</ele><time>2026-04-18T17:14:42Z</time></trkpt><trkpt lat="37.05555643893389" lon="14.916019964997824"><ele>622.0</ele><time>2026-04-18T17:14:43Z</time></trkpt><trkpt lat="37.05527514576882" lon="14.916078491283413"><ele>622.0</ele><time>2026-04-18T17:14:44Z</time></trkpt><trkpt lat="37.05500351472045" lon="14.916137114727164"><ele>622.0</ele><time>2026-04-18T17:14:45Z</time></trkpt><trkpt lat="37.05472802054877" lon="14.916199825888079"><ele>623.0</ele><time>2026-04-18T17:14:46Z</time></trkpt><trkpt lat="37.05446146235827" lon="14.916274127908236"><ele>624.0</ele><time>2026-04-18T17:14:47Z</time></trkpt><trkpt lat="37.054197665055085" lon="14.916372138923151"><ele>626.5</ele><time>2026-04-18T17:14:48Z</time></trkpt><trkpt lat="37.05394444664351" lon="14.91649461582205"><ele>629.0</ele><time>2026-04-18T17:14:49Z</time></trkpt><trkpt lat="37.053711114574426" lon="14.916633530623548"><ele>629.0</ele><time>2026-04-18T17:14:50Z</time></trkpt><trkpt lat="37.05350521246518" lon="14.916779377687124"><ele>629.0</ele><time>2026-04-18T17:14:51Z</time></trkpt><trkpt lat="37.05330953215614" lon="14.9169376039715"><ele>631.3333333333333</ele><time>2026-04-18T17:14:52Z</time></trkpt><trkpt lat="37.05312818524076" lon="14.917099211977245"><ele>633.6666666666666</ele><time>2026-04-18T17:14:53Z</time></trkpt><trkpt lat="37.052951620591365" lon="14.917274831849575"><ele>636.0</ele><time>2026-04-18T17:14:54Z</time></trkpt><trkpt lat="37.05278558041272" lon="14.917457914309686"><ele>635.6666666666666</ele><time>2026-04-18T17:14:55Z</time></trkpt><trkpt lat="37.05263124036835" lon="14.917654652103852"><ele>635.3333333333333</ele><time>2026-04-18T17:14:56Z</time></trkpt><trkpt lat="37.05248250756299" lon="14.91786571103229"><ele>635.0</ele><time>2026-04-18T17:14:57Z</time></trkpt><trkpt lat="37.05235662231969" lon="14.918072703134493"><ele>635.6666666666666</ele><time>2026-04-18T17:14:58Z</time></trkpt><trkpt lat="37.052247117518554" lon="14.918267196318194"><ele>636.3333333333334</ele><time>2026-04-18T17:14:59Z</time></trkpt><trkpt lat="37.052149900695795" lon="14.918458799577367"><ele>637.0</ele><time>2026-04-18T17:15:00Z</time></trkpt><trkpt lat="37.05205495847451" lon="14.918679254436737"><ele>637.0</ele><time>2026-04-18T17:15:01Z</time></trkpt><trkpt lat="37.05195774709588" lon="14.918933203437566"><ele>637.0</ele><time>2026-04-18T17:15:02Z</time></trkpt><trkpt lat="37.051856016491186" lon="14.919211707759496"><ele>632.0</ele><time>2026-04-18T17:15:03Z</time></trkpt><trkpt lat="37.05176201611175" lon="14.919514368566615"><ele>627.0</ele><time>2026-04-18T17:15:04Z</time></trkpt><trkpt lat="37.05168553380745" lon="14.919855425143332"><ele>625.5</ele><time>2026-04-18T17:15:05Z</time></trkpt><trkpt lat="37.05162851364193" lon="14.920229056240025"><ele>624.0</ele><time>2026-04-18T17:15:06Z</time></trkpt><trkpt lat="37.05158823696821" lon="14.92062081720377"><ele>628.0</ele><time>2026-04-18T17:15:07Z</time></trkpt><trkpt lat="37.051562894806665" lon="14.92102517355775"><ele>632.0</ele><time>2026-04-18T17:15:08Z</time></trkpt><trkpt lat="37.05153338776687" lon="14.92143959444135"><ele>634.0</ele><time>2026-04-18T17:15:09Z</time></trkpt><trkpt lat="37.051506977608504" lon="14.921818670086372"><ele>636.0</ele><time>2026-04-18T17:15:10Z</time></trkpt><trkpt lat="37.05147591987051" lon="14.922174497525148"><ele>636.0</ele><time>2026-04-18T17:15:11Z</time></trkpt><trkpt lat="37.05144798858347" lon="14.922510916165253"><ele>636.0</ele><time>2026-04-18T17:15:12Z</time></trkpt><trkpt lat="37.05141945180545" lon="14.922858012636727"><ele>637.0</ele><time>2026-04-18T17:15:13Z</time></trkpt><trkpt lat="37.05139202907498" lon="14.92320282516947"><ele>638.0</ele><time>2026-04-18T17:15:14Z</time></trkpt><trkpt lat="37.051361751725416" lon="14.923558341777428"><ele>639.0</ele><time>2026-04-18T17:15:15Z</time></trkpt><trkpt lat="37.05133137344392" lon="14.923913131117775"><ele>640.0</ele><time>2026-04-18T17:15:16Z</time></trkpt><trkpt lat="37.05130673166878" lon="14.924266045700715"><ele>640.0</ele><time>2026-04-18T17:15:17Z</time></trkpt><trkpt lat="37.051281322326616" lon="14.924612901438762"><ele>640.0</ele><time>2026-04-18T17:15:18Z</time></trkpt><trkpt lat="37.051254566943456" lon="14.924959303550816"><ele>638.5</ele><time>2026-04-18T17:15:19Z</time></trkpt><trkpt lat="37.051225089815404" lon="14.925299310912301"><ele>637.0</ele><time>2026-04-18T17:15:20Z</time></trkpt><trkpt lat="37.05119710617475" lon="14.925638041916955"><ele>634.0</ele><time>2026-04-18T17:15:21Z</time></trkpt><trkpt lat="37.05117168774633" lon="14.925978758681362"><ele>631.0</ele><time>2026-04-18T17:15:22Z</time></trkpt><trkpt lat="37.051147204617585" lon="14.92632446360523"><ele>631.0</ele><time>2026-04-18T17:15:23Z</time></trkpt><trkpt lat="37.051123055918566" lon="14.926674120689876"><ele>631.0</ele><time>2026-04-18T17:15:24Z</time></trkpt><trkpt lat="37.051095486109546" lon="14.92703209686082"><ele>628.5</ele><time>2026-04-18T17:15:25Z</time></trkpt><trkpt lat="37.05106743719579" lon="14.927392336173034"><ele>626.0</ele><time>2026-04-18T17:15:26Z</time></trkpt><trkpt lat="37.051037080861626" lon="14.92775825412022"><ele>624.5</ele><time>2026-04-18T17:15:27Z</time></trkpt><trkpt lat="37.05100898301766" lon="14.928116787491847"><ele>623.0</ele><time>2026-04-18T17:15:28Z</time></trkpt><trkpt lat="37.05098197328186" lon="14.928484800651981"><ele>622.0</ele><time>2026-04-18T17:15:29Z</time></trkpt><trkpt lat="37.05095820751712" lon="14.928842764850662"><ele>621.0</ele><time>2026-04-18T17:15:30Z</time></trkpt><trkpt lat="37.050930798432375" lon="14.929196292710905"><ele>619.0</ele><time>2026-04-18T17:15:31Z</time></trkpt><trkpt lat="37.05090040966686" lon="14.929553957828416"><ele>617.0</ele><time>2026-04-18T17:15:32Z</time></trkpt><trkpt lat="37.050871096120986" lon="14.929909432112458"><ele>614.0</ele><time>2026-04-18T17:15:33Z</time></trkpt><trkpt lat="37.05084364300381" lon="14.93026763214506"><ele>611.0</ele><time>2026-04-18T17:15:34Z</time></trkpt><trkpt lat="37.05081525689709" lon="14.93062555574006"><ele>608.0</ele><time>2026-04-18T17:15:35Z</time></trkpt><trkpt lat="37.05078356864303" lon="14.930982141512766"><ele>605.0</ele><time>2026-04-18T17:15:36Z</time></trkpt><trkpt lat="37.05075227358734" lon="14.931328357909242"><ele>605.0</ele><time>2026-04-18T17:15:37Z</time></trkpt><trkpt lat="37.05072076888157" lon="14.931675263154878"><ele>605.0</ele><time>2026-04-18T17:15:38Z</time></trkpt><trkpt lat="37.050679590940696" lon="14.932008845023002"><ele>602.0</ele><time>2026-04-18T17:15:39Z</time></trkpt><trkpt lat="37.05063439730471" lon="14.93233014402573"><ele>599.0</ele><time>2026-04-18T17:15:40Z</time></trkpt><trkpt lat="37.05057707014922" lon="14.932635112908402"><ele>596.5</ele><time>2026-04-18T17:15:41Z</time></trkpt><trkpt lat="37.05050827000177" lon="14.932944810735378"><ele>594.0</ele><time>2026-04-18T17:15:42Z</time></trkpt><trkpt lat="37.05042811650361" lon="14.933256299149853"><ele>591.5</ele><time>2026-04-18T17:15:43Z</time></trkpt><trkpt lat="37.05033586752886" lon="14.933575769529106"><ele>589.0</ele><time>2026-04-18T17:15:44Z</time></trkpt><trkpt lat="37.050234505740384" lon="14.9339006001396"><ele>588.0</ele><time>2026-04-18T17:15:45Z</time></trkpt><trkpt lat="37.05012757855545" lon="14.934233110101093"><ele>587.0</ele><time>2026-04-18T17:15:46Z</time></trkpt><trkpt lat="37.05001664713717" lon="14.934575321372298"><ele>585.5</ele><time>2026-04-18T17:15:47Z</time></trkpt><trkpt lat="37.04990149609335" lon="14.934908505881044"><ele>584.0</ele><time>2026-04-18T17:15:48Z</time></trkpt><trkpt lat="37.0497847892701" lon="14.935248825128337"><ele>582.5</ele><time>2026-04-18T17:15:49Z</time></trkpt><trkpt lat="37.04967037947619" lon="14.935594513042787"><ele>581.0</ele><time>2026-04-18T17:15:50Z</time></trkpt><trkpt lat="37.049557824059185" lon="14.935940451948158"><ele>581.0</ele><time>2026-04-18T17:15:51Z</time></trkpt><trkpt lat="37.04944555110157" lon="14.936284893699828"><ele>581.0</ele><time>2026-04-18T17:15:52Z</time></trkpt><trkpt lat="37.049327859107194" lon="14.93663026795176"><ele>580.0</ele><time>2026-04-18T17:15:53Z</time></trkpt><trkpt lat="37.04921335953865" lon="14.936969684889108"><ele>579.0</ele><time>2026-04-18T17:15:54Z</time></trkpt><trkpt lat="37.04909837493356" lon="14.937317599507224"><ele>577.0</ele><time>2026-04-18T17:15:55Z</time></trkpt><trkpt lat="37.04898282235378" lon="14.937669576938024"><ele>575.0</ele><time>2026-04-18T17:15:56Z</time></trkpt><trkpt lat="37.04887264863899" lon="14.938011787576755"><ele>575.0</ele><time>2026-04-18T17:15:57Z</time></trkpt><trkpt lat="37.048762561654456" lon="14.93834649010636"><ele>575.0</ele><time>2026-04-18T17:15:58Z</time></trkpt><trkpt lat="37.048635980635765" lon="14.938666742110668"><ele>575.0</ele><time>2026-04-18T17:15:59Z</time></trkpt><trkpt lat="37.04852673130228" lon="14.93899559457933"><ele>575.0</ele><time>2026-04-18T17:16:00Z</time></trkpt><trkpt lat="37.04841799591899" lon="14.939322899873547"><ele>575.0</ele><time>2026-04-18T17:16:01Z</time></trkpt><trkpt lat="37.04830921098758" lon="14.939653083197099"><ele>575.0</ele><time>2026-04-18T17:16:02Z</time></trkpt><trkpt lat="37.048202210797044" lon="14.939980232998261"><ele>571.5</ele><time>2026-04-18T17:16:03Z</time></trkpt><trkpt lat="37.04808660354686" lon="14.940310757655284"><ele>568.0</ele><time>2026-04-18T17:16:04Z</time></trkpt><trkpt lat="37.047966883458784" lon="14.940629092563622"><ele>568.0</ele><time>2026-04-18T17:16:05Z</time></trkpt><trkpt lat="37.04784401103434" lon="14.940943323574047"><ele>568.0</ele><time>2026-04-18T17:16:06Z</time></trkpt><trkpt lat="37.04771187600518" lon="14.94125987124339"><ele>568.0</ele><time>2026-04-18T17:16:07Z</time></trkpt><trkpt lat="37.04756797569052" lon="14.941564928405622"><ele>568.0</ele><time>2026-04-18T17:16:08Z</time></trkpt><trkpt lat="37.04741417545444" lon="14.941865123665176"><ele>563.5</ele><time>2026-04-18T17:16:09Z</time></trkpt><trkpt lat="37.04725298922727" lon="14.942153147153029"><ele>559.0</ele><time>2026-04-18T17:16:10Z</time></trkpt><trkpt lat="37.047081466470274" lon="14.942446241099255"><ele>559.5</ele><time>2026-04-18T17:16:11Z</time></trkpt><trkpt lat="37.04691755764502" lon="14.94273360125753"><ele>560.0</ele><time>2026-04-18T17:16:12Z</time></trkpt><trkpt lat="37.04673323038277" lon="14.943010745070998"><ele>560.0</ele><time>2026-04-18T17:16:13Z</time></trkpt><trkpt lat="37.0465478210825" lon="14.943286723999973"><ele>560.0</ele><time>2026-04-18T17:16:14Z</time></trkpt><trkpt lat="37.04636514150106" lon="14.943560571381395"><ele>559.0</ele><time>2026-04-18T17:16:15Z</time></trkpt><trkpt lat="37.04618374234111" lon="14.943833263118075"><ele>558.0</ele><time>2026-04-18T17:16:16Z</time></trkpt><trkpt lat="37.04598930366079" lon="14.944095111511677"><ele>557.5</ele><time>2026-04-18T17:16:17Z</time></trkpt><trkpt lat="37.045808612856355" lon="14.944362881211791"><ele>557.0</ele><time>2026-04-18T17:16:18Z</time></trkpt><trkpt lat="37.045626631137516" lon="14.944632474396405"><ele>556.0</ele><time>2026-04-18T17:16:19Z</time></trkpt><trkpt lat="37.04545524570966" lon="14.944911177433442"><ele>555.0</ele><time>2026-04-18T17:16:20Z</time></trkpt><trkpt lat="37.04527527398864" lon="14.94517119329673"><ele>555.0</ele><time>2026-04-18T17:16:21Z</time></trkpt><trkpt lat="37.045094067730844" lon="14.945436259586163"><ele>555.0</ele><time>2026-04-18T17:16:22Z</time></trkpt><trkpt lat="37.04491550943453" lon="14.945704720772998"><ele>554.5</ele><time>2026-04-18T17:16:23Z</time></trkpt><trkpt lat="37.04474605575263" lon="14.945978183551489"><ele>554.0</ele><time>2026-04-18T17:16:24Z</time></trkpt><trkpt lat="37.044588615782935" lon="14.946252518180636"><ele>554.0</ele><time>2026-04-18T17:16:25Z</time></trkpt><trkpt lat="37.04444349105193" lon="14.946531811580662"><ele>554.0</ele><time>2026-04-18T17:16:26Z</time></trkpt><trkpt lat="37.04430578801913" lon="14.946822038210861"><ele>553.5</ele><time>2026-04-18T17:16:27Z</time></trkpt><trkpt lat="37.04417602843459" lon="14.947112702453014"><ele>553.0</ele><time>2026-04-18T17:16:28Z</time></trkpt><trkpt lat="37.044041079354194" lon="14.947403929571406"><ele>552.0</ele><time>2026-04-18T17:16:29Z</time></trkpt><trkpt lat="37.04392607648001" lon="14.947720728183812"><ele>551.0</ele><time>2026-04-18T17:16:30Z</time></trkpt><trkpt lat="37.043817679268734" lon="14.948041927539691"><ele>551.0</ele><time>2026-04-18T17:16:31Z</time></trkpt><trkpt lat="37.04371464234659" lon="14.94836950168834"><ele>551.0</ele><time>2026-04-18T17:16:32Z</time></trkpt><trkpt lat="37.043611841690335" lon="14.948698258445587"><ele>550.5</ele><time>2026-04-18T17:16:33Z</time></trkpt><trkpt lat="37.0435095026416" lon="14.949024025746175"><ele>550.0</ele><time>2026-04-18T17:16:34Z</time></trkpt><trkpt lat="37.04340751168937" lon="14.949348685030603"><ele>549.5</ele><time>2026-04-18T17:16:35Z</time></trkpt><trkpt lat="37.04330360233941" lon="14.949679450966599"><ele>549.0</ele><time>2026-04-18T17:16:36Z</time></trkpt><trkpt lat="37.043200861985326" lon="14.95000649571984"><ele>548.0</ele><time>2026-04-18T17:16:37Z</time></trkpt><trkpt lat="37.04309677891148" lon="14.950337817141625"><ele>547.0</ele><time>2026-04-18T17:16:38Z</time></trkpt><trkpt lat="37.04299305038139" lon="14.950668010906874"><ele>547.0</ele><time>2026-04-18T17:16:39Z</time></trkpt><trkpt lat="37.04288990223576" lon="14.951000975276303"><ele>547.0</ele><time>2026-04-18T17:16:40Z</time></trkpt><trkpt lat="37.04281100870112" lon="14.951344595465942"><ele>547.0</ele><time>2026-04-18T17:16:41Z</time></trkpt><trkpt lat="37.04270154408951" lon="14.951676893554946"><ele>547.0</ele><time>2026-04-18T17:16:42Z</time></trkpt><trkpt lat="37.042594849701004" lon="14.952010042717866"><ele>546.5</ele><time>2026-04-18T17:16:43Z</time></trkpt><trkpt lat="37.042486409364884" lon="14.952346093651329"><ele>546.0</ele><time>2026-04-18T17:16:44Z</time></trkpt><trkpt lat="37.04238121617035" lon="14.952675739745501"><ele>545.0</ele><time>2026-04-18T17:16:45Z</time></trkpt><trkpt lat="37.042273520378515" lon="14.953001339452683"><ele>544.0</ele><time>2026-04-18T17:16:46Z</time></trkpt><trkpt lat="37.042166961099014" lon="14.953326747387552"><ele>542.5</ele><time>2026-04-18T17:16:47Z</time></trkpt><trkpt lat="37.042066039132465" lon="14.953645060995257"><ele>541.0</ele><time>2026-04-18T17:16:48Z</time></trkpt><trkpt lat="37.04196756055461" lon="14.953956795680535"><ele>539.5</ele><time>2026-04-18T17:16:49Z</time></trkpt><trkpt lat="37.04187169143589" lon="14.954248571792855"><ele>538.0</ele><time>2026-04-18T17:16:50Z</time></trkpt><trkpt lat="37.04177463790183" lon="14.954543198852877"><ele>538.0</ele><time>2026-04-18T17:16:51Z</time></trkpt><trkpt lat="37.041678194088156" lon="14.954835881281957"><ele>538.0</ele><time>2026-04-18T17:16:52Z</time></trkpt><trkpt lat="37.041582178064786" lon="14.955130368737596"><ele>537.0</ele><time>2026-04-18T17:16:53Z</time></trkpt><trkpt lat="37.041488270867895" lon="14.955425160348259"><ele>536.0</ele><time>2026-04-18T17:16:54Z</time></trkpt><trkpt lat="37.041392010388705" lon="14.9557264915498"><ele>535.0</ele><time>2026-04-18T17:16:55Z</time></trkpt><trkpt lat="37.041297971729186" lon="14.956017643099345"><ele>534.0</ele><time>2026-04-18T17:16:56Z</time></trkpt><trkpt lat="37.04120115887" lon="14.956317495654439"><ele>534.0</ele><time>2026-04-18T17:16:57Z</time></trkpt><trkpt lat="37.041103739590405" lon="14.95661691437656"><ele>534.0</ele><time>2026-04-18T17:16:58Z</time></trkpt><trkpt lat="37.04100282915771" lon="14.956918909571186"><ele>533.5</ele><time>2026-04-18T17:16:59Z</time></trkpt><trkpt lat="37.040906213059195" lon="14.957216013916073"><ele>533.0</ele><time>2026-04-18T17:17:00Z</time></trkpt><trkpt lat="37.04080867245247" lon="14.957517701248198"><ele>532.0</ele><time>2026-04-18T17:17:01Z</time></trkpt><trkpt lat="37.040712026925114" lon="14.957820201008392"><ele>531.0</ele><time>2026-04-18T17:17:02Z</time></trkpt><trkpt lat="37.040612408021225" lon="14.95813516606714"><ele>530.0</ele><time>2026-04-18T17:17:03Z</time></trkpt><trkpt lat="37.04051541496119" lon="14.95844821582723"><ele>529.0</ele><time>2026-04-18T17:17:04Z</time></trkpt><trkpt lat="37.04041365071734" lon="14.958760942650738"><ele>529.0</ele><time>2026-04-18T17:17:05Z</time></trkpt><trkpt lat="37.04031101192586" lon="14.959073316115578"><ele>529.0</ele><time>2026-04-18T17:17:06Z</time></trkpt><trkpt lat="37.04020893643637" lon="14.959386678655257"><ele>526.5</ele><time>2026-04-18T17:17:07Z</time></trkpt><trkpt lat="37.04011032023929" lon="14.95970237612793"><ele>524.0</ele><time>2026-04-18T17:17:08Z</time></trkpt><trkpt lat="37.04000836588301" lon="14.960018837697884"><ele>523.0</ele><time>2026-04-18T17:17:09Z</time></trkpt><trkpt lat="37.03990618576498" lon="14.960332587678256"><ele>522.0</ele><time>2026-04-18T17:17:10Z</time></trkpt><trkpt lat="37.03980216918381" lon="14.960646465392223"><ele>521.0</ele><time>2026-04-18T17:17:11Z</time></trkpt><trkpt lat="37.039701650524115" lon="14.96096344024657"><ele>520.0</ele><time>2026-04-18T17:17:12Z</time></trkpt><trkpt lat="37.03960092564299" lon="14.961278778196979"><ele>520.0</ele><time>2026-04-18T17:17:13Z</time></trkpt><trkpt lat="37.03950007695264" lon="14.961593659557806"><ele>520.0</ele><time>2026-04-18T17:17:14Z</time></trkpt><trkpt lat="37.039405536082924" lon="14.961893477602608"><ele>521.0</ele><time>2026-04-18T17:17:15Z</time></trkpt><trkpt lat="37.039312418522066" lon="14.962182635973724"><ele>522.0</ele><time>2026-04-18T17:17:16Z</time></trkpt><trkpt lat="37.0392219652403" lon="14.962457453682461"><ele>519.0</ele><time>2026-04-18T17:17:17Z</time></trkpt><trkpt lat="37.03913305273068" lon="14.962733748758858"><ele>516.0</ele><time>2026-04-18T17:17:18Z</time></trkpt><trkpt lat="37.03904410264453" lon="14.963012848261197"><ele>516.0</ele><time>2026-04-18T17:17:19Z</time></trkpt><trkpt lat="37.03895400453303" lon="14.963298022574476"><ele>516.0</ele><time>2026-04-18T17:17:20Z</time></trkpt><trkpt lat="37.03886558833267" lon="14.963585736377961"><ele>515.5</ele><time>2026-04-18T17:17:21Z</time></trkpt><trkpt lat="37.038776014971305" lon="14.963883621647112"><ele>515.0</ele><time>2026-04-18T17:17:22Z</time></trkpt><trkpt lat="37.038681115800465" lon="14.964193656009938"><ele>515.5</ele><time>2026-04-18T17:17:23Z</time></trkpt><trkpt lat="37.038583439406175" lon="14.96450652396704"><ele>516.0</ele><time>2026-04-18T17:17:24Z</time></trkpt><trkpt lat="37.038474709566415" lon="14.964828654154317"><ele>516.5</ele><time>2026-04-18T17:17:25Z</time></trkpt><trkpt lat="37.03836575403154" lon="14.965141527050637"><ele>517.0</ele><time>2026-04-18T17:17:26Z</time></trkpt><trkpt lat="37.03825962417662" lon="14.965455628840255"><ele>515.0</ele><time>2026-04-18T17:17:27Z</time></trkpt><trkpt lat="37.03815504598335" lon="14.965779485342917"><ele>513.0</ele><time>2026-04-18T17:17:28Z</time></trkpt><trkpt lat="37.038053668529265" lon="14.966098959028233"><ele>512.5</ele><time>2026-04-18T17:17:29Z</time></trkpt><trkpt lat="37.03795827023229" lon="14.966397795688538"><ele>512.0</ele><time>2026-04-18T17:17:30Z</time></trkpt><trkpt lat="37.037862562991776" lon="14.966692937615685"><ele>512.5</ele><time>2026-04-18T17:17:31Z</time></trkpt><trkpt lat="37.03776702220192" lon="14.966984237972984"><ele>513.0</ele><time>2026-04-18T17:17:32Z</time></trkpt><trkpt lat="37.03767256433854" lon="14.96728007333765"><ele>513.0</ele><time>2026-04-18T17:17:33Z</time></trkpt><trkpt lat="37.037579816194004" lon="14.967573297782572"><ele>513.0</ele><time>2026-04-18T17:17:34Z</time></trkpt><trkpt lat="37.03748693604326" lon="14.967864172140803"><ele>513.0</ele><time>2026-04-18T17:17:35Z</time></trkpt><trkpt lat="37.03739124187621" lon="14.968163642428028"><ele>513.0</ele><time>2026-04-18T17:17:36Z</time></trkpt><trkpt lat="37.03729335813582" lon="14.968468928137975"><ele>512.5</ele><time>2026-04-18T17:17:37Z</time></trkpt><trkpt lat="37.037197869085546" lon="14.968773637065643"><ele>512.0</ele><time>2026-04-18T17:17:38Z</time></trkpt><trkpt lat="37.03710085427541" lon="14.969075551418017"><ele>511.5</ele><time>2026-04-18T17:17:39Z</time></trkpt><trkpt lat="37.03700317725769" lon="14.969381858893657"><ele>511.0</ele><time>2026-04-18T17:17:40Z</time></trkpt><trkpt lat="37.03690533693828" lon="14.969688898386856"><ele>511.0</ele><time>2026-04-18T17:17:41Z</time></trkpt><trkpt lat="37.03680518354887" lon="14.969993471584232"><ele>511.0</ele><time>2026-04-18T17:17:42Z</time></trkpt><trkpt lat="37.036702831529915" lon="14.970300169299387"><ele>511.0</ele><time>2026-04-18T17:17:43Z</time></trkpt><trkpt lat="37.036603339114045" lon="14.970612070993507"><ele>511.0</ele><time>2026-04-18T17:17:44Z</time></trkpt><trkpt lat="37.036511490419976" lon="14.97093112522788"><ele>510.0</ele><time>2026-04-18T17:17:45Z</time></trkpt><trkpt lat="37.036392909249734" lon="14.971239866780396"><ele>509.0</ele><time>2026-04-18T17:17:46Z</time></trkpt><trkpt lat="37.03631181711767" lon="14.9715681092695"><ele>509.0</ele><time>2026-04-18T17:17:47Z</time></trkpt><trkpt lat="37.03624130234711" lon="14.971900584925828"><ele>509.0</ele><time>2026-04-18T17:17:48Z</time></trkpt><trkpt lat="37.03617400163003" lon="14.97223845627588"><ele>508.0</ele><time>2026-04-18T17:17:49Z</time></trkpt><trkpt lat="37.03611913314781" lon="14.972577456915444"><ele>507.0</ele><time>2026-04-18T17:17:50Z</time></trkpt><trkpt lat="37.03606924457012" lon="14.972914030266313"><ele>507.0</ele><time>2026-04-18T17:17:51Z</time></trkpt><trkpt lat="37.036020716415" lon="14.973255441812903"><ele>507.0</ele><time>2026-04-18T17:17:52Z</time></trkpt><trkpt lat="37.035974190981406" lon="14.97359350489122"><ele>507.0</ele><time>2026-04-18T17:17:53Z</time></trkpt><trkpt lat="37.03592808734239" lon="14.973928503134406"><ele>507.0</ele><time>2026-04-18T17:17:54Z</time></trkpt><trkpt lat="37.035881389459604" lon="14.974267819261758"><ele>507.0</ele><time>2026-04-18T17:17:55Z</time></trkpt><trkpt lat="37.0358343756659" lon="14.974610105903"><ele>507.0</ele><time>2026-04-18T17:17:56Z</time></trkpt><trkpt lat="37.03578837997244" lon="14.974945230417157"><ele>505.5</ele><time>2026-04-18T17:17:57Z</time></trkpt><trkpt lat="37.03574211611123" lon="14.975283506470989"><ele>504.0</ele><time>2026-04-18T17:17:58Z</time></trkpt><trkpt lat="37.03569556937583" lon="14.975624819004404"><ele>503.5</ele><time>2026-04-18T17:17:59Z</time></trkpt><trkpt lat="37.03564945722528" lon="14.975963847605232"><ele>503.0</ele><time>2026-04-18T17:18:00Z</time></trkpt><trkpt lat="37.03560327381461" lon="14.976305184330771"><ele>503.0</ele><time>2026-04-18T17:18:01Z</time></trkpt><trkpt lat="37.03555682608344" lon="14.976648474625827"><ele>503.0</ele><time>2026-04-18T17:18:02Z</time></trkpt><trkpt lat="37.03550909003757" lon="14.976995711208227"><ele>502.5</ele><time>2026-04-18T17:18:03Z</time></trkpt><trkpt lat="37.035463035676855" lon="14.977337156935839"><ele>502.0</ele><time>2026-04-18T17:18:04Z</time></trkpt><trkpt lat="37.03541572174859" lon="14.977688303636123"><ele>502.0</ele><time>2026-04-18T17:18:05Z</time></trkpt><trkpt lat="37.03536626624738" lon="14.978055033094682"><ele>502.0</ele><time>2026-04-18T17:18:06Z</time></trkpt><trkpt lat="37.035315866612805" lon="14.9784287636105"><ele>502.5</ele><time>2026-04-18T17:18:07Z</time></trkpt><trkpt lat="37.035265155071684" lon="14.978804807037276"><ele>503.0</ele><time>2026-04-18T17:18:08Z</time></trkpt><trkpt lat="37.0352139591247" lon="14.97918444247792"><ele>503.0</ele><time>2026-04-18T17:18:09Z</time></trkpt><trkpt lat="37.03516008117377" lon="14.979559434132156"><ele>503.0</ele><time>2026-04-18T17:18:10Z</time></trkpt><trkpt lat="37.03510439503001" lon="14.979935969721975"><ele>503.0</ele><time>2026-04-18T17:18:11Z</time></trkpt><trkpt lat="37.03504160272369" lon="14.980305344742803"><ele>503.0</ele><time>2026-04-18T17:18:12Z</time></trkpt><trkpt lat="37.03496869494678" lon="14.980676939854643"><ele>505.0</ele><time>2026-04-18T17:18:13Z</time></trkpt><trkpt lat="37.03489005888665" lon="14.981042410101814"><ele>507.0</ele><time>2026-04-18T17:18:14Z</time></trkpt><trkpt lat="37.03480663350352" lon="14.981400285831104"><ele>505.5</ele><time>2026-04-18T17:18:15Z</time></trkpt><trkpt lat="37.03471785507276" lon="14.981752466104059"><ele>504.0</ele><time>2026-04-18T17:18:16Z</time></trkpt><trkpt lat="37.0346268443674" lon="14.982100621267605"><ele>504.0</ele><time>2026-04-18T17:18:17Z</time></trkpt><trkpt lat="37.03453701665922" lon="14.982440386568724"><ele>504.0</ele><time>2026-04-18T17:18:18Z</time></trkpt><trkpt lat="37.03444577240882" lon="14.982783761518997"><ele>501.0</ele><time>2026-04-18T17:18:19Z</time></trkpt><trkpt lat="37.03435564353223" lon="14.98312293848879"><ele>498.0</ele><time>2026-04-18T17:18:20Z</time></trkpt><trkpt lat="37.03426465379731" lon="14.983465567319433"><ele>497.5</ele><time>2026-04-18T17:18:21Z</time></trkpt><trkpt lat="37.03417496388641" lon="14.98380356638901"><ele>497.0</ele><time>2026-04-18T17:18:22Z</time></trkpt><trkpt lat="37.034084084384624" lon="14.984146048054908"><ele>497.5</ele><time>2026-04-18T17:18:23Z</time></trkpt><trkpt lat="37.03399420170788" lon="14.984484773549076"><ele>498.0</ele><time>2026-04-18T17:18:24Z</time></trkpt><trkpt lat="37.0339023577377" lon="14.984830946645078"><ele>497.5</ele><time>2026-04-18T17:18:25Z</time></trkpt><trkpt lat="37.03381002626578" lon="14.985179520092789"><ele>497.0</ele><time>2026-04-18T17:18:26Z</time></trkpt><trkpt lat="37.03371931862771" lon="14.985521955767435"><ele>498.0</ele><time>2026-04-18T17:18:27Z</time></trkpt><trkpt lat="37.033630226949676" lon="14.985858283599292"><ele>499.0</ele><time>2026-04-18T17:18:28Z</time></trkpt><trkpt lat="37.033543237508795" lon="14.986191772101328"><ele>499.0</ele><time>2026-04-18T17:18:29Z</time></trkpt><trkpt lat="37.03347488301032" lon="14.986522439870086"><ele>499.0</ele><time>2026-04-18T17:18:30Z</time></trkpt><trkpt lat="37.033373407734366" lon="14.986848282641866"><ele>498.0</ele><time>2026-04-18T17:18:31Z</time></trkpt><trkpt lat="37.03325925644227" lon="14.98717212616009"><ele>497.0</ele><time>2026-04-18T17:18:32Z</time></trkpt><trkpt lat="37.03312776786925" lon="14.987482956384296"><ele>497.0</ele><time>2026-04-18T17:18:33Z</time></trkpt><trkpt lat="37.03298339827269" lon="14.98778218668707"><ele>497.0</ele><time>2026-04-18T17:18:34Z</time></trkpt><trkpt lat="37.032834658324134" lon="14.988083883520146"><ele>498.0</ele><time>2026-04-18T17:18:35Z</time></trkpt><trkpt lat="37.032691655608794" lon="14.988386917626348"><ele>499.0</ele><time>2026-04-18T17:18:36Z</time></trkpt><trkpt lat="37.0325604786512" lon="14.988689921883472"><ele>496.0</ele><time>2026-04-18T17:18:37Z</time></trkpt><trkpt lat="37.03244303508248" lon="14.989003647047662"><ele>493.0</ele><time>2026-04-18T17:18:38Z</time></trkpt><trkpt lat="37.03234885141609" lon="14.989328988704434"><ele>492.0</ele><time>2026-04-18T17:18:39Z</time></trkpt><trkpt lat="37.03227383596697" lon="14.989665841405126"><ele>491.0</ele><time>2026-04-18T17:18:40Z</time></trkpt><trkpt lat="37.032219041995596" lon="14.990005614817155"><ele>491.0</ele><time>2026-04-18T17:18:41Z</time></trkpt><trkpt lat="37.03218386030871" lon="14.990356319023576"><ele>491.0</ele><time>2026-04-18T17:18:42Z</time></trkpt><trkpt lat="37.03217528310457" lon="14.990709576917828"><ele>491.5</ele><time>2026-04-18T17:18:43Z</time></trkpt><trkpt lat="37.03218749436337" lon="14.991067892923875"><ele>492.0</ele><time>2026-04-18T17:18:44Z</time></trkpt><trkpt lat="37.03220723128824" lon="14.991441685305986"><ele>493.0</ele><time>2026-04-18T17:18:45Z</time></trkpt><trkpt lat="37.0322252032711" lon="14.991819866612694"><ele>494.0</ele><time>2026-04-18T17:18:46Z</time></trkpt><trkpt lat="37.03224046886302" lon="14.992192828466017"><ele>495.0</ele><time>2026-04-18T17:18:47Z</time></trkpt><trkpt lat="37.03225780958745" lon="14.992566405538431"><ele>496.0</ele><time>2026-04-18T17:18:48Z</time></trkpt><trkpt lat="37.032279477739344" lon="14.992921962247603"><ele>496.0</ele><time>2026-04-18T17:18:49Z</time></trkpt><trkpt lat="37.032302047081174" lon="14.993257307987152"><ele>496.0</ele><time>2026-04-18T17:18:50Z</time></trkpt><trkpt lat="37.032324517206256" lon="14.99359547402792"><ele>496.5</ele><time>2026-04-18T17:18:51Z</time></trkpt><trkpt lat="37.0323417700669" lon="14.993941805415323"><ele>497.0</ele><time>2026-04-18T17:18:52Z</time></trkpt><trkpt lat="37.032349358784856" lon="14.99428257159056"><ele>497.5</ele><time>2026-04-18T17:18:53Z</time></trkpt><trkpt lat="37.03234020291957" lon="14.994608607716428"><ele>498.0</ele><time>2026-04-18T17:18:54Z</time></trkpt><trkpt lat="37.032312201500716" lon="14.994931567659274"><ele>496.5</ele><time>2026-04-18T17:18:55Z</time></trkpt><trkpt lat="37.03227088550019" lon="14.995240443667415"><ele>495.0</ele><time>2026-04-18T17:18:56Z</time></trkpt><trkpt lat="37.0322228330679" lon="14.995535238874306"><ele>495.0</ele><time>2026-04-18T17:18:57Z</time></trkpt><trkpt lat="37.03215539765613" lon="14.995820181501811"><ele>495.0</ele><time>2026-04-18T17:18:58Z</time></trkpt><trkpt lat="37.03206974808051" lon="14.996102606587087"><ele>494.5</ele><time>2026-04-18T17:18:59Z</time></trkpt><trkpt lat="37.031968933910356" lon="14.996392576652577"><ele>494.0</ele><time>2026-04-18T17:19:00Z</time></trkpt><trkpt lat="37.0318556299557" lon="14.996687128994983"><ele>495.0</ele><time>2026-04-18T17:19:01Z</time></trkpt><trkpt lat="37.03173685862648" lon="14.996982305935461"><ele>496.0</ele><time>2026-04-18T17:19:02Z</time></trkpt><trkpt lat="37.03160802738914" lon="14.997285336629098"><ele>493.0</ele><time>2026-04-18T17:19:03Z</time></trkpt><trkpt lat="37.03147592635768" lon="14.997592987403614"><ele>490.0</ele><time>2026-04-18T17:19:04Z</time></trkpt><trkpt lat="37.03134411668591" lon="14.99790235911423"><ele>490.0</ele><time>2026-04-18T17:19:05Z</time></trkpt><trkpt lat="37.03121544937239" lon="14.998205775085015"><ele>490.0</ele><time>2026-04-18T17:19:06Z</time></trkpt><trkpt lat="37.03108028531087" lon="14.99850889739887"><ele>491.5</ele><time>2026-04-18T17:19:07Z</time></trkpt><trkpt lat="37.03093144457538" lon="14.998820166481003"><ele>493.0</ele><time>2026-04-18T17:19:08Z</time></trkpt><trkpt lat="37.03077128431114" lon="14.999132696697798"><ele>488.0</ele><time>2026-04-18T17:19:09Z</time></trkpt><trkpt lat="37.03059975064312" lon="14.999450553755867"><ele>483.0</ele><time>2026-04-18T17:19:10Z</time></trkpt><trkpt lat="37.03041573876752" lon="14.99976957526519"><ele>483.0</ele><time>2026-04-18T17:19:11Z</time></trkpt><trkpt lat="37.030226625175445" lon="15.00007757274343"><ele>483.0</ele><time>2026-04-18T17:19:12Z</time></trkpt><trkpt lat="37.03003438986193" lon="15.00037596061237"><ele>481.5</ele><time>2026-04-18T17:19:13Z</time></trkpt><trkpt lat="37.02985233326363" lon="15.00067093569788"><ele>480.0</ele><time>2026-04-18T17:19:14Z</time></trkpt><trkpt lat="37.029676071823715" lon="15.00097591017441"><ele>480.0</ele><time>2026-04-18T17:19:15Z</time></trkpt><trkpt lat="37.029501429978026" lon="15.00128360862487"><ele>480.0</ele><time>2026-04-18T17:19:16Z</time></trkpt><trkpt lat="37.029323492484686" lon="15.001593494842227"><ele>480.0</ele><time>2026-04-18T17:19:17Z</time></trkpt><trkpt lat="37.029143582650114" lon="15.00189728119733"><ele>480.0</ele><time>2026-04-18T17:19:18Z</time></trkpt><trkpt lat="37.0289630716125" lon="15.002187330063252"><ele>478.0</ele><time>2026-04-18T17:19:19Z</time></trkpt><trkpt lat="37.028777508485916" lon="15.002470034952276"><ele>476.0</ele><time>2026-04-18T17:19:20Z</time></trkpt><trkpt lat="37.02859079821414" lon="15.00273129887"><ele>476.0</ele><time>2026-04-18T17:19:21Z</time></trkpt><trkpt lat="37.02839346455569" lon="15.002987403198974"><ele>476.0</ele><time>2026-04-18T17:19:22Z</time></trkpt><trkpt lat="37.02818935831218" lon="15.003232339744613"><ele>474.5</ele><time>2026-04-18T17:19:23Z</time></trkpt><trkpt lat="37.02798001925516" lon="15.00346210869133"><ele>473.0</ele><time>2026-04-18T17:19:24Z</time></trkpt><trkpt lat="37.02776363089514" lon="15.003683929146902"><ele>473.0</ele><time>2026-04-18T17:19:25Z</time></trkpt><trkpt lat="37.02753500478135" lon="15.003911686907033"><ele>473.0</ele><time>2026-04-18T17:19:26Z</time></trkpt><trkpt lat="37.02731582939738" lon="15.00412670648609"><ele>472.0</ele><time>2026-04-18T17:19:27Z</time></trkpt><trkpt lat="37.02709539341783" lon="15.004337711612045"><ele>471.0</ele><time>2026-04-18T17:19:28Z</time></trkpt><trkpt lat="37.026881455011" lon="15.004542634896694"><ele>471.0</ele><time>2026-04-18T17:19:29Z</time></trkpt><trkpt lat="37.026668233047886" lon="15.004752365281659"><ele>471.0</ele><time>2026-04-18T17:19:30Z</time></trkpt><trkpt lat="37.026452123101976" lon="15.004961777544532"><ele>470.0</ele><time>2026-04-18T17:19:31Z</time></trkpt><trkpt lat="37.02623343333535" lon="15.00516522362088"><ele>469.0</ele><time>2026-04-18T17:19:32Z</time></trkpt><trkpt lat="37.02600364884839" lon="15.005368860633787"><ele>467.5</ele><time>2026-04-18T17:19:33Z</time></trkpt><trkpt lat="37.02577409533461" lon="15.005561487874528"><ele>466.0</ele><time>2026-04-18T17:19:34Z</time></trkpt><trkpt lat="37.02553951550262" lon="15.005745100476679"><ele>468.0</ele><time>2026-04-18T17:19:35Z</time></trkpt><trkpt lat="37.0252995588461" lon="15.005919679330626"><ele>470.0</ele><time>2026-04-18T17:19:36Z</time></trkpt><trkpt lat="37.02505772112322" lon="15.00607622524022"><ele>467.5</ele><time>2026-04-18T17:19:37Z</time></trkpt><trkpt lat="37.0248109929837" lon="15.006233211732784"><ele>465.0</ele><time>2026-04-18T17:19:38Z</time></trkpt><trkpt lat="37.02455874453773" lon="15.006397018140966"><ele>465.0</ele><time>2026-04-18T17:19:39Z</time></trkpt><trkpt lat="37.024299760212195" lon="15.006565603969742"><ele>465.0</ele><time>2026-04-18T17:19:40Z</time></trkpt><trkpt lat="37.02404554975069" lon="15.006731057564606"><ele>464.0</ele><time>2026-04-18T17:19:41Z</time></trkpt><trkpt lat="37.023793956417684" lon="15.00689629092905"><ele>463.0</ele><time>2026-04-18T17:19:42Z</time></trkpt><trkpt lat="37.02354187259143" lon="15.007061548254951"><ele>461.0</ele><time>2026-04-18T17:19:43Z</time></trkpt><trkpt lat="37.02329039337521" lon="15.007225923116527"><ele>459.0</ele><time>2026-04-18T17:19:44Z</time></trkpt><trkpt lat="37.023034252827316" lon="15.007391675973295"><ele>460.0</ele><time>2026-04-18T17:19:45Z</time></trkpt><trkpt lat="37.02278493015945" lon="15.007560185068685"><ele>461.0</ele><time>2026-04-18T17:19:46Z</time></trkpt><trkpt lat="37.022536219596404" lon="15.007741296413126"><ele>459.5</ele><time>2026-04-18T17:19:47Z</time></trkpt><trkpt lat="37.022293347719014" lon="15.007925123825482"><ele>458.0</ele><time>2026-04-18T17:19:48Z</time></trkpt><trkpt lat="37.02205447964864" lon="15.008119086579928"><ele>458.0</ele><time>2026-04-18T17:19:49Z</time></trkpt><trkpt lat="37.02181964805344" lon="15.008320871131437"><ele>458.0</ele><time>2026-04-18T17:19:50Z</time></trkpt><trkpt lat="37.02158820965076" lon="15.008534909192457"><ele>458.5</ele><time>2026-04-18T17:19:51Z</time></trkpt><trkpt lat="37.02136830278233" lon="15.00875861694829"><ele>459.0</ele><time>2026-04-18T17:19:52Z</time></trkpt><trkpt lat="37.0211304335893" lon="15.008968714134346"><ele>458.0</ele><time>2026-04-18T17:19:53Z</time></trkpt><trkpt lat="37.020903590839865" lon="15.009196158117076"><ele>457.0</ele><time>2026-04-18T17:19:54Z</time></trkpt><trkpt lat="37.02067542794074" lon="15.009425447611406"><ele>457.0</ele><time>2026-04-18T17:19:55Z</time></trkpt><trkpt lat="37.02044910211866" lon="15.009654609847114"><ele>457.0</ele><time>2026-04-18T17:19:56Z</time></trkpt><trkpt lat="37.02022531303795" lon="15.009881769245286"><ele>457.0</ele><time>2026-04-18T17:19:57Z</time></trkpt><trkpt lat="37.02001360230912" lon="15.010122206887761"><ele>457.0</ele><time>2026-04-18T17:19:58Z</time></trkpt><trkpt lat="37.01979148240617" lon="15.010346516631754"><ele>455.5</ele><time>2026-04-18T17:19:59Z</time></trkpt><trkpt lat="37.019568763006504" lon="15.010569093987273"><ele>454.0</ele><time>2026-04-18T17:20:00Z</time></trkpt><trkpt lat="37.019346490570335" lon="15.01079319690387"><ele>453.5</ele><time>2026-04-18T17:20:01Z</time></trkpt><trkpt lat="37.0191252765405" lon="15.011014933863988"><ele>453.0</ele><time>2026-04-18T17:20:02Z</time></trkpt><trkpt lat="37.018909478564005" lon="15.011236151334915"><ele>453.0</ele><time>2026-04-18T17:20:03Z</time></trkpt><trkpt lat="37.01870850000161" lon="15.011442239568714"><ele>453.0</ele><time>2026-04-18T17:20:04Z</time></trkpt><trkpt lat="37.01850893945584" lon="15.011620016011404"><ele>453.5</ele><time>2026-04-18T17:20:05Z</time></trkpt><trkpt lat="37.0183388512503" lon="15.011816913357064"><ele>454.0</ele><time>2026-04-18T17:20:06Z</time></trkpt><trkpt lat="37.018165959385634" lon="15.011991178783243"><ele>454.0</ele><time>2026-04-18T17:20:07Z</time></trkpt><trkpt lat="37.01800383156432" lon="15.012152939646946"><ele>454.0</ele><time>2026-04-18T17:20:08Z</time></trkpt><trkpt lat="37.017841587587654" lon="15.012317947144178"><ele>454.0</ele><time>2026-04-18T17:20:09Z</time></trkpt><trkpt lat="37.017678733867925" lon="15.01247669460746"><ele>454.33333333333337</ele><time>2026-04-18T17:20:10Z</time></trkpt><trkpt lat="37.01751511062361" lon="15.012627847153606"><ele>454.66666666666663</ele><time>2026-04-18T17:20:11Z</time></trkpt><trkpt lat="37.01734775804306" lon="15.012771459109446"><ele>455.0</ele><time>2026-04-18T17:20:12Z</time></trkpt><trkpt lat="37.01718021813071" lon="15.012901375508397"><ele>455.0</ele><time>2026-04-18T17:20:13Z</time></trkpt><trkpt lat="37.01702031277885" lon="15.013018857931055"><ele>455.0</ele><time>2026-04-18T17:20:14Z</time></trkpt><trkpt lat="37.01686989560609" lon="15.013122502804617"><ele>455.0</ele><time>2026-04-18T17:20:15Z</time></trkpt><trkpt lat="37.01671883179887" lon="15.013220980041014"><ele>455.0</ele><time>2026-04-18T17:20:16Z</time></trkpt><trkpt lat="37.0165759111246" lon="15.0133077145224"><ele>455.0</ele><time>2026-04-18T17:20:17Z</time></trkpt><trkpt lat="37.01642908364556" lon="15.013382256549466"><ele>455.0</ele><time>2026-04-18T17:20:18Z</time></trkpt><trkpt lat="37.01627113694158" lon="15.013440941286264"><ele>455.0</ele><time>2026-04-18T17:20:19Z</time></trkpt><trkpt lat="37.01610075868639" lon="15.01346079646709"><ele>455.0</ele><time>2026-04-18T17:20:20Z</time></trkpt><trkpt lat="37.01592362936321" lon="15.013449583006949"><ele>455.0</ele><time>2026-04-18T17:20:21Z</time></trkpt><trkpt lat="37.01574209688006" lon="15.01339811408592"><ele>455.3333333333333</ele><time>2026-04-18T17:20:22Z</time></trkpt><trkpt lat="37.01557202350528" lon="15.013310523719282"><ele>455.66666666666663</ele><time>2026-04-18T17:20:23Z</time></trkpt><trkpt lat="37.01542609592848" lon="15.013187632642028"><ele>456.0</ele><time>2026-04-18T17:20:24Z</time></trkpt><trkpt lat="37.01530272028386" lon="15.013030881599995"><ele>456.0</ele><time>2026-04-18T17:20:25Z</time></trkpt><trkpt lat="37.01520147854855" lon="15.012887964507744"><ele>456.0</ele><time>2026-04-18T17:20:26Z</time></trkpt><trkpt lat="37.015090981824045" lon="15.012798360772585"><ele>456.0</ele><time>2026-04-18T17:20:27Z</time></trkpt><trkpt lat="37.01495652917166" lon="15.012771690389807"><ele>456.0</ele><time>2026-04-18T17:20:28Z</time></trkpt><trkpt lat="37.01481681858001" lon="15.012805066906726"><ele>455.0</ele><time>2026-04-18T17:20:29Z</time></trkpt><trkpt lat="37.01471104758654" lon="15.012892570834488"><ele>454.0</ele><time>2026-04-18T17:20:30Z</time></trkpt><trkpt lat="37.01463271753869" lon="15.013040189109043"><ele>453.0</ele><time>2026-04-18T17:20:31Z</time></trkpt><trkpt lat="37.01456138016973" lon="15.01322725822111"><ele>452.0</ele><time>2026-04-18T17:20:32Z</time></trkpt><trkpt lat="37.01455350904546" lon="15.013458573432937"><ele>452.0</ele><time>2026-04-18T17:20:33Z</time></trkpt><trkpt lat="37.014540379999026" lon="15.013680620845124"><ele>452.0</ele><time>2026-04-18T17:20:34Z</time></trkpt><trkpt lat="37.01452687310164" lon="15.013902033256551"><ele>452.0</ele><time>2026-04-18T17:20:35Z</time></trkpt><trkpt lat="37.01451483817089" lon="15.014122635353797"><ele>451.66666666666663</ele><time>2026-04-18T17:20:36Z</time></trkpt><trkpt lat="37.01450220691966" lon="15.014356088576339"><ele>451.33333333333337</ele><time>2026-04-18T17:20:37Z</time></trkpt><trkpt lat="37.01448754480186" lon="15.01460292217536"><ele>451.0</ele><time>2026-04-18T17:20:38Z</time></trkpt><trkpt lat="37.01446963258747" lon="15.014865547948315"><ele>451.5</ele><time>2026-04-18T17:20:39Z</time></trkpt><trkpt lat="37.01445114519549" lon="15.015144013906811"><ele>452.0</ele><time>2026-04-18T17:20:40Z</time></trkpt><trkpt lat="37.01443887202779" lon="15.015446810069554"><ele>452.0</ele><time>2026-04-18T17:20:41Z</time></trkpt><trkpt lat="37.01442685781884" lon="15.015754034811533"><ele>452.0</ele><time>2026-04-18T17:20:42Z</time></trkpt><trkpt lat="37.0144165277505" lon="15.016043525230213"><ele>452.5</ele><time>2026-04-18T17:20:43Z</time></trkpt><trkpt lat="37.014414232088974" lon="15.016362964682175"><ele>453.0</ele><time>2026-04-18T17:20:44Z</time></trkpt><trkpt lat="37.01439850741667" lon="15.016673351099955"><ele>454.5</ele><time>2026-04-18T17:20:45Z</time></trkpt><trkpt lat="37.01438045997847" lon="15.016994458117269"><ele>456.0</ele><time>2026-04-18T17:20:46Z</time></trkpt><trkpt lat="37.014363103917596" lon="15.017326793242118"><ele>457.5</ele><time>2026-04-18T17:20:47Z</time></trkpt><trkpt lat="37.014340980109075" lon="15.017659010664941"><ele>459.0</ele><time>2026-04-18T17:20:48Z</time></trkpt><trkpt lat="37.014318649077886" lon="15.017998239373576"><ele>460.5</ele><time>2026-04-18T17:20:49Z</time></trkpt><trkpt lat="37.014298978401236" lon="15.018339029173891"><ele>462.0</ele><time>2026-04-18T17:20:50Z</time></trkpt><trkpt lat="37.01427096593567" lon="15.018686595615563"><ele>462.0</ele><time>2026-04-18T17:20:51Z</time></trkpt><trkpt lat="37.01424468972033" lon="15.019032410423454"><ele>462.0</ele><time>2026-04-18T17:20:52Z</time></trkpt><trkpt lat="37.014228770781905" lon="15.019376111703522"><ele>465.0</ele><time>2026-04-18T17:20:53Z</time></trkpt><trkpt lat="37.01420976100705" lon="15.019723413313697"><ele>468.0</ele><time>2026-04-18T17:20:54Z</time></trkpt><trkpt lat="37.01419370014371" lon="15.020072820172192"><ele>468.5</ele><time>2026-04-18T17:20:55Z</time></trkpt><trkpt lat="37.01417530624223" lon="15.020423150377786"><ele>469.0</ele><time>2026-04-18T17:20:56Z</time></trkpt><trkpt lat="37.01415520982035" lon="15.020768345583637"><ele>472.0</ele><time>2026-04-18T17:20:57Z</time></trkpt><trkpt lat="37.014131398338094" lon="15.021110905482084"><ele>475.0</ele><time>2026-04-18T17:20:58Z</time></trkpt><trkpt lat="37.01411102540479" lon="15.021447872407775"><ele>473.0</ele><time>2026-04-18T17:20:59Z</time></trkpt><trkpt lat="37.014099115759336" lon="15.021791173538372"><ele>471.0</ele><time>2026-04-18T17:21:00Z</time></trkpt><trkpt lat="37.01407609514441" lon="15.022140103902704"><ele>475.0</ele><time>2026-04-18T17:21:01Z</time></trkpt><trkpt lat="37.01405501315006" lon="15.022486086128097"><ele>479.0</ele><time>2026-04-18T17:21:02Z</time></trkpt><trkpt lat="37.01403327584282" lon="15.022825744822214"><ele>479.0</ele><time>2026-04-18T17:21:03Z</time></trkpt><trkpt lat="37.01401488095864" lon="15.023178317110784"><ele>479.0</ele><time>2026-04-18T17:21:04Z</time></trkpt><trkpt lat="37.01399569171831" lon="15.023525155154303"><ele>483.5</ele><time>2026-04-18T17:21:05Z</time></trkpt><trkpt lat="37.0139686554855" lon="15.023884701543203"><ele>488.0</ele><time>2026-04-18T17:21:06Z</time></trkpt><trkpt lat="37.013948391276706" lon="15.024227821568672"><ele>488.0</ele><time>2026-04-18T17:21:07Z</time></trkpt><trkpt lat="37.01392554823048" lon="15.024569335373933"><ele>488.0</ele><time>2026-04-18T17:21:08Z</time></trkpt><trkpt lat="37.01390389173746" lon="15.024913652764416"><ele>486.0</ele><time>2026-04-18T17:21:09Z</time></trkpt><trkpt lat="37.013887248963385" lon="15.025262094525951"><ele>484.0</ele><time>2026-04-18T17:21:10Z</time></trkpt><trkpt lat="37.01386501229446" lon="15.025613993329284"><ele>484.5</ele><time>2026-04-18T17:21:11Z</time></trkpt><trkpt lat="37.01384342161967" lon="15.025966439651942"><ele>485.0</ele><time>2026-04-18T17:21:12Z</time></trkpt><trkpt lat="37.01382315017324" lon="15.026310961136643"><ele>486.5</ele><time>2026-04-18T17:21:13Z</time></trkpt><trkpt lat="37.01381521564332" lon="15.0266469500568"><ele>488.0</ele><time>2026-04-18T17:21:14Z</time></trkpt><trkpt lat="37.013820834727134" lon="15.026975286429897"><ele>488.0</ele><time>2026-04-18T17:21:15Z</time></trkpt><trkpt lat="37.01384282002176" lon="15.027304222399696"><ele>488.0</ele><time>2026-04-18T17:21:16Z</time></trkpt><trkpt lat="37.01387643463034" lon="15.027646284245483"><ele>488.0</ele><time>2026-04-18T17:21:17Z</time></trkpt><trkpt lat="37.01392103650287" lon="15.027987452404775"><ele>488.0</ele><time>2026-04-18T17:21:18Z</time></trkpt><trkpt lat="37.01397835204131" lon="15.028326696903337"><ele>488.0</ele><time>2026-04-18T17:21:19Z</time></trkpt><trkpt lat="37.01405089646212" lon="15.028662784154506"><ele>488.0</ele><time>2026-04-18T17:21:20Z</time></trkpt><trkpt lat="37.01414286668227" lon="15.028995420595946"><ele>482.5</ele><time>2026-04-18T17:21:21Z</time></trkpt><trkpt lat="37.01424597594706" lon="15.02931904879979"><ele>477.0</ele><time>2026-04-18T17:21:22Z</time></trkpt><trkpt lat="37.0143640015321" lon="15.02964428012692"><ele>477.0</ele><time>2026-04-18T17:21:23Z</time></trkpt><trkpt lat="37.014498645920774" lon="15.02996749778078"><ele>477.0</ele><time>2026-04-18T17:21:24Z</time></trkpt><trkpt lat="37.0146493484501" lon="15.030284964964032"><ele>474.0</ele><time>2026-04-18T17:21:25Z</time></trkpt><trkpt lat="37.01481831574812" lon="15.03059593262984"><ele>471.0</ele><time>2026-04-18T17:21:26Z</time></trkpt><trkpt lat="37.014993295706184" lon="15.030897408985963"><ele>470.0</ele><time>2026-04-18T17:21:27Z</time></trkpt><trkpt lat="37.015190156982904" lon="15.031183665318599"><ele>469.0</ele><time>2026-04-18T17:21:28Z</time></trkpt><trkpt lat="37.015402372544905" lon="15.031452587780986"><ele>467.0</ele><time>2026-04-18T17:21:29Z</time></trkpt><trkpt lat="37.01562133591217" lon="15.031709772402557"><ele>465.0</ele><time>2026-04-18T17:21:30Z</time></trkpt><trkpt lat="37.01585817852807" lon="15.031941868760248"><ele>465.0</ele><time>2026-04-18T17:21:31Z</time></trkpt><trkpt lat="37.0161050458035" lon="15.032171660329391"><ele>465.0</ele><time>2026-04-18T17:21:32Z</time></trkpt><trkpt lat="37.016336105262845" lon="15.032438205871381"><ele>464.0</ele><time>2026-04-18T17:21:33Z</time></trkpt><trkpt lat="37.01658312774672" lon="15.032669943063357"><ele>463.0</ele><time>2026-04-18T17:21:34Z</time></trkpt><trkpt lat="37.016829067096516" lon="15.032901732597292"><ele>462.0</ele><time>2026-04-18T17:21:35Z</time></trkpt><trkpt lat="37.01707501986826" lon="15.033131524502963"><ele>461.0</ele><time>2026-04-18T17:21:36Z</time></trkpt><trkpt lat="37.01732128480601" lon="15.033362941696463"><ele>458.0</ele><time>2026-04-18T17:21:37Z</time></trkpt><trkpt lat="37.01756965033437" lon="15.03359633281837"><ele>455.0</ele><time>2026-04-18T17:21:38Z</time></trkpt><trkpt lat="37.017818948760656" lon="15.033830289451945"><ele>455.0</ele><time>2026-04-18T17:21:39Z</time></trkpt><trkpt lat="37.01806412435351" lon="15.034060217028815"><ele>455.0</ele><time>2026-04-18T17:21:40Z</time></trkpt><trkpt lat="37.01830734073304" lon="15.034288307417098"><ele>453.5</ele><time>2026-04-18T17:21:41Z</time></trkpt><trkpt lat="37.01854751722279" lon="15.034513547043328"><ele>452.0</ele><time>2026-04-18T17:21:42Z</time></trkpt><trkpt lat="37.018786944076766" lon="15.034737442446106"><ele>452.0</ele><time>2026-04-18T17:21:43Z</time></trkpt><trkpt lat="37.01902520884807" lon="15.034958490671436"><ele>452.0</ele><time>2026-04-18T17:21:44Z</time></trkpt><trkpt lat="37.019259119199965" lon="15.035175963752257"><ele>453.0</ele><time>2026-04-18T17:21:45Z</time></trkpt><trkpt lat="37.01948882120859" lon="15.035391158052596"><ele>454.0</ele><time>2026-04-18T17:21:46Z</time></trkpt><trkpt lat="37.01971480795134" lon="15.035605007494548"><ele>454.0</ele><time>2026-04-18T17:21:47Z</time></trkpt><trkpt lat="37.019944690537024" lon="15.035820443261407"><ele>454.0</ele><time>2026-04-18T17:21:48Z</time></trkpt><trkpt lat="37.020175609406245" lon="15.036036230489366"><ele>456.0</ele><time>2026-04-18T17:21:49Z</time></trkpt><trkpt lat="37.020409330602114" lon="15.036255754706534"><ele>458.0</ele><time>2026-04-18T17:21:50Z</time></trkpt><trkpt lat="37.020643715129765" lon="15.03647185846813"><ele>461.0</ele><time>2026-04-18T17:21:51Z</time></trkpt><trkpt lat="37.02088873602435" lon="15.036667073497679"><ele>464.0</ele><time>2026-04-18T17:21:52Z</time></trkpt><trkpt lat="37.0211454881142" lon="15.036856173996952"><ele>464.0</ele><time>2026-04-18T17:21:53Z</time></trkpt><trkpt lat="37.02139355669806" lon="15.03701746742733"><ele>464.0</ele><time>2026-04-18T17:21:54Z</time></trkpt><trkpt lat="37.02166017008164" lon="15.037171526909486"><ele>464.5</ele><time>2026-04-18T17:21:55Z</time></trkpt><trkpt lat="37.0219256713277" lon="15.037329004156964"><ele>465.0</ele><time>2026-04-18T17:21:56Z</time></trkpt><trkpt lat="37.02219813597556" lon="15.037486982097219"><ele>465.0</ele><time>2026-04-18T17:21:57Z</time></trkpt><trkpt lat="37.02247510204493" lon="15.037647341840755"><ele>465.0</ele><time>2026-04-18T17:21:58Z</time></trkpt><trkpt lat="37.02275669642103" lon="15.03778506588965"><ele>467.0</ele><time>2026-04-18T17:21:59Z</time></trkpt><trkpt lat="37.02304486978781" lon="15.037927843151518"><ele>469.0</ele><time>2026-04-18T17:22:00Z</time></trkpt><trkpt lat="37.02335978537815" lon="15.03803673707971"><ele>469.5</ele><time>2026-04-18T17:22:01Z</time></trkpt><trkpt lat="37.023671718563946" lon="15.038133390625951"><ele>470.0</ele><time>2026-04-18T17:22:02Z</time></trkpt><trkpt lat="37.02398226984083" lon="15.038240538903267"><ele>468.5</ele><time>2026-04-18T17:22:03Z</time></trkpt><trkpt lat="37.024276339722306" lon="15.038338139614165"><ele>467.0</ele><time>2026-04-18T17:22:04Z</time></trkpt><trkpt lat="37.024563707446845" lon="15.038431288471072"><ele>467.0</ele><time>2026-04-18T17:22:05Z</time></trkpt><trkpt lat="37.02483771770858" lon="15.038521871594758"><ele>467.0</ele><time>2026-04-18T17:22:06Z</time></trkpt><trkpt lat="37.02510347289057" lon="15.038617507451718"><ele>469.0</ele><time>2026-04-18T17:22:07Z</time></trkpt><trkpt lat="37.025362919131425" lon="15.038722196168878"><ele>471.0</ele><time>2026-04-18T17:22:08Z</time></trkpt><trkpt lat="37.025616307489194" lon="15.038830195681246"><ele>476.0</ele><time>2026-04-18T17:22:09Z</time></trkpt><trkpt lat="37.02586597980274" lon="15.038965900019733"><ele>481.0</ele><time>2026-04-18T17:22:10Z</time></trkpt><trkpt lat="37.026109129626136" lon="15.039146282767657"><ele>481.0</ele><time>2026-04-18T17:22:11Z</time></trkpt><trkpt lat="37.02635073664968" lon="15.039337117322209"><ele>481.0</ele><time>2026-04-18T17:22:12Z</time></trkpt><trkpt lat="37.02659515231498" lon="15.039534115246873"><ele>484.5</ele><time>2026-04-18T17:22:13Z</time></trkpt><trkpt lat="37.02684599579046" lon="15.039732627918973"><ele>488.0</ele><time>2026-04-18T17:22:14Z</time></trkpt><trkpt lat="37.02707942509526" lon="15.039886781153944"><ele>488.0</ele><time>2026-04-18T17:22:15Z</time></trkpt><trkpt lat="37.02730632292405" lon="15.040046996539239"><ele>488.0</ele><time>2026-04-18T17:22:16Z</time></trkpt><trkpt lat="37.027550434550975" lon="15.040194966447"><ele>488.0</ele><time>2026-04-18T17:22:17Z</time></trkpt><trkpt lat="37.02778463306993" lon="15.040318876638183"><ele>488.0</ele><time>2026-04-18T17:22:18Z</time></trkpt><trkpt lat="37.02801599775675" lon="15.040436511362673"><ele>488.0</ele><time>2026-04-18T17:22:19Z</time></trkpt><trkpt lat="37.028249296959714" lon="15.040554596437174"><ele>488.0</ele><time>2026-04-18T17:22:20Z</time></trkpt><trkpt lat="37.028478705249945" lon="15.040694682238236"><ele>487.5</ele><time>2026-04-18T17:22:21Z</time></trkpt><trkpt lat="37.028704324885815" lon="15.04085425712241"><ele>487.0</ele><time>2026-04-18T17:22:22Z</time></trkpt><trkpt lat="37.0289184892699" lon="15.041038068644065"><ele>487.0</ele><time>2026-04-18T17:22:23Z</time></trkpt><trkpt lat="37.02912704658412" lon="15.041240726756987"><ele>487.0</ele><time>2026-04-18T17:22:24Z</time></trkpt><trkpt lat="37.02931538840013" lon="15.04148907410449"><ele>483.5</ele><time>2026-04-18T17:22:25Z</time></trkpt><trkpt lat="37.029489772332255" lon="15.041765716299313"><ele>480.0</ele><time>2026-04-18T17:22:26Z</time></trkpt><trkpt lat="37.02964948652065" lon="15.042052173825239"><ele>480.0</ele><time>2026-04-18T17:22:27Z</time></trkpt><trkpt lat="37.02981093253828" lon="15.042345348103142"><ele>480.0</ele><time>2026-04-18T17:22:28Z</time></trkpt><trkpt lat="37.0299741290731" lon="15.04263975554612"><ele>474.5</ele><time>2026-04-18T17:22:29Z</time></trkpt><trkpt lat="37.030137378254096" lon="15.042921469865277"><ele>469.0</ele><time>2026-04-18T17:22:30Z</time></trkpt><trkpt lat="37.03031169001066" lon="15.043191140733269"><ele>466.5</ele><time>2026-04-18T17:22:31Z</time></trkpt><trkpt lat="37.03047992190729" lon="15.043471775637602"><ele>464.0</ele><time>2026-04-18T17:22:32Z</time></trkpt><trkpt lat="37.03065035878905" lon="15.043755930771596"><ele>459.5</ele><time>2026-04-18T17:22:33Z</time></trkpt><trkpt lat="37.03082244683691" lon="15.044044641187297"><ele>455.0</ele><time>2026-04-18T17:22:34Z</time></trkpt><trkpt lat="37.030996514904366" lon="15.044329757108764"><ele>455.0</ele><time>2026-04-18T17:22:35Z</time></trkpt><trkpt lat="37.03116761454962" lon="15.044604405182795"><ele>455.0</ele><time>2026-04-18T17:22:36Z</time></trkpt><trkpt lat="37.03133803050577" lon="15.044891716706209"><ele>454.5</ele><time>2026-04-18T17:22:37Z</time></trkpt><trkpt lat="37.03150473909282" lon="15.045181230581747"><ele>454.0</ele><time>2026-04-18T17:22:38Z</time></trkpt><trkpt lat="37.031680451445226" lon="15.045463780059611"><ele>451.5</ele><time>2026-04-18T17:22:39Z</time></trkpt><trkpt lat="37.03185191877977" lon="15.045742438376097"><ele>449.0</ele><time>2026-04-18T17:22:40Z</time></trkpt><trkpt lat="37.0320246131722" lon="15.046025824796274"><ele>449.0</ele><time>2026-04-18T17:22:41Z</time></trkpt><trkpt lat="37.03219320651957" lon="15.046303241768076"><ele>449.0</ele><time>2026-04-18T17:22:42Z</time></trkpt><trkpt lat="37.03236070487924" lon="15.04660429296813"><ele>451.0</ele><time>2026-04-18T17:22:43Z</time></trkpt><trkpt lat="37.032532678036176" lon="15.046887788978447"><ele>453.0</ele><time>2026-04-18T17:22:44Z</time></trkpt><trkpt lat="37.03270720167121" lon="15.047175227446028"><ele>452.0</ele><time>2026-04-18T17:22:45Z</time></trkpt><trkpt lat="37.0328813866749" lon="15.047463664211499"><ele>451.0</ele><time>2026-04-18T17:22:46Z</time></trkpt><trkpt lat="37.03306284176886" lon="15.047759022900479"><ele>451.0</ele><time>2026-04-18T17:22:47Z</time></trkpt><trkpt lat="37.033232969442516" lon="15.048047359270612"><ele>451.0</ele><time>2026-04-18T17:22:48Z</time></trkpt><trkpt lat="37.03340349567735" lon="15.04833361229872"><ele>448.5</ele><time>2026-04-18T17:22:49Z</time></trkpt><trkpt lat="37.03356246394445" lon="15.048597641437963"><ele>446.0</ele><time>2026-04-18T17:22:50Z</time></trkpt><trkpt lat="37.03371935187659" lon="15.048847841657585"><ele>446.0</ele><time>2026-04-18T17:22:51Z</time></trkpt><trkpt lat="37.03386398938203" lon="15.04908378285159"><ele>446.0</ele><time>2026-04-18T17:22:52Z</time></trkpt><trkpt lat="37.0339990285932" lon="15.04930649652377"><ele>443.3333333333333</ele><time>2026-04-18T17:22:53Z</time></trkpt><trkpt lat="37.03412975364877" lon="15.049521443523396"><ele>440.66666666666663</ele><time>2026-04-18T17:22:54Z</time></trkpt><trkpt lat="37.03424915731439" lon="15.049722520260282"><ele>438.0</ele><time>2026-04-18T17:22:55Z</time></trkpt><trkpt lat="37.03436236587149" lon="15.049917897740924"><ele>435.0</ele><time>2026-04-18T17:22:56Z</time></trkpt><trkpt lat="37.03446091283601" lon="15.050108940521469"><ele>432.0</ele><time>2026-04-18T17:22:57Z</time></trkpt><trkpt lat="37.03454188771252" lon="15.05030845776032"><ele>429.0</ele><time>2026-04-18T17:22:58Z</time></trkpt><trkpt lat="37.03461096824635" lon="15.050527836444857"><ele>429.0</ele><time>2026-04-18T17:22:59Z</time></trkpt><trkpt lat="37.03466765749012" lon="15.0507569182256"><ele>429.0</ele><time>2026-04-18T17:23:00Z</time></trkpt><trkpt lat="37.03470124346369" lon="15.050967372230978"><ele>429.0</ele><time>2026-04-18T17:23:01Z</time></trkpt><trkpt lat="37.03471500867447" lon="15.051164156214705"><ele>430.25</ele><time>2026-04-18T17:23:02Z</time></trkpt><trkpt lat="37.03471239738559" lon="15.05135722232968"><ele>431.5</ele><time>2026-04-18T17:23:03Z</time></trkpt><trkpt lat="37.03468844653412" lon="15.051522962106203"><ele>432.75</ele><time>2026-04-18T17:23:04Z</time></trkpt><trkpt lat="37.034648713251336" lon="15.051662355940511"><ele>434.0</ele><time>2026-04-18T17:23:05Z</time></trkpt><trkpt lat="37.03459300740291" lon="15.051766001036363"><ele>434.8333333333333</ele><time>2026-04-18T17:23:06Z</time></trkpt><trkpt lat="37.034524762704336" lon="15.051832973574955"><ele>435.66666666666663</ele><time>2026-04-18T17:23:07Z</time></trkpt><trkpt lat="37.0344780108132" lon="15.051900035740408"><ele>436.5</ele><time>2026-04-18T17:23:08Z</time></trkpt><trkpt lat="37.0344743233976" lon="15.05199469013902"><ele>437.33333333333337</ele><time>2026-04-18T17:23:09Z</time></trkpt><trkpt lat="37.03450687957733" lon="15.052114917160736"><ele>438.1666666666667</ele><time>2026-04-18T17:23:10Z</time></trkpt><trkpt lat="37.034558305744596" lon="15.052242054630508"><ele>439.0</ele><time>2026-04-18T17:23:11Z</time></trkpt><trkpt lat="37.03458283810036" lon="15.05235243157718"><ele>439.79999999999995</ele><time>2026-04-18T17:23:12Z</time></trkpt><trkpt lat="37.03457357169625" lon="15.052473921304323"><ele>440.59999999999997</ele><time>2026-04-18T17:23:13Z</time></trkpt><trkpt lat="37.03453734392006" lon="15.052598454881494"><ele>441.4</ele><time>2026-04-18T17:23:14Z</time></trkpt><trkpt lat="37.034488458796844" lon="15.052710360925479"><ele>442.2</ele><time>2026-04-18T17:23:15Z</time></trkpt><trkpt lat="37.03443629742909" lon="15.052816920400387"><ele>443.0</ele><time>2026-04-18T17:23:16Z</time></trkpt><trkpt lat="37.034380832122864" lon="15.052927874059785"><ele>443.0</ele><time>2026-04-18T17:23:17Z</time></trkpt><trkpt lat="37.034323069540854" lon="15.05304148484321"><ele>443.0</ele><time>2026-04-18T17:23:18Z</time></trkpt><trkpt lat="37.03425969001124" lon="15.053167707336726"><ele>443.0</ele><time>2026-04-18T17:23:19Z</time></trkpt><trkpt lat="37.03418889125136" lon="15.053312714067635"><ele>443.0</ele><time>2026-04-18T17:23:20Z</time></trkpt><trkpt lat="37.034106033685696" lon="15.053493575683168"><ele>446.0</ele><time>2026-04-18T17:23:21Z</time></trkpt><trkpt lat="37.033989435383575" lon="15.053749611496322"><ele>449.0</ele><time>2026-04-18T17:23:22Z</time></trkpt><trkpt lat="37.03386287187544" lon="15.0540390678483"><ele>446.5</ele><time>2026-04-18T17:23:23Z</time></trkpt><trkpt lat="37.0337366225112" lon="15.054338928573497"><ele>444.0</ele><time>2026-04-18T17:23:24Z</time></trkpt><trkpt lat="37.033603404072096" lon="15.05461843574842"><ele>444.0</ele><time>2026-04-18T17:23:25Z</time></trkpt><trkpt lat="37.03350599304037" lon="15.054863983438144"><ele>444.0</ele><time>2026-04-18T17:23:26Z</time></trkpt><trkpt lat="37.033397102558624" lon="15.055098375652086"><ele>444.0</ele><time>2026-04-18T17:23:27Z</time></trkpt><trkpt lat="37.03327897523398" lon="15.055342978002708"><ele>442.0</ele><time>2026-04-18T17:23:28Z</time></trkpt><trkpt lat="37.03316341949428" lon="15.055595046899585"><ele>440.0</ele><time>2026-04-18T17:23:29Z</time></trkpt><trkpt lat="37.033027954253534" lon="15.055860508990266"><ele>440.0</ele><time>2026-04-18T17:23:30Z</time></trkpt><trkpt lat="37.03290883587924" lon="15.056158838665308"><ele>440.0</ele><time>2026-04-18T17:23:31Z</time></trkpt><trkpt lat="37.032794184720814" lon="15.056453589919071"><ele>438.5</ele><time>2026-04-18T17:23:32Z</time></trkpt><trkpt lat="37.0326845490644" lon="15.056747201952092"><ele>437.0</ele><time>2026-04-18T17:23:33Z</time></trkpt><trkpt lat="37.03257509518706" lon="15.05704032717045"><ele>436.0</ele><time>2026-04-18T17:23:34Z</time></trkpt><trkpt lat="37.03246606381685" lon="15.057332320875664"><ele>435.0</ele><time>2026-04-18T17:23:35Z</time></trkpt><trkpt lat="37.03235833815486" lon="15.057619378782691"><ele>433.5</ele><time>2026-04-18T17:23:36Z</time></trkpt><trkpt lat="37.03224861902758" lon="15.057911336066125"><ele>432.0</ele><time>2026-04-18T17:23:37Z</time></trkpt><trkpt lat="37.03213629367887" lon="15.058210790143763"><ele>429.5</ele><time>2026-04-18T17:23:38Z</time></trkpt><trkpt lat="37.03202115981593" lon="15.058520341979202"><ele>427.0</ele><time>2026-04-18T17:23:39Z</time></trkpt><trkpt lat="37.03190357381214" lon="15.058836475230294"><ele>424.5</ele><time>2026-04-18T17:23:40Z</time></trkpt><trkpt lat="37.03179499505383" lon="15.059128373198204"><ele>422.0</ele><time>2026-04-18T17:23:41Z</time></trkpt><trkpt lat="37.03172191417174" lon="15.05942563175477"><ele>417.3333333333333</ele><time>2026-04-18T17:23:42Z</time></trkpt><trkpt lat="37.03162573049109" lon="15.059684722694701"><ele>412.66666666666663</ele><time>2026-04-18T17:23:43Z</time></trkpt><trkpt lat="37.03153601187767" lon="15.059932349821247"><ele>408.0</ele><time>2026-04-18T17:23:44Z</time></trkpt><trkpt lat="37.03144866303475" lon="15.060174360157557"><ele>407.0</ele><time>2026-04-18T17:23:45Z</time></trkpt><trkpt lat="37.03132842545203" lon="15.0603885796869"><ele>406.0</ele><time>2026-04-18T17:23:46Z</time></trkpt><trkpt lat="37.03123870844497" lon="15.060630257676765"><ele>405.0</ele><time>2026-04-18T17:23:47Z</time></trkpt><trkpt lat="37.03114857163839" lon="15.060869584915803"><ele>404.33333333333337</ele><time>2026-04-18T17:23:48Z</time></trkpt><trkpt lat="37.03106109818787" lon="15.06110184052898"><ele>403.6666666666667</ele><time>2026-04-18T17:23:49Z</time></trkpt><trkpt lat="37.030975025672596" lon="15.061322298212177"><ele>403.0</ele><time>2026-04-18T17:23:50Z</time></trkpt><trkpt lat="37.03088580971265" lon="15.061540711531109"><ele>397.6666666666667</ele><time>2026-04-18T17:23:51Z</time></trkpt><trkpt lat="37.030786752075365" lon="15.061766763784187"><ele>392.33333333333337</ele><time>2026-04-18T17:23:52Z</time></trkpt><trkpt lat="37.03068164679308" lon="15.061974998783905"><ele>387.0</ele><time>2026-04-18T17:23:53Z</time></trkpt><trkpt lat="37.03056167778131" lon="15.0621720331993"><ele>387.0</ele><time>2026-04-18T17:23:54Z</time></trkpt><trkpt lat="37.030430366351546" lon="15.06237178009114"><ele>387.0</ele><time>2026-04-18T17:23:55Z</time></trkpt><trkpt lat="37.03029221691242" lon="15.062577212092059"><ele>387.0</ele><time>2026-04-18T17:23:56Z</time></trkpt><trkpt lat="37.030150219094914" lon="15.062781951666766"><ele>387.66666666666663</ele><time>2026-04-18T17:23:57Z</time></trkpt><trkpt lat="37.0300078892313" lon="15.062985413829665"><ele>388.3333333333333</ele><time>2026-04-18T17:23:58Z</time></trkpt><trkpt lat="37.0298755941886" lon="15.063169618825185"><ele>389.0</ele><time>2026-04-18T17:23:59Z</time></trkpt><trkpt lat="37.029754627657525" lon="15.063360453394138"><ele>387.3333333333333</ele><time>2026-04-18T17:24:00Z</time></trkpt><trkpt lat="37.02961482817673" lon="15.063522239920397"><ele>385.66666666666663</ele><time>2026-04-18T17:24:01Z</time></trkpt><trkpt lat="37.0294558270099" lon="15.063683455772866"><ele>384.0</ele><time>2026-04-18T17:24:02Z</time></trkpt><trkpt lat="37.02929007831319" lon="15.063844766194835"><ele>382.6666666666667</ele><time>2026-04-18T17:24:03Z</time></trkpt><trkpt lat="37.02912106697171" lon="15.064006869041606"><ele>381.33333333333337</ele><time>2026-04-18T17:24:04Z</time></trkpt><trkpt lat="37.02895556921302" lon="15.064169367133076"><ele>380.0</ele><time>2026-04-18T17:24:05Z</time></trkpt><trkpt lat="37.028804337486804" lon="15.064323623868608"><ele>379.6666666666667</ele><time>2026-04-18T17:24:06Z</time></trkpt><trkpt lat="37.02866942006031" lon="15.064477527789887"><ele>379.3333333333333</ele><time>2026-04-18T17:24:07Z</time></trkpt><trkpt lat="37.028557281390476" lon="15.06464350393596"><ele>379.0</ele><time>2026-04-18T17:24:08Z</time></trkpt><trkpt lat="37.028472283624595" lon="15.064817272721953"><ele>379.0</ele><time>2026-04-18T17:24:09Z</time></trkpt><trkpt lat="37.02838185141694" lon="15.064987380771186"><ele>379.0</ele><time>2026-04-18T17:24:10Z</time></trkpt><trkpt lat="37.02830616180222" lon="15.065165293189276"><ele>379.0</ele><time>2026-04-18T17:24:11Z</time></trkpt><trkpt lat="37.02823317193293" lon="15.065339830592757"><ele>377.3333333333333</ele><time>2026-04-18T17:24:12Z</time></trkpt><trkpt lat="37.02816123123975" lon="15.065511859147906"><ele>375.6666666666667</ele><time>2026-04-18T17:24:13Z</time></trkpt><trkpt lat="37.02809185864369" lon="15.065677746713737"><ele>374.0</ele><time>2026-04-18T17:24:14Z</time></trkpt><trkpt lat="37.02802135571446" lon="15.065846337248264"><ele>373.6666666666667</ele><time>2026-04-18T17:24:15Z</time></trkpt><trkpt lat="37.02794882335944" lon="15.066020914090162"><ele>373.3333333333333</ele><time>2026-04-18T17:24:16Z</time></trkpt><trkpt lat="37.02787478844435" lon="15.066199552515888"><ele>373.0</ele><time>2026-04-18T17:24:17Z</time></trkpt><trkpt lat="37.02781192196163" lon="15.066395474702613"><ele>373.0</ele><time>2026-04-18T17:24:18Z</time></trkpt><trkpt lat="37.02772858259546" lon="15.066584936623338"><ele>373.0</ele><time>2026-04-18T17:24:19Z</time></trkpt><trkpt lat="37.02765285022052" lon="15.06676846397679"><ele>373.0</ele><time>2026-04-18T17:24:20Z</time></trkpt><trkpt lat="37.02757657195909" lon="15.06695442250605"><ele>373.0</ele><time>2026-04-18T17:24:21Z</time></trkpt><trkpt lat="37.02749987404289" lon="15.067141112812147"><ele>373.0</ele><time>2026-04-18T17:24:22Z</time></trkpt><trkpt lat="37.02740587687701" lon="15.067324317537327"><ele>373.0</ele><time>2026-04-18T17:24:23Z</time></trkpt><trkpt lat="37.02733149689939" lon="15.06752567436721"><ele>371.0</ele><time>2026-04-18T17:24:24Z</time></trkpt><trkpt lat="37.027268014636476" lon="15.06774114225341"><ele>369.0</ele><time>2026-04-18T17:24:25Z</time></trkpt><trkpt lat="37.02722996082655" lon="15.067967486379473"><ele>367.0</ele><time>2026-04-18T17:24:26Z</time></trkpt><trkpt lat="37.02718063271873" lon="15.068193243009125"><ele>367.3333333333333</ele><time>2026-04-18T17:24:27Z</time></trkpt><trkpt lat="37.027137193518094" lon="15.068417317077884"><ele>367.6666666666667</ele><time>2026-04-18T17:24:28Z</time></trkpt><trkpt lat="37.02709103951867" lon="15.068648085187673"><ele>368.0</ele><time>2026-04-18T17:24:29Z</time></trkpt><trkpt lat="37.02702353959675" lon="15.068873598015031"><ele>368.0</ele><time>2026-04-18T17:24:30Z</time></trkpt><trkpt lat="37.02697447392117" lon="15.06910495482797"><ele>368.0</ele><time>2026-04-18T17:24:31Z</time></trkpt><trkpt lat="37.02692465346545" lon="15.069344911360881"><ele>368.0</ele><time>2026-04-18T17:24:32Z</time></trkpt><trkpt lat="37.02687520251595" lon="15.069584324359662"><ele>367.6666666666667</ele><time>2026-04-18T17:24:33Z</time></trkpt><trkpt lat="37.02682843257033" lon="15.06982068522879"><ele>367.3333333333333</ele><time>2026-04-18T17:24:34Z</time></trkpt><trkpt lat="37.02678314532509" lon="15.070052700986627"><ele>367.0</ele><time>2026-04-18T17:24:35Z</time></trkpt><trkpt lat="37.026736672084574" lon="15.070290539871088"><ele>366.3333333333333</ele><time>2026-04-18T17:24:36Z</time></trkpt><trkpt lat="37.026691430298435" lon="15.070521468698733"><ele>365.6666666666667</ele><time>2026-04-18T17:24:37Z</time></trkpt><trkpt lat="37.026663448898546" lon="15.07076432298118"><ele>365.0</ele><time>2026-04-18T17:24:38Z</time></trkpt><trkpt lat="37.02661557689863" lon="15.071006866871217"><ele>364.6666666666667</ele><time>2026-04-18T17:24:39Z</time></trkpt><trkpt lat="37.02657018795591" lon="15.071253725831127"><ele>364.3333333333333</ele><time>2026-04-18T17:24:40Z</time></trkpt><trkpt lat="37.02652616028927" lon="15.07150302996933"><ele>364.0</ele><time>2026-04-18T17:24:41Z</time></trkpt><trkpt lat="37.02645737269281" lon="15.071743315579537"><ele>364.0</ele><time>2026-04-18T17:24:42Z</time></trkpt><trkpt lat="37.026412055505276" lon="15.071989956589139"><ele>364.0</ele><time>2026-04-18T17:24:43Z</time></trkpt><trkpt lat="37.02636687897005" lon="15.072237295995924"><ele>364.0</ele><time>2026-04-18T17:24:44Z</time></trkpt><trkpt lat="37.02632429366121" lon="15.072470836136882"><ele>363.66666666666663</ele><time>2026-04-18T17:24:45Z</time></trkpt><trkpt lat="37.026286974343" lon="15.072692492808073"><ele>363.3333333333333</ele><time>2026-04-18T17:24:46Z</time></trkpt><trkpt lat="37.02625252331929" lon="15.072908653263804"><ele>363.0</ele><time>2026-04-18T17:24:47Z</time></trkpt><trkpt lat="37.02622378899058" lon="15.073115571739024"><ele>362.3333333333333</ele><time>2026-04-18T17:24:48Z</time></trkpt><trkpt lat="37.02619977432702" lon="15.073318553291013"><ele>361.66666666666663</ele><time>2026-04-18T17:24:49Z</time></trkpt><trkpt lat="37.026178928450506" lon="15.07351715203527"><ele>361.0</ele><time>2026-04-18T17:24:50Z</time></trkpt><trkpt lat="37.02615585729725" lon="15.073736950987382"><ele>361.0</ele><time>2026-04-18T17:24:51Z</time></trkpt><trkpt lat="37.026132031556095" lon="15.073966870473686"><ele>361.0</ele><time>2026-04-18T17:24:52Z</time></trkpt><trkpt lat="37.026108977045695" lon="15.074191035448154"><ele>361.0</ele><time>2026-04-18T17:24:53Z</time></trkpt><trkpt lat="37.02608761271144" lon="15.074399286017924"><ele>359.3333333333333</ele><time>2026-04-18T17:24:54Z</time></trkpt><trkpt lat="37.02607035007182" lon="15.074599008243629"><ele>357.6666666666667</ele><time>2026-04-18T17:24:55Z</time></trkpt><trkpt lat="37.026073993255736" lon="15.074785207097923"><ele>356.0</ele><time>2026-04-18T17:24:56Z</time></trkpt><trkpt lat="37.02608005589077" lon="15.075006668733051"><ele>353.0</ele><time>2026-04-18T17:24:57Z</time></trkpt><trkpt lat="37.026026977559845" lon="15.075269680076637"><ele>350.0</ele><time>2026-04-18T17:24:58Z</time></trkpt><trkpt lat="37.026015652412084" lon="15.07556509376118"><ele>345.5</ele><time>2026-04-18T17:24:59Z</time></trkpt><trkpt lat="37.02598338619112" lon="15.075861009862527"><ele>341.0</ele><time>2026-04-18T17:25:00Z</time></trkpt><trkpt lat="37.02597057588783" lon="15.076144845554241"><ele>341.0</ele><time>2026-04-18T17:25:01Z</time></trkpt><trkpt lat="37.02596008622069" lon="15.076423956182754"><ele>341.0</ele><time>2026-04-18T17:25:02Z</time></trkpt><trkpt lat="37.02595056183793" lon="15.076699339273846"><ele>341.0</ele><time>2026-04-18T17:25:03Z</time></trkpt><trkpt lat="37.025940980657225" lon="15.076976364590369"><ele>339.33333333333337</ele><time>2026-04-18T17:25:04Z</time></trkpt><trkpt lat="37.025931923448965" lon="15.077244892028107"><ele>337.6666666666667</ele><time>2026-04-18T17:25:05Z</time></trkpt><trkpt lat="37.02592327373063" lon="15.077504383456798"><ele>336.0</ele><time>2026-04-18T17:25:06Z</time></trkpt><trkpt lat="37.025914624365356" lon="15.07776386434619"><ele>334.3333333333333</ele><time>2026-04-18T17:25:07Z</time></trkpt><trkpt lat="37.02590565914193" lon="15.078032821012647"><ele>332.66666666666663</ele><time>2026-04-18T17:25:08Z</time></trkpt><trkpt lat="37.02589613219155" lon="15.07830804055204"><ele>331.0</ele><time>2026-04-18T17:25:09Z</time></trkpt><trkpt lat="37.0258867153555" lon="15.078580384812156"><ele>330.0</ele><time>2026-04-18T17:25:10Z</time></trkpt><trkpt lat="37.02587723405746" lon="15.078854593423213"><ele>329.0</ele><time>2026-04-18T17:25:11Z</time></trkpt><trkpt lat="37.02586758499461" lon="15.079133653942074"><ele>328.0</ele><time>2026-04-18T17:25:12Z</time></trkpt><trkpt lat="37.02585760511979" lon="15.079422281857164"><ele>325.5</ele><time>2026-04-18T17:25:13Z</time></trkpt><trkpt lat="37.025847513400755" lon="15.079714144666191"><ele>323.0</ele><time>2026-04-18T17:25:14Z</time></trkpt><trkpt lat="37.02583862436371" lon="15.0800025638702"><ele>321.0</ele><time>2026-04-18T17:25:15Z</time></trkpt><trkpt lat="37.0258285894554" lon="15.0802949377727"><ele>319.0</ele><time>2026-04-18T17:25:16Z</time></trkpt><trkpt lat="37.02581847238466" lon="15.080589403614352"><ele>325.0</ele><time>2026-04-18T17:25:17Z</time></trkpt><trkpt lat="37.02580813023654" lon="15.080890223689243"><ele>331.0</ele><time>2026-04-18T17:25:18Z</time></trkpt><trkpt lat="37.02579756399099" lon="15.081197562038145"><ele>331.0</ele><time>2026-04-18T17:25:19Z</time></trkpt><trkpt lat="37.02578689706449" lon="15.081507828864126"><ele>331.0</ele><time>2026-04-18T17:25:20Z</time></trkpt><trkpt lat="37.02577646481539" lon="15.081811269663035"><ele>329.0</ele><time>2026-04-18T17:25:21Z</time></trkpt><trkpt lat="37.02576613405723" lon="15.082111758450733"><ele>327.0</ele><time>2026-04-18T17:25:22Z</time></trkpt><trkpt lat="37.02575603192859" lon="15.082410066459818"><ele>326.0</ele><time>2026-04-18T17:25:23Z</time></trkpt><trkpt lat="37.02574605251728" lon="15.082710675064508"><ele>325.0</ele><time>2026-04-18T17:25:24Z</time></trkpt><trkpt lat="37.025736049722966" lon="15.083011766529385"><ele>327.0</ele><time>2026-04-18T17:25:25Z</time></trkpt><trkpt lat="37.02572601183675" lon="15.083310940136863"><ele>329.0</ele><time>2026-04-18T17:25:26Z</time></trkpt><trkpt lat="37.025715977201436" lon="15.083610016857149"><ele>329.0</ele><time>2026-04-18T17:25:27Z</time></trkpt><trkpt lat="37.025704442739276" lon="15.083907773890656"><ele>329.0</ele><time>2026-04-18T17:25:28Z</time></trkpt><trkpt lat="37.025696219949694" lon="15.084210487972824"><ele>330.0</ele><time>2026-04-18T17:25:29Z</time></trkpt><trkpt lat="37.025720972679316" lon="15.084504583863202"><ele>331.0</ele><time>2026-04-18T17:25:30Z</time></trkpt><trkpt lat="37.02573979182107" lon="15.084804094082784"><ele>330.0</ele><time>2026-04-18T17:25:31Z</time></trkpt><trkpt lat="37.02577607741081" lon="15.085103269088513"><ele>329.0</ele><time>2026-04-18T17:25:32Z</time></trkpt><trkpt lat="37.02582145397218" lon="15.08540658810689"><ele>320.5</ele><time>2026-04-18T17:25:33Z</time></trkpt><trkpt lat="37.025860764700425" lon="15.085699670858665"><ele>312.0</ele><time>2026-04-18T17:25:34Z</time></trkpt><trkpt lat="37.025897797014835" lon="15.085997386260305"><ele>310.5</ele><time>2026-04-18T17:25:35Z</time></trkpt><trkpt lat="37.02593121049291" lon="15.08629552650671"><ele>309.0</ele><time>2026-04-18T17:25:36Z</time></trkpt><trkpt lat="37.02593906299736" lon="15.08658952151016"><ele>309.0</ele><time>2026-04-18T17:25:37Z</time></trkpt><trkpt lat="37.025936486859486" lon="15.086873614845395"><ele>309.0</ele><time>2026-04-18T17:25:38Z</time></trkpt><trkpt lat="37.02590709872289" lon="15.08717117828264"><ele>307.0</ele><time>2026-04-18T17:25:39Z</time></trkpt><trkpt lat="37.02586606596653" lon="15.087487491211997"><ele>305.0</ele><time>2026-04-18T17:25:40Z</time></trkpt><trkpt lat="37.025840559194656" lon="15.087794532549346"><ele>311.0</ele><time>2026-04-18T17:25:41Z</time></trkpt><trkpt lat="37.02580648668353" lon="15.08809506627556"><ele>317.0</ele><time>2026-04-18T17:25:42Z</time></trkpt><trkpt lat="37.02575910628529" lon="15.088392180240367"><ele>317.0</ele><time>2026-04-18T17:25:43Z</time></trkpt><trkpt lat="37.02573670169372" lon="15.088702747555914"><ele>317.0</ele><time>2026-04-18T17:25:44Z</time></trkpt><trkpt lat="37.02573598239246" lon="15.089014688303571"><ele>316.5</ele><time>2026-04-18T17:25:45Z</time></trkpt><trkpt lat="37.02572390441022" lon="15.089323839087582"><ele>316.0</ele><time>2026-04-18T17:25:46Z</time></trkpt><trkpt lat="37.02569774879086" lon="15.089640179371706"><ele>316.0</ele><time>2026-04-18T17:25:47Z</time></trkpt><trkpt lat="37.02568669591908" lon="15.089959810293587"><ele>316.0</ele><time>2026-04-18T17:25:48Z</time></trkpt><trkpt lat="37.02567561998765" lon="15.090280108068404"><ele>316.0</ele><time>2026-04-18T17:25:49Z</time></trkpt><trkpt lat="37.02566446132487" lon="15.09060279828436"><ele>316.0</ele><time>2026-04-18T17:25:50Z</time></trkpt><trkpt lat="37.02565362382302" lon="15.090916201043724"><ele>314.0</ele><time>2026-04-18T17:25:51Z</time></trkpt><trkpt lat="37.02565804528969" lon="15.091229057706768"><ele>312.0</ele><time>2026-04-18T17:25:52Z</time></trkpt><trkpt lat="37.02564483374992" lon="15.091535973694693"><ele>308.5</ele><time>2026-04-18T17:25:53Z</time></trkpt><trkpt lat="37.025635208257945" lon="15.091827593550166"><ele>305.0</ele><time>2026-04-18T17:25:54Z</time></trkpt><trkpt lat="37.02562799132429" lon="15.092126092244616"><ele>303.0</ele><time>2026-04-18T17:25:55Z</time></trkpt><trkpt lat="37.02562365730975" lon="15.092425497676349"><ele>301.0</ele><time>2026-04-18T17:25:56Z</time></trkpt><trkpt lat="37.02562974441061" lon="15.092722347051232"><ele>301.0</ele><time>2026-04-18T17:25:57Z</time></trkpt><trkpt lat="37.025654273048616" lon="15.093026753492127"><ele>301.0</ele><time>2026-04-18T17:25:58Z</time></trkpt><trkpt lat="37.025674706605585" lon="15.09333615951541"><ele>300.5</ele><time>2026-04-18T17:25:59Z</time></trkpt><trkpt lat="37.025713509123754" lon="15.09364045902201"><ele>300.0</ele><time>2026-04-18T17:26:00Z</time></trkpt><trkpt lat="37.02575246507281" lon="15.093952894881753"><ele>301.5</ele><time>2026-04-18T17:26:01Z</time></trkpt><trkpt lat="37.02579159658841" lon="15.094266738840682"><ele>303.0</ele><time>2026-04-18T17:26:02Z</time></trkpt><trkpt lat="37.02582907151239" lon="15.094571312839903"><ele>294.5</ele><time>2026-04-18T17:26:03Z</time></trkpt><trkpt lat="37.02586474168229" lon="15.094868544756483"><ele>286.0</ele><time>2026-04-18T17:26:04Z</time></trkpt><trkpt lat="37.0259112962523" lon="15.095160014856283"><ele>285.0</ele><time>2026-04-18T17:26:05Z</time></trkpt><trkpt lat="37.025930566911285" lon="15.095456228420115"><ele>284.0</ele><time>2026-04-18T17:26:06Z</time></trkpt><trkpt lat="37.02593240382999" lon="15.095753767733676"><ele>283.5</ele><time>2026-04-18T17:26:07Z</time></trkpt><trkpt lat="37.02591763017686" lon="15.096057957943183"><ele>283.0</ele><time>2026-04-18T17:26:08Z</time></trkpt><trkpt lat="37.02588754799254" lon="15.0963757713123"><ele>283.0</ele><time>2026-04-18T17:26:09Z</time></trkpt><trkpt lat="37.02584529043516" lon="15.096688652011952"><ele>283.0</ele><time>2026-04-18T17:26:10Z</time></trkpt><trkpt lat="37.025801365188244" lon="15.097009305035026"><ele>286.5</ele><time>2026-04-18T17:26:11Z</time></trkpt><trkpt lat="37.02576166358342" lon="15.097329285829293"><ele>290.0</ele><time>2026-04-18T17:26:12Z</time></trkpt><trkpt lat="37.025722934696276" lon="15.097650606461803"><ele>290.0</ele><time>2026-04-18T17:26:13Z</time></trkpt><trkpt lat="37.02568646414725" lon="15.097977227164636"><ele>290.0</ele><time>2026-04-18T17:26:14Z</time></trkpt><trkpt lat="37.02564864653089" lon="15.098297296805246"><ele>287.5</ele><time>2026-04-18T17:26:15Z</time></trkpt><trkpt lat="37.0256108994163" lon="15.098606963934524"><ele>285.0</ele><time>2026-04-18T17:26:16Z</time></trkpt><trkpt lat="37.02556986291327" lon="15.098912671527485"><ele>283.0</ele><time>2026-04-18T17:26:17Z</time></trkpt><trkpt lat="37.02552758087699" lon="15.099207469086409"><ele>281.0</ele><time>2026-04-18T17:26:18Z</time></trkpt><trkpt lat="37.02547770883616" lon="15.099502905813019"><ele>281.0</ele><time>2026-04-18T17:26:19Z</time></trkpt><trkpt lat="37.0254141260428" lon="15.099794124572618"><ele>281.0</ele><time>2026-04-18T17:26:20Z</time></trkpt><trkpt lat="37.02533217413873" lon="15.100079846685796"><ele>281.5</ele><time>2026-04-18T17:26:21Z</time></trkpt><trkpt lat="37.02523709121269" lon="15.10036291769049"><ele>282.0</ele><time>2026-04-18T17:26:22Z</time></trkpt><trkpt lat="37.02512715113481" lon="15.100643616654603"><ele>283.5</ele><time>2026-04-18T17:26:23Z</time></trkpt><trkpt lat="37.02501024768053" lon="15.100917825963505"><ele>285.0</ele><time>2026-04-18T17:26:24Z</time></trkpt><trkpt lat="37.02488585818606" lon="15.101183887823298"><ele>285.0</ele><time>2026-04-18T17:26:25Z</time></trkpt><trkpt lat="37.024749300182236" lon="15.101442428818045"><ele>285.0</ele><time>2026-04-18T17:26:26Z</time></trkpt><trkpt lat="37.02460154230489" lon="15.101694056068036"><ele>281.0</ele><time>2026-04-18T17:26:27Z</time></trkpt><trkpt lat="37.02443514128963" lon="15.101928291854072"><ele>277.0</ele><time>2026-04-18T17:26:28Z</time></trkpt><trkpt lat="37.024263393861645" lon="15.102156623587067"><ele>278.0</ele><time>2026-04-18T17:26:29Z</time></trkpt><trkpt lat="37.02408877880857" lon="15.10239676539148"><ele>279.0</ele><time>2026-04-18T17:26:30Z</time></trkpt><trkpt lat="37.02391835045601" lon="15.10263747132971"><ele>275.5</ele><time>2026-04-18T17:26:31Z</time></trkpt><trkpt lat="37.02373940724542" lon="15.102876517916076"><ele>272.0</ele><time>2026-04-18T17:26:32Z</time></trkpt><trkpt lat="37.02355592446014" lon="15.103126679364571"><ele>268.5</ele><time>2026-04-18T17:26:33Z</time></trkpt><trkpt lat="37.0233738665304" lon="15.10337860655658"><ele>265.0</ele><time>2026-04-18T17:26:34Z</time></trkpt><trkpt lat="37.023190236005995" lon="15.10363386964063"><ele>265.0</ele><time>2026-04-18T17:26:35Z</time></trkpt><trkpt lat="37.02300844081503" lon="15.103887427053456"><ele>265.0</ele><time>2026-04-18T17:26:36Z</time></trkpt><trkpt lat="37.02282535363122" lon="15.104141767398898"><ele>263.5</ele><time>2026-04-18T17:26:37Z</time></trkpt><trkpt lat="37.02264397177565" lon="15.104398484436468"><ele>262.0</ele><time>2026-04-18T17:26:38Z</time></trkpt><trkpt lat="37.02246117834393" lon="15.10465628697303"><ele>260.0</ele><time>2026-04-18T17:26:39Z</time></trkpt><trkpt lat="37.02227646169948" lon="15.104913957939816"><ele>258.0</ele><time>2026-04-18T17:26:40Z</time></trkpt><trkpt lat="37.02209107928872" lon="15.10516928502534"><ele>258.0</ele><time>2026-04-18T17:26:41Z</time></trkpt><trkpt lat="37.021910401202206" lon="15.105422218347853"><ele>258.0</ele><time>2026-04-18T17:26:42Z</time></trkpt><trkpt lat="37.0217267756412" lon="15.105677670454844"><ele>257.0</ele><time>2026-04-18T17:26:43Z</time></trkpt><trkpt lat="37.02154539262404" lon="15.105932901829116"><ele>256.0</ele><time>2026-04-18T17:26:44Z</time></trkpt><trkpt lat="37.02137022294978" lon="15.10618235234506"><ele>256.0</ele><time>2026-04-18T17:26:45Z</time></trkpt><trkpt lat="37.02119625818433" lon="15.106429871124972"><ele>256.0</ele><time>2026-04-18T17:26:46Z</time></trkpt><trkpt lat="37.02102857310833" lon="15.106682339121333"><ele>254.0</ele><time>2026-04-18T17:26:47Z</time></trkpt><trkpt lat="37.020867189430916" lon="15.106935666974925"><ele>252.0</ele><time>2026-04-18T17:26:48Z</time></trkpt><trkpt lat="37.02071800905741" lon="15.107200057003922"><ele>251.0</ele><time>2026-04-18T17:26:49Z</time></trkpt><trkpt lat="37.020581824238576" lon="15.107483792082661"><ele>250.0</ele><time>2026-04-18T17:26:50Z</time></trkpt><trkpt lat="37.020460589672986" lon="15.1077825365622"><ele>250.0</ele><time>2026-04-18T17:26:51Z</time></trkpt><trkpt lat="37.020355356982634" lon="15.108084934777246"><ele>250.0</ele><time>2026-04-18T17:26:52Z</time></trkpt><trkpt lat="37.020258688077725" lon="15.108399165190269"><ele>248.0</ele><time>2026-04-18T17:26:53Z</time></trkpt><trkpt lat="37.020175900570294" lon="15.108719774804396"><ele>246.0</ele><time>2026-04-18T17:26:54Z</time></trkpt><trkpt lat="37.02011640895508" lon="15.109047451273426"><ele>245.0</ele><time>2026-04-18T17:26:55Z</time></trkpt><trkpt lat="37.02007783603912" lon="15.109381043066374"><ele>244.0</ele><time>2026-04-18T17:26:56Z</time></trkpt><trkpt lat="37.02005425763532" lon="15.109716733693265"><ele>244.0</ele><time>2026-04-18T17:26:57Z</time></trkpt><trkpt lat="37.02004252533345" lon="15.110047724194754"><ele>244.0</ele><time>2026-04-18T17:26:58Z</time></trkpt><trkpt lat="37.020045217346045" lon="15.110388846114883"><ele>244.0</ele><time>2026-04-18T17:26:59Z</time></trkpt><trkpt lat="37.02006455235005" lon="15.110735789850503"><ele>244.0</ele><time>2026-04-18T17:27:00Z</time></trkpt><trkpt lat="37.0201012963128" lon="15.111086374123795"><ele>244.0</ele><time>2026-04-18T17:27:01Z</time></trkpt><trkpt lat="37.020149478613995" lon="15.11143814197286"><ele>244.0</ele><time>2026-04-18T17:27:02Z</time></trkpt><trkpt lat="37.020201006559745" lon="15.111789145539134"><ele>242.5</ele><time>2026-04-18T17:27:03Z</time></trkpt><trkpt lat="37.02025718250874" lon="15.112137992161164"><ele>241.0</ele><time>2026-04-18T17:27:04Z</time></trkpt><trkpt lat="37.020314156294646" lon="15.112480553160536"><ele>240.5</ele><time>2026-04-18T17:27:05Z</time></trkpt><trkpt lat="37.02036784327641" lon="15.112815744092902"><ele>240.0</ele><time>2026-04-18T17:27:06Z</time></trkpt><trkpt lat="37.0204181872993" lon="15.113155271589926"><ele>240.0</ele><time>2026-04-18T17:27:07Z</time></trkpt><trkpt lat="37.02046878880649" lon="15.113484718405314"><ele>240.0</ele><time>2026-04-18T17:27:08Z</time></trkpt><trkpt lat="37.02051766623824" lon="15.113813536357075"><ele>239.0</ele><time>2026-04-18T17:27:09Z</time></trkpt><trkpt lat="37.02056800759591" lon="15.11414769199036"><ele>238.0</ele><time>2026-04-18T17:27:10Z</time></trkpt><trkpt lat="37.02062088220362" lon="15.11448777835"><ele>238.0</ele><time>2026-04-18T17:27:11Z</time></trkpt><trkpt lat="37.02067269095514" lon="15.114827875353587"><ele>238.0</ele><time>2026-04-18T17:27:12Z</time></trkpt><trkpt lat="37.020724910982516" lon="15.115164297199932"><ele>237.0</ele><time>2026-04-18T17:27:13Z</time></trkpt><trkpt lat="37.02077918609753" lon="15.115501508716298"><ele>236.0</ele><time>2026-04-18T17:27:14Z</time></trkpt><trkpt lat="37.02079808346695" lon="15.115844356521755"><ele>235.5</ele><time>2026-04-18T17:27:15Z</time></trkpt><trkpt lat="37.02085103514423" lon="15.116189198554764"><ele>235.0</ele><time>2026-04-18T17:27:16Z</time></trkpt><trkpt lat="37.02090250305966" lon="15.116524377747417"><ele>235.0</ele><time>2026-04-18T17:27:17Z</time></trkpt><trkpt lat="37.020954944191146" lon="15.116865894906839"><ele>235.0</ele><time>2026-04-18T17:27:18Z</time></trkpt><trkpt lat="37.02100617319304" lon="15.11719908236119"><ele>234.0</ele><time>2026-04-18T17:27:19Z</time></trkpt><trkpt lat="37.02106027617777" lon="15.11753338891461"><ele>233.0</ele><time>2026-04-18T17:27:20Z</time></trkpt><trkpt lat="37.021111863360034" lon="15.117866308958842"><ele>233.0</ele><time>2026-04-18T17:27:21Z</time></trkpt><trkpt lat="37.021164074991226" lon="15.118203258912265"><ele>233.0</ele><time>2026-04-18T17:27:22Z</time></trkpt><trkpt lat="37.021215155415774" lon="15.118532908573242"><ele>234.0</ele><time>2026-04-18T17:27:23Z</time></trkpt><trkpt lat="37.021266305835475" lon="15.11886300995412"><ele>235.0</ele><time>2026-04-18T17:27:24Z</time></trkpt><trkpt lat="37.0213145678079" lon="15.119183541873017"><ele>236.0</ele><time>2026-04-18T17:27:25Z</time></trkpt><trkpt lat="37.02136016313058" lon="15.119498129583327"><ele>237.0</ele><time>2026-04-18T17:27:26Z</time></trkpt><trkpt lat="37.02139701041228" lon="15.119794824305288"><ele>236.0</ele><time>2026-04-18T17:27:27Z</time></trkpt><trkpt lat="37.02142767691755" lon="15.120112204251239"><ele>235.0</ele><time>2026-04-18T17:27:28Z</time></trkpt><trkpt lat="37.02144230689445" lon="15.12042784941311"><ele>234.5</ele><time>2026-04-18T17:27:29Z</time></trkpt><trkpt lat="37.02144762324715" lon="15.120746352217386"><ele>234.0</ele><time>2026-04-18T17:27:30Z</time></trkpt><trkpt lat="37.02144480302155" lon="15.121065787003154"><ele>234.0</ele><time>2026-04-18T17:27:31Z</time></trkpt><trkpt lat="37.02142689325527" lon="15.121389029698458"><ele>234.0</ele><time>2026-04-18T17:27:32Z</time></trkpt><trkpt lat="37.02140087236126" lon="15.121718950031012"><ele>233.0</ele><time>2026-04-18T17:27:33Z</time></trkpt><trkpt lat="37.02137090533405" lon="15.122043989797422"><ele>232.0</ele><time>2026-04-18T17:27:34Z</time></trkpt><trkpt lat="37.021339745175744" lon="15.12238197094902"><ele>231.5</ele><time>2026-04-18T17:27:35Z</time></trkpt><trkpt lat="37.021308959462615" lon="15.12271589065232"><ele>231.0</ele><time>2026-04-18T17:27:36Z</time></trkpt><trkpt lat="37.02127959910175" lon="15.123047437952724"><ele>230.5</ele><time>2026-04-18T17:27:37Z</time></trkpt><trkpt lat="37.021250688143645" lon="15.123384048277709"><ele>230.0</ele><time>2026-04-18T17:27:38Z</time></trkpt><trkpt lat="37.0212231265832" lon="15.123709790825673"><ele>230.0</ele><time>2026-04-18T17:27:39Z</time></trkpt><trkpt lat="37.02119684641486" lon="15.124039824658679"><ele>230.0</ele><time>2026-04-18T17:27:40Z</time></trkpt><trkpt lat="37.021168101071225" lon="15.124370246901252"><ele>229.0</ele><time>2026-04-18T17:27:41Z</time></trkpt><trkpt lat="37.02113960939181" lon="15.124697753317168"><ele>228.0</ele><time>2026-04-18T17:27:42Z</time></trkpt><trkpt lat="37.02111068081356" lon="15.125026032387298"><ele>226.5</ele><time>2026-04-18T17:27:43Z</time></trkpt><trkpt lat="37.02108059114246" lon="15.125362033700407"><ele>225.0</ele><time>2026-04-18T17:27:44Z</time></trkpt><trkpt lat="37.02105119583391" lon="15.125690281298011"><ele>225.5</ele><time>2026-04-18T17:27:45Z</time></trkpt><trkpt lat="37.02102102606284" lon="15.126027177060301"><ele>226.0</ele><time>2026-04-18T17:27:46Z</time></trkpt><trkpt lat="37.020990826915025" lon="15.126364400857955"><ele>225.0</ele><time>2026-04-18T17:27:47Z</time></trkpt><trkpt lat="37.0209609083183" lon="15.12669849183078"><ele>224.0</ele><time>2026-04-18T17:27:48Z</time></trkpt><trkpt lat="37.02093072289263" lon="15.12703556240136"><ele>224.0</ele><time>2026-04-18T17:27:49Z</time></trkpt><trkpt lat="37.020900577481754" lon="15.127372186138139"><ele>224.0</ele><time>2026-04-18T17:27:50Z</time></trkpt><trkpt lat="37.02087012632153" lon="15.127712224073992"><ele>223.0</ele><time>2026-04-18T17:27:51Z</time></trkpt><trkpt lat="37.02084020525139" lon="15.128047446747761"><ele>222.0</ele><time>2026-04-18T17:27:52Z</time></trkpt><trkpt lat="37.02081046180042" lon="15.128382180827373"><ele>220.0</ele><time>2026-04-18T17:27:53Z</time></trkpt><trkpt lat="37.020780315925265" lon="15.12872233976156"><ele>218.0</ele><time>2026-04-18T17:27:54Z</time></trkpt><trkpt lat="37.02075045920999" lon="15.12905923588241"><ele>216.5</ele><time>2026-04-18T17:27:55Z</time></trkpt><trkpt lat="37.02072086201191" lon="15.129393203670347"><ele>215.0</ele><time>2026-04-18T17:27:56Z</time></trkpt><trkpt lat="37.02069210125163" lon="15.12971773329706"><ele>214.0</ele><time>2026-04-18T17:27:57Z</time></trkpt><trkpt lat="37.02066689375723" lon="15.130039013311604"><ele>213.0</ele><time>2026-04-18T17:27:58Z</time></trkpt><trkpt lat="37.02064338436337" lon="15.130362306683873"><ele>213.0</ele><time>2026-04-18T17:27:59Z</time></trkpt><trkpt lat="37.02062367705568" lon="15.130688918846444"><ele>213.0</ele><time>2026-04-18T17:28:00Z</time></trkpt><trkpt lat="37.02060579350733" lon="15.131013858337695"><ele>213.0</ele><time>2026-04-18T17:28:01Z</time></trkpt><trkpt lat="37.02058505032984" lon="15.131340916509775"><ele>213.0</ele><time>2026-04-18T17:28:02Z</time></trkpt><trkpt lat="37.020566497324445" lon="15.131672485278356"><ele>213.0</ele><time>2026-04-18T17:28:03Z</time></trkpt><trkpt lat="37.02055111906903" lon="15.131993806816208"><ele>213.0</ele><time>2026-04-18T17:28:04Z</time></trkpt><trkpt lat="37.02053925635878" lon="15.132318029477046"><ele>212.5</ele><time>2026-04-18T17:28:05Z</time></trkpt><trkpt lat="37.02055348962033" lon="15.132651242045812"><ele>212.0</ele><time>2026-04-18T17:28:06Z</time></trkpt><trkpt lat="37.020543237981556" lon="15.132980706810795"><ele>211.5</ele><time>2026-04-18T17:28:07Z</time></trkpt><trkpt lat="37.02053716068033" lon="15.133311419131283"><ele>211.0</ele><time>2026-04-18T17:28:08Z</time></trkpt><trkpt lat="37.02053347620736" lon="15.133640453659917"><ele>211.0</ele><time>2026-04-18T17:28:09Z</time></trkpt><trkpt lat="37.020501605838206" lon="15.133968283863222"><ele>211.0</ele><time>2026-04-18T17:28:10Z</time></trkpt><trkpt lat="37.02049865213165" lon="15.134287796522138"><ele>210.0</ele><time>2026-04-18T17:28:11Z</time></trkpt><trkpt lat="37.020495335105714" lon="15.13461921798562"><ele>209.0</ele><time>2026-04-18T17:28:12Z</time></trkpt><trkpt lat="37.02049199888705" lon="15.134952557054554"><ele>208.5</ele><time>2026-04-18T17:28:13Z</time></trkpt><trkpt lat="37.02048928121081" lon="15.135282930705758"><ele>208.0</ele><time>2026-04-18T17:28:14Z</time></trkpt><trkpt lat="37.02048697808004" lon="15.135613403055784"><ele>208.5</ele><time>2026-04-18T17:28:15Z</time></trkpt><trkpt lat="37.02048663892418" lon="15.135935002170566"><ele>209.0</ele><time>2026-04-18T17:28:16Z</time></trkpt><trkpt lat="37.02048708370645" lon="15.13626474764877"><ele>209.0</ele><time>2026-04-18T17:28:17Z</time></trkpt><trkpt lat="37.020488319612625" lon="15.13659787016051"><ele>209.0</ele><time>2026-04-18T17:28:18Z</time></trkpt><trkpt lat="37.02049226525777" lon="15.136934366711317"><ele>209.0</ele><time>2026-04-18T17:28:19Z</time></trkpt><trkpt lat="37.020497569860105" lon="15.137268591353132"><ele>209.0</ele><time>2026-04-18T17:28:20Z</time></trkpt><trkpt lat="37.02053605198654" lon="15.137603847178177"><ele>211.0</ele><time>2026-04-18T17:28:21Z</time></trkpt><trkpt lat="37.02054372961808" lon="15.137925775182524"><ele>213.0</ele><time>2026-04-18T17:28:22Z</time></trkpt><trkpt lat="37.02055261155796" lon="15.138244835521343"><ele>214.0</ele><time>2026-04-18T17:28:23Z</time></trkpt><trkpt lat="37.020567107780266" lon="15.138569311078564"><ele>215.0</ele><time>2026-04-18T17:28:24Z</time></trkpt><trkpt lat="37.020563078929214" lon="15.1388966422238"><ele>214.5</ele><time>2026-04-18T17:28:25Z</time></trkpt><trkpt lat="37.02060273138027" lon="15.139224965452948"><ele>214.0</ele><time>2026-04-18T17:28:26Z</time></trkpt><trkpt lat="37.02064441120352" lon="15.139545622260078"><ele>214.0</ele><time>2026-04-18T17:28:27Z</time></trkpt><trkpt lat="37.020685836412355" lon="15.139864320239257"><ele>214.0</ele><time>2026-04-18T17:28:28Z</time></trkpt><trkpt lat="37.02073014422631" lon="15.140177837927787"><ele>211.0</ele><time>2026-04-18T17:28:29Z</time></trkpt><trkpt lat="37.02085256703146" lon="15.1404768431961"><ele>208.0</ele><time>2026-04-18T17:28:30Z</time></trkpt><trkpt lat="37.02090361065773" lon="15.140782629856542"><ele>207.0</ele><time>2026-04-18T17:28:31Z</time></trkpt><trkpt lat="37.02095187709694" lon="15.141087893916493"><ele>206.0</ele><time>2026-04-18T17:28:32Z</time></trkpt><trkpt lat="37.02100194415337" lon="15.141400777730881"><ele>204.0</ele><time>2026-04-18T17:28:33Z</time></trkpt><trkpt lat="37.02104893751024" lon="15.141706310272692"><ele>202.0</ele><time>2026-04-18T17:28:34Z</time></trkpt><trkpt lat="37.021089483533665" lon="15.14201114194939"><ele>202.0</ele><time>2026-04-18T17:28:35Z</time></trkpt><trkpt lat="37.02112312519204" lon="15.142325009822706"><ele>202.0</ele><time>2026-04-18T17:28:36Z</time></trkpt><trkpt lat="37.02113824982243" lon="15.14263811908305"><ele>200.0</ele><time>2026-04-18T17:28:37Z</time></trkpt><trkpt lat="37.02114040826465" lon="15.142952601452183"><ele>198.0</ele><time>2026-04-18T17:28:38Z</time></trkpt><trkpt lat="37.02113067930939" lon="15.143269469967343"><ele>196.5</ele><time>2026-04-18T17:28:39Z</time></trkpt><trkpt lat="37.021109563148585" lon="15.143584307264048"><ele>195.0</ele><time>2026-04-18T17:28:40Z</time></trkpt><trkpt lat="37.021074122836744" lon="15.14390306175184"><ele>193.5</ele><time>2026-04-18T17:28:41Z</time></trkpt><trkpt lat="37.02103969937732" lon="15.14422240218804"><ele>192.0</ele><time>2026-04-18T17:28:42Z</time></trkpt><trkpt lat="37.02101024490713" lon="15.14454290091623"><ele>192.0</ele><time>2026-04-18T17:28:43Z</time></trkpt><trkpt lat="37.02098352079522" lon="15.14486497734594"><ele>192.0</ele><time>2026-04-18T17:28:44Z</time></trkpt><trkpt lat="37.020957849362766" lon="15.14518929783262"><ele>191.0</ele><time>2026-04-18T17:28:45Z</time></trkpt><trkpt lat="37.02093193806614" lon="15.145504846950276"><ele>190.0</ele><time>2026-04-18T17:28:46Z</time></trkpt><trkpt lat="37.02090398112909" lon="15.145811741763374"><ele>189.0</ele><time>2026-04-18T17:28:47Z</time></trkpt><trkpt lat="37.02087648725587" lon="15.14609782138418"><ele>188.0</ele><time>2026-04-18T17:28:48Z</time></trkpt><trkpt lat="37.02084866837285" lon="15.146371107005228"><ele>188.0</ele><time>2026-04-18T17:28:49Z</time></trkpt><trkpt lat="37.0208223424799" lon="15.14663934266176"><ele>188.0</ele><time>2026-04-18T17:28:50Z</time></trkpt><trkpt lat="37.02079709287085" lon="15.14691630745542"><ele>188.0</ele><time>2026-04-18T17:28:51Z</time></trkpt><trkpt lat="37.020779003093196" lon="15.147220071958381"><ele>189.0</ele><time>2026-04-18T17:28:52Z</time></trkpt><trkpt lat="37.02077266956769" lon="15.147546337277959"><ele>190.0</ele><time>2026-04-18T17:28:53Z</time></trkpt><trkpt lat="37.02078026422112" lon="15.147879866522372"><ele>189.0</ele><time>2026-04-18T17:28:54Z</time></trkpt><trkpt lat="37.02079795194047" lon="15.148221226375366"><ele>188.0</ele><time>2026-04-18T17:28:55Z</time></trkpt><trkpt lat="37.020815309449276" lon="15.148557335013622"><ele>183.5</ele><time>2026-04-18T17:28:56Z</time></trkpt><trkpt lat="37.02083126744364" lon="15.148889016053715"><ele>179.0</ele><time>2026-04-18T17:28:57Z</time></trkpt><trkpt lat="37.020843866210946" lon="15.14921135647665"><ele>177.0</ele><time>2026-04-18T17:28:58Z</time></trkpt><trkpt lat="37.02085497613817" lon="15.149541625622179"><ele>175.0</ele><time>2026-04-18T17:28:59Z</time></trkpt><trkpt lat="37.020868383787" lon="15.149869333591624"><ele>174.0</ele><time>2026-04-18T17:29:00Z</time></trkpt><trkpt lat="37.020882821655114" lon="15.150191860837792"><ele>173.0</ele><time>2026-04-18T17:29:01Z</time></trkpt><trkpt lat="37.02090104989545" lon="15.150519404494865"><ele>170.5</ele><time>2026-04-18T17:29:02Z</time></trkpt><trkpt lat="37.02091742501153" lon="15.150837250229817"><ele>168.0</ele><time>2026-04-18T17:29:03Z</time></trkpt><trkpt lat="37.02092975643414" lon="15.151148872918473"><ele>168.0</ele><time>2026-04-18T17:29:04Z</time></trkpt><trkpt lat="37.02093903185134" lon="15.151466234293567"><ele>168.0</ele><time>2026-04-18T17:29:05Z</time></trkpt><trkpt lat="37.02094750194448" lon="15.15179027544536"><ele>166.5</ele><time>2026-04-18T17:29:06Z</time></trkpt><trkpt lat="37.020959585916316" lon="15.152114692593859"><ele>165.0</ele><time>2026-04-18T17:29:07Z</time></trkpt><trkpt lat="37.02097474111988" lon="15.152441263961254"><ele>163.0</ele><time>2026-04-18T17:29:08Z</time></trkpt><trkpt lat="37.020989474875776" lon="15.152771854353304"><ele>161.0</ele><time>2026-04-18T17:29:09Z</time></trkpt><trkpt lat="37.021001105685855" lon="15.153101229925669"><ele>161.5</ele><time>2026-04-18T17:29:10Z</time></trkpt><trkpt lat="37.02101417302341" lon="15.153425559807838"><ele>162.0</ele><time>2026-04-18T17:29:11Z</time></trkpt><trkpt lat="37.0210250588188" lon="15.15375192443061"><ele>161.0</ele><time>2026-04-18T17:29:12Z</time></trkpt><trkpt lat="37.02103510000056" lon="15.154079288492504"><ele>160.0</ele><time>2026-04-18T17:29:13Z</time></trkpt><trkpt lat="37.02104488731116" lon="15.154405791442825"><ele>160.0</ele><time>2026-04-18T17:29:14Z</time></trkpt><trkpt lat="37.02105559718158" lon="15.154728836240185"><ele>160.0</ele><time>2026-04-18T17:29:15Z</time></trkpt><trkpt lat="37.021066758745576" lon="15.155049640532013"><ele>159.0</ele><time>2026-04-18T17:29:16Z</time></trkpt><trkpt lat="37.02107798712691" lon="15.155353675604513"><ele>158.0</ele><time>2026-04-18T17:29:17Z</time></trkpt><trkpt lat="37.02109072505462" lon="15.15564622454853"><ele>157.33333333333331</ele><time>2026-04-18T17:29:18Z</time></trkpt><trkpt lat="37.021107777769494" lon="15.155926122557808"><ele>156.66666666666666</ele><time>2026-04-18T17:29:19Z</time></trkpt><trkpt lat="37.02113056103232" lon="15.156198943701625"><ele>156.0</ele><time>2026-04-18T17:29:20Z</time></trkpt><trkpt lat="37.02116011595615" lon="15.156472631190875"><ele>155.0</ele><time>2026-04-18T17:29:21Z</time></trkpt><trkpt lat="37.02120440550546" lon="15.156747429776082"><ele>154.0</ele><time>2026-04-18T17:29:22Z</time></trkpt><trkpt lat="37.021266169888094" lon="15.1570225342854"><ele>154.0</ele><time>2026-04-18T17:29:23Z</time></trkpt><trkpt lat="37.02134264260981" lon="15.157287797123796"><ele>154.0</ele><time>2026-04-18T17:29:24Z</time></trkpt><trkpt lat="37.021436495412416" lon="15.157548137431633"><ele>154.0</ele><time>2026-04-18T17:29:25Z</time></trkpt><trkpt lat="37.02154566069204" lon="15.157797038647477"><ele>154.0</ele><time>2026-04-18T17:29:26Z</time></trkpt><trkpt lat="37.021675080089565" lon="15.158046827217975"><ele>152.0</ele><time>2026-04-18T17:29:27Z</time></trkpt><trkpt lat="37.02181675410531" lon="15.158287157845958"><ele>150.0</ele><time>2026-04-18T17:29:28Z</time></trkpt><trkpt lat="37.02196593410385" lon="15.158520416670667"><ele>150.0</ele><time>2026-04-18T17:29:29Z</time></trkpt><trkpt lat="37.0221219607385" lon="15.158750305254081"><ele>150.0</ele><time>2026-04-18T17:29:30Z</time></trkpt><trkpt lat="37.022289738249555" lon="15.158972884267662"><ele>150.0</ele><time>2026-04-18T17:29:31Z</time></trkpt><trkpt lat="37.02245532955375" lon="15.159176995042976"><ele>150.0</ele><time>2026-04-18T17:29:32Z</time></trkpt><trkpt lat="37.02261234468497" lon="15.159375650865346"><ele>147.66666666666666</ele><time>2026-04-18T17:29:33Z</time></trkpt><trkpt lat="37.02276095473053" lon="15.159570726252996"><ele>145.33333333333331</ele><time>2026-04-18T17:29:34Z</time></trkpt><trkpt lat="37.02287015734125" lon="15.159790993718108"><ele>143.0</ele><time>2026-04-18T17:29:35Z</time></trkpt><trkpt lat="37.02300059814169" lon="15.159986511081362"><ele>143.0</ele><time>2026-04-18T17:29:36Z</time></trkpt><trkpt lat="37.02312916915159" lon="15.16018786166076"><ele>143.0</ele><time>2026-04-18T17:29:37Z</time></trkpt><trkpt lat="37.023247356352144" lon="15.160403387543337"><ele>143.0</ele><time>2026-04-18T17:29:38Z</time></trkpt><trkpt lat="37.02335560611866" lon="15.160621561364653"><ele>139.0</ele><time>2026-04-18T17:29:39Z</time></trkpt><trkpt lat="37.02345112285311" lon="15.160841587825589"><ele>135.0</ele><time>2026-04-18T17:29:40Z</time></trkpt><trkpt lat="37.02353889749033" lon="15.161063104062722"><ele>131.0</ele><time>2026-04-18T17:29:41Z</time></trkpt><trkpt lat="37.02363275313898" lon="15.16128308722993"><ele>131.0</ele><time>2026-04-18T17:29:42Z</time></trkpt><trkpt lat="37.023689003786615" lon="15.161522156202984"><ele>131.0</ele><time>2026-04-18T17:29:43Z</time></trkpt><trkpt lat="37.023750780444516" lon="15.161751819991473"><ele>131.0</ele><time>2026-04-18T17:29:44Z</time></trkpt><trkpt lat="37.023809122109625" lon="15.161984366599997"><ele>129.33333333333331</ele><time>2026-04-18T17:29:45Z</time></trkpt><trkpt lat="37.02387413370436" lon="15.162235083752485"><ele>127.66666666666666</ele><time>2026-04-18T17:29:46Z</time></trkpt><trkpt lat="37.02394394552264" lon="15.162497172519663"><ele>126.0</ele><time>2026-04-18T17:29:47Z</time></trkpt><trkpt lat="37.02402103522474" lon="15.162788584349165"><ele>119.5</ele><time>2026-04-18T17:29:48Z</time></trkpt><trkpt lat="37.02410112994025" lon="15.16309715104112"><ele>113.0</ele><time>2026-04-18T17:29:49Z</time></trkpt><trkpt lat="37.02418425202993" lon="15.163419151254004"><ele>109.0</ele><time>2026-04-18T17:29:50Z</time></trkpt><trkpt lat="37.02427045565021" lon="15.163753088769178"><ele>105.0</ele><time>2026-04-18T17:29:51Z</time></trkpt><trkpt lat="37.02435800940522" lon="15.16409133470933"><ele>102.5</ele><time>2026-04-18T17:29:52Z</time></trkpt><trkpt lat="37.0244479540984" lon="15.16444052758346"><ele>100.0</ele><time>2026-04-18T17:29:53Z</time></trkpt><trkpt lat="37.024539857965486" lon="15.164790749947903"><ele>97.5</ele><time>2026-04-18T17:29:54Z</time></trkpt><trkpt lat="37.024632082828155" lon="15.165138375798767"><ele>95.0</ele><time>2026-04-18T17:29:55Z</time></trkpt><trkpt lat="37.02472629620719" lon="15.165491295694652"><ele>93.5</ele><time>2026-04-18T17:29:56Z</time></trkpt><trkpt lat="37.024819343972" lon="15.165845040509748"><ele>92.0</ele><time>2026-04-18T17:29:57Z</time></trkpt><trkpt lat="37.02491150851092" lon="15.166199570032134"><ele>92.0</ele><time>2026-04-18T17:29:58Z</time></trkpt><trkpt lat="37.025003757254424" lon="15.166554423113206"><ele>92.0</ele><time>2026-04-18T17:29:59Z</time></trkpt><trkpt lat="37.02509388386131" lon="15.166901112958522"><ele>92.0</ele><time>2026-04-18T17:30:00Z</time></trkpt><trkpt lat="37.02518382151983" lon="15.1672470760199"><ele>92.0</ele><time>2026-04-18T17:30:01Z</time></trkpt><trkpt lat="37.025273064295156" lon="15.167587007120694"><ele>91.0</ele><time>2026-04-18T17:30:02Z</time></trkpt><trkpt lat="37.02536350738429" lon="15.167930875241352"><ele>90.0</ele><time>2026-04-18T17:30:03Z</time></trkpt><trkpt lat="37.025453188297455" lon="15.16827184557903"><ele>87.5</ele><time>2026-04-18T17:30:04Z</time></trkpt><trkpt lat="37.02554153302171" lon="15.168606553725777"><ele>85.0</ele><time>2026-04-18T17:30:05Z</time></trkpt><trkpt lat="37.025633555552716" lon="15.168953678069954"><ele>84.0</ele><time>2026-04-18T17:30:06Z</time></trkpt><trkpt lat="37.025726505136895" lon="15.169292370383427"><ele>83.0</ele><time>2026-04-18T17:30:07Z</time></trkpt><trkpt lat="37.02582762836832" lon="15.169631764560565"><ele>82.5</ele><time>2026-04-18T17:30:08Z</time></trkpt><trkpt lat="37.02593502590925" lon="15.169964569913173"><ele>82.0</ele><time>2026-04-18T17:30:09Z</time></trkpt><trkpt lat="37.026047231323226" lon="15.170293737053914"><ele>82.0</ele><time>2026-04-18T17:30:10Z</time></trkpt><trkpt lat="37.026174642798686" lon="15.170636762842415"><ele>82.0</ele><time>2026-04-18T17:30:11Z</time></trkpt><trkpt lat="37.02630797747952" lon="15.170976290342773"><ele>80.5</ele><time>2026-04-18T17:30:12Z</time></trkpt><trkpt lat="37.02644749058083" lon="15.171323823177069"><ele>79.0</ele><time>2026-04-18T17:30:13Z</time></trkpt><trkpt lat="37.02658600610392" lon="15.171665670390592"><ele>77.0</ele><time>2026-04-18T17:30:14Z</time></trkpt><trkpt lat="37.02672954925434" lon="15.17200710445325"><ele>75.0</ele><time>2026-04-18T17:30:15Z</time></trkpt><trkpt lat="37.02686918447272" lon="15.172342617470672"><ele>75.0</ele><time>2026-04-18T17:30:16Z</time></trkpt><trkpt lat="37.027008857553724" lon="15.172683853915567"><ele>75.0</ele><time>2026-04-18T17:30:17Z</time></trkpt><trkpt lat="37.027155677914315" lon="15.173045648833336"><ele>73.5</ele><time>2026-04-18T17:30:18Z</time></trkpt><trkpt lat="37.02731167045782" lon="15.173430045703316"><ele>72.0</ele><time>2026-04-18T17:30:19Z</time></trkpt><trkpt lat="37.02747292151425" lon="15.173825563806611"><ele>71.0</ele><time>2026-04-18T17:30:20Z</time></trkpt><trkpt lat="37.027638459847644" lon="15.174231050503966"><ele>70.0</ele><time>2026-04-18T17:30:21Z</time></trkpt><trkpt lat="37.027812606183105" lon="15.174657622526441"><ele>69.0</ele><time>2026-04-18T17:30:22Z</time></trkpt><trkpt lat="37.02798887063553" lon="15.175089086027976"><ele>68.0</ele><time>2026-04-18T17:30:23Z</time></trkpt><trkpt lat="37.028172710898986" lon="15.17553792487554"><ele>66.5</ele><time>2026-04-18T17:30:24Z</time></trkpt><trkpt lat="37.02834733942267" lon="15.175964273552918"><ele>65.0</ele><time>2026-04-18T17:30:25Z</time></trkpt><trkpt lat="37.02850906508405" lon="15.176360147673996"><ele>63.5</ele><time>2026-04-18T17:30:26Z</time></trkpt><trkpt lat="37.028666380731785" lon="15.176747419813692"><ele>62.0</ele><time>2026-04-18T17:30:27Z</time></trkpt><trkpt lat="37.028827192233834" lon="15.177143297867708"><ele>61.5</ele><time>2026-04-18T17:30:28Z</time></trkpt><trkpt lat="37.02898808664581" lon="15.1775271509286"><ele>61.0</ele><time>2026-04-18T17:30:29Z</time></trkpt><trkpt lat="37.029148424217176" lon="15.177907174551923"><ele>60.0</ele><time>2026-04-18T17:30:30Z</time></trkpt><trkpt lat="37.02930032643878" lon="15.178279758401155"><ele>59.0</ele><time>2026-04-18T17:30:31Z</time></trkpt><trkpt lat="37.02945611491332" lon="15.178662309543878"><ele>58.5</ele><time>2026-04-18T17:30:32Z</time></trkpt><trkpt lat="37.02961790152749" lon="15.179038973781937"><ele>58.0</ele><time>2026-04-18T17:30:33Z</time></trkpt><trkpt lat="37.02980174476455" lon="15.179405201983244"><ele>58.0</ele><time>2026-04-18T17:30:34Z</time></trkpt><trkpt lat="37.03000248129848" lon="15.179762292711025"><ele>58.0</ele><time>2026-04-18T17:30:35Z</time></trkpt><trkpt lat="37.03020580035324" lon="15.180113214218737"><ele>57.0</ele><time>2026-04-18T17:30:36Z</time></trkpt><trkpt lat="37.0304122672984" lon="15.180464043595418"><ele>56.0</ele><time>2026-04-18T17:30:37Z</time></trkpt><trkpt lat="37.03061138515239" lon="15.180801689097517"><ele>56.5</ele><time>2026-04-18T17:30:38Z</time></trkpt><trkpt lat="37.030806811047135" lon="15.18113307774719"><ele>57.0</ele><time>2026-04-18T17:30:39Z</time></trkpt><trkpt lat="37.03102545661326" lon="15.18144211999125"><ele>55.5</ele><time>2026-04-18T17:30:40Z</time></trkpt><trkpt lat="37.0312190771767" lon="15.181767329675786"><ele>54.0</ele><time>2026-04-18T17:30:41Z</time></trkpt><trkpt lat="37.03140733404999" lon="15.182084203697848"><ele>53.5</ele><time>2026-04-18T17:30:42Z</time></trkpt><trkpt lat="37.031588106473954" lon="15.182390687616888"><ele>53.0</ele><time>2026-04-18T17:30:43Z</time></trkpt><trkpt lat="37.03176413979875" lon="15.182693139664797"><ele>54.5</ele><time>2026-04-18T17:30:44Z</time></trkpt><trkpt lat="37.03192916532451" lon="15.182985857524983"><ele>56.0</ele><time>2026-04-18T17:30:45Z</time></trkpt><trkpt lat="37.03208517555352" lon="15.18328437724079"><ele>56.0</ele><time>2026-04-18T17:30:46Z</time></trkpt><trkpt lat="37.03224123997247" lon="15.183604024198619"><ele>56.0</ele><time>2026-04-18T17:30:47Z</time></trkpt><trkpt lat="37.03237629593829" lon="15.183927258258061"><ele>57.0</ele><time>2026-04-18T17:30:48Z</time></trkpt><trkpt lat="37.03250143064362" lon="15.184273543863087"><ele>58.0</ele><time>2026-04-18T17:30:49Z</time></trkpt><trkpt lat="37.0326149862343" lon="15.184634578791895"><ele>57.5</ele><time>2026-04-18T17:30:50Z</time></trkpt><trkpt lat="37.032704666880235" lon="15.18499106688036"><ele>57.0</ele><time>2026-04-18T17:30:51Z</time></trkpt><trkpt lat="37.03278176155801" lon="15.185352309513338"><ele>56.0</ele><time>2026-04-18T17:30:52Z</time></trkpt><trkpt lat="37.032852273663046" lon="15.185695858203198"><ele>55.0</ele><time>2026-04-18T17:30:53Z</time></trkpt><trkpt lat="37.03292902873899" lon="15.186050022901172"><ele>55.0</ele><time>2026-04-18T17:30:54Z</time></trkpt><trkpt lat="37.033006221242296" lon="15.18638947938853"><ele>55.0</ele><time>2026-04-18T17:30:55Z</time></trkpt><trkpt lat="37.03308630721582" lon="15.18673228030215"><ele>54.5</ele><time>2026-04-18T17:30:56Z</time></trkpt><trkpt lat="37.03317754269172" lon="15.18707946087218"><ele>54.0</ele><time>2026-04-18T17:30:57Z</time></trkpt><trkpt lat="37.03329575324022" lon="15.1874388191607"><ele>51.0</ele><time>2026-04-18T17:30:58Z</time></trkpt><trkpt lat="37.03344583074046" lon="15.187811229051318"><ele>48.0</ele><time>2026-04-18T17:30:59Z</time></trkpt><trkpt lat="37.03361617173263" lon="15.188186782787405"><ele>46.0</ele><time>2026-04-18T17:31:00Z</time></trkpt><trkpt lat="37.03378764612038" lon="15.188575553938692"><ele>44.0</ele><time>2026-04-18T17:31:01Z</time></trkpt><trkpt lat="37.03395921583979" lon="15.188970390847025"><ele>43.0</ele><time>2026-04-18T17:31:02Z</time></trkpt><trkpt lat="37.03413737704804" lon="15.189369032624025"><ele>42.0</ele><time>2026-04-18T17:31:03Z</time></trkpt><trkpt lat="37.03431590813624" lon="15.18977185011865"><ele>40.5</ele><time>2026-04-18T17:31:04Z</time></trkpt><trkpt lat="37.03449426040075" lon="15.190169333993351"><ele>39.0</ele><time>2026-04-18T17:31:05Z</time></trkpt><trkpt lat="37.03466583964396" lon="15.190550018480614"><ele>39.5</ele><time>2026-04-18T17:31:06Z</time></trkpt><trkpt lat="37.03483990185489" lon="15.19093153285358"><ele>40.0</ele><time>2026-04-18T17:31:07Z</time></trkpt><trkpt lat="37.03501888719392" lon="15.191316639853154"><ele>40.0</ele><time>2026-04-18T17:31:08Z</time></trkpt><trkpt lat="37.0351923547647" lon="15.19168515508173"><ele>40.0</ele><time>2026-04-18T17:31:09Z</time></trkpt><trkpt lat="37.03535656795539" lon="15.192036247790895"><ele>40.0</ele><time>2026-04-18T17:31:10Z</time></trkpt><trkpt lat="37.03551820474417" lon="15.192386256573757"><ele>40.0</ele><time>2026-04-18T17:31:11Z</time></trkpt><trkpt lat="37.03567968377451" lon="15.192736533963657"><ele>41.5</ele><time>2026-04-18T17:31:12Z</time></trkpt><trkpt lat="37.035843777755595" lon="15.193085261925729"><ele>43.0</ele><time>2026-04-18T17:31:13Z</time></trkpt><trkpt lat="37.036010283395655" lon="15.193435724848253"><ele>43.0</ele><time>2026-04-18T17:31:14Z</time></trkpt><trkpt lat="37.036182444603405" lon="15.193792489748015"><ele>43.0</ele><time>2026-04-18T17:31:15Z</time></trkpt><trkpt lat="37.036349139009154" lon="15.19413838267027"><ele>44.0</ele><time>2026-04-18T17:31:16Z</time></trkpt><trkpt lat="37.0365134396062" lon="15.194476291495112"><ele>45.0</ele><time>2026-04-18T17:31:17Z</time></trkpt><trkpt lat="37.03667438949464" lon="15.194813001125272"><ele>45.0</ele><time>2026-04-18T17:31:18Z</time></trkpt><trkpt lat="37.03683571589949" lon="15.195153873647426"><ele>45.0</ele><time>2026-04-18T17:31:19Z</time></trkpt><trkpt lat="37.03700597429416" lon="15.195508739789085"><ele>45.0</ele><time>2026-04-18T17:31:20Z</time></trkpt><trkpt lat="37.03717570495904" lon="15.195860059181456"><ele>45.0</ele><time>2026-04-18T17:31:21Z</time></trkpt><trkpt lat="37.037335772278986" lon="15.196196115144806"><ele>45.0</ele><time>2026-04-18T17:31:22Z</time></trkpt><trkpt lat="37.037495157724756" lon="15.196532626488649"><ele>45.0</ele><time>2026-04-18T17:31:23Z</time></trkpt><trkpt lat="37.03765604575321" lon="15.196869070557442"><ele>45.0</ele><time>2026-04-18T17:31:24Z</time></trkpt><trkpt lat="37.037812509731054" lon="15.197198117122104"><ele>45.0</ele><time>2026-04-18T17:31:25Z</time></trkpt><trkpt lat="37.0379748248122" lon="15.197528844118558"><ele>45.5</ele><time>2026-04-18T17:31:26Z</time></trkpt><trkpt lat="37.03813432069147" lon="15.197861217060503"><ele>46.0</ele><time>2026-04-18T17:31:27Z</time></trkpt><trkpt lat="37.038296061398796" lon="15.198202391849376"><ele>46.0</ele><time>2026-04-18T17:31:28Z</time></trkpt><trkpt lat="37.038460491081025" lon="15.19854687667087"><ele>46.0</ele><time>2026-04-18T17:31:29Z</time></trkpt><trkpt lat="37.038615123706265" lon="15.198882266587885"><ele>45.0</ele><time>2026-04-18T17:31:30Z</time></trkpt><trkpt lat="37.03876790223035" lon="15.199224908538604"><ele>44.0</ele><time>2026-04-18T17:31:31Z</time></trkpt><trkpt lat="37.0389185158743" lon="15.199570097051424"><ele>44.0</ele><time>2026-04-18T17:31:32Z</time></trkpt><trkpt lat="37.039069122833595" lon="15.199903877094304"><ele>44.0</ele><time>2026-04-18T17:31:33Z</time></trkpt><trkpt lat="37.03921937628401" lon="15.20023106179327"><ele>43.5</ele><time>2026-04-18T17:31:34Z</time></trkpt><trkpt lat="37.03936627849914" lon="15.200555831697756"><ele>43.0</ele><time>2026-04-18T17:31:35Z</time></trkpt><trkpt lat="37.03950800472995" lon="15.20088028845651"><ele>42.5</ele><time>2026-04-18T17:31:36Z</time></trkpt><trkpt lat="37.039651167998954" lon="15.201208506992065"><ele>42.0</ele><time>2026-04-18T17:31:37Z</time></trkpt><trkpt lat="37.03979260018954" lon="15.201530468013214"><ele>41.5</ele><time>2026-04-18T17:31:38Z</time></trkpt><trkpt lat="37.03993781957178" lon="15.201855209356356"><ele>41.0</ele><time>2026-04-18T17:31:39Z</time></trkpt><trkpt lat="37.04008820517366" lon="15.202173613835738"><ele>41.0</ele><time>2026-04-18T17:31:40Z</time></trkpt><trkpt lat="37.040245111284904" lon="15.202482009561846"><ele>41.0</ele><time>2026-04-18T17:31:41Z</time></trkpt><trkpt lat="37.04042612970518" lon="15.202783357811986"><ele>41.0</ele><time>2026-04-18T17:31:42Z</time></trkpt><trkpt lat="37.040631488097176" lon="15.203069884087395"><ele>41.0</ele><time>2026-04-18T17:31:43Z</time></trkpt><trkpt lat="37.040853578598984" lon="15.203337620737182"><ele>40.0</ele><time>2026-04-18T17:31:44Z</time></trkpt><trkpt lat="37.04107389726933" lon="15.203607751437854"><ele>39.0</ele><time>2026-04-18T17:31:45Z</time></trkpt><trkpt lat="37.04131926020413" lon="15.203854316102737"><ele>39.0</ele><time>2026-04-18T17:31:46Z</time></trkpt><trkpt lat="37.04156948720687" lon="15.204103368195865"><ele>39.0</ele><time>2026-04-18T17:31:47Z</time></trkpt><trkpt lat="37.041825555553004" lon="15.204354815904331"><ele>39.0</ele><time>2026-04-18T17:31:48Z</time></trkpt><trkpt lat="37.04208481329305" lon="15.204610207932252"><ele>39.0</ele><time>2026-04-18T17:31:49Z</time></trkpt><trkpt lat="37.042354579801675" lon="15.204875952918893"><ele>39.5</ele><time>2026-04-18T17:31:50Z</time></trkpt><trkpt lat="37.042632962752364" lon="15.20515097602748"><ele>40.0</ele><time>2026-04-18T17:31:51Z</time></trkpt><trkpt lat="37.04291125711115" lon="15.205431005393471"><ele>40.5</ele><time>2026-04-18T17:31:52Z</time></trkpt><trkpt lat="37.04318466250663" lon="15.205710067961935"><ele>41.0</ele><time>2026-04-18T17:31:53Z</time></trkpt><trkpt lat="37.04345578273886" lon="15.205970879090353"><ele>42.0</ele><time>2026-04-18T17:31:54Z</time></trkpt><trkpt lat="37.04372068603902" lon="15.206227620644546"><ele>43.0</ele><time>2026-04-18T17:31:55Z</time></trkpt><trkpt lat="37.04397853255864" lon="15.206493884747028"><ele>43.0</ele><time>2026-04-18T17:31:56Z</time></trkpt><trkpt lat="37.04424614106136" lon="15.20675711151399"><ele>43.0</ele><time>2026-04-18T17:31:57Z</time></trkpt><trkpt lat="37.04449678113504" lon="15.207053306602198"><ele>43.0</ele><time>2026-04-18T17:31:58Z</time></trkpt><trkpt lat="37.04472396256388" lon="15.207375675606107"><ele>43.0</ele><time>2026-04-18T17:31:59Z</time></trkpt><trkpt lat="37.044963399589506" lon="15.207691207996293"><ele>43.5</ele><time>2026-04-18T17:32:00Z</time></trkpt><trkpt lat="37.045199306703054" lon="15.207988523939491"><ele>44.0</ele><time>2026-04-18T17:32:01Z</time></trkpt><trkpt lat="37.04544813394504" lon="15.208293837213036"><ele>44.0</ele><time>2026-04-18T17:32:02Z</time></trkpt><trkpt lat="37.04571726088739" lon="15.2085936972862"><ele>44.0</ele><time>2026-04-18T17:32:03Z</time></trkpt><trkpt lat="37.045977762663426" lon="15.208905624797742"><ele>43.5</ele><time>2026-04-18T17:32:04Z</time></trkpt><trkpt lat="37.0462251396939" lon="15.209200556116691"><ele>43.0</ele><time>2026-04-18T17:32:05Z</time></trkpt><trkpt lat="37.04645709877646" lon="15.209503257721723"><ele>43.5</ele><time>2026-04-18T17:32:06Z</time></trkpt><trkpt lat="37.046696276870264" lon="15.209793327673477"><ele>44.0</ele><time>2026-04-18T17:32:07Z</time></trkpt><trkpt lat="37.04693119481184" lon="15.210078231013336"><ele>43.0</ele><time>2026-04-18T17:32:08Z</time></trkpt><trkpt lat="37.04716805649574" lon="15.210364701353521"><ele>42.0</ele><time>2026-04-18T17:32:09Z</time></trkpt><trkpt lat="37.047406700659515" lon="15.210651411904363"><ele>41.5</ele><time>2026-04-18T17:32:10Z</time></trkpt><trkpt lat="37.04763305066449" lon="15.210923352078966"><ele>41.0</ele><time>2026-04-18T17:32:11Z</time></trkpt><trkpt lat="37.04786529945762" lon="15.211203561134175"><ele>41.0</ele><time>2026-04-18T17:32:12Z</time></trkpt><trkpt lat="37.048096948908395" lon="15.211484976204135"><ele>41.0</ele><time>2026-04-18T17:32:13Z</time></trkpt><trkpt lat="37.04832001284702" lon="15.211756087811644"><ele>41.0</ele><time>2026-04-18T17:32:14Z</time></trkpt><trkpt lat="37.04852688275224" lon="15.212007537967292"><ele>41.0</ele><time>2026-04-18T17:32:15Z</time></trkpt><trkpt lat="37.04872984382538" lon="15.212254236938167"><ele>41.0</ele><time>2026-04-18T17:32:16Z</time></trkpt><trkpt lat="37.04892487329825" lon="15.21249129505946"><ele>41.0</ele><time>2026-04-18T17:32:17Z</time></trkpt><trkpt lat="37.049105703416195" lon="15.21271109386877"><ele>40.666666666666664</ele><time>2026-04-18T17:32:18Z</time></trkpt><trkpt lat="37.049274068388044" lon="15.212917983276157"><ele>40.333333333333336</ele><time>2026-04-18T17:32:19Z</time></trkpt><trkpt lat="37.049421660084356" lon="15.213107092116063"><ele>40.0</ele><time>2026-04-18T17:32:20Z</time></trkpt><trkpt lat="37.049555538995286" lon="15.21328676381443"><ele>40.0</ele><time>2026-04-18T17:32:21Z</time></trkpt><trkpt lat="37.04967739847216" lon="15.213451476555008"><ele>40.0</ele><time>2026-04-18T17:32:22Z</time></trkpt><trkpt lat="37.04979396734886" lon="15.213607736563468"><ele>40.0</ele><time>2026-04-18T17:32:23Z</time></trkpt><trkpt lat="37.04990550211002" lon="15.213728913358107"><ele>39.8</ele><time>2026-04-18T17:32:24Z</time></trkpt><trkpt lat="37.04999077478392" lon="15.213852049529539"><ele>39.6</ele><time>2026-04-18T17:32:25Z</time></trkpt><trkpt lat="37.05006123068445" lon="15.213960139668766"><ele>39.4</ele><time>2026-04-18T17:32:26Z</time></trkpt><trkpt lat="37.050119420835216" lon="15.214065332238519"><ele>39.2</ele><time>2026-04-18T17:32:27Z</time></trkpt><trkpt lat="37.050153602136554" lon="15.214163124304"><ele>39.0</ele><time>2026-04-18T17:32:28Z</time></trkpt><trkpt lat="37.05016719803326" lon="15.214257294656143"><ele>39.4</ele><time>2026-04-18T17:32:29Z</time></trkpt><trkpt lat="37.050200077253685" lon="15.21434211274855"><ele>39.8</ele><time>2026-04-18T17:32:30Z</time></trkpt><trkpt lat="37.05024160378721" lon="15.214419415197423"><ele>40.199999999999996</ele><time>2026-04-18T17:32:31Z</time></trkpt><trkpt lat="37.050330273680046" lon="15.21447274377059"><ele>40.599999999999994</ele><time>2026-04-18T17:32:32Z</time></trkpt><trkpt lat="37.050404045083006" lon="15.214564621132503"><ele>41.0</ele><time>2026-04-18T17:32:33Z</time></trkpt><trkpt lat="37.050445647603155" lon="15.214716051347407"><ele>40.75</ele><time>2026-04-18T17:32:34Z</time></trkpt><trkpt lat="37.05050665694802" lon="15.214868761784846"><ele>40.5</ele><time>2026-04-18T17:32:35Z</time></trkpt><trkpt lat="37.05057096559314" lon="15.215030940625207"><ele>40.25</ele><time>2026-04-18T17:32:36Z</time></trkpt><trkpt lat="37.05063579009872" lon="15.21520831177125"><ele>40.0</ele><time>2026-04-18T17:32:37Z</time></trkpt><trkpt lat="37.05069957501918" lon="15.21539683454035"><ele>40.0</ele><time>2026-04-18T17:32:38Z</time></trkpt><trkpt lat="37.050762815741386" lon="15.215602051476653"><ele>40.0</ele><time>2026-04-18T17:32:39Z</time></trkpt><trkpt lat="37.050819052610954" lon="15.215828066218048"><ele>40.0</ele><time>2026-04-18T17:32:40Z</time></trkpt><trkpt lat="37.05087987685069" lon="15.216081803043753"><ele>39.0</ele><time>2026-04-18T17:32:41Z</time></trkpt><trkpt lat="37.05094464649526" lon="15.216359263778932"><ele>38.0</ele><time>2026-04-18T17:32:42Z</time></trkpt><trkpt lat="37.051006474085064" lon="15.216625536875334"><ele>38.0</ele><time>2026-04-18T17:32:43Z</time></trkpt><trkpt lat="37.051092713611105" lon="15.216975952030364"><ele>38.0</ele><time>2026-04-18T17:32:44Z</time></trkpt><trkpt lat="37.05121080840785" lon="15.217322334558244"><ele>37.0</ele><time>2026-04-18T17:32:45Z</time></trkpt><trkpt lat="37.05132320282726" lon="15.217656560125397"><ele>36.0</ele><time>2026-04-18T17:32:46Z</time></trkpt><trkpt lat="37.051446687313444" lon="15.217969875626569"><ele>35.0</ele><time>2026-04-18T17:32:47Z</time></trkpt><trkpt lat="37.051577524017844" lon="15.218280722118898"><ele>34.0</ele><time>2026-04-18T17:32:48Z</time></trkpt><trkpt lat="37.051726689526234" lon="15.2185803302795"><ele>32.5</ele><time>2026-04-18T17:32:49Z</time></trkpt><trkpt lat="37.05190469912461" lon="15.218855091842022"><ele>31.0</ele><time>2026-04-18T17:32:50Z</time></trkpt><trkpt lat="37.05208929055681" lon="15.219126788742717"><ele>29.5</ele><time>2026-04-18T17:32:51Z</time></trkpt><trkpt lat="37.05228733144478" lon="15.21938605210303"><ele>28.0</ele><time>2026-04-18T17:32:52Z</time></trkpt><trkpt lat="37.05248146909717" lon="15.219644449771085"><ele>24.5</ele><time>2026-04-18T17:32:53Z</time></trkpt><trkpt lat="37.05268167218232" lon="15.219885782478773"><ele>21.0</ele><time>2026-04-18T17:32:54Z</time></trkpt><trkpt lat="37.05286904381162" lon="15.220126530793646"><ele>21.0</ele><time>2026-04-18T17:32:55Z</time></trkpt><trkpt lat="37.05304974498013" lon="15.220379427732452"><ele>21.0</ele><time>2026-04-18T17:32:56Z</time></trkpt><trkpt lat="37.0532095909829" lon="15.220666760514016"><ele>17.0</ele><time>2026-04-18T17:32:57Z</time></trkpt><trkpt lat="37.0533682708086" lon="15.220945431273227"><ele>13.0</ele><time>2026-04-18T17:32:58Z</time></trkpt><trkpt lat="37.05351099596883" lon="15.221229328573996"><ele>13.0</ele><time>2026-04-18T17:32:59Z</time></trkpt><trkpt lat="37.05364927016623" lon="15.22151800365941"><ele>13.0</ele><time>2026-04-18T17:33:00Z</time></trkpt><trkpt lat="37.05377713876769" lon="15.221792685199862"><ele>13.0</ele><time>2026-04-18T17:33:01Z</time></trkpt><trkpt lat="37.053893117448354" lon="15.222048870529507"><ele>13.0</ele><time>2026-04-18T17:33:02Z</time></trkpt><trkpt lat="37.053978844956866" lon="15.222277590509417"><ele>13.0</ele><time>2026-04-18T17:33:03Z</time></trkpt><trkpt lat="37.05403882641008" lon="15.22248705204899"><ele>12.333333333333332</ele><time>2026-04-18T17:33:04Z</time></trkpt><trkpt lat="37.054078451034584" lon="15.222700442721955"><ele>11.666666666666666</ele><time>2026-04-18T17:33:05Z</time></trkpt><trkpt lat="37.054104597195376" lon="15.222914237278118"><ele>11.0</ele><time>2026-04-18T17:33:06Z</time></trkpt><trkpt lat="37.05411984571193" lon="15.223092219911434"><ele>11.0</ele><time>2026-04-18T17:33:07Z</time></trkpt><trkpt lat="37.054142787735515" lon="15.223273973572327"><ele>11.0</ele><time>2026-04-18T17:33:08Z</time></trkpt><trkpt lat="37.054128063835215" lon="15.223428497200278"><ele>11.0</ele><time>2026-04-18T17:33:09Z</time></trkpt><trkpt lat="37.05407610975386" lon="15.223577938726413"><ele>11.0</ele><time>2026-04-18T17:33:10Z</time></trkpt><trkpt lat="37.05401417875127" lon="15.223713768981684"><ele>11.0</ele><time>2026-04-18T17:33:11Z</time></trkpt><trkpt lat="37.054002943428856" lon="15.223831965315762"><ele>11.0</ele><time>2026-04-18T17:33:12Z</time></trkpt><trkpt lat="37.05403143322815" lon="15.223937343842607"><ele>11.0</ele><time>2026-04-18T17:33:13Z</time></trkpt><trkpt lat="37.054098037685065" lon="15.22402127611089"><ele>11.0</ele><time>2026-04-18T17:33:14Z</time></trkpt><trkpt lat="37.05420730862532" lon="15.224081570293441"><ele>11.0</ele><time>2026-04-18T17:33:15Z</time></trkpt><trkpt lat="37.054350052349946" lon="15.224133754900075"><ele>11.333333333333332</ele><time>2026-04-18T17:33:16Z</time></trkpt><trkpt lat="37.05451319955656" lon="15.224196522790022"><ele>11.666666666666666</ele><time>2026-04-18T17:33:17Z</time></trkpt><trkpt lat="37.05458931687616" lon="15.224419952621904"><ele>12.0</ele><time>2026-04-18T17:33:18Z</time></trkpt><trkpt lat="37.054701937273336" lon="15.224668015995064"><ele>12.0</ele><time>2026-04-18T17:33:19Z</time></trkpt><trkpt lat="37.05481832303137" lon="15.224981041474242"><ele>12.0</ele><time>2026-04-18T17:33:20Z</time></trkpt><trkpt lat="37.05494428577553" lon="15.225269176671699"><ele>11.0</ele><time>2026-04-18T17:33:21Z</time></trkpt><trkpt lat="37.055069594204056" lon="15.225569931073474"><ele>10.0</ele><time>2026-04-18T17:33:22Z</time></trkpt><trkpt lat="37.05519797136539" lon="15.225832842635135"><ele>10.0</ele><time>2026-04-18T17:33:23Z</time></trkpt><trkpt lat="37.05528785694358" lon="15.226098908820013"><ele>10.0</ele><time>2026-04-18T17:33:24Z</time></trkpt><trkpt lat="37.055356004175415" lon="15.22633596322233"><ele>10.0</ele><time>2026-04-18T17:33:25Z</time></trkpt><trkpt lat="37.05538477218551" lon="15.226558215390952"><ele>10.5</ele><time>2026-04-18T17:33:26Z</time></trkpt><trkpt lat="37.055397240718285" lon="15.226773196867683"><ele>11.0</ele><time>2026-04-18T17:33:27Z</time></trkpt><trkpt lat="37.055403611431394" lon="15.22694209492104"><ele>11.5</ele><time>2026-04-18T17:33:28Z</time></trkpt><trkpt lat="37.055400701756454" lon="15.227030608181966"><ele>12.0</ele><time>2026-04-18T17:33:29Z</time></trkpt><trkpt lat="37.05532794339134" lon="15.22718472978722"><ele>11.0</ele><time>2026-04-18T17:33:31Z</time></trkpt><trkpt lat="37.05525437225806" lon="15.22731264241799"><ele>10.0</ele><time>2026-04-18T17:33:32Z</time></trkpt><trkpt lat="37.05524231383171" lon="15.227430440582342"><ele>9.0</ele><time>2026-04-18T17:33:33Z</time></trkpt><trkpt lat="37.055287061878495" lon="15.227532888210542"><ele>8.0</ele><time>2026-04-18T17:33:34Z</time></trkpt><trkpt lat="37.05537861511822" lon="15.22760755642845"><ele>7.0</ele><time>2026-04-18T17:33:35Z</time></trkpt><trkpt lat="37.055491838446606" lon="15.227664557237407"><ele>7.0</ele><time>2026-04-18T17:33:36Z</time></trkpt><trkpt lat="37.055660238787986" lon="15.227684212913429"><ele>7.0</ele><time>2026-04-18T17:33:37Z</time></trkpt><trkpt lat="37.05581725859481" lon="15.227790692095502"><ele>7.0</ele><time>2026-04-18T17:33:38Z</time></trkpt><trkpt lat="37.05599026882209" lon="15.227959877536664"><ele>8.0</ele><time>2026-04-18T17:33:39Z</time></trkpt><trkpt lat="37.05619427228787" lon="15.228181902289476"><ele>9.0</ele><time>2026-04-18T17:33:40Z</time></trkpt><trkpt lat="37.056394198557825" lon="15.228414975363346"><ele>9.0</ele><time>2026-04-18T17:33:41Z</time></trkpt><trkpt lat="37.05660758648971" lon="15.228608447413109"><ele>9.0</ele><time>2026-04-18T17:33:42Z</time></trkpt><trkpt lat="37.05679585666524" lon="15.228787041190554"><ele>10.5</ele><time>2026-04-18T17:33:43Z</time></trkpt><trkpt lat="37.05696039543526" lon="15.228992247558715"><ele>12.0</ele><time>2026-04-18T17:33:44Z</time></trkpt><trkpt lat="37.05713454422927" lon="15.229228971332688"><ele>12.0</ele><time>2026-04-18T17:33:45Z</time></trkpt><trkpt lat="37.05731180556955" lon="15.229468968625334"><ele>12.0</ele><time>2026-04-18T17:33:46Z</time></trkpt><trkpt lat="37.05748584503466" lon="15.229700220740062"><ele>15.5</ele><time>2026-04-18T17:33:47Z</time></trkpt><trkpt lat="37.05765088001035" lon="15.229913011139836"><ele>19.0</ele><time>2026-04-18T17:33:48Z</time></trkpt><trkpt lat="37.057815421396874" lon="15.230109646295777"><ele>19.0</ele><time>2026-04-18T17:33:49Z</time></trkpt><trkpt lat="37.05799165355388" lon="15.230262835269217"><ele>19.0</ele><time>2026-04-18T17:33:50Z</time></trkpt><trkpt lat="37.0581830924859" lon="15.230414422759972"><ele>19.0</ele><time>2026-04-18T17:33:51Z</time></trkpt><trkpt lat="37.05836421563018" lon="15.230589279999888"><ele>18.666666666666664</ele><time>2026-04-18T17:33:52Z</time></trkpt><trkpt lat="37.05854192230528" lon="15.230741882976218"><ele>18.333333333333332</ele><time>2026-04-18T17:33:53Z</time></trkpt><trkpt lat="37.05870434907392" lon="15.230881212694273"><ele>18.0</ele><time>2026-04-18T17:33:54Z</time></trkpt><trkpt lat="37.05885756125633" lon="15.231013238144413"><ele>18.0</ele><time>2026-04-18T17:33:55Z</time></trkpt><trkpt lat="37.05899757243669" lon="15.23113577037984"><ele>18.0</ele><time>2026-04-18T17:33:56Z</time></trkpt><trkpt lat="37.05913041812873" lon="15.231257317140079"><ele>18.0</ele><time>2026-04-18T17:33:57Z</time></trkpt><trkpt lat="37.05923441633873" lon="15.231375904565427"><ele>17.75</ele><time>2026-04-18T17:33:58Z</time></trkpt><trkpt lat="37.05930594336051" lon="15.23147155841983"><ele>17.5</ele><time>2026-04-18T17:33:59Z</time></trkpt><trkpt lat="37.05935461383862" lon="15.231540989071526"><ele>17.25</ele><time>2026-04-18T17:34:00Z</time></trkpt><trkpt lat="37.059546710232354" lon="15.231463498685349"><ele>17.0</ele><time>2026-04-18T17:34:03Z</time></trkpt><trkpt lat="37.05959720279445" lon="15.231388537739264"><ele>17.0</ele><time>2026-04-18T17:34:04Z</time></trkpt><trkpt lat="37.059650553298844" lon="15.231301255636025"><ele>17.0</ele><time>2026-04-18T17:34:05Z</time></trkpt><trkpt lat="37.059717396554525" lon="15.231172043982934"><ele>17.0</ele><time>2026-04-18T17:34:06Z</time></trkpt><trkpt lat="37.059821829175426" lon="15.230969292651658"><ele>17.0</ele><time>2026-04-18T17:34:07Z</time></trkpt><trkpt lat="37.059945636129264" lon="15.230734723046426"><ele>19.0</ele><time>2026-04-18T17:34:08Z</time></trkpt><trkpt lat="37.060068248192444" lon="15.23053305376768"><ele>21.0</ele><time>2026-04-18T17:34:09Z</time></trkpt><trkpt lat="37.06015235685737" lon="15.230372135952939"><ele>23.0</ele><time>2026-04-18T17:34:10Z</time></trkpt><trkpt lat="37.06020910073774" lon="15.230236995062223"><ele>23.0</ele><time>2026-04-18T17:34:11Z</time></trkpt><trkpt lat="37.06023600476929" lon="15.230090084077794"><ele>23.0</ele><time>2026-04-18T17:34:12Z</time></trkpt><trkpt lat="37.060229191281046" lon="15.22992322833826"><ele>23.0</ele><time>2026-04-18T17:34:13Z</time></trkpt><trkpt lat="37.06019940411902" lon="15.22974655792521"><ele>23.0</ele><time>2026-04-18T17:34:14Z</time></trkpt><trkpt lat="37.060183048447534" lon="15.229574807002624"><ele>23.333333333333336</ele><time>2026-04-18T17:34:15Z</time></trkpt><trkpt lat="37.06018854046266" lon="15.229379168452756"><ele>23.666666666666668</ele><time>2026-04-18T17:34:16Z</time></trkpt><trkpt lat="37.06021278181579" lon="15.229160270004666"><ele>24.0</ele><time>2026-04-18T17:34:17Z</time></trkpt><trkpt lat="37.060240207206895" lon="15.228973115050048"><ele>24.5</ele><time>2026-04-18T17:34:18Z</time></trkpt><trkpt lat="37.060257400728226" lon="15.22882609688623"><ele>25.0</ele><time>2026-04-18T17:34:19Z</time></trkpt><trkpt lat="37.060266597490624" lon="15.228677820366205"><ele>25.5</ele><time>2026-04-18T17:34:20Z</time></trkpt><trkpt lat="37.060254424118966" lon="15.22850147289249"><ele>26.0</ele><time>2026-04-18T17:34:21Z</time></trkpt><trkpt lat="37.0602300658532" lon="15.228333337039896"><ele>26.0</ele><time>2026-04-18T17:34:22Z</time></trkpt><trkpt lat="37.060216855163404" lon="15.228191714367044"><ele>26.0</ele><time>2026-04-18T17:34:23Z</time></trkpt><trkpt lat="37.060208880581214" lon="15.2280609157048"><ele>26.0</ele><time>2026-04-18T17:34:24Z</time></trkpt><trkpt lat="37.06020475289179" lon="15.227938662963636"><ele>26.0</ele><time>2026-04-18T17:34:25Z</time></trkpt><trkpt lat="37.06018215604054" lon="15.22780290874378"><ele>26.0</ele><time>2026-04-18T17:34:26Z</time></trkpt><trkpt lat="37.060132853902466" lon="15.227618544262684"><ele>26.0</ele><time>2026-04-18T17:34:27Z</time></trkpt><trkpt lat="37.06009144159484" lon="15.22741102803676"><ele>26.0</ele><time>2026-04-18T17:34:28Z</time></trkpt><trkpt lat="37.0600786197164" lon="15.227208522828732"><ele>26.0</ele><time>2026-04-18T17:34:29Z</time></trkpt><trkpt lat="37.0600751191315" lon="15.227004603688231"><ele>26.0</ele><time>2026-04-18T17:34:30Z</time></trkpt><trkpt lat="37.06006947724799" lon="15.226779041536151"><ele>26.0</ele><time>2026-04-18T17:34:31Z</time></trkpt><trkpt lat="37.06006101278294" lon="15.226531030245786"><ele>26.0</ele><time>2026-04-18T17:34:32Z</time></trkpt><trkpt lat="37.06005604551269" lon="15.226252516187024"><ele>26.0</ele><time>2026-04-18T17:34:33Z</time></trkpt><trkpt lat="37.06005619965036" lon="15.225961976036443"><ele>26.0</ele><time>2026-04-18T17:34:34Z</time></trkpt><trkpt lat="37.06005672427816" lon="15.225661523274749"><ele>26.0</ele><time>2026-04-18T17:34:35Z</time></trkpt><trkpt lat="37.060053320307" lon="15.225402350048311"><ele>26.0</ele><time>2026-04-18T17:34:36Z</time></trkpt><trkpt lat="37.06004329841928" lon="15.225178219130303"><ele>26.0</ele><time>2026-04-18T17:34:37Z</time></trkpt><trkpt lat="37.060042747133096" lon="15.224994929550911"><ele>26.0</ele><time>2026-04-18T17:34:38Z</time></trkpt><trkpt lat="37.060049672987695" lon="15.224831932887065"><ele>26.0</ele><time>2026-04-18T17:34:39Z</time></trkpt><trkpt lat="37.0600597625314" lon="15.224679602447125"><ele>26.0</ele><time>2026-04-18T17:34:40Z</time></trkpt><trkpt lat="37.06006900868112" lon="15.224552302553557"><ele>26.0</ele><time>2026-04-18T17:34:41Z</time></trkpt><trkpt lat="37.06008898020366" lon="15.224427907074046"><ele>26.25</ele><time>2026-04-18T17:34:42Z</time></trkpt><trkpt lat="37.06011534720057" lon="15.224279750527826"><ele>26.5</ele><time>2026-04-18T17:34:43Z</time></trkpt><trkpt lat="37.06015545531144" lon="15.22410705885851"><ele>26.75</ele><time>2026-04-18T17:34:44Z</time></trkpt><trkpt lat="37.06021252756452" lon="15.223921444801015"><ele>27.0</ele><time>2026-04-18T17:34:45Z</time></trkpt><trkpt lat="37.06027654947964" lon="15.223726150703635"><ele>26.0</ele><time>2026-04-18T17:34:46Z</time></trkpt><trkpt lat="37.060349041294366" lon="15.223552885189862"><ele>25.0</ele><time>2026-04-18T17:34:47Z</time></trkpt><trkpt lat="37.06042725809781" lon="15.223394515773666"><ele>24.0</ele><time>2026-04-18T17:34:48Z</time></trkpt><trkpt lat="37.06051154342341" lon="15.223256199640002"><ele>23.0</ele><time>2026-04-18T17:34:49Z</time></trkpt><trkpt lat="37.06058001632433" lon="15.22313709263402"><ele>23.25</ele><time>2026-04-18T17:34:50Z</time></trkpt><trkpt lat="37.06064479222009" lon="15.223037222555144"><ele>23.5</ele><time>2026-04-18T17:34:51Z</time></trkpt><trkpt lat="37.06074668755237" lon="15.22297806418628"><ele>23.75</ele><time>2026-04-18T17:34:52Z</time></trkpt><trkpt lat="37.0608796460795" lon="15.222869813501246"><ele>24.0</ele><time>2026-04-18T17:34:53Z</time></trkpt><trkpt lat="37.06105090359979" lon="15.222735280060126"><ele>24.0</ele><time>2026-04-18T17:34:54Z</time></trkpt><trkpt lat="37.06119148725648" lon="15.222603690016946"><ele>24.0</ele><time>2026-04-18T17:34:55Z</time></trkpt><trkpt lat="37.061336882597516" lon="15.222487276952263"><ele>24.0</ele><time>2026-04-18T17:34:56Z</time></trkpt><trkpt lat="37.06146804419896" lon="15.222377883661387"><ele>24.0</ele><time>2026-04-18T17:34:57Z</time></trkpt><trkpt lat="37.06157549812894" lon="15.222261630722297"><ele>24.0</ele><time>2026-04-18T17:34:58Z</time></trkpt><trkpt lat="37.06168157501847" lon="15.222100738610026"><ele>24.0</ele><time>2026-04-18T17:34:59Z</time></trkpt><trkpt lat="37.06176307528087" lon="15.221927559220426"><ele>24.799999999999997</ele><time>2026-04-18T17:35:00Z</time></trkpt><trkpt lat="37.06182223634722" lon="15.22179750068915"><ele>25.599999999999998</ele><time>2026-04-18T17:35:01Z</time></trkpt><trkpt lat="37.06186447086301" lon="15.22166853013234"><ele>26.4</ele><time>2026-04-18T17:35:02Z</time></trkpt><trkpt lat="37.06189168372069" lon="15.221548295261371"><ele>27.2</ele><time>2026-04-18T17:35:03Z</time></trkpt><trkpt lat="37.06187084061482" lon="15.2214090584099"><ele>28.0</ele><time>2026-04-18T17:35:04Z</time></trkpt><trkpt lat="37.06186714871556" lon="15.22121273305333"><ele>28.2</ele><time>2026-04-18T17:35:05Z</time></trkpt><trkpt lat="37.06184218361166" lon="15.221007722896891"><ele>28.4</ele><time>2026-04-18T17:35:06Z</time></trkpt><trkpt lat="37.061821796855604" lon="15.220873537121168"><ele>28.599999999999998</ele><time>2026-04-18T17:35:07Z</time></trkpt><trkpt lat="37.06181198925777" lon="15.220780011022352"><ele>28.799999999999997</ele><time>2026-04-18T17:35:08Z</time></trkpt><trkpt lat="37.06180479886024" lon="15.220682670121954"><ele>29.0</ele><time>2026-04-18T17:35:10Z</time></trkpt><trkpt lat="37.061812517239986" lon="15.22059400135752"><ele>29.0</ele><time>2026-04-18T17:35:12Z</time></trkpt><trkpt lat="37.06197869623257" lon="15.220614564952319"><ele>29.0</ele><time>2026-04-18T17:35:32Z</time></trkpt><trkpt lat="37.06201047899105" lon="15.220690826622658"><ele>29.0</ele><time>2026-04-18T17:35:35Z</time></trkpt><trkpt lat="37.0620592272744" lon="15.220776680717973"><ele>29.0</ele><time>2026-04-18T17:35:38Z</time></trkpt><trkpt lat="37.06206810503666" lon="15.220861744200773"><ele>29.0</ele><time>2026-04-18T17:35:43Z</time></trkpt><trkpt lat="37.06217335211965" lon="15.220890588694873"><ele>28.999999999999996</ele><time>2026-04-18T17:35:46Z</time></trkpt><trkpt lat="37.062240168419926" lon="15.220862509000629"><ele>29.0</ele><time>2026-04-18T17:35:51Z</time></trkpt><trkpt lat="37.06227473036105" lon="15.220781912894765"><ele>29.0</ele><time>2026-04-18T17:35:56Z</time></trkpt><trkpt lat="37.06220404355279" lon="15.220722161285186"><ele>29.0</ele><time>2026-04-18T17:36:04Z</time></trkpt><trkpt lat="37.062181719957934" lon="15.220802343767811"><ele>28.999999999999996</ele><time>2026-04-18T17:36:11Z</time></trkpt><trkpt lat="37.06222513804289" lon="15.220725954914075"><ele>29.0</ele><time>2026-04-18T17:36:34Z</time></trkpt><trkpt lat="37.06231794559017" lon="15.22062359082135"><ele>27.0</ele><time>2026-04-18T17:44:02Z</time></trkpt><trkpt lat="37.062254691604736" lon="15.22067848938191"><ele>29.0</ele><time>2026-04-18T17:44:26.024Z</time></trkpt></trkseg></trk></gpx>